<?xml version='1.0' encoding='UTF-8'?><gpx version="1.1" creator="JPX - https://github.com/jenetics/jpx" xmlns="http://www.topografix.com/GPX/1/1"><trk><trkseg><trkpt lat="45.30849503336493" lon="9.268298823993252"><ele>86.0</ele><time>2026-04-19T09:01:10.999Z</time></trkpt><trkpt lat="45.30844165428056" lon="9.268229097688184"><ele>86.0</ele><time>2026-04-19T09:01:21.999Z</time></trkpt><trkpt lat="45.308328394235836" lon="9.268267544657323"><ele>86.0</ele><time>2026-04-19T09:01:23.999Z</time></trkpt><trkpt lat="45.3082488353414" lon="9.268294943337814"><ele>86.0</ele><time>2026-04-19T09:01:24.999Z</time></trkpt><trkpt lat="45.30817727589359" lon="9.268328370382024"><ele>86.0</ele><time>2026-04-19T09:01:25.999Z</time></trkpt><trkpt lat="45.30811475806928" lon="9.268355773740982"><ele>86.0</ele><time>2026-04-19T09:01:26.999Z</time></trkpt><trkpt lat="45.30801866820781" lon="9.26840380272384"><ele>86.0</ele><time>2026-04-19T09:01:28.999Z</time></trkpt><trkpt lat="45.307937624766836" lon="9.268425435592448"><ele>86.0</ele><time>2026-04-19T09:01:30.999Z</time></trkpt><trkpt lat="45.30784774466509" lon="9.26837542642284"><ele>86.0</ele><time>2026-04-19T09:01:32.999Z</time></trkpt><trkpt lat="45.30776760567545" lon="9.26830493630936"><ele>86.0</ele><time>2026-04-19T09:01:34.999Z</time></trkpt><trkpt lat="45.30768594997249" lon="9.268243101203309"><ele>86.0</ele><time>2026-04-19T09:01:36.999Z</time></trkpt><trkpt lat="45.30761504185425" lon="9.268241715784495"><ele>86.0</ele><time>2026-04-19T09:01:37.999Z</time></trkpt><trkpt lat="45.30754300194068" lon="9.268209855029532"><ele>86.0</ele><time>2026-04-19T09:01:38.999Z</time></trkpt><trkpt lat="45.307459347349514" lon="9.268164208614156"><ele>86.0</ele><time>2026-04-19T09:01:39.999Z</time></trkpt><trkpt lat="45.30737687645409" lon="9.268087562003045"><ele>86.0</ele><time>2026-04-19T09:01:40.999Z</time></trkpt><trkpt lat="45.30731864030847" lon="9.267972221951167"><ele>86.0</ele><time>2026-04-19T09:01:41.999Z</time></trkpt><trkpt lat="45.30723747495604" lon="9.267863342525006"><ele>86.0</ele><time>2026-04-19T09:01:42.999Z</time></trkpt><trkpt lat="45.30716746337407" lon="9.267729638178686"><ele>86.0</ele><time>2026-04-19T09:01:43.999Z</time></trkpt><trkpt lat="45.30708845505448" lon="9.267599688467596"><ele>86.0</ele><time>2026-04-19T09:01:44.999Z</time></trkpt><trkpt lat="45.30701231479117" lon="9.26746176566557"><ele>86.0</ele><time>2026-04-19T09:01:45.999Z</time></trkpt><trkpt lat="45.306936011423964" lon="9.267328884598623"><ele>86.0</ele><time>2026-04-19T09:01:46.999Z</time></trkpt><trkpt lat="45.30685723270966" lon="9.267188676815726"><ele>86.25</ele><time>2026-04-19T09:01:47.999Z</time></trkpt><trkpt lat="45.3067798149131" lon="9.267056212345087"><ele>86.5</ele><time>2026-04-19T09:01:48.999Z</time></trkpt><trkpt lat="45.30669636518765" lon="9.266928173645788"><ele>86.75</ele><time>2026-04-19T09:01:49.999Z</time></trkpt><trkpt lat="45.30662839903202" lon="9.26680070077966"><ele>87.0</ele><time>2026-04-19T09:01:50.999Z</time></trkpt><trkpt lat="45.306566048164406" lon="9.266689441389351"><ele>87.0</ele><time>2026-04-19T09:01:51.999Z</time></trkpt><trkpt lat="45.30650339424679" lon="9.266587906208816"><ele>87.0</ele><time>2026-04-19T09:01:52.999Z</time></trkpt><trkpt lat="45.3064326665433" lon="9.266466463379157"><ele>87.0</ele><time>2026-04-19T09:01:53.999Z</time></trkpt><trkpt lat="45.30635162746438" lon="9.266337312527904"><ele>87.0</ele><time>2026-04-19T09:01:54.999Z</time></trkpt><trkpt lat="45.30627429101223" lon="9.266195528306698"><ele>86.5</ele><time>2026-04-19T09:01:55.999Z</time></trkpt><trkpt lat="45.306194413670795" lon="9.266063333661346"><ele>86.0</ele><time>2026-04-19T09:01:56.999Z</time></trkpt><trkpt lat="45.30611159671165" lon="9.265922671021633"><ele>85.5</ele><time>2026-04-19T09:01:57.999Z</time></trkpt><trkpt lat="45.306024437946725" lon="9.265777596471558"><ele>85.0</ele><time>2026-04-19T09:01:58.999Z</time></trkpt><trkpt lat="45.30593696247182" lon="9.26563570480646"><ele>85.0</ele><time>2026-04-19T09:01:59.999Z</time></trkpt><trkpt lat="45.30586119886127" lon="9.265504268538324"><ele>85.0</ele><time>2026-04-19T09:02:00.999Z</time></trkpt><trkpt lat="45.30579323877814" lon="9.26538762658187"><ele>85.0</ele><time>2026-04-19T09:02:01.999Z</time></trkpt><trkpt lat="45.30574098488543" lon="9.265291545556604"><ele>85.0</ele><time>2026-04-19T09:02:02.999Z</time></trkpt><trkpt lat="45.30569486690514" lon="9.265211425760237"><ele>85.0</ele><time>2026-04-19T09:02:03.999Z</time></trkpt><trkpt lat="45.30561366641073" lon="9.265106189887808"><ele>84.0</ele><time>2026-04-19T09:02:05.999Z</time></trkpt><trkpt lat="45.30556652791331" lon="9.264989920315438"><ele>83.0</ele><time>2026-04-19T09:02:07.999Z</time></trkpt><trkpt lat="45.305324585772716" lon="9.265187568074971"><ele>82.0</ele><time>2026-04-19T09:02:09.999Z</time></trkpt><trkpt lat="45.305252266237524" lon="9.265277596586797"><ele>82.0</ele><time>2026-04-19T09:02:10.999Z</time></trkpt><trkpt lat="45.30519268842664" lon="9.265394618593113"><ele>82.0</ele><time>2026-04-19T09:02:11.999Z</time></trkpt><trkpt lat="45.30512332928866" lon="9.265520099035276"><ele>82.0</ele><time>2026-04-19T09:02:12.999Z</time></trkpt><trkpt lat="45.30502170739858" lon="9.265621385161051"><ele>82.0</ele><time>2026-04-19T09:02:13.999Z</time></trkpt><trkpt lat="45.30490744621522" lon="9.2656980671749"><ele>82.5</ele><time>2026-04-19T09:02:14.999Z</time></trkpt><trkpt lat="45.304793468538975" lon="9.2657581209788"><ele>83.0</ele><time>2026-04-19T09:02:15.999Z</time></trkpt><trkpt lat="45.30467677519253" lon="9.265805308568964"><ele>83.5</ele><time>2026-04-19T09:02:16.999Z</time></trkpt><trkpt lat="45.304557818881385" lon="9.265862247631258"><ele>84.0</ele><time>2026-04-19T09:02:17.999Z</time></trkpt><trkpt lat="45.30443465579625" lon="9.265912842609218"><ele>84.25</ele><time>2026-04-19T09:02:18.999Z</time></trkpt><trkpt lat="45.30431172300074" lon="9.265970853574721"><ele>84.5</ele><time>2026-04-19T09:02:19.999Z</time></trkpt><trkpt lat="45.30419351667479" lon="9.26603154699202"><ele>84.75</ele><time>2026-04-19T09:02:20.999Z</time></trkpt><trkpt lat="45.304065459036025" lon="9.266072528376748"><ele>85.0</ele><time>2026-04-19T09:02:21.999Z</time></trkpt><trkpt lat="45.30393728782344" lon="9.26613216889104"><ele>84.66666666666666</ele><time>2026-04-19T09:02:22.999Z</time></trkpt><trkpt lat="45.30379142287487" lon="9.26619067953654"><ele>84.33333333333333</ele><time>2026-04-19T09:02:23.999Z</time></trkpt><trkpt lat="45.30361999466009" lon="9.266250280179557"><ele>84.0</ele><time>2026-04-19T09:02:24.999Z</time></trkpt><trkpt lat="45.30345834832282" lon="9.266303041602056"><ele>84.0</ele><time>2026-04-19T09:02:25.999Z</time></trkpt><trkpt lat="45.30328231078797" lon="9.266365575236394"><ele>84.0</ele><time>2026-04-19T09:02:26.999Z</time></trkpt><trkpt lat="45.30309596500956" lon="9.266440680248998"><ele>84.0</ele><time>2026-04-19T09:02:27.999Z</time></trkpt><trkpt lat="45.30291610509403" lon="9.266505810838595"><ele>84.33333333333333</ele><time>2026-04-19T09:02:28.999Z</time></trkpt><trkpt lat="45.302747285548755" lon="9.266558300184315"><ele>84.66666666666666</ele><time>2026-04-19T09:02:29.999Z</time></trkpt><trkpt lat="45.302576020239954" lon="9.266668235788615"><ele>85.0</ele><time>2026-04-19T09:02:30.999Z</time></trkpt><trkpt lat="45.30238820902718" lon="9.266764474632197"><ele>84.66666666666666</ele><time>2026-04-19T09:02:31.999Z</time></trkpt><trkpt lat="45.30220486413575" lon="9.266857324016396"><ele>84.33333333333333</ele><time>2026-04-19T09:02:32.999Z</time></trkpt><trkpt lat="45.301999891235916" lon="9.266962764038219"><ele>84.0</ele><time>2026-04-19T09:02:33.999Z</time></trkpt><trkpt lat="45.30179538811878" lon="9.267041094296632"><ele>84.0</ele><time>2026-04-19T09:02:34.999Z</time></trkpt><trkpt lat="45.30159232065408" lon="9.267117111984179"><ele>84.0</ele><time>2026-04-19T09:02:35.999Z</time></trkpt><trkpt lat="45.30139431048751" lon="9.267187577724485"><ele>84.0</ele><time>2026-04-19T09:02:36.999Z</time></trkpt><trkpt lat="45.30118836221004" lon="9.267256477966226"><ele>84.33333333333333</ele><time>2026-04-19T09:02:37.999Z</time></trkpt><trkpt lat="45.300984018506234" lon="9.267325147617882"><ele>84.66666666666666</ele><time>2026-04-19T09:02:38.999Z</time></trkpt><trkpt lat="45.30078827952997" lon="9.267388711500416"><ele>85.0</ele><time>2026-04-19T09:02:39.999Z</time></trkpt><trkpt lat="45.30060245666885" lon="9.267445219895693"><ele>84.33333333333333</ele><time>2026-04-19T09:02:40.999Z</time></trkpt><trkpt lat="45.300429459854065" lon="9.267497063025699"><ele>83.66666666666667</ele><time>2026-04-19T09:02:41.999Z</time></trkpt><trkpt lat="45.300251635563875" lon="9.267553845696202"><ele>83.0</ele><time>2026-04-19T09:02:42.999Z</time></trkpt><trkpt lat="45.30006753134633" lon="9.267618659187612"><ele>83.0</ele><time>2026-04-19T09:02:43.999Z</time></trkpt><trkpt lat="45.29988351489779" lon="9.267657938148432"><ele>83.0</ele><time>2026-04-19T09:02:44.999Z</time></trkpt><trkpt lat="45.299699838024964" lon="9.267705945151812"><ele>83.0</ele><time>2026-04-19T09:02:45.999Z</time></trkpt><trkpt lat="45.29949633531221" lon="9.26775340834508"><ele>83.33333333333334</ele><time>2026-04-19T09:02:46.999Z</time></trkpt><trkpt lat="45.29928058753276" lon="9.2678035258971"><ele>83.66666666666667</ele><time>2026-04-19T09:02:47.999Z</time></trkpt><trkpt lat="45.29905816056514" lon="9.267855285068723"><ele>84.0</ele><time>2026-04-19T09:02:48.999Z</time></trkpt><trkpt lat="45.29883245232255" lon="9.267907844390171"><ele>84.0</ele><time>2026-04-19T09:02:49.999Z</time></trkpt><trkpt lat="45.29859851028525" lon="9.26796218425162"><ele>84.0</ele><time>2026-04-19T09:02:50.999Z</time></trkpt><trkpt lat="45.29837061888856" lon="9.268015587995073"><ele>84.0</ele><time>2026-04-19T09:02:51.999Z</time></trkpt><trkpt lat="45.298133828386916" lon="9.2680719935434"><ele>84.0</ele><time>2026-04-19T09:02:52.999Z</time></trkpt><trkpt lat="45.29791181515753" lon="9.268126494522802"><ele>84.0</ele><time>2026-04-19T09:02:53.999Z</time></trkpt><trkpt lat="45.29769823534051" lon="9.268179256726244"><ele>84.0</ele><time>2026-04-19T09:02:54.999Z</time></trkpt><trkpt lat="45.29748511002325" lon="9.268227009557659"><ele>84.0</ele><time>2026-04-19T09:02:55.999Z</time></trkpt><trkpt lat="45.297280633746745" lon="9.268269933268341"><ele>84.0</ele><time>2026-04-19T09:02:56.999Z</time></trkpt><trkpt lat="45.29706254656007" lon="9.268319341972083"><ele>84.0</ele><time>2026-04-19T09:02:57.999Z</time></trkpt><trkpt lat="45.29684821741823" lon="9.268390744064153"><ele>84.0</ele><time>2026-04-19T09:02:58.999Z</time></trkpt><trkpt lat="45.296625195356356" lon="9.268444656672811"><ele>84.0</ele><time>2026-04-19T09:02:59.999Z</time></trkpt><trkpt lat="45.29640335190345" lon="9.268458856828284"><ele>84.0</ele><time>2026-04-19T09:03:00.999Z</time></trkpt><trkpt lat="45.29618335387278" lon="9.268489073602556"><ele>84.0</ele><time>2026-04-19T09:03:01.999Z</time></trkpt><trkpt lat="45.29596041297701" lon="9.268518290781284"><ele>84.0</ele><time>2026-04-19T09:03:02.999Z</time></trkpt><trkpt lat="45.29576871280497" lon="9.268544964052497"><ele>84.0</ele><time>2026-04-19T09:03:03.999Z</time></trkpt><trkpt lat="45.29558352882786" lon="9.268575830923394"><ele>84.0</ele><time>2026-04-19T09:03:04.999Z</time></trkpt><trkpt lat="45.29539938788667" lon="9.268632198552233"><ele>84.0</ele><time>2026-04-19T09:03:05.999Z</time></trkpt><trkpt lat="45.29523822131591" lon="9.268652464864182"><ele>84.0</ele><time>2026-04-19T09:03:06.999Z</time></trkpt><trkpt lat="45.2950907924358" lon="9.268658758530965"><ele>84.0</ele><time>2026-04-19T09:03:07.999Z</time></trkpt><trkpt lat="45.294953353434884" lon="9.268671269441874"><ele>84.0</ele><time>2026-04-19T09:03:08.999Z</time></trkpt><trkpt lat="45.29481024814222" lon="9.26867153277142"><ele>84.0</ele><time>2026-04-19T09:03:09.999Z</time></trkpt><trkpt lat="45.29468333617545" lon="9.268639888287717"><ele>84.0</ele><time>2026-04-19T09:03:10.999Z</time></trkpt><trkpt lat="45.29455394459029" lon="9.268606002926616"><ele>84.0</ele><time>2026-04-19T09:03:11.999Z</time></trkpt><trkpt lat="45.294442901853124" lon="9.268574642981374"><ele>84.0</ele><time>2026-04-19T09:03:12.999Z</time></trkpt><trkpt lat="45.29435226766527" lon="9.26853368962341"><ele>84.0</ele><time>2026-04-19T09:03:13.999Z</time></trkpt><trkpt lat="45.29427273296967" lon="9.268489310216763"><ele>84.0</ele><time>2026-04-19T09:03:14.999Z</time></trkpt><trkpt lat="45.294212498053334" lon="9.268425004665719"><ele>84.0</ele><time>2026-04-19T09:03:15.999Z</time></trkpt><trkpt lat="45.29418883876303" lon="9.26832185438941"><ele>84.0</ele><time>2026-04-19T09:03:16.999Z</time></trkpt><trkpt lat="45.29416030844453" lon="9.268188181388519"><ele>84.0</ele><time>2026-04-19T09:03:17.999Z</time></trkpt><trkpt lat="45.29412075811099" lon="9.268030883171088"><ele>83.75</ele><time>2026-04-19T09:03:18.999Z</time></trkpt><trkpt lat="45.29407908685414" lon="9.267849363723867"><ele>83.5</ele><time>2026-04-19T09:03:19.999Z</time></trkpt><trkpt lat="45.294035270424196" lon="9.26765850076972"><ele>83.25</ele><time>2026-04-19T09:03:20.999Z</time></trkpt><trkpt lat="45.29399273952156" lon="9.267473236924316"><ele>83.0</ele><time>2026-04-19T09:03:21.999Z</time></trkpt><trkpt lat="45.29395039867934" lon="9.267288800756464"><ele>83.2</ele><time>2026-04-19T09:03:22.999Z</time></trkpt><trkpt lat="45.29391385891715" lon="9.267129634071928"><ele>83.4</ele><time>2026-04-19T09:03:23.999Z</time></trkpt><trkpt lat="45.29386771559622" lon="9.266993163971387"><ele>83.60000000000001</ele><time>2026-04-19T09:03:24.998Z</time></trkpt><trkpt lat="45.29384557912992" lon="9.266871809909086"><ele>83.80000000000001</ele><time>2026-04-19T09:03:25.998Z</time></trkpt><trkpt lat="45.293828058238155" lon="9.266756026468569"><ele>84.0</ele><time>2026-04-19T09:03:26.998Z</time></trkpt><trkpt lat="45.29378065343928" lon="9.266653894438463"><ele>84.0</ele><time>2026-04-19T09:03:27.998Z</time></trkpt><trkpt lat="45.29372460504215" lon="9.266578664034071"><ele>84.0</ele><time>2026-04-19T09:03:28.998Z</time></trkpt><trkpt lat="45.29362899729825" lon="9.266565382994209"><ele>84.0</ele><time>2026-04-19T09:03:29.998Z</time></trkpt><trkpt lat="45.29354830783817" lon="9.266570667493063"><ele>84.0</ele><time>2026-04-19T09:03:30.999Z</time></trkpt><trkpt lat="45.29346281720447" lon="9.26659220359374"><ele>84.0</ele><time>2026-04-19T09:03:31.999Z</time></trkpt><trkpt lat="45.293350385755936" lon="9.266629830569522"><ele>84.0</ele><time>2026-04-19T09:03:32.999Z</time></trkpt><trkpt lat="45.29324473035144" lon="9.266676650398196"><ele>84.0</ele><time>2026-04-19T09:03:33.999Z</time></trkpt><trkpt lat="45.29312576130484" lon="9.266734387658435"><ele>84.0</ele><time>2026-04-19T09:03:34.999Z</time></trkpt><trkpt lat="45.29300530604803" lon="9.266787074613024"><ele>84.0</ele><time>2026-04-19T09:03:35.999Z</time></trkpt><trkpt lat="45.292879992603794" lon="9.26684562028481"><ele>84.25</ele><time>2026-04-19T09:03:36.999Z</time></trkpt><trkpt lat="45.292751602950304" lon="9.26689573063546"><ele>84.5</ele><time>2026-04-19T09:03:37.999Z</time></trkpt><trkpt lat="45.29262315741723" lon="9.266941602655121"><ele>84.75</ele><time>2026-04-19T09:03:38.999Z</time></trkpt><trkpt lat="45.292484427305034" lon="9.266979538156185"><ele>85.0</ele><time>2026-04-19T09:03:39.999Z</time></trkpt><trkpt lat="45.292337804304935" lon="9.267020490288548"><ele>84.33333333333333</ele><time>2026-04-19T09:03:40.999Z</time></trkpt><trkpt lat="45.292180692732366" lon="9.26701594760445"><ele>83.66666666666667</ele><time>2026-04-19T09:03:41.999Z</time></trkpt><trkpt lat="45.29202001178603" lon="9.267123407782766"><ele>83.0</ele><time>2026-04-19T09:03:42.999Z</time></trkpt><trkpt lat="45.29186092015206" lon="9.267201277043041"><ele>83.0</ele><time>2026-04-19T09:03:43.999Z</time></trkpt><trkpt lat="45.29168578307579" lon="9.26728223247351"><ele>83.0</ele><time>2026-04-19T09:03:44.999Z</time></trkpt><trkpt lat="45.2915149355879" lon="9.267382608967443"><ele>83.0</ele><time>2026-04-19T09:03:45.999Z</time></trkpt><trkpt lat="45.29132201258696" lon="9.267510960123435"><ele>83.0</ele><time>2026-04-19T09:03:46.999Z</time></trkpt><trkpt lat="45.29114299581818" lon="9.267622855842395"><ele>83.0</ele><time>2026-04-19T09:03:47.999Z</time></trkpt><trkpt lat="45.290971363595915" lon="9.267720658255094"><ele>83.0</ele><time>2026-04-19T09:03:48.999Z</time></trkpt><trkpt lat="45.290806052589176" lon="9.267814527601164"><ele>83.0</ele><time>2026-04-19T09:03:49.999Z</time></trkpt><trkpt lat="45.290650484255146" lon="9.267916129606594"><ele>83.0</ele><time>2026-04-19T09:03:50.999Z</time></trkpt><trkpt lat="45.29050558831178" lon="9.26802317488563"><ele>83.0</ele><time>2026-04-19T09:03:51.999Z</time></trkpt><trkpt lat="45.290364453661" lon="9.26813197981612"><ele>82.75</ele><time>2026-04-19T09:03:52.999Z</time></trkpt><trkpt lat="45.290228865088146" lon="9.268229346679105"><ele>82.5</ele><time>2026-04-19T09:03:53.999Z</time></trkpt><trkpt lat="45.29010824630082" lon="9.268316737847854"><ele>82.25</ele><time>2026-04-19T09:03:54.999Z</time></trkpt><trkpt lat="45.28997450702451" lon="9.268417360329327"><ele>82.0</ele><time>2026-04-19T09:03:55.999Z</time></trkpt><trkpt lat="45.28984242186149" lon="9.268511724817584"><ele>82.0</ele><time>2026-04-19T09:03:56.999Z</time></trkpt><trkpt lat="45.289708391045764" lon="9.26864512167774"><ele>82.0</ele><time>2026-04-19T09:03:57.999Z</time></trkpt><trkpt lat="45.28955973710464" lon="9.268815947550912"><ele>82.0</ele><time>2026-04-19T09:03:58.999Z</time></trkpt><trkpt lat="45.28940766861702" lon="9.268977321217664"><ele>82.0</ele><time>2026-04-19T09:03:59.999Z</time></trkpt><trkpt lat="45.289257267648914" lon="9.269155059964259"><ele>82.0</ele><time>2026-04-19T09:04:00.999Z</time></trkpt><trkpt lat="45.28909861867946" lon="9.269352494409526"><ele>82.0</ele><time>2026-04-19T09:04:01.999Z</time></trkpt><trkpt lat="45.28894126107603" lon="9.269546909795972"><ele>81.66666666666666</ele><time>2026-04-19T09:04:02.999Z</time></trkpt><trkpt lat="45.288780790428014" lon="9.26973460492419"><ele>81.33333333333333</ele><time>2026-04-19T09:04:03.999Z</time></trkpt><trkpt lat="45.28862954856574" lon="9.269922761802613"><ele>81.0</ele><time>2026-04-19T09:04:04.999Z</time></trkpt><trkpt lat="45.28848677671963" lon="9.270096621138402"><ele>81.0</ele><time>2026-04-19T09:04:05.999Z</time></trkpt><trkpt lat="45.28833310998443" lon="9.27029034070292"><ele>81.0</ele><time>2026-04-19T09:04:06.999Z</time></trkpt><trkpt lat="45.28819478706733" lon="9.270462366256877"><ele>81.0</ele><time>2026-04-19T09:04:07.999Z</time></trkpt><trkpt lat="45.28807563963308" lon="9.270623468433685"><ele>81.0</ele><time>2026-04-19T09:04:08.999Z</time></trkpt><trkpt lat="45.28795377987253" lon="9.270782546107071"><ele>81.0</ele><time>2026-04-19T09:04:09.999Z</time></trkpt><trkpt lat="45.28783314470661" lon="9.270939679320739"><ele>81.0</ele><time>2026-04-19T09:04:10.999Z</time></trkpt><trkpt lat="45.28771568864253" lon="9.271105997092379"><ele>81.0</ele><time>2026-04-19T09:04:11.999Z</time></trkpt><trkpt lat="45.28761324719275" lon="9.271280942484998"><ele>81.0</ele><time>2026-04-19T09:04:12.999Z</time></trkpt><trkpt lat="45.28751644834735" lon="9.271468056084265"><ele>81.0</ele><time>2026-04-19T09:04:13.999Z</time></trkpt><trkpt lat="45.287429817194166" lon="9.271676177349985"><ele>81.0</ele><time>2026-04-19T09:04:14.999Z</time></trkpt><trkpt lat="45.287347832358115" lon="9.271882930417119"><ele>81.0</ele><time>2026-04-19T09:04:15.999Z</time></trkpt><trkpt lat="45.28727416753519" lon="9.272067956111785"><ele>81.0</ele><time>2026-04-19T09:04:16.999Z</time></trkpt><trkpt lat="45.28720493708628" lon="9.272230454867945"><ele>80.8</ele><time>2026-04-19T09:04:17.999Z</time></trkpt><trkpt lat="45.28714734754567" lon="9.272381885207938"><ele>80.6</ele><time>2026-04-19T09:04:18.999Z</time></trkpt><trkpt lat="45.28708993207953" lon="9.272528015040743"><ele>80.4</ele><time>2026-04-19T09:04:19.999Z</time></trkpt><trkpt lat="45.28703723378687" lon="9.272655928739004"><ele>80.2</ele><time>2026-04-19T09:04:20.999Z</time></trkpt><trkpt lat="45.28698090822377" lon="9.272778764254454"><ele>80.0</ele><time>2026-04-19T09:04:21.999Z</time></trkpt><trkpt lat="45.2869228660894" lon="9.272886868689888"><ele>80.0</ele><time>2026-04-19T09:04:22.999Z</time></trkpt><trkpt lat="45.286853115139046" lon="9.272965017996995"><ele>80.0</ele><time>2026-04-19T09:04:23.999Z</time></trkpt><trkpt lat="45.2867595656104" lon="9.273008347383948"><ele>80.0</ele><time>2026-04-19T09:04:24.999Z</time></trkpt><trkpt lat="45.286662617777075" lon="9.273042011635127"><ele>80.0</ele><time>2026-04-19T09:04:25.999Z</time></trkpt><trkpt lat="45.286541099055206" lon="9.27306531984727"><ele>80.0</ele><time>2026-04-19T09:04:26.999Z</time></trkpt><trkpt lat="45.28640865454979" lon="9.273122177979717"><ele>79.5</ele><time>2026-04-19T09:04:27.999Z</time></trkpt><trkpt lat="45.2862686708097" lon="9.273168998097901"><ele>79.0</ele><time>2026-04-19T09:04:28.999Z</time></trkpt><trkpt lat="45.28613596789261" lon="9.273233808848909"><ele>78.5</ele><time>2026-04-19T09:04:29.999Z</time></trkpt><trkpt lat="45.28600293712315" lon="9.273301648374382"><ele>78.0</ele><time>2026-04-19T09:04:30.999Z</time></trkpt><trkpt lat="45.28587892284607" lon="9.2733701453826"><ele>78.0</ele><time>2026-04-19T09:04:31.999Z</time></trkpt><trkpt lat="45.285757779904735" lon="9.273450325741953"><ele>78.0</ele><time>2026-04-19T09:04:32.999Z</time></trkpt><trkpt lat="45.2856550250711" lon="9.273541173838227"><ele>78.0</ele><time>2026-04-19T09:04:33.999Z</time></trkpt><trkpt lat="45.285575184400805" lon="9.273641338782994"><ele>78.0</ele><time>2026-04-19T09:04:34.999Z</time></trkpt><trkpt lat="45.28551642932232" lon="9.273764255951832"><ele>78.0</ele><time>2026-04-19T09:04:35.999Z</time></trkpt><trkpt lat="45.285483783122594" lon="9.273892820863294"><ele>78.0</ele><time>2026-04-19T09:04:36.999Z</time></trkpt><trkpt lat="45.28546470919218" lon="9.27404745214041"><ele>78.0</ele><time>2026-04-19T09:04:37.999Z</time></trkpt><trkpt lat="45.28547496564055" lon="9.27421596404907"><ele>78.0</ele><time>2026-04-19T09:04:38.999Z</time></trkpt><trkpt lat="45.28547285691388" lon="9.274392371163433"><ele>78.0</ele><time>2026-04-19T09:04:39.999Z</time></trkpt><trkpt lat="45.28547467549913" lon="9.274553914631065"><ele>78.0</ele><time>2026-04-19T09:04:40.999Z</time></trkpt><trkpt lat="45.28546901395617" lon="9.274701292811315"><ele>78.0</ele><time>2026-04-19T09:04:41.999Z</time></trkpt><trkpt lat="45.285456723504836" lon="9.274838381456497"><ele>78.0</ele><time>2026-04-19T09:04:42.999Z</time></trkpt><trkpt lat="45.28543236363272" lon="9.27497949038309"><ele>78.0</ele><time>2026-04-19T09:04:43.999Z</time></trkpt><trkpt lat="45.28538587166213" lon="9.275101692028372"><ele>78.2</ele><time>2026-04-19T09:04:44.999Z</time></trkpt><trkpt lat="45.2852983278113" lon="9.275190363408264"><ele>78.4</ele><time>2026-04-19T09:04:45.999Z</time></trkpt><trkpt lat="45.28521657915796" lon="9.27527957366137"><ele>78.60000000000001</ele><time>2026-04-19T09:04:46.999Z</time></trkpt><trkpt lat="45.285150189466705" lon="9.27537000076091"><ele>78.8</ele><time>2026-04-19T09:04:47.999Z</time></trkpt><trkpt lat="45.28508055178952" lon="9.27544365962436"><ele>79.0</ele><time>2026-04-19T09:04:48.999Z</time></trkpt><trkpt lat="45.28501197532659" lon="9.27551685301813"><ele>79.0</ele><time>2026-04-19T09:04:49.999Z</time></trkpt><trkpt lat="45.28494760565709" lon="9.275588195401891"><ele>79.0</ele><time>2026-04-19T09:04:50.999Z</time></trkpt><trkpt lat="45.28488542375489" lon="9.275661436050031"><ele>79.0</ele><time>2026-04-19T09:04:51.999Z</time></trkpt><trkpt lat="45.28482148533209" lon="9.275733489578224"><ele>79.0</ele><time>2026-04-19T09:04:52.999Z</time></trkpt><trkpt lat="45.28476409128316" lon="9.275800457517379"><ele>79.0</ele><time>2026-04-19T09:04:53.999Z</time></trkpt><trkpt lat="45.284697000927096" lon="9.275871865526247"><ele>79.0</ele><time>2026-04-19T09:04:54.999Z</time></trkpt><trkpt lat="45.2846279261432" lon="9.275948793834818"><ele>78.5</ele><time>2026-04-19T09:04:55.999Z</time></trkpt><trkpt lat="45.28456900340195" lon="9.276017135456504"><ele>78.0</ele><time>2026-04-19T09:04:56.999Z</time></trkpt><trkpt lat="45.2844943583203" lon="9.276068974820149"><ele>77.5</ele><time>2026-04-19T09:04:57.999Z</time></trkpt><trkpt lat="45.28442995453503" lon="9.276140929027063"><ele>77.0</ele><time>2026-04-19T09:04:58.999Z</time></trkpt><trkpt lat="45.284358547908894" lon="9.276221169291283"><ele>76.5</ele><time>2026-04-19T09:04:59.999Z</time></trkpt><trkpt lat="45.28429101357946" lon="9.2763156548905"><ele>76.0</ele><time>2026-04-19T09:05:00.999Z</time></trkpt><trkpt lat="45.2842167878935" lon="9.276401941233068"><ele>76.2</ele><time>2026-04-19T09:05:01.999Z</time></trkpt><trkpt lat="45.28413199633136" lon="9.276484027201054"><ele>76.39999999999999</ele><time>2026-04-19T09:05:02.999Z</time></trkpt><trkpt lat="45.28405408383242" lon="9.276558883107393"><ele>76.6</ele><time>2026-04-19T09:05:03.999Z</time></trkpt><trkpt lat="45.28396564905557" lon="9.27665623935466"><ele>76.8</ele><time>2026-04-19T09:05:04.999Z</time></trkpt><trkpt lat="45.28386723494557" lon="9.276762480292046"><ele>77.0</ele><time>2026-04-19T09:05:05.999Z</time></trkpt><trkpt lat="45.2837520733157" lon="9.276862216932825"><ele>76.5</ele><time>2026-04-19T09:05:06.999Z</time></trkpt><trkpt lat="45.28361894030462" lon="9.27692199597704"><ele>76.0</ele><time>2026-04-19T09:05:07.999Z</time></trkpt><trkpt lat="45.28348347607022" lon="9.276977475303244"><ele>75.5</ele><time>2026-04-19T09:05:08.999Z</time></trkpt><trkpt lat="45.28335981178108" lon="9.277055523199548"><ele>75.0</ele><time>2026-04-19T09:05:09.999Z</time></trkpt><trkpt lat="45.28323484140856" lon="9.27714696569736"><ele>75.0</ele><time>2026-04-19T09:05:10.999Z</time></trkpt><trkpt lat="45.28312608231712" lon="9.277245335059206"><ele>75.0</ele><time>2026-04-19T09:05:11.999Z</time></trkpt><trkpt lat="45.2830001615882" lon="9.27735335045001"><ele>75.0</ele><time>2026-04-19T09:05:12.999Z</time></trkpt><trkpt lat="45.28293089943454" lon="9.277400181114494"><ele>75.0</ele><time>2026-04-19T09:05:13.999Z</time></trkpt><trkpt lat="45.2828513376609" lon="9.277467199089967"><ele>75.0</ele><time>2026-04-19T09:05:14.999Z</time></trkpt><trkpt lat="45.28277365234432" lon="9.277509280443676"><ele>75.5</ele><time>2026-04-19T09:05:15.999Z</time></trkpt><trkpt lat="45.28271009257317" lon="9.277533544997977"><ele>76.0</ele><time>2026-04-19T09:05:16.999Z</time></trkpt><trkpt lat="45.282613339266895" lon="9.277554090358832"><ele>76.5</ele><time>2026-04-19T09:05:18.999Z</time></trkpt><trkpt lat="45.28250608316479" lon="9.277523754574812"><ele>77.0</ele><time>2026-04-19T09:05:20.999Z</time></trkpt><trkpt lat="45.28243366147042" lon="9.27752367348069"><ele>77.5</ele><time>2026-04-19T09:05:23.999Z</time></trkpt><trkpt lat="45.282366957522505" lon="9.27751487279001"><ele>78.0</ele><time>2026-04-19T09:05:25.999Z</time></trkpt><trkpt lat="45.28234333223964" lon="9.27730307941182"><ele>78.2</ele><time>2026-04-19T09:05:26.999Z</time></trkpt><trkpt lat="45.28228473211855" lon="9.277196439035702"><ele>78.4</ele><time>2026-04-19T09:05:27.999Z</time></trkpt><trkpt lat="45.282235076879005" lon="9.277072461622158"><ele>78.60000000000001</ele><time>2026-04-19T09:05:28.999Z</time></trkpt><trkpt lat="45.28218300913078" lon="9.276945805816567"><ele>78.8</ele><time>2026-04-19T09:05:29.999Z</time></trkpt><trkpt lat="45.28212727868506" lon="9.276794707112408"><ele>79.0</ele><time>2026-04-19T09:05:30.999Z</time></trkpt><trkpt lat="45.28206233159417" lon="9.276641160585207"><ele>79.75</ele><time>2026-04-19T09:05:31.999Z</time></trkpt><trkpt lat="45.28196523562164" lon="9.27651147192101"><ele>80.5</ele><time>2026-04-19T09:05:32.999Z</time></trkpt><trkpt lat="45.28184069569031" lon="9.276402103019894"><ele>81.25</ele><time>2026-04-19T09:05:33.999Z</time></trkpt><trkpt lat="45.28171672633411" lon="9.276286959293124"><ele>82.0</ele><time>2026-04-19T09:05:34.999Z</time></trkpt><trkpt lat="45.281609773573365" lon="9.27616501014089"><ele>82.19999999999999</ele><time>2026-04-19T09:05:35.999Z</time></trkpt><trkpt lat="45.28151234108472" lon="9.2760554208721"><ele>82.4</ele><time>2026-04-19T09:05:36.999Z</time></trkpt><trkpt lat="45.28142736361812" lon="9.275950038800076"><ele>82.6</ele><time>2026-04-19T09:05:37.999Z</time></trkpt><trkpt lat="45.2813361410115" lon="9.27589109578167"><ele>82.80000000000001</ele><time>2026-04-19T09:05:38.999Z</time></trkpt><trkpt lat="45.28123750232826" lon="9.275888938092843"><ele>83.0</ele><time>2026-04-19T09:05:39.999Z</time></trkpt><trkpt lat="45.281134612458104" lon="9.275944287784041"><ele>83.2</ele><time>2026-04-19T09:05:40.999Z</time></trkpt><trkpt lat="45.281040442270445" lon="9.27603910095369"><ele>83.4</ele><time>2026-04-19T09:05:41.999Z</time></trkpt><trkpt lat="45.28093797473969" lon="9.276072936548704"><ele>83.60000000000001</ele><time>2026-04-19T09:05:42.999Z</time></trkpt><trkpt lat="45.28085187327219" lon="9.276120834683374"><ele>83.80000000000001</ele><time>2026-04-19T09:05:43.999Z</time></trkpt><trkpt lat="45.280771965816704" lon="9.276157102422138"><ele>84.0</ele><time>2026-04-19T09:05:44.999Z</time></trkpt><trkpt lat="45.28071107758129" lon="9.276183087117898"><ele>84.0</ele><time>2026-04-19T09:05:45.999Z</time></trkpt><trkpt lat="45.28061743315318" lon="9.27615394513521"><ele>84.0</ele><time>2026-04-19T09:05:47.999Z</time></trkpt><trkpt lat="45.28059907655271" lon="9.276027078559988"><ele>84.0</ele><time>2026-04-19T09:05:48.999Z</time></trkpt><trkpt lat="45.28056124878458" lon="9.275902591887613"><ele>84.0</ele><time>2026-04-19T09:05:49.999Z</time></trkpt><trkpt lat="45.28052943317466" lon="9.275776487453575"><ele>84.0</ele><time>2026-04-19T09:05:50.999Z</time></trkpt><trkpt lat="45.28048808516499" lon="9.275625596103316"><ele>83.5</ele><time>2026-04-19T09:05:51.999Z</time></trkpt><trkpt lat="45.280443630353666" lon="9.275468278470195"><ele>83.0</ele><time>2026-04-19T09:05:52.999Z</time></trkpt><trkpt lat="45.28039220564347" lon="9.275309166025226"><ele>82.5</ele><time>2026-04-19T09:05:53.999Z</time></trkpt><trkpt lat="45.280339610465006" lon="9.275148352098482"><ele>82.0</ele><time>2026-04-19T09:05:54.999Z</time></trkpt><trkpt lat="45.28027966621541" lon="9.274990169634279"><ele>82.0</ele><time>2026-04-19T09:05:55.999Z</time></trkpt><trkpt lat="45.28020508159402" lon="9.274849156036124"><ele>82.0</ele><time>2026-04-19T09:05:56.999Z</time></trkpt><trkpt lat="45.280110463358724" lon="9.274721334664202"><ele>82.0</ele><time>2026-04-19T09:05:57.999Z</time></trkpt><trkpt lat="45.280033620962136" lon="9.274565369204204"><ele>82.0</ele><time>2026-04-19T09:05:58.999Z</time></trkpt><trkpt lat="45.279945684142575" lon="9.274416658416175"><ele>82.25</ele><time>2026-04-19T09:05:59.999Z</time></trkpt><trkpt lat="45.27988826379466" lon="9.274243361411123"><ele>82.5</ele><time>2026-04-19T09:06:00.999Z</time></trkpt><trkpt lat="45.279828651471" lon="9.274084235494042"><ele>82.75</ele><time>2026-04-19T09:06:01.999Z</time></trkpt><trkpt lat="45.27975844029268" lon="9.2739446294561"><ele>83.0</ele><time>2026-04-19T09:06:02.999Z</time></trkpt><trkpt lat="45.279660148411864" lon="9.273826018373029"><ele>83.0</ele><time>2026-04-19T09:06:03.999Z</time></trkpt><trkpt lat="45.27955947707947" lon="9.27370310570415"><ele>83.0</ele><time>2026-04-19T09:06:04.999Z</time></trkpt><trkpt lat="45.27946413059228" lon="9.27356773245701"><ele>83.0</ele><time>2026-04-19T09:06:05.999Z</time></trkpt><trkpt lat="45.27936933926231" lon="9.273434573706147"><ele>83.0</ele><time>2026-04-19T09:06:06.999Z</time></trkpt><trkpt lat="45.27926908264263" lon="9.273309919943772"><ele>83.0</ele><time>2026-04-19T09:06:07.999Z</time></trkpt><trkpt lat="45.279169953825416" lon="9.273194795269832"><ele>83.0</ele><time>2026-04-19T09:06:08.999Z</time></trkpt><trkpt lat="45.279055945231235" lon="9.273088341766595"><ele>83.0</ele><time>2026-04-19T09:06:09.999Z</time></trkpt><trkpt lat="45.27893298685496" lon="9.272996076036726"><ele>83.0</ele><time>2026-04-19T09:06:10.999Z</time></trkpt><trkpt lat="45.27880359759337" lon="9.272928523484577"><ele>83.25</ele><time>2026-04-19T09:06:11.999Z</time></trkpt><trkpt lat="45.27866828806507" lon="9.272893854919385"><ele>83.5</ele><time>2026-04-19T09:06:12.999Z</time></trkpt><trkpt lat="45.2785175584554" lon="9.272890501137793"><ele>83.75</ele><time>2026-04-19T09:06:13.999Z</time></trkpt><trkpt lat="45.27836148129233" lon="9.272885151881322"><ele>84.0</ele><time>2026-04-19T09:06:14.999Z</time></trkpt><trkpt lat="45.27821116492559" lon="9.272873260582521"><ele>83.75</ele><time>2026-04-19T09:06:15.999Z</time></trkpt><trkpt lat="45.27807109218932" lon="9.272859497841173"><ele>83.5</ele><time>2026-04-19T09:06:16.999Z</time></trkpt><trkpt lat="45.27792488025415" lon="9.272842730379809"><ele>83.25</ele><time>2026-04-19T09:06:17.999Z</time></trkpt><trkpt lat="45.27777471925905" lon="9.272806622877717"><ele>83.0</ele><time>2026-04-19T09:06:18.999Z</time></trkpt><trkpt lat="45.277637667800086" lon="9.272741702928466"><ele>83.0</ele><time>2026-04-19T09:06:19.999Z</time></trkpt><trkpt lat="45.277513446083205" lon="9.272650356831738"><ele>83.0</ele><time>2026-04-19T09:06:20.999Z</time></trkpt><trkpt lat="45.27739351448044" lon="9.272581884316901"><ele>83.0</ele><time>2026-04-19T09:06:21.999Z</time></trkpt><trkpt lat="45.27724751332561" lon="9.272543787908528"><ele>83.0</ele><time>2026-04-19T09:06:22.999Z</time></trkpt><trkpt lat="45.27708432105864" lon="9.272557911829223"><ele>83.25</ele><time>2026-04-19T09:06:23.999Z</time></trkpt><trkpt lat="45.27692826740785" lon="9.27255473035067"><ele>83.5</ele><time>2026-04-19T09:06:24.999Z</time></trkpt><trkpt lat="45.27677868631438" lon="9.272565344513751"><ele>83.75</ele><time>2026-04-19T09:06:25.999Z</time></trkpt><trkpt lat="45.276642643243115" lon="9.272582128314863"><ele>84.0</ele><time>2026-04-19T09:06:26.999Z</time></trkpt><trkpt lat="45.27650790632403" lon="9.272573785803164"><ele>83.25</ele><time>2026-04-19T09:06:27.999Z</time></trkpt><trkpt lat="45.27638313250689" lon="9.272559747061763"><ele>82.5</ele><time>2026-04-19T09:06:28.999Z</time></trkpt><trkpt lat="45.27626441153114" lon="9.272537338094168"><ele>81.75</ele><time>2026-04-19T09:06:29.999Z</time></trkpt><trkpt lat="45.27616266478985" lon="9.27248132324532"><ele>81.0</ele><time>2026-04-19T09:06:30.999Z</time></trkpt><trkpt lat="45.2760640953387" lon="9.27241287443492"><ele>81.0</ele><time>2026-04-19T09:06:31.999Z</time></trkpt><trkpt lat="45.27599168617749" lon="9.2722913679514"><ele>81.0</ele><time>2026-04-19T09:06:32.999Z</time></trkpt><trkpt lat="45.275928916373495" lon="9.272148558437808"><ele>81.0</ele><time>2026-04-19T09:06:33.999Z</time></trkpt><trkpt lat="45.275861664301885" lon="9.27198650928421"><ele>81.0</ele><time>2026-04-19T09:06:34.999Z</time></trkpt><trkpt lat="45.275787353920535" lon="9.271834724060511"><ele>81.0</ele><time>2026-04-19T09:06:35.999Z</time></trkpt><trkpt lat="45.2757170822723" lon="9.271670322847152"><ele>81.0</ele><time>2026-04-19T09:06:36.999Z</time></trkpt><trkpt lat="45.275632888811636" lon="9.271499968158999"><ele>81.0</ele><time>2026-04-19T09:06:37.999Z</time></trkpt><trkpt lat="45.27554823094125" lon="9.271317667165144"><ele>81.0</ele><time>2026-04-19T09:06:38.999Z</time></trkpt><trkpt lat="45.27546678614375" lon="9.271127384292848"><ele>81.0</ele><time>2026-04-19T09:06:39.999Z</time></trkpt><trkpt lat="45.27538798173129" lon="9.270922447446619"><ele>81.0</ele><time>2026-04-19T09:06:40.999Z</time></trkpt><trkpt lat="45.27531722878855" lon="9.270705989468002"><ele>81.0</ele><time>2026-04-19T09:06:41.999Z</time></trkpt><trkpt lat="45.275254848479904" lon="9.270508408993965"><ele>81.0</ele><time>2026-04-19T09:06:42.999Z</time></trkpt><trkpt lat="45.27519344392069" lon="9.270320440490442"><ele>81.0</ele><time>2026-04-19T09:06:43.999Z</time></trkpt><trkpt lat="45.2751030818741" lon="9.270165031531322"><ele>81.0</ele><time>2026-04-19T09:06:44.999Z</time></trkpt><trkpt lat="45.27497030395974" lon="9.270041707055862"><ele>81.0</ele><time>2026-04-19T09:06:45.999Z</time></trkpt><trkpt lat="45.274820309241775" lon="9.269901530823638"><ele>81.0</ele><time>2026-04-19T09:06:46.999Z</time></trkpt><trkpt lat="45.27466986390603" lon="9.269790937427926"><ele>81.0</ele><time>2026-04-19T09:06:47.999Z</time></trkpt><trkpt lat="45.27453793478389" lon="9.269682527534082"><ele>81.0</ele><time>2026-04-19T09:06:48.999Z</time></trkpt><trkpt lat="45.27441587269893" lon="9.269581073753294"><ele>81.0</ele><time>2026-04-19T09:06:49.999Z</time></trkpt><trkpt lat="45.27430373805507" lon="9.2694858371685"><ele>81.0</ele><time>2026-04-19T09:06:50.999Z</time></trkpt><trkpt lat="45.27420194136296" lon="9.269376653443356"><ele>81.0</ele><time>2026-04-19T09:06:51.999Z</time></trkpt><trkpt lat="45.274126631491455" lon="9.26922142092264"><ele>81.0</ele><time>2026-04-19T09:06:52.999Z</time></trkpt><trkpt lat="45.274061746537406" lon="9.269042164097876"><ele>81.25</ele><time>2026-04-19T09:06:53.999Z</time></trkpt><trkpt lat="45.27399838730899" lon="9.268852180140698"><ele>81.5</ele><time>2026-04-19T09:06:54.999Z</time></trkpt><trkpt lat="45.273939952125794" lon="9.268656937142207"><ele>81.75</ele><time>2026-04-19T09:06:55.999Z</time></trkpt><trkpt lat="45.273884635204936" lon="9.268468513584777"><ele>82.0</ele><time>2026-04-19T09:06:56.999Z</time></trkpt><trkpt lat="45.27383356502892" lon="9.268291989700181"><ele>82.0</ele><time>2026-04-19T09:06:57.999Z</time></trkpt><trkpt lat="45.27378688275571" lon="9.268125517529814"><ele>82.0</ele><time>2026-04-19T09:06:58.999Z</time></trkpt><trkpt lat="45.273728027785666" lon="9.267974796514455"><ele>82.0</ele><time>2026-04-19T09:06:59.999Z</time></trkpt><trkpt lat="45.27369279286952" lon="9.267822807430624"><ele>82.0</ele><time>2026-04-19T09:07:00.999Z</time></trkpt><trkpt lat="45.27366134568415" lon="9.267700474608448"><ele>82.0</ele><time>2026-04-19T09:07:01.999Z</time></trkpt><trkpt lat="45.27363580061599" lon="9.26759553670475"><ele>82.0</ele><time>2026-04-19T09:07:02.999Z</time></trkpt><trkpt lat="45.27357421372591" lon="9.267504092582422"><ele>82.0</ele><time>2026-04-19T09:07:03.999Z</time></trkpt><trkpt lat="45.27345925860654" lon="9.26749793068019"><ele>82.0</ele><time>2026-04-19T09:07:04.999Z</time></trkpt><trkpt lat="45.273358876494456" lon="9.26757437080389"><ele>82.0</ele><time>2026-04-19T09:07:05.999Z</time></trkpt><trkpt lat="45.27327691552195" lon="9.267627047303591"><ele>82.0</ele><time>2026-04-19T09:07:06.999Z</time></trkpt><trkpt lat="45.27318863943881" lon="9.26768158723871"><ele>82.0</ele><time>2026-04-19T09:07:07.999Z</time></trkpt><trkpt lat="45.273094405351145" lon="9.2677264030546"><ele>82.0</ele><time>2026-04-19T09:07:08.999Z</time></trkpt><trkpt lat="45.2729977582603" lon="9.267773915429744"><ele>82.0</ele><time>2026-04-19T09:07:09.999Z</time></trkpt><trkpt lat="45.27289643490094" lon="9.267828641974555"><ele>82.0</ele><time>2026-04-19T09:07:10.999Z</time></trkpt><trkpt lat="45.27278812551399" lon="9.26789087709352"><ele>81.75</ele><time>2026-04-19T09:07:11.999Z</time></trkpt><trkpt lat="45.27267105060059" lon="9.267953406775277"><ele>81.5</ele><time>2026-04-19T09:07:12.999Z</time></trkpt><trkpt lat="45.272548923215275" lon="9.268019388246591"><ele>81.25</ele><time>2026-04-19T09:07:13.999Z</time></trkpt><trkpt lat="45.27243674630306" lon="9.26809369878555"><ele>81.0</ele><time>2026-04-19T09:07:14.999Z</time></trkpt><trkpt lat="45.272322156316605" lon="9.268181712023011"><ele>80.5</ele><time>2026-04-19T09:07:15.999Z</time></trkpt><trkpt lat="45.27220006281337" lon="9.268275595717343"><ele>80.0</ele><time>2026-04-19T09:07:16.999Z</time></trkpt><trkpt lat="45.27206986373184" lon="9.26837832602188"><ele>79.5</ele><time>2026-04-19T09:07:17.999Z</time></trkpt><trkpt lat="45.27193441351763" lon="9.268471684590487"><ele>79.0</ele><time>2026-04-19T09:07:18.999Z</time></trkpt><trkpt lat="45.27180183052461" lon="9.268552031638809"><ele>79.0</ele><time>2026-04-19T09:07:19.999Z</time></trkpt><trkpt lat="45.27166633855459" lon="9.268643662387351"><ele>79.0</ele><time>2026-04-19T09:07:20.999Z</time></trkpt><trkpt lat="45.27152608558828" lon="9.26873586919135"><ele>79.0</ele><time>2026-04-19T09:07:21.999Z</time></trkpt><trkpt lat="45.27138165201695" lon="9.268843904793581"><ele>79.66666666666666</ele><time>2026-04-19T09:07:22.999Z</time></trkpt><trkpt lat="45.271232763081514" lon="9.268940114940014"><ele>80.33333333333333</ele><time>2026-04-19T09:07:23.999Z</time></trkpt><trkpt lat="45.271079001066425" lon="9.269044230257519"><ele>81.0</ele><time>2026-04-19T09:07:24.999Z</time></trkpt><trkpt lat="45.270933697619306" lon="9.26914183724253"><ele>81.0</ele><time>2026-04-19T09:07:25.999Z</time></trkpt><trkpt lat="45.27080052372555" lon="9.269233824418661"><ele>81.0</ele><time>2026-04-19T09:07:26.999Z</time></trkpt><trkpt lat="45.27066892546017" lon="9.26932996651345"><ele>81.0</ele><time>2026-04-19T09:07:27.999Z</time></trkpt><trkpt lat="45.270535173737315" lon="9.269446407612"><ele>81.0</ele><time>2026-04-19T09:07:28.999Z</time></trkpt><trkpt lat="45.270416202748955" lon="9.26959997882747"><ele>81.0</ele><time>2026-04-19T09:07:29.999Z</time></trkpt><trkpt lat="45.27030153620753" lon="9.269803623939184"><ele>81.0</ele><time>2026-04-19T09:07:30.999Z</time></trkpt><trkpt lat="45.27018288899267" lon="9.270014533427863"><ele>80.66666666666667</ele><time>2026-04-19T09:07:31.999Z</time></trkpt><trkpt lat="45.270071991511976" lon="9.270203726005127"><ele>80.33333333333334</ele><time>2026-04-19T09:07:32.999Z</time></trkpt><trkpt lat="45.269975255545425" lon="9.270389697603546"><ele>80.0</ele><time>2026-04-19T09:07:33.999Z</time></trkpt><trkpt lat="45.26989261893917" lon="9.270576758851389"><ele>80.0</ele><time>2026-04-19T09:07:34.999Z</time></trkpt><trkpt lat="45.26980905406948" lon="9.270738231180179"><ele>80.0</ele><time>2026-04-19T09:07:35.999Z</time></trkpt><trkpt lat="45.26961591553442" lon="9.271122712170733"><ele>80.2</ele><time>2026-04-19T09:07:38.999Z</time></trkpt><trkpt lat="45.269599678655" lon="9.271226628836327"><ele>80.4</ele><time>2026-04-19T09:07:39.999Z</time></trkpt><trkpt lat="45.26961354997134" lon="9.271425635923068"><ele>80.6</ele><time>2026-04-19T09:07:40.999Z</time></trkpt><trkpt lat="45.269643874404984" lon="9.2715811244577"><ele>80.8</ele><time>2026-04-19T09:07:41.999Z</time></trkpt><trkpt lat="45.26963563303318" lon="9.271745016289362"><ele>81.0</ele><time>2026-04-19T09:07:42.999Z</time></trkpt><trkpt lat="45.26964859393471" lon="9.271931385038048"><ele>81.0</ele><time>2026-04-19T09:07:43.999Z</time></trkpt><trkpt lat="45.26965256400069" lon="9.27212617759954"><ele>81.0</ele><time>2026-04-19T09:07:44.999Z</time></trkpt><trkpt lat="45.2696541613966" lon="9.272296410403385"><ele>81.0</ele><time>2026-04-19T09:07:45.999Z</time></trkpt><trkpt lat="45.26965061598198" lon="9.272447618672413"><ele>81.0</ele><time>2026-04-19T09:07:46.999Z</time></trkpt><trkpt lat="45.26962121917133" lon="9.27256246806431"><ele>81.0</ele><time>2026-04-19T09:07:47.999Z</time></trkpt><trkpt lat="45.26955852821628" lon="9.272654031635405"><ele>81.0</ele><time>2026-04-19T09:07:48.999Z</time></trkpt><trkpt lat="45.269437514175614" lon="9.272667848246446"><ele>81.0</ele><time>2026-04-19T09:07:49.999Z</time></trkpt><trkpt lat="45.26932351907335" lon="9.272736259518402"><ele>81.0</ele><time>2026-04-19T09:07:50.999Z</time></trkpt><trkpt lat="45.26920481773261" lon="9.272819649006347"><ele>81.0</ele><time>2026-04-19T09:07:51.999Z</time></trkpt><trkpt lat="45.26908579655579" lon="9.272920817781769"><ele>81.0</ele><time>2026-04-19T09:07:52.999Z</time></trkpt><trkpt lat="45.26895573613327" lon="9.273018426833323"><ele>81.0</ele><time>2026-04-19T09:07:53.999Z</time></trkpt><trkpt lat="45.26882479011683" lon="9.273128266218265"><ele>81.0</ele><time>2026-04-19T09:07:54.999Z</time></trkpt><trkpt lat="45.26869623269981" lon="9.273235143512485"><ele>81.0</ele><time>2026-04-19T09:07:55.999Z</time></trkpt><trkpt lat="45.268567326868514" lon="9.27334350178698"><ele>81.19999999999999</ele><time>2026-04-19T09:07:56.999Z</time></trkpt><trkpt lat="45.26848486437494" lon="9.273447560704744"><ele>81.39999999999999</ele><time>2026-04-19T09:07:57.999Z</time></trkpt><trkpt lat="45.268366363174614" lon="9.273542758666558"><ele>81.6</ele><time>2026-04-19T09:07:58.999Z</time></trkpt><trkpt lat="45.268288355820275" lon="9.2736114959534"><ele>81.8</ele><time>2026-04-19T09:07:59.999Z</time></trkpt><trkpt lat="45.26822105229623" lon="9.273648277909846"><ele>82.0</ele><time>2026-04-19T09:08:00.999Z</time></trkpt><trkpt lat="45.26815238695968" lon="9.27364747141377"><ele>82.25</ele><time>2026-04-19T09:08:01.999Z</time></trkpt><trkpt lat="45.26807249028894" lon="9.273575159626331"><ele>82.5</ele><time>2026-04-19T09:08:02.999Z</time></trkpt><trkpt lat="45.267992090891816" lon="9.27369809837555"><ele>82.75</ele><time>2026-04-19T09:08:04Z</time></trkpt><trkpt lat="45.267906578181396" lon="9.273816319066793"><ele>83.0</ele><time>2026-04-19T09:08:05Z</time></trkpt><trkpt lat="45.267808423150285" lon="9.273932218302889"><ele>83.0</ele><time>2026-04-19T09:08:06Z</time></trkpt><trkpt lat="45.26769737844398" lon="9.274024680394167"><ele>83.0</ele><time>2026-04-19T09:08:07Z</time></trkpt><trkpt lat="45.26759138000774" lon="9.274112526915433"><ele>83.0</ele><time>2026-04-19T09:08:08Z</time></trkpt><trkpt lat="45.26747965042306" lon="9.274193892929086"><ele>83.0</ele><time>2026-04-19T09:08:09Z</time></trkpt><trkpt lat="45.26736417544516" lon="9.274272908886491"><ele>83.0</ele><time>2026-04-19T09:08:10Z</time></trkpt><trkpt lat="45.26723191937741" lon="9.274318510712062"><ele>83.0</ele><time>2026-04-19T09:08:11Z</time></trkpt><trkpt lat="45.267102875139756" lon="9.27437489837177"><ele>83.0</ele><time>2026-04-19T09:08:12Z</time></trkpt><trkpt lat="45.26697835010037" lon="9.274440854411958"><ele>83.0</ele><time>2026-04-19T09:08:13Z</time></trkpt><trkpt lat="45.266847091172345" lon="9.274492942047853"><ele>83.0</ele><time>2026-04-19T09:08:14Z</time></trkpt><trkpt lat="45.2667182102735" lon="9.274553076798856"><ele>83.0</ele><time>2026-04-19T09:08:15Z</time></trkpt><trkpt lat="45.26659832019755" lon="9.274617154676628"><ele>83.0</ele><time>2026-04-19T09:08:16Z</time></trkpt><trkpt lat="45.26648339741236" lon="9.274684736050306"><ele>83.0</ele><time>2026-04-19T09:08:17Z</time></trkpt><trkpt lat="45.266371106605284" lon="9.274771195321735"><ele>83.2</ele><time>2026-04-19T09:08:18Z</time></trkpt><trkpt lat="45.26626883673387" lon="9.274874842963563"><ele>83.4</ele><time>2026-04-19T09:08:19Z</time></trkpt><trkpt lat="45.266181160071994" lon="9.274976577210758"><ele>83.60000000000001</ele><time>2026-04-19T09:08:20Z</time></trkpt><trkpt lat="45.26610847581004" lon="9.275078510996153"><ele>83.80000000000001</ele><time>2026-04-19T09:08:21Z</time></trkpt><trkpt lat="45.26602756494759" lon="9.27513078347031"><ele>84.0</ele><time>2026-04-19T09:08:22Z</time></trkpt><trkpt lat="45.26595150605012" lon="9.275191633156265"><ele>84.0</ele><time>2026-04-19T09:08:23Z</time></trkpt><trkpt lat="45.26588991699751" lon="9.275264832588478"><ele>84.0</ele><time>2026-04-19T09:08:24Z</time></trkpt><trkpt lat="45.265825274061065" lon="9.275304794530799"><ele>84.0</ele><time>2026-04-19T09:08:25Z</time></trkpt><trkpt lat="45.26574732906493" lon="9.275285300245221"><ele>84.0</ele><time>2026-04-19T09:08:26Z</time></trkpt><trkpt lat="45.26568044069345" lon="9.275166910779893"><ele>84.0</ele><time>2026-04-19T09:08:27Z</time></trkpt><trkpt lat="45.26558474534262" lon="9.27506984452675"><ele>84.0</ele><time>2026-04-19T09:08:28Z</time></trkpt><trkpt lat="45.26551266232329" lon="9.275001535048174"><ele>84.0</ele><time>2026-04-19T09:08:29Z</time></trkpt><trkpt lat="45.265427656232596" lon="9.27486598249277"><ele>84.0</ele><time>2026-04-19T09:08:30Z</time></trkpt><trkpt lat="45.26529493273959" lon="9.274783253681475"><ele>84.0</ele><time>2026-04-19T09:08:31Z</time></trkpt><trkpt lat="45.26520321135435" lon="9.274704988090102"><ele>84.0</ele><time>2026-04-19T09:08:32Z</time></trkpt><trkpt lat="45.26512024603197" lon="9.274626752183485"><ele>84.0</ele><time>2026-04-19T09:08:33Z</time></trkpt><trkpt lat="45.265037842050454" lon="9.274592512863292"><ele>84.0</ele><time>2026-04-19T09:08:34Z</time></trkpt><trkpt lat="45.264953009997605" lon="9.274609145426673"><ele>84.0</ele><time>2026-04-19T09:08:35Z</time></trkpt><trkpt lat="45.26486599393757" lon="9.274676745008943"><ele>84.0</ele><time>2026-04-19T09:08:36Z</time></trkpt><trkpt lat="45.26476086355073" lon="9.274721344600344"><ele>83.75</ele><time>2026-04-19T09:08:37Z</time></trkpt><trkpt lat="45.264645913980615" lon="9.274731892595554"><ele>83.5</ele><time>2026-04-19T09:08:38Z</time></trkpt><trkpt lat="45.264516449334685" lon="9.2747525343961"><ele>83.25</ele><time>2026-04-19T09:08:39Z</time></trkpt><trkpt lat="45.26438565958608" lon="9.274805465506814"><ele>83.0</ele><time>2026-04-19T09:08:40Z</time></trkpt><trkpt lat="45.26425509881424" lon="9.274865896339444"><ele>83.0</ele><time>2026-04-19T09:08:41Z</time></trkpt><trkpt lat="45.264127540029115" lon="9.274918729663385"><ele>83.0</ele><time>2026-04-19T09:08:42Z</time></trkpt><trkpt lat="45.26400683558725" lon="9.274964982275552"><ele>83.0</ele><time>2026-04-19T09:08:43Z</time></trkpt><trkpt lat="45.2638881541732" lon="9.275031930272174"><ele>83.0</ele><time>2026-04-19T09:08:44Z</time></trkpt><trkpt lat="45.263765708344884" lon="9.275146633805827"><ele>83.0</ele><time>2026-04-19T09:08:45Z</time></trkpt><trkpt lat="45.26363943288022" lon="9.275294442985757"><ele>83.0</ele><time>2026-04-19T09:08:46Z</time></trkpt><trkpt lat="45.263512490445585" lon="9.275460471520589"><ele>83.0</ele><time>2026-04-19T09:08:47Z</time></trkpt><trkpt lat="45.26337936629866" lon="9.275628047632706"><ele>83.0</ele><time>2026-04-19T09:08:48Z</time></trkpt><trkpt lat="45.263235671932975" lon="9.275789497160082"><ele>83.0</ele><time>2026-04-19T09:08:49Z</time></trkpt><trkpt lat="45.26308849445961" lon="9.275951265451502"><ele>83.0</ele><time>2026-04-19T09:08:50Z</time></trkpt><trkpt lat="45.26295072651188" lon="9.276109152570314"><ele>82.66666666666667</ele><time>2026-04-19T09:08:51Z</time></trkpt><trkpt lat="45.26282375290888" lon="9.276251034916408"><ele>82.33333333333333</ele><time>2026-04-19T09:08:52Z</time></trkpt><trkpt lat="45.2627009121401" lon="9.276382095336155"><ele>82.0</ele><time>2026-04-19T09:08:53Z</time></trkpt><trkpt lat="45.26256933639073" lon="9.27650896144928"><ele>82.0</ele><time>2026-04-19T09:08:54Z</time></trkpt><trkpt lat="45.26242914852022" lon="9.27665107882829"><ele>82.0</ele><time>2026-04-19T09:08:55Z</time></trkpt><trkpt lat="45.26229730591262" lon="9.27681437094652"><ele>82.0</ele><time>2026-04-19T09:08:56Z</time></trkpt><trkpt lat="45.26217036330537" lon="9.276968323496519"><ele>81.5</ele><time>2026-04-19T09:08:57Z</time></trkpt><trkpt lat="45.26204412145275" lon="9.27709792303475"><ele>81.0</ele><time>2026-04-19T09:08:58Z</time></trkpt><trkpt lat="45.26191997622855" lon="9.277211054786079"><ele>80.5</ele><time>2026-04-19T09:08:59Z</time></trkpt><trkpt lat="45.26180976884463" lon="9.277315358141692"><ele>80.0</ele><time>2026-04-19T09:09:00Z</time></trkpt><trkpt lat="45.26171610217515" lon="9.277420615054842"><ele>80.0</ele><time>2026-04-19T09:09:01Z</time></trkpt><trkpt lat="45.261653594744494" lon="9.277552702736799"><ele>80.0</ele><time>2026-04-19T09:09:02Z</time></trkpt><trkpt lat="45.2616349393553" lon="9.277735897244195"><ele>80.0</ele><time>2026-04-19T09:09:03Z</time></trkpt><trkpt lat="45.261646334685864" lon="9.277959927755463"><ele>80.0</ele><time>2026-04-19T09:09:04Z</time></trkpt><trkpt lat="45.26166079623209" lon="9.278208205457885"><ele>80.0</ele><time>2026-04-19T09:09:05Z</time></trkpt><trkpt lat="45.26166375577269" lon="9.278457460843795"><ele>80.0</ele><time>2026-04-19T09:09:06Z</time></trkpt><trkpt lat="45.261666546172314" lon="9.27870047619524"><ele>80.0</ele><time>2026-04-19T09:09:07Z</time></trkpt><trkpt lat="45.26166578630882" lon="9.278939016644097"><ele>79.75</ele><time>2026-04-19T09:09:08Z</time></trkpt><trkpt lat="45.26166589492387" lon="9.279169620571754"><ele>79.5</ele><time>2026-04-19T09:09:09Z</time></trkpt><trkpt lat="45.26166792127105" lon="9.279379492499574"><ele>79.25</ele><time>2026-04-19T09:09:10Z</time></trkpt><trkpt lat="45.261670342271934" lon="9.27957058005301"><ele>79.0</ele><time>2026-04-19T09:09:11Z</time></trkpt><trkpt lat="45.26167208043228" lon="9.279739363875096"><ele>79.0</ele><time>2026-04-19T09:09:12Z</time></trkpt><trkpt lat="45.26167059340852" lon="9.279876324570528"><ele>79.0</ele><time>2026-04-19T09:09:13Z</time></trkpt><trkpt lat="45.261635532020065" lon="9.279994770166477"><ele>79.0</ele><time>2026-04-19T09:09:14Z</time></trkpt><trkpt lat="45.26154222686206" lon="9.280081098672397"><ele>79.0</ele><time>2026-04-19T09:09:15Z</time></trkpt><trkpt lat="45.2614467420289" lon="9.280204075573055"><ele>79.0</ele><time>2026-04-19T09:09:16Z</time></trkpt><trkpt lat="45.261318251659574" lon="9.28031582462301"><ele>79.33333333333333</ele><time>2026-04-19T09:09:17Z</time></trkpt><trkpt lat="45.26117634691256" lon="9.280453039148723"><ele>79.66666666666667</ele><time>2026-04-19T09:09:18Z</time></trkpt><trkpt lat="45.261020110950405" lon="9.280618536600267"><ele>80.0</ele><time>2026-04-19T09:09:19Z</time></trkpt><trkpt lat="45.26084383886334" lon="9.280806501255496"><ele>80.0</ele><time>2026-04-19T09:09:20Z</time></trkpt><trkpt lat="45.26064413148168" lon="9.281010221404259"><ele>80.0</ele><time>2026-04-19T09:09:21Z</time></trkpt><trkpt lat="45.2604313734595" lon="9.281225903004193"><ele>79.5</ele><time>2026-04-19T09:09:22Z</time></trkpt><trkpt lat="45.26022783846791" lon="9.28142685812138"><ele>79.0</ele><time>2026-04-19T09:09:23Z</time></trkpt><trkpt lat="45.25998387949841" lon="9.281698895267647"><ele>79.5</ele><time>2026-04-19T09:09:24Z</time></trkpt><trkpt lat="45.25974753620102" lon="9.281952274136293"><ele>80.0</ele><time>2026-04-19T09:09:25Z</time></trkpt><trkpt lat="45.25952089438369" lon="9.282193929656795"><ele>79.5</ele><time>2026-04-19T09:09:26Z</time></trkpt><trkpt lat="45.25931414781669" lon="9.28241018513496"><ele>79.0</ele><time>2026-04-19T09:09:27Z</time></trkpt><trkpt lat="45.25912920448416" lon="9.282603851549487"><ele>79.0</ele><time>2026-04-19T09:09:28Z</time></trkpt><trkpt lat="45.25895151092103" lon="9.282778971262195"><ele>79.0</ele><time>2026-04-19T09:09:29Z</time></trkpt><trkpt lat="45.258788394134136" lon="9.282940276522583"><ele>79.0</ele><time>2026-04-19T09:09:30Z</time></trkpt><trkpt lat="45.258636700849834" lon="9.283091038158322"><ele>79.25</ele><time>2026-04-19T09:09:31Z</time></trkpt><trkpt lat="45.25850615787386" lon="9.283221697401602"><ele>79.5</ele><time>2026-04-19T09:09:32Z</time></trkpt><trkpt lat="45.25839396440081" lon="9.283341617203341"><ele>79.75</ele><time>2026-04-19T09:09:33Z</time></trkpt><trkpt lat="45.2582955794972" lon="9.283484039223705"><ele>80.0</ele><time>2026-04-19T09:09:34Z</time></trkpt><trkpt lat="45.25820681905056" lon="9.283655301201344"><ele>80.0</ele><time>2026-04-19T09:09:35Z</time></trkpt><trkpt lat="45.25811559433972" lon="9.283838409742767"><ele>80.0</ele><time>2026-04-19T09:09:36Z</time></trkpt><trkpt lat="45.25800262559889" lon="9.28399955297073"><ele>80.0</ele><time>2026-04-19T09:09:37Z</time></trkpt><trkpt lat="45.257863329772995" lon="9.284129478496023"><ele>80.0</ele><time>2026-04-19T09:09:38Z</time></trkpt><trkpt lat="45.25771413196836" lon="9.28422436443177"><ele>80.0</ele><time>2026-04-19T09:09:39Z</time></trkpt><trkpt lat="45.25757686111986" lon="9.28430388352185"><ele>80.0</ele><time>2026-04-19T09:09:40Z</time></trkpt><trkpt lat="45.25743676554429" lon="9.284385207057614"><ele>80.0</ele><time>2026-04-19T09:09:41Z</time></trkpt><trkpt lat="45.25728758894593" lon="9.284464510380326"><ele>80.0</ele><time>2026-04-19T09:09:42Z</time></trkpt><trkpt lat="45.25713953713527" lon="9.284547458854831"><ele>80.0</ele><time>2026-04-19T09:09:43Z</time></trkpt><trkpt lat="45.2570002460571" lon="9.284651326860368"><ele>79.75</ele><time>2026-04-19T09:09:44Z</time></trkpt><trkpt lat="45.25687757158239" lon="9.284777845085065"><ele>79.5</ele><time>2026-04-19T09:09:45Z</time></trkpt><trkpt lat="45.256764703860114" lon="9.284907047804793"><ele>79.25</ele><time>2026-04-19T09:09:46Z</time></trkpt><trkpt lat="45.25665560853259" lon="9.285015123787502"><ele>79.0</ele><time>2026-04-19T09:09:47Z</time></trkpt><trkpt lat="45.256535583467134" lon="9.285099127390268"><ele>79.5</ele><time>2026-04-19T09:09:48Z</time></trkpt><trkpt lat="45.25640424657076" lon="9.285161574519769"><ele>80.0</ele><time>2026-04-19T09:09:49Z</time></trkpt><trkpt lat="45.256272761113465" lon="9.285231338364177"><ele>80.5</ele><time>2026-04-19T09:09:50Z</time></trkpt><trkpt lat="45.256157860208766" lon="9.285322700931518"><ele>81.0</ele><time>2026-04-19T09:09:51Z</time></trkpt><trkpt lat="45.25604293097327" lon="9.285413605107477"><ele>81.0</ele><time>2026-04-19T09:09:52Z</time></trkpt><trkpt lat="45.25592781376898" lon="9.285498485587716"><ele>81.0</ele><time>2026-04-19T09:09:53Z</time></trkpt><trkpt lat="45.255810325426864" lon="9.285591040221469"><ele>81.0</ele><time>2026-04-19T09:09:54Z</time></trkpt><trkpt lat="45.25569443013191" lon="9.285680987896493"><ele>81.0</ele><time>2026-04-19T09:09:55Z</time></trkpt><trkpt lat="45.255573690004276" lon="9.285769675954148"><ele>81.25</ele><time>2026-04-19T09:09:56Z</time></trkpt><trkpt lat="45.25545610971617" lon="9.285854327595962"><ele>81.5</ele><time>2026-04-19T09:09:57Z</time></trkpt><trkpt lat="45.25534120494829" lon="9.28593403942066"><ele>81.75</ele><time>2026-04-19T09:09:58Z</time></trkpt><trkpt lat="45.25523272624169" lon="9.286004555831413"><ele>82.0</ele><time>2026-04-19T09:09:59Z</time></trkpt><trkpt lat="45.25513182373151" lon="9.28608097519335"><ele>82.0</ele><time>2026-04-19T09:10:00Z</time></trkpt><trkpt lat="45.25504044852565" lon="9.286149365722286"><ele>82.0</ele><time>2026-04-19T09:10:01Z</time></trkpt><trkpt lat="45.2549528966217" lon="9.286224964697634"><ele>82.0</ele><time>2026-04-19T09:10:02Z</time></trkpt><trkpt lat="45.254847853605604" lon="9.286278585025851"><ele>82.0</ele><time>2026-04-19T09:10:03Z</time></trkpt><trkpt lat="45.254715546203045" lon="9.286284671006127"><ele>82.0</ele><time>2026-04-19T09:10:04Z</time></trkpt><trkpt lat="45.25460475463149" lon="9.286374396606579"><ele>82.0</ele><time>2026-04-19T09:10:05Z</time></trkpt><trkpt lat="45.25446349091973" lon="9.286452417595884"><ele>82.0</ele><time>2026-04-19T09:10:06Z</time></trkpt><trkpt lat="45.25431424987086" lon="9.286537083269073"><ele>82.0</ele><time>2026-04-19T09:10:07Z</time></trkpt><trkpt lat="45.254153708636714" lon="9.286617477676003"><ele>82.0</ele><time>2026-04-19T09:10:08Z</time></trkpt><trkpt lat="45.25399264525984" lon="9.286698218642362"><ele>82.0</ele><time>2026-04-19T09:10:09Z</time></trkpt><trkpt lat="45.25381432264677" lon="9.286752466672091"><ele>82.0</ele><time>2026-04-19T09:10:10Z</time></trkpt><trkpt lat="45.253635159559224" lon="9.286837993530408"><ele>81.66666666666666</ele><time>2026-04-19T09:10:11Z</time></trkpt><trkpt lat="45.25345760920932" lon="9.286922545588087"><ele>81.33333333333333</ele><time>2026-04-19T09:10:12Z</time></trkpt><trkpt lat="45.253318229761426" lon="9.287009912559585"><ele>81.0</ele><time>2026-04-19T09:10:13Z</time></trkpt><trkpt lat="45.25321118166663" lon="9.287056679603209"><ele>81.0</ele><time>2026-04-19T09:10:14Z</time></trkpt><trkpt lat="45.253141485475965" lon="9.287083250098455"><ele>81.0</ele><time>2026-04-19T09:10:15Z</time></trkpt><trkpt lat="45.253056259750544" lon="9.287122634007464"><ele>81.0</ele><time>2026-04-19T09:10:16Z</time></trkpt><trkpt lat="45.25295408772348" lon="9.287174409338379"><ele>81.0</ele><time>2026-04-19T09:10:17Z</time></trkpt><trkpt lat="45.252828194574946" lon="9.287223906762808"><ele>81.0</ele><time>2026-04-19T09:10:18Z</time></trkpt><trkpt lat="45.252696023122375" lon="9.287283738140435"><ele>81.0</ele><time>2026-04-19T09:10:19Z</time></trkpt><trkpt lat="45.25255625421973" lon="9.287345547088508"><ele>81.0</ele><time>2026-04-19T09:10:20Z</time></trkpt><trkpt lat="45.25241815232652" lon="9.287409940124013"><ele>81.0</ele><time>2026-04-19T09:10:21Z</time></trkpt><trkpt lat="45.25228512283339" lon="9.28751107707056"><ele>81.0</ele><time>2026-04-19T09:10:22Z</time></trkpt><trkpt lat="45.25215180430665" lon="9.287625888643223"><ele>80.33333333333333</ele><time>2026-04-19T09:10:23Z</time></trkpt><trkpt lat="45.25202620110957" lon="9.287770884709918"><ele>79.66666666666666</ele><time>2026-04-19T09:10:24Z</time></trkpt><trkpt lat="45.25189789868903" lon="9.287928532672192"><ele>79.0</ele><time>2026-04-19T09:10:25Z</time></trkpt><trkpt lat="45.25176772587776" lon="9.288092624081589"><ele>79.33333333333333</ele><time>2026-04-19T09:10:26Z</time></trkpt><trkpt lat="45.25162991213752" lon="9.288260702787989"><ele>79.66666666666667</ele><time>2026-04-19T09:10:27Z</time></trkpt><trkpt lat="45.251490375084" lon="9.288429609695955"><ele>80.0</ele><time>2026-04-19T09:10:28Z</time></trkpt><trkpt lat="45.25135281596861" lon="9.288587654698357"><ele>79.33333333333334</ele><time>2026-04-19T09:10:29Z</time></trkpt><trkpt lat="45.25121645484571" lon="9.288745913240813"><ele>78.66666666666667</ele><time>2026-04-19T09:10:30Z</time></trkpt><trkpt lat="45.25108838480569" lon="9.288905098487767"><ele>78.0</ele><time>2026-04-19T09:10:31Z</time></trkpt><trkpt lat="45.250959028372854" lon="9.289067653766853"><ele>78.0</ele><time>2026-04-19T09:10:32Z</time></trkpt><trkpt lat="45.25083461658391" lon="9.289214936656984"><ele>78.0</ele><time>2026-04-19T09:10:33Z</time></trkpt><trkpt lat="45.250702363521675" lon="9.289360831698705"><ele>78.0</ele><time>2026-04-19T09:10:34Z</time></trkpt><trkpt lat="45.25056271309427" lon="9.289493279547989"><ele>77.66666666666667</ele><time>2026-04-19T09:10:35Z</time></trkpt><trkpt lat="45.250415815397595" lon="9.289616837438158"><ele>77.33333333333334</ele><time>2026-04-19T09:10:36Z</time></trkpt><trkpt lat="45.2502741257394" lon="9.289741156773069"><ele>77.0</ele><time>2026-04-19T09:10:37Z</time></trkpt><trkpt lat="45.2501349431771" lon="9.289862508266395"><ele>77.0</ele><time>2026-04-19T09:10:38Z</time></trkpt><trkpt lat="45.25000081438592" lon="9.289978440298052"><ele>77.0</ele><time>2026-04-19T09:10:39Z</time></trkpt><trkpt lat="45.24987469136957" lon="9.290084101449242"><ele>77.0</ele><time>2026-04-19T09:10:40Z</time></trkpt><trkpt lat="45.249750471041736" lon="9.290189973414872"><ele>77.0</ele><time>2026-04-19T09:10:41Z</time></trkpt><trkpt lat="45.249635798021586" lon="9.290294507263631"><ele>77.0</ele><time>2026-04-19T09:10:42Z</time></trkpt><trkpt lat="45.249530535750615" lon="9.290400500448923"><ele>77.0</ele><time>2026-04-19T09:10:43Z</time></trkpt><trkpt lat="45.249443528763564" lon="9.290516293236884"><ele>77.0</ele><time>2026-04-19T09:10:44Z</time></trkpt><trkpt lat="45.24937065813496" lon="9.290665814846644"><ele>77.0</ele><time>2026-04-19T09:10:45Z</time></trkpt><trkpt lat="45.249307522679025" lon="9.290828751915509"><ele>77.25</ele><time>2026-04-19T09:10:46Z</time></trkpt><trkpt lat="45.24925981534747" lon="9.291016063301933"><ele>77.5</ele><time>2026-04-19T09:10:47Z</time></trkpt><trkpt lat="45.2492372507185" lon="9.291209117036283"><ele>77.75</ele><time>2026-04-19T09:10:48Z</time></trkpt><trkpt lat="45.24923209086938" lon="9.291414148683051"><ele>78.0</ele><time>2026-04-19T09:10:49Z</time></trkpt><trkpt lat="45.24923236619952" lon="9.291626791205294"><ele>78.0</ele><time>2026-04-19T09:10:50Z</time></trkpt><trkpt lat="45.249233704149866" lon="9.291836542731387"><ele>78.0</ele><time>2026-04-19T09:10:51Z</time></trkpt><trkpt lat="45.24923386343603" lon="9.292042367070351"><ele>78.0</ele><time>2026-04-19T09:10:52Z</time></trkpt><trkpt lat="45.249232504423425" lon="9.292248730277748"><ele>78.0</ele><time>2026-04-19T09:10:53Z</time></trkpt><trkpt lat="45.249230785082375" lon="9.29245616506942"><ele>77.5</ele><time>2026-04-19T09:10:54Z</time></trkpt><trkpt lat="45.24922545643646" lon="9.29265923013137"><ele>77.0</ele><time>2026-04-19T09:10:55Z</time></trkpt><trkpt lat="45.24922602020944" lon="9.292851647631664"><ele>76.5</ele><time>2026-04-19T09:10:56Z</time></trkpt><trkpt lat="45.24922653747205" lon="9.29303806215263"><ele>76.0</ele><time>2026-04-19T09:10:57Z</time></trkpt><trkpt lat="45.24922589955112" lon="9.293220612224687"><ele>76.0</ele><time>2026-04-19T09:10:58Z</time></trkpt><trkpt lat="45.24922591721857" lon="9.293399705140391"><ele>76.0</ele><time>2026-04-19T09:10:59Z</time></trkpt><trkpt lat="45.24922614881705" lon="9.293582992597674"><ele>76.0</ele><time>2026-04-19T09:11:00Z</time></trkpt><trkpt lat="45.24920753540903" lon="9.293757143837336"><ele>76.0</ele><time>2026-04-19T09:11:01Z</time></trkpt><trkpt lat="45.24921643186797" lon="9.29392715045271"><ele>76.0</ele><time>2026-04-19T09:11:02Z</time></trkpt><trkpt lat="45.249202375606" lon="9.29408578716751"><ele>76.0</ele><time>2026-04-19T09:11:03Z</time></trkpt><trkpt lat="45.24917267267136" lon="9.294223144937261"><ele>76.0</ele><time>2026-04-19T09:11:04Z</time></trkpt><trkpt lat="45.249110925821675" lon="9.294342323790753"><ele>76.0</ele><time>2026-04-19T09:11:05Z</time></trkpt><trkpt lat="45.24902374192751" lon="9.294460564287181"><ele>76.0</ele><time>2026-04-19T09:11:06Z</time></trkpt><trkpt lat="45.24894171728543" lon="9.29455859307389"><ele>76.5</ele><time>2026-04-19T09:11:07Z</time></trkpt><trkpt lat="45.24887994598365" lon="9.294660630959726"><ele>77.0</ele><time>2026-04-19T09:11:08Z</time></trkpt><trkpt lat="45.24882845612758" lon="9.294765265225065"><ele>77.5</ele><time>2026-04-19T09:11:09Z</time></trkpt><trkpt lat="45.24878463219351" lon="9.294849342178154"><ele>78.0</ele><time>2026-04-19T09:11:10Z</time></trkpt><trkpt lat="45.24874467184637" lon="9.294923283796843"><ele>78.5</ele><time>2026-04-19T09:11:11Z</time></trkpt><trkpt lat="45.24870547603367" lon="9.294997947158345"><ele>79.0</ele><time>2026-04-19T09:11:12Z</time></trkpt><trkpt lat="45.24861112012634" lon="9.295107076346625"><ele>79.0</ele><time>2026-04-19T09:11:14Z</time></trkpt><trkpt lat="45.248540296332784" lon="9.29516326012148"><ele>79.0</ele><time>2026-04-19T09:11:18Z</time></trkpt><trkpt lat="45.2484759395907" lon="9.295211495288598"><ele>79.0</ele><time>2026-04-19T09:11:20Z</time></trkpt><trkpt lat="45.24840226785159" lon="9.295285676157592"><ele>79.0</ele><time>2026-04-19T09:11:22Z</time></trkpt><trkpt lat="45.24831718018946" lon="9.295372053648764"><ele>79.0</ele><time>2026-04-19T09:11:24Z</time></trkpt><trkpt lat="45.24824325073222" lon="9.295336657528079"><ele>79.0</ele><time>2026-04-19T09:11:25Z</time></trkpt><trkpt lat="45.24811612656291" lon="9.295373793095482"><ele>79.2</ele><time>2026-04-19T09:11:27Z</time></trkpt><trkpt lat="45.248009168254455" lon="9.295376046739252"><ele>79.4</ele><time>2026-04-19T09:11:29Z</time></trkpt><trkpt lat="45.24790007654567" lon="9.295386358668173"><ele>79.6</ele><time>2026-04-19T09:11:31Z</time></trkpt><trkpt lat="45.24783709344504" lon="9.295393734988457"><ele>79.8</ele><time>2026-04-19T09:11:32Z</time></trkpt><trkpt lat="45.24773328607885" lon="9.295419493913842"><ele>80.0</ele><time>2026-04-19T09:11:34Z</time></trkpt><trkpt lat="45.247596759253746" lon="9.29538835712478"><ele>80.0</ele><time>2026-04-19T09:11:36Z</time></trkpt><trkpt lat="45.24751661474386" lon="9.295333757292962"><ele>80.0</ele><time>2026-04-19T09:11:37Z</time></trkpt><trkpt lat="45.24743491581838" lon="9.29524562570318"><ele>80.0</ele><time>2026-04-19T09:11:38Z</time></trkpt><trkpt lat="45.24734923857915" lon="9.29514159967027"><ele>80.0</ele><time>2026-04-19T09:11:39Z</time></trkpt><trkpt lat="45.24725293760848" lon="9.295035589867638"><ele>80.0</ele><time>2026-04-19T09:11:40Z</time></trkpt><trkpt lat="45.247160927913505" lon="9.294914090871485"><ele>80.0</ele><time>2026-04-19T09:11:41Z</time></trkpt><trkpt lat="45.24705601648027" lon="9.294815547613293"><ele>80.0</ele><time>2026-04-19T09:11:42Z</time></trkpt><trkpt lat="45.24695319192089" lon="9.294743389876134"><ele>80.0</ele><time>2026-04-19T09:11:43Z</time></trkpt><trkpt lat="45.246872846574874" lon="9.294629998146437"><ele>80.0</ele><time>2026-04-19T09:11:44Z</time></trkpt><trkpt lat="45.24678374206016" lon="9.294530777759205"><ele>80.0</ele><time>2026-04-19T09:11:45Z</time></trkpt><trkpt lat="45.246702343929286" lon="9.294439503882185"><ele>80.0</ele><time>2026-04-19T09:11:46Z</time></trkpt><trkpt lat="45.24662718083947" lon="9.294348064250988"><ele>80.0</ele><time>2026-04-19T09:11:47Z</time></trkpt><trkpt lat="45.24653945965535" lon="9.29424600748488"><ele>80.0</ele><time>2026-04-19T09:11:48Z</time></trkpt><trkpt lat="45.24644313610417" lon="9.294135608171208"><ele>80.0</ele><time>2026-04-19T09:11:49Z</time></trkpt><trkpt lat="45.24634671947766" lon="9.294028011386983"><ele>80.0</ele><time>2026-04-19T09:11:50Z</time></trkpt><trkpt lat="45.24624670594937" lon="9.293952899074549"><ele>80.0</ele><time>2026-04-19T09:11:51Z</time></trkpt><trkpt lat="45.246139323829425" lon="9.29389716635598"><ele>80.0</ele><time>2026-04-19T09:11:52Z</time></trkpt><trkpt lat="45.24601648850544" lon="9.29390066776893"><ele>80.0</ele><time>2026-04-19T09:11:53Z</time></trkpt><trkpt lat="45.24590720341335" lon="9.293936649981172"><ele>79.8</ele><time>2026-04-19T09:11:54Z</time></trkpt><trkpt lat="45.24580831864259" lon="9.293955423649722"><ele>79.6</ele><time>2026-04-19T09:11:55Z</time></trkpt><trkpt lat="45.24572075396071" lon="9.293963984616267"><ele>79.4</ele><time>2026-04-19T09:11:56Z</time></trkpt><trkpt lat="45.245619428084204" lon="9.293955834648472"><ele>79.2</ele><time>2026-04-19T09:11:57Z</time></trkpt><trkpt lat="45.24553789014183" lon="9.29392229770924"><ele>79.0</ele><time>2026-04-19T09:11:58Z</time></trkpt><trkpt lat="45.24545379597365" lon="9.293928262690393"><ele>78.83333333333333</ele><time>2026-04-19T09:11:59Z</time></trkpt><trkpt lat="45.245382878734546" lon="9.293891656319103"><ele>78.66666666666666</ele><time>2026-04-19T09:12:00Z</time></trkpt><trkpt lat="45.2453119882771" lon="9.293846255646773"><ele>78.5</ele><time>2026-04-19T09:12:01Z</time></trkpt><trkpt lat="45.245253837829" lon="9.29379180513263"><ele>78.33333333333333</ele><time>2026-04-19T09:12:02Z</time></trkpt><trkpt lat="45.24515941477701" lon="9.293667966158983"><ele>78.16666666666667</ele><time>2026-04-19T09:12:04Z</time></trkpt><trkpt lat="45.24512070667353" lon="9.29359585944886"><ele>78.0</ele><time>2026-04-19T09:12:05Z</time></trkpt><trkpt lat="45.24508541614357" lon="9.293518808942467"><ele>78.0</ele><time>2026-04-19T09:12:06Z</time></trkpt><trkpt lat="45.24505362548844" lon="9.293428027252668"><ele>78.0</ele><time>2026-04-19T09:12:07Z</time></trkpt><trkpt lat="45.24502332954413" lon="9.293330441242519"><ele>78.0</ele><time>2026-04-19T09:12:08Z</time></trkpt><trkpt lat="45.24498945486252" lon="9.29321426038532"><ele>78.0</ele><time>2026-04-19T09:12:09Z</time></trkpt><trkpt lat="45.24495612432317" lon="9.293073396416125"><ele>78.0</ele><time>2026-04-19T09:12:10Z</time></trkpt><trkpt lat="45.244926921571455" lon="9.292923963709999"><ele>78.0</ele><time>2026-04-19T09:12:11Z</time></trkpt><trkpt lat="45.244887938232885" lon="9.2927709916118"><ele>78.0</ele><time>2026-04-19T09:12:12Z</time></trkpt><trkpt lat="45.24484851486618" lon="9.292614863729618"><ele>78.0</ele><time>2026-04-19T09:12:13Z</time></trkpt><trkpt lat="45.24481090679251" lon="9.292462849416163"><ele>78.0</ele><time>2026-04-19T09:12:14Z</time></trkpt><trkpt lat="45.24477081274249" lon="9.292300688936168"><ele>78.0</ele><time>2026-04-19T09:12:15Z</time></trkpt><trkpt lat="45.2447152231484" lon="9.29211462707503"><ele>78.0</ele><time>2026-04-19T09:12:16Z</time></trkpt><trkpt lat="45.244665025580645" lon="9.291893958692524"><ele>78.0</ele><time>2026-04-19T09:12:17Z</time></trkpt><trkpt lat="45.24460526127614" lon="9.291664705317833"><ele>78.0</ele><time>2026-04-19T09:12:18Z</time></trkpt><trkpt lat="45.244530245893735" lon="9.291434313015621"><ele>78.0</ele><time>2026-04-19T09:12:19Z</time></trkpt><trkpt lat="45.24446735473565" lon="9.29118575829375"><ele>78.0</ele><time>2026-04-19T09:12:20Z</time></trkpt><trkpt lat="45.244404193685625" lon="9.290940892413998"><ele>78.0</ele><time>2026-04-19T09:12:21Z</time></trkpt><trkpt lat="45.244333470345744" lon="9.29068639189862"><ele>78.33333333333333</ele><time>2026-04-19T09:12:22Z</time></trkpt><trkpt lat="45.24427789171811" lon="9.290411262539974"><ele>78.66666666666666</ele><time>2026-04-19T09:12:23Z</time></trkpt><trkpt lat="45.24421039874419" lon="9.290145946077802"><ele>79.0</ele><time>2026-04-19T09:12:24Z</time></trkpt><trkpt lat="45.24413461379282" lon="9.289911683982496"><ele>78.66666666666666</ele><time>2026-04-19T09:12:25Z</time></trkpt><trkpt lat="45.244082399706826" lon="9.289669091404482"><ele>78.33333333333333</ele><time>2026-04-19T09:12:26Z</time></trkpt><trkpt lat="45.24403763656411" lon="9.28941038401529"><ele>78.0</ele><time>2026-04-19T09:12:27Z</time></trkpt><trkpt lat="45.244006727149504" lon="9.289134706724447"><ele>78.66666666666667</ele><time>2026-04-19T09:12:28Z</time></trkpt><trkpt lat="45.243985504910604" lon="9.288847878514503"><ele>79.33333333333334</ele><time>2026-04-19T09:12:29Z</time></trkpt><trkpt lat="45.2439758199184" lon="9.288573040395345"><ele>80.0</ele><time>2026-04-19T09:12:30Z</time></trkpt><trkpt lat="45.243993680755" lon="9.288301731460393"><ele>79.66666666666667</ele><time>2026-04-19T09:12:31Z</time></trkpt><trkpt lat="45.24400023509377" lon="9.288041615774235"><ele>79.33333333333333</ele><time>2026-04-19T09:12:32Z</time></trkpt><trkpt lat="45.244005902183105" lon="9.287794177865798"><ele>79.0</ele><time>2026-04-19T09:12:33Z</time></trkpt><trkpt lat="45.24401108832463" lon="9.287534188428262"><ele>78.33333333333333</ele><time>2026-04-19T09:12:34Z</time></trkpt><trkpt lat="45.24401639328341" lon="9.287255112187914"><ele>77.66666666666667</ele><time>2026-04-19T09:12:35Z</time></trkpt><trkpt lat="45.24402175843827" lon="9.286971329021078"><ele>77.0</ele><time>2026-04-19T09:12:36Z</time></trkpt><trkpt lat="45.24402684564104" lon="9.286702247760687"><ele>77.0</ele><time>2026-04-19T09:12:37Z</time></trkpt><trkpt lat="45.244032147026466" lon="9.28644466785663"><ele>77.0</ele><time>2026-04-19T09:12:38Z</time></trkpt><trkpt lat="45.24403648455843" lon="9.286201388842006"><ele>77.0</ele><time>2026-04-19T09:12:39Z</time></trkpt><trkpt lat="45.24403889561615" lon="9.285968792634998"><ele>77.0</ele><time>2026-04-19T09:12:40Z</time></trkpt><trkpt lat="45.244030455369156" lon="9.285743387633856"><ele>77.0</ele><time>2026-04-19T09:12:41Z</time></trkpt><trkpt lat="45.24399684019185" lon="9.285514948175276"><ele>77.0</ele><time>2026-04-19T09:12:42Z</time></trkpt><trkpt lat="45.24392934767724" lon="9.285294996983774"><ele>77.33333333333334</ele><time>2026-04-19T09:12:43Z</time></trkpt><trkpt lat="45.2438425413185" lon="9.285082406086664"><ele>77.66666666666667</ele><time>2026-04-19T09:12:44Z</time></trkpt><trkpt lat="45.24373013894552" lon="9.284888998378678"><ele>78.0</ele><time>2026-04-19T09:12:45Z</time></trkpt><trkpt lat="45.24358214849821" lon="9.284725261535451"><ele>78.0</ele><time>2026-04-19T09:12:46Z</time></trkpt><trkpt lat="45.24343196941932" lon="9.284563440104533"><ele>78.0</ele><time>2026-04-19T09:12:47Z</time></trkpt><trkpt lat="45.24328864104197" lon="9.284392702558415"><ele>78.0</ele><time>2026-04-19T09:12:48Z</time></trkpt><trkpt lat="45.2431412377314" lon="9.284235979744825"><ele>78.33333333333333</ele><time>2026-04-19T09:12:49Z</time></trkpt><trkpt lat="45.24299969692731" lon="9.28408599191032"><ele>78.66666666666666</ele><time>2026-04-19T09:12:50Z</time></trkpt><trkpt lat="45.24285525615803" lon="9.28395571155434"><ele>79.0</ele><time>2026-04-19T09:12:51Z</time></trkpt><trkpt lat="45.242724548991575" lon="9.283812486068417"><ele>79.25</ele><time>2026-04-19T09:12:52Z</time></trkpt><trkpt lat="45.242606529413905" lon="9.283685082876376"><ele>79.5</ele><time>2026-04-19T09:12:53Z</time></trkpt><trkpt lat="45.242493627531395" lon="9.283569208347767"><ele>79.75</ele><time>2026-04-19T09:12:54Z</time></trkpt><trkpt lat="45.242384200463455" lon="9.283454119706947"><ele>80.0</ele><time>2026-04-19T09:12:55Z</time></trkpt><trkpt lat="45.24227518356867" lon="9.283335059077265"><ele>79.5</ele><time>2026-04-19T09:12:56Z</time></trkpt><trkpt lat="45.24216971836865" lon="9.283225542717586"><ele>79.0</ele><time>2026-04-19T09:12:57Z</time></trkpt><trkpt lat="45.2420623850696" lon="9.283116530159278"><ele>78.5</ele><time>2026-04-19T09:12:58Z</time></trkpt><trkpt lat="45.2419635552864" lon="9.283008343642486"><ele>78.0</ele><time>2026-04-19T09:12:59Z</time></trkpt><trkpt lat="45.24186423776092" lon="9.282886367594237"><ele>77.8</ele><time>2026-04-19T09:13:00Z</time></trkpt><trkpt lat="45.2417705333112" lon="9.282752838873137"><ele>77.6</ele><time>2026-04-19T09:13:01Z</time></trkpt><trkpt lat="45.241689862499875" lon="9.282624730634062"><ele>77.4</ele><time>2026-04-19T09:13:02Z</time></trkpt><trkpt lat="45.24162401665143" lon="9.282513145287533"><ele>77.2</ele><time>2026-04-19T09:13:03Z</time></trkpt><trkpt lat="45.24157442545533" lon="9.282422371851546"><ele>77.0</ele><time>2026-04-19T09:13:04Z</time></trkpt><trkpt lat="45.24149219244388" lon="9.282291063941429"><ele>77.5</ele><time>2026-04-19T09:13:06Z</time></trkpt><trkpt lat="45.24145669997144" lon="9.282211173087198"><ele>78.0</ele><time>2026-04-19T09:13:10Z</time></trkpt><trkpt lat="45.24125351902542" lon="9.282460207409663"><ele>78.5</ele><time>2026-04-19T09:13:12Z</time></trkpt><trkpt lat="45.24117555424557" lon="9.282550668358374"><ele>79.0</ele><time>2026-04-19T09:13:13Z</time></trkpt><trkpt lat="45.24109433011767" lon="9.28265909165774"><ele>79.0</ele><time>2026-04-19T09:13:14Z</time></trkpt><trkpt lat="45.24102134425835" lon="9.282774888508328"><ele>79.0</ele><time>2026-04-19T09:13:15Z</time></trkpt><trkpt lat="45.24092222964754" lon="9.282891747577482"><ele>79.0</ele><time>2026-04-19T09:13:16Z</time></trkpt><trkpt lat="45.24082222253385" lon="9.28301799876954"><ele>79.0</ele><time>2026-04-19T09:13:17Z</time></trkpt><trkpt lat="45.240718237651755" lon="9.28314796561514"><ele>78.75</ele><time>2026-04-19T09:13:18Z</time></trkpt><trkpt lat="45.24061970453289" lon="9.283277579554769"><ele>78.5</ele><time>2026-04-19T09:13:19Z</time></trkpt><trkpt lat="45.24052400442575" lon="9.283402459891821"><ele>78.25</ele><time>2026-04-19T09:13:20Z</time></trkpt><trkpt lat="45.240416676726014" lon="9.283533512340775"><ele>78.0</ele><time>2026-04-19T09:13:21Z</time></trkpt><trkpt lat="45.2403105780504" lon="9.283669172513443"><ele>78.0</ele><time>2026-04-19T09:13:22Z</time></trkpt><trkpt lat="45.240201762307166" lon="9.283811110629822"><ele>78.0</ele><time>2026-04-19T09:13:23Z</time></trkpt><trkpt lat="45.24009242260896" lon="9.283955297603544"><ele>78.0</ele><time>2026-04-19T09:13:24Z</time></trkpt><trkpt lat="45.23998935851337" lon="9.284091189587592"><ele>78.0</ele><time>2026-04-19T09:13:25Z</time></trkpt><trkpt lat="45.23989378581006" lon="9.284215358220212"><ele>78.0</ele><time>2026-04-19T09:13:26Z</time></trkpt><trkpt lat="45.23980099675265" lon="9.284328522379843"><ele>78.0</ele><time>2026-04-19T09:13:27Z</time></trkpt><trkpt lat="45.23971509807743" lon="9.28443475054424"><ele>78.0</ele><time>2026-04-19T09:13:28Z</time></trkpt><trkpt lat="45.23963813100728" lon="9.284534014442452"><ele>78.0</ele><time>2026-04-19T09:13:29Z</time></trkpt><trkpt lat="45.23957135212643" lon="9.284648150882537"><ele>78.0</ele><time>2026-04-19T09:13:30Z</time></trkpt><trkpt lat="45.23952471091016" lon="9.284797579646984"><ele>78.5</ele><time>2026-04-19T09:13:31Z</time></trkpt><trkpt lat="45.239478038505474" lon="9.28496963482107"><ele>79.0</ele><time>2026-04-19T09:13:32Z</time></trkpt><trkpt lat="45.23942253723684" lon="9.285149536731634"><ele>79.5</ele><time>2026-04-19T09:13:33Z</time></trkpt><trkpt lat="45.23936280820055" lon="9.2853201221487"><ele>80.0</ele><time>2026-04-19T09:13:34Z</time></trkpt><trkpt lat="45.239310982177344" lon="9.285468983018884"><ele>79.6</ele><time>2026-04-19T09:13:35Z</time></trkpt><trkpt lat="45.2392621907729" lon="9.285603473452783"><ele>79.2</ele><time>2026-04-19T09:13:36Z</time></trkpt><trkpt lat="45.23921665304402" lon="9.285719851014568"><ele>78.8</ele><time>2026-04-19T09:13:37Z</time></trkpt><trkpt lat="45.23917851647657" lon="9.285826324029834"><ele>78.4</ele><time>2026-04-19T09:13:38Z</time></trkpt><trkpt lat="45.23912693608712" lon="9.28593510804152"><ele>78.0</ele><time>2026-04-19T09:13:39Z</time></trkpt><trkpt lat="45.239060550621254" lon="9.286024518544934"><ele>78.0</ele><time>2026-04-19T09:13:40Z</time></trkpt><trkpt lat="45.23897690974044" lon="9.286097630998398"><ele>78.0</ele><time>2026-04-19T09:13:41Z</time></trkpt><trkpt lat="45.2388878281126" lon="9.286164521530853"><ele>78.0</ele><time>2026-04-19T09:13:42Z</time></trkpt><trkpt lat="45.23880627060429" lon="9.286244716858105"><ele>78.0</ele><time>2026-04-19T09:13:43Z</time></trkpt><trkpt lat="45.2387442628295" lon="9.286353158516711"><ele>78.0</ele><time>2026-04-19T09:13:44Z</time></trkpt><trkpt lat="45.23869142287806" lon="9.286504781051729"><ele>78.0</ele><time>2026-04-19T09:13:45Z</time></trkpt><trkpt lat="45.23862782991079" lon="9.286656184540254"><ele>78.0</ele><time>2026-04-19T09:13:46Z</time></trkpt><trkpt lat="45.2385484063973" lon="9.286801939507534"><ele>78.0</ele><time>2026-04-19T09:13:47Z</time></trkpt><trkpt lat="45.23846980675285" lon="9.286937915793953"><ele>78.0</ele><time>2026-04-19T09:13:48Z</time></trkpt><trkpt lat="45.23840331019064" lon="9.287061034336826"><ele>78.0</ele><time>2026-04-19T09:13:49Z</time></trkpt><trkpt lat="45.23833812079392" lon="9.287232349287581"><ele>78.0</ele><time>2026-04-19T09:13:50Z</time></trkpt><trkpt lat="45.238314955619124" lon="9.287370202354483"><ele>78.0</ele><time>2026-04-19T09:13:51Z</time></trkpt><trkpt lat="45.23828805618854" lon="9.287559942419692"><ele>78.0</ele><time>2026-04-19T09:13:52Z</time></trkpt><trkpt lat="45.23825153157755" lon="9.287758816894847"><ele>78.25</ele><time>2026-04-19T09:13:53Z</time></trkpt><trkpt lat="45.23820379123505" lon="9.287953512591157"><ele>78.5</ele><time>2026-04-19T09:13:54Z</time></trkpt><trkpt lat="45.23815672313458" lon="9.288136715141947"><ele>78.75</ele><time>2026-04-19T09:13:55Z</time></trkpt><trkpt lat="45.23811629125225" lon="9.288319359953642"><ele>79.0</ele><time>2026-04-19T09:13:56Z</time></trkpt><trkpt lat="45.23808191566666" lon="9.288490073274655"><ele>78.5</ele><time>2026-04-19T09:13:57Z</time></trkpt><trkpt lat="45.238042242765715" lon="9.288664524336545"><ele>78.0</ele><time>2026-04-19T09:13:58Z</time></trkpt><trkpt lat="45.23800658822434" lon="9.288840395053104"><ele>77.5</ele><time>2026-04-19T09:13:59Z</time></trkpt><trkpt lat="45.23796759628107" lon="9.289019721588726"><ele>77.0</ele><time>2026-04-19T09:14:00Z</time></trkpt><trkpt lat="45.23793324133404" lon="9.289178314241331"><ele>77.0</ele><time>2026-04-19T09:14:01Z</time></trkpt><trkpt lat="45.237909690712804" lon="9.289314178711448"><ele>77.0</ele><time>2026-04-19T09:14:02Z</time></trkpt><trkpt lat="45.23788796150786" lon="9.289451298723483"><ele>77.0</ele><time>2026-04-19T09:14:03Z</time></trkpt><trkpt lat="45.23786075737922" lon="9.289592817229837"><ele>77.0</ele><time>2026-04-19T09:14:04Z</time></trkpt><trkpt lat="45.237819324204224" lon="9.289738011916938"><ele>77.0</ele><time>2026-04-19T09:14:05Z</time></trkpt><trkpt lat="45.23777763214464" lon="9.289906264240813"><ele>77.0</ele><time>2026-04-19T09:14:06Z</time></trkpt><trkpt lat="45.237737870351744" lon="9.290091368372439"><ele>77.0</ele><time>2026-04-19T09:14:07Z</time></trkpt><trkpt lat="45.237685655594426" lon="9.290274768401682"><ele>77.0</ele><time>2026-04-19T09:14:08Z</time></trkpt><trkpt lat="45.23763684447106" lon="9.290445559217346"><ele>77.0</ele><time>2026-04-19T09:14:09Z</time></trkpt><trkpt lat="45.23759191417955" lon="9.290609547017766"><ele>77.0</ele><time>2026-04-19T09:14:10Z</time></trkpt><trkpt lat="45.237553342589074" lon="9.29076267561268"><ele>77.0</ele><time>2026-04-19T09:14:11Z</time></trkpt><trkpt lat="45.23751740164579" lon="9.29091337640865"><ele>77.0</ele><time>2026-04-19T09:14:12Z</time></trkpt><trkpt lat="45.237486397599916" lon="9.29106398537241"><ele>77.0</ele><time>2026-04-19T09:14:13Z</time></trkpt><trkpt lat="45.23744881695792" lon="9.291211776370002"><ele>77.0</ele><time>2026-04-19T09:14:14Z</time></trkpt><trkpt lat="45.23738959106969" lon="9.291343651911745"><ele>77.0</ele><time>2026-04-19T09:14:15Z</time></trkpt><trkpt lat="45.23730752420492" lon="9.291465402308532"><ele>77.0</ele><time>2026-04-19T09:14:16Z</time></trkpt><trkpt lat="45.23720167142107" lon="9.291596331491851"><ele>77.0</ele><time>2026-04-19T09:14:17Z</time></trkpt><trkpt lat="45.237092968963644" lon="9.291740124367061"><ele>77.0</ele><time>2026-04-19T09:14:18Z</time></trkpt><trkpt lat="45.23698832785754" lon="9.291888924440233"><ele>77.0</ele><time>2026-04-19T09:14:19Z</time></trkpt><trkpt lat="45.23688602230989" lon="9.292043384638351"><ele>77.0</ele><time>2026-04-19T09:14:20Z</time></trkpt><trkpt lat="45.23678124958631" lon="9.292202606923915"><ele>77.0</ele><time>2026-04-19T09:14:21Z</time></trkpt><trkpt lat="45.236676824390905" lon="9.292358567662866"><ele>77.0</ele><time>2026-04-19T09:14:22Z</time></trkpt><trkpt lat="45.23657870683415" lon="9.292506005895481"><ele>77.0</ele><time>2026-04-19T09:14:23Z</time></trkpt><trkpt lat="45.23648681824854" lon="9.29262679817247"><ele>77.0</ele><time>2026-04-19T09:14:24Z</time></trkpt><trkpt lat="45.23642097684091" lon="9.292768989894839"><ele>77.0</ele><time>2026-04-19T09:14:25Z</time></trkpt><trkpt lat="45.23634126016844" lon="9.292875779615434"><ele>77.0</ele><time>2026-04-19T09:14:26Z</time></trkpt><trkpt lat="45.23627348932932" lon="9.29298140378653"><ele>77.0</ele><time>2026-04-19T09:14:27Z</time></trkpt><trkpt lat="45.2362153707776" lon="9.293044977957297"><ele>77.0</ele><time>2026-04-19T09:14:28Z</time></trkpt><trkpt lat="45.23615067195213" lon="9.293167927485783"><ele>77.0</ele><time>2026-04-19T09:14:30Z</time></trkpt><trkpt lat="45.23609001226796" lon="9.293248149350879"><ele>77.0</ele><time>2026-04-19T09:14:32Z</time></trkpt><trkpt lat="45.23619731981083" lon="9.293496503337549"><ele>76.8</ele><time>2026-04-19T09:14:34Z</time></trkpt><trkpt lat="45.236253418761905" lon="9.293625801775852"><ele>76.6</ele><time>2026-04-19T09:14:35Z</time></trkpt><trkpt lat="45.236301779498056" lon="9.293738594428483"><ele>76.39999999999999</ele><time>2026-04-19T09:14:36Z</time></trkpt><trkpt lat="45.2363400610865" lon="9.293820374481736"><ele>76.2</ele><time>2026-04-19T09:14:37Z</time></trkpt><trkpt lat="45.236389987817645" lon="9.293940171243584"><ele>76.0</ele><time>2026-04-19T09:14:39Z</time></trkpt><trkpt lat="45.23640214489479" lon="9.294057307227838"><ele>75.75</ele><time>2026-04-19T09:14:41Z</time></trkpt><trkpt lat="45.23629838667169" lon="9.294244145188264"><ele>75.5</ele><time>2026-04-19T09:14:43Z</time></trkpt><trkpt lat="45.236266766367656" lon="9.294383085135863"><ele>75.25</ele><time>2026-04-19T09:14:44Z</time></trkpt><trkpt lat="45.23618567758581" lon="9.294505839927185"><ele>75.0</ele><time>2026-04-19T09:14:45Z</time></trkpt><trkpt lat="45.23610728181568" lon="9.2946286286041"><ele>75.5</ele><time>2026-04-19T09:14:46Z</time></trkpt><trkpt lat="45.236013469633406" lon="9.294765270688073"><ele>76.0</ele><time>2026-04-19T09:14:47Z</time></trkpt><trkpt lat="45.235930093413806" lon="9.294912939639154"><ele>76.5</ele><time>2026-04-19T09:14:48Z</time></trkpt><trkpt lat="45.235810397321664" lon="9.29507562827249"><ele>77.0</ele><time>2026-04-19T09:14:49Z</time></trkpt><trkpt lat="45.23569462951242" lon="9.295250915818082"><ele>77.0</ele><time>2026-04-19T09:14:50Z</time></trkpt><trkpt lat="45.23558394278308" lon="9.295419228562348"><ele>77.0</ele><time>2026-04-19T09:14:51Z</time></trkpt><trkpt lat="45.2354688538871" lon="9.295591237668342"><ele>77.0</ele><time>2026-04-19T09:14:52Z</time></trkpt><trkpt lat="45.23537420876869" lon="9.295735610776461"><ele>77.0</ele><time>2026-04-19T09:14:53Z</time></trkpt><trkpt lat="45.23527708734443" lon="9.295894342213764"><ele>77.0</ele><time>2026-04-19T09:14:54Z</time></trkpt><trkpt lat="45.23518714034645" lon="9.296055986087943"><ele>77.0</ele><time>2026-04-19T09:14:55Z</time></trkpt><trkpt lat="45.235100000913924" lon="9.296217147393973"><ele>77.0</ele><time>2026-04-19T09:14:56Z</time></trkpt><trkpt lat="45.23501141363718" lon="9.296379878622579"><ele>76.75</ele><time>2026-04-19T09:14:57Z</time></trkpt><trkpt lat="45.23493371348375" lon="9.29654542928598"><ele>76.5</ele><time>2026-04-19T09:14:58Z</time></trkpt><trkpt lat="45.234853958400336" lon="9.29669308246075"><ele>76.25</ele><time>2026-04-19T09:14:59Z</time></trkpt><trkpt lat="45.23477167581279" lon="9.296836000075462"><ele>76.0</ele><time>2026-04-19T09:15:00Z</time></trkpt><trkpt lat="45.23470276152942" lon="9.296976514729655"><ele>76.0</ele><time>2026-04-19T09:15:01Z</time></trkpt><trkpt lat="45.23463618262082" lon="9.297100314534347"><ele>76.0</ele><time>2026-04-19T09:15:02Z</time></trkpt><trkpt lat="45.23457293489088" lon="9.297214266909323"><ele>76.0</ele><time>2026-04-19T09:15:03Z</time></trkpt><trkpt lat="45.23449261059969" lon="9.297315703978851"><ele>76.0</ele><time>2026-04-19T09:15:04Z</time></trkpt><trkpt lat="45.234394767742856" lon="9.297408916621983"><ele>76.0</ele><time>2026-04-19T09:15:05Z</time></trkpt><trkpt lat="45.23428800065408" lon="9.2974847926692"><ele>76.0</ele><time>2026-04-19T09:15:06Z</time></trkpt><trkpt lat="45.23416171336103" lon="9.29755285266378"><ele>76.0</ele><time>2026-04-19T09:15:07Z</time></trkpt><trkpt lat="45.234022796165156" lon="9.297621155562673"><ele>76.0</ele><time>2026-04-19T09:15:08Z</time></trkpt><trkpt lat="45.23388114367794" lon="9.297667045614032"><ele>76.0</ele><time>2026-04-19T09:15:09Z</time></trkpt><trkpt lat="45.2337438085872" lon="9.297697912612845"><ele>76.0</ele><time>2026-04-19T09:15:10Z</time></trkpt><trkpt lat="45.23361451059666" lon="9.297750331095413"><ele>76.0</ele><time>2026-04-19T09:15:11Z</time></trkpt><trkpt lat="45.233482539328854" lon="9.297773557514835"><ele>76.0</ele><time>2026-04-19T09:15:12Z</time></trkpt><trkpt lat="45.233313002139866" lon="9.297813457210218"><ele>76.0</ele><time>2026-04-19T09:15:13Z</time></trkpt><trkpt lat="45.23316080050757" lon="9.297839739270994"><ele>75.5</ele><time>2026-04-19T09:15:14Z</time></trkpt><trkpt lat="45.233027174612616" lon="9.297870571985365"><ele>75.0</ele><time>2026-04-19T09:15:15Z</time></trkpt><trkpt lat="45.23290994162033" lon="9.29789507347839"><ele>74.5</ele><time>2026-04-19T09:15:16Z</time></trkpt><trkpt lat="45.23278600868938" lon="9.297915594384191"><ele>74.0</ele><time>2026-04-19T09:15:17Z</time></trkpt><trkpt lat="45.23264335143413" lon="9.297945207559879"><ele>74.0</ele><time>2026-04-19T09:15:18Z</time></trkpt><trkpt lat="45.23249935441371" lon="9.297975436167773"><ele>74.0</ele><time>2026-04-19T09:15:19Z</time></trkpt><trkpt lat="45.23235902369235" lon="9.298001585178515"><ele>74.0</ele><time>2026-04-19T09:15:20Z</time></trkpt><trkpt lat="45.23222257059862" lon="9.29802258416051"><ele>74.0</ele><time>2026-04-19T09:15:21Z</time></trkpt><trkpt lat="45.23209084683342" lon="9.298038859194584"><ele>74.5</ele><time>2026-04-19T09:15:22Z</time></trkpt><trkpt lat="45.231974041101104" lon="9.298041471884112"><ele>75.0</ele><time>2026-04-19T09:15:23Z</time></trkpt><trkpt lat="45.23185038609106" lon="9.298039601665149"><ele>75.5</ele><time>2026-04-19T09:15:24Z</time></trkpt><trkpt lat="45.23173734211868" lon="9.298046063957743"><ele>76.0</ele><time>2026-04-19T09:15:25Z</time></trkpt><trkpt lat="45.2316264950092" lon="9.298062884527512"><ele>76.0</ele><time>2026-04-19T09:15:26Z</time></trkpt><trkpt lat="45.23150789968325" lon="9.298073168669287"><ele>76.0</ele><time>2026-04-19T09:15:27Z</time></trkpt><trkpt lat="45.23138207301357" lon="9.298075168383129"><ele>76.0</ele><time>2026-04-19T09:15:28Z</time></trkpt><trkpt lat="45.23127278726593" lon="9.298039177943348"><ele>76.0</ele><time>2026-04-19T09:15:29Z</time></trkpt><trkpt lat="45.23117897083603" lon="9.298008428207496"><ele>76.0</ele><time>2026-04-19T09:15:30Z</time></trkpt><trkpt lat="45.23108241912882" lon="9.297971935372253"><ele>76.0</ele><time>2026-04-19T09:15:31Z</time></trkpt><trkpt lat="45.230979338758765" lon="9.297924281262585"><ele>76.0</ele><time>2026-04-19T09:15:32Z</time></trkpt><trkpt lat="45.23087421126002" lon="9.297888031026519"><ele>76.0</ele><time>2026-04-19T09:15:33Z</time></trkpt><trkpt lat="45.23075659431352" lon="9.297886317450947"><ele>76.0</ele><time>2026-04-19T09:15:34Z</time></trkpt><trkpt lat="45.230627043900796" lon="9.297886609460654"><ele>75.66666666666666</ele><time>2026-04-19T09:15:35Z</time></trkpt><trkpt lat="45.23047661950285" lon="9.29791060998711"><ele>75.33333333333333</ele><time>2026-04-19T09:15:36Z</time></trkpt><trkpt lat="45.230314647794806" lon="9.297941222748422"><ele>75.0</ele><time>2026-04-19T09:15:37Z</time></trkpt><trkpt lat="45.23014327206948" lon="9.297972089856335"><ele>75.0</ele><time>2026-04-19T09:15:38Z</time></trkpt><trkpt lat="45.2300038733677" lon="9.297986461700969"><ele>75.0</ele><time>2026-04-19T09:15:39Z</time></trkpt><trkpt lat="45.2298683503325" lon="9.298000428666679"><ele>75.0</ele><time>2026-04-19T09:15:40Z</time></trkpt><trkpt lat="45.22973677205095" lon="9.298020443200137"><ele>75.0</ele><time>2026-04-19T09:15:41Z</time></trkpt><trkpt lat="45.229608737159275" lon="9.298047053465346"><ele>75.2</ele><time>2026-04-19T09:15:42Z</time></trkpt><trkpt lat="45.229496199202266" lon="9.298076345880556"><ele>75.4</ele><time>2026-04-19T09:15:43Z</time></trkpt><trkpt lat="45.22939265345381" lon="9.298120513734476"><ele>75.6</ele><time>2026-04-19T09:15:44Z</time></trkpt><trkpt lat="45.22930077371909" lon="9.298181530424335"><ele>75.8</ele><time>2026-04-19T09:15:45Z</time></trkpt><trkpt lat="45.22920661106062" lon="9.298271323727562"><ele>76.0</ele><time>2026-04-19T09:15:46Z</time></trkpt><trkpt lat="45.229128333429486" lon="9.298367457597452"><ele>76.0</ele><time>2026-04-19T09:15:47Z</time></trkpt><trkpt lat="45.22906786840697" lon="9.29845711668915"><ele>76.0</ele><time>2026-04-19T09:15:48Z</time></trkpt><trkpt lat="45.22898916558027" lon="9.298583775348797"><ele>76.0</ele><time>2026-04-19T09:15:50Z</time></trkpt><trkpt lat="45.22890642644102" lon="9.2986277419154"><ele>76.0</ele><time>2026-04-19T09:15:52Z</time></trkpt><trkpt lat="45.22883820054798" lon="9.298579377523309"><ele>76.0</ele><time>2026-04-19T09:15:54Z</time></trkpt><trkpt lat="45.228794656640275" lon="9.298457409491302"><ele>76.0</ele><time>2026-04-19T09:15:56Z</time></trkpt><trkpt lat="45.22870750715051" lon="9.298302935852641"><ele>76.0</ele><time>2026-04-19T09:15:58Z</time></trkpt><trkpt lat="45.22863949845071" lon="9.298179833528692"><ele>76.0</ele><time>2026-04-19T09:15:59Z</time></trkpt><trkpt lat="45.22857105540945" lon="9.298055039243414"><ele>76.0</ele><time>2026-04-19T09:16:00Z</time></trkpt><trkpt lat="45.22849899596447" lon="9.297921575303713"><ele>76.0</ele><time>2026-04-19T09:16:01Z</time></trkpt><trkpt lat="45.22843062590551" lon="9.297794802054904"><ele>76.0</ele><time>2026-04-19T09:16:02Z</time></trkpt><trkpt lat="45.22835136899998" lon="9.297675361622229"><ele>76.0</ele><time>2026-04-19T09:16:03Z</time></trkpt><trkpt lat="45.22828758205981" lon="9.29756125493701"><ele>76.0</ele><time>2026-04-19T09:16:04Z</time></trkpt><trkpt lat="45.228241887420026" lon="9.297447898121076"><ele>76.0</ele><time>2026-04-19T09:16:05Z</time></trkpt><trkpt lat="45.22817524161369" lon="9.297355327845075"><ele>75.85714285714285</ele><time>2026-04-19T09:16:06Z</time></trkpt><trkpt lat="45.22813431318357" lon="9.297257815566105"><ele>75.71428571428572</ele><time>2026-04-19T09:16:07Z</time></trkpt><trkpt lat="45.228102144300976" lon="9.297146390794781"><ele>75.57142857142857</ele><time>2026-04-19T09:16:08Z</time></trkpt><trkpt lat="45.22804771782402" lon="9.297064797449497"><ele>75.42857142857142</ele><time>2026-04-19T09:16:09Z</time></trkpt><trkpt lat="45.22801296965174" lon="9.296983886402193"><ele>75.28571428571428</ele><time>2026-04-19T09:16:10Z</time></trkpt><trkpt lat="45.227949728440564" lon="9.296944175997234"><ele>75.14285714285714</ele><time>2026-04-19T09:16:11Z</time></trkpt><trkpt lat="45.2278807971063" lon="9.296938142335941"><ele>75.0</ele><time>2026-04-19T09:16:12Z</time></trkpt><trkpt lat="45.22780631644572" lon="9.297004044345826"><ele>75.0</ele><time>2026-04-19T09:16:13Z</time></trkpt><trkpt lat="45.227720952425166" lon="9.29706413103513"><ele>75.0</ele><time>2026-04-19T09:16:14Z</time></trkpt><trkpt lat="45.22760443107386" lon="9.297153746744915"><ele>75.0</ele><time>2026-04-19T09:16:15Z</time></trkpt><trkpt lat="45.22747799053768" lon="9.297250476661159"><ele>75.0</ele><time>2026-04-19T09:16:16Z</time></trkpt><trkpt lat="45.22733879764561" lon="9.297358362000839"><ele>74.66666666666667</ele><time>2026-04-19T09:16:17Z</time></trkpt><trkpt lat="45.22719149509083" lon="9.297473267770693"><ele>74.33333333333334</ele><time>2026-04-19T09:16:18Z</time></trkpt><trkpt lat="45.227037034816505" lon="9.297599488499415"><ele>74.0</ele><time>2026-04-19T09:16:19Z</time></trkpt><trkpt lat="45.22687429688353" lon="9.297727897578094"><ele>74.0</ele><time>2026-04-19T09:16:20Z</time></trkpt><trkpt lat="45.22670660992337" lon="9.297850948579496"><ele>74.0</ele><time>2026-04-19T09:16:21Z</time></trkpt><trkpt lat="45.2265225081098" lon="9.297986369520103"><ele>74.0</ele><time>2026-04-19T09:16:22Z</time></trkpt><trkpt lat="45.22634677815104" lon="9.298118633980224"><ele>75.0</ele><time>2026-04-19T09:16:23Z</time></trkpt><trkpt lat="45.22615346404094" lon="9.29828387629427"><ele>76.0</ele><time>2026-04-19T09:16:24Z</time></trkpt><trkpt lat="45.22595512316565" lon="9.298446575298613"><ele>76.0</ele><time>2026-04-19T09:16:25Z</time></trkpt><trkpt lat="45.225775138119374" lon="9.29860823999195"><ele>76.0</ele><time>2026-04-19T09:16:26Z</time></trkpt><trkpt lat="45.225611137342575" lon="9.298759135997884"><ele>76.0</ele><time>2026-04-19T09:16:27Z</time></trkpt><trkpt lat="45.22546326495099" lon="9.298885309362742"><ele>76.0</ele><time>2026-04-19T09:16:28Z</time></trkpt><trkpt lat="45.22531920279975" lon="9.29900549107149"><ele>76.0</ele><time>2026-04-19T09:16:29Z</time></trkpt><trkpt lat="45.225197035845746" lon="9.299110408230208"><ele>76.0</ele><time>2026-04-19T09:16:30Z</time></trkpt><trkpt lat="45.22508110524253" lon="9.299211018872125"><ele>76.0</ele><time>2026-04-19T09:16:31Z</time></trkpt><trkpt lat="45.22496928271916" lon="9.299308503018699"><ele>76.0</ele><time>2026-04-19T09:16:32Z</time></trkpt><trkpt lat="45.22486416156614" lon="9.299398265404038"><ele>76.0</ele><time>2026-04-19T09:16:33Z</time></trkpt><trkpt lat="45.22477164408613" lon="9.299481430004207"><ele>76.0</ele><time>2026-04-19T09:16:34Z</time></trkpt><trkpt lat="45.224694531004836" lon="9.299553103855196"><ele>76.0</ele><time>2026-04-19T09:16:35Z</time></trkpt><trkpt lat="45.22462463097763" lon="9.29961855462386"><ele>76.0</ele><time>2026-04-19T09:16:36Z</time></trkpt><trkpt lat="45.22455399186681" lon="9.299671941938294"><ele>75.83333333333333</ele><time>2026-04-19T09:16:37Z</time></trkpt><trkpt lat="45.224478435266136" lon="9.299698650244517"><ele>75.66666666666666</ele><time>2026-04-19T09:16:38Z</time></trkpt><trkpt lat="45.22440417005713" lon="9.299682646867529"><ele>75.5</ele><time>2026-04-19T09:16:39Z</time></trkpt><trkpt lat="45.22434595733726" lon="9.299581235295435"><ele>75.33333333333333</ele><time>2026-04-19T09:16:40Z</time></trkpt><trkpt lat="45.224263732325774" lon="9.299509618464938"><ele>75.16666666666667</ele><time>2026-04-19T09:16:41Z</time></trkpt><trkpt lat="45.22418585760791" lon="9.29947676274906"><ele>75.0</ele><time>2026-04-19T09:16:42Z</time></trkpt><trkpt lat="45.22409511213105" lon="9.299486009858414"><ele>75.0</ele><time>2026-04-19T09:16:43Z</time></trkpt><trkpt lat="45.22400466724905" lon="9.299561699436516"><ele>75.0</ele><time>2026-04-19T09:16:44Z</time></trkpt><trkpt lat="45.22390170431605" lon="9.29965046816624"><ele>75.0</ele><time>2026-04-19T09:16:45Z</time></trkpt><trkpt lat="45.223777178966316" lon="9.299754467407984"><ele>75.0</ele><time>2026-04-19T09:16:46Z</time></trkpt><trkpt lat="45.22364342386962" lon="9.299865203375008"><ele>74.33333333333333</ele><time>2026-04-19T09:16:47Z</time></trkpt><trkpt lat="45.223507059918845" lon="9.299977945521567"><ele>73.66666666666666</ele><time>2026-04-19T09:16:48Z</time></trkpt><trkpt lat="45.22336169116228" lon="9.300086643531719"><ele>73.0</ele><time>2026-04-19T09:16:49Z</time></trkpt><trkpt lat="45.22321562960007" lon="9.300192882628663"><ele>73.33333333333333</ele><time>2026-04-19T09:16:50Z</time></trkpt><trkpt lat="45.223064101423226" lon="9.300304518480154"><ele>73.66666666666667</ele><time>2026-04-19T09:16:51Z</time></trkpt><trkpt lat="45.22291820357726" lon="9.300408135922813"><ele>74.0</ele><time>2026-04-19T09:16:52Z</time></trkpt><trkpt lat="45.22275589121238" lon="9.300527236042607"><ele>74.33333333333334</ele><time>2026-04-19T09:16:53Z</time></trkpt><trkpt lat="45.22259828968897" lon="9.300631016455128"><ele>74.66666666666667</ele><time>2026-04-19T09:16:54Z</time></trkpt><trkpt lat="45.22244101690178" lon="9.300710519741735"><ele>75.0</ele><time>2026-04-19T09:16:55Z</time></trkpt><trkpt lat="45.22227741808895" lon="9.300761406660826"><ele>75.0</ele><time>2026-04-19T09:16:56Z</time></trkpt><trkpt lat="45.22211346547129" lon="9.300803931762026"><ele>75.0</ele><time>2026-04-19T09:16:57Z</time></trkpt><trkpt lat="45.2219527237329" lon="9.30084807504348"><ele>75.0</ele><time>2026-04-19T09:16:58Z</time></trkpt><trkpt lat="45.2217937994567" lon="9.300913399060095"><ele>75.0</ele><time>2026-04-19T09:16:59Z</time></trkpt><trkpt lat="45.2216325491522" lon="9.301015134721652"><ele>75.0</ele><time>2026-04-19T09:17:00Z</time></trkpt><trkpt lat="45.221454725143055" lon="9.30114186962695"><ele>75.0</ele><time>2026-04-19T09:17:01Z</time></trkpt><trkpt lat="45.22126823425535" lon="9.30128524774164"><ele>74.66666666666667</ele><time>2026-04-19T09:17:02Z</time></trkpt><trkpt lat="45.22108341057304" lon="9.301438687976207"><ele>74.33333333333334</ele><time>2026-04-19T09:17:03Z</time></trkpt><trkpt lat="45.220897864698024" lon="9.301597514149423"><ele>74.0</ele><time>2026-04-19T09:17:04Z</time></trkpt><trkpt lat="45.22074502178166" lon="9.301723932909585"><ele>73.66666666666667</ele><time>2026-04-19T09:17:05Z</time></trkpt><trkpt lat="45.22060640069823" lon="9.301846519018065"><ele>73.33333333333333</ele><time>2026-04-19T09:17:06Z</time></trkpt><trkpt lat="45.220474618422024" lon="9.301963122006283"><ele>73.0</ele><time>2026-04-19T09:17:07Z</time></trkpt><trkpt lat="45.220343714142054" lon="9.302071218572832"><ele>73.0</ele><time>2026-04-19T09:17:08Z</time></trkpt><trkpt lat="45.22021607028964" lon="9.302163448620487"><ele>73.0</ele><time>2026-04-19T09:17:09Z</time></trkpt><trkpt lat="45.22010070852446" lon="9.302244615525868"><ele>73.0</ele><time>2026-04-19T09:17:10Z</time></trkpt><trkpt lat="45.219994482085845" lon="9.302318423009584"><ele>73.0</ele><time>2026-04-19T09:17:11Z</time></trkpt><trkpt lat="45.219901130961794" lon="9.302387361257882"><ele>73.2</ele><time>2026-04-19T09:17:12Z</time></trkpt><trkpt lat="45.2198199279926" lon="9.302454748294828"><ele>73.4</ele><time>2026-04-19T09:17:13Z</time></trkpt><trkpt lat="45.21975323304551" lon="9.302499591895664"><ele>73.60000000000001</ele><time>2026-04-19T09:17:14Z</time></trkpt><trkpt lat="45.21968975256262" lon="9.302543577103833"><ele>73.8</ele><time>2026-04-19T09:17:15Z</time></trkpt><trkpt lat="45.21958702650511" lon="9.302574925318574"><ele>74.0</ele><time>2026-04-19T09:17:17Z</time></trkpt><trkpt lat="45.21953745223152" lon="9.302374942785427"><ele>74.0</ele><time>2026-04-19T09:17:19Z</time></trkpt><trkpt lat="45.21948700778155" lon="9.302269635374499"><ele>74.0</ele><time>2026-04-19T09:17:20Z</time></trkpt><trkpt lat="45.21942038793126" lon="9.302142653747772"><ele>74.0</ele><time>2026-04-19T09:17:21Z</time></trkpt><trkpt lat="45.219339833661174" lon="9.302007564756362"><ele>74.0</ele><time>2026-04-19T09:17:22Z</time></trkpt><trkpt lat="45.219269116238834" lon="9.301849765602766"><ele>74.0</ele><time>2026-04-19T09:17:23Z</time></trkpt><trkpt lat="45.219174950024886" lon="9.301690915747175"><ele>74.0</ele><time>2026-04-19T09:17:24Z</time></trkpt><trkpt lat="45.21905242788911" lon="9.30155589118704"><ele>74.0</ele><time>2026-04-19T09:17:25Z</time></trkpt><trkpt lat="45.21894263060132" lon="9.301412492884513"><ele>74.25</ele><time>2026-04-19T09:17:26Z</time></trkpt><trkpt lat="45.218835885915894" lon="9.301289804506117"><ele>74.5</ele><time>2026-04-19T09:17:27Z</time></trkpt><trkpt lat="45.21874544846996" lon="9.301164258833419"><ele>74.75</ele><time>2026-04-19T09:17:28Z</time></trkpt><trkpt lat="45.21865451102058" lon="9.301061368056683"><ele>75.0</ele><time>2026-04-19T09:17:29Z</time></trkpt><trkpt lat="45.21855961178805" lon="9.300971421353873"><ele>75.0</ele><time>2026-04-19T09:17:30Z</time></trkpt><trkpt lat="45.21845752024233" lon="9.300912739058791"><ele>75.0</ele><time>2026-04-19T09:17:31Z</time></trkpt><trkpt lat="45.21836026188504" lon="9.300891651790359"><ele>75.0</ele><time>2026-04-19T09:17:32Z</time></trkpt><trkpt lat="45.218283727236106" lon="9.300822149292598"><ele>75.0</ele><time>2026-04-19T09:17:33Z</time></trkpt><trkpt lat="45.21821496465062" lon="9.300774245693635"><ele>75.0</ele><time>2026-04-19T09:17:34Z</time></trkpt><trkpt lat="45.21814812749415" lon="9.300693919840414"><ele>75.2</ele><time>2026-04-19T09:17:35Z</time></trkpt><trkpt lat="45.21810971452257" lon="9.30058439439399"><ele>75.4</ele><time>2026-04-19T09:17:36Z</time></trkpt><trkpt lat="45.21806412031301" lon="9.30046849496627"><ele>75.6</ele><time>2026-04-19T09:17:37Z</time></trkpt><trkpt lat="45.21804049179136" lon="9.300339769774597"><ele>75.8</ele><time>2026-04-19T09:17:38Z</time></trkpt><trkpt lat="45.21799880939351" lon="9.300208514611446"><ele>76.0</ele><time>2026-04-19T09:17:39Z</time></trkpt><trkpt lat="45.217961618057195" lon="9.30009400293684"><ele>76.0</ele><time>2026-04-19T09:17:40Z</time></trkpt><trkpt lat="45.21792357204383" lon="9.299983338422226"><ele>76.0</ele><time>2026-04-19T09:17:41Z</time></trkpt><trkpt lat="45.21789098610185" lon="9.299894299018652"><ele>76.0</ele><time>2026-04-19T09:17:42Z</time></trkpt><trkpt lat="45.21784430500939" lon="9.299780908485593"><ele>76.0</ele><time>2026-04-19T09:17:44Z</time></trkpt><trkpt lat="45.21780114227725" lon="9.299703978835826"><ele>76.0</ele><time>2026-04-19T09:17:47Z</time></trkpt><trkpt lat="45.217642209826366" lon="9.299740218346273"><ele>76.0</ele><time>2026-04-19T09:17:52Z</time></trkpt><trkpt lat="45.21754006541138" lon="9.299784228571626"><ele>76.0</ele><time>2026-04-19T09:17:53Z</time></trkpt><trkpt lat="45.21744195813734" lon="9.299839174772162"><ele>76.0</ele><time>2026-04-19T09:17:54Z</time></trkpt><trkpt lat="45.21733926481942" lon="9.29988150592155"><ele>76.0</ele><time>2026-04-19T09:17:55Z</time></trkpt><trkpt lat="45.217230152329286" lon="9.299931422242071"><ele>76.0</ele><time>2026-04-19T09:17:56Z</time></trkpt><trkpt lat="45.217132681312144" lon="9.299973303843187"><ele>76.0</ele><time>2026-04-19T09:17:57Z</time></trkpt><trkpt lat="45.21704915669516" lon="9.300022437942317"><ele>76.0</ele><time>2026-04-19T09:17:58Z</time></trkpt><trkpt lat="45.21695823604762" lon="9.30007439729175"><ele>76.0</ele><time>2026-04-19T09:17:59Z</time></trkpt><trkpt lat="45.216878678652435" lon="9.300133765150923"><ele>76.0</ele><time>2026-04-19T09:18:00Z</time></trkpt><trkpt lat="45.21680710871344" lon="9.3001862835537"><ele>76.0</ele><time>2026-04-19T09:18:01Z</time></trkpt><trkpt lat="45.21671895280608" lon="9.300247689616882"><ele>76.0</ele><time>2026-04-19T09:18:02Z</time></trkpt><trkpt lat="45.21661207338133" lon="9.300307293665863"><ele>76.0</ele><time>2026-04-19T09:18:03Z</time></trkpt><trkpt lat="45.21651124880906" lon="9.300384323887995"><ele>76.0</ele><time>2026-04-19T09:18:04Z</time></trkpt><trkpt lat="45.21640883689176" lon="9.30047248430333"><ele>76.0</ele><time>2026-04-19T09:18:05Z</time></trkpt><trkpt lat="45.21630830531663" lon="9.30055713936301"><ele>75.6</ele><time>2026-04-19T09:18:06Z</time></trkpt><trkpt lat="45.216237581096856" lon="9.300604347583793"><ele>75.19999999999999</ele><time>2026-04-19T09:18:07Z</time></trkpt><trkpt lat="45.21611405539916" lon="9.300622790770651"><ele>74.80000000000001</ele><time>2026-04-19T09:18:08Z</time></trkpt><trkpt lat="45.215998096337074" lon="9.300673958249515"><ele>74.4</ele><time>2026-04-19T09:18:09Z</time></trkpt><trkpt lat="45.215887716504206" lon="9.30069647114296"><ele>74.0</ele><time>2026-04-19T09:18:10Z</time></trkpt><trkpt lat="45.215779846733" lon="9.300755994841213"><ele>74.0</ele><time>2026-04-19T09:18:11Z</time></trkpt><trkpt lat="45.21567821531671" lon="9.300872121606027"><ele>74.0</ele><time>2026-04-19T09:18:12Z</time></trkpt><trkpt lat="45.21558438439254" lon="9.301010982248942"><ele>74.0</ele><time>2026-04-19T09:18:13Z</time></trkpt><trkpt lat="45.21548789634909" lon="9.301160291598663"><ele>74.0</ele><time>2026-04-19T09:18:14Z</time></trkpt><trkpt lat="45.21538909245415" lon="9.30130148724938"><ele>73.75</ele><time>2026-04-19T09:18:15Z</time></trkpt><trkpt lat="45.21528651094696" lon="9.301435114724182"><ele>73.5</ele><time>2026-04-19T09:18:16Z</time></trkpt><trkpt lat="45.21519136193507" lon="9.30156507961186"><ele>73.25</ele><time>2026-04-19T09:18:17Z</time></trkpt><trkpt lat="45.215091566533125" lon="9.301689272562188"><ele>73.0</ele><time>2026-04-19T09:18:18Z</time></trkpt><trkpt lat="45.214989940998784" lon="9.301820317157143"><ele>73.0</ele><time>2026-04-19T09:18:19Z</time></trkpt><trkpt lat="45.21489024339188" lon="9.301954317551932"><ele>73.0</ele><time>2026-04-19T09:18:20Z</time></trkpt><trkpt lat="45.21478685278761" lon="9.30209165369273"><ele>73.0</ele><time>2026-04-19T09:18:21Z</time></trkpt><trkpt lat="45.21467765963503" lon="9.302223176947264"><ele>73.0</ele><time>2026-04-19T09:18:22Z</time></trkpt><trkpt lat="45.21457055434446" lon="9.302354332143707"><ele>73.0</ele><time>2026-04-19T09:18:23Z</time></trkpt><trkpt lat="45.21446599642075" lon="9.302497999000288"><ele>73.0</ele><time>2026-04-19T09:18:24Z</time></trkpt><trkpt lat="45.21435305863457" lon="9.302638881294712"><ele>73.0</ele><time>2026-04-19T09:18:25Z</time></trkpt><trkpt lat="45.214247663543304" lon="9.302802591230995"><ele>73.0</ele><time>2026-04-19T09:18:26Z</time></trkpt><trkpt lat="45.21414641618132" lon="9.30296765347281"><ele>73.0</ele><time>2026-04-19T09:18:27Z</time></trkpt><trkpt lat="45.21404615119284" lon="9.303130984795054"><ele>73.0</ele><time>2026-04-19T09:18:28Z</time></trkpt><trkpt lat="45.2139468049149" lon="9.303284356616908"><ele>73.0</ele><time>2026-04-19T09:18:29Z</time></trkpt><trkpt lat="45.21384653330526" lon="9.303436664082957"><ele>73.0</ele><time>2026-04-19T09:18:30Z</time></trkpt><trkpt lat="45.2137365171831" lon="9.303591351900826"><ele>73.0</ele><time>2026-04-19T09:18:31Z</time></trkpt><trkpt lat="45.213627473364504" lon="9.303743161960641"><ele>73.0</ele><time>2026-04-19T09:18:32Z</time></trkpt><trkpt lat="45.213514458229355" lon="9.303892405259269"><ele>73.0</ele><time>2026-04-19T09:18:33Z</time></trkpt><trkpt lat="45.21339980803118" lon="9.304046074395993"><ele>73.0</ele><time>2026-04-19T09:18:34Z</time></trkpt><trkpt lat="45.21328350838553" lon="9.30419025544459"><ele>73.66666666666666</ele><time>2026-04-19T09:18:35Z</time></trkpt><trkpt lat="45.213170205069495" lon="9.304339218104635"><ele>74.33333333333333</ele><time>2026-04-19T09:18:36Z</time></trkpt><trkpt lat="45.21305684340856" lon="9.304494267508133"><ele>75.0</ele><time>2026-04-19T09:18:37Z</time></trkpt><trkpt lat="45.212949929318" lon="9.3046630474094"><ele>75.0</ele><time>2026-04-19T09:18:38Z</time></trkpt><trkpt lat="45.21284210898597" lon="9.30484129241193"><ele>75.0</ele><time>2026-04-19T09:18:39Z</time></trkpt><trkpt lat="45.212733802944165" lon="9.305025376154683"><ele>75.0</ele><time>2026-04-19T09:18:40Z</time></trkpt><trkpt lat="45.21262708316141" lon="9.305208405102038"><ele>75.0</ele><time>2026-04-19T09:18:41Z</time></trkpt><trkpt lat="45.2125299856643" lon="9.305385102493982"><ele>75.0</ele><time>2026-04-19T09:18:42Z</time></trkpt><trkpt lat="45.21244018941311" lon="9.305547480753225"><ele>75.0</ele><time>2026-04-19T09:18:43Z</time></trkpt><trkpt lat="45.21235676399874" lon="9.305698539693374"><ele>75.0</ele><time>2026-04-19T09:18:44Z</time></trkpt><trkpt lat="45.21226802561512" lon="9.305855674251147"><ele>75.0</ele><time>2026-04-19T09:18:45Z</time></trkpt><trkpt lat="45.21217713547928" lon="9.306011909561294"><ele>75.0</ele><time>2026-04-19T09:18:46Z</time></trkpt><trkpt lat="45.21208690007633" lon="9.306158365530324"><ele>75.0</ele><time>2026-04-19T09:18:47Z</time></trkpt><trkpt lat="45.212002005764596" lon="9.306298178419997"><ele>75.0</ele><time>2026-04-19T09:18:48Z</time></trkpt><trkpt lat="45.21192545655094" lon="9.306431172897508"><ele>75.0</ele><time>2026-04-19T09:18:49Z</time></trkpt><trkpt lat="45.21184819550268" lon="9.306564554980845"><ele>75.0</ele><time>2026-04-19T09:18:50Z</time></trkpt><trkpt lat="45.21178582034398" lon="9.306688304399819"><ele>75.0</ele><time>2026-04-19T09:18:51Z</time></trkpt><trkpt lat="45.211717140953695" lon="9.30682140722805"><ele>75.0</ele><time>2026-04-19T09:18:52Z</time></trkpt><trkpt lat="45.21164111649505" lon="9.30693109855083"><ele>75.0</ele><time>2026-04-19T09:18:53Z</time></trkpt><trkpt lat="45.21155382069996" lon="9.307034486279683"><ele>75.0</ele><time>2026-04-19T09:18:54Z</time></trkpt><trkpt lat="45.21146201808936" lon="9.307129564677053"><ele>75.0</ele><time>2026-04-19T09:18:55Z</time></trkpt><trkpt lat="45.21136807260282" lon="9.307205252771624"><ele>75.0</ele><time>2026-04-19T09:18:56Z</time></trkpt><trkpt lat="45.21126739245248" lon="9.307254054510002"><ele>75.0</ele><time>2026-04-19T09:18:57Z</time></trkpt><trkpt lat="45.2111634066144" lon="9.307313821018829"><ele>74.8</ele><time>2026-04-19T09:18:58Z</time></trkpt><trkpt lat="45.21106784906692" lon="9.307376377638029"><ele>74.6</ele><time>2026-04-19T09:18:59Z</time></trkpt><trkpt lat="45.2109628036477" lon="9.307420735481186"><ele>74.4</ele><time>2026-04-19T09:19:00Z</time></trkpt><trkpt lat="45.21086224711453" lon="9.307458685653463"><ele>74.2</ele><time>2026-04-19T09:19:01Z</time></trkpt><trkpt lat="45.210749088460005" lon="9.30747946630465"><ele>74.0</ele><time>2026-04-19T09:19:02Z</time></trkpt><trkpt lat="45.21063428324368" lon="9.30745761298788"><ele>73.8</ele><time>2026-04-19T09:19:03Z</time></trkpt><trkpt lat="45.21051271150531" lon="9.307466279176362"><ele>73.60000000000001</ele><time>2026-04-19T09:19:04Z</time></trkpt><trkpt lat="45.21039723158538" lon="9.307454450223219"><ele>73.4</ele><time>2026-04-19T09:19:05Z</time></trkpt><trkpt lat="45.21029205882239" lon="9.307437030947142"><ele>73.2</ele><time>2026-04-19T09:19:06Z</time></trkpt><trkpt lat="45.21019811993825" lon="9.30742677352462"><ele>73.0</ele><time>2026-04-19T09:19:07Z</time></trkpt><trkpt lat="45.21009674995272" lon="9.307417019476965"><ele>73.0</ele><time>2026-04-19T09:19:08Z</time></trkpt><trkpt lat="45.20999713813977" lon="9.307403242619511"><ele>73.0</ele><time>2026-04-19T09:19:09Z</time></trkpt><trkpt lat="45.20990815635291" lon="9.307387051279244"><ele>73.0</ele><time>2026-04-19T09:19:10Z</time></trkpt><trkpt lat="45.209830196176895" lon="9.307372627955912"><ele>73.0</ele><time>2026-04-19T09:19:11Z</time></trkpt><trkpt lat="45.20973639167511" lon="9.30736297024082"><ele>73.0</ele><time>2026-04-19T09:19:13Z</time></trkpt><trkpt lat="45.20966846305931" lon="9.307345297987926"><ele>73.0</ele><time>2026-04-19T09:19:17Z</time></trkpt><trkpt lat="45.20960051474692" lon="9.307307029363677"><ele>72.83333333333333</ele><time>2026-04-19T09:19:19Z</time></trkpt><trkpt lat="45.20954696984634" lon="9.307450501951436"><ele>72.66666666666666</ele><time>2026-04-19T09:19:20Z</time></trkpt><trkpt lat="45.20951048596532" lon="9.307536751423326"><ele>72.5</ele><time>2026-04-19T09:19:21Z</time></trkpt><trkpt lat="45.20947931645189" lon="9.307637757662002"><ele>72.33333333333333</ele><time>2026-04-19T09:19:22Z</time></trkpt><trkpt lat="45.20942686117952" lon="9.307727002785795"><ele>72.16666666666667</ele><time>2026-04-19T09:19:23Z</time></trkpt><trkpt lat="45.209379566188005" lon="9.307808665696147"><ele>72.0</ele><time>2026-04-19T09:19:24Z</time></trkpt><trkpt lat="45.20932177768901" lon="9.30788080866715"><ele>72.0</ele><time>2026-04-19T09:19:25Z</time></trkpt><trkpt lat="45.209260516647" lon="9.30796275982881"><ele>72.0</ele><time>2026-04-19T09:19:26Z</time></trkpt><trkpt lat="45.20918324736198" lon="9.3080302445818"><ele>72.0</ele><time>2026-04-19T09:19:27Z</time></trkpt><trkpt lat="45.20911346288694" lon="9.308093677370639"><ele>72.0</ele><time>2026-04-19T09:19:28Z</time></trkpt><trkpt lat="45.20902443548844" lon="9.308117104798908"><ele>72.0</ele><time>2026-04-19T09:19:29Z</time></trkpt><trkpt lat="45.2089537464178" lon="9.308136319476313"><ele>72.0</ele><time>2026-04-19T09:19:30Z</time></trkpt><trkpt lat="45.20888988714758" lon="9.308153908874669"><ele>72.16666666666667</ele><time>2026-04-19T09:19:31Z</time></trkpt><trkpt lat="45.208783354839724" lon="9.308147665844986"><ele>72.33333333333333</ele><time>2026-04-19T09:19:33Z</time></trkpt><trkpt lat="45.20871938544011" lon="9.30815303497391"><ele>72.5</ele><time>2026-04-19T09:19:34Z</time></trkpt><trkpt lat="45.20865173620111" lon="9.308161858560506"><ele>72.66666666666666</ele><time>2026-04-19T09:19:35Z</time></trkpt><trkpt lat="45.208597404958994" lon="9.308280321351093"><ele>72.83333333333333</ele><time>2026-04-19T09:19:36Z</time></trkpt><trkpt lat="45.208555128578716" lon="9.308356812108357"><ele>73.0</ele><time>2026-04-19T09:19:37Z</time></trkpt><trkpt lat="45.20848000903965" lon="9.308459281644783"><ele>73.0</ele><time>2026-04-19T09:19:39Z</time></trkpt><trkpt lat="45.20836353506492" lon="9.308565596550283"><ele>73.0</ele><time>2026-04-19T09:19:41Z</time></trkpt><trkpt lat="45.208317463532005" lon="9.308646015786847"><ele>73.0</ele><time>2026-04-19T09:19:42Z</time></trkpt><trkpt lat="45.208268914505" lon="9.308726256900867"><ele>73.0</ele><time>2026-04-19T09:19:43Z</time></trkpt><trkpt lat="45.20817962651296" lon="9.308852670347626"><ele>73.0</ele><time>2026-04-19T09:19:45Z</time></trkpt><trkpt lat="45.20811097462878" lon="9.30898387654301"><ele>73.2</ele><time>2026-04-19T09:19:47Z</time></trkpt><trkpt lat="45.20799061887121" lon="9.30896566295764"><ele>73.4</ele><time>2026-04-19T09:19:49Z</time></trkpt><trkpt lat="45.20790609787167" lon="9.308984674227377"><ele>73.60000000000001</ele><time>2026-04-19T09:19:50Z</time></trkpt><trkpt lat="45.20781443972167" lon="9.308991935822068"><ele>73.8</ele><time>2026-04-19T09:19:51Z</time></trkpt><trkpt lat="45.20773441660704" lon="9.308996049714873"><ele>74.0</ele><time>2026-04-19T09:19:52Z</time></trkpt><trkpt lat="45.207652578954956" lon="9.308980563821105"><ele>74.0</ele><time>2026-04-19T09:19:53Z</time></trkpt><trkpt lat="45.207537644165654" lon="9.308972682459782"><ele>74.0</ele><time>2026-04-19T09:19:55Z</time></trkpt><trkpt lat="45.20747551680942" lon="9.308936950496204"><ele>74.0</ele><time>2026-04-19T09:19:57Z</time></trkpt><trkpt lat="45.207427046453255" lon="9.308845784804205"><ele>74.0</ele><time>2026-04-19T09:20:00Z</time></trkpt><trkpt lat="45.20750419671817" lon="9.308713453713404"><ele>74.0</ele><time>2026-04-19T09:20:02Z</time></trkpt><trkpt lat="45.20754103815131" lon="9.308625069277634"><ele>73.83333333333334</ele><time>2026-04-19T09:20:03Z</time></trkpt><trkpt lat="45.20757126282907" lon="9.30853973650764"><ele>73.66666666666667</ele><time>2026-04-19T09:20:04Z</time></trkpt><trkpt lat="45.20762256193658" lon="9.308406354771313"><ele>73.5</ele><time>2026-04-19T09:20:06Z</time></trkpt><trkpt lat="45.20765338471918" lon="9.308327478006825"><ele>73.33333333333333</ele><time>2026-04-19T09:20:08Z</time></trkpt><trkpt lat="45.207685067501274" lon="9.308244341598954"><ele>73.16666666666666</ele><time>2026-04-19T09:20:12Z</time></trkpt><trkpt lat="45.20758906906328" lon="9.308167515482968"><ele>73.0</ele><time>2026-04-19T09:20:13Z</time></trkpt><trkpt lat="45.20751623083145" lon="9.30812164431407"><ele>73.0</ele><time>2026-04-19T09:20:14Z</time></trkpt><trkpt lat="45.20743070533381" lon="9.308084052906706"><ele>73.0</ele><time>2026-04-19T09:20:15Z</time></trkpt><trkpt lat="45.207337910308304" lon="9.308031664432438"><ele>73.0</ele><time>2026-04-19T09:20:16Z</time></trkpt><trkpt lat="45.20725191392118" lon="9.307969325665905"><ele>73.0</ele><time>2026-04-19T09:20:17Z</time></trkpt><trkpt lat="45.207159485609886" lon="9.307903811836717"><ele>73.0</ele><time>2026-04-19T09:20:18Z</time></trkpt><trkpt lat="45.207072747054966" lon="9.307805502038006"><ele>71.75</ele><time>2026-04-19T09:20:19Z</time></trkpt><trkpt lat="45.206984697616306" lon="9.307704600897106"><ele>70.5</ele><time>2026-04-19T09:20:20Z</time></trkpt><trkpt lat="45.206899446707" lon="9.30758484599105"><ele>69.25</ele><time>2026-04-19T09:20:21Z</time></trkpt><trkpt lat="45.20680975931946" lon="9.307489181513578"><ele>68.0</ele><time>2026-04-19T09:20:22Z</time></trkpt><trkpt lat="45.206734023319314" lon="9.307362402038402"><ele>67.8</ele><time>2026-04-19T09:20:23Z</time></trkpt><trkpt lat="45.206671641716234" lon="9.307231786988833"><ele>67.6</ele><time>2026-04-19T09:20:24Z</time></trkpt><trkpt lat="45.206611665750124" lon="9.307100044419393"><ele>67.4</ele><time>2026-04-19T09:20:25Z</time></trkpt><trkpt lat="45.206555239499146" lon="9.306979683038962"><ele>67.2</ele><time>2026-04-19T09:20:26Z</time></trkpt><trkpt lat="45.20647911918155" lon="9.306896674023733"><ele>67.0</ele><time>2026-04-19T09:20:27Z</time></trkpt><trkpt lat="45.20639238185084" lon="9.306835287684097"><ele>66.8</ele><time>2026-04-19T09:20:28Z</time></trkpt><trkpt lat="45.20629183633017" lon="9.306822407228758"><ele>66.6</ele><time>2026-04-19T09:20:29Z</time></trkpt><trkpt lat="45.206192847250044" lon="9.30684182011664"><ele>66.39999999999999</ele><time>2026-04-19T09:20:30Z</time></trkpt><trkpt lat="45.206106718149506" lon="9.306861022649448"><ele>66.2</ele><time>2026-04-19T09:20:31Z</time></trkpt><trkpt lat="45.206023077247266" lon="9.306865183616955"><ele>66.0</ele><time>2026-04-19T09:20:32Z</time></trkpt><trkpt lat="45.2059414706147" lon="9.306851921462789"><ele>66.0</ele><time>2026-04-19T09:20:33Z</time></trkpt><trkpt lat="45.20587014903731" lon="9.306795892289243"><ele>66.0</ele><time>2026-04-19T09:20:34Z</time></trkpt><trkpt lat="45.205776187383954" lon="9.306749068795082"><ele>66.0</ele><time>2026-04-19T09:20:35Z</time></trkpt><trkpt lat="45.20569604248151" lon="9.306679979642421"><ele>66.0</ele><time>2026-04-19T09:20:36Z</time></trkpt><trkpt lat="45.20559621445514" lon="9.306606926576253"><ele>66.0</ele><time>2026-04-19T09:20:37Z</time></trkpt><trkpt lat="45.205512487394884" lon="9.306523942997412"><ele>66.0</ele><time>2026-04-19T09:20:38Z</time></trkpt><trkpt lat="45.205411361265234" lon="9.306476608431808"><ele>66.0</ele><time>2026-04-19T09:20:39Z</time></trkpt><trkpt lat="45.20534145798047" lon="9.306411259921221"><ele>66.0</ele><time>2026-04-19T09:20:40Z</time></trkpt><trkpt lat="45.20526640544097" lon="9.306357688420107"><ele>66.0</ele><time>2026-04-19T09:20:41Z</time></trkpt><trkpt lat="45.20520785303625" lon="9.306271844810244"><ele>66.0</ele><time>2026-04-19T09:20:42Z</time></trkpt><trkpt lat="45.20514364403041" lon="9.306221251617048"><ele>66.0</ele><time>2026-04-19T09:20:43Z</time></trkpt><trkpt lat="45.205075109974224" lon="9.306190919749826"><ele>66.0</ele><time>2026-04-19T09:20:44Z</time></trkpt><trkpt lat="45.20499558362845" lon="9.306206068705245"><ele>66.0</ele><time>2026-04-19T09:20:45Z</time></trkpt><trkpt lat="45.20493309188018" lon="9.306176920072577"><ele>66.0</ele><time>2026-04-19T09:20:46Z</time></trkpt><trkpt lat="45.20483997001249" lon="9.30604094309489"><ele>66.0</ele><time>2026-04-19T09:20:48Z</time></trkpt><trkpt lat="45.20478192690986" lon="9.30591280490349"><ele>66.0</ele><time>2026-04-19T09:20:49Z</time></trkpt><trkpt lat="45.20470900157916" lon="9.30575435816764"><ele>66.0</ele><time>2026-04-19T09:20:50Z</time></trkpt><trkpt lat="45.204622898599226" lon="9.305579158582844"><ele>66.0</ele><time>2026-04-19T09:20:51Z</time></trkpt><trkpt lat="45.20451796787558" lon="9.305408066467571"><ele>66.0</ele><time>2026-04-19T09:20:52Z</time></trkpt><trkpt lat="45.204424536191524" lon="9.305213439119907"><ele>66.0</ele><time>2026-04-19T09:20:53Z</time></trkpt><trkpt lat="45.20432652816084" lon="9.305006053753319"><ele>66.0</ele><time>2026-04-19T09:20:54Z</time></trkpt><trkpt lat="45.2042310314808" lon="9.3048205555541"><ele>66.0</ele><time>2026-04-19T09:20:55Z</time></trkpt><trkpt lat="45.20413647668039" lon="9.30464004215679"><ele>66.0</ele><time>2026-04-19T09:20:56Z</time></trkpt><trkpt lat="45.20406941168899" lon="9.30446610760632"><ele>66.0</ele><time>2026-04-19T09:20:57Z</time></trkpt><trkpt lat="45.203993140906846" lon="9.3043171788545"><ele>66.0</ele><time>2026-04-19T09:20:58Z</time></trkpt><trkpt lat="45.20391778059803" lon="9.30417354251127"><ele>66.0</ele><time>2026-04-19T09:20:59Z</time></trkpt><trkpt lat="45.20384563599028" lon="9.30403343806284"><ele>66.25</ele><time>2026-04-19T09:21:00Z</time></trkpt><trkpt lat="45.203772462638845" lon="9.30389457842646"><ele>66.5</ele><time>2026-04-19T09:21:01Z</time></trkpt><trkpt lat="45.20367797823495" lon="9.303787850065463"><ele>66.75</ele><time>2026-04-19T09:21:02Z</time></trkpt><trkpt lat="45.20355363012741" lon="9.303733709756282"><ele>67.0</ele><time>2026-04-19T09:21:03Z</time></trkpt><trkpt lat="45.203421525397125" lon="9.303655093228741"><ele>67.0</ele><time>2026-04-19T09:21:04Z</time></trkpt><trkpt lat="45.20329762395919" lon="9.303565458908771"><ele>67.0</ele><time>2026-04-19T09:21:05Z</time></trkpt><trkpt lat="45.20318052782323" lon="9.303506488629933"><ele>67.0</ele><time>2026-04-19T09:21:06Z</time></trkpt><trkpt lat="45.20308368933281" lon="9.303423750106239"><ele>67.0</ele><time>2026-04-19T09:21:07Z</time></trkpt><trkpt lat="45.20299151772292" lon="9.303360971359014"><ele>68.0</ele><time>2026-04-19T09:21:08Z</time></trkpt><trkpt lat="45.20291618753255" lon="9.303309663377698"><ele>69.0</ele><time>2026-04-19T09:21:09Z</time></trkpt><trkpt lat="45.20284874155053" lon="9.303263725322351"><ele>70.0</ele><time>2026-04-19T09:21:10Z</time></trkpt><trkpt lat="45.202752153530696" lon="9.303237408371073"><ele>71.0</ele><time>2026-04-19T09:21:12Z</time></trkpt><trkpt lat="45.202679393422954" lon="9.303280974137907"><ele>72.0</ele><time>2026-04-19T09:21:14Z</time></trkpt><trkpt lat="45.20264545397071" lon="9.30345746730613"><ele>72.0</ele><time>2026-04-19T09:21:16Z</time></trkpt><trkpt lat="45.202643074957805" lon="9.303582253695504"><ele>72.0</ele><time>2026-04-19T09:21:17Z</time></trkpt><trkpt lat="45.202630286270704" lon="9.303736464185034"><ele>72.0</ele><time>2026-04-19T09:21:18Z</time></trkpt><trkpt lat="45.20259698308347" lon="9.303858695539486"><ele>72.0</ele><time>2026-04-19T09:21:19Z</time></trkpt><trkpt lat="45.20257127206337" lon="9.303965835064615"><ele>72.0</ele><time>2026-04-19T09:21:20Z</time></trkpt><trkpt lat="45.2025535827979" lon="9.304098193057895"><ele>71.8</ele><time>2026-04-19T09:21:21Z</time></trkpt><trkpt lat="45.20248999494835" lon="9.304214273499111"><ele>71.6</ele><time>2026-04-19T09:21:22Z</time></trkpt><trkpt lat="45.202455051642154" lon="9.304336678660887"><ele>71.39999999999999</ele><time>2026-04-19T09:21:23Z</time></trkpt><trkpt lat="45.20242190664749" lon="9.304481346721492"><ele>71.2</ele><time>2026-04-19T09:21:24Z</time></trkpt><trkpt lat="45.202392873377455" lon="9.304624408112476"><ele>71.0</ele><time>2026-04-19T09:21:25Z</time></trkpt><trkpt lat="45.2023731494094" lon="9.304785378188305"><ele>71.0</ele><time>2026-04-19T09:21:26Z</time></trkpt><trkpt lat="45.20236050511226" lon="9.304953437871806"><ele>71.0</ele><time>2026-04-19T09:21:27Z</time></trkpt><trkpt lat="45.20234026943452" lon="9.305126874617594"><ele>71.0</ele><time>2026-04-19T09:21:28Z</time></trkpt><trkpt lat="45.202300824989" lon="9.305312326933473"><ele>71.0</ele><time>2026-04-19T09:21:29Z</time></trkpt><trkpt lat="45.20228483868655" lon="9.305481319628603"><ele>71.0</ele><time>2026-04-19T09:21:30Z</time></trkpt><trkpt lat="45.202268566416386" lon="9.30565072010186"><ele>71.0</ele><time>2026-04-19T09:21:31Z</time></trkpt><trkpt lat="45.20224853234119" lon="9.305813541923131"><ele>71.0</ele><time>2026-04-19T09:21:32Z</time></trkpt><trkpt lat="45.20222307625112" lon="9.305982599842292"><ele>71.0</ele><time>2026-04-19T09:21:33Z</time></trkpt><trkpt lat="45.20220535762443" lon="9.306147587837165"><ele>71.0</ele><time>2026-04-19T09:21:34Z</time></trkpt><trkpt lat="45.202187626160175" lon="9.306293741171585"><ele>71.0</ele><time>2026-04-19T09:21:35Z</time></trkpt><trkpt lat="45.202159948255996" lon="9.306426477495592"><ele>71.0</ele><time>2026-04-19T09:21:36Z</time></trkpt><trkpt lat="45.2021445147663" lon="9.306528080444947"><ele>71.0</ele><time>2026-04-19T09:21:37Z</time></trkpt><trkpt lat="45.20210499879986" lon="9.306623277307363"><ele>71.0</ele><time>2026-04-19T09:21:38Z</time></trkpt><trkpt lat="45.2020287463733" lon="9.306748209384503"><ele>71.2</ele><time>2026-04-19T09:21:40Z</time></trkpt><trkpt lat="45.20194634497683" lon="9.306754157366903"><ele>71.39999999999999</ele><time>2026-04-19T09:21:41Z</time></trkpt><trkpt lat="45.20186175939643" lon="9.306789510839197"><ele>71.6</ele><time>2026-04-19T09:21:42Z</time></trkpt><trkpt lat="45.20176147581472" lon="9.306818436951298"><ele>71.8</ele><time>2026-04-19T09:21:43Z</time></trkpt><trkpt lat="45.201640798067785" lon="9.306867219864609"><ele>72.0</ele><time>2026-04-19T09:21:44Z</time></trkpt><trkpt lat="45.20155219473911" lon="9.306927664821789"><ele>71.8</ele><time>2026-04-19T09:21:45Z</time></trkpt><trkpt lat="45.20146416236677" lon="9.306960287593764"><ele>71.6</ele><time>2026-04-19T09:21:46Z</time></trkpt><trkpt lat="45.20137040232378" lon="9.306988829763327"><ele>71.39999999999999</ele><time>2026-04-19T09:21:47Z</time></trkpt><trkpt lat="45.20126388584763" lon="9.306974513552541"><ele>71.2</ele><time>2026-04-19T09:21:48Z</time></trkpt><trkpt lat="45.20113353602553" lon="9.30698616615137"><ele>71.0</ele><time>2026-04-19T09:21:49Z</time></trkpt><trkpt lat="45.20098999366987" lon="9.307025063255482"><ele>71.0</ele><time>2026-04-19T09:21:50Z</time></trkpt><trkpt lat="45.200842412105935" lon="9.307058685848048"><ele>71.0</ele><time>2026-04-19T09:21:51Z</time></trkpt><trkpt lat="45.20069846492072" lon="9.307104526158987"><ele>71.0</ele><time>2026-04-19T09:21:52Z</time></trkpt><trkpt lat="45.200540281217656" lon="9.307170454681792"><ele>71.0</ele><time>2026-04-19T09:21:53Z</time></trkpt><trkpt lat="45.20037793228707" lon="9.307240323408552"><ele>71.0</ele><time>2026-04-19T09:21:54Z</time></trkpt><trkpt lat="45.20022681014937" lon="9.307299207507612"><ele>71.0</ele><time>2026-04-19T09:21:55Z</time></trkpt><trkpt lat="45.20006618209649" lon="9.307366649596622"><ele>71.0</ele><time>2026-04-19T09:21:56Z</time></trkpt><trkpt lat="45.199926762900844" lon="9.307428207497262"><ele>71.0</ele><time>2026-04-19T09:21:57Z</time></trkpt><trkpt lat="45.19979938417001" lon="9.307486428341564"><ele>71.0</ele><time>2026-04-19T09:21:58Z</time></trkpt><trkpt lat="45.19964075301806" lon="9.307535928616451"><ele>71.0</ele><time>2026-04-19T09:21:59Z</time></trkpt><trkpt lat="45.19953400787797" lon="9.30760324032814"><ele>70.66666666666667</ele><time>2026-04-19T09:22:00Z</time></trkpt><trkpt lat="45.199385803096604" lon="9.307651822174103"><ele>70.33333333333333</ele><time>2026-04-19T09:22:01Z</time></trkpt><trkpt lat="45.199220428544805" lon="9.30767275994693"><ele>70.0</ele><time>2026-04-19T09:22:02Z</time></trkpt><trkpt lat="45.19904195361907" lon="9.307732637706474"><ele>69.66666666666666</ele><time>2026-04-19T09:22:03Z</time></trkpt><trkpt lat="45.198864870593624" lon="9.307765108988887"><ele>69.33333333333333</ele><time>2026-04-19T09:22:04Z</time></trkpt><trkpt lat="45.19870986016041" lon="9.30780324131885"><ele>69.0</ele><time>2026-04-19T09:22:05Z</time></trkpt><trkpt lat="45.198576000232016" lon="9.307834295024136"><ele>69.0</ele><time>2026-04-19T09:22:06Z</time></trkpt><trkpt lat="45.19844934482095" lon="9.30786338873958"><ele>69.0</ele><time>2026-04-19T09:22:07Z</time></trkpt><trkpt lat="45.19831276366366" lon="9.307875917529758"><ele>69.0</ele><time>2026-04-19T09:22:08Z</time></trkpt><trkpt lat="45.19818905123317" lon="9.307900017846567"><ele>69.0</ele><time>2026-04-19T09:22:09Z</time></trkpt><trkpt lat="45.19806913588733" lon="9.307923108241486"><ele>69.16666666666667</ele><time>2026-04-19T09:22:10Z</time></trkpt><trkpt lat="45.197967327389215" lon="9.307966472285708"><ele>69.33333333333333</ele><time>2026-04-19T09:22:11Z</time></trkpt><trkpt lat="45.197873350688916" lon="9.307986344626423"><ele>69.5</ele><time>2026-04-19T09:22:12Z</time></trkpt><trkpt lat="45.197782611191265" lon="9.307982922430316"><ele>69.66666666666666</ele><time>2026-04-19T09:22:13Z</time></trkpt><trkpt lat="45.19769741108053" lon="9.308001530442699"><ele>69.83333333333333</ele><time>2026-04-19T09:22:14Z</time></trkpt><trkpt lat="45.19763110530815" lon="9.308016011862401"><ele>70.0</ele><time>2026-04-19T09:22:15Z</time></trkpt><trkpt lat="45.19756840641238" lon="9.30802970554282"><ele>70.0</ele><time>2026-04-19T09:22:16Z</time></trkpt><trkpt lat="45.1974493261257" lon="9.308067093710532"><ele>70.0</ele><time>2026-04-19T09:22:18Z</time></trkpt><trkpt lat="45.197350786175974" lon="9.308087346390348"><ele>70.0</ele><time>2026-04-19T09:22:20Z</time></trkpt><trkpt lat="45.197267567630604" lon="9.308097390224356"><ele>70.0</ele><time>2026-04-19T09:22:23Z</time></trkpt><trkpt lat="45.1973372218178" lon="9.308081842289388"><ele>70.0</ele><time>2026-04-19T09:23:16Z</time></trkpt><trkpt lat="45.19740048107333" lon="9.30806745596165"><ele>70.0</ele><time>2026-04-19T09:23:18Z</time></trkpt><trkpt lat="45.197502432676345" lon="9.308044269742194"><ele>70.0</ele><time>2026-04-19T09:23:21Z</time></trkpt><trkpt lat="45.19762404272972" lon="9.308020167637924"><ele>70.0</ele><time>2026-04-19T09:23:23Z</time></trkpt><trkpt lat="45.19772163021119" lon="9.308023010625325"><ele>70.0</ele><time>2026-04-19T09:23:25Z</time></trkpt><trkpt lat="45.197814914210895" lon="9.307991668337923"><ele>70.0</ele><time>2026-04-19T09:23:27Z</time></trkpt><trkpt lat="45.1979392706597" lon="9.307960730911656"><ele>70.0</ele><time>2026-04-19T09:23:29Z</time></trkpt><trkpt lat="45.19801126779306" lon="9.307948399526728"><ele>70.0</ele><time>2026-04-19T09:23:30Z</time></trkpt><trkpt lat="45.19809129617654" lon="9.307936257038941"><ele>70.0</ele><time>2026-04-19T09:23:31Z</time></trkpt><trkpt lat="45.19817113219402" lon="9.307925600309625"><ele>70.0</ele><time>2026-04-19T09:23:32Z</time></trkpt><trkpt lat="45.198254442399936" lon="9.30791550835214"><ele>70.0</ele><time>2026-04-19T09:23:33Z</time></trkpt><trkpt lat="45.19833799442082" lon="9.307900161764668"><ele>70.0</ele><time>2026-04-19T09:23:34Z</time></trkpt><trkpt lat="45.19842938143579" lon="9.307889526726319"><ele>70.0</ele><time>2026-04-19T09:23:35Z</time></trkpt><trkpt lat="45.198534038079934" lon="9.307867131529028"><ele>70.0</ele><time>2026-04-19T09:23:36Z</time></trkpt><trkpt lat="45.1986381098473" lon="9.307838411022606"><ele>70.0</ele><time>2026-04-19T09:23:37Z</time></trkpt><trkpt lat="45.198744833714905" lon="9.30780782215642"><ele>70.0</ele><time>2026-04-19T09:23:38Z</time></trkpt><trkpt lat="45.1988565708434" lon="9.307783758885332"><ele>70.0</ele><time>2026-04-19T09:23:39Z</time></trkpt><trkpt lat="45.19897164012848" lon="9.307779459704141"><ele>70.0</ele><time>2026-04-19T09:23:40Z</time></trkpt><trkpt lat="45.1990778009228" lon="9.307755276355756"><ele>70.0</ele><time>2026-04-19T09:23:41Z</time></trkpt><trkpt lat="45.19916974630793" lon="9.30773381302192"><ele>70.0</ele><time>2026-04-19T09:23:42Z</time></trkpt><trkpt lat="45.19925021385802" lon="9.307712895296513"><ele>70.0</ele><time>2026-04-19T09:23:43Z</time></trkpt><trkpt lat="45.19932236984945" lon="9.307694138174485"><ele>70.0</ele><time>2026-04-19T09:23:44Z</time></trkpt><trkpt lat="45.19938480448207" lon="9.307677908140956"><ele>70.0</ele><time>2026-04-19T09:23:45Z</time></trkpt><trkpt lat="45.199459643435965" lon="9.30764299065061"><ele>70.0</ele><time>2026-04-19T09:23:47Z</time></trkpt><trkpt lat="45.19955514050801" lon="9.308090752986997"><ele>69.8</ele><time>2026-04-19T09:24:55Z</time></trkpt><trkpt lat="45.19957439271231" lon="9.308205519804151"><ele>69.6</ele><time>2026-04-19T09:24:56Z</time></trkpt><trkpt lat="45.19959705370573" lon="9.308330035421474"><ele>69.4</ele><time>2026-04-19T09:24:57Z</time></trkpt><trkpt lat="45.19963009228838" lon="9.30846186963894"><ele>69.2</ele><time>2026-04-19T09:24:58Z</time></trkpt><trkpt lat="45.19966547196357" lon="9.308599872660693"><ele>69.0</ele><time>2026-04-19T09:24:59Z</time></trkpt><trkpt lat="45.199692754621736" lon="9.308720082695094"><ele>69.0</ele><time>2026-04-19T09:25:00Z</time></trkpt><trkpt lat="45.19971609305828" lon="9.308848275568746"><ele>69.0</ele><time>2026-04-19T09:25:01Z</time></trkpt><trkpt lat="45.199724433074394" lon="9.308988901220342"><ele>69.0</ele><time>2026-04-19T09:25:02Z</time></trkpt><trkpt lat="45.19970928458977" lon="9.309150890288421"><ele>69.0</ele><time>2026-04-19T09:25:03Z</time></trkpt><trkpt lat="45.19968452489258" lon="9.309323735627304"><ele>69.0</ele><time>2026-04-19T09:25:04Z</time></trkpt><trkpt lat="45.19965927457706" lon="9.30949034411721"><ele>69.0</ele><time>2026-04-19T09:25:05Z</time></trkpt><trkpt lat="45.1996338967144" lon="9.309642368751769"><ele>69.0</ele><time>2026-04-19T09:25:06Z</time></trkpt><trkpt lat="45.19960640781213" lon="9.309773311557079"><ele>69.0</ele><time>2026-04-19T09:25:07Z</time></trkpt><trkpt lat="45.19958927006561" lon="9.309884691793572"><ele>69.0</ele><time>2026-04-19T09:25:08Z</time></trkpt><trkpt lat="45.199543965991644" lon="9.30995634433252"><ele>69.0</ele><time>2026-04-19T09:25:09Z</time></trkpt><trkpt lat="45.19947864598929" lon="9.310021325181292"><ele>69.0</ele><time>2026-04-19T09:25:10Z</time></trkpt><trkpt lat="45.19938286712203" lon="9.310119144077508"><ele>69.0</ele><time>2026-04-19T09:25:11Z</time></trkpt><trkpt lat="45.19927017773668" lon="9.310186892496674"><ele>69.0</ele><time>2026-04-19T09:25:12Z</time></trkpt><trkpt lat="45.19915107456661" lon="9.310278510113442"><ele>69.0</ele><time>2026-04-19T09:25:13Z</time></trkpt><trkpt lat="45.19903745102179" lon="9.310373700229695"><ele>69.0</ele><time>2026-04-19T09:25:14Z</time></trkpt><trkpt lat="45.198934815081884" lon="9.310466921860062"><ele>68.8</ele><time>2026-04-19T09:25:15Z</time></trkpt><trkpt lat="45.198838388165775" lon="9.310556184394768"><ele>68.60000000000001</ele><time>2026-04-19T09:25:16Z</time></trkpt><trkpt lat="45.198755587426035" lon="9.310637468027526"><ele>68.4</ele><time>2026-04-19T09:25:17Z</time></trkpt><trkpt lat="45.19867341795849" lon="9.310730978450312"><ele>68.2</ele><time>2026-04-19T09:25:18Z</time></trkpt><trkpt lat="45.19859158317738" lon="9.310856036947339"><ele>68.0</ele><time>2026-04-19T09:25:19Z</time></trkpt><trkpt lat="45.198523043680844" lon="9.310996242800448"><ele>68.0</ele><time>2026-04-19T09:25:20Z</time></trkpt><trkpt lat="45.198452545133705" lon="9.31114451910312"><ele>68.0</ele><time>2026-04-19T09:25:21Z</time></trkpt><trkpt lat="45.19839120990408" lon="9.311264050846756"><ele>68.0</ele><time>2026-04-19T09:25:22Z</time></trkpt><trkpt lat="45.19833330247524" lon="9.311369308826414"><ele>68.0</ele><time>2026-04-19T09:25:23Z</time></trkpt><trkpt lat="45.19827112010981" lon="9.31147857409183"><ele>68.0</ele><time>2026-04-19T09:25:24Z</time></trkpt><trkpt lat="45.19819494016559" lon="9.311579091479803"><ele>68.25</ele><time>2026-04-19T09:25:25Z</time></trkpt><trkpt lat="45.198105687262675" lon="9.31167414827741"><ele>68.5</ele><time>2026-04-19T09:25:26Z</time></trkpt><trkpt lat="45.197996256381394" lon="9.311764959349784"><ele>68.75</ele><time>2026-04-19T09:25:27Z</time></trkpt><trkpt lat="45.19789535344553" lon="9.311859599168514"><ele>69.0</ele><time>2026-04-19T09:25:28Z</time></trkpt><trkpt lat="45.197786936778975" lon="9.311962555951801"><ele>69.0</ele><time>2026-04-19T09:25:29Z</time></trkpt><trkpt lat="45.19768322948005" lon="9.31206080064228"><ele>69.0</ele><time>2026-04-19T09:25:30Z</time></trkpt><trkpt lat="45.19758189884638" lon="9.312157905834757"><ele>69.0</ele><time>2026-04-19T09:25:31Z</time></trkpt><trkpt lat="45.19748573284396" lon="9.312247803375291"><ele>69.0</ele><time>2026-04-19T09:25:32Z</time></trkpt><trkpt lat="45.19739990067636" lon="9.312329551567334"><ele>69.0</ele><time>2026-04-19T09:25:33Z</time></trkpt><trkpt lat="45.19731347795031" lon="9.312401954793566"><ele>69.0</ele><time>2026-04-19T09:25:34Z</time></trkpt><trkpt lat="45.19724826547438" lon="9.312464190503949"><ele>69.0</ele><time>2026-04-19T09:25:35Z</time></trkpt><trkpt lat="45.19718488643349" lon="9.312533881520705"><ele>69.0</ele><time>2026-04-19T09:25:36Z</time></trkpt><trkpt lat="45.197151266064196" lon="9.312621914037194"><ele>69.0</ele><time>2026-04-19T09:25:37Z</time></trkpt><trkpt lat="45.19708622021575" lon="9.312733050447342"><ele>69.0</ele><time>2026-04-19T09:25:39Z</time></trkpt><trkpt lat="45.19698811586946" lon="9.312684772271657"><ele>69.0</ele><time>2026-04-19T09:25:41Z</time></trkpt><trkpt lat="45.19691950091676" lon="9.312765209694737"><ele>69.0</ele><time>2026-04-19T09:25:48Z</time></trkpt><trkpt lat="45.19690020750939" lon="9.312876410515527"><ele>69.0</ele><time>2026-04-19T09:25:49Z</time></trkpt><trkpt lat="45.19687795335913" lon="9.31299439172248"><ele>69.0</ele><time>2026-04-19T09:25:50Z</time></trkpt><trkpt lat="45.1968449739065" lon="9.313136071001521"><ele>69.0</ele><time>2026-04-19T09:25:51Z</time></trkpt><trkpt lat="45.19680344933798" lon="9.313278666078658"><ele>69.25</ele><time>2026-04-19T09:25:52Z</time></trkpt><trkpt lat="45.196760635798675" lon="9.313432173111014"><ele>69.5</ele><time>2026-04-19T09:25:53Z</time></trkpt><trkpt lat="45.196719308951856" lon="9.313591510035206"><ele>69.75</ele><time>2026-04-19T09:25:54Z</time></trkpt><trkpt lat="45.1966818566944" lon="9.31373507591304"><ele>70.0</ele><time>2026-04-19T09:25:55Z</time></trkpt><trkpt lat="45.196641333119196" lon="9.313877652048927"><ele>69.75</ele><time>2026-04-19T09:25:56Z</time></trkpt><trkpt lat="45.19660792041097" lon="9.314029943515074"><ele>69.5</ele><time>2026-04-19T09:25:57Z</time></trkpt><trkpt lat="45.196554165886276" lon="9.314174602807713"><ele>69.25</ele><time>2026-04-19T09:25:58Z</time></trkpt><trkpt lat="45.1965133737859" lon="9.314327413020239"><ele>69.0</ele><time>2026-04-19T09:25:59Z</time></trkpt><trkpt lat="45.19646924537889" lon="9.314486245004815"><ele>69.0</ele><time>2026-04-19T09:26:00Z</time></trkpt><trkpt lat="45.19643136401087" lon="9.31463562233072"><ele>69.0</ele><time>2026-04-19T09:26:01Z</time></trkpt><trkpt lat="45.19639345211807" lon="9.314775028593003"><ele>69.0</ele><time>2026-04-19T09:26:02Z</time></trkpt><trkpt lat="45.196353199533746" lon="9.314933074869158"><ele>69.0</ele><time>2026-04-19T09:26:03Z</time></trkpt><trkpt lat="45.19632088250826" lon="9.315095481239542"><ele>68.25</ele><time>2026-04-19T09:26:04Z</time></trkpt><trkpt lat="45.19629782343742" lon="9.31525061516921"><ele>67.5</ele><time>2026-04-19T09:26:05Z</time></trkpt><trkpt lat="45.196295252177265" lon="9.315423618272048"><ele>66.75</ele><time>2026-04-19T09:26:06Z</time></trkpt><trkpt lat="45.196334354988274" lon="9.315606219757802"><ele>66.0</ele><time>2026-04-19T09:26:07Z</time></trkpt><trkpt lat="45.19639770958718" lon="9.315777153263717"><ele>65.75</ele><time>2026-04-19T09:26:08Z</time></trkpt><trkpt lat="45.196468760610735" lon="9.315922854596092"><ele>65.5</ele><time>2026-04-19T09:26:09Z</time></trkpt><trkpt lat="45.19653738725231" lon="9.31607363582075"><ele>65.25</ele><time>2026-04-19T09:26:10Z</time></trkpt><trkpt lat="45.196586017582526" lon="9.316214100494804"><ele>65.0</ele><time>2026-04-19T09:26:11Z</time></trkpt><trkpt lat="45.19661700431202" lon="9.316349966135773"><ele>65.0</ele><time>2026-04-19T09:26:12Z</time></trkpt><trkpt lat="45.19666493497799" lon="9.316472024658953"><ele>65.0</ele><time>2026-04-19T09:26:13Z</time></trkpt><trkpt lat="45.196633065957975" lon="9.316677679772994"><ele>65.0</ele><time>2026-04-19T09:26:14Z</time></trkpt><trkpt lat="45.19663025003399" lon="9.316844917595917"><ele>65.0</ele><time>2026-04-19T09:26:15Z</time></trkpt><trkpt lat="45.19663672098355" lon="9.317023187335282"><ele>65.0</ele><time>2026-04-19T09:26:16Z</time></trkpt><trkpt lat="45.196642366244454" lon="9.31721416530711"><ele>65.0</ele><time>2026-04-19T09:26:17Z</time></trkpt><trkpt lat="45.19665978474952" lon="9.317418008909728"><ele>65.0</ele><time>2026-04-19T09:26:18Z</time></trkpt><trkpt lat="45.19666918597463" lon="9.317626990089288"><ele>65.0</ele><time>2026-04-19T09:26:19Z</time></trkpt><trkpt lat="45.19667461499533" lon="9.317847137124867"><ele>65.0</ele><time>2026-04-19T09:26:20Z</time></trkpt><trkpt lat="45.196681778574096" lon="9.318065356270806"><ele>65.0</ele><time>2026-04-19T09:26:21Z</time></trkpt><trkpt lat="45.19668690676599" lon="9.318278842620478"><ele>65.0</ele><time>2026-04-19T09:26:22Z</time></trkpt><trkpt lat="45.19669571834958" lon="9.31848300049875"><ele>65.0</ele><time>2026-04-19T09:26:23Z</time></trkpt><trkpt lat="45.19670377335613" lon="9.31868945730647"><ele>65.0</ele><time>2026-04-19T09:26:24Z</time></trkpt><trkpt lat="45.19670912767994" lon="9.31888352457637"><ele>65.0</ele><time>2026-04-19T09:26:25Z</time></trkpt><trkpt lat="45.19671533330677" lon="9.319078664593285"><ele>65.0</ele><time>2026-04-19T09:26:26Z</time></trkpt><trkpt lat="45.1967176047872" lon="9.319273090391748"><ele>65.0</ele><time>2026-04-19T09:26:27Z</time></trkpt><trkpt lat="45.1967240946839" lon="9.319455184946435"><ele>65.0</ele><time>2026-04-19T09:26:28Z</time></trkpt><trkpt lat="45.19673422235476" lon="9.319638404755771"><ele>65.0</ele><time>2026-04-19T09:26:29Z</time></trkpt><trkpt lat="45.19674128006442" lon="9.31981299583836"><ele>65.0</ele><time>2026-04-19T09:26:30Z</time></trkpt><trkpt lat="45.19674801218078" lon="9.319981776255826"><ele>65.0</ele><time>2026-04-19T09:26:31Z</time></trkpt><trkpt lat="45.196759530616774" lon="9.320150334298491"><ele>65.0</ele><time>2026-04-19T09:26:32Z</time></trkpt><trkpt lat="45.19675894943444" lon="9.320332894118065"><ele>65.0</ele><time>2026-04-19T09:26:33Z</time></trkpt><trkpt lat="45.19676243415687" lon="9.320519818022742"><ele>65.0</ele><time>2026-04-19T09:26:34Z</time></trkpt><trkpt lat="45.196772590264" lon="9.320718726777754"><ele>65.0</ele><time>2026-04-19T09:26:35Z</time></trkpt><trkpt lat="45.19677814440655" lon="9.320908736614646"><ele>65.5</ele><time>2026-04-19T09:26:36Z</time></trkpt><trkpt lat="45.196788874182" lon="9.321099180615123"><ele>66.0</ele><time>2026-04-19T09:26:37Z</time></trkpt><trkpt lat="45.19679986350245" lon="9.321281604153407"><ele>66.5</ele><time>2026-04-19T09:26:38Z</time></trkpt><trkpt lat="45.19680634726045" lon="9.321462439193681"><ele>67.0</ele><time>2026-04-19T09:26:39Z</time></trkpt><trkpt lat="45.19680924192862" lon="9.321637823516088"><ele>67.75</ele><time>2026-04-19T09:26:40Z</time></trkpt><trkpt lat="45.19679786259733" lon="9.321824087896628"><ele>68.5</ele><time>2026-04-19T09:26:41Z</time></trkpt><trkpt lat="45.1967658368035" lon="9.32201234104876"><ele>69.25</ele><time>2026-04-19T09:26:42Z</time></trkpt><trkpt lat="45.1967458255371" lon="9.322192059254418"><ele>70.0</ele><time>2026-04-19T09:26:43Z</time></trkpt><trkpt lat="45.19670763254275" lon="9.322378767451658"><ele>70.5</ele><time>2026-04-19T09:26:44Z</time></trkpt><trkpt lat="45.19665626827187" lon="9.322571572264986"><ele>71.0</ele><time>2026-04-19T09:26:45Z</time></trkpt><trkpt lat="45.19661153690766" lon="9.322739712347715"><ele>71.5</ele><time>2026-04-19T09:26:46Z</time></trkpt><trkpt lat="45.19657239702987" lon="9.322911894128165"><ele>72.0</ele><time>2026-04-19T09:26:47Z</time></trkpt><trkpt lat="45.196515576951825" lon="9.323067396725664"><ele>72.0</ele><time>2026-04-19T09:26:48Z</time></trkpt><trkpt lat="45.19647007866825" lon="9.323216096402701"><ele>72.0</ele><time>2026-04-19T09:26:49Z</time></trkpt><trkpt lat="45.19643294546408" lon="9.323356667074494"><ele>72.0</ele><time>2026-04-19T09:26:50Z</time></trkpt><trkpt lat="45.196405152708365" lon="9.32349821108448"><ele>72.0</ele><time>2026-04-19T09:26:51Z</time></trkpt><trkpt lat="45.19637161607939" lon="9.32364726376525"><ele>72.0</ele><time>2026-04-19T09:26:52Z</time></trkpt><trkpt lat="45.19643891447994" lon="9.323819973221127"><ele>72.0</ele><time>2026-04-19T09:26:53Z</time></trkpt><trkpt lat="45.19648578709792" lon="9.323967106206865"><ele>72.0</ele><time>2026-04-19T09:26:54Z</time></trkpt><trkpt lat="45.196514446316975" lon="9.3241134400897"><ele>72.0</ele><time>2026-04-19T09:26:55Z</time></trkpt><trkpt lat="45.19651825864003" lon="9.324267638904441"><ele>72.0</ele><time>2026-04-19T09:26:56Z</time></trkpt><trkpt lat="45.19652213129428" lon="9.32443744024639"><ele>72.0</ele><time>2026-04-19T09:26:57Z</time></trkpt><trkpt lat="45.1964932731404" lon="9.32461387983269"><ele>72.5</ele><time>2026-04-19T09:26:58Z</time></trkpt><trkpt lat="45.19646358001488" lon="9.324801409938113"><ele>73.0</ele><time>2026-04-19T09:26:59Z</time></trkpt><trkpt lat="45.19640787603752" lon="9.324970879879267"><ele>73.5</ele><time>2026-04-19T09:27:00Z</time></trkpt><trkpt lat="45.1963751022421" lon="9.32515399079847"><ele>74.0</ele><time>2026-04-19T09:27:01Z</time></trkpt><trkpt lat="45.19633262707573" lon="9.325334204174027"><ele>74.0</ele><time>2026-04-19T09:27:02Z</time></trkpt><trkpt lat="45.1962906092284" lon="9.325511318750488"><ele>74.0</ele><time>2026-04-19T09:27:03Z</time></trkpt><trkpt lat="45.19626517398831" lon="9.325698037850104"><ele>74.0</ele><time>2026-04-19T09:27:04Z</time></trkpt><trkpt lat="45.19623448275081" lon="9.325876009743086"><ele>74.0</ele><time>2026-04-19T09:27:05Z</time></trkpt><trkpt lat="45.196197288356466" lon="9.326056769986563"><ele>73.5</ele><time>2026-04-19T09:27:06Z</time></trkpt><trkpt lat="45.19617769648114" lon="9.326248796645935"><ele>73.0</ele><time>2026-04-19T09:27:07Z</time></trkpt><trkpt lat="45.19616837839983" lon="9.326449107764104"><ele>72.5</ele><time>2026-04-19T09:27:08Z</time></trkpt><trkpt lat="45.1961862208125" lon="9.32666320327062"><ele>72.0</ele><time>2026-04-19T09:27:09Z</time></trkpt><trkpt lat="45.19619291450467" lon="9.32687093585871"><ele>72.0</ele><time>2026-04-19T09:27:10Z</time></trkpt><trkpt lat="45.19619612085031" lon="9.327075658622766"><ele>72.0</ele><time>2026-04-19T09:27:11Z</time></trkpt><trkpt lat="45.19623687470013" lon="9.327258283935448"><ele>72.0</ele><time>2026-04-19T09:27:12Z</time></trkpt><trkpt lat="45.19627084251599" lon="9.327431963983972"><ele>72.0</ele><time>2026-04-19T09:27:13Z</time></trkpt><trkpt lat="45.19632793874717" lon="9.327591155864537"><ele>72.0</ele><time>2026-04-19T09:27:14Z</time></trkpt><trkpt lat="45.196402014984386" lon="9.327735261551036"><ele>72.0</ele><time>2026-04-19T09:27:15Z</time></trkpt><trkpt lat="45.19649993473361" lon="9.327875907630913"><ele>72.0</ele><time>2026-04-19T09:27:16Z</time></trkpt><trkpt lat="45.19662264641334" lon="9.328017935747733"><ele>72.0</ele><time>2026-04-19T09:27:17Z</time></trkpt><trkpt lat="45.196745589599395" lon="9.328147045764942"><ele>72.33333333333333</ele><time>2026-04-19T09:27:18Z</time></trkpt><trkpt lat="45.19687372764704" lon="9.328275495882165"><ele>72.66666666666666</ele><time>2026-04-19T09:27:19Z</time></trkpt><trkpt lat="45.197007739624716" lon="9.328401447119"><ele>73.0</ele><time>2026-04-19T09:27:20Z</time></trkpt><trkpt lat="45.19714470549113" lon="9.328528478546618"><ele>73.0</ele><time>2026-04-19T09:27:21Z</time></trkpt><trkpt lat="45.19727944311239" lon="9.328656787603721"><ele>73.0</ele><time>2026-04-19T09:27:22Z</time></trkpt><trkpt lat="45.19742360100575" lon="9.328787004556224"><ele>73.0</ele><time>2026-04-19T09:27:23Z</time></trkpt><trkpt lat="45.19755858473417" lon="9.32891577062436"><ele>72.66666666666666</ele><time>2026-04-19T09:27:24Z</time></trkpt><trkpt lat="45.19769975211922" lon="9.329070634497475"><ele>72.33333333333333</ele><time>2026-04-19T09:27:25Z</time></trkpt><trkpt lat="45.197820296274315" lon="9.32918352683101"><ele>72.0</ele><time>2026-04-19T09:27:26Z</time></trkpt><trkpt lat="45.19795334071768" lon="9.329308937783804"><ele>72.0</ele><time>2026-04-19T09:27:27Z</time></trkpt><trkpt lat="45.19808963567486" lon="9.32943741275538"><ele>72.0</ele><time>2026-04-19T09:27:28Z</time></trkpt><trkpt lat="45.19822854830255" lon="9.329568355215265"><ele>72.0</ele><time>2026-04-19T09:27:29Z</time></trkpt><trkpt lat="45.198374865757096" lon="9.329705811152666"><ele>72.0</ele><time>2026-04-19T09:27:30Z</time></trkpt><trkpt lat="45.19853444033789" lon="9.32985470980315"><ele>72.0</ele><time>2026-04-19T09:27:31Z</time></trkpt><trkpt lat="45.19871174761211" lon="9.330020154604387"><ele>72.0</ele><time>2026-04-19T09:27:32Z</time></trkpt><trkpt lat="45.1988985003683" lon="9.330196388431641"><ele>71.66666666666667</ele><time>2026-04-19T09:27:33Z</time></trkpt><trkpt lat="45.19908011545538" lon="9.330367390580253"><ele>71.33333333333334</ele><time>2026-04-19T09:27:34Z</time></trkpt><trkpt lat="45.19926038032169" lon="9.330537121425985"><ele>71.0</ele><time>2026-04-19T09:27:35Z</time></trkpt><trkpt lat="45.19944293207316" lon="9.330709005511876"><ele>71.0</ele><time>2026-04-19T09:27:36Z</time></trkpt><trkpt lat="45.199625758471456" lon="9.33086393000538"><ele>71.0</ele><time>2026-04-19T09:27:37Z</time></trkpt><trkpt lat="45.19980350554134" lon="9.331032268622968"><ele>71.0</ele><time>2026-04-19T09:27:38Z</time></trkpt><trkpt lat="45.199979705814236" lon="9.331198416640731"><ele>71.0</ele><time>2026-04-19T09:27:39Z</time></trkpt><trkpt lat="45.20015631588111" lon="9.33136452690387"><ele>71.0</ele><time>2026-04-19T09:27:40Z</time></trkpt><trkpt lat="45.200326313581094" lon="9.331521820216217"><ele>71.0</ele><time>2026-04-19T09:27:41Z</time></trkpt><trkpt lat="45.20048678926554" lon="9.331696967112505"><ele>71.33333333333334</ele><time>2026-04-19T09:27:42Z</time></trkpt><trkpt lat="45.200658965108474" lon="9.331865020380183"><ele>71.66666666666667</ele><time>2026-04-19T09:27:43Z</time></trkpt><trkpt lat="45.200816631267244" lon="9.332011667126949"><ele>72.0</ele><time>2026-04-19T09:27:44Z</time></trkpt><trkpt lat="45.20098729945626" lon="9.332171929970546"><ele>71.33333333333333</ele><time>2026-04-19T09:27:45Z</time></trkpt><trkpt lat="45.201143621169955" lon="9.332337115407979"><ele>70.66666666666666</ele><time>2026-04-19T09:27:46Z</time></trkpt><trkpt lat="45.20130620870048" lon="9.332509234809683"><ele>70.0</ele><time>2026-04-19T09:27:47Z</time></trkpt><trkpt lat="45.20147049686563" lon="9.332675955419182"><ele>70.33333333333333</ele><time>2026-04-19T09:27:48Z</time></trkpt><trkpt lat="45.20163951764137" lon="9.33284721147596"><ele>70.66666666666667</ele><time>2026-04-19T09:27:49Z</time></trkpt><trkpt lat="45.20180854594294" lon="9.333014477035322"><ele>71.0</ele><time>2026-04-19T09:27:50Z</time></trkpt><trkpt lat="45.20197593159447" lon="9.333169268502504"><ele>71.0</ele><time>2026-04-19T09:27:51Z</time></trkpt><trkpt lat="45.20212386871688" lon="9.333344845308815"><ele>71.0</ele><time>2026-04-19T09:27:52Z</time></trkpt><trkpt lat="45.20227766640663" lon="9.333500791369408"><ele>71.0</ele><time>2026-04-19T09:27:53Z</time></trkpt><trkpt lat="45.202435010751536" lon="9.333628178128235"><ele>70.66666666666667</ele><time>2026-04-19T09:27:54Z</time></trkpt><trkpt lat="45.202574240631144" lon="9.333776110330207"><ele>70.33333333333333</ele><time>2026-04-19T09:27:55Z</time></trkpt><trkpt lat="45.20271154897121" lon="9.333923970479525"><ele>70.0</ele><time>2026-04-19T09:27:56Z</time></trkpt><trkpt lat="45.20283995323809" lon="9.334055929638724"><ele>70.0</ele><time>2026-04-19T09:27:57Z</time></trkpt><trkpt lat="45.20295958855173" lon="9.334177724494442"><ele>70.0</ele><time>2026-04-19T09:27:58Z</time></trkpt><trkpt lat="45.20307123401303" lon="9.334292290627289"><ele>70.0</ele><time>2026-04-19T09:27:59Z</time></trkpt><trkpt lat="45.20317431947828" lon="9.334401272686366"><ele>70.0</ele><time>2026-04-19T09:28:00Z</time></trkpt><trkpt lat="45.20327354881349" lon="9.33450512466502"><ele>70.0</ele><time>2026-04-19T09:28:01Z</time></trkpt><trkpt lat="45.20335991307576" lon="9.334608214788238"><ele>70.0</ele><time>2026-04-19T09:28:02Z</time></trkpt><trkpt lat="45.203435694142826" lon="9.33471029898789"><ele>70.0</ele><time>2026-04-19T09:28:03Z</time></trkpt><trkpt lat="45.20349265922791" lon="9.334814589754936"><ele>70.0</ele><time>2026-04-19T09:28:04Z</time></trkpt><trkpt lat="45.20354977398027" lon="9.334912658388712"><ele>70.0</ele><time>2026-04-19T09:28:05Z</time></trkpt><trkpt lat="45.20359766092537" lon="9.335006369420903"><ele>69.8</ele><time>2026-04-19T09:28:06Z</time></trkpt><trkpt lat="45.20364930287502" lon="9.335086857769198"><ele>69.6</ele><time>2026-04-19T09:28:07Z</time></trkpt><trkpt lat="45.20370394038924" lon="9.3351878454725"><ele>69.4</ele><time>2026-04-19T09:28:08Z</time></trkpt><trkpt lat="45.20376216556675" lon="9.335311869821354"><ele>69.2</ele><time>2026-04-19T09:28:09Z</time></trkpt><trkpt lat="45.20382438553467" lon="9.33544746076896"><ele>69.0</ele><time>2026-04-19T09:28:10Z</time></trkpt><trkpt lat="45.203902941943134" lon="9.335589521073132"><ele>69.25</ele><time>2026-04-19T09:28:11Z</time></trkpt><trkpt lat="45.203931750001956" lon="9.335789765632128"><ele>69.5</ele><time>2026-04-19T09:28:12Z</time></trkpt><trkpt lat="45.20397632559695" lon="9.335980340739095"><ele>69.75</ele><time>2026-04-19T09:28:13Z</time></trkpt><trkpt lat="45.204023508836386" lon="9.336181488917246"><ele>70.0</ele><time>2026-04-19T09:28:14Z</time></trkpt><trkpt lat="45.20407305089649" lon="9.33639410497809"><ele>70.66666666666666</ele><time>2026-04-19T09:28:15Z</time></trkpt><trkpt lat="45.2041244551566" lon="9.336602387890562"><ele>71.33333333333333</ele><time>2026-04-19T09:28:16Z</time></trkpt><trkpt lat="45.20418010472002" lon="9.336818745744607"><ele>72.0</ele><time>2026-04-19T09:28:17Z</time></trkpt><trkpt lat="45.20423677914953" lon="9.337031521366331"><ele>71.0</ele><time>2026-04-19T09:28:18Z</time></trkpt><trkpt lat="45.20428927894008" lon="9.337250526342656"><ele>70.0</ele><time>2026-04-19T09:28:19Z</time></trkpt><trkpt lat="45.204342767029054" lon="9.337467830279385"><ele>69.0</ele><time>2026-04-19T09:28:20Z</time></trkpt><trkpt lat="45.204394263745" lon="9.337685177330057"><ele>69.0</ele><time>2026-04-19T09:28:21Z</time></trkpt><trkpt lat="45.204447756551346" lon="9.3378993368784"><ele>69.0</ele><time>2026-04-19T09:28:22Z</time></trkpt><trkpt lat="45.20449859153487" lon="9.338114378843075"><ele>69.0</ele><time>2026-04-19T09:28:23Z</time></trkpt><trkpt lat="45.20455047696192" lon="9.338324181385577"><ele>69.25</ele><time>2026-04-19T09:28:24Z</time></trkpt><trkpt lat="45.20460222425807" lon="9.338536853210423"><ele>69.5</ele><time>2026-04-19T09:28:25Z</time></trkpt><trkpt lat="45.204656979262275" lon="9.33873379238879"><ele>69.75</ele><time>2026-04-19T09:28:26Z</time></trkpt><trkpt lat="45.204704905090544" lon="9.33891078016791"><ele>70.0</ele><time>2026-04-19T09:28:27Z</time></trkpt><trkpt lat="45.20474467796682" lon="9.339082895884983"><ele>70.0</ele><time>2026-04-19T09:28:28Z</time></trkpt><trkpt lat="45.204790850657574" lon="9.339273736657882"><ele>70.0</ele><time>2026-04-19T09:28:29Z</time></trkpt><trkpt lat="45.20483792437387" lon="9.339462121673145"><ele>70.0</ele><time>2026-04-19T09:28:30Z</time></trkpt><trkpt lat="45.20488435075141" lon="9.33965873091244"><ele>70.0</ele><time>2026-04-19T09:28:31Z</time></trkpt><trkpt lat="45.204932191748725" lon="9.33984741324768"><ele>70.0</ele><time>2026-04-19T09:28:32Z</time></trkpt><trkpt lat="45.20497940284168" lon="9.340021717928929"><ele>70.0</ele><time>2026-04-19T09:28:33Z</time></trkpt><trkpt lat="45.20501678384379" lon="9.340182488840153"><ele>70.0</ele><time>2026-04-19T09:28:34Z</time></trkpt><trkpt lat="45.20505147055629" lon="9.34033301225866"><ele>70.0</ele><time>2026-04-19T09:28:35Z</time></trkpt><trkpt lat="45.20508366437837" lon="9.340475882553854"><ele>70.0</ele><time>2026-04-19T09:28:36Z</time></trkpt><trkpt lat="45.20511471546221" lon="9.340603642363279"><ele>70.0</ele><time>2026-04-19T09:28:37Z</time></trkpt><trkpt lat="45.20514267379304" lon="9.34072246132748"><ele>70.0</ele><time>2026-04-19T09:28:38Z</time></trkpt><trkpt lat="45.2051658513359" lon="9.340822844130738"><ele>70.0</ele><time>2026-04-19T09:28:39Z</time></trkpt><trkpt lat="45.20516727328104" lon="9.340975672246044"><ele>70.0</ele><time>2026-04-19T09:28:41Z</time></trkpt><trkpt lat="45.20506381826631" lon="9.341010616429536"><ele>70.0</ele><time>2026-04-19T09:28:43Z</time></trkpt><trkpt lat="45.20497906970426" lon="9.341028113068058"><ele>70.0</ele><time>2026-04-19T09:28:44Z</time></trkpt><trkpt lat="45.20487682145834" lon="9.341012860066522"><ele>70.0</ele><time>2026-04-19T09:28:45Z</time></trkpt><trkpt lat="45.204760377224076" lon="9.341009965733928"><ele>70.0</ele><time>2026-04-19T09:28:46Z</time></trkpt><trkpt lat="45.2046362033936" lon="9.341012230426422"><ele>70.0</ele><time>2026-04-19T09:28:47Z</time></trkpt><trkpt lat="45.204498080148745" lon="9.34100545395306"><ele>70.33333333333333</ele><time>2026-04-19T09:28:48Z</time></trkpt><trkpt lat="45.20434776196569" lon="9.34101490848954"><ele>70.66666666666667</ele><time>2026-04-19T09:28:49Z</time></trkpt><trkpt lat="45.20418857534448" lon="9.341016560671113"><ele>71.0</ele><time>2026-04-19T09:28:50Z</time></trkpt><trkpt lat="45.20402639901404" lon="9.341011484506561"><ele>71.25</ele><time>2026-04-19T09:28:51Z</time></trkpt><trkpt lat="45.20386107322445" lon="9.341024024921037"><ele>71.5</ele><time>2026-04-19T09:28:52Z</time></trkpt><trkpt lat="45.20371691052242" lon="9.34102655262871"><ele>71.75</ele><time>2026-04-19T09:28:53Z</time></trkpt><trkpt lat="45.203581089937735" lon="9.341035589469927"><ele>72.0</ele><time>2026-04-19T09:28:54Z</time></trkpt><trkpt lat="45.203476146264855" lon="9.341043956036808"><ele>72.0</ele><time>2026-04-19T09:28:55Z</time></trkpt><trkpt lat="45.203386815849456" lon="9.341069125046563"><ele>72.0</ele><time>2026-04-19T09:28:56Z</time></trkpt><trkpt lat="45.20330450139706" lon="9.341129076835518"><ele>72.0</ele><time>2026-04-19T09:28:57Z</time></trkpt><trkpt lat="45.203242533143836" lon="9.341224330337575"><ele>72.0</ele><time>2026-04-19T09:28:58Z</time></trkpt><trkpt lat="45.20319081103736" lon="9.341327205024239"><ele>72.0</ele><time>2026-04-19T09:28:59Z</time></trkpt><trkpt lat="45.203127414163035" lon="9.341413344092771"><ele>71.25</ele><time>2026-04-19T09:29:00Z</time></trkpt><trkpt lat="45.20303171180225" lon="9.341429270881369"><ele>70.5</ele><time>2026-04-19T09:29:01Z</time></trkpt><trkpt lat="45.20291750008151" lon="9.341417410543654"><ele>69.75</ele><time>2026-04-19T09:29:02Z</time></trkpt><trkpt lat="45.2027813223616" lon="9.341407948381125"><ele>69.0</ele><time>2026-04-19T09:29:03Z</time></trkpt><trkpt lat="45.20263770061157" lon="9.341415347644867"><ele>69.0</ele><time>2026-04-19T09:29:04Z</time></trkpt><trkpt lat="45.20250506644186" lon="9.341419354596322"><ele>69.0</ele><time>2026-04-19T09:29:05Z</time></trkpt><trkpt lat="45.20238804897035" lon="9.341418705468747"><ele>69.0</ele><time>2026-04-19T09:29:06Z</time></trkpt><trkpt lat="45.20228814981485" lon="9.341413062204179"><ele>69.0</ele><time>2026-04-19T09:29:07Z</time></trkpt><trkpt lat="45.20220592647726" lon="9.341417082662778"><ele>69.0</ele><time>2026-04-19T09:29:08Z</time></trkpt><trkpt lat="45.20213010776241" lon="9.341456959689168"><ele>69.25</ele><time>2026-04-19T09:29:09Z</time></trkpt><trkpt lat="45.20205612731459" lon="9.341549823049924"><ele>69.5</ele><time>2026-04-19T09:29:10Z</time></trkpt><trkpt lat="45.20200024833422" lon="9.341676507854745"><ele>69.75</ele><time>2026-04-19T09:29:11Z</time></trkpt><trkpt lat="45.20197202040788" lon="9.341858828340644"><ele>70.0</ele><time>2026-04-19T09:29:12Z</time></trkpt><trkpt lat="45.201940020446536" lon="9.3420519194505"><ele>70.33333333333333</ele><time>2026-04-19T09:29:13Z</time></trkpt><trkpt lat="45.20189984373989" lon="9.342261995267341"><ele>70.66666666666667</ele><time>2026-04-19T09:29:14Z</time></trkpt><trkpt lat="45.201854503466066" lon="9.342496048965177"><ele>71.0</ele><time>2026-04-19T09:29:15Z</time></trkpt><trkpt lat="45.201806909991454" lon="9.342737374516876"><ele>71.0</ele><time>2026-04-19T09:29:16Z</time></trkpt><trkpt lat="45.20175591734071" lon="9.34299326602068"><ele>71.0</ele><time>2026-04-19T09:29:17Z</time></trkpt><trkpt lat="45.20169857685858" lon="9.34324248289148"><ele>71.0</ele><time>2026-04-19T09:29:18Z</time></trkpt><trkpt lat="45.20163864317647" lon="9.343477838821203"><ele>71.0</ele><time>2026-04-19T09:29:19Z</time></trkpt><trkpt lat="45.201573909423054" lon="9.343712379031162"><ele>71.0</ele><time>2026-04-19T09:29:20Z</time></trkpt><trkpt lat="45.20150853890746" lon="9.34393753403558"><ele>71.0</ele><time>2026-04-19T09:29:21Z</time></trkpt><trkpt lat="45.20144223571549" lon="9.344157957822034"><ele>70.66666666666667</ele><time>2026-04-19T09:29:22Z</time></trkpt><trkpt lat="45.20137562935663" lon="9.344379967118723"><ele>70.33333333333333</ele><time>2026-04-19T09:29:23Z</time></trkpt><trkpt lat="45.20130924422143" lon="9.344584580812652"><ele>70.0</ele><time>2026-04-19T09:29:24Z</time></trkpt><trkpt lat="45.201226127462164" lon="9.34482249780352"><ele>70.0</ele><time>2026-04-19T09:29:25Z</time></trkpt><trkpt lat="45.20115471573919" lon="9.345025334623294"><ele>70.0</ele><time>2026-04-19T09:29:26Z</time></trkpt><trkpt lat="45.201086905929174" lon="9.345228266185087"><ele>70.0</ele><time>2026-04-19T09:29:27Z</time></trkpt><trkpt lat="45.2010259644157" lon="9.345440405331935"><ele>70.66666666666666</ele><time>2026-04-19T09:29:28Z</time></trkpt><trkpt lat="45.20097296411074" lon="9.345668980158967"><ele>71.33333333333333</ele><time>2026-04-19T09:29:29Z</time></trkpt><trkpt lat="45.20090995428505" lon="9.345896582110015"><ele>72.0</ele><time>2026-04-19T09:29:30Z</time></trkpt><trkpt lat="45.200859857623094" lon="9.346133528370514"><ele>72.0</ele><time>2026-04-19T09:29:31Z</time></trkpt><trkpt lat="45.20082847671822" lon="9.346372562570771"><ele>72.0</ele><time>2026-04-19T09:29:32Z</time></trkpt><trkpt lat="45.20080441631155" lon="9.346611511106373"><ele>72.0</ele><time>2026-04-19T09:29:33Z</time></trkpt><trkpt lat="45.200780239353634" lon="9.346835992435112"><ele>72.0</ele><time>2026-04-19T09:29:34Z</time></trkpt><trkpt lat="45.2007483640346" lon="9.347059499329088"><ele>72.0</ele><time>2026-04-19T09:29:35Z</time></trkpt><trkpt lat="45.20071038371802" lon="9.347283278835333"><ele>72.0</ele><time>2026-04-19T09:29:36Z</time></trkpt><trkpt lat="45.20066997484302" lon="9.347506475632468"><ele>71.66666666666667</ele><time>2026-04-19T09:29:37Z</time></trkpt><trkpt lat="45.200624256145716" lon="9.347735042332422"><ele>71.33333333333334</ele><time>2026-04-19T09:29:38Z</time></trkpt><trkpt lat="45.20058000267496" lon="9.347964749772567"><ele>71.0</ele><time>2026-04-19T09:29:39Z</time></trkpt><trkpt lat="45.200538493976865" lon="9.348188248806457"><ele>71.0</ele><time>2026-04-19T09:29:40Z</time></trkpt><trkpt lat="45.20049870853314" lon="9.348414212029379"><ele>71.0</ele><time>2026-04-19T09:29:41Z</time></trkpt><trkpt lat="45.20046048896276" lon="9.348651968477244"><ele>71.0</ele><time>2026-04-19T09:29:42Z</time></trkpt><trkpt lat="45.20042290248076" lon="9.348903622574253"><ele>70.66666666666667</ele><time>2026-04-19T09:29:43Z</time></trkpt><trkpt lat="45.20039310146769" lon="9.349146475117553"><ele>70.33333333333333</ele><time>2026-04-19T09:29:44Z</time></trkpt><trkpt lat="45.200380944011904" lon="9.349365376681904"><ele>70.0</ele><time>2026-04-19T09:29:45Z</time></trkpt><trkpt lat="45.20036954103276" lon="9.349568857757603"><ele>69.6</ele><time>2026-04-19T09:29:46Z</time></trkpt><trkpt lat="45.20036485564993" lon="9.349739001481314"><ele>69.2</ele><time>2026-04-19T09:29:47Z</time></trkpt><trkpt lat="45.20036242499778" lon="9.349888354839841"><ele>68.8</ele><time>2026-04-19T09:29:48Z</time></trkpt><trkpt lat="45.20035833200206" lon="9.350020462544418"><ele>68.4</ele><time>2026-04-19T09:29:49Z</time></trkpt><trkpt lat="45.200357065749444" lon="9.350136488603463"><ele>68.0</ele><time>2026-04-19T09:29:50Z</time></trkpt><trkpt lat="45.20035770675393" lon="9.350230601847896"><ele>68.0</ele><time>2026-04-19T09:29:51Z</time></trkpt><trkpt lat="45.200371623791824" lon="9.350376505490399"><ele>68.0</ele><time>2026-04-19T09:29:53Z</time></trkpt><trkpt lat="45.200350040783235" lon="9.350488931912059"><ele>68.0</ele><time>2026-04-19T09:29:55Z</time></trkpt><trkpt lat="45.20022207904706" lon="9.350566782651779"><ele>68.0</ele><time>2026-04-19T09:29:57Z</time></trkpt><trkpt lat="45.20013459724441" lon="9.350599379290545"><ele>68.0</ele><time>2026-04-19T09:29:58Z</time></trkpt><trkpt lat="45.20002298524592" lon="9.350634984712299"><ele>68.25</ele><time>2026-04-19T09:29:59Z</time></trkpt><trkpt lat="45.19989010080242" lon="9.350676239454037"><ele>68.5</ele><time>2026-04-19T09:30:00Z</time></trkpt><trkpt lat="45.199746694224196" lon="9.350720572589902"><ele>68.75</ele><time>2026-04-19T09:30:01Z</time></trkpt><trkpt lat="45.19960462142631" lon="9.350763031161865"><ele>69.0</ele><time>2026-04-19T09:30:02Z</time></trkpt><trkpt lat="45.19945502061766" lon="9.350814154932483"><ele>69.0</ele><time>2026-04-19T09:30:03Z</time></trkpt><trkpt lat="45.19930229180487" lon="9.350867827077664"><ele>69.0</ele><time>2026-04-19T09:30:04Z</time></trkpt><trkpt lat="45.1991466352494" lon="9.350917415390796"><ele>69.0</ele><time>2026-04-19T09:30:05Z</time></trkpt><trkpt lat="45.19899689767399" lon="9.350967643569268"><ele>69.25</ele><time>2026-04-19T09:30:06Z</time></trkpt><trkpt lat="45.19884346430519" lon="9.351015954852816"><ele>69.5</ele><time>2026-04-19T09:30:07Z</time></trkpt><trkpt lat="45.198694776433044" lon="9.351060064195828"><ele>69.75</ele><time>2026-04-19T09:30:08Z</time></trkpt><trkpt lat="45.19855938013908" lon="9.351102122835568"><ele>70.0</ele><time>2026-04-19T09:30:09Z</time></trkpt><trkpt lat="45.1984350046421" lon="9.351143611477209"><ele>70.0</ele><time>2026-04-19T09:30:10Z</time></trkpt><trkpt lat="45.19832074671081" lon="9.351183776198486"><ele>70.0</ele><time>2026-04-19T09:30:11Z</time></trkpt><trkpt lat="45.198214247061635" lon="9.351216233745586"><ele>70.0</ele><time>2026-04-19T09:30:12Z</time></trkpt><trkpt lat="45.19812282234819" lon="9.351241858926496"><ele>70.0</ele><time>2026-04-19T09:30:13Z</time></trkpt><trkpt lat="45.19803118084977" lon="9.351270546486738"><ele>70.0</ele><time>2026-04-19T09:30:14Z</time></trkpt><trkpt lat="45.197950279939874" lon="9.351302598751715"><ele>70.0</ele><time>2026-04-19T09:30:15Z</time></trkpt><trkpt lat="45.197869747192094" lon="9.351327754589107"><ele>70.0</ele><time>2026-04-19T09:30:16Z</time></trkpt><trkpt lat="45.19779801771895" lon="9.351349561260866"><ele>70.0</ele><time>2026-04-19T09:30:17Z</time></trkpt><trkpt lat="45.19772782548886" lon="9.3513652977779"><ele>70.0</ele><time>2026-04-19T09:30:18Z</time></trkpt><trkpt lat="45.1976269658891" lon="9.351407498914519"><ele>70.0</ele><time>2026-04-19T09:30:20Z</time></trkpt><trkpt lat="45.19757574654009" lon="9.351460549023795"><ele>70.0</ele><time>2026-04-19T09:30:22Z</time></trkpt><trkpt lat="45.197525610555964" lon="9.351525907628178"><ele>69.8</ele><time>2026-04-19T09:30:25Z</time></trkpt><trkpt lat="45.19754539077069" lon="9.351615099371728"><ele>69.6</ele><time>2026-04-19T09:30:57Z</time></trkpt><trkpt lat="45.197521429551635" lon="9.3517217280436"><ele>69.4</ele><time>2026-04-19T09:30:59Z</time></trkpt><trkpt lat="45.19742132912105" lon="9.351839900607505"><ele>69.2</ele><time>2026-04-19T09:31:01Z</time></trkpt><trkpt lat="45.197354581611826" lon="9.351932084930299"><ele>69.0</ele><time>2026-04-19T09:31:02Z</time></trkpt><trkpt lat="45.197290661685834" lon="9.352032222188695"><ele>69.0</ele><time>2026-04-19T09:31:03Z</time></trkpt><trkpt lat="45.19720665908977" lon="9.352136981253341"><ele>69.0</ele><time>2026-04-19T09:31:04Z</time></trkpt><trkpt lat="45.19712239945761" lon="9.35223878414201"><ele>69.0</ele><time>2026-04-19T09:31:05Z</time></trkpt><trkpt lat="45.19703451179317" lon="9.352352158701574"><ele>69.0</ele><time>2026-04-19T09:31:06Z</time></trkpt><trkpt lat="45.19695232762341" lon="9.352465539723168"><ele>69.0</ele><time>2026-04-19T09:31:07Z</time></trkpt><trkpt lat="45.19687628361315" lon="9.35257329958718"><ele>69.0</ele><time>2026-04-19T09:31:08Z</time></trkpt><trkpt lat="45.19680805799625" lon="9.352665161123157"><ele>69.0</ele><time>2026-04-19T09:31:09Z</time></trkpt><trkpt lat="45.196732788797014" lon="9.352765012528847"><ele>69.0</ele><time>2026-04-19T09:31:10Z</time></trkpt><trkpt lat="45.1966566053931" lon="9.352863241369976"><ele>69.0</ele><time>2026-04-19T09:31:11Z</time></trkpt><trkpt lat="45.19658392932806" lon="9.352968253822343"><ele>69.0</ele><time>2026-04-19T09:31:12Z</time></trkpt><trkpt lat="45.19650886788373" lon="9.353081093582995"><ele>69.0</ele><time>2026-04-19T09:31:13Z</time></trkpt><trkpt lat="45.19645713177877" lon="9.353193134883574"><ele>69.0</ele><time>2026-04-19T09:31:14Z</time></trkpt><trkpt lat="45.19641427593228" lon="9.35333606196352"><ele>69.0</ele><time>2026-04-19T09:31:15Z</time></trkpt><trkpt lat="45.19637740288448" lon="9.353482658430012"><ele>69.0</ele><time>2026-04-19T09:31:16Z</time></trkpt><trkpt lat="45.196339918098204" lon="9.353624665061835"><ele>69.2</ele><time>2026-04-19T09:31:17Z</time></trkpt><trkpt lat="45.19629921129571" lon="9.353774063045668"><ele>69.4</ele><time>2026-04-19T09:31:18Z</time></trkpt><trkpt lat="45.19626038435022" lon="9.35390436140976"><ele>69.6</ele><time>2026-04-19T09:31:19Z</time></trkpt><trkpt lat="45.196225726011015" lon="9.354026025810828"><ele>69.8</ele><time>2026-04-19T09:31:20Z</time></trkpt><trkpt lat="45.19619289144333" lon="9.354148493667468"><ele>70.0</ele><time>2026-04-19T09:31:21Z</time></trkpt><trkpt lat="45.19615769166835" lon="9.354277047859034"><ele>70.0</ele><time>2026-04-19T09:31:22Z</time></trkpt><trkpt lat="45.19612304649285" lon="9.354394207353947"><ele>70.0</ele><time>2026-04-19T09:31:23Z</time></trkpt><trkpt lat="45.196094883944184" lon="9.354523501162497"><ele>70.0</ele><time>2026-04-19T09:31:24Z</time></trkpt><trkpt lat="45.196049208114026" lon="9.354646440262568"><ele>70.0</ele><time>2026-04-19T09:31:25Z</time></trkpt><trkpt lat="45.19600489824525" lon="9.354810109950781"><ele>70.0</ele><time>2026-04-19T09:31:26Z</time></trkpt><trkpt lat="45.19597175809041" lon="9.354972519983168"><ele>70.0</ele><time>2026-04-19T09:31:27Z</time></trkpt><trkpt lat="45.19592659583186" lon="9.355098676085527"><ele>70.0</ele><time>2026-04-19T09:31:28Z</time></trkpt><trkpt lat="45.19587459090803" lon="9.355265669186112"><ele>70.0</ele><time>2026-04-19T09:31:29Z</time></trkpt><trkpt lat="45.19582210039017" lon="9.3554440421147"><ele>70.0</ele><time>2026-04-19T09:31:30Z</time></trkpt><trkpt lat="45.195778582498626" lon="9.35560397721539"><ele>69.8</ele><time>2026-04-19T09:31:31Z</time></trkpt><trkpt lat="45.195741139454704" lon="9.355739613349405"><ele>69.6</ele><time>2026-04-19T09:31:32Z</time></trkpt><trkpt lat="45.195712894576246" lon="9.3558584258383"><ele>69.4</ele><time>2026-04-19T09:31:33Z</time></trkpt><trkpt lat="45.19567439016449" lon="9.355981525596308"><ele>69.2</ele><time>2026-04-19T09:31:34Z</time></trkpt><trkpt lat="45.195640915420405" lon="9.356100364805792"><ele>69.0</ele><time>2026-04-19T09:31:35Z</time></trkpt><trkpt lat="45.19560775541459" lon="9.3562097458821"><ele>69.0</ele><time>2026-04-19T09:31:36Z</time></trkpt><trkpt lat="45.19558010461106" lon="9.356310805335529"><ele>69.0</ele><time>2026-04-19T09:31:37Z</time></trkpt><trkpt lat="45.195552497946885" lon="9.356410344494494"><ele>69.0</ele><time>2026-04-19T09:31:38Z</time></trkpt><trkpt lat="45.19552988634558" lon="9.356502549459188"><ele>69.0</ele><time>2026-04-19T09:31:39Z</time></trkpt><trkpt lat="45.19549514358965" lon="9.356637108914358"><ele>69.0</ele><time>2026-04-19T09:31:41Z</time></trkpt><trkpt lat="45.195468538457035" lon="9.356729513514235"><ele>69.0</ele><time>2026-04-19T09:31:43Z</time></trkpt><trkpt lat="45.195414493770144" lon="9.356792063838048"><ele>69.0</ele><time>2026-04-19T09:31:46Z</time></trkpt><trkpt lat="45.19532395049315" lon="9.356683288033299"><ele>69.0</ele><time>2026-04-19T09:31:49Z</time></trkpt><trkpt lat="45.19528554126993" lon="9.356598881590612"><ele>69.0</ele><time>2026-04-19T09:31:50Z</time></trkpt><trkpt lat="45.19523139406442" lon="9.356516597380866"><ele>69.0</ele><time>2026-04-19T09:31:51Z</time></trkpt><trkpt lat="45.195167861879334" lon="9.356425342600243"><ele>69.0</ele><time>2026-04-19T09:31:52Z</time></trkpt><trkpt lat="45.19511312126074" lon="9.356302678109921"><ele>68.8</ele><time>2026-04-19T09:31:53Z</time></trkpt><trkpt lat="45.19504105765761" lon="9.356212084733222"><ele>68.60000000000001</ele><time>2026-04-19T09:31:54Z</time></trkpt><trkpt lat="45.194972776167575" lon="9.35612622456763"><ele>68.4</ele><time>2026-04-19T09:31:55Z</time></trkpt><trkpt lat="45.19490921184368" lon="9.356046296020878"><ele>68.2</ele><time>2026-04-19T09:31:56Z</time></trkpt><trkpt lat="45.19484129178553" lon="9.35595998263318"><ele>68.0</ele><time>2026-04-19T09:31:57Z</time></trkpt><trkpt lat="45.19477127971958" lon="9.355869293669581"><ele>68.0</ele><time>2026-04-19T09:31:58Z</time></trkpt><trkpt lat="45.19470252028249" lon="9.355780227270456"><ele>68.0</ele><time>2026-04-19T09:31:59Z</time></trkpt><trkpt lat="45.194634589854715" lon="9.355692236012228"><ele>68.0</ele><time>2026-04-19T09:32:00Z</time></trkpt><trkpt lat="45.19457353516231" lon="9.355613149746825"><ele>68.0</ele><time>2026-04-19T09:32:01Z</time></trkpt><trkpt lat="45.19450566622853" lon="9.355558353891595"><ele>68.0</ele><time>2026-04-19T09:32:02Z</time></trkpt><trkpt lat="45.19445827861654" lon="9.355491559321218"><ele>68.0</ele><time>2026-04-19T09:32:03Z</time></trkpt><trkpt lat="45.194373715595056" lon="9.355388186590554"><ele>68.0</ele><time>2026-04-19T09:32:05Z</time></trkpt><trkpt lat="45.194304550757856" lon="9.355375768661448"><ele>68.0</ele><time>2026-04-19T09:32:06Z</time></trkpt><trkpt lat="45.194228587281486" lon="9.35542723294916"><ele>68.0</ele><time>2026-04-19T09:32:07Z</time></trkpt><trkpt lat="45.19418493186138" lon="9.35554680851768"><ele>68.0</ele><time>2026-04-19T09:32:08Z</time></trkpt><trkpt lat="45.19418320998011" lon="9.35567520543042"><ele>68.0</ele><time>2026-04-19T09:32:09Z</time></trkpt><trkpt lat="45.19416633159743" lon="9.35581135555098"><ele>68.0</ele><time>2026-04-19T09:32:10Z</time></trkpt><trkpt lat="45.194135487614616" lon="9.355969276467738"><ele>68.0</ele><time>2026-04-19T09:32:11Z</time></trkpt><trkpt lat="45.194099575703" lon="9.356124305232195"><ele>68.0</ele><time>2026-04-19T09:32:12Z</time></trkpt><trkpt lat="45.194056167582566" lon="9.356288126284058"><ele>68.0</ele><time>2026-04-19T09:32:13Z</time></trkpt><trkpt lat="45.19400076737391" lon="9.356431131134588"><ele>68.0</ele><time>2026-04-19T09:32:14Z</time></trkpt><trkpt lat="45.19397879711943" lon="9.356574761545252"><ele>68.2</ele><time>2026-04-19T09:32:15Z</time></trkpt><trkpt lat="45.19393813291203" lon="9.356692206732053"><ele>68.4</ele><time>2026-04-19T09:32:16Z</time></trkpt><trkpt lat="45.193914178098375" lon="9.356799074358388"><ele>68.60000000000001</ele><time>2026-04-19T09:32:17Z</time></trkpt><trkpt lat="45.19387536070873" lon="9.356878150600611"><ele>68.8</ele><time>2026-04-19T09:32:18Z</time></trkpt><trkpt lat="45.19382669532569" lon="9.357028877841502"><ele>69.0</ele><time>2026-04-19T09:32:20Z</time></trkpt><trkpt lat="45.19375385319413" lon="9.357150101042325"><ele>69.0</ele><time>2026-04-19T09:32:22Z</time></trkpt><trkpt lat="45.19368762956326" lon="9.357148560595896"><ele>69.0</ele><time>2026-04-19T09:32:23Z</time></trkpt><trkpt lat="45.19362059279362" lon="9.357077086341148"><ele>69.0</ele><time>2026-04-19T09:32:24Z</time></trkpt><trkpt lat="45.19357084752464" lon="9.356958226412546"><ele>69.0</ele><time>2026-04-19T09:32:25Z</time></trkpt><trkpt lat="45.19348030851502" lon="9.356855000992146"><ele>69.0</ele><time>2026-04-19T09:32:26Z</time></trkpt><trkpt lat="45.19335496859524" lon="9.356717776368276"><ele>69.0</ele><time>2026-04-19T09:32:27Z</time></trkpt><trkpt lat="45.19322946347978" lon="9.35657894227725"><ele>69.0</ele><time>2026-04-19T09:32:28Z</time></trkpt><trkpt lat="45.193109464235704" lon="9.356444455106185"><ele>69.0</ele><time>2026-04-19T09:32:29Z</time></trkpt><trkpt lat="45.19299996946592" lon="9.356319254703427"><ele>69.25</ele><time>2026-04-19T09:32:30Z</time></trkpt><trkpt lat="45.192892688400896" lon="9.356219483305553"><ele>69.5</ele><time>2026-04-19T09:32:31Z</time></trkpt><trkpt lat="45.192807718509734" lon="9.35609942787046"><ele>69.75</ele><time>2026-04-19T09:32:32Z</time></trkpt><trkpt lat="45.192711991124675" lon="9.356020928143446"><ele>70.0</ele><time>2026-04-19T09:32:33Z</time></trkpt><trkpt lat="45.19263732204379" lon="9.355934321160408"><ele>70.0</ele><time>2026-04-19T09:32:34Z</time></trkpt><trkpt lat="45.19257929079599" lon="9.355846974562146"><ele>70.0</ele><time>2026-04-19T09:32:35Z</time></trkpt><trkpt lat="45.19250645829886" lon="9.355784269720234"><ele>70.0</ele><time>2026-04-19T09:32:36Z</time></trkpt><trkpt lat="45.192411984579124" lon="9.355768723698631"><ele>70.0</ele><time>2026-04-19T09:32:37Z</time></trkpt><trkpt lat="45.19231392604431" lon="9.35583329216054"><ele>70.0</ele><time>2026-04-19T09:32:38Z</time></trkpt><trkpt lat="45.192207348853024" lon="9.355894873915306"><ele>69.8</ele><time>2026-04-19T09:32:39Z</time></trkpt><trkpt lat="45.19212027484238" lon="9.355973331013828"><ele>69.6</ele><time>2026-04-19T09:32:40Z</time></trkpt><trkpt lat="45.19204052770583" lon="9.35601722805707"><ele>69.4</ele><time>2026-04-19T09:32:41Z</time></trkpt><trkpt lat="45.19197746167551" lon="9.35605823330427"><ele>69.2</ele><time>2026-04-19T09:32:42Z</time></trkpt><trkpt lat="45.19186283300071" lon="9.356107560451067"><ele>69.0</ele><time>2026-04-19T09:32:44Z</time></trkpt><trkpt lat="45.19173008740933" lon="9.356047247877838"><ele>69.0</ele><time>2026-04-19T09:32:46Z</time></trkpt><trkpt lat="45.19170456862151" lon="9.355911429015212"><ele>69.0</ele><time>2026-04-19T09:32:47Z</time></trkpt><trkpt lat="45.19163990356741" lon="9.355778016274254"><ele>69.0</ele><time>2026-04-19T09:32:48Z</time></trkpt><trkpt lat="45.191561353018606" lon="9.355638703183596"><ele>69.0</ele><time>2026-04-19T09:32:49Z</time></trkpt><trkpt lat="45.19144973287388" lon="9.355499668706075"><ele>69.33333333333333</ele><time>2026-04-19T09:32:50Z</time></trkpt><trkpt lat="45.19133679901265" lon="9.355335570130489"><ele>69.66666666666666</ele><time>2026-04-19T09:32:51Z</time></trkpt><trkpt lat="45.19121639274482" lon="9.355164610006321"><ele>70.0</ele><time>2026-04-19T09:32:52Z</time></trkpt><trkpt lat="45.19109441493405" lon="9.354986968555"><ele>70.0</ele><time>2026-04-19T09:32:53Z</time></trkpt><trkpt lat="45.19096497824355" lon="9.354803656387249"><ele>70.0</ele><time>2026-04-19T09:32:54Z</time></trkpt><trkpt lat="45.19083439185127" lon="9.354617030506754"><ele>70.0</ele><time>2026-04-19T09:32:55Z</time></trkpt><trkpt lat="45.190722634511445" lon="9.354430368700017"><ele>69.66666666666666</ele><time>2026-04-19T09:32:56Z</time></trkpt><trkpt lat="45.19058159645829" lon="9.35426044837808"><ele>69.33333333333333</ele><time>2026-04-19T09:32:57Z</time></trkpt><trkpt lat="45.190479707139296" lon="9.354082565520285"><ele>69.0</ele><time>2026-04-19T09:32:58Z</time></trkpt><trkpt lat="45.190376585857585" lon="9.353932273483109"><ele>69.25</ele><time>2026-04-19T09:32:59Z</time></trkpt><trkpt lat="45.19027206188315" lon="9.35380652430448"><ele>69.5</ele><time>2026-04-19T09:33:00Z</time></trkpt><trkpt lat="45.190166169528624" lon="9.353691577666245"><ele>69.75</ele><time>2026-04-19T09:33:01Z</time></trkpt><trkpt lat="45.19003870573485" lon="9.353584321163265"><ele>70.0</ele><time>2026-04-19T09:33:02Z</time></trkpt><trkpt lat="45.18991634022089" lon="9.353490301093121"><ele>70.0</ele><time>2026-04-19T09:33:03Z</time></trkpt><trkpt lat="45.18977311090317" lon="9.353420528694354"><ele>70.0</ele><time>2026-04-19T09:33:04Z</time></trkpt><trkpt lat="45.18962627966006" lon="9.353373695426445"><ele>70.0</ele><time>2026-04-19T09:33:05Z</time></trkpt><trkpt lat="45.18947535594349" lon="9.353357363648357"><ele>70.0</ele><time>2026-04-19T09:33:06Z</time></trkpt><trkpt lat="45.1892711690758" lon="9.353334113137159"><ele>70.0</ele><time>2026-04-19T09:33:07Z</time></trkpt><trkpt lat="45.1890743334592" lon="9.35328709781865"><ele>70.0</ele><time>2026-04-19T09:33:08Z</time></trkpt><trkpt lat="45.188868162208294" lon="9.353264717206137"><ele>69.5</ele><time>2026-04-19T09:33:09Z</time></trkpt><trkpt lat="45.18864874748558" lon="9.353239860642883"><ele>69.0</ele><time>2026-04-19T09:33:10Z</time></trkpt><trkpt lat="45.18841423748169" lon="9.353196827096529"><ele>69.0</ele><time>2026-04-19T09:33:11Z</time></trkpt><trkpt lat="45.18817990326982" lon="9.353147427383616"><ele>69.0</ele><time>2026-04-19T09:33:12Z</time></trkpt><trkpt lat="45.187937844651486" lon="9.353095968325562"><ele>69.0</ele><time>2026-04-19T09:33:13Z</time></trkpt><trkpt lat="45.187693748816066" lon="9.353042046406076"><ele>69.0</ele><time>2026-04-19T09:33:14Z</time></trkpt><trkpt lat="45.18747734808041" lon="9.352993828850867"><ele>69.0</ele><time>2026-04-19T09:33:15Z</time></trkpt><trkpt lat="45.18728641934447" lon="9.352954265147554"><ele>69.0</ele><time>2026-04-19T09:33:16Z</time></trkpt><trkpt lat="45.18712018557179" lon="9.352920165384468"><ele>69.0</ele><time>2026-04-19T09:33:17Z</time></trkpt><trkpt lat="45.186967395545814" lon="9.35288882333275"><ele>69.0</ele><time>2026-04-19T09:33:18Z</time></trkpt><trkpt lat="45.18681669657266" lon="9.352857910237526"><ele>69.0</ele><time>2026-04-19T09:33:19Z</time></trkpt><trkpt lat="45.18667882083666" lon="9.35282962758991"><ele>69.0</ele><time>2026-04-19T09:33:20Z</time></trkpt><trkpt lat="45.1865403735859" lon="9.352800402463728"><ele>69.0</ele><time>2026-04-19T09:33:21Z</time></trkpt><trkpt lat="45.186413731440226" lon="9.352773416981124"><ele>69.0</ele><time>2026-04-19T09:33:22Z</time></trkpt><trkpt lat="45.18629771892415" lon="9.352748961004158"><ele>69.0</ele><time>2026-04-19T09:33:23Z</time></trkpt><trkpt lat="45.18619593403622" lon="9.352728668532142"><ele>69.0</ele><time>2026-04-19T09:33:24Z</time></trkpt><trkpt lat="45.1860992969708" lon="9.352709402354629"><ele>69.0</ele><time>2026-04-19T09:33:25Z</time></trkpt><trkpt lat="45.18600613854229" lon="9.352690829700245"><ele>69.0</ele><time>2026-04-19T09:33:26Z</time></trkpt><trkpt lat="45.18591747851109" lon="9.352673153869997"><ele>69.0</ele><time>2026-04-19T09:33:27Z</time></trkpt><trkpt lat="45.18584440271005" lon="9.352652976343279"><ele>69.0</ele><time>2026-04-19T09:33:28Z</time></trkpt><trkpt lat="45.18578009173803" lon="9.352624908973445"><ele>69.0</ele><time>2026-04-19T09:33:29Z</time></trkpt><trkpt lat="45.18572137068284" lon="9.352586951698099"><ele>69.0</ele><time>2026-04-19T09:33:30Z</time></trkpt><trkpt lat="45.18568950536418" lon="9.352431908910738"><ele>69.0</ele><time>2026-04-19T09:33:32Z</time></trkpt><trkpt lat="45.18570717420825" lon="9.3522553547517"><ele>69.0</ele><time>2026-04-19T09:33:34Z</time></trkpt><trkpt lat="45.185711291718974" lon="9.352119787981906"><ele>69.2</ele><time>2026-04-19T09:33:35Z</time></trkpt><trkpt lat="45.18571551462789" lon="9.351948659626535"><ele>69.4</ele><time>2026-04-19T09:33:36Z</time></trkpt><trkpt lat="45.18571938845504" lon="9.351791677388071"><ele>69.6</ele><time>2026-04-19T09:33:37Z</time></trkpt><trkpt lat="45.18572292951216" lon="9.351648180245233"><ele>69.8</ele><time>2026-04-19T09:33:38Z</time></trkpt><trkpt lat="45.18572647072402" lon="9.351504676781001"><ele>70.0</ele><time>2026-04-19T09:33:39Z</time></trkpt><trkpt lat="45.18573007947554" lon="9.351353222232623"><ele>70.0</ele><time>2026-04-19T09:33:40Z</time></trkpt><trkpt lat="45.185733042061955" lon="9.351206034058984"><ele>70.0</ele><time>2026-04-19T09:33:41Z</time></trkpt><trkpt lat="45.18571648001528" lon="9.35106942175354"><ele>70.0</ele><time>2026-04-19T09:33:42Z</time></trkpt><trkpt lat="45.18571236587573" lon="9.350950710133548"><ele>70.0</ele><time>2026-04-19T09:33:43Z</time></trkpt><trkpt lat="45.18569205760262" lon="9.350830554371171"><ele>70.0</ele><time>2026-04-19T09:33:44Z</time></trkpt><trkpt lat="45.18561577268441" lon="9.350734434123359"><ele>70.0</ele><time>2026-04-19T09:33:45Z</time></trkpt><trkpt lat="45.18550949646987" lon="9.350696147377139"><ele>70.0</ele><time>2026-04-19T09:33:46Z</time></trkpt><trkpt lat="45.185391003791" lon="9.350628094504046"><ele>70.0</ele><time>2026-04-19T09:33:47Z</time></trkpt><trkpt lat="45.18527471332347" lon="9.35053828423455"><ele>70.0</ele><time>2026-04-19T09:33:48Z</time></trkpt><trkpt lat="45.185153999160306" lon="9.350466557855457"><ele>69.75</ele><time>2026-04-19T09:33:49Z</time></trkpt><trkpt lat="45.185046960745694" lon="9.350399654157732"><ele>69.5</ele><time>2026-04-19T09:33:50Z</time></trkpt><trkpt lat="45.18493802908178" lon="9.35032645430286"><ele>69.25</ele><time>2026-04-19T09:33:51Z</time></trkpt><trkpt lat="45.18483337022733" lon="9.350255006393585"><ele>69.0</ele><time>2026-04-19T09:33:52Z</time></trkpt><trkpt lat="45.184734092383856" lon="9.350187231600106"><ele>69.0</ele><time>2026-04-19T09:33:53Z</time></trkpt><trkpt lat="45.18460498065026" lon="9.350098243928134"><ele>69.0</ele><time>2026-04-19T09:33:54Z</time></trkpt><trkpt lat="45.184486993076774" lon="9.35001408880961"><ele>69.0</ele><time>2026-04-19T09:33:55Z</time></trkpt><trkpt lat="45.18436154417779" lon="9.349924612357187"><ele>69.0</ele><time>2026-04-19T09:33:56Z</time></trkpt><trkpt lat="45.18424089632812" lon="9.349838839193445"><ele>69.0</ele><time>2026-04-19T09:33:57Z</time></trkpt><trkpt lat="45.184127643131106" lon="9.34975848715257"><ele>69.0</ele><time>2026-04-19T09:33:58Z</time></trkpt><trkpt lat="45.18400156279463" lon="9.34966903448748"><ele>69.0</ele><time>2026-04-19T09:33:59Z</time></trkpt><trkpt lat="45.1838708196293" lon="9.349576273629628"><ele>69.0</ele><time>2026-04-19T09:34:00Z</time></trkpt><trkpt lat="45.18373341557515" lon="9.349478786940251"><ele>69.0</ele><time>2026-04-19T09:34:01Z</time></trkpt><trkpt lat="45.183597349974306" lon="9.349382249881042"><ele>69.0</ele><time>2026-04-19T09:34:02Z</time></trkpt><trkpt lat="45.183454042937484" lon="9.34928893810195"><ele>69.0</ele><time>2026-04-19T09:34:03Z</time></trkpt><trkpt lat="45.183320210140586" lon="9.34920586854956"><ele>69.0</ele><time>2026-04-19T09:34:04Z</time></trkpt><trkpt lat="45.18318323839209" lon="9.349115172315564"><ele>69.0</ele><time>2026-04-19T09:34:05Z</time></trkpt><trkpt lat="45.1830470795038" lon="9.349022596044119"><ele>69.0</ele><time>2026-04-19T09:34:06Z</time></trkpt><trkpt lat="45.18291105727682" lon="9.348938464822321"><ele>68.5</ele><time>2026-04-19T09:34:07Z</time></trkpt><trkpt lat="45.182779177271186" lon="9.348848559499176"><ele>68.0</ele><time>2026-04-19T09:34:08Z</time></trkpt><trkpt lat="45.18265120959504" lon="9.348757043899425"><ele>67.5</ele><time>2026-04-19T09:34:09Z</time></trkpt><trkpt lat="45.18254216000914" lon="9.348661708133717"><ele>67.0</ele><time>2026-04-19T09:34:10Z</time></trkpt><trkpt lat="45.182445547362626" lon="9.34856838597613"><ele>67.0</ele><time>2026-04-19T09:34:11Z</time></trkpt><trkpt lat="45.182351635584006" lon="9.348484484349573"><ele>67.0</ele><time>2026-04-19T09:34:12Z</time></trkpt><trkpt lat="45.18226854490082" lon="9.348395654603989"><ele>67.0</ele><time>2026-04-19T09:34:13Z</time></trkpt><trkpt lat="45.18219761211738" lon="9.348294698512392"><ele>67.0</ele><time>2026-04-19T09:34:14Z</time></trkpt><trkpt lat="45.18211603062818" lon="9.348233739982968"><ele>67.0</ele><time>2026-04-19T09:34:15Z</time></trkpt><trkpt lat="45.18199904581406" lon="9.348174186365442"><ele>67.5</ele><time>2026-04-19T09:34:16Z</time></trkpt><trkpt lat="45.18187439900402" lon="9.348130097935067"><ele>68.0</ele><time>2026-04-19T09:34:17Z</time></trkpt><trkpt lat="45.181753152390364" lon="9.348070869034675"><ele>68.5</ele><time>2026-04-19T09:34:18Z</time></trkpt><trkpt lat="45.18162980040942" lon="9.348054703198006"><ele>69.0</ele><time>2026-04-19T09:34:19Z</time></trkpt><trkpt lat="45.181511053212915" lon="9.34801506744303"><ele>69.25</ele><time>2026-04-19T09:34:20Z</time></trkpt><trkpt lat="45.18138655926311" lon="9.347975133168495"><ele>69.5</ele><time>2026-04-19T09:34:21Z</time></trkpt><trkpt lat="45.181259716546165" lon="9.347932563100787"><ele>69.75</ele><time>2026-04-19T09:34:22Z</time></trkpt><trkpt lat="45.1811301139182" lon="9.347894179671439"><ele>70.0</ele><time>2026-04-19T09:34:23Z</time></trkpt><trkpt lat="45.18101006299582" lon="9.347856590227309"><ele>70.0</ele><time>2026-04-19T09:34:24Z</time></trkpt><trkpt lat="45.18090182727571" lon="9.347835916549393"><ele>70.0</ele><time>2026-04-19T09:34:25Z</time></trkpt><trkpt lat="45.18080830882311" lon="9.347812792811778"><ele>70.0</ele><time>2026-04-19T09:34:26Z</time></trkpt><trkpt lat="45.18072726353605" lon="9.347795700826332"><ele>70.0</ele><time>2026-04-19T09:34:27Z</time></trkpt><trkpt lat="45.18062781933106" lon="9.347761753418"><ele>70.0</ele><time>2026-04-19T09:34:29Z</time></trkpt><trkpt lat="45.18054126311628" lon="9.347758518581522"><ele>70.25</ele><time>2026-04-19T09:34:32Z</time></trkpt><trkpt lat="45.18039405671002" lon="9.347779264224492"><ele>70.5</ele><time>2026-04-19T09:34:34Z</time></trkpt><trkpt lat="45.18029769505491" lon="9.347807925226926"><ele>70.75</ele><time>2026-04-19T09:34:35Z</time></trkpt><trkpt lat="45.18018835715029" lon="9.347838235466748"><ele>71.0</ele><time>2026-04-19T09:34:36Z</time></trkpt><trkpt lat="45.180093757662554" lon="9.347888880531043"><ele>71.0</ele><time>2026-04-19T09:34:37Z</time></trkpt><trkpt lat="45.18000298185178" lon="9.347910599368394"><ele>71.0</ele><time>2026-04-19T09:34:38Z</time></trkpt><trkpt lat="45.179912174773" lon="9.347925580432637"><ele>71.0</ele><time>2026-04-19T09:34:39Z</time></trkpt><trkpt lat="45.17983002165811" lon="9.347947287983649"><ele>71.0</ele><time>2026-04-19T09:34:40Z</time></trkpt><trkpt lat="45.17975258725985" lon="9.347968406413102"><ele>71.0</ele><time>2026-04-19T09:34:41Z</time></trkpt><trkpt lat="45.179684260668566" lon="9.347981662818858"><ele>71.0</ele><time>2026-04-19T09:34:42Z</time></trkpt><trkpt lat="45.179587963999275" lon="9.347993595560759"><ele>71.0</ele><time>2026-04-19T09:34:44Z</time></trkpt><trkpt lat="45.179571560422595" lon="9.347779623650245"><ele>71.0</ele><time>2026-04-19T09:34:47Z</time></trkpt><trkpt lat="45.17955659524733" lon="9.34765431813383"><ele>71.0</ele><time>2026-04-19T09:34:48Z</time></trkpt><trkpt lat="45.17957223298251" lon="9.347565937426188"><ele>71.0</ele><time>2026-04-19T09:34:49Z</time></trkpt><trkpt lat="45.17958826719324" lon="9.347474025873412"><ele>71.0</ele><time>2026-04-19T09:34:50Z</time></trkpt><trkpt lat="45.17960739826704" lon="9.3473767049672"><ele>71.0</ele><time>2026-04-19T09:34:51Z</time></trkpt><trkpt lat="45.179633285707624" lon="9.347275815099778"><ele>70.0</ele><time>2026-04-19T09:34:52Z</time></trkpt><trkpt lat="45.17962544623764" lon="9.347164682234531"><ele>69.0</ele><time>2026-04-19T09:34:53Z</time></trkpt><trkpt lat="45.17956786446646" lon="9.347033329321734"><ele>68.0</ele><time>2026-04-19T09:34:54Z</time></trkpt><trkpt lat="45.17953599543222" lon="9.346880248709768"><ele>67.0</ele><time>2026-04-19T09:34:55Z</time></trkpt><trkpt lat="45.17948194000499" lon="9.346736623174024"><ele>66.0</ele><time>2026-04-19T09:34:56Z</time></trkpt><trkpt lat="45.17944736849665" lon="9.346588355778064"><ele>66.0</ele><time>2026-04-19T09:34:57Z</time></trkpt><trkpt lat="45.17941399887072" lon="9.346438690009759"><ele>66.0</ele><time>2026-04-19T09:34:58Z</time></trkpt><trkpt lat="45.17938988682148" lon="9.346291186452715"><ele>66.0</ele><time>2026-04-19T09:34:59Z</time></trkpt><trkpt lat="45.17936853978014" lon="9.34616080885623"><ele>66.0</ele><time>2026-04-19T09:35:00Z</time></trkpt><trkpt lat="45.179333785463776" lon="9.346043476052722"><ele>66.0</ele><time>2026-04-19T09:35:01Z</time></trkpt><trkpt lat="45.179290041856824" lon="9.345940090145582"><ele>65.0</ele><time>2026-04-19T09:35:02Z</time></trkpt><trkpt lat="45.17924023474856" lon="9.345843630698102"><ele>64.0</ele><time>2026-04-19T09:35:03Z</time></trkpt><trkpt lat="45.179120705669135" lon="9.345814308226453"><ele>63.0</ele><time>2026-04-19T09:35:04Z</time></trkpt><trkpt lat="45.17898280022485" lon="9.345804267464134"><ele>62.0</ele><time>2026-04-19T09:35:05Z</time></trkpt><trkpt lat="45.17884579671411" lon="9.345768025981442"><ele>61.5</ele><time>2026-04-19T09:35:06Z</time></trkpt><trkpt lat="45.178711570088446" lon="9.345754647999941"><ele>61.0</ele><time>2026-04-19T09:35:07Z</time></trkpt><trkpt lat="45.17857870817887" lon="9.345770198895885"><ele>60.5</ele><time>2026-04-19T09:35:08Z</time></trkpt><trkpt lat="45.17844793324188" lon="9.345797460818341"><ele>60.0</ele><time>2026-04-19T09:35:09Z</time></trkpt><trkpt lat="45.17833478776079" lon="9.34583038489368"><ele>60.0</ele><time>2026-04-19T09:35:10Z</time></trkpt><trkpt lat="45.178242108448956" lon="9.3458273077223"><ele>60.0</ele><time>2026-04-19T09:35:11Z</time></trkpt><trkpt lat="45.17815706500469" lon="9.34582904775609"><ele>60.0</ele><time>2026-04-19T09:35:12Z</time></trkpt><trkpt lat="45.17808430833373" lon="9.345822139587765"><ele>60.0</ele><time>2026-04-19T09:35:13Z</time></trkpt><trkpt lat="45.17802182156752" lon="9.345740401306623"><ele>60.0</ele><time>2026-04-19T09:35:14Z</time></trkpt><trkpt lat="45.17799719448656" lon="9.345628937836498"><ele>60.0</ele><time>2026-04-19T09:35:15Z</time></trkpt><trkpt lat="45.17799450838763" lon="9.345495744834988"><ele>60.25</ele><time>2026-04-19T09:35:16Z</time></trkpt><trkpt lat="45.17799508613513" lon="9.345340266702136"><ele>60.5</ele><time>2026-04-19T09:35:17Z</time></trkpt><trkpt lat="45.177985514401634" lon="9.345165134856042"><ele>60.75</ele><time>2026-04-19T09:35:18Z</time></trkpt><trkpt lat="45.177978228736855" lon="9.344985983508485"><ele>61.0</ele><time>2026-04-19T09:35:19Z</time></trkpt><trkpt lat="45.17797793198289" lon="9.344801518109175"><ele>60.8</ele><time>2026-04-19T09:35:20Z</time></trkpt><trkpt lat="45.17797490814802" lon="9.344639273762978"><ele>60.599999999999994</ele><time>2026-04-19T09:35:21Z</time></trkpt><trkpt lat="45.17798047343614" lon="9.344478343879116"><ele>60.4</ele><time>2026-04-19T09:35:22Z</time></trkpt><trkpt lat="45.17799065353068" lon="9.344327097953643"><ele>60.2</ele><time>2026-04-19T09:35:23Z</time></trkpt><trkpt lat="45.17799115300636" lon="9.344186601969747"><ele>60.0</ele><time>2026-04-19T09:35:24Z</time></trkpt><trkpt lat="45.17795598147377" lon="9.344009738754151"><ele>60.0</ele><time>2026-04-19T09:35:25Z</time></trkpt><trkpt lat="45.17792662417855" lon="9.343821797072147"><ele>60.0</ele><time>2026-04-19T09:35:26Z</time></trkpt><trkpt lat="45.177898560514244" lon="9.343658520639003"><ele>60.0</ele><time>2026-04-19T09:35:27Z</time></trkpt><trkpt lat="45.17786448929924" lon="9.343500065214386"><ele>60.0</ele><time>2026-04-19T09:35:28Z</time></trkpt><trkpt lat="45.17784565642734" lon="9.343345599538651"><ele>60.0</ele><time>2026-04-19T09:35:29Z</time></trkpt><trkpt lat="45.17782861528464" lon="9.343219380069801"><ele>60.0</ele><time>2026-04-19T09:35:30Z</time></trkpt><trkpt lat="45.177808020648264" lon="9.343122703150843"><ele>60.0</ele><time>2026-04-19T09:35:31Z</time></trkpt><trkpt lat="45.17778560672622" lon="9.343032015170843"><ele>60.0</ele><time>2026-04-19T09:35:32Z</time></trkpt><trkpt lat="45.177708338779944" lon="9.342966130972139"><ele>60.0</ele><time>2026-04-19T09:35:33Z</time></trkpt><trkpt lat="45.17757001211121" lon="9.342994688947973"><ele>60.2</ele><time>2026-04-19T09:35:34Z</time></trkpt><trkpt lat="45.17745897594925" lon="9.342976146001963"><ele>60.4</ele><time>2026-04-19T09:35:35Z</time></trkpt><trkpt lat="45.177358364559346" lon="9.342957518292335"><ele>60.599999999999994</ele><time>2026-04-19T09:35:36Z</time></trkpt><trkpt lat="45.17726432906324" lon="9.342922491199419"><ele>60.8</ele><time>2026-04-19T09:35:37Z</time></trkpt><trkpt lat="45.177172754054816" lon="9.34293114484355"><ele>61.0</ele><time>2026-04-19T09:35:38Z</time></trkpt><trkpt lat="45.177092464302994" lon="9.342942393888661"><ele>62.0</ele><time>2026-04-19T09:35:39Z</time></trkpt><trkpt lat="45.17702500190107" lon="9.34294226255112"><ele>62.99999999999999</ele><time>2026-04-19T09:35:40Z</time></trkpt><trkpt lat="45.176942706275604" lon="9.342882552805762"><ele>63.99999999999999</ele><time>2026-04-19T09:35:42Z</time></trkpt><trkpt lat="45.17694078166608" lon="9.342688685977933"><ele>65.0</ele><time>2026-04-19T09:35:44Z</time></trkpt><trkpt lat="45.176947650593696" lon="9.342564357883663"><ele>66.0</ele><time>2026-04-19T09:35:45Z</time></trkpt><trkpt lat="45.17697654799163" lon="9.342443591588786"><ele>66.0</ele><time>2026-04-19T09:35:46Z</time></trkpt><trkpt lat="45.17702716431023" lon="9.342332680688477"><ele>66.0</ele><time>2026-04-19T09:35:47Z</time></trkpt><trkpt lat="45.177088579347846" lon="9.342208358232783"><ele>66.0</ele><time>2026-04-19T09:35:48Z</time></trkpt><trkpt lat="45.177158868313455" lon="9.342076060200755"><ele>66.0</ele><time>2026-04-19T09:35:49Z</time></trkpt><trkpt lat="45.1772238266291" lon="9.3419248489338"><ele>66.0</ele><time>2026-04-19T09:35:50Z</time></trkpt><trkpt lat="45.17730806897302" lon="9.341813166491391"><ele>65.5</ele><time>2026-04-19T09:35:51Z</time></trkpt><trkpt lat="45.17738148371437" lon="9.341692974189684"><ele>65.0</ele><time>2026-04-19T09:35:52Z</time></trkpt><trkpt lat="45.17744631118832" lon="9.341550591206872"><ele>64.5</ele><time>2026-04-19T09:35:53Z</time></trkpt><trkpt lat="45.177497247014045" lon="9.34139985547369"><ele>64.0</ele><time>2026-04-19T09:35:54Z</time></trkpt><trkpt lat="45.17754377919781" lon="9.341234129922173"><ele>65.0</ele><time>2026-04-19T09:35:55Z</time></trkpt><trkpt lat="45.17759456947048" lon="9.341055635522665"><ele>66.0</ele><time>2026-04-19T09:35:56Z</time></trkpt><trkpt lat="45.177626321033394" lon="9.34087201103951"><ele>67.0</ele><time>2026-04-19T09:35:57Z</time></trkpt><trkpt lat="45.177656425661326" lon="9.34070869459436"><ele>68.0</ele><time>2026-04-19T09:35:58Z</time></trkpt><trkpt lat="45.17768663992358" lon="9.340544396091618"><ele>68.0</ele><time>2026-04-19T09:35:59Z</time></trkpt><trkpt lat="45.177701469203306" lon="9.34036711959323"><ele>68.0</ele><time>2026-04-19T09:36:00Z</time></trkpt><trkpt lat="45.17772363331341" lon="9.340180434714272"><ele>68.0</ele><time>2026-04-19T09:36:01Z</time></trkpt><trkpt lat="45.17774481905209" lon="9.339967079823401"><ele>68.0</ele><time>2026-04-19T09:36:02Z</time></trkpt><trkpt lat="45.1777497689271" lon="9.3397370257377"><ele>68.25</ele><time>2026-04-19T09:36:03Z</time></trkpt><trkpt lat="45.17775663405814" lon="9.339513176821615"><ele>68.5</ele><time>2026-04-19T09:36:04Z</time></trkpt><trkpt lat="45.17776002590379" lon="9.33930385163343"><ele>68.75</ele><time>2026-04-19T09:36:05Z</time></trkpt><trkpt lat="45.17775603171247" lon="9.339109407760667"><ele>69.0</ele><time>2026-04-19T09:36:06Z</time></trkpt><trkpt lat="45.177758684534844" lon="9.338930172804222"><ele>69.2</ele><time>2026-04-19T09:36:07Z</time></trkpt><trkpt lat="45.17777079505397" lon="9.33876291347517"><ele>69.4</ele><time>2026-04-19T09:36:08Z</time></trkpt><trkpt lat="45.177760551301" lon="9.338619380877999"><ele>69.6</ele><time>2026-04-19T09:36:09Z</time></trkpt><trkpt lat="45.177789049357756" lon="9.338494824557127"><ele>69.8</ele><time>2026-04-19T09:36:10Z</time></trkpt><trkpt lat="45.17785898136836" lon="9.338391094939572"><ele>70.0</ele><time>2026-04-19T09:36:11Z</time></trkpt><trkpt lat="45.177967260186136" lon="9.338366341437766"><ele>70.0</ele><time>2026-04-19T09:36:12Z</time></trkpt><trkpt lat="45.17807973943112" lon="9.338310783253368"><ele>70.0</ele><time>2026-04-19T09:36:13Z</time></trkpt><trkpt lat="45.17820417371946" lon="9.33825288173942"><ele>70.0</ele><time>2026-04-19T09:36:14Z</time></trkpt><trkpt lat="45.17833496007192" lon="9.33819112731491"><ele>70.0</ele><time>2026-04-19T09:36:15Z</time></trkpt><trkpt lat="45.17845445963277" lon="9.338134656102001"><ele>70.0</ele><time>2026-04-19T09:36:16Z</time></trkpt><trkpt lat="45.178564741603964" lon="9.338083750063179"><ele>70.0</ele><time>2026-04-19T09:36:17Z</time></trkpt><trkpt lat="45.17866778398839" lon="9.338035887308148"><ele>70.0</ele><time>2026-04-19T09:36:18Z</time></trkpt><trkpt lat="45.178757832174306" lon="9.33798471824522"><ele>70.0</ele><time>2026-04-19T09:36:19Z</time></trkpt><trkpt lat="45.178837498923976" lon="9.337904219538963"><ele>70.0</ele><time>2026-04-19T09:36:20Z</time></trkpt><trkpt lat="45.178881586957196" lon="9.337753682624706"><ele>70.0</ele><time>2026-04-19T09:36:21Z</time></trkpt><trkpt lat="45.17888390990067" lon="9.337573267078985"><ele>70.0</ele><time>2026-04-19T09:36:22Z</time></trkpt><trkpt lat="45.17888391366135" lon="9.33737351146906"><ele>70.0</ele><time>2026-04-19T09:36:23Z</time></trkpt><trkpt lat="45.17888172412497" lon="9.33715237601806"><ele>70.0</ele><time>2026-04-19T09:36:24Z</time></trkpt><trkpt lat="45.17887819851407" lon="9.33692091036092"><ele>70.0</ele><time>2026-04-19T09:36:25Z</time></trkpt><trkpt lat="45.178874622282116" lon="9.336686121323245"><ele>70.0</ele><time>2026-04-19T09:36:26Z</time></trkpt><trkpt lat="45.1788720827122" lon="9.336460356979236"><ele>70.0</ele><time>2026-04-19T09:36:27Z</time></trkpt><trkpt lat="45.178870282483345" lon="9.336231632867978"><ele>70.0</ele><time>2026-04-19T09:36:28Z</time></trkpt><trkpt lat="45.178851763270025" lon="9.335993495317743"><ele>70.0</ele><time>2026-04-19T09:36:29Z</time></trkpt><trkpt lat="45.178850434651146" lon="9.335752755875895"><ele>70.0</ele><time>2026-04-19T09:36:30Z</time></trkpt><trkpt lat="45.17884895513699" lon="9.335504894333715"><ele>70.0</ele><time>2026-04-19T09:36:31Z</time></trkpt><trkpt lat="45.17886402782022" lon="9.33525950787304"><ele>70.0</ele><time>2026-04-19T09:36:32Z</time></trkpt><trkpt lat="45.17884503024125" lon="9.335028752861984"><ele>70.0</ele><time>2026-04-19T09:36:33Z</time></trkpt><trkpt lat="45.17885868988958" lon="9.334807318650375"><ele>70.5</ele><time>2026-04-19T09:36:34Z</time></trkpt><trkpt lat="45.178856041248146" lon="9.334602554991402"><ele>71.0</ele><time>2026-04-19T09:36:35Z</time></trkpt><trkpt lat="45.17885352079747" lon="9.334407701625986"><ele>71.5</ele><time>2026-04-19T09:36:36Z</time></trkpt><trkpt lat="45.178851346188054" lon="9.334229339086336"><ele>72.0</ele><time>2026-04-19T09:36:37Z</time></trkpt><trkpt lat="45.178851346187926" lon="9.33405150574116"><ele>72.0</ele><time>2026-04-19T09:36:38Z</time></trkpt><trkpt lat="45.178854143053016" lon="9.333903620988966"><ele>72.0</ele><time>2026-04-19T09:36:39Z</time></trkpt><trkpt lat="45.178862964134986" lon="9.333732384753992"><ele>72.0</ele><time>2026-04-19T09:36:40Z</time></trkpt><trkpt lat="45.17886268922099" lon="9.33359375775242"><ele>72.0</ele><time>2026-04-19T09:36:41Z</time></trkpt><trkpt lat="45.17887439413129" lon="9.33341431124656"><ele>71.5</ele><time>2026-04-19T09:36:42Z</time></trkpt><trkpt lat="45.17888066336839" lon="9.33322999092303"><ele>71.0</ele><time>2026-04-19T09:36:43Z</time></trkpt><trkpt lat="45.1788900147201" lon="9.333012776591248"><ele>70.5</ele><time>2026-04-19T09:36:44Z</time></trkpt><trkpt lat="45.17890849591981" lon="9.3327805736826"><ele>70.0</ele><time>2026-04-19T09:36:45Z</time></trkpt><trkpt lat="45.178940736403554" lon="9.332528067029639"><ele>70.0</ele><time>2026-04-19T09:36:46Z</time></trkpt><trkpt lat="45.1789600869661" lon="9.332274126233632"><ele>70.0</ele><time>2026-04-19T09:36:47Z</time></trkpt><trkpt lat="45.17898034474259" lon="9.332008279941563"><ele>70.0</ele><time>2026-04-19T09:36:48Z</time></trkpt><trkpt lat="45.17900034821482" lon="9.331745770912507"><ele>70.0</ele><time>2026-04-19T09:36:49Z</time></trkpt><trkpt lat="45.17902019746852" lon="9.331485285704895"><ele>70.0</ele><time>2026-04-19T09:36:50Z</time></trkpt><trkpt lat="45.179040272069585" lon="9.331221843219977"><ele>70.0</ele><time>2026-04-19T09:36:51Z</time></trkpt><trkpt lat="45.17906014304685" lon="9.330964452504318"><ele>70.0</ele><time>2026-04-19T09:36:52Z</time></trkpt><trkpt lat="45.179082005733456" lon="9.330703911897249"><ele>70.0</ele><time>2026-04-19T09:36:53Z</time></trkpt><trkpt lat="45.179105019394896" lon="9.33044472576418"><ele>70.0</ele><time>2026-04-19T09:36:54Z</time></trkpt><trkpt lat="45.17913280127122" lon="9.330175963129586"><ele>70.33333333333333</ele><time>2026-04-19T09:36:55Z</time></trkpt><trkpt lat="45.17916949419251" lon="9.329909100432266"><ele>70.66666666666667</ele><time>2026-04-19T09:36:56Z</time></trkpt><trkpt lat="45.17921378694861" lon="9.329629695731995"><ele>71.0</ele><time>2026-04-19T09:36:57Z</time></trkpt><trkpt lat="45.17925682652529" lon="9.329358196309913"><ele>70.33333333333334</ele><time>2026-04-19T09:36:58Z</time></trkpt><trkpt lat="45.179299159705344" lon="9.329091152968987"><ele>69.66666666666667</ele><time>2026-04-19T09:36:59Z</time></trkpt><trkpt lat="45.17934467528012" lon="9.328804034605193"><ele>69.0</ele><time>2026-04-19T09:37:00Z</time></trkpt><trkpt lat="45.17938906915706" lon="9.328520266543356"><ele>69.0</ele><time>2026-04-19T09:37:01Z</time></trkpt><trkpt lat="45.17942776371864" lon="9.328264967340845"><ele>69.0</ele><time>2026-04-19T09:37:02Z</time></trkpt><trkpt lat="45.17946304693051" lon="9.328027106559805"><ele>69.0</ele><time>2026-04-19T09:37:03Z</time></trkpt><trkpt lat="45.17949523199323" lon="9.327808414056916"><ele>69.0</ele><time>2026-04-19T09:37:04Z</time></trkpt><trkpt lat="45.179527808892985" lon="9.327586379072084"><ele>69.0</ele><time>2026-04-19T09:37:05Z</time></trkpt><trkpt lat="45.1795437039551" lon="9.327362888655813"><ele>69.0</ele><time>2026-04-19T09:37:06Z</time></trkpt><trkpt lat="45.17958889490572" lon="9.327165588173038"><ele>69.0</ele><time>2026-04-19T09:37:07Z</time></trkpt><trkpt lat="45.17960061791388" lon="9.326970613263786"><ele>69.0</ele><time>2026-04-19T09:37:08Z</time></trkpt><trkpt lat="45.179642529352186" lon="9.326798854898962"><ele>69.0</ele><time>2026-04-19T09:37:09Z</time></trkpt><trkpt lat="45.17966852446989" lon="9.326662236709943"><ele>69.0</ele><time>2026-04-19T09:37:10Z</time></trkpt><trkpt lat="45.1797161589303" lon="9.326515242070512"><ele>69.0</ele><time>2026-04-19T09:37:11Z</time></trkpt><trkpt lat="45.179811331940826" lon="9.3263982366273"><ele>69.0</ele><time>2026-04-19T09:37:12Z</time></trkpt><trkpt lat="45.17993449144077" lon="9.326287488786532"><ele>69.0</ele><time>2026-04-19T09:37:13Z</time></trkpt><trkpt lat="45.18005644949427" lon="9.326179861856584"><ele>69.0</ele><time>2026-04-19T09:37:14Z</time></trkpt><trkpt lat="45.180164627825754" lon="9.326084456181396"><ele>68.75</ele><time>2026-04-19T09:37:15Z</time></trkpt><trkpt lat="45.18026848820007" lon="9.325992947103034"><ele>68.5</ele><time>2026-04-19T09:37:16Z</time></trkpt><trkpt lat="45.18036282489246" lon="9.325879617662437"><ele>68.25</ele><time>2026-04-19T09:37:17Z</time></trkpt><trkpt lat="45.180467805384524" lon="9.325801344657512"><ele>68.0</ele><time>2026-04-19T09:37:18Z</time></trkpt><trkpt lat="45.180553626573705" lon="9.325705366168773"><ele>68.0</ele><time>2026-04-19T09:37:19Z</time></trkpt><trkpt lat="45.180623965239974" lon="9.325596573990943"><ele>68.0</ele><time>2026-04-19T09:37:20Z</time></trkpt><trkpt lat="45.18067377281073" lon="9.325455979985236"><ele>68.0</ele><time>2026-04-19T09:37:21Z</time></trkpt><trkpt lat="45.180694625816855" lon="9.325285896434423"><ele>68.0</ele><time>2026-04-19T09:37:22Z</time></trkpt><trkpt lat="45.18070068777109" lon="9.325082287213283"><ele>67.66666666666667</ele><time>2026-04-19T09:37:23Z</time></trkpt><trkpt lat="45.18071687847634" lon="9.324866082548485"><ele>67.33333333333333</ele><time>2026-04-19T09:37:24Z</time></trkpt><trkpt lat="45.18075006924645" lon="9.324641905313573"><ele>67.0</ele><time>2026-04-19T09:37:25Z</time></trkpt><trkpt lat="45.18076860294135" lon="9.324412182055118"><ele>67.0</ele><time>2026-04-19T09:37:26Z</time></trkpt><trkpt lat="45.18078661338742" lon="9.324184511644257"><ele>67.0</ele><time>2026-04-19T09:37:27Z</time></trkpt><trkpt lat="45.180802699264284" lon="9.323978055053235"><ele>67.0</ele><time>2026-04-19T09:37:28Z</time></trkpt><trkpt lat="45.180816850276834" lon="9.323787723798803"><ele>67.0</ele><time>2026-04-19T09:37:29Z</time></trkpt><trkpt lat="45.180831612891865" lon="9.323589166652695"><ele>67.75</ele><time>2026-04-19T09:37:30Z</time></trkpt><trkpt lat="45.18084299361574" lon="9.323397800404736"><ele>68.5</ele><time>2026-04-19T09:37:31Z</time></trkpt><trkpt lat="45.18085134279421" lon="9.323215383467767"><ele>69.25</ele><time>2026-04-19T09:37:32Z</time></trkpt><trkpt lat="45.18086133145899" lon="9.323024273978605"><ele>70.0</ele><time>2026-04-19T09:37:33Z</time></trkpt><trkpt lat="45.18087571604165" lon="9.322837546276475"><ele>70.0</ele><time>2026-04-19T09:37:34Z</time></trkpt><trkpt lat="45.180928557437454" lon="9.322663237718732"><ele>70.0</ele><time>2026-04-19T09:37:35Z</time></trkpt><trkpt lat="45.1809998387867" lon="9.322485966964441"><ele>70.0</ele><time>2026-04-19T09:37:36Z</time></trkpt><trkpt lat="45.18107051790923" lon="9.322319473810573"><ele>70.0</ele><time>2026-04-19T09:37:37Z</time></trkpt><trkpt lat="45.18113586977123" lon="9.322166543141694"><ele>70.0</ele><time>2026-04-19T09:37:38Z</time></trkpt><trkpt lat="45.18119854970213" lon="9.32202285169654"><ele>70.0</ele><time>2026-04-19T09:37:39Z</time></trkpt><trkpt lat="45.18125378382499" lon="9.321889424001625"><ele>70.0</ele><time>2026-04-19T09:37:40Z</time></trkpt><trkpt lat="45.181292970709094" lon="9.3217475273074"><ele>70.0</ele><time>2026-04-19T09:37:41Z</time></trkpt><trkpt lat="45.18128272524154" lon="9.321551660445058"><ele>70.33333333333333</ele><time>2026-04-19T09:37:42Z</time></trkpt><trkpt lat="45.18121717479027" lon="9.321366164574787"><ele>70.66666666666667</ele><time>2026-04-19T09:37:43Z</time></trkpt><trkpt lat="45.18113411807111" lon="9.321168080797401"><ele>71.0</ele><time>2026-04-19T09:37:44Z</time></trkpt><trkpt lat="45.181042706776694" lon="9.320959062842737"><ele>71.0</ele><time>2026-04-19T09:37:45Z</time></trkpt><trkpt lat="45.18094300872612" lon="9.320745815162395"><ele>71.0</ele><time>2026-04-19T09:37:46Z</time></trkpt><trkpt lat="45.1808385975652" lon="9.320545091062534"><ele>71.0</ele><time>2026-04-19T09:37:47Z</time></trkpt><trkpt lat="45.180728992046696" lon="9.3203568236231"><ele>70.66666666666667</ele><time>2026-04-19T09:37:48Z</time></trkpt><trkpt lat="45.18062758184478" lon="9.320180629962255"><ele>70.33333333333333</ele><time>2026-04-19T09:37:49Z</time></trkpt><trkpt lat="45.180515680522085" lon="9.320028161870292"><ele>70.0</ele><time>2026-04-19T09:37:50Z</time></trkpt><trkpt lat="45.18039169364544" lon="9.319876899864415"><ele>70.0</ele><time>2026-04-19T09:37:51Z</time></trkpt><trkpt lat="45.180241281734816" lon="9.319745384771812"><ele>70.0</ele><time>2026-04-19T09:37:52Z</time></trkpt><trkpt lat="45.180084439076985" lon="9.319627283455722"><ele>70.0</ele><time>2026-04-19T09:37:53Z</time></trkpt><trkpt lat="45.1799430955196" lon="9.319481387445283"><ele>70.33333333333333</ele><time>2026-04-19T09:37:54Z</time></trkpt><trkpt lat="45.179807700837245" lon="9.31934426443504"><ele>70.66666666666667</ele><time>2026-04-19T09:37:55Z</time></trkpt><trkpt lat="45.17968680433542" lon="9.319220046026986"><ele>71.0</ele><time>2026-04-19T09:37:56Z</time></trkpt><trkpt lat="45.17956766410027" lon="9.319097260850018"><ele>71.0</ele><time>2026-04-19T09:37:57Z</time></trkpt><trkpt lat="45.179455487075714" lon="9.318981593707223"><ele>71.0</ele><time>2026-04-19T09:37:58Z</time></trkpt><trkpt lat="45.17934166665104" lon="9.318861735758412"><ele>71.0</ele><time>2026-04-19T09:37:59Z</time></trkpt><trkpt lat="45.17922768093216" lon="9.318725820522596"><ele>71.0</ele><time>2026-04-19T09:38:00Z</time></trkpt><trkpt lat="45.179111516246515" lon="9.3185758626385"><ele>71.33333333333334</ele><time>2026-04-19T09:38:01Z</time></trkpt><trkpt lat="45.1789973804121" lon="9.318429274919406"><ele>71.66666666666667</ele><time>2026-04-19T09:38:02Z</time></trkpt><trkpt lat="45.17888075039628" lon="9.318296006913837"><ele>72.0</ele><time>2026-04-19T09:38:03Z</time></trkpt><trkpt lat="45.17874950836032" lon="9.318183225713378"><ele>72.0</ele><time>2026-04-19T09:38:04Z</time></trkpt><trkpt lat="45.178625331168895" lon="9.318051818638384"><ele>72.0</ele><time>2026-04-19T09:38:05Z</time></trkpt><trkpt lat="45.17849817201309" lon="9.31792552527355"><ele>72.0</ele><time>2026-04-19T09:38:06Z</time></trkpt><trkpt lat="45.17837240215163" lon="9.31782264450963"><ele>72.0</ele><time>2026-04-19T09:38:07Z</time></trkpt><trkpt lat="45.178244742813796" lon="9.31774841469513"><ele>72.0</ele><time>2026-04-19T09:38:08Z</time></trkpt><trkpt lat="45.17812076127782" lon="9.317696876580921"><ele>72.0</ele><time>2026-04-19T09:38:09Z</time></trkpt><trkpt lat="45.178007491606714" lon="9.317647005533455"><ele>72.0</ele><time>2026-04-19T09:38:10Z</time></trkpt><trkpt lat="45.177901323457874" lon="9.3175961004905"><ele>72.2</ele><time>2026-04-19T09:38:11Z</time></trkpt><trkpt lat="45.17779721290257" lon="9.317550150707609"><ele>72.4</ele><time>2026-04-19T09:38:12Z</time></trkpt><trkpt lat="45.17769710934222" lon="9.317499843984447"><ele>72.6</ele><time>2026-04-19T09:38:13Z</time></trkpt><trkpt lat="45.17760506977838" lon="9.317470269880245"><ele>72.8</ele><time>2026-04-19T09:38:14Z</time></trkpt><trkpt lat="45.17752381130583" lon="9.317444977140214"><ele>73.0</ele><time>2026-04-19T09:38:15Z</time></trkpt><trkpt lat="45.177447597954625" lon="9.317402259239222"><ele>73.0</ele><time>2026-04-19T09:38:16Z</time></trkpt><trkpt lat="45.17737160233073" lon="9.317367449462884"><ele>73.0</ele><time>2026-04-19T09:38:17Z</time></trkpt><trkpt lat="45.17728432544951" lon="9.317349937694596"><ele>73.0</ele><time>2026-04-19T09:38:18Z</time></trkpt><trkpt lat="45.17721046059109" lon="9.317315659222018"><ele>73.0</ele><time>2026-04-19T09:38:19Z</time></trkpt><trkpt lat="45.17713582590304" lon="9.317278588742447"><ele>73.0</ele><time>2026-04-19T09:38:20Z</time></trkpt><trkpt lat="45.177067110440454" lon="9.317248438842805"><ele>73.0</ele><time>2026-04-19T09:38:21Z</time></trkpt><trkpt lat="45.17699567015551" lon="9.317221098306085"><ele>73.2</ele><time>2026-04-19T09:38:22Z</time></trkpt><trkpt lat="45.176927121243885" lon="9.317191615544544"><ele>73.4</ele><time>2026-04-19T09:38:23Z</time></trkpt><trkpt lat="45.176811086974816" lon="9.317148025621975"><ele>73.60000000000001</ele><time>2026-04-19T09:38:25Z</time></trkpt><trkpt lat="45.176737143252105" lon="9.317115148760548"><ele>73.8</ele><time>2026-04-19T09:38:27Z</time></trkpt><trkpt lat="45.17666054530795" lon="9.317086627567887"><ele>74.0</ele><time>2026-04-19T09:38:31Z</time></trkpt><trkpt lat="45.17655513171528" lon="9.317021719822385"><ele>74.0</ele><time>2026-04-19T09:38:33Z</time></trkpt><trkpt lat="45.17648346403089" lon="9.317008885184228"><ele>74.0</ele><time>2026-04-19T09:38:34Z</time></trkpt><trkpt lat="45.17640847120287" lon="9.316978764488228"><ele>74.0</ele><time>2026-04-19T09:38:35Z</time></trkpt><trkpt lat="45.17634769566016" lon="9.316949282347853"><ele>74.0</ele><time>2026-04-19T09:38:36Z</time></trkpt><trkpt lat="45.17627406626344" lon="9.316909527530447"><ele>74.0</ele><time>2026-04-19T09:38:38Z</time></trkpt><trkpt lat="45.17622496577793" lon="9.316840517662282"><ele>74.0</ele><time>2026-04-19T09:38:48Z</time></trkpt><trkpt lat="45.176240319816" lon="9.316690464158642"><ele>74.0</ele><time>2026-04-19T09:38:50Z</time></trkpt><trkpt lat="45.17626486320701" lon="9.316607557200369"><ele>74.0</ele><time>2026-04-19T09:38:51Z</time></trkpt><trkpt lat="45.17627831935188" lon="9.316509038234893"><ele>74.0</ele><time>2026-04-19T09:38:52Z</time></trkpt><trkpt lat="45.1763067956271" lon="9.31642241139248"><ele>74.0</ele><time>2026-04-19T09:38:53Z</time></trkpt><trkpt lat="45.176308375779094" lon="9.316331473007166"><ele>74.0</ele><time>2026-04-19T09:38:54Z</time></trkpt><trkpt lat="45.176334242910876" lon="9.316177055341072"><ele>74.0</ele><time>2026-04-19T09:38:56Z</time></trkpt><trkpt lat="45.17635306321254" lon="9.31599840639339"><ele>74.0</ele><time>2026-04-19T09:38:58Z</time></trkpt><trkpt lat="45.17638906590403" lon="9.31582824993914"><ele>74.0</ele><time>2026-04-19T09:39:00Z</time></trkpt><trkpt lat="45.176422024798576" lon="9.315677934617414"><ele>74.0</ele><time>2026-04-19T09:39:02Z</time></trkpt><trkpt lat="45.1764460363222" lon="9.315554883477997"><ele>74.0</ele><time>2026-04-19T09:39:04Z</time></trkpt><trkpt lat="45.17642490736292" lon="9.31564727751566"><ele>74.0</ele><time>2026-04-19T09:39:11Z</time></trkpt><trkpt lat="45.176361057253715" lon="9.315974485188931"><ele>74.0</ele><time>2026-04-19T09:39:13Z</time></trkpt><trkpt lat="45.17633688328751" lon="9.31613149550666"><ele>74.0</ele><time>2026-04-19T09:39:14Z</time></trkpt><trkpt lat="45.176310066776665" lon="9.316277045871345"><ele>74.0</ele><time>2026-04-19T09:39:15Z</time></trkpt><trkpt lat="45.17629178135361" lon="9.316405204543287"><ele>74.0</ele><time>2026-04-19T09:39:16Z</time></trkpt><trkpt lat="45.176274873148124" lon="9.316539237211488"><ele>74.0</ele><time>2026-04-19T09:39:17Z</time></trkpt><trkpt lat="45.1762524247177" lon="9.316662368808725"><ele>74.0</ele><time>2026-04-19T09:39:18Z</time></trkpt><trkpt lat="45.176213755220914" lon="9.31676660798065"><ele>74.0</ele><time>2026-04-19T09:39:19Z</time></trkpt><trkpt lat="45.17614941273447" lon="9.316837395816409"><ele>74.0</ele><time>2026-04-19T09:39:20Z</time></trkpt><trkpt lat="45.1760477256009" lon="9.316872943858977"><ele>74.0</ele><time>2026-04-19T09:39:21Z</time></trkpt><trkpt lat="45.17592921122172" lon="9.316890279892915"><ele>74.0</ele><time>2026-04-19T09:39:22Z</time></trkpt><trkpt lat="45.175806998757" lon="9.316893159755566"><ele>73.75</ele><time>2026-04-19T09:39:23Z</time></trkpt><trkpt lat="45.175677266343754" lon="9.316881246266025"><ele>73.5</ele><time>2026-04-19T09:39:24Z</time></trkpt><trkpt lat="45.17556058395668" lon="9.316857322851229"><ele>73.25</ele><time>2026-04-19T09:39:25Z</time></trkpt><trkpt lat="45.17546059217167" lon="9.316831597323358"><ele>73.0</ele><time>2026-04-19T09:39:26Z</time></trkpt><trkpt lat="45.175340422678765" lon="9.316816407426654"><ele>73.0</ele><time>2026-04-19T09:39:27Z</time></trkpt><trkpt lat="45.17520728826692" lon="9.316793150646827"><ele>73.0</ele><time>2026-04-19T09:39:28Z</time></trkpt><trkpt lat="45.17508104431059" lon="9.316760935572226"><ele>73.0</ele><time>2026-04-19T09:39:29Z</time></trkpt><trkpt lat="45.17496826442222" lon="9.316741931701827"><ele>73.0</ele><time>2026-04-19T09:39:30Z</time></trkpt><trkpt lat="45.17486119457487" lon="9.316722681740313"><ele>72.8</ele><time>2026-04-19T09:39:31Z</time></trkpt><trkpt lat="45.174773362972175" lon="9.316705814265767"><ele>72.6</ele><time>2026-04-19T09:39:32Z</time></trkpt><trkpt lat="45.17470025914488" lon="9.31668816995026"><ele>72.4</ele><time>2026-04-19T09:39:33Z</time></trkpt><trkpt lat="45.17460408106905" lon="9.316690858058575"><ele>72.2</ele><time>2026-04-19T09:39:35Z</time></trkpt><trkpt lat="45.174546048076735" lon="9.316812858186346"><ele>72.0</ele><time>2026-04-19T09:39:37Z</time></trkpt><trkpt lat="45.174532794931054" lon="9.316944237018395"><ele>72.0</ele><time>2026-04-19T09:39:38Z</time></trkpt><trkpt lat="45.174508982193395" lon="9.31710043929088"><ele>72.0</ele><time>2026-04-19T09:39:39Z</time></trkpt><trkpt lat="45.1744771049613" lon="9.317278253012937"><ele>72.0</ele><time>2026-04-19T09:39:40Z</time></trkpt><trkpt lat="45.174437709857926" lon="9.317501715021281"><ele>72.0</ele><time>2026-04-19T09:39:41Z</time></trkpt><trkpt lat="45.174395221762936" lon="9.317760292401642"><ele>72.0</ele><time>2026-04-19T09:39:42Z</time></trkpt><trkpt lat="45.17432357899777" lon="9.318029631085594"><ele>72.0</ele><time>2026-04-19T09:39:43Z</time></trkpt><trkpt lat="45.17427436602617" lon="9.318316376872843"><ele>72.0</ele><time>2026-04-19T09:39:44Z</time></trkpt><trkpt lat="45.17421144829979" lon="9.318631654761386"><ele>71.0</ele><time>2026-04-19T09:39:45Z</time></trkpt><trkpt lat="45.17415222222081" lon="9.31896500103477"><ele>70.0</ele><time>2026-04-19T09:39:46Z</time></trkpt><trkpt lat="45.17409050264908" lon="9.319311244582204"><ele>70.0</ele><time>2026-04-19T09:39:47Z</time></trkpt><trkpt lat="45.17402996776242" lon="9.319644310165355"><ele>70.0</ele><time>2026-04-19T09:39:48Z</time></trkpt><trkpt lat="45.17397169499698" lon="9.3199575725663"><ele>70.0</ele><time>2026-04-19T09:39:49Z</time></trkpt><trkpt lat="45.17390996099366" lon="9.320274952254127"><ele>70.0</ele><time>2026-04-19T09:39:50Z</time></trkpt><trkpt lat="45.1738536688241" lon="9.320595780485037"><ele>70.0</ele><time>2026-04-19T09:39:51Z</time></trkpt><trkpt lat="45.173802662604444" lon="9.320873659035271"><ele>70.0</ele><time>2026-04-19T09:39:52Z</time></trkpt><trkpt lat="45.17375502132814" lon="9.32113454370223"><ele>70.0</ele><time>2026-04-19T09:39:53Z</time></trkpt><trkpt lat="45.17369540579649" lon="9.321396196325198"><ele>70.33333333333333</ele><time>2026-04-19T09:39:54Z</time></trkpt><trkpt lat="45.17364536987869" lon="9.32166052063766"><ele>70.66666666666667</ele><time>2026-04-19T09:39:55Z</time></trkpt><trkpt lat="45.173598690326926" lon="9.321919075367123"><ele>71.0</ele><time>2026-04-19T09:39:56Z</time></trkpt><trkpt lat="45.173556120351726" lon="9.322162086624207"><ele>71.66666666666667</ele><time>2026-04-19T09:39:57Z</time></trkpt><trkpt lat="45.173510707030275" lon="9.32242132916404"><ele>72.33333333333333</ele><time>2026-04-19T09:39:58Z</time></trkpt><trkpt lat="45.17346065965198" lon="9.322675897501574"><ele>73.0</ele><time>2026-04-19T09:39:59Z</time></trkpt><trkpt lat="45.17340239397602" lon="9.322923389985473"><ele>72.0</ele><time>2026-04-19T09:40:00Z</time></trkpt><trkpt lat="45.17331658815616" lon="9.323210211050668"><ele>71.0</ele><time>2026-04-19T09:40:01Z</time></trkpt><trkpt lat="45.17321823177221" lon="9.323518147862398"><ele>71.0</ele><time>2026-04-19T09:40:02Z</time></trkpt><trkpt lat="45.17313106580643" lon="9.323794825387745"><ele>71.0</ele><time>2026-04-19T09:40:03Z</time></trkpt><trkpt lat="45.17303734925711" lon="9.324092295664164"><ele>71.0</ele><time>2026-04-19T09:40:04Z</time></trkpt><trkpt lat="45.17295229258036" lon="9.324362278123608"><ele>71.0</ele><time>2026-04-19T09:40:05Z</time></trkpt><trkpt lat="45.17287042335506" lon="9.32462214323721"><ele>71.0</ele><time>2026-04-19T09:40:06Z</time></trkpt><trkpt lat="45.17277904568585" lon="9.32491550148078"><ele>71.0</ele><time>2026-04-19T09:40:07Z</time></trkpt><trkpt lat="45.17268710971654" lon="9.325218486264284"><ele>71.0</ele><time>2026-04-19T09:40:08Z</time></trkpt><trkpt lat="45.17260037546454" lon="9.325531737712499"><ele>71.0</ele><time>2026-04-19T09:40:09Z</time></trkpt><trkpt lat="45.172537547790654" lon="9.325866485924694"><ele>71.0</ele><time>2026-04-19T09:40:10Z</time></trkpt><trkpt lat="45.1724409472713" lon="9.326205008466644"><ele>71.0</ele><time>2026-04-19T09:40:11Z</time></trkpt><trkpt lat="45.172351041350765" lon="9.326576111137456"><ele>70.5</ele><time>2026-04-19T09:40:12Z</time></trkpt><trkpt lat="45.17226908669707" lon="9.32691003733601"><ele>70.0</ele><time>2026-04-19T09:40:13Z</time></trkpt><trkpt lat="45.172195297004905" lon="9.32720359378026"><ele>70.0</ele><time>2026-04-19T09:40:14Z</time></trkpt><trkpt lat="45.17213030565101" lon="9.327460714624412"><ele>70.0</ele><time>2026-04-19T09:40:15Z</time></trkpt><trkpt lat="45.17206996106228" lon="9.327706314488214"><ele>70.0</ele><time>2026-04-19T09:40:16Z</time></trkpt><trkpt lat="45.17201096710305" lon="9.327949938942895"><ele>70.0</ele><time>2026-04-19T09:40:17Z</time></trkpt><trkpt lat="45.17195281963144" lon="9.328181915792321"><ele>70.0</ele><time>2026-04-19T09:40:18Z</time></trkpt><trkpt lat="45.1718917583885" lon="9.32838985397366"><ele>70.0</ele><time>2026-04-19T09:40:19Z</time></trkpt><trkpt lat="45.171814158558036" lon="9.328596176979625"><ele>70.0</ele><time>2026-04-19T09:40:20Z</time></trkpt><trkpt lat="45.17171392644957" lon="9.328793851414439"><ele>70.0</ele><time>2026-04-19T09:40:21Z</time></trkpt><trkpt lat="45.171583662239655" lon="9.329008621018168"><ele>70.0</ele><time>2026-04-19T09:40:22Z</time></trkpt><trkpt lat="45.17143934846613" lon="9.32925309621881"><ele>70.0</ele><time>2026-04-19T09:40:23Z</time></trkpt><trkpt lat="45.17128626584234" lon="9.329513072549735"><ele>70.0</ele><time>2026-04-19T09:40:24Z</time></trkpt><trkpt lat="45.17112891727935" lon="9.329781746681912"><ele>70.0</ele><time>2026-04-19T09:40:25Z</time></trkpt><trkpt lat="45.17099696907307" lon="9.330043887275094"><ele>70.0</ele><time>2026-04-19T09:40:26Z</time></trkpt><trkpt lat="45.17085095446597" lon="9.330282609927298"><ele>70.0</ele><time>2026-04-19T09:40:27Z</time></trkpt><trkpt lat="45.17071646264382" lon="9.33051937048163"><ele>70.0</ele><time>2026-04-19T09:40:28Z</time></trkpt><trkpt lat="45.17057707206104" lon="9.33072402756728"><ele>70.0</ele><time>2026-04-19T09:40:29Z</time></trkpt><trkpt lat="45.17045716507455" lon="9.330958918356567"><ele>69.66666666666666</ele><time>2026-04-19T09:40:30Z</time></trkpt><trkpt lat="45.170338775635145" lon="9.331160580185735"><ele>69.33333333333333</ele><time>2026-04-19T09:40:31Z</time></trkpt><trkpt lat="45.170235342413406" lon="9.331331969052231"><ele>69.0</ele><time>2026-04-19T09:40:32Z</time></trkpt><trkpt lat="45.17014327256913" lon="9.331498696525626"><ele>69.0</ele><time>2026-04-19T09:40:33Z</time></trkpt><trkpt lat="45.170060629085384" lon="9.331652353390101"><ele>69.0</ele><time>2026-04-19T09:40:34Z</time></trkpt><trkpt lat="45.16998021840215" lon="9.3317926678943"><ele>69.0</ele><time>2026-04-19T09:40:35Z</time></trkpt><trkpt lat="45.16991435819682" lon="9.331913842508515"><ele>69.0</ele><time>2026-04-19T09:40:36Z</time></trkpt><trkpt lat="45.1698441126645" lon="9.332008450990298"><ele>69.2</ele><time>2026-04-19T09:40:37Z</time></trkpt><trkpt lat="45.16978836707773" lon="9.332105328196393"><ele>69.4</ele><time>2026-04-19T09:40:38Z</time></trkpt><trkpt lat="45.169737791356" lon="9.332193083339375"><ele>69.6</ele><time>2026-04-19T09:40:39Z</time></trkpt><trkpt lat="45.16970212449752" lon="9.332279958586463"><ele>69.8</ele><time>2026-04-19T09:40:40Z</time></trkpt><trkpt lat="45.16962038708032" lon="9.332396794049535"><ele>70.0</ele><time>2026-04-19T09:40:42Z</time></trkpt><trkpt lat="45.16955996064061" lon="9.332501641365804"><ele>70.0</ele><time>2026-04-19T09:40:44Z</time></trkpt><trkpt lat="45.16951007251935" lon="9.332579813254421"><ele>70.0</ele><time>2026-04-19T09:40:47Z</time></trkpt><trkpt lat="45.169457886280576" lon="9.332509227588018"><ele>70.0</ele><time>2026-04-19T09:40:48Z</time></trkpt><trkpt lat="45.1694205619925" lon="9.332407034761918"><ele>70.0</ele><time>2026-04-19T09:40:50Z</time></trkpt><trkpt lat="45.16935157080261" lon="9.33225186993035"><ele>70.0</ele><time>2026-04-19T09:40:52Z</time></trkpt><trkpt lat="45.16930152444506" lon="9.33215497583998"><ele>70.0</ele><time>2026-04-19T09:40:53Z</time></trkpt><trkpt lat="45.16924645594549" lon="9.332050617911026"><ele>70.0</ele><time>2026-04-19T09:40:54Z</time></trkpt><trkpt lat="45.1691921709852" lon="9.33194852919229"><ele>70.0</ele><time>2026-04-19T09:40:55Z</time></trkpt><trkpt lat="45.16913145412911" lon="9.331836041149574"><ele>70.0</ele><time>2026-04-19T09:40:56Z</time></trkpt><trkpt lat="45.16906853733854" lon="9.33170883089753"><ele>70.0</ele><time>2026-04-19T09:40:57Z</time></trkpt><trkpt lat="45.16900199416013" lon="9.331588780683177"><ele>70.0</ele><time>2026-04-19T09:40:58Z</time></trkpt><trkpt lat="45.16893228529844" lon="9.331454920293499"><ele>70.0</ele><time>2026-04-19T09:40:59Z</time></trkpt><trkpt lat="45.16885232852486" lon="9.331302365938615"><ele>70.0</ele><time>2026-04-19T09:41:00Z</time></trkpt><trkpt lat="45.168779062217766" lon="9.33116296536109"><ele>70.0</ele><time>2026-04-19T09:41:01Z</time></trkpt><trkpt lat="45.168701713964346" lon="9.33102437982955"><ele>70.0</ele><time>2026-04-19T09:41:02Z</time></trkpt><trkpt lat="45.168622586898806" lon="9.330873860056728"><ele>70.0</ele><time>2026-04-19T09:41:03Z</time></trkpt><trkpt lat="45.168547624284145" lon="9.330729662555612"><ele>70.0</ele><time>2026-04-19T09:41:04Z</time></trkpt><trkpt lat="45.16847422845797" lon="9.33059807562426"><ele>70.0</ele><time>2026-04-19T09:41:05Z</time></trkpt><trkpt lat="45.16839799149332" lon="9.330456539064054"><ele>70.0</ele><time>2026-04-19T09:41:06Z</time></trkpt><trkpt lat="45.16831626036254" lon="9.330300923317628"><ele>70.0</ele><time>2026-04-19T09:41:07Z</time></trkpt><trkpt lat="45.16822997205688" lon="9.330147633046083"><ele>70.0</ele><time>2026-04-19T09:41:08Z</time></trkpt><trkpt lat="45.168150426800885" lon="9.329999779026473"><ele>70.0</ele><time>2026-04-19T09:41:09Z</time></trkpt><trkpt lat="45.16807738708933" lon="9.329867768677714"><ele>70.0</ele><time>2026-04-19T09:41:10Z</time></trkpt><trkpt lat="45.168004615681795" lon="9.329730626405144"><ele>70.2</ele><time>2026-04-19T09:41:11Z</time></trkpt><trkpt lat="45.16793933758404" lon="9.329585813069436"><ele>70.4</ele><time>2026-04-19T09:41:12Z</time></trkpt><trkpt lat="45.16787738110156" lon="9.329455150192372"><ele>70.6</ele><time>2026-04-19T09:41:13Z</time></trkpt><trkpt lat="45.16781012297161" lon="9.329336547069767"><ele>70.8</ele><time>2026-04-19T09:41:14Z</time></trkpt><trkpt lat="45.1677523437799" lon="9.329228464106954"><ele>71.0</ele><time>2026-04-19T09:41:15Z</time></trkpt><trkpt lat="45.16769660636577" lon="9.32912153206687"><ele>71.0</ele><time>2026-04-19T09:41:16Z</time></trkpt><trkpt lat="45.16764071928233" lon="9.329016759978728"><ele>71.0</ele><time>2026-04-19T09:41:17Z</time></trkpt><trkpt lat="45.16758376723279" lon="9.328907812676368"><ele>71.0</ele><time>2026-04-19T09:41:18Z</time></trkpt><trkpt lat="45.167521209292026" lon="9.328788374382404"><ele>71.0</ele><time>2026-04-19T09:41:19Z</time></trkpt><trkpt lat="45.16745772516907" lon="9.328665745831305"><ele>71.0</ele><time>2026-04-19T09:41:20Z</time></trkpt><trkpt lat="45.16743041159374" lon="9.328484605885418"><ele>70.5</ele><time>2026-04-19T09:41:21Z</time></trkpt><trkpt lat="45.16735384229536" lon="9.328353968430404"><ele>70.0</ele><time>2026-04-19T09:41:22Z</time></trkpt><trkpt lat="45.16727170820698" lon="9.328204609234737"><ele>69.5</ele><time>2026-04-19T09:41:23Z</time></trkpt><trkpt lat="45.1671751659704" lon="9.32804165780195"><ele>69.0</ele><time>2026-04-19T09:41:24Z</time></trkpt><trkpt lat="45.167074030134785" lon="9.327853070336124"><ele>68.33333333333333</ele><time>2026-04-19T09:41:25Z</time></trkpt><trkpt lat="45.166967018811754" lon="9.327657551747892"><ele>67.66666666666666</ele><time>2026-04-19T09:41:26Z</time></trkpt><trkpt lat="45.16686009329307" lon="9.327456327008283"><ele>67.0</ele><time>2026-04-19T09:41:27Z</time></trkpt><trkpt lat="45.1667487605472" lon="9.327240193682176"><ele>67.33333333333333</ele><time>2026-04-19T09:41:28Z</time></trkpt><trkpt lat="45.16663151917361" lon="9.327006335816085"><ele>67.66666666666667</ele><time>2026-04-19T09:41:29Z</time></trkpt><trkpt lat="45.16650879944661" lon="9.326774062610605"><ele>68.0</ele><time>2026-04-19T09:41:30Z</time></trkpt><trkpt lat="45.16639560362675" lon="9.326558803417598"><ele>69.33333333333334</ele><time>2026-04-19T09:41:31Z</time></trkpt><trkpt lat="45.16628614444484" lon="9.326358117914458"><ele>70.66666666666667</ele><time>2026-04-19T09:41:32Z</time></trkpt><trkpt lat="45.16618540610674" lon="9.326175227318313"><ele>72.0</ele><time>2026-04-19T09:41:33Z</time></trkpt><trkpt lat="45.166090225483785" lon="9.325990617436062"><ele>72.0</ele><time>2026-04-19T09:41:34Z</time></trkpt><trkpt lat="45.16599569662842" lon="9.32579897019089"><ele>72.0</ele><time>2026-04-19T09:41:35Z</time></trkpt><trkpt lat="45.16589911725788" lon="9.325610339937231"><ele>72.0</ele><time>2026-04-19T09:41:36Z</time></trkpt><trkpt lat="45.16579022774761" lon="9.325402655343256"><ele>72.0</ele><time>2026-04-19T09:41:37Z</time></trkpt><trkpt lat="45.16568014416704" lon="9.325203678870073"><ele>72.0</ele><time>2026-04-19T09:41:38Z</time></trkpt><trkpt lat="45.165584381974874" lon="9.325019715334498"><ele>72.0</ele><time>2026-04-19T09:41:39Z</time></trkpt><trkpt lat="45.16548969693425" lon="9.324830195740613"><ele>72.66666666666667</ele><time>2026-04-19T09:41:40Z</time></trkpt><trkpt lat="45.165402436890474" lon="9.324614397108418"><ele>73.33333333333334</ele><time>2026-04-19T09:41:41Z</time></trkpt><trkpt lat="45.165296168827375" lon="9.324412997786373"><ele>74.0</ele><time>2026-04-19T09:41:42Z</time></trkpt><trkpt lat="45.16520524700276" lon="9.324240683687595"><ele>74.0</ele><time>2026-04-19T09:41:43Z</time></trkpt><trkpt lat="45.165116224011996" lon="9.324074884507098"><ele>74.0</ele><time>2026-04-19T09:41:44Z</time></trkpt><trkpt lat="45.16503185031975" lon="9.323919872940612"><ele>74.0</ele><time>2026-04-19T09:41:45Z</time></trkpt><trkpt lat="45.16494749952228" lon="9.32376845140307"><ele>74.0</ele><time>2026-04-19T09:41:46Z</time></trkpt><trkpt lat="45.16485637188959" lon="9.323611494942476"><ele>73.5</ele><time>2026-04-19T09:41:47Z</time></trkpt><trkpt lat="45.164762394208296" lon="9.323452499401899"><ele>73.0</ele><time>2026-04-19T09:41:48Z</time></trkpt><trkpt lat="45.16468248452551" lon="9.323316617332864"><ele>72.5</ele><time>2026-04-19T09:41:49Z</time></trkpt><trkpt lat="45.16458110510255" lon="9.32314202094105"><ele>72.0</ele><time>2026-04-19T09:41:50Z</time></trkpt><trkpt lat="45.1644980750823" lon="9.322996870565147"><ele>72.0</ele><time>2026-04-19T09:41:51Z</time></trkpt><trkpt lat="45.16440619813039" lon="9.3228617876542"><ele>72.0</ele><time>2026-04-19T09:41:52Z</time></trkpt><trkpt lat="45.164336135971375" lon="9.322705339041718"><ele>72.0</ele><time>2026-04-19T09:41:53Z</time></trkpt><trkpt lat="45.16427261155724" lon="9.322538291569762"><ele>72.0</ele><time>2026-04-19T09:41:54Z</time></trkpt><trkpt lat="45.164243813167595" lon="9.322345609758154"><ele>71.6</ele><time>2026-04-19T09:41:55Z</time></trkpt><trkpt lat="45.164216974817236" lon="9.322179380699836"><ele>71.2</ele><time>2026-04-19T09:41:56Z</time></trkpt><trkpt lat="45.164188383765044" lon="9.322026995702595"><ele>70.8</ele><time>2026-04-19T09:41:57Z</time></trkpt><trkpt lat="45.16414955870813" lon="9.321915677071992"><ele>70.4</ele><time>2026-04-19T09:41:58Z</time></trkpt><trkpt lat="45.16414350625234" lon="9.321825469167193"><ele>70.0</ele><time>2026-04-19T09:41:59Z</time></trkpt><trkpt lat="45.16411622254027" lon="9.321717397899272"><ele>70.0</ele><time>2026-04-19T09:42:02Z</time></trkpt><trkpt lat="45.16402508091514" lon="9.321676950572204"><ele>70.0</ele><time>2026-04-19T09:42:04Z</time></trkpt><trkpt lat="45.16390046387241" lon="9.321585335453548"><ele>70.0</ele><time>2026-04-19T09:42:07Z</time></trkpt><trkpt lat="45.16383568450991" lon="9.321538641835698"><ele>70.0</ele><time>2026-04-19T09:42:08Z</time></trkpt><trkpt lat="45.16373308272608" lon="9.32145608763268"><ele>70.0</ele><time>2026-04-19T09:42:10Z</time></trkpt><trkpt lat="45.16364661793474" lon="9.321362167913097"><ele>70.4</ele><time>2026-04-19T09:42:12Z</time></trkpt><trkpt lat="45.163588746539595" lon="9.321260047525053"><ele>70.8</ele><time>2026-04-19T09:42:14Z</time></trkpt><trkpt lat="45.16347533625502" lon="9.321282505294436"><ele>71.2</ele><time>2026-04-19T09:42:17Z</time></trkpt><trkpt lat="45.16340265399184" lon="9.321298822881058"><ele>71.6</ele><time>2026-04-19T09:42:18Z</time></trkpt><trkpt lat="45.163320362603095" lon="9.321288724086303"><ele>72.0</ele><time>2026-04-19T09:42:19Z</time></trkpt><trkpt lat="45.1632274669667" lon="9.32126762995294"><ele>72.0</ele><time>2026-04-19T09:42:20Z</time></trkpt><trkpt lat="45.16312241155961" lon="9.321242999233402"><ele>72.0</ele><time>2026-04-19T09:42:21Z</time></trkpt><trkpt lat="45.163024387356785" lon="9.321215039312857"><ele>72.0</ele><time>2026-04-19T09:42:22Z</time></trkpt><trkpt lat="45.162934265581306" lon="9.321192997217434"><ele>72.0</ele><time>2026-04-19T09:42:23Z</time></trkpt><trkpt lat="45.162841726620776" lon="9.321161888396174"><ele>72.0</ele><time>2026-04-19T09:42:24Z</time></trkpt><trkpt lat="45.16272713797788" lon="9.321131984064523"><ele>72.0</ele><time>2026-04-19T09:42:25Z</time></trkpt><trkpt lat="45.16259742428467" lon="9.321091654082494"><ele>72.0</ele><time>2026-04-19T09:42:26Z</time></trkpt><trkpt lat="45.16245744033519" lon="9.32105385295895"><ele>72.0</ele><time>2026-04-19T09:42:27Z</time></trkpt><trkpt lat="45.162310297133764" lon="9.321017082395953"><ele>72.0</ele><time>2026-04-19T09:42:28Z</time></trkpt><trkpt lat="45.16215920386118" lon="9.32097819343866"><ele>72.0</ele><time>2026-04-19T09:42:29Z</time></trkpt><trkpt lat="45.16200700735028" lon="9.3209342628046"><ele>72.0</ele><time>2026-04-19T09:42:30Z</time></trkpt><trkpt lat="45.161856128723365" lon="9.320893474672692"><ele>72.0</ele><time>2026-04-19T09:42:31Z</time></trkpt><trkpt lat="45.161703995245084" lon="9.320850220515227"><ele>72.0</ele><time>2026-04-19T09:42:32Z</time></trkpt><trkpt lat="45.16155800920933" lon="9.320811694988288"><ele>72.0</ele><time>2026-04-19T09:42:33Z</time></trkpt><trkpt lat="45.16141646534677" lon="9.3207844820651"><ele>72.0</ele><time>2026-04-19T09:42:34Z</time></trkpt><trkpt lat="45.16128504517677" lon="9.320766193515485"><ele>72.0</ele><time>2026-04-19T09:42:35Z</time></trkpt><trkpt lat="45.161159730726574" lon="9.32073709269391"><ele>72.25</ele><time>2026-04-19T09:42:36Z</time></trkpt><trkpt lat="45.16103132070988" lon="9.320755291512187"><ele>72.5</ele><time>2026-04-19T09:42:37Z</time></trkpt><trkpt lat="45.16089591202034" lon="9.320737985244008"><ele>72.75</ele><time>2026-04-19T09:42:38Z</time></trkpt><trkpt lat="45.16076392104707" lon="9.320708272272247"><ele>73.0</ele><time>2026-04-19T09:42:39Z</time></trkpt><trkpt lat="45.16063334909404" lon="9.320670399075507"><ele>73.25</ele><time>2026-04-19T09:42:40Z</time></trkpt><trkpt lat="45.160507934684674" lon="9.320637525791733"><ele>73.5</ele><time>2026-04-19T09:42:41Z</time></trkpt><trkpt lat="45.160390216115424" lon="9.320610864099805"><ele>73.75</ele><time>2026-04-19T09:42:42Z</time></trkpt><trkpt lat="45.16027346266102" lon="9.320575826910552"><ele>74.0</ele><time>2026-04-19T09:42:43Z</time></trkpt><trkpt lat="45.16016384642112" lon="9.320550384795649"><ele>74.0</ele><time>2026-04-19T09:42:44Z</time></trkpt><trkpt lat="45.160058725753494" lon="9.320523316620495"><ele>74.0</ele><time>2026-04-19T09:42:45Z</time></trkpt><trkpt lat="45.1599625323833" lon="9.320500455820294"><ele>74.0</ele><time>2026-04-19T09:42:46Z</time></trkpt><trkpt lat="45.15988076933689" lon="9.320484060033994"><ele>74.0</ele><time>2026-04-19T09:42:47Z</time></trkpt><trkpt lat="45.159809063169426" lon="9.320458793131388"><ele>74.0</ele><time>2026-04-19T09:42:48Z</time></trkpt><trkpt lat="45.15972400555258" lon="9.320433134789765"><ele>74.0</ele><time>2026-04-19T09:42:50Z</time></trkpt><trkpt lat="45.1596427324902" lon="9.320411474121553"><ele>74.0</ele><time>2026-04-19T09:42:54Z</time></trkpt><trkpt lat="45.15957714451229" lon="9.320381667078637"><ele>74.0</ele><time>2026-04-19T09:42:56Z</time></trkpt><trkpt lat="45.15954715207881" lon="9.32054464667192"><ele>74.0</ele><time>2026-04-19T09:42:57Z</time></trkpt><trkpt lat="45.15955617053032" lon="9.32063653549711"><ele>74.0</ele><time>2026-04-19T09:42:58Z</time></trkpt><trkpt lat="45.15955513352571" lon="9.320730310042888"><ele>74.0</ele><time>2026-04-19T09:42:59Z</time></trkpt><trkpt lat="45.15954084085287" lon="9.320818269673458"><ele>74.0</ele><time>2026-04-19T09:43:00Z</time></trkpt><trkpt lat="45.1595118456845" lon="9.32091895727974"><ele>74.2</ele><time>2026-04-19T09:43:02Z</time></trkpt><trkpt lat="45.159396578452366" lon="9.320874819761714"><ele>74.4</ele><time>2026-04-19T09:43:03Z</time></trkpt><trkpt lat="45.15929773450226" lon="9.320865953927948"><ele>74.6</ele><time>2026-04-19T09:43:04Z</time></trkpt><trkpt lat="45.15919591006118" lon="9.320821763986297"><ele>74.8</ele><time>2026-04-19T09:43:05Z</time></trkpt><trkpt lat="45.159097314130605" lon="9.320790109547094"><ele>75.0</ele><time>2026-04-19T09:43:06Z</time></trkpt><trkpt lat="45.15901004400412" lon="9.32076801523834"><ele>74.6</ele><time>2026-04-19T09:43:07Z</time></trkpt><trkpt lat="45.15893002145103" lon="9.320725137728981"><ele>74.2</ele><time>2026-04-19T09:43:08Z</time></trkpt><trkpt lat="45.15885987654441" lon="9.320704097504633"><ele>73.8</ele><time>2026-04-19T09:43:09Z</time></trkpt><trkpt lat="45.158796997262826" lon="9.320685299317306"><ele>73.4</ele><time>2026-04-19T09:43:10Z</time></trkpt><trkpt lat="45.15872204317522" lon="9.320663477254959"><ele>73.0</ele><time>2026-04-19T09:43:11Z</time></trkpt><trkpt lat="45.15861858184728" lon="9.320853392043846"><ele>73.0</ele><time>2026-04-19T09:43:13Z</time></trkpt><trkpt lat="45.158598962422516" lon="9.320970488622278"><ele>73.0</ele><time>2026-04-19T09:43:14Z</time></trkpt><trkpt lat="45.158593759713185" lon="9.321135913449966"><ele>73.0</ele><time>2026-04-19T09:43:15Z</time></trkpt><trkpt lat="45.158570252924186" lon="9.32133820791199"><ele>73.0</ele><time>2026-04-19T09:43:16Z</time></trkpt><trkpt lat="45.15853012058751" lon="9.32156385960652"><ele>73.33333333333333</ele><time>2026-04-19T09:43:17Z</time></trkpt><trkpt lat="45.15848831276455" lon="9.321799391878901"><ele>73.66666666666667</ele><time>2026-04-19T09:43:18Z</time></trkpt><trkpt lat="45.158436931285074" lon="9.322066704751391"><ele>74.0</ele><time>2026-04-19T09:43:19Z</time></trkpt><trkpt lat="45.158398182462705" lon="9.32235429224393"><ele>74.0</ele><time>2026-04-19T09:43:20Z</time></trkpt><trkpt lat="45.15836109415264" lon="9.322672238342612"><ele>74.0</ele><time>2026-04-19T09:43:21Z</time></trkpt><trkpt lat="45.158321062412405" lon="9.322976478906673"><ele>74.0</ele><time>2026-04-19T09:43:22Z</time></trkpt><trkpt lat="45.1582798130415" lon="9.323276768734875"><ele>73.33333333333334</ele><time>2026-04-19T09:43:23Z</time></trkpt><trkpt lat="45.15823795582945" lon="9.323564230252039"><ele>72.66666666666667</ele><time>2026-04-19T09:43:24Z</time></trkpt><trkpt lat="45.15819510034218" lon="9.323846436731696"><ele>72.0</ele><time>2026-04-19T09:43:25Z</time></trkpt><trkpt lat="45.158149502021125" lon="9.324125948466543"><ele>72.0</ele><time>2026-04-19T09:43:26Z</time></trkpt><trkpt lat="45.158107812543356" lon="9.324406842935042"><ele>72.0</ele><time>2026-04-19T09:43:27Z</time></trkpt><trkpt lat="45.158082886006724" lon="9.324681953096697"><ele>72.0</ele><time>2026-04-19T09:43:28Z</time></trkpt><trkpt lat="45.15808833282474" lon="9.324959072117593"><ele>71.66666666666667</ele><time>2026-04-19T09:43:29Z</time></trkpt><trkpt lat="45.158129389937486" lon="9.325250965954421"><ele>71.33333333333334</ele><time>2026-04-19T09:43:30Z</time></trkpt><trkpt lat="45.15818519920031" lon="9.32553805185957"><ele>71.0</ele><time>2026-04-19T09:43:31Z</time></trkpt><trkpt lat="45.15824662011338" lon="9.325804922215454"><ele>71.0</ele><time>2026-04-19T09:43:32Z</time></trkpt><trkpt lat="45.15829625787569" lon="9.32606979899415"><ele>71.0</ele><time>2026-04-19T09:43:33Z</time></trkpt><trkpt lat="45.15833498364642" lon="9.326338061998408"><ele>71.0</ele><time>2026-04-19T09:43:34Z</time></trkpt><trkpt lat="45.15837500343596" lon="9.32660270020061"><ele>71.0</ele><time>2026-04-19T09:43:35Z</time></trkpt><trkpt lat="45.15843740773484" lon="9.326875644418514"><ele>71.0</ele><time>2026-04-19T09:43:36Z</time></trkpt><trkpt lat="45.15847063100914" lon="9.32711602749548"><ele>71.0</ele><time>2026-04-19T09:43:37Z</time></trkpt><trkpt lat="45.15851337311712" lon="9.32736157048661"><ele>71.0</ele><time>2026-04-19T09:43:38Z</time></trkpt><trkpt lat="45.158553601317735" lon="9.327637320344715"><ele>71.0</ele><time>2026-04-19T09:43:39Z</time></trkpt><trkpt lat="45.15859469101398" lon="9.32789913059199"><ele>71.0</ele><time>2026-04-19T09:43:40Z</time></trkpt><trkpt lat="45.15863095294955" lon="9.328168276014457"><ele>70.66666666666667</ele><time>2026-04-19T09:43:41Z</time></trkpt><trkpt lat="45.158650742910034" lon="9.328449586280342"><ele>70.33333333333333</ele><time>2026-04-19T09:43:42Z</time></trkpt><trkpt lat="45.158652423395274" lon="9.328744699899222"><ele>70.0</ele><time>2026-04-19T09:43:43Z</time></trkpt><trkpt lat="45.15864477817283" lon="9.329036485964915"><ele>70.0</ele><time>2026-04-19T09:43:44Z</time></trkpt><trkpt lat="45.15862793654504" lon="9.329327855883896"><ele>70.0</ele><time>2026-04-19T09:43:45Z</time></trkpt><trkpt lat="45.15860346116553" lon="9.329622256200985"><ele>70.0</ele><time>2026-04-19T09:43:46Z</time></trkpt><trkpt lat="45.15857715181073" lon="9.32991423830843"><ele>70.0</ele><time>2026-04-19T09:43:47Z</time></trkpt><trkpt lat="45.1585500875295" lon="9.330215044572752"><ele>70.0</ele><time>2026-04-19T09:43:48Z</time></trkpt><trkpt lat="45.15852463949263" lon="9.330513990286123"><ele>70.0</ele><time>2026-04-19T09:43:49Z</time></trkpt><trkpt lat="45.15850077078079" lon="9.33081363836789"><ele>70.0</ele><time>2026-04-19T09:43:50Z</time></trkpt><trkpt lat="45.15847675633577" lon="9.331115011229125"><ele>70.0</ele><time>2026-04-19T09:43:51Z</time></trkpt><trkpt lat="45.158451199759135" lon="9.33141399921439"><ele>70.0</ele><time>2026-04-19T09:43:52Z</time></trkpt><trkpt lat="45.15842479800905" lon="9.331708796541342"><ele>70.0</ele><time>2026-04-19T09:43:53Z</time></trkpt><trkpt lat="45.15839979784259" lon="9.332005503707974"><ele>70.0</ele><time>2026-04-19T09:43:54Z</time></trkpt><trkpt lat="45.158372914493654" lon="9.332311561156654"><ele>70.0</ele><time>2026-04-19T09:43:55Z</time></trkpt><trkpt lat="45.15834134049599" lon="9.332621761262246"><ele>70.0</ele><time>2026-04-19T09:43:56Z</time></trkpt><trkpt lat="45.1583153713112" lon="9.332923163173438"><ele>70.0</ele><time>2026-04-19T09:43:57Z</time></trkpt><trkpt lat="45.15829021461893" lon="9.333226924975815"><ele>70.0</ele><time>2026-04-19T09:43:58Z</time></trkpt><trkpt lat="45.15826533318496" lon="9.333534456619011"><ele>70.0</ele><time>2026-04-19T09:43:59Z</time></trkpt><trkpt lat="45.158237043031555" lon="9.333833629256977"><ele>70.0</ele><time>2026-04-19T09:44:00Z</time></trkpt><trkpt lat="45.15820871626291" lon="9.334140811289327"><ele>70.0</ele><time>2026-04-19T09:44:01Z</time></trkpt><trkpt lat="45.15819472415714" lon="9.334471260309188"><ele>70.66666666666666</ele><time>2026-04-19T09:44:02Z</time></trkpt><trkpt lat="45.15815793033001" lon="9.334759905617156"><ele>71.33333333333333</ele><time>2026-04-19T09:44:03Z</time></trkpt><trkpt lat="45.158129172521306" lon="9.335071634643866"><ele>72.0</ele><time>2026-04-19T09:44:04Z</time></trkpt><trkpt lat="45.15810504815041" lon="9.33538133509405"><ele>71.66666666666667</ele><time>2026-04-19T09:44:05Z</time></trkpt><trkpt lat="45.15807724911606" lon="9.335688063500754"><ele>71.33333333333334</ele><time>2026-04-19T09:44:06Z</time></trkpt><trkpt lat="45.15805067988767" lon="9.33599463289925"><ele>71.0</ele><time>2026-04-19T09:44:07Z</time></trkpt><trkpt lat="45.15802334609919" lon="9.336302867162907"><ele>70.5</ele><time>2026-04-19T09:44:08Z</time></trkpt><trkpt lat="45.15799467727233" lon="9.336611916330487"><ele>70.0</ele><time>2026-04-19T09:44:09Z</time></trkpt><trkpt lat="45.15796395574425" lon="9.336935716652123"><ele>70.66666666666666</ele><time>2026-04-19T09:44:10Z</time></trkpt><trkpt lat="45.15793558155254" lon="9.337234146062"><ele>71.33333333333333</ele><time>2026-04-19T09:44:11Z</time></trkpt><trkpt lat="45.15790814986558" lon="9.337537496489007"><ele>72.0</ele><time>2026-04-19T09:44:12Z</time></trkpt><trkpt lat="45.15787994854238" lon="9.3378413014027"><ele>70.66666666666667</ele><time>2026-04-19T09:44:13Z</time></trkpt><trkpt lat="45.15785116465188" lon="9.338143982657977"><ele>69.33333333333334</ele><time>2026-04-19T09:44:14Z</time></trkpt><trkpt lat="45.15782744406756" lon="9.33844935973874"><ele>68.0</ele><time>2026-04-19T09:44:15Z</time></trkpt><trkpt lat="45.15780158587264" lon="9.33875239071033"><ele>68.33333333333334</ele><time>2026-04-19T09:44:16Z</time></trkpt><trkpt lat="45.15777455266899" lon="9.339053329430984"><ele>68.66666666666667</ele><time>2026-04-19T09:44:17Z</time></trkpt><trkpt lat="45.157745374497594" lon="9.339359834571376"><ele>69.0</ele><time>2026-04-19T09:44:18Z</time></trkpt><trkpt lat="45.1577174760182" lon="9.33966426816391"><ele>69.33333333333333</ele><time>2026-04-19T09:44:19Z</time></trkpt><trkpt lat="45.157688291465135" lon="9.339967813402465"><ele>69.66666666666666</ele><time>2026-04-19T09:44:20Z</time></trkpt><trkpt lat="45.157663059637756" lon="9.340273537247633"><ele>70.0</ele><time>2026-04-19T09:44:21Z</time></trkpt><trkpt lat="45.15763685706915" lon="9.340578631009747"><ele>70.33333333333333</ele><time>2026-04-19T09:44:22Z</time></trkpt><trkpt lat="45.15762452226801" lon="9.34090403208664"><ele>70.66666666666667</ele><time>2026-04-19T09:44:23Z</time></trkpt><trkpt lat="45.15758295492334" lon="9.341189070693586"><ele>71.0</ele><time>2026-04-19T09:44:24Z</time></trkpt><trkpt lat="45.157556318326385" lon="9.34149541590471"><ele>71.0</ele><time>2026-04-19T09:44:25Z</time></trkpt><trkpt lat="45.15752980254466" lon="9.341794185162358"><ele>71.0</ele><time>2026-04-19T09:44:26Z</time></trkpt><trkpt lat="45.157504617678825" lon="9.342102940366624"><ele>71.0</ele><time>2026-04-19T09:44:27Z</time></trkpt><trkpt lat="45.15747619941852" lon="9.34240780476537"><ele>71.0</ele><time>2026-04-19T09:44:28Z</time></trkpt><trkpt lat="45.15744858176832" lon="9.342710812984851"><ele>71.0</ele><time>2026-04-19T09:44:29Z</time></trkpt><trkpt lat="45.15741268932865" lon="9.343022906741858"><ele>71.0</ele><time>2026-04-19T09:44:30Z</time></trkpt><trkpt lat="45.157380659174756" lon="9.3433336999538"><ele>70.66666666666667</ele><time>2026-04-19T09:44:31Z</time></trkpt><trkpt lat="45.157348373377026" lon="9.343649552859294"><ele>70.33333333333333</ele><time>2026-04-19T09:44:32Z</time></trkpt><trkpt lat="45.157317189077474" lon="9.343951992708508"><ele>70.0</ele><time>2026-04-19T09:44:33Z</time></trkpt><trkpt lat="45.15728209995381" lon="9.344255585132785"><ele>70.0</ele><time>2026-04-19T09:44:34Z</time></trkpt><trkpt lat="45.15725539576757" lon="9.344542671205248"><ele>70.0</ele><time>2026-04-19T09:44:35Z</time></trkpt><trkpt lat="45.15722878381231" lon="9.344815306996434"><ele>70.0</ele><time>2026-04-19T09:44:36Z</time></trkpt><trkpt lat="45.15720024335353" lon="9.345071068336768"><ele>70.0</ele><time>2026-04-19T09:44:37Z</time></trkpt><trkpt lat="45.15717740563724" lon="9.34531550116055"><ele>70.0</ele><time>2026-04-19T09:44:38Z</time></trkpt><trkpt lat="45.15715183365286" lon="9.345572870539058"><ele>70.0</ele><time>2026-04-19T09:44:39Z</time></trkpt><trkpt lat="45.15713096452463" lon="9.345811213731425"><ele>70.0</ele><time>2026-04-19T09:44:40Z</time></trkpt><trkpt lat="45.157105193161875" lon="9.346036329054595"><ele>70.0</ele><time>2026-04-19T09:44:41Z</time></trkpt><trkpt lat="45.15706634672291" lon="9.34623347002134"><ele>70.0</ele><time>2026-04-19T09:44:42Z</time></trkpt><trkpt lat="45.15703194877436" lon="9.346414986094508"><ele>70.0</ele><time>2026-04-19T09:44:43Z</time></trkpt><trkpt lat="45.15697576090453" lon="9.346586979093205"><ele>70.25</ele><time>2026-04-19T09:44:44Z</time></trkpt><trkpt lat="45.15690793481426" lon="9.346721438499541"><ele>70.5</ele><time>2026-04-19T09:44:45Z</time></trkpt><trkpt lat="45.156831975725275" lon="9.346841731242888"><ele>70.75</ele><time>2026-04-19T09:44:46Z</time></trkpt><trkpt lat="45.156742564407004" lon="9.346952077944447"><ele>71.0</ele><time>2026-04-19T09:44:47Z</time></trkpt><trkpt lat="45.15663290918135" lon="9.347067879174277"><ele>71.0</ele><time>2026-04-19T09:44:48Z</time></trkpt><trkpt lat="45.15652370617951" lon="9.347186778756233"><ele>71.0</ele><time>2026-04-19T09:44:49Z</time></trkpt><trkpt lat="45.15640674240942" lon="9.347320023421974"><ele>71.0</ele><time>2026-04-19T09:44:50Z</time></trkpt><trkpt lat="45.15628642345999" lon="9.347460320883302"><ele>71.0</ele><time>2026-04-19T09:44:51Z</time></trkpt><trkpt lat="45.156164303490165" lon="9.347601946679497"><ele>71.0</ele><time>2026-04-19T09:44:52Z</time></trkpt><trkpt lat="45.15604024073638" lon="9.347739754114661"><ele>71.0</ele><time>2026-04-19T09:44:53Z</time></trkpt><trkpt lat="45.155913096626236" lon="9.347880701605982"><ele>71.0</ele><time>2026-04-19T09:44:54Z</time></trkpt><trkpt lat="45.15578776732084" lon="9.348026834275084"><ele>70.33333333333334</ele><time>2026-04-19T09:44:55Z</time></trkpt><trkpt lat="45.155654463166265" lon="9.348179921164787"><ele>69.66666666666667</ele><time>2026-04-19T09:44:56Z</time></trkpt><trkpt lat="45.15552265109637" lon="9.3483256606899"><ele>69.0</ele><time>2026-04-19T09:44:57Z</time></trkpt><trkpt lat="45.155405160231965" lon="9.348467245669067"><ele>69.0</ele><time>2026-04-19T09:44:58Z</time></trkpt><trkpt lat="45.15527255995831" lon="9.348607226854265"><ele>69.0</ele><time>2026-04-19T09:44:59Z</time></trkpt><trkpt lat="45.155147969161526" lon="9.348750336333831"><ele>69.0</ele><time>2026-04-19T09:45:00Z</time></trkpt><trkpt lat="45.15502766844216" lon="9.348884231023295"><ele>69.25</ele><time>2026-04-19T09:45:01Z</time></trkpt><trkpt lat="45.15491201432438" lon="9.349013801425102"><ele>69.5</ele><time>2026-04-19T09:45:02Z</time></trkpt><trkpt lat="45.154794477318134" lon="9.34914330332184"><ele>69.75</ele><time>2026-04-19T09:45:03Z</time></trkpt><trkpt lat="45.15467936519758" lon="9.349267849080901"><ele>70.0</ele><time>2026-04-19T09:45:04Z</time></trkpt><trkpt lat="45.154572333427694" lon="9.349386294144184"><ele>70.0</ele><time>2026-04-19T09:45:05Z</time></trkpt><trkpt lat="45.154471142165" lon="9.349500072911702"><ele>70.0</ele><time>2026-04-19T09:45:06Z</time></trkpt><trkpt lat="45.15437891285343" lon="9.349599656362736"><ele>70.0</ele><time>2026-04-19T09:45:07Z</time></trkpt><trkpt lat="45.15429672854706" lon="9.349694335139224"><ele>70.0</ele><time>2026-04-19T09:45:08Z</time></trkpt><trkpt lat="45.15421754528877" lon="9.349773445905123"><ele>70.0</ele><time>2026-04-19T09:45:09Z</time></trkpt><trkpt lat="45.154139164321386" lon="9.349821170187962"><ele>70.25</ele><time>2026-04-19T09:45:10Z</time></trkpt><trkpt lat="45.15405141860764" lon="9.349827759895986"><ele>70.5</ele><time>2026-04-19T09:45:11Z</time></trkpt><trkpt lat="45.15392818127371" lon="9.349852352629162"><ele>70.75</ele><time>2026-04-19T09:45:12Z</time></trkpt><trkpt lat="45.15380138053464" lon="9.349893209474612"><ele>71.0</ele><time>2026-04-19T09:45:13Z</time></trkpt><trkpt lat="45.15367832534795" lon="9.349936876787565"><ele>71.0</ele><time>2026-04-19T09:45:14Z</time></trkpt><trkpt lat="45.153544873926926" lon="9.34998905117917"><ele>71.0</ele><time>2026-04-19T09:45:15Z</time></trkpt><trkpt lat="45.153403893262336" lon="9.350036505981677"><ele>71.0</ele><time>2026-04-19T09:45:16Z</time></trkpt><trkpt lat="45.153244623285296" lon="9.350093703085012"><ele>71.0</ele><time>2026-04-19T09:45:17Z</time></trkpt><trkpt lat="45.15307666538904" lon="9.35015355490709"><ele>71.0</ele><time>2026-04-19T09:45:18Z</time></trkpt><trkpt lat="45.15291429187106" lon="9.350211500156494"><ele>71.0</ele><time>2026-04-19T09:45:19Z</time></trkpt><trkpt lat="45.1527584114531" lon="9.350274410272808"><ele>71.0</ele><time>2026-04-19T09:45:20Z</time></trkpt><trkpt lat="45.15261291453929" lon="9.350331014457453"><ele>71.0</ele><time>2026-04-19T09:45:21Z</time></trkpt><trkpt lat="45.1524845691118" lon="9.35038195763331"><ele>71.0</ele><time>2026-04-19T09:45:22Z</time></trkpt><trkpt lat="45.15236530987776" lon="9.350421630854903"><ele>71.0</ele><time>2026-04-19T09:45:23Z</time></trkpt><trkpt lat="45.15227110200605" lon="9.350445350190823"><ele>71.0</ele><time>2026-04-19T09:45:24Z</time></trkpt><trkpt lat="45.15216407771804" lon="9.350495683767745"><ele>71.2</ele><time>2026-04-19T09:45:25Z</time></trkpt><trkpt lat="45.15207714189948" lon="9.350526698810032"><ele>71.39999999999999</ele><time>2026-04-19T09:45:26Z</time></trkpt><trkpt lat="45.151996062140704" lon="9.35055445622628"><ele>71.6</ele><time>2026-04-19T09:45:27Z</time></trkpt><trkpt lat="45.15188798211258" lon="9.350598650473723"><ele>71.8</ele><time>2026-04-19T09:45:29Z</time></trkpt><trkpt lat="45.15179379223179" lon="9.350551180338904"><ele>72.0</ele><time>2026-04-19T09:45:31Z</time></trkpt><trkpt lat="45.151717251381456" lon="9.350372836426288"><ele>71.5</ele><time>2026-04-19T09:45:33Z</time></trkpt><trkpt lat="45.151671175406015" lon="9.350258017992168"><ele>71.0</ele><time>2026-04-19T09:45:34Z</time></trkpt><trkpt lat="45.15160528673779" lon="9.350095284283524"><ele>70.5</ele><time>2026-04-19T09:45:35Z</time></trkpt><trkpt lat="45.15154025861897" lon="9.349954954999303"><ele>70.0</ele><time>2026-04-19T09:45:36Z</time></trkpt><trkpt lat="45.151471736139335" lon="9.349800365385658"><ele>70.0</ele><time>2026-04-19T09:45:37Z</time></trkpt><trkpt lat="45.151397897184985" lon="9.34963261403922"><ele>70.0</ele><time>2026-04-19T09:45:38Z</time></trkpt><trkpt lat="45.15131811085708" lon="9.349461747076182"><ele>70.0</ele><time>2026-04-19T09:45:39Z</time></trkpt><trkpt lat="45.15122003227989" lon="9.349287213995238"><ele>70.0</ele><time>2026-04-19T09:45:40Z</time></trkpt><trkpt lat="45.151114626308605" lon="9.34911468022484"><ele>70.0</ele><time>2026-04-19T09:45:41Z</time></trkpt><trkpt lat="45.151012427514814" lon="9.348959994997587"><ele>70.0</ele><time>2026-04-19T09:45:42Z</time></trkpt><trkpt lat="45.15091947798677" lon="9.348817914122558"><ele>70.0</ele><time>2026-04-19T09:45:43Z</time></trkpt><trkpt lat="45.15082782285435" lon="9.348676923418632"><ele>70.0</ele><time>2026-04-19T09:45:44Z</time></trkpt><trkpt lat="45.150748091224884" lon="9.348563209590909"><ele>70.5</ele><time>2026-04-19T09:45:45Z</time></trkpt><trkpt lat="45.15067417726261" lon="9.34843377967918"><ele>71.0</ele><time>2026-04-19T09:45:46Z</time></trkpt><trkpt lat="45.15061995492611" lon="9.348314515134"><ele>71.5</ele><time>2026-04-19T09:45:47Z</time></trkpt><trkpt lat="45.15056491055169" lon="9.34816174479356"><ele>72.0</ele><time>2026-04-19T09:45:48Z</time></trkpt><trkpt lat="45.1505057230171" lon="9.347966492991365"><ele>72.0</ele><time>2026-04-19T09:45:49Z</time></trkpt><trkpt lat="45.15043544227346" lon="9.347741069191486"><ele>72.0</ele><time>2026-04-19T09:45:50Z</time></trkpt><trkpt lat="45.15036086058378" lon="9.347514242571746"><ele>72.0</ele><time>2026-04-19T09:45:51Z</time></trkpt><trkpt lat="45.15029489046919" lon="9.347305915629669"><ele>72.66666666666667</ele><time>2026-04-19T09:45:52Z</time></trkpt><trkpt lat="45.15021955653924" lon="9.347091760981693"><ele>73.33333333333334</ele><time>2026-04-19T09:45:53Z</time></trkpt><trkpt lat="45.15014818113889" lon="9.346885177574661"><ele>74.0</ele><time>2026-04-19T09:45:54Z</time></trkpt><trkpt lat="45.150087069861726" lon="9.346704285518147"><ele>74.0</ele><time>2026-04-19T09:45:55Z</time></trkpt><trkpt lat="45.150029384605496" lon="9.346555863710773"><ele>74.0</ele><time>2026-04-19T09:45:56Z</time></trkpt><trkpt lat="45.14996694115267" lon="9.346419085060225"><ele>74.0</ele><time>2026-04-19T09:45:57Z</time></trkpt><trkpt lat="45.1499109706315" lon="9.346270809972458"><ele>74.0</ele><time>2026-04-19T09:45:58Z</time></trkpt><trkpt lat="45.14985007531334" lon="9.3460799137015"><ele>73.0</ele><time>2026-04-19T09:45:59Z</time></trkpt><trkpt lat="45.14978642279494" lon="9.345887838507263"><ele>72.0</ele><time>2026-04-19T09:46:00Z</time></trkpt><trkpt lat="45.149719714887716" lon="9.345708311950023"><ele>71.0</ele><time>2026-04-19T09:46:01Z</time></trkpt><trkpt lat="45.14965428248224" lon="9.345537933267131"><ele>70.0</ele><time>2026-04-19T09:46:02Z</time></trkpt><trkpt lat="45.14959974008863" lon="9.345349377700709"><ele>70.0</ele><time>2026-04-19T09:46:03Z</time></trkpt><trkpt lat="45.149542028694995" lon="9.345140949853846"><ele>70.0</ele><time>2026-04-19T09:46:04Z</time></trkpt><trkpt lat="45.149477644723554" lon="9.344956979794581"><ele>70.0</ele><time>2026-04-19T09:46:05Z</time></trkpt><trkpt lat="45.14941997434889" lon="9.344790001545105"><ele>70.0</ele><time>2026-04-19T09:46:06Z</time></trkpt><trkpt lat="45.14936485506814" lon="9.34463970240973"><ele>70.0</ele><time>2026-04-19T09:46:07Z</time></trkpt><trkpt lat="45.14931865493289" lon="9.34449468017835"><ele>70.0</ele><time>2026-04-19T09:46:08Z</time></trkpt><trkpt lat="45.14926741357509" lon="9.344323521121675"><ele>70.0</ele><time>2026-04-19T09:46:09Z</time></trkpt><trkpt lat="45.14921977123809" lon="9.344147729869798"><ele>70.0</ele><time>2026-04-19T09:46:10Z</time></trkpt><trkpt lat="45.149179931399914" lon="9.343971301218314"><ele>70.25</ele><time>2026-04-19T09:46:11Z</time></trkpt><trkpt lat="45.14914665251053" lon="9.343812701610595"><ele>70.5</ele><time>2026-04-19T09:46:12Z</time></trkpt><trkpt lat="45.149112801305314" lon="9.343670223081924"><ele>70.75</ele><time>2026-04-19T09:46:13Z</time></trkpt><trkpt lat="45.14907355423996" lon="9.343511635268614"><ele>71.0</ele><time>2026-04-19T09:46:14Z</time></trkpt><trkpt lat="45.14902926745469" lon="9.343336726773497"><ele>70.75</ele><time>2026-04-19T09:46:15Z</time></trkpt><trkpt lat="45.148997456494286" lon="9.343156189383427"><ele>70.5</ele><time>2026-04-19T09:46:16Z</time></trkpt><trkpt lat="45.148981840317035" lon="9.342953130107121"><ele>70.25</ele><time>2026-04-19T09:46:17Z</time></trkpt><trkpt lat="45.148969671561545" lon="9.342736530413193"><ele>70.0</ele><time>2026-04-19T09:46:18Z</time></trkpt><trkpt lat="45.14895780232892" lon="9.342507987299227"><ele>70.0</ele><time>2026-04-19T09:46:19Z</time></trkpt><trkpt lat="45.14894498467121" lon="9.342306109937804"><ele>70.0</ele><time>2026-04-19T09:46:20Z</time></trkpt><trkpt lat="45.14892614165105" lon="9.342121589260488"><ele>70.0</ele><time>2026-04-19T09:46:21Z</time></trkpt><trkpt lat="45.1489160314168" lon="9.341942980569339"><ele>70.0</ele><time>2026-04-19T09:46:22Z</time></trkpt><trkpt lat="45.14890960919242" lon="9.341773260689099"><ele>70.2</ele><time>2026-04-19T09:46:23Z</time></trkpt><trkpt lat="45.148899678723325" lon="9.341599434477878"><ele>70.4</ele><time>2026-04-19T09:46:24Z</time></trkpt><trkpt lat="45.148885856442476" lon="9.341448358065922"><ele>70.6</ele><time>2026-04-19T09:46:25Z</time></trkpt><trkpt lat="45.148876135927736" lon="9.341322864297826"><ele>70.8</ele><time>2026-04-19T09:46:26Z</time></trkpt><trkpt lat="45.148865511517506" lon="9.341214984857311"><ele>71.0</ele><time>2026-04-19T09:46:27Z</time></trkpt><trkpt lat="45.14884822231374" lon="9.341083330771777"><ele>71.0</ele><time>2026-04-19T09:46:29Z</time></trkpt><trkpt lat="45.14880640574306" lon="9.34099002414125"><ele>71.0</ele><time>2026-04-19T09:46:32Z</time></trkpt><trkpt lat="45.148685730050204" lon="9.34090812580048"><ele>71.0</ele><time>2026-04-19T09:46:38Z</time></trkpt><trkpt lat="45.14860168444985" lon="9.340895898330192"><ele>71.0</ele><time>2026-04-19T09:46:39Z</time></trkpt><trkpt lat="45.14849297061865" lon="9.340870591003567"><ele>71.0</ele><time>2026-04-19T09:46:40Z</time></trkpt><trkpt lat="45.14839045178579" lon="9.340838644786306"><ele>71.0</ele><time>2026-04-19T09:46:41Z</time></trkpt><trkpt lat="45.14828319167334" lon="9.340801456279934"><ele>71.0</ele><time>2026-04-19T09:46:42Z</time></trkpt><trkpt lat="45.148163595791786" lon="9.34075908927657"><ele>71.0</ele><time>2026-04-19T09:46:43Z</time></trkpt><trkpt lat="45.14804453840607" lon="9.340716248608539"><ele>71.0</ele><time>2026-04-19T09:46:44Z</time></trkpt><trkpt lat="45.14791884189712" lon="9.340667514429178"><ele>71.0</ele><time>2026-04-19T09:46:45Z</time></trkpt><trkpt lat="45.14779139432713" lon="9.340620669653667"><ele>71.0</ele><time>2026-04-19T09:46:46Z</time></trkpt><trkpt lat="45.14765772031979" lon="9.340579372315446"><ele>71.0</ele><time>2026-04-19T09:46:47Z</time></trkpt><trkpt lat="45.147521329790685" lon="9.340537561025958"><ele>71.0</ele><time>2026-04-19T09:46:48Z</time></trkpt><trkpt lat="45.14739329914324" lon="9.340498970931671"><ele>70.75</ele><time>2026-04-19T09:46:49Z</time></trkpt><trkpt lat="45.14727270837673" lon="9.340453207087567"><ele>70.5</ele><time>2026-04-19T09:46:50Z</time></trkpt><trkpt lat="45.14713976075608" lon="9.340410472626143"><ele>70.25</ele><time>2026-04-19T09:46:51Z</time></trkpt><trkpt lat="45.14700251366633" lon="9.340367148650675"><ele>70.0</ele><time>2026-04-19T09:46:52Z</time></trkpt><trkpt lat="45.14687212859567" lon="9.34031558053705"><ele>70.0</ele><time>2026-04-19T09:46:53Z</time></trkpt><trkpt lat="45.14673740230714" lon="9.340268370446474"><ele>70.0</ele><time>2026-04-19T09:46:54Z</time></trkpt><trkpt lat="45.14660807762124" lon="9.340223742595548"><ele>70.0</ele><time>2026-04-19T09:46:55Z</time></trkpt><trkpt lat="45.14649087257366" lon="9.34018950441692"><ele>70.0</ele><time>2026-04-19T09:46:56Z</time></trkpt><trkpt lat="45.14638108637761" lon="9.340166467911994"><ele>69.8</ele><time>2026-04-19T09:46:57Z</time></trkpt><trkpt lat="45.146274265826676" lon="9.340170000201152"><ele>69.6</ele><time>2026-04-19T09:46:58Z</time></trkpt><trkpt lat="45.14616871618778" lon="9.340214984201332"><ele>69.4</ele><time>2026-04-19T09:46:59Z</time></trkpt><trkpt lat="45.14607250534618" lon="9.340296334260854"><ele>69.2</ele><time>2026-04-19T09:47:00Z</time></trkpt><trkpt lat="45.14599599811035" lon="9.340424378241746"><ele>69.0</ele><time>2026-04-19T09:47:01Z</time></trkpt><trkpt lat="45.145910898734954" lon="9.34056422085525"><ele>69.0</ele><time>2026-04-19T09:47:02Z</time></trkpt><trkpt lat="45.14582432422993" lon="9.340715007162347"><ele>69.0</ele><time>2026-04-19T09:47:03Z</time></trkpt><trkpt lat="45.14573433900371" lon="9.340861608854354"><ele>69.0</ele><time>2026-04-19T09:47:04Z</time></trkpt><trkpt lat="45.14563404912204" lon="9.340996547963444"><ele>69.0</ele><time>2026-04-19T09:47:05Z</time></trkpt><trkpt lat="45.14553248834984" lon="9.341125771024682"><ele>68.75</ele><time>2026-04-19T09:47:06Z</time></trkpt><trkpt lat="45.14541207798569" lon="9.34121752994473"><ele>68.5</ele><time>2026-04-19T09:47:07Z</time></trkpt><trkpt lat="45.145271897096436" lon="9.341245487396714"><ele>68.25</ele><time>2026-04-19T09:47:08Z</time></trkpt><trkpt lat="45.14513102747917" lon="9.341241173193318"><ele>68.0</ele><time>2026-04-19T09:47:09Z</time></trkpt><trkpt lat="45.14497678972409" lon="9.341213585680622"><ele>66.33333333333334</ele><time>2026-04-19T09:47:10Z</time></trkpt><trkpt lat="45.1448190086691" lon="9.341197133324782"><ele>64.66666666666667</ele><time>2026-04-19T09:47:11Z</time></trkpt><trkpt lat="45.14466197971601" lon="9.341167494423695"><ele>63.0</ele><time>2026-04-19T09:47:12Z</time></trkpt><trkpt lat="45.1445122708632" lon="9.341198830719126"><ele>63.0</ele><time>2026-04-19T09:47:13Z</time></trkpt><trkpt lat="45.14436467340959" lon="9.341237320175303"><ele>63.0</ele><time>2026-04-19T09:47:14Z</time></trkpt><trkpt lat="45.14420979436259" lon="9.341264455148334"><ele>63.0</ele><time>2026-04-19T09:47:15Z</time></trkpt><trkpt lat="45.144066968970705" lon="9.341330894365676"><ele>62.75</ele><time>2026-04-19T09:47:16Z</time></trkpt><trkpt lat="45.1439185261068" lon="9.341366078968802"><ele>62.5</ele><time>2026-04-19T09:47:17Z</time></trkpt><trkpt lat="45.14377059844057" lon="9.341397978403828"><ele>62.25</ele><time>2026-04-19T09:47:18Z</time></trkpt><trkpt lat="45.14363504710554" lon="9.341423039544049"><ele>62.0</ele><time>2026-04-19T09:47:19Z</time></trkpt><trkpt lat="45.143505327608835" lon="9.341437722522304"><ele>63.25</ele><time>2026-04-19T09:47:20Z</time></trkpt><trkpt lat="45.143387124361126" lon="9.34144868596535"><ele>64.5</ele><time>2026-04-19T09:47:21Z</time></trkpt><trkpt lat="45.14327943152466" lon="9.341488546768325"><ele>65.75</ele><time>2026-04-19T09:47:22Z</time></trkpt><trkpt lat="45.14317943622693" lon="9.341581747521175"><ele>67.0</ele><time>2026-04-19T09:47:23Z</time></trkpt><trkpt lat="45.143103952629716" lon="9.341726228147913"><ele>67.5</ele><time>2026-04-19T09:47:24Z</time></trkpt><trkpt lat="45.143060363836206" lon="9.341904470829723"><ele>68.0</ele><time>2026-04-19T09:47:25Z</time></trkpt><trkpt lat="45.14302452387791" lon="9.342073528911824"><ele>68.5</ele><time>2026-04-19T09:47:26Z</time></trkpt><trkpt lat="45.142987866242244" lon="9.342222841970168"><ele>69.0</ele><time>2026-04-19T09:47:27Z</time></trkpt><trkpt lat="45.14293574242761" lon="9.342351702847305"><ele>69.2</ele><time>2026-04-19T09:47:28Z</time></trkpt><trkpt lat="45.14290891528196" lon="9.342485221170298"><ele>69.4</ele><time>2026-04-19T09:47:29Z</time></trkpt><trkpt lat="45.142839005663035" lon="9.342584072035601"><ele>69.6</ele><time>2026-04-19T09:47:30Z</time></trkpt><trkpt lat="45.1427483593116" lon="9.342614270865926"><ele>69.8</ele><time>2026-04-19T09:47:31Z</time></trkpt><trkpt lat="45.142651507809624" lon="9.342554795335142"><ele>70.0</ele><time>2026-04-19T09:47:32Z</time></trkpt><trkpt lat="45.14252510661553" lon="9.342514358732062"><ele>70.0</ele><time>2026-04-19T09:47:33Z</time></trkpt><trkpt lat="45.14240192719918" lon="9.34245100293753"><ele>70.0</ele><time>2026-04-19T09:47:34Z</time></trkpt><trkpt lat="45.142271466055874" lon="9.342393306567084"><ele>70.0</ele><time>2026-04-19T09:47:35Z</time></trkpt><trkpt lat="45.14214270917857" lon="9.34233576468959"><ele>70.0</ele><time>2026-04-19T09:47:36Z</time></trkpt><trkpt lat="45.14202689927545" lon="9.342291643691045"><ele>70.0</ele><time>2026-04-19T09:47:37Z</time></trkpt><trkpt lat="45.14191947521279" lon="9.342249974530326"><ele>70.0</ele><time>2026-04-19T09:47:38Z</time></trkpt><trkpt lat="45.14182655174429" lon="9.342200085338238"><ele>70.0</ele><time>2026-04-19T09:47:39Z</time></trkpt><trkpt lat="45.14175111545736" lon="9.342145512202471"><ele>70.0</ele><time>2026-04-19T09:47:40Z</time></trkpt><trkpt lat="45.14166793046361" lon="9.342128303142971"><ele>70.0</ele><time>2026-04-19T09:47:41Z</time></trkpt><trkpt lat="45.14160620182714" lon="9.342089808692943"><ele>70.0</ele><time>2026-04-19T09:47:42Z</time></trkpt><trkpt lat="45.141539733603906" lon="9.342061452196909"><ele>70.0</ele><time>2026-04-19T09:47:44Z</time></trkpt><trkpt lat="45.14167014956097" lon="9.341834180033786"><ele>70.0</ele><time>2026-04-19T09:47:49Z</time></trkpt><trkpt lat="45.14173578891539" lon="9.341797119773146"><ele>70.0</ele><time>2026-04-19T09:47:50Z</time></trkpt><trkpt lat="45.141806001503625" lon="9.341743891821022"><ele>70.0</ele><time>2026-04-19T09:47:51Z</time></trkpt><trkpt lat="45.14188806180815" lon="9.341682186450214"><ele>70.0</ele><time>2026-04-19T09:47:52Z</time></trkpt><trkpt lat="45.14197315995052" lon="9.341622134387102"><ele>70.0</ele><time>2026-04-19T09:47:53Z</time></trkpt><trkpt lat="45.142048982204365" lon="9.341562100698154"><ele>70.0</ele><time>2026-04-19T09:47:54Z</time></trkpt><trkpt lat="45.14211632812265" lon="9.341498632484281"><ele>70.0</ele><time>2026-04-19T09:47:55Z</time></trkpt><trkpt lat="45.14217886056395" lon="9.341454662014222"><ele>70.0</ele><time>2026-04-19T09:47:56Z</time></trkpt><trkpt lat="45.14224328560863" lon="9.341334254617674"><ele>70.0</ele><time>2026-04-19T09:47:58Z</time></trkpt><trkpt lat="45.14219805131715" lon="9.34121282816728"><ele>69.2</ele><time>2026-04-19T09:48:00Z</time></trkpt><trkpt lat="45.1420683675035" lon="9.341209029691804"><ele>68.4</ele><time>2026-04-19T09:48:02Z</time></trkpt><trkpt lat="45.141972184144485" lon="9.341222031049549"><ele>67.6</ele><time>2026-04-19T09:48:03Z</time></trkpt><trkpt lat="45.141883727218165" lon="9.341228800360872"><ele>66.8</ele><time>2026-04-19T09:48:04Z</time></trkpt><trkpt lat="45.14180659503058" lon="9.341227960754928"><ele>66.0</ele><time>2026-04-19T09:48:05Z</time></trkpt><trkpt lat="45.141721832059254" lon="9.341195231957133"><ele>66.0</ele><time>2026-04-19T09:48:06Z</time></trkpt><trkpt lat="45.14162298527402" lon="9.341151276324343"><ele>66.0</ele><time>2026-04-19T09:48:07Z</time></trkpt><trkpt lat="45.14153026519582" lon="9.341109485432257"><ele>66.0</ele><time>2026-04-19T09:48:08Z</time></trkpt><trkpt lat="45.141444241148506" lon="9.34107301977792"><ele>66.0</ele><time>2026-04-19T09:48:09Z</time></trkpt><trkpt lat="45.14136154420042" lon="9.341031736499291"><ele>66.0</ele><time>2026-04-19T09:48:10Z</time></trkpt><trkpt lat="45.141283612090945" lon="9.341002270433439"><ele>66.0</ele><time>2026-04-19T09:48:11Z</time></trkpt><trkpt lat="45.14121627341357" lon="9.340959184631425"><ele>66.0</ele><time>2026-04-19T09:48:12Z</time></trkpt><trkpt lat="45.14114160253393" lon="9.34089930250269"><ele>66.0</ele><time>2026-04-19T09:48:13Z</time></trkpt><trkpt lat="45.14106436846322" lon="9.340845898469636"><ele>66.0</ele><time>2026-04-19T09:48:14Z</time></trkpt><trkpt lat="45.14099361141602" lon="9.340804887516756"><ele>66.0</ele><time>2026-04-19T09:48:15Z</time></trkpt><trkpt lat="45.14088332109831" lon="9.34078269107624"><ele>66.0</ele><time>2026-04-19T09:48:17Z</time></trkpt><trkpt lat="45.14082725947655" lon="9.34073100114069"><ele>66.0</ele><time>2026-04-19T09:48:18Z</time></trkpt><trkpt lat="45.140753961529796" lon="9.340659319067726"><ele>66.0</ele><time>2026-04-19T09:48:19Z</time></trkpt><trkpt lat="45.140684006397244" lon="9.340574549108986"><ele>66.0</ele><time>2026-04-19T09:48:20Z</time></trkpt><trkpt lat="45.14061433342419" lon="9.340490930324197"><ele>66.0</ele><time>2026-04-19T09:48:21Z</time></trkpt><trkpt lat="45.14055517957225" lon="9.340403848217942"><ele>66.0</ele><time>2026-04-19T09:48:22Z</time></trkpt><trkpt lat="45.140487079311725" lon="9.340304657066977"><ele>65.0</ele><time>2026-04-19T09:48:23Z</time></trkpt><trkpt lat="45.14042866285698" lon="9.340211828814944"><ele>63.99999999999999</ele><time>2026-04-19T09:48:24Z</time></trkpt><trkpt lat="45.140379536747695" lon="9.340132797884253"><ele>62.99999999999999</ele><time>2026-04-19T09:48:25Z</time></trkpt><trkpt lat="45.140304233133186" lon="9.340000565585711"><ele>62.0</ele><time>2026-04-19T09:48:27Z</time></trkpt><trkpt lat="45.14025753756987" lon="9.33994011769848"><ele>61.0</ele><time>2026-04-19T09:48:28Z</time></trkpt><trkpt lat="45.140179773015255" lon="9.339814072086146"><ele>60.99999999999999</ele><time>2026-04-19T09:48:30Z</time></trkpt><trkpt lat="45.14012604466774" lon="9.33976009087746"><ele>61.0</ele><time>2026-04-19T09:48:31Z</time></trkpt><trkpt lat="45.14006248522916" lon="9.33970881172393"><ele>61.0</ele><time>2026-04-19T09:48:32Z</time></trkpt><trkpt lat="45.13998357085962" lon="9.339659663549838"><ele>61.0</ele><time>2026-04-19T09:48:33Z</time></trkpt><trkpt lat="45.13992034241863" lon="9.33962710124662"><ele>60.99999999999999</ele><time>2026-04-19T09:48:34Z</time></trkpt><trkpt lat="45.139828896982834" lon="9.339566400346007"><ele>61.0</ele><time>2026-04-19T09:48:35Z</time></trkpt><trkpt lat="45.13975003124686" lon="9.339547881932589"><ele>60.599999999999994</ele><time>2026-04-19T09:48:36Z</time></trkpt><trkpt lat="45.13966713605548" lon="9.339490857054988"><ele>60.199999999999996</ele><time>2026-04-19T09:48:37Z</time></trkpt><trkpt lat="45.13958008038919" lon="9.339430625790127"><ele>59.800000000000004</ele><time>2026-04-19T09:48:38Z</time></trkpt><trkpt lat="45.13952366401202" lon="9.339379456799412"><ele>59.400000000000006</ele><time>2026-04-19T09:48:39Z</time></trkpt><trkpt lat="45.13938319893114" lon="9.33937714044167"><ele>59.0</ele><time>2026-04-19T09:48:41Z</time></trkpt><trkpt lat="45.139306832683005" lon="9.339406188254388"><ele>59.00000000000001</ele><time>2026-04-19T09:48:42Z</time></trkpt><trkpt lat="45.13922497803885" lon="9.33942722926259"><ele>59.0</ele><time>2026-04-19T09:48:43Z</time></trkpt><trkpt lat="45.13914358884583" lon="9.339482408841551"><ele>59.0</ele><time>2026-04-19T09:48:44Z</time></trkpt><trkpt lat="45.13905728721038" lon="9.33953136378968"><ele>59.0</ele><time>2026-04-19T09:48:45Z</time></trkpt><trkpt lat="45.13899510122322" lon="9.33958948789517"><ele>59.00000000000001</ele><time>2026-04-19T09:48:46Z</time></trkpt><trkpt lat="45.138943448866875" lon="9.339645783564627"><ele>59.0</ele><time>2026-04-19T09:48:47Z</time></trkpt><trkpt lat="45.138846410018225" lon="9.3396880313909"><ele>58.400000000000006</ele><time>2026-04-19T09:48:49Z</time></trkpt><trkpt lat="45.13879400678058" lon="9.339774556050193"><ele>57.800000000000004</ele><time>2026-04-19T09:48:52Z</time></trkpt><trkpt lat="45.13877991783631" lon="9.33988691474004"><ele>57.199999999999996</ele><time>2026-04-19T09:48:54Z</time></trkpt><trkpt lat="45.1387137697156" lon="9.33998464849024"><ele>56.599999999999994</ele><time>2026-04-19T09:48:56Z</time></trkpt><trkpt lat="45.138593274430434" lon="9.340025629437266"><ele>56.0</ele><time>2026-04-19T09:48:58Z</time></trkpt><trkpt lat="45.13846488335503" lon="9.340007947742412"><ele>56.0</ele><time>2026-04-19T09:49:00Z</time></trkpt><trkpt lat="45.138391425114655" lon="9.340019016663511"><ele>55.99999999999999</ele><time>2026-04-19T09:49:01Z</time></trkpt><trkpt lat="45.13832249181179" lon="9.34003499578291"><ele>55.99999999999999</ele><time>2026-04-19T09:49:02Z</time></trkpt><trkpt lat="45.138214888935295" lon="9.34010324228095"><ele>56.0</ele><time>2026-04-19T09:49:04Z</time></trkpt><trkpt lat="45.13811358724697" lon="9.340241549298565"><ele>56.0</ele><time>2026-04-19T09:49:06Z</time></trkpt><trkpt lat="45.13807652391287" lon="9.340335022596504"><ele>57.199999999999996</ele><time>2026-04-19T09:49:07Z</time></trkpt><trkpt lat="45.13802860245118" lon="9.340419890673383"><ele>58.39999999999999</ele><time>2026-04-19T09:49:08Z</time></trkpt><trkpt lat="45.137986038051935" lon="9.340511406628247"><ele>59.6</ele><time>2026-04-19T09:49:09Z</time></trkpt><trkpt lat="45.137950219437535" lon="9.34066939063229"><ele>60.8</ele><time>2026-04-19T09:49:11Z</time></trkpt><trkpt lat="45.13794153860627" lon="9.340823171706187"><ele>62.0</ele><time>2026-04-19T09:49:13Z</time></trkpt><trkpt lat="45.13786968482523" lon="9.340910485262922"><ele>62.6</ele><time>2026-04-19T09:49:15Z</time></trkpt><trkpt lat="45.13775979402324" lon="9.34090831038274"><ele>63.2</ele><time>2026-04-19T09:49:17Z</time></trkpt><trkpt lat="45.1376729444015" lon="9.34087699337127"><ele>63.8</ele><time>2026-04-19T09:49:18Z</time></trkpt><trkpt lat="45.13757632474046" lon="9.340841482416128"><ele>64.4</ele><time>2026-04-19T09:49:19Z</time></trkpt><trkpt lat="45.13745212036978" lon="9.34080982992251"><ele>65.0</ele><time>2026-04-19T09:49:20Z</time></trkpt><trkpt lat="45.13734067743264" lon="9.340788529763449"><ele>65.75</ele><time>2026-04-19T09:49:21Z</time></trkpt><trkpt lat="45.13722897125324" lon="9.34077838537205"><ele>66.5</ele><time>2026-04-19T09:49:22Z</time></trkpt><trkpt lat="45.137107739403056" lon="9.34077662978368"><ele>67.25</ele><time>2026-04-19T09:49:23Z</time></trkpt><trkpt lat="45.1369819613174" lon="9.34077911577348"><ele>68.0</ele><time>2026-04-19T09:49:24Z</time></trkpt><trkpt lat="45.136856314041346" lon="9.340786189904033"><ele>68.0</ele><time>2026-04-19T09:49:25Z</time></trkpt><trkpt lat="45.13674818293348" lon="9.340791241914886"><ele>68.0</ele><time>2026-04-19T09:49:26Z</time></trkpt><trkpt lat="45.13664915849095" lon="9.340801830446596"><ele>68.0</ele><time>2026-04-19T09:49:27Z</time></trkpt><trkpt lat="45.13655876337386" lon="9.340817085407213"><ele>68.0</ele><time>2026-04-19T09:49:28Z</time></trkpt><trkpt lat="45.136479985565636" lon="9.34084322011656"><ele>68.0</ele><time>2026-04-19T09:49:29Z</time></trkpt><trkpt lat="45.136412422700666" lon="9.340877363658562"><ele>69.0</ele><time>2026-04-19T09:49:30Z</time></trkpt><trkpt lat="45.13634302264787" lon="9.340921644629937"><ele>70.0</ele><time>2026-04-19T09:49:32Z</time></trkpt><trkpt lat="45.136271298235954" lon="9.34096326044291"><ele>71.0</ele><time>2026-04-19T09:53:09Z</time></trkpt><trkpt lat="45.136224357590066" lon="9.341100694092942"><ele>72.0</ele><time>2026-04-19T09:53:11Z</time></trkpt><trkpt lat="45.136236249267064" lon="9.341287256486677"><ele>73.0</ele><time>2026-04-19T09:53:13Z</time></trkpt><trkpt lat="45.13626530739788" lon="9.34137965055177"><ele>72.6</ele><time>2026-04-19T09:53:14Z</time></trkpt><trkpt lat="45.13631069695031" lon="9.341486983324897"><ele>72.19999999999999</ele><time>2026-04-19T09:53:15Z</time></trkpt><trkpt lat="45.136359345517036" lon="9.341606915505068"><ele>71.8</ele><time>2026-04-19T09:53:16Z</time></trkpt><trkpt lat="45.136418150253796" lon="9.34173518357851"><ele>71.39999999999999</ele><time>2026-04-19T09:53:17Z</time></trkpt><trkpt lat="45.13647518756454" lon="9.341878406706645"><ele>71.0</ele><time>2026-04-19T09:53:18Z</time></trkpt><trkpt lat="45.136522763436744" lon="9.342036052441344"><ele>71.0</ele><time>2026-04-19T09:53:19Z</time></trkpt><trkpt lat="45.13656766122677" lon="9.34217652680529"><ele>71.0</ele><time>2026-04-19T09:53:20Z</time></trkpt><trkpt lat="45.13660021276674" lon="9.342306106575442"><ele>71.0</ele><time>2026-04-19T09:53:21Z</time></trkpt><trkpt lat="45.13662861899834" lon="9.342419946711855"><ele>71.0</ele><time>2026-04-19T09:53:22Z</time></trkpt><trkpt lat="45.1366646307139" lon="9.34254001686634"><ele>71.0</ele><time>2026-04-19T09:53:23Z</time></trkpt><trkpt lat="45.13669771157459" lon="9.3426315547531"><ele>71.0</ele><time>2026-04-19T09:53:24Z</time></trkpt><trkpt lat="45.13674079899989" lon="9.34272089522598"><ele>71.0</ele><time>2026-04-19T09:53:25Z</time></trkpt><trkpt lat="45.136804856535676" lon="9.342808450201531"><ele>71.0</ele><time>2026-04-19T09:53:26Z</time></trkpt><trkpt lat="45.1368862612853" lon="9.342876119335921"><ele>71.0</ele><time>2026-04-19T09:53:27Z</time></trkpt><trkpt lat="45.13698788303708" lon="9.342941110601373"><ele>71.0</ele><time>2026-04-19T09:53:28Z</time></trkpt><trkpt lat="45.13709791164851" lon="9.34298558291232"><ele>71.0</ele><time>2026-04-19T09:53:29Z</time></trkpt><trkpt lat="45.13719428930211" lon="9.343004939377948"><ele>71.0</ele><time>2026-04-19T09:53:30Z</time></trkpt><trkpt lat="45.137303365658255" lon="9.343004506118653"><ele>71.0</ele><time>2026-04-19T09:53:31Z</time></trkpt><trkpt lat="45.137437813901094" lon="9.343006924876098"><ele>71.0</ele><time>2026-04-19T09:53:32Z</time></trkpt><trkpt lat="45.13756823761853" lon="9.343008308345274"><ele>70.0</ele><time>2026-04-19T09:53:33Z</time></trkpt><trkpt lat="45.13770794197727" lon="9.343014197725592"><ele>69.0</ele><time>2026-04-19T09:53:34Z</time></trkpt><trkpt lat="45.137858636785886" lon="9.343017096629472"><ele>68.0</ele><time>2026-04-19T09:53:35Z</time></trkpt><trkpt lat="45.13799665872123" lon="9.343018037494403"><ele>67.0</ele><time>2026-04-19T09:53:36Z</time></trkpt><trkpt lat="45.13813039201698" lon="9.343011261607266"><ele>67.0</ele><time>2026-04-19T09:53:37Z</time></trkpt><trkpt lat="45.13825238570198" lon="9.342991076193272"><ele>67.0</ele><time>2026-04-19T09:53:38Z</time></trkpt><trkpt lat="45.138352694413044" lon="9.342963229677766"><ele>67.0</ele><time>2026-04-19T09:53:39Z</time></trkpt><trkpt lat="45.138442452811056" lon="9.342940857477778"><ele>67.0</ele><time>2026-04-19T09:53:40Z</time></trkpt><trkpt lat="45.13851913214336" lon="9.342921338885777"><ele>67.0</ele><time>2026-04-19T09:53:41Z</time></trkpt><trkpt lat="45.1385878303238" lon="9.34289471674762"><ele>67.0</ele><time>2026-04-19T09:53:42Z</time></trkpt><trkpt lat="45.13868055000212" lon="9.342785287229608"><ele>67.0</ele><time>2026-04-19T09:53:44Z</time></trkpt><trkpt lat="45.13870330659197" lon="9.342653006717704"><ele>67.0</ele><time>2026-04-19T09:53:46Z</time></trkpt><trkpt lat="45.13867510016376" lon="9.342499725281277"><ele>67.0</ele><time>2026-04-19T09:53:48Z</time></trkpt><trkpt lat="45.138595498190135" lon="9.342355260815964"><ele>67.0</ele><time>2026-04-19T09:53:50.001Z</time></trkpt><trkpt lat="45.13852824000647" lon="9.342248207624277"><ele>67.0</ele><time>2026-04-19T09:53:51.001Z</time></trkpt><trkpt lat="45.13845483289488" lon="9.342113270955283"><ele>67.0</ele><time>2026-04-19T09:53:52.001Z</time></trkpt><trkpt lat="45.138383849138755" lon="9.341956248067556"><ele>67.0</ele><time>2026-04-19T09:53:53.001Z</time></trkpt><trkpt lat="45.13831750414662" lon="9.341791490644034"><ele>67.25</ele><time>2026-04-19T09:53:54.001Z</time></trkpt><trkpt lat="45.13825067074643" lon="9.341636361988057"><ele>67.5</ele><time>2026-04-19T09:53:55.001Z</time></trkpt><trkpt lat="45.13819198456844" lon="9.341492456200037"><ele>67.75</ele><time>2026-04-19T09:53:56.001Z</time></trkpt><trkpt lat="45.138135905037835" lon="9.341356608454532"><ele>68.0</ele><time>2026-04-19T09:53:57.001Z</time></trkpt><trkpt lat="45.13808083014057" lon="9.341230098746033"><ele>67.5</ele><time>2026-04-19T09:53:58.001Z</time></trkpt><trkpt lat="45.13803573169858" lon="9.341129509774138"><ele>67.0</ele><time>2026-04-19T09:53:59.001Z</time></trkpt><trkpt lat="45.13799007840007" lon="9.341041446581242"><ele>66.5</ele><time>2026-04-19T09:54:00.001Z</time></trkpt><trkpt lat="45.13793848089382" lon="9.340982477470172"><ele>66.0</ele><time>2026-04-19T09:54:01.001Z</time></trkpt><trkpt lat="45.137865465186366" lon="9.340913764331587"><ele>65.5</ele><time>2026-04-19T09:54:02Z</time></trkpt><trkpt lat="45.137780414589706" lon="9.340860390705409"><ele>65.0</ele><time>2026-04-19T09:54:03Z</time></trkpt><trkpt lat="45.13767394289016" lon="9.340813375340907"><ele>65.0</ele><time>2026-04-19T09:54:04Z</time></trkpt><trkpt lat="45.13756412139038" lon="9.340784076009035"><ele>65.0</ele><time>2026-04-19T09:54:05Z</time></trkpt><trkpt lat="45.137435214336385" lon="9.340769773088631"><ele>65.0</ele><time>2026-04-19T09:54:06Z</time></trkpt><trkpt lat="45.13728788976233" lon="9.34076300818303"><ele>65.0</ele><time>2026-04-19T09:54:07Z</time></trkpt><trkpt lat="45.13713787058304" lon="9.340768408583482"><ele>65.75</ele><time>2026-04-19T09:54:08Z</time></trkpt><trkpt lat="45.13698413458573" lon="9.340775474800052"><ele>66.5</ele><time>2026-04-19T09:54:09Z</time></trkpt><trkpt lat="45.13683432290245" lon="9.340781648867132"><ele>67.25</ele><time>2026-04-19T09:54:10Z</time></trkpt><trkpt lat="45.13669958303034" lon="9.340785590596065"><ele>68.0</ele><time>2026-04-19T09:54:11Z</time></trkpt><trkpt lat="45.13658301891734" lon="9.340795313323609"><ele>69.0</ele><time>2026-04-19T09:54:12Z</time></trkpt><trkpt lat="45.13647781570741" lon="9.340815412818541"><ele>70.0</ele><time>2026-04-19T09:54:13Z</time></trkpt><trkpt lat="45.13638723997154" lon="9.3408411860008"><ele>71.0</ele><time>2026-04-19T09:54:14Z</time></trkpt><trkpt lat="45.136321071223456" lon="9.340873797689058"><ele>72.0</ele><time>2026-04-19T09:54:15Z</time></trkpt><trkpt lat="45.13623977432778" lon="9.340949833366427"><ele>73.0</ele><time>2026-04-19T09:54:17Z</time></trkpt><trkpt lat="45.13617969555254" lon="9.341041006040479"><ele>73.0</ele><time>2026-04-19T09:54:19Z</time></trkpt><trkpt lat="45.136142979785646" lon="9.341125555411093"><ele>73.0</ele><time>2026-04-19T09:54:20Z</time></trkpt><trkpt lat="45.13611598344606" lon="9.341214003664339"><ele>73.0</ele><time>2026-04-19T09:54:21Z</time></trkpt><trkpt lat="45.13609186314381" lon="9.341300406823732"><ele>73.0</ele><time>2026-04-19T09:54:22Z</time></trkpt><trkpt lat="45.13607610444462" lon="9.341392402422711"><ele>73.0</ele><time>2026-04-19T09:54:23Z</time></trkpt><trkpt lat="45.136071485608866" lon="9.341494367807524"><ele>73.0</ele><time>2026-04-19T09:54:24Z</time></trkpt><trkpt lat="45.13607879539136" lon="9.34160834275222"><ele>73.0</ele><time>2026-04-19T09:54:25Z</time></trkpt><trkpt lat="45.13609133337277" lon="9.341715635004077"><ele>72.6</ele><time>2026-04-19T09:54:26Z</time></trkpt><trkpt lat="45.13610824564873" lon="9.341807080682845"><ele>72.19999999999999</ele><time>2026-04-19T09:54:27Z</time></trkpt><trkpt lat="45.13614542228328" lon="9.341960083899234"><ele>71.8</ele><time>2026-04-19T09:54:29Z</time></trkpt><trkpt lat="45.13622272056681" lon="9.342102653176504"><ele>71.39999999999999</ele><time>2026-04-19T09:54:31Z</time></trkpt><trkpt lat="45.13627374205433" lon="9.342169666557375"><ele>71.0</ele><time>2026-04-19T09:54:32Z</time></trkpt><trkpt lat="45.13633695615949" lon="9.342237745081448"><ele>71.0</ele><time>2026-04-19T09:54:33Z</time></trkpt><trkpt lat="45.13639400985447" lon="9.342285843730686"><ele>71.0</ele><time>2026-04-19T09:54:34Z</time></trkpt><trkpt lat="45.13649925661655" lon="9.342397936740001"><ele>71.0</ele><time>2026-04-19T09:54:36Z</time></trkpt><trkpt lat="45.13654803706724" lon="9.342473919022252"><ele>71.0</ele><time>2026-04-19T09:54:37Z</time></trkpt><trkpt lat="45.13660296947341" lon="9.342595582684321"><ele>71.0</ele><time>2026-04-19T09:54:39Z</time></trkpt><trkpt lat="45.1366727900075" lon="9.342701979638235"><ele>71.0</ele><time>2026-04-19T09:54:41Z</time></trkpt><trkpt lat="45.136749283250225" lon="9.342805489404768"><ele>71.0</ele><time>2026-04-19T09:54:43Z</time></trkpt><trkpt lat="45.136801344763946" lon="9.342861517553336"><ele>71.0</ele><time>2026-04-19T09:54:45Z</time></trkpt><trkpt lat="45.13686220398875" lon="9.342893650375869"><ele>71.0</ele><time>2026-04-19T09:55:02Z</time></trkpt><trkpt lat="45.136923676031785" lon="9.342915364822463"><ele>71.0</ele><time>2026-04-19T09:55:03Z</time></trkpt><trkpt lat="45.137005524237615" lon="9.342938187857524"><ele>71.0</ele><time>2026-04-19T09:55:04Z</time></trkpt><trkpt lat="45.13709670613914" lon="9.342966173347834"><ele>71.0</ele><time>2026-04-19T09:55:05Z</time></trkpt><trkpt lat="45.137187724493245" lon="9.34298559269017"><ele>71.0</ele><time>2026-04-19T09:55:06Z</time></trkpt><trkpt lat="45.13728327147685" lon="9.34299569189968"><ele>71.0</ele><time>2026-04-19T09:55:07Z</time></trkpt><trkpt lat="45.1373903611952" lon="9.342999600029183"><ele>71.0</ele><time>2026-04-19T09:55:08Z</time></trkpt><trkpt lat="45.137504924496604" lon="9.34300046714332"><ele>71.0</ele><time>2026-04-19T09:55:09Z</time></trkpt><trkpt lat="45.13762839743422" lon="9.343000384762664"><ele>70.0</ele><time>2026-04-19T09:55:10Z</time></trkpt><trkpt lat="45.13775555104694" lon="9.34300350307473"><ele>69.0</ele><time>2026-04-19T09:55:11Z</time></trkpt><trkpt lat="45.13786374690098" lon="9.343009231134234"><ele>68.0</ele><time>2026-04-19T09:55:12Z</time></trkpt><trkpt lat="45.13797165621632" lon="9.343015097391453"><ele>67.0</ele><time>2026-04-19T09:55:13Z</time></trkpt><trkpt lat="45.138086073028276" lon="9.343012053372876"><ele>67.0</ele><time>2026-04-19T09:55:14Z</time></trkpt><trkpt lat="45.13819266583641" lon="9.342990949008477"><ele>67.0</ele><time>2026-04-19T09:55:15Z</time></trkpt><trkpt lat="45.13828844763603" lon="9.342974450755154"><ele>67.0</ele><time>2026-04-19T09:55:16Z</time></trkpt><trkpt lat="45.13837717023045" lon="9.342955143319317"><ele>67.0</ele><time>2026-04-19T09:55:17Z</time></trkpt><trkpt lat="45.13845421704883" lon="9.342935686276807"><ele>67.0</ele><time>2026-04-19T09:55:18Z</time></trkpt><trkpt lat="45.13852544643798" lon="9.342917783514189"><ele>67.0</ele><time>2026-04-19T09:55:19Z</time></trkpt><trkpt lat="45.13858530000666" lon="9.342884984002747"><ele>67.0</ele><time>2026-04-19T09:55:20Z</time></trkpt><trkpt lat="45.13866244871131" lon="9.342793509433335"><ele>67.0</ele><time>2026-04-19T09:55:22Z</time></trkpt><trkpt lat="45.13869067377474" lon="9.34266344177741"><ele>67.0</ele><time>2026-04-19T09:55:24Z</time></trkpt><trkpt lat="45.138664068734364" lon="9.34250672750134"><ele>67.0</ele><time>2026-04-19T09:55:26Z</time></trkpt><trkpt lat="45.1386289213931" lon="9.342419531374775"><ele>67.0</ele><time>2026-04-19T09:55:27Z</time></trkpt><trkpt lat="45.13857569465881" lon="9.342334614630804"><ele>67.0</ele><time>2026-04-19T09:55:28Z</time></trkpt><trkpt lat="45.138506051895426" lon="9.342228071428924"><ele>67.0</ele><time>2026-04-19T09:55:29Z</time></trkpt><trkpt lat="45.138440443455366" lon="9.342095992717578"><ele>67.0</ele><time>2026-04-19T09:55:30Z</time></trkpt><trkpt lat="45.138381058041304" lon="9.341968987910596"><ele>67.0</ele><time>2026-04-19T09:55:31Z</time></trkpt><trkpt lat="45.138334569605675" lon="9.34185856522808"><ele>67.0</ele><time>2026-04-19T09:55:32Z</time></trkpt><trkpt lat="45.138291959646004" lon="9.341752734115937"><ele>67.16666666666666</ele><time>2026-04-19T09:55:33Z</time></trkpt><trkpt lat="45.138246688511444" lon="9.341647650447264"><ele>67.33333333333333</ele><time>2026-04-19T09:55:34Z</time></trkpt><trkpt lat="45.13820324672818" lon="9.341539946371675"><ele>67.5</ele><time>2026-04-19T09:55:35Z</time></trkpt><trkpt lat="45.13815891802921" lon="9.341439560657832"><ele>67.66666666666667</ele><time>2026-04-19T09:55:36Z</time></trkpt><trkpt lat="45.13811392326505" lon="9.34132906668739"><ele>67.83333333333334</ele><time>2026-04-19T09:55:37Z</time></trkpt><trkpt lat="45.138069357323324" lon="9.341214264347832"><ele>68.0</ele><time>2026-04-19T09:55:38Z</time></trkpt><trkpt lat="45.138028388105326" lon="9.341132281146082"><ele>67.4</ele><time>2026-04-19T09:55:39Z</time></trkpt><trkpt lat="45.13798613114264" lon="9.34105479933726"><ele>66.8</ele><time>2026-04-19T09:55:40Z</time></trkpt><trkpt lat="45.13788446986502" lon="9.340955912257582"><ele>66.2</ele><time>2026-04-19T09:55:42Z</time></trkpt><trkpt lat="45.13780760409283" lon="9.340914630427285"><ele>65.6</ele><time>2026-04-19T09:55:43Z</time></trkpt><trkpt lat="45.1377098272708" lon="9.340880564753776"><ele>65.0</ele><time>2026-04-19T09:55:44Z</time></trkpt><trkpt lat="45.13758236099434" lon="9.340841331729557"><ele>65.0</ele><time>2026-04-19T09:55:45Z</time></trkpt><trkpt lat="45.13743340106549" lon="9.340804672068922"><ele>65.0</ele><time>2026-04-19T09:55:46Z</time></trkpt><trkpt lat="45.13727252285441" lon="9.340779341293663"><ele>65.0</ele><time>2026-04-19T09:55:47Z</time></trkpt><trkpt lat="45.13710875185049" lon="9.340769109252237"><ele>65.75</ele><time>2026-04-19T09:55:48Z</time></trkpt><trkpt lat="45.136966637369945" lon="9.340770407540932"><ele>66.5</ele><time>2026-04-19T09:55:49Z</time></trkpt><trkpt lat="45.136835393423524" lon="9.340779422710547"><ele>67.25</ele><time>2026-04-19T09:55:50Z</time></trkpt><trkpt lat="45.136716487296056" lon="9.340791716345542"><ele>68.0</ele><time>2026-04-19T09:55:51Z</time></trkpt><trkpt lat="45.1366215024394" lon="9.340807325651014"><ele>68.71428571428571</ele><time>2026-04-19T09:55:52Z</time></trkpt><trkpt lat="45.13654526399651" lon="9.340819619736173"><ele>69.42857142857143</ele><time>2026-04-19T09:55:53Z</time></trkpt><trkpt lat="45.13648105384901" lon="9.340838469980582"><ele>70.14285714285714</ele><time>2026-04-19T09:55:54Z</time></trkpt><trkpt lat="45.13642130910019" lon="9.340873238820768"><ele>70.85714285714286</ele><time>2026-04-19T09:55:55Z</time></trkpt><trkpt lat="45.13636545043884" lon="9.340922700196678"><ele>71.57142857142857</ele><time>2026-04-19T09:55:56Z</time></trkpt><trkpt lat="45.13631926682919" lon="9.34099090340159"><ele>72.28571428571428</ele><time>2026-04-19T09:55:57Z</time></trkpt><trkpt lat="45.136285881599825" lon="9.341073213137355"><ele>73.0</ele><time>2026-04-19T09:55:58Z</time></trkpt><trkpt lat="45.136268029198185" lon="9.341165313559996"><ele>73.0</ele><time>2026-04-19T09:55:59Z</time></trkpt><trkpt lat="45.13627079888819" lon="9.341268376974424"><ele>73.0</ele><time>2026-04-19T09:56:00Z</time></trkpt><trkpt lat="45.1362910020119" lon="9.341392674879545"><ele>73.0</ele><time>2026-04-19T09:56:01Z</time></trkpt><trkpt lat="45.136330525236005" lon="9.341531274695761"><ele>73.0</ele><time>2026-04-19T09:56:02Z</time></trkpt><trkpt lat="45.13638258230851" lon="9.341700076886903"><ele>73.0</ele><time>2026-04-19T09:56:03Z</time></trkpt><trkpt lat="45.13644433970739" lon="9.341898254576858"><ele>72.5</ele><time>2026-04-19T09:56:04Z</time></trkpt><trkpt lat="45.13650716486522" lon="9.342089400302722"><ele>72.0</ele><time>2026-04-19T09:56:05Z</time></trkpt><trkpt lat="45.136555280958405" lon="9.342254091193789"><ele>71.5</ele><time>2026-04-19T09:56:06Z</time></trkpt><trkpt lat="45.136597505981335" lon="9.342400783260908"><ele>71.0</ele><time>2026-04-19T09:56:07Z</time></trkpt><trkpt lat="45.1366436577409" lon="9.342538615886278"><ele>71.0</ele><time>2026-04-19T09:56:08Z</time></trkpt><trkpt lat="45.13668593564035" lon="9.342652974205619"><ele>71.0</ele><time>2026-04-19T09:56:09Z</time></trkpt><trkpt lat="45.136751699519415" lon="9.342747630183068"><ele>71.0</ele><time>2026-04-19T09:56:10Z</time></trkpt><trkpt lat="45.136811298036584" lon="9.342828414987352"><ele>71.0</ele><time>2026-04-19T09:56:11Z</time></trkpt><trkpt lat="45.13687932745835" lon="9.342900662549853"><ele>71.0</ele><time>2026-04-19T09:56:12Z</time></trkpt><trkpt lat="45.13696825556227" lon="9.342958372729438"><ele>71.0</ele><time>2026-04-19T09:56:13Z</time></trkpt><trkpt lat="45.137061518402874" lon="9.3429969867313"><ele>71.0</ele><time>2026-04-19T09:56:14Z</time></trkpt><trkpt lat="45.137163745031266" lon="9.34301383073117"><ele>71.0</ele><time>2026-04-19T09:56:15Z</time></trkpt><trkpt lat="45.137276378702644" lon="9.343019775336442"><ele>71.0</ele><time>2026-04-19T09:56:16Z</time></trkpt><trkpt lat="45.13740763707919" lon="9.343019601702302"><ele>71.0</ele><time>2026-04-19T09:56:17Z</time></trkpt><trkpt lat="45.13755072691068" lon="9.343018035967727"><ele>69.66666666666667</ele><time>2026-04-19T09:56:18Z</time></trkpt><trkpt lat="45.137709758922284" lon="9.343014939201135"><ele>68.33333333333333</ele><time>2026-04-19T09:56:19Z</time></trkpt><trkpt lat="45.13787597216235" lon="9.343015309000792"><ele>67.0</ele><time>2026-04-19T09:56:20Z</time></trkpt><trkpt lat="45.13804433188929" lon="9.343005673548657"><ele>67.0</ele><time>2026-04-19T09:56:21Z</time></trkpt><trkpt lat="45.138192705271194" lon="9.342988023147347"><ele>67.0</ele><time>2026-04-19T09:56:22Z</time></trkpt><trkpt lat="45.13831657111059" lon="9.342963126801724"><ele>67.0</ele><time>2026-04-19T09:56:23Z</time></trkpt><trkpt lat="45.13842306311017" lon="9.342936341749123"><ele>67.0</ele><time>2026-04-19T09:56:24Z</time></trkpt><trkpt lat="45.13850575833837" lon="9.342910098088822"><ele>67.0</ele><time>2026-04-19T09:56:25Z</time></trkpt><trkpt lat="45.13857225385235" lon="9.342883062223631"><ele>67.0</ele><time>2026-04-19T09:56:26Z</time></trkpt><trkpt lat="45.1386579094726" lon="9.342793791134424"><ele>67.0</ele><time>2026-04-19T09:56:28Z</time></trkpt><trkpt lat="45.138700815348905" lon="9.342670483483168"><ele>67.0</ele><time>2026-04-19T09:56:30Z</time></trkpt><trkpt lat="45.13868565485638" lon="9.342524958654222"><ele>67.0</ele><time>2026-04-19T09:56:32Z</time></trkpt><trkpt lat="45.138607782196225" lon="9.342373159420344"><ele>67.0</ele><time>2026-04-19T09:56:34Z</time></trkpt><trkpt lat="45.13853280035783" lon="9.342261845668222"><ele>67.0</ele><time>2026-04-19T09:56:35Z</time></trkpt><trkpt lat="45.1384561145112" lon="9.342114389137349"><ele>67.0</ele><time>2026-04-19T09:56:36Z</time></trkpt><trkpt lat="45.13837810254192" lon="9.341934857843752"><ele>67.0</ele><time>2026-04-19T09:56:37Z</time></trkpt><trkpt lat="45.13829789336119" lon="9.341756123194804"><ele>67.25</ele><time>2026-04-19T09:56:38Z</time></trkpt><trkpt lat="45.138222377919426" lon="9.341569829185591"><ele>67.5</ele><time>2026-04-19T09:56:39Z</time></trkpt><trkpt lat="45.13815643055607" lon="9.341407893088297"><ele>67.75</ele><time>2026-04-19T09:56:40Z</time></trkpt><trkpt lat="45.13809638456812" lon="9.34125908505227"><ele>68.0</ele><time>2026-04-19T09:56:41Z</time></trkpt><trkpt lat="45.13804056314382" lon="9.341132505615715"><ele>67.4</ele><time>2026-04-19T09:56:42Z</time></trkpt><trkpt lat="45.1379895922632" lon="9.341041977818836"><ele>66.8</ele><time>2026-04-19T09:56:43Z</time></trkpt><trkpt lat="45.13793355889569" lon="9.340970713389288"><ele>66.2</ele><time>2026-04-19T09:56:44Z</time></trkpt><trkpt lat="45.13786132302203" lon="9.340909162665167"><ele>65.6</ele><time>2026-04-19T09:56:45Z</time></trkpt><trkpt lat="45.13776503990183" lon="9.34085613083091"><ele>65.0</ele><time>2026-04-19T09:56:46Z</time></trkpt><trkpt lat="45.137659047632894" lon="9.340817964235649"><ele>65.0</ele><time>2026-04-19T09:56:47Z</time></trkpt><trkpt lat="45.13752213605564" lon="9.340779232824216"><ele>65.0</ele><time>2026-04-19T09:56:48Z</time></trkpt><trkpt lat="45.137384847012434" lon="9.34076334607246"><ele>65.0</ele><time>2026-04-19T09:56:49Z</time></trkpt><trkpt lat="45.13723172349591" lon="9.340765386826616"><ele>65.0</ele><time>2026-04-19T09:56:50Z</time></trkpt><trkpt lat="45.13706868322294" lon="9.340774092241562"><ele>65.75</ele><time>2026-04-19T09:56:51Z</time></trkpt><trkpt lat="45.136912572057234" lon="9.34077587677937"><ele>66.5</ele><time>2026-04-19T09:56:52Z</time></trkpt><trkpt lat="45.13676610549527" lon="9.340785146973007"><ele>67.25</ele><time>2026-04-19T09:56:53Z</time></trkpt><trkpt lat="45.13664029953001" lon="9.340795757259404"><ele>68.0</ele><time>2026-04-19T09:56:54Z</time></trkpt><trkpt lat="45.1365371838693" lon="9.340816633721793"><ele>68.83333333333334</ele><time>2026-04-19T09:56:55Z</time></trkpt><trkpt lat="45.13645680471525" lon="9.340842977690402"><ele>69.66666666666667</ele><time>2026-04-19T09:56:56Z</time></trkpt><trkpt lat="45.13638808078691" lon="9.340881245793605"><ele>70.5</ele><time>2026-04-19T09:56:57Z</time></trkpt><trkpt lat="45.136336956476676" lon="9.340947293962198"><ele>71.33333333333333</ele><time>2026-04-19T09:56:58Z</time></trkpt><trkpt lat="45.13629760421561" lon="9.34103367706796"><ele>72.16666666666666</ele><time>2026-04-19T09:56:59Z</time></trkpt><trkpt lat="45.1362718430455" lon="9.341132488622758"><ele>73.0</ele><time>2026-04-19T09:57:00Z</time></trkpt><trkpt lat="45.13627414584604" lon="9.341244584656486"><ele>73.0</ele><time>2026-04-19T09:57:01Z</time></trkpt><trkpt lat="45.13628620467758" lon="9.341362705414692"><ele>73.0</ele><time>2026-04-19T09:57:02Z</time></trkpt><trkpt lat="45.1363248048084" lon="9.341502684564565"><ele>73.0</ele><time>2026-04-19T09:57:03Z</time></trkpt><trkpt lat="45.13637798148258" lon="9.341668662948255"><ele>73.0</ele><time>2026-04-19T09:57:04Z</time></trkpt><trkpt lat="45.13644214970926" lon="9.341856708046135"><ele>72.5</ele><time>2026-04-19T09:57:05Z</time></trkpt><trkpt lat="45.136503098893975" lon="9.342043580819182"><ele>72.0</ele><time>2026-04-19T09:57:06Z</time></trkpt><trkpt lat="45.136554112333776" lon="9.342228483053301"><ele>71.5</ele><time>2026-04-19T09:57:07Z</time></trkpt><trkpt lat="45.13659770509382" lon="9.34239721178741"><ele>71.0</ele><time>2026-04-19T09:57:08Z</time></trkpt><trkpt lat="45.13663913662693" lon="9.342541507659718"><ele>71.0</ele><time>2026-04-19T09:57:09Z</time></trkpt><trkpt lat="45.13668830931935" lon="9.342665202135679"><ele>71.0</ele><time>2026-04-19T09:57:10Z</time></trkpt><trkpt lat="45.13674642427248" lon="9.342772367089664"><ele>71.0</ele><time>2026-04-19T09:57:11Z</time></trkpt><trkpt lat="45.13682123634718" lon="9.34285254628729"><ele>71.0</ele><time>2026-04-19T09:57:12Z</time></trkpt><trkpt lat="45.13690639447667" lon="9.342919369655977"><ele>71.0</ele><time>2026-04-19T09:57:13Z</time></trkpt><trkpt lat="45.13701254398038" lon="9.342974148450018"><ele>71.0</ele><time>2026-04-19T09:57:14Z</time></trkpt><trkpt lat="45.13711340657496" lon="9.343007753574753"><ele>71.0</ele><time>2026-04-19T09:57:15Z</time></trkpt><trkpt lat="45.13722114603095" lon="9.343022190689423"><ele>71.0</ele><time>2026-04-19T09:57:16Z</time></trkpt><trkpt lat="45.1373447588828" lon="9.343019896683142"><ele>71.0</ele><time>2026-04-19T09:57:17Z</time></trkpt><trkpt lat="45.137491887474305" lon="9.343020579674867"><ele>69.66666666666667</ele><time>2026-04-19T09:57:18Z</time></trkpt><trkpt lat="45.13764937182021" lon="9.343024740501951"><ele>68.33333333333333</ele><time>2026-04-19T09:57:19Z</time></trkpt><trkpt lat="45.13780809776479" lon="9.343028862307149"><ele>67.0</ele><time>2026-04-19T09:57:20Z</time></trkpt><trkpt lat="45.13796687144045" lon="9.343023963356814"><ele>67.0</ele><time>2026-04-19T09:57:21Z</time></trkpt><trkpt lat="45.13811125741724" lon="9.34300920599662"><ele>67.0</ele><time>2026-04-19T09:57:22Z</time></trkpt><trkpt lat="45.13822985641329" lon="9.342962054535821"><ele>67.0</ele><time>2026-04-19T09:57:23Z</time></trkpt><trkpt lat="45.138355197656004" lon="9.342952879511211"><ele>67.0</ele><time>2026-04-19T09:57:24Z</time></trkpt><trkpt lat="45.138452432430675" lon="9.342932816231569"><ele>67.0</ele><time>2026-04-19T09:57:25Z</time></trkpt><trkpt lat="45.13853356483244" lon="9.34290541071228"><ele>67.0</ele><time>2026-04-19T09:57:26Z</time></trkpt><trkpt lat="45.13859501963565" lon="9.342868545521206"><ele>67.0</ele><time>2026-04-19T09:57:27Z</time></trkpt><trkpt lat="45.1386834713972" lon="9.34275506901569"><ele>67.0</ele><time>2026-04-19T09:57:29Z</time></trkpt><trkpt lat="45.13870080536398" lon="9.342620910923474"><ele>67.0</ele><time>2026-04-19T09:57:31Z</time></trkpt><trkpt lat="45.13864836093531" lon="9.342442558053369"><ele>67.0</ele><time>2026-04-19T09:57:33Z</time></trkpt><trkpt lat="45.138586207214" lon="9.34234693622762"><ele>67.0</ele><time>2026-04-19T09:57:34Z</time></trkpt><trkpt lat="45.13850741134345" lon="9.342215004526002"><ele>67.0</ele><time>2026-04-19T09:57:35Z</time></trkpt><trkpt lat="45.13842736763549" lon="9.342058541254637"><ele>67.0</ele><time>2026-04-19T09:57:35.999Z</time></trkpt><trkpt lat="45.13835524316988" lon="9.341902395567873"><ele>67.2</ele><time>2026-04-19T09:57:36.999Z</time></trkpt><trkpt lat="45.138298900180516" lon="9.341768593405735"><ele>67.4</ele><time>2026-04-19T09:57:37.999Z</time></trkpt><trkpt lat="45.13824881798236" lon="9.341650383707398"><ele>67.6</ele><time>2026-04-19T09:57:38.999Z</time></trkpt><trkpt lat="45.13819121781633" lon="9.341514878734488"><ele>67.8</ele><time>2026-04-19T09:57:39.999Z</time></trkpt><trkpt lat="45.13814402070981" lon="9.341395401056044"><ele>68.0</ele><time>2026-04-19T09:57:40.999Z</time></trkpt><trkpt lat="45.138099969975876" lon="9.341289876409348"><ele>67.5</ele><time>2026-04-19T09:57:41.999Z</time></trkpt><trkpt lat="45.138056589843224" lon="9.341184890404769"><ele>67.0</ele><time>2026-04-19T09:57:42.999Z</time></trkpt><trkpt lat="45.13801369102583" lon="9.341095399952774"><ele>66.5</ele><time>2026-04-19T09:57:43.999Z</time></trkpt><trkpt lat="45.13797336828203" lon="9.341014173747238"><ele>66.0</ele><time>2026-04-19T09:57:44.999Z</time></trkpt><trkpt lat="45.137925654799346" lon="9.340881238228864"><ele>65.5</ele><time>2026-04-19T09:57:46.999Z</time></trkpt><trkpt lat="45.1379282321208" lon="9.340775319178656"><ele>65.0</ele><time>2026-04-19T09:57:48.999Z</time></trkpt><trkpt lat="45.13793156215476" lon="9.34066079210088"><ele>65.0</ele><time>2026-04-19T09:57:51.999Z</time></trkpt><trkpt lat="45.13792421863315" lon="9.340568895012868"><ele>65.0</ele><time>2026-04-19T09:57:54.999Z</time></trkpt><trkpt lat="45.13791964250805" lon="9.34039845597758"><ele>65.0</ele><time>2026-04-19T09:59:16Z</time></trkpt><trkpt lat="45.137938471783585" lon="9.340309680766675"><ele>65.0</ele><time>2026-04-19T09:59:17Z</time></trkpt><trkpt lat="45.13796417595522" lon="9.340214188399198"><ele>65.0</ele><time>2026-04-19T09:59:18Z</time></trkpt><trkpt lat="45.13799815678218" lon="9.34007165148157"><ele>65.0</ele><time>2026-04-19T09:59:20Z</time></trkpt><trkpt lat="45.13798421012624" lon="9.339981392188255"><ele>64.4</ele><time>2026-04-19T09:59:22Z</time></trkpt><trkpt lat="45.13793007280849" lon="9.339932685873974"><ele>63.8</ele><time>2026-04-19T09:59:25Z</time></trkpt><trkpt lat="45.137815684236536" lon="9.3399612949528"><ele>63.2</ele><time>2026-04-19T09:59:27Z</time></trkpt><trkpt lat="45.13773956941355" lon="9.339958600386407"><ele>62.6</ele><time>2026-04-19T09:59:28Z</time></trkpt><trkpt lat="45.137645281461836" lon="9.339960624771669"><ele>62.0</ele><time>2026-04-19T09:59:29Z</time></trkpt><trkpt lat="45.13754385980483" lon="9.339958474620582"><ele>62.0</ele><time>2026-04-19T09:59:30Z</time></trkpt><trkpt lat="45.13743065516798" lon="9.339957697771606"><ele>62.0</ele><time>2026-04-19T09:59:31Z</time></trkpt><trkpt lat="45.13732649440149" lon="9.339964041462116"><ele>62.0</ele><time>2026-04-19T09:59:32Z</time></trkpt><trkpt lat="45.13720547478882" lon="9.339943914030265"><ele>62.0</ele><time>2026-04-19T09:59:33Z</time></trkpt><trkpt lat="45.137053026376975" lon="9.339944133735884"><ele>63.25</ele><time>2026-04-19T09:59:34Z</time></trkpt><trkpt lat="45.13690448336275" lon="9.339908528792504"><ele>64.5</ele><time>2026-04-19T09:59:35Z</time></trkpt><trkpt lat="45.136759363605115" lon="9.339887057862"><ele>65.75</ele><time>2026-04-19T09:59:36Z</time></trkpt><trkpt lat="45.13663536456155" lon="9.339863289055481"><ele>67.0</ele><time>2026-04-19T09:59:37Z</time></trkpt><trkpt lat="45.136518428398965" lon="9.33984854271554"><ele>67.0</ele><time>2026-04-19T09:59:38Z</time></trkpt><trkpt lat="45.136403805919855" lon="9.339842339560104"><ele>67.0</ele><time>2026-04-19T09:59:39Z</time></trkpt><trkpt lat="45.13629155650248" lon="9.339824337165785"><ele>67.0</ele><time>2026-04-19T09:59:40Z</time></trkpt><trkpt lat="45.136183002193484" lon="9.339810660764043"><ele>67.0</ele><time>2026-04-19T09:59:41Z</time></trkpt><trkpt lat="45.13609640752287" lon="9.339809673761568"><ele>67.0</ele><time>2026-04-19T09:59:42Z</time></trkpt><trkpt lat="45.136006735824736" lon="9.339795795551357"><ele>67.0</ele><time>2026-04-19T09:59:43Z</time></trkpt><trkpt lat="45.13589736619582" lon="9.339802080430646"><ele>67.0</ele><time>2026-04-19T09:59:44Z</time></trkpt><trkpt lat="45.1358094000007" lon="9.339796502692828"><ele>67.0</ele><time>2026-04-19T09:59:45Z</time></trkpt><trkpt lat="45.13571603701501" lon="9.339775739529664"><ele>67.0</ele><time>2026-04-19T09:59:46Z</time></trkpt><trkpt lat="45.13560941296399" lon="9.339751851793093"><ele>67.0</ele><time>2026-04-19T09:59:47Z</time></trkpt><trkpt lat="45.135489346773085" lon="9.339729108101293"><ele>67.0</ele><time>2026-04-19T09:59:48Z</time></trkpt><trkpt lat="45.13536126425215" lon="9.339724285623424"><ele>67.0</ele><time>2026-04-19T09:59:49Z</time></trkpt><trkpt lat="45.13524743489664" lon="9.339726414126627"><ele>67.0</ele><time>2026-04-19T09:59:50Z</time></trkpt><trkpt lat="45.13514832527051" lon="9.339737195166146"><ele>67.0</ele><time>2026-04-19T09:59:51Z</time></trkpt><trkpt lat="45.13505622857797" lon="9.339741543944324"><ele>67.0</ele><time>2026-04-19T09:59:52Z</time></trkpt><trkpt lat="45.13496848669696" lon="9.339739898635873"><ele>66.8</ele><time>2026-04-19T09:59:53Z</time></trkpt><trkpt lat="45.134884063216106" lon="9.339738377571745"><ele>66.6</ele><time>2026-04-19T09:59:54Z</time></trkpt><trkpt lat="45.13479566244527" lon="9.339760189928937"><ele>66.39999999999999</ele><time>2026-04-19T09:59:55Z</time></trkpt><trkpt lat="45.1347199521018" lon="9.339785469502884"><ele>66.2</ele><time>2026-04-19T09:59:56Z</time></trkpt><trkpt lat="45.134615421767776" lon="9.339779041008669"><ele>66.0</ele><time>2026-04-19T09:59:58Z</time></trkpt><trkpt lat="45.134519655558165" lon="9.339679198476155"><ele>64.2</ele><time>2026-04-19T10:00:00Z</time></trkpt><trkpt lat="45.13442809349105" lon="9.339610583783065"><ele>62.39999999999999</ele><time>2026-04-19T10:00:02Z</time></trkpt><trkpt lat="45.13431333313308" lon="9.339564469886549"><ele>60.6</ele><time>2026-04-19T10:00:04Z</time></trkpt><trkpt lat="45.13423880095476" lon="9.339568838746354"><ele>58.8</ele><time>2026-04-19T10:00:05Z</time></trkpt><trkpt lat="45.13417079523188" lon="9.339572873620229"><ele>57.0</ele><time>2026-04-19T10:00:05.999Z</time></trkpt><trkpt lat="45.134078968114714" lon="9.339595336783706"><ele>57.0</ele><time>2026-04-19T10:00:06.999Z</time></trkpt><trkpt lat="45.13396742029866" lon="9.339614876493162"><ele>57.0</ele><time>2026-04-19T10:00:07.999Z</time></trkpt><trkpt lat="45.133846274921424" lon="9.339631690698083"><ele>57.0</ele><time>2026-04-19T10:00:08.999Z</time></trkpt><trkpt lat="45.13372807628845" lon="9.339644932743548"><ele>57.0</ele><time>2026-04-19T10:00:09.999Z</time></trkpt><trkpt lat="45.1336035233693" lon="9.339657676255152"><ele>57.0</ele><time>2026-04-19T10:00:10.999Z</time></trkpt><trkpt lat="45.133463708739356" lon="9.339663805954205"><ele>57.0</ele><time>2026-04-19T10:00:11.999Z</time></trkpt><trkpt lat="45.133341141216206" lon="9.339676638114693"><ele>57.0</ele><time>2026-04-19T10:00:12.999Z</time></trkpt><trkpt lat="45.13321200403286" lon="9.339668719541288"><ele>57.0</ele><time>2026-04-19T10:00:13.999Z</time></trkpt><trkpt lat="45.133074144714655" lon="9.339671155331988"><ele>56.75</ele><time>2026-04-19T10:00:15Z</time></trkpt><trkpt lat="45.132936740055925" lon="9.339673637657388"><ele>56.5</ele><time>2026-04-19T10:00:16Z</time></trkpt><trkpt lat="45.13280359687946" lon="9.339681890629576"><ele>56.25</ele><time>2026-04-19T10:00:17Z</time></trkpt><trkpt lat="45.13267269229842" lon="9.339684827052139"><ele>56.0</ele><time>2026-04-19T10:00:18Z</time></trkpt><trkpt lat="45.13254007458561" lon="9.339682777097421"><ele>56.0</ele><time>2026-04-19T10:00:19Z</time></trkpt><trkpt lat="45.13241617616704" lon="9.339677807834835"><ele>55.99999999999999</ele><time>2026-04-19T10:00:20Z</time></trkpt><trkpt lat="45.13231975921727" lon="9.339665480159537"><ele>55.99999999999999</ele><time>2026-04-19T10:00:21Z</time></trkpt><trkpt lat="45.13223056033301" lon="9.33965194005002"><ele>56.0</ele><time>2026-04-19T10:00:22Z</time></trkpt><trkpt lat="45.13215482684145" lon="9.339645833045138"><ele>56.0</ele><time>2026-04-19T10:00:23Z</time></trkpt><trkpt lat="45.132079655841295" lon="9.339634380379657"><ele>56.0</ele><time>2026-04-19T10:00:24Z</time></trkpt><trkpt lat="45.132008814721544" lon="9.339627522413924"><ele>55.99999999999999</ele><time>2026-04-19T10:00:25Z</time></trkpt><trkpt lat="45.13194327468835" lon="9.339622519172234"><ele>55.99999999999999</ele><time>2026-04-19T10:00:26Z</time></trkpt><trkpt lat="45.13181861580603" lon="9.339592586461016"><ele>56.0</ele><time>2026-04-19T10:00:28Z</time></trkpt><trkpt lat="45.13172192648275" lon="9.339584604680523"><ele>56.0</ele><time>2026-04-19T10:00:29Z</time></trkpt><trkpt lat="45.13161792166809" lon="9.33957494885625"><ele>56.333333333333336</ele><time>2026-04-19T10:00:30Z</time></trkpt><trkpt lat="45.13152029009182" lon="9.339565315917323"><ele>56.66666666666667</ele><time>2026-04-19T10:00:31Z</time></trkpt><trkpt lat="45.13143256871032" lon="9.339558266926526"><ele>57.0</ele><time>2026-04-19T10:00:32Z</time></trkpt><trkpt lat="45.1313434249802" lon="9.339550433517575"><ele>57.33333333333333</ele><time>2026-04-19T10:00:33Z</time></trkpt><trkpt lat="45.13126116834861" lon="9.339528401608352"><ele>57.666666666666664</ele><time>2026-04-19T10:00:34Z</time></trkpt><trkpt lat="45.13117784457146" lon="9.339510219538694"><ele>58.0</ele><time>2026-04-19T10:00:35Z</time></trkpt><trkpt lat="45.13109775301241" lon="9.339498714941234"><ele>58.0</ele><time>2026-04-19T10:00:36Z</time></trkpt><trkpt lat="45.13101219103426" lon="9.339489142431521"><ele>58.0</ele><time>2026-04-19T10:00:37Z</time></trkpt><trkpt lat="45.13093303296393" lon="9.339494323475986"><ele>58.0</ele><time>2026-04-19T10:00:38Z</time></trkpt><trkpt lat="45.13082042852731" lon="9.33955981792556"><ele>58.0</ele><time>2026-04-19T10:00:40Z</time></trkpt><trkpt lat="45.130752482477895" lon="9.339575340585618"><ele>58.0</ele><time>2026-04-19T10:00:44Z</time></trkpt><trkpt lat="45.13072614419965" lon="9.33924912502297"><ele>58.0</ele><time>2026-04-19T10:00:49Z</time></trkpt><trkpt lat="45.13075922375921" lon="9.339130804635454"><ele>58.0</ele><time>2026-04-19T10:00:50Z</time></trkpt><trkpt lat="45.13079330721581" lon="9.33901918620697"><ele>58.0</ele><time>2026-04-19T10:00:51Z</time></trkpt><trkpt lat="45.13082970312095" lon="9.338910281877244"><ele>58.0</ele><time>2026-04-19T10:00:52Z</time></trkpt><trkpt lat="45.13087673296483" lon="9.338782358254285"><ele>58.0</ele><time>2026-04-19T10:00:53Z</time></trkpt><trkpt lat="45.13091852137681" lon="9.338653787921592"><ele>57.599999999999994</ele><time>2026-04-19T10:00:54Z</time></trkpt><trkpt lat="45.13096229350458" lon="9.338495991480528"><ele>57.199999999999996</ele><time>2026-04-19T10:00:55Z</time></trkpt><trkpt lat="45.130999823768825" lon="9.338340769549678"><ele>56.8</ele><time>2026-04-19T10:00:56Z</time></trkpt><trkpt lat="45.131041663285856" lon="9.33820170133327"><ele>56.4</ele><time>2026-04-19T10:00:57Z</time></trkpt><trkpt lat="45.13108024627828" lon="9.338066737321368"><ele>56.0</ele><time>2026-04-19T10:00:58Z</time></trkpt><trkpt lat="45.1311228987522" lon="9.337931501525711"><ele>56.00000000000001</ele><time>2026-04-19T10:00:59Z</time></trkpt><trkpt lat="45.13116331849109" lon="9.337810121163459"><ele>56.0</ele><time>2026-04-19T10:01:00Z</time></trkpt><trkpt lat="45.13119507037105" lon="9.337699919324551"><ele>56.0</ele><time>2026-04-19T10:01:01Z</time></trkpt><trkpt lat="45.13123738013348" lon="9.337598768061232"><ele>56.0</ele><time>2026-04-19T10:01:02Z</time></trkpt><trkpt lat="45.13126037653222" lon="9.337485901973917"><ele>56.00000000000001</ele><time>2026-04-19T10:01:03Z</time></trkpt><trkpt lat="45.13127667164344" lon="9.337364918618194"><ele>56.0</ele><time>2026-04-19T10:01:04Z</time></trkpt><trkpt lat="45.131281454427686" lon="9.337228666157028"><ele>56.0</ele><time>2026-04-19T10:01:05Z</time></trkpt><trkpt lat="45.13126234658944" lon="9.337098936601047"><ele>55.99999999999999</ele><time>2026-04-19T10:01:06Z</time></trkpt><trkpt lat="45.131246427735896" lon="9.336954857215586"><ele>55.99999999999999</ele><time>2026-04-19T10:01:07Z</time></trkpt><trkpt lat="45.13122764635215" lon="9.336792721714192"><ele>56.0</ele><time>2026-04-19T10:01:08Z</time></trkpt><trkpt lat="45.1312079089409" lon="9.336624273231813"><ele>56.0</ele><time>2026-04-19T10:01:09Z</time></trkpt><trkpt lat="45.131203967286226" lon="9.336448483651134"><ele>55.75</ele><time>2026-04-19T10:01:10Z</time></trkpt><trkpt lat="45.13116671484497" lon="9.33626698780043"><ele>55.5</ele><time>2026-04-19T10:01:11Z</time></trkpt><trkpt lat="45.1311431866914" lon="9.33608990694942"><ele>55.25</ele><time>2026-04-19T10:01:12Z</time></trkpt><trkpt lat="45.13111739636028" lon="9.335911917133755"><ele>55.0</ele><time>2026-04-19T10:01:13Z</time></trkpt><trkpt lat="45.13108406477031" lon="9.335744365744572"><ele>55.0</ele><time>2026-04-19T10:01:14Z</time></trkpt><trkpt lat="45.1310523492997" lon="9.33559345797307"><ele>55.0</ele><time>2026-04-19T10:01:15Z</time></trkpt><trkpt lat="45.13103419368369" lon="9.335445645842743"><ele>55.0</ele><time>2026-04-19T10:01:16Z</time></trkpt><trkpt lat="45.13098909874099" lon="9.335328509352967"><ele>55.0</ele><time>2026-04-19T10:01:17Z</time></trkpt><trkpt lat="45.13095253678728" lon="9.335224194900906"><ele>55.0</ele><time>2026-04-19T10:01:18Z</time></trkpt><trkpt lat="45.130929885134606" lon="9.335129073793503"><ele>55.33333333333333</ele><time>2026-04-19T10:01:19Z</time></trkpt><trkpt lat="45.13090663647773" lon="9.335019389247117"><ele>55.666666666666664</ele><time>2026-04-19T10:01:20Z</time></trkpt><trkpt lat="45.13089704165572" lon="9.33490563577199"><ele>56.0</ele><time>2026-04-19T10:01:21Z</time></trkpt><trkpt lat="45.130891912826" lon="9.334790967935138"><ele>56.33333333333333</ele><time>2026-04-19T10:01:22Z</time></trkpt><trkpt lat="45.130867151214574" lon="9.334685046938313"><ele>56.666666666666664</ele><time>2026-04-19T10:01:23Z</time></trkpt><trkpt lat="45.13086060348025" lon="9.334573960690953"><ele>57.0</ele><time>2026-04-19T10:01:24Z</time></trkpt><trkpt lat="45.130852329689375" lon="9.33445984071462"><ele>57.166666666666664</ele><time>2026-04-19T10:01:25Z</time></trkpt><trkpt lat="45.130858005877215" lon="9.334341977673354"><ele>57.33333333333333</ele><time>2026-04-19T10:01:26Z</time></trkpt><trkpt lat="45.130849935934854" lon="9.334229353677484"><ele>57.5</ele><time>2026-04-19T10:01:27Z</time></trkpt><trkpt lat="45.1308415409371" lon="9.334112193191292"><ele>57.666666666666664</ele><time>2026-04-19T10:01:28Z</time></trkpt><trkpt lat="45.130818033246626" lon="9.334013781869096"><ele>57.83333333333333</ele><time>2026-04-19T10:01:29Z</time></trkpt><trkpt lat="45.13081132618185" lon="9.333922528392641"><ele>58.0</ele><time>2026-04-19T10:01:30Z</time></trkpt><trkpt lat="45.13080793458831" lon="9.333792333781476"><ele>57.99999999999999</ele><time>2026-04-19T10:01:32Z</time></trkpt><trkpt lat="45.13080207980951" lon="9.333699722621466"><ele>58.0</ele><time>2026-04-19T10:01:35Z</time></trkpt><trkpt lat="45.13079830547973" lon="9.33357913083484"><ele>58.0</ele><time>2026-04-19T10:01:40Z</time></trkpt><trkpt lat="45.1308123967457" lon="9.333686715073291"><ele>58.0</ele><time>2026-04-19T10:04:22.997Z</time></trkpt><trkpt lat="45.13082191951223" lon="9.333834276078546"><ele>57.99999999999999</ele><time>2026-04-19T10:04:24.997Z</time></trkpt><trkpt lat="45.13082806969905" lon="9.333924188833347"><ele>58.0</ele><time>2026-04-19T10:04:25.997Z</time></trkpt><trkpt lat="45.1308364725795" lon="9.334041459300693"><ele>58.0</ele><time>2026-04-19T10:04:26.997Z</time></trkpt><trkpt lat="45.130837265691845" lon="9.33426034970675"><ele>58.0</ele><time>2026-04-19T10:04:27.998Z</time></trkpt><trkpt lat="45.13084807162063" lon="9.334447387079143"><ele>58.0</ele><time>2026-04-19T10:04:28.998Z</time></trkpt><trkpt lat="45.1308638743069" lon="9.334632458734728"><ele>58.0</ele><time>2026-04-19T10:04:29.998Z</time></trkpt><trkpt lat="45.13087820742627" lon="9.334804629523049"><ele>57.75</ele><time>2026-04-19T10:04:30.998Z</time></trkpt><trkpt lat="45.13090021115086" lon="9.334994523795597"><ele>57.5</ele><time>2026-04-19T10:04:31.998Z</time></trkpt><trkpt lat="45.13092016684172" lon="9.335204787604425"><ele>57.25</ele><time>2026-04-19T10:04:32.998Z</time></trkpt><trkpt lat="45.13099902559855" lon="9.335397217358397"><ele>57.0</ele><time>2026-04-19T10:04:33.998Z</time></trkpt><trkpt lat="45.13105096991494" lon="9.335600560750427"><ele>56.5</ele><time>2026-04-19T10:04:34.998Z</time></trkpt><trkpt lat="45.13107012665221" lon="9.33578853121055"><ele>56.0</ele><time>2026-04-19T10:04:35.998Z</time></trkpt><trkpt lat="45.131111994270476" lon="9.335954713242774"><ele>55.5</ele><time>2026-04-19T10:04:36.998Z</time></trkpt><trkpt lat="45.131135897041624" lon="9.336110218913458"><ele>55.0</ele><time>2026-04-19T10:04:37.998Z</time></trkpt><trkpt lat="45.131147735369304" lon="9.336276622218014"><ele>55.25</ele><time>2026-04-19T10:04:38.998Z</time></trkpt><trkpt lat="45.13117023002842" lon="9.336448201315735"><ele>55.5</ele><time>2026-04-19T10:04:39.998Z</time></trkpt><trkpt lat="45.131190074492" lon="9.336627369201615"><ele>55.75</ele><time>2026-04-19T10:04:40.998Z</time></trkpt><trkpt lat="45.13120639611241" lon="9.336782596817201"><ele>56.0</ele><time>2026-04-19T10:04:41.998Z</time></trkpt><trkpt lat="45.13124420445537" lon="9.336975687662523"><ele>56.0</ele><time>2026-04-19T10:04:42.999Z</time></trkpt><trkpt lat="45.13126028128736" lon="9.337158250789871"><ele>56.0</ele><time>2026-04-19T10:04:43.999Z</time></trkpt><trkpt lat="45.13125360348404" lon="9.33733485640379"><ele>56.0</ele><time>2026-04-19T10:04:44.999Z</time></trkpt><trkpt lat="45.13122727012571" lon="9.337505698908696"><ele>56.0</ele><time>2026-04-19T10:04:45.999Z</time></trkpt><trkpt lat="45.13118044430479" lon="9.337683895675026"><ele>56.0</ele><time>2026-04-19T10:04:46.999Z</time></trkpt><trkpt lat="45.13112540770917" lon="9.337882232320403"><ele>56.0</ele><time>2026-04-19T10:04:47.999Z</time></trkpt><trkpt lat="45.13108259748452" lon="9.3380893034509"><ele>56.0</ele><time>2026-04-19T10:04:48.999Z</time></trkpt><trkpt lat="45.13102364993345" lon="9.33827273923301"><ele>56.0</ele><time>2026-04-19T10:04:49.999Z</time></trkpt><trkpt lat="45.13095532454808" lon="9.338443911495188"><ele>56.0</ele><time>2026-04-19T10:04:50.999Z</time></trkpt><trkpt lat="45.1309031796873" lon="9.338606840816986"><ele>55.99999999999999</ele><time>2026-04-19T10:04:51.999Z</time></trkpt><trkpt lat="45.13085603240696" lon="9.338756215748147"><ele>55.99999999999999</ele><time>2026-04-19T10:04:52.999Z</time></trkpt><trkpt lat="45.13082186396952" lon="9.338894279830203"><ele>56.0</ele><time>2026-04-19T10:04:53.999Z</time></trkpt><trkpt lat="45.13079412987509" lon="9.339030939776471"><ele>56.0</ele><time>2026-04-19T10:04:54.999Z</time></trkpt><trkpt lat="45.13075712577651" lon="9.33914389413603"><ele>56.4</ele><time>2026-04-19T10:04:55.999Z</time></trkpt><trkpt lat="45.1307444885255" lon="9.339255906696573"><ele>56.8</ele><time>2026-04-19T10:04:56.999Z</time></trkpt><trkpt lat="45.13072495409063" lon="9.339361604192021"><ele>57.199999999999996</ele><time>2026-04-19T10:04:57.999Z</time></trkpt><trkpt lat="45.13072924402715" lon="9.339491229366583"><ele>57.599999999999994</ele><time>2026-04-19T10:04:59.999Z</time></trkpt><trkpt lat="45.13075599484619" lon="9.339574911625228"><ele>58.0</ele><time>2026-04-19T10:05:03.999Z</time></trkpt><trkpt lat="45.13108146099845" lon="9.33950637261533"><ele>58.0</ele><time>2026-04-19T10:05:06.999Z</time></trkpt><trkpt lat="45.131175094484654" lon="9.339529604470314"><ele>58.0</ele><time>2026-04-19T10:05:07.999Z</time></trkpt><trkpt lat="45.13127423143532" lon="9.339549727339637"><ele>58.0</ele><time>2026-04-19T10:05:08.999Z</time></trkpt><trkpt lat="45.131380165141394" lon="9.339568350110419"><ele>58.0</ele><time>2026-04-19T10:05:09.999Z</time></trkpt><trkpt lat="45.13149239233408" lon="9.339593273100615"><ele>58.0</ele><time>2026-04-19T10:05:10.999Z</time></trkpt><trkpt lat="45.131592619841186" lon="9.339601024217744"><ele>57.599999999999994</ele><time>2026-04-19T10:05:11.999Z</time></trkpt><trkpt lat="45.131691623830726" lon="9.339605719146455"><ele>57.199999999999996</ele><time>2026-04-19T10:05:12.999Z</time></trkpt><trkpt lat="45.13179557451651" lon="9.3396209497669"><ele>56.8</ele><time>2026-04-19T10:05:13.999Z</time></trkpt><trkpt lat="45.13188911770141" lon="9.339628399255155"><ele>56.4</ele><time>2026-04-19T10:05:14.999Z</time></trkpt><trkpt lat="45.13198140593287" lon="9.339637408184657"><ele>56.0</ele><time>2026-04-19T10:05:15.999Z</time></trkpt><trkpt lat="45.132076039794235" lon="9.339650217124913"><ele>56.00000000000001</ele><time>2026-04-19T10:05:16.999Z</time></trkpt><trkpt lat="45.13215877426786" lon="9.339658812166359"><ele>56.0</ele><time>2026-04-19T10:05:17.999Z</time></trkpt><trkpt lat="45.132234411027866" lon="9.339665840325232"><ele>56.0</ele><time>2026-04-19T10:05:18.999Z</time></trkpt><trkpt lat="45.13230744627373" lon="9.339676036403679"><ele>56.0</ele><time>2026-04-19T10:05:19.999Z</time></trkpt><trkpt lat="45.132370811062" lon="9.339681369895873"><ele>56.00000000000001</ele><time>2026-04-19T10:05:20.999Z</time></trkpt><trkpt lat="45.132496123860825" lon="9.339703438294876"><ele>56.0</ele><time>2026-04-19T10:05:22.999Z</time></trkpt><trkpt lat="45.13257792029002" lon="9.339698779493588"><ele>56.00000000000001</ele><time>2026-04-19T10:05:23.999Z</time></trkpt><trkpt lat="45.13266890034637" lon="9.339707126497471"><ele>56.0</ele><time>2026-04-19T10:05:25Z</time></trkpt><trkpt lat="45.13275841480812" lon="9.339698666517211"><ele>56.0</ele><time>2026-04-19T10:05:26Z</time></trkpt><trkpt lat="45.13285183302241" lon="9.339695550897707"><ele>56.0</ele><time>2026-04-19T10:05:27Z</time></trkpt><trkpt lat="45.132946092241845" lon="9.339694344512925"><ele>56.00000000000001</ele><time>2026-04-19T10:05:28Z</time></trkpt><trkpt lat="45.13302334574575" lon="9.339699119165394"><ele>56.0</ele><time>2026-04-19T10:05:29Z</time></trkpt><trkpt lat="45.13310563040985" lon="9.339689244861272"><ele>56.00000000000001</ele><time>2026-04-19T10:05:30Z</time></trkpt><trkpt lat="45.13319257109759" lon="9.33968563453053"><ele>56.0</ele><time>2026-04-19T10:05:31Z</time></trkpt><trkpt lat="45.13328658707592" lon="9.339680575077677"><ele>56.0</ele><time>2026-04-19T10:05:32Z</time></trkpt><trkpt lat="45.13337188236816" lon="9.339676639468125"><ele>56.0</ele><time>2026-04-19T10:05:33Z</time></trkpt><trkpt lat="45.13345446636131" lon="9.339674122151068"><ele>56.00000000000001</ele><time>2026-04-19T10:05:34Z</time></trkpt><trkpt lat="45.13354102371842" lon="9.339671496937683"><ele>56.0</ele><time>2026-04-19T10:05:35Z</time></trkpt><trkpt lat="45.133634213810105" lon="9.339663650461185"><ele>56.16666666666667</ele><time>2026-04-19T10:05:36Z</time></trkpt><trkpt lat="45.133725696533254" lon="9.339651335397054"><ele>56.333333333333336</ele><time>2026-04-19T10:05:37Z</time></trkpt><trkpt lat="45.13380815708008" lon="9.339641301468898"><ele>56.5</ele><time>2026-04-19T10:05:38Z</time></trkpt><trkpt lat="45.133891398492146" lon="9.339626168293314"><ele>56.66666666666667</ele><time>2026-04-19T10:05:39Z</time></trkpt><trkpt lat="45.1339765134862" lon="9.339600055346365"><ele>56.833333333333336</ele><time>2026-04-19T10:05:40Z</time></trkpt><trkpt lat="45.13406962280481" lon="9.339592379662003"><ele>57.0</ele><time>2026-04-19T10:05:41Z</time></trkpt><trkpt lat="45.134159191210195" lon="9.33957979855934"><ele>57.0</ele><time>2026-04-19T10:05:42Z</time></trkpt><trkpt lat="45.13424601448203" lon="9.339599704337505"><ele>57.0</ele><time>2026-04-19T10:05:43Z</time></trkpt><trkpt lat="45.13432363392833" lon="9.339582763536981"><ele>57.0</ele><time>2026-04-19T10:05:44Z</time></trkpt><trkpt lat="45.134399033724605" lon="9.339591515201766"><ele>57.0</ele><time>2026-04-19T10:05:45Z</time></trkpt><trkpt lat="45.13446656809975" lon="9.339604182727358"><ele>57.0</ele><time>2026-04-19T10:05:46Z</time></trkpt><trkpt lat="45.13454068293959" lon="9.339697381494368"><ele>57.0</ele><time>2026-04-19T10:05:48Z</time></trkpt><trkpt lat="45.13463158063426" lon="9.339776263614802"><ele>57.166666666666664</ele><time>2026-04-19T10:05:50Z</time></trkpt><trkpt lat="45.13473681986621" lon="9.339787451686465"><ele>57.33333333333333</ele><time>2026-04-19T10:05:52Z</time></trkpt><trkpt lat="45.134802705599114" lon="9.339779266413155"><ele>57.5</ele><time>2026-04-19T10:05:53Z</time></trkpt><trkpt lat="45.13490794995856" lon="9.339774985401114"><ele>57.666666666666664</ele><time>2026-04-19T10:05:55Z</time></trkpt><trkpt lat="45.13497588083118" lon="9.33970987647737"><ele>57.83333333333333</ele><time>2026-04-19T10:05:56Z</time></trkpt><trkpt lat="45.13504673247474" lon="9.33970576788233"><ele>58.0</ele><time>2026-04-19T10:05:57Z</time></trkpt><trkpt lat="45.13511671310747" lon="9.339717518290783"><ele>59.49999999999999</ele><time>2026-04-19T10:05:58Z</time></trkpt><trkpt lat="45.13520748374268" lon="9.33972790293276"><ele>61.0</ele><time>2026-04-19T10:05:59Z</time></trkpt><trkpt lat="45.13529039400348" lon="9.339737717626184"><ele>62.5</ele><time>2026-04-19T10:06:00Z</time></trkpt><trkpt lat="45.13538149763858" lon="9.339720476314303"><ele>64.0</ele><time>2026-04-19T10:06:01Z</time></trkpt><trkpt lat="45.13546169521972" lon="9.339727496766507"><ele>65.5</ele><time>2026-04-19T10:06:02Z</time></trkpt><trkpt lat="45.13553953405726" lon="9.33973584010333"><ele>67.0</ele><time>2026-04-19T10:06:03Z</time></trkpt><trkpt lat="45.13562241230771" lon="9.339740141371939"><ele>67.0</ele><time>2026-04-19T10:06:04Z</time></trkpt><trkpt lat="45.13570069593154" lon="9.33975569501758"><ele>67.0</ele><time>2026-04-19T10:06:05Z</time></trkpt><trkpt lat="45.135780417212345" lon="9.339772125387936"><ele>67.0</ele><time>2026-04-19T10:06:06Z</time></trkpt><trkpt lat="45.135866427027196" lon="9.339777141578438"><ele>67.0</ele><time>2026-04-19T10:06:07Z</time></trkpt><trkpt lat="45.135961373667875" lon="9.339796863440126"><ele>67.0</ele><time>2026-04-19T10:06:08Z</time></trkpt><trkpt lat="45.136052202886" lon="9.33980413706058"><ele>67.0</ele><time>2026-04-19T10:06:09Z</time></trkpt><trkpt lat="45.13614607862329" lon="9.339808686414504"><ele>67.0</ele><time>2026-04-19T10:06:10Z</time></trkpt><trkpt lat="45.13623556562993" lon="9.3397972027846"><ele>67.0</ele><time>2026-04-19T10:06:11Z</time></trkpt><trkpt lat="45.1363285844777" lon="9.339799184724162"><ele>67.0</ele><time>2026-04-19T10:06:12Z</time></trkpt><trkpt lat="45.13643882607255" lon="9.339840077610809"><ele>67.0</ele><time>2026-04-19T10:06:13Z</time></trkpt><trkpt lat="45.13652692368878" lon="9.339842261099474"><ele>67.0</ele><time>2026-04-19T10:06:14Z</time></trkpt><trkpt lat="45.13663123106534" lon="9.33985763872662"><ele>67.2</ele><time>2026-04-19T10:06:15Z</time></trkpt><trkpt lat="45.13674317204825" lon="9.339867960426586"><ele>67.4</ele><time>2026-04-19T10:06:16Z</time></trkpt><trkpt lat="45.13685489314508" lon="9.339886552747837"><ele>67.6</ele><time>2026-04-19T10:06:17Z</time></trkpt><trkpt lat="45.13696952368018" lon="9.339905090663034"><ele>67.8</ele><time>2026-04-19T10:06:18Z</time></trkpt><trkpt lat="45.137069617064036" lon="9.339902084727349"><ele>68.0</ele><time>2026-04-19T10:06:19Z</time></trkpt><trkpt lat="45.13717681364081" lon="9.339920987866584"><ele>68.0</ele><time>2026-04-19T10:06:20Z</time></trkpt><trkpt lat="45.13727301866171" lon="9.339940901305408"><ele>68.0</ele><time>2026-04-19T10:06:21Z</time></trkpt><trkpt lat="45.13737292461419" lon="9.339946254442767"><ele>68.0</ele><time>2026-04-19T10:06:22Z</time></trkpt><trkpt lat="45.137477426834224" lon="9.3399554362471"><ele>68.0</ele><time>2026-04-19T10:06:23Z</time></trkpt><trkpt lat="45.137579971722786" lon="9.339941431214664"><ele>68.0</ele><time>2026-04-19T10:06:24Z</time></trkpt><trkpt lat="45.13765644353124" lon="9.339931085787757"><ele>66.8</ele><time>2026-04-19T10:06:25Z</time></trkpt><trkpt lat="45.137741318733376" lon="9.339939855852531"><ele>65.6</ele><time>2026-04-19T10:06:26Z</time></trkpt><trkpt lat="45.13781111056523" lon="9.339942603031286"><ele>64.4</ele><time>2026-04-19T10:06:27Z</time></trkpt><trkpt lat="45.137948881304155" lon="9.3399401916775"><ele>63.2</ele><time>2026-04-19T10:06:29Z</time></trkpt><trkpt lat="45.13803536629671" lon="9.339943635418217"><ele>62.0</ele><time>2026-04-19T10:06:30Z</time></trkpt><trkpt lat="45.13812231656226" lon="9.339927892808584"><ele>60.8</ele><time>2026-04-19T10:06:31Z</time></trkpt><trkpt lat="45.13822627535319" lon="9.339892075149963"><ele>59.6</ele><time>2026-04-19T10:06:32Z</time></trkpt><trkpt lat="45.13832949390865" lon="9.339865883667477"><ele>58.39999999999999</ele><time>2026-04-19T10:06:33Z</time></trkpt><trkpt lat="45.138431949862046" lon="9.33985015129369"><ele>57.199999999999996</ele><time>2026-04-19T10:06:34Z</time></trkpt><trkpt lat="45.13852491049675" lon="9.339831469225688"><ele>56.0</ele><time>2026-04-19T10:06:35Z</time></trkpt><trkpt lat="45.13860594762373" lon="9.33979420910054"><ele>56.0</ele><time>2026-04-19T10:06:36Z</time></trkpt><trkpt lat="45.13868112583706" lon="9.33975997024295"><ele>55.99999999999999</ele><time>2026-04-19T10:06:37Z</time></trkpt><trkpt lat="45.13876785503971" lon="9.33971078147799"><ele>55.99999999999999</ele><time>2026-04-19T10:06:38Z</time></trkpt><trkpt lat="45.13885492760637" lon="9.339652977010543"><ele>56.0</ele><time>2026-04-19T10:06:39Z</time></trkpt><trkpt lat="45.13895263461396" lon="9.339595247441569"><ele>56.0</ele><time>2026-04-19T10:06:40Z</time></trkpt><trkpt lat="45.13903613148095" lon="9.33953821090423"><ele>56.599999999999994</ele><time>2026-04-19T10:06:41Z</time></trkpt><trkpt lat="45.13911765668486" lon="9.339475008128417"><ele>57.199999999999996</ele><time>2026-04-19T10:06:42Z</time></trkpt><trkpt lat="45.13925810338743" lon="9.339391526896458"><ele>57.800000000000004</ele><time>2026-04-19T10:06:44Z</time></trkpt><trkpt lat="45.13934182189563" lon="9.339371187609986"><ele>58.400000000000006</ele><time>2026-04-19T10:06:45Z</time></trkpt><trkpt lat="45.13942088113732" lon="9.339363964661015"><ele>59.0</ele><time>2026-04-19T10:06:46Z</time></trkpt><trkpt lat="45.13949150744358" lon="9.339359972284656"><ele>59.0</ele><time>2026-04-19T10:06:47Z</time></trkpt><trkpt lat="45.1395640442585" lon="9.339387222051608"><ele>59.00000000000001</ele><time>2026-04-19T10:06:48Z</time></trkpt><trkpt lat="45.13964042109515" lon="9.339442811198337"><ele>59.00000000000001</ele><time>2026-04-19T10:06:49Z</time></trkpt><trkpt lat="45.13973206413466" lon="9.339522744273228"><ele>59.0</ele><time>2026-04-19T10:06:50Z</time></trkpt><trkpt lat="45.13981602575457" lon="9.339591112502063"><ele>59.0</ele><time>2026-04-19T10:06:51Z</time></trkpt><trkpt lat="45.13990344467397" lon="9.33963613735134"><ele>58.833333333333336</ele><time>2026-04-19T10:06:52Z</time></trkpt><trkpt lat="45.139997106255436" lon="9.339687658399964"><ele>58.66666666666667</ele><time>2026-04-19T10:06:53Z</time></trkpt><trkpt lat="45.14007182640759" lon="9.339738971829867"><ele>58.5</ele><time>2026-04-19T10:06:54Z</time></trkpt><trkpt lat="45.140142489852636" lon="9.339781890071176"><ele>58.33333333333333</ele><time>2026-04-19T10:06:55Z</time></trkpt><trkpt lat="45.140201820978845" lon="9.339845579276663"><ele>58.166666666666664</ele><time>2026-04-19T10:06:56Z</time></trkpt><trkpt lat="45.140271910703845" lon="9.339932794813684"><ele>58.0</ele><time>2026-04-19T10:06:57Z</time></trkpt><trkpt lat="45.14033474254602" lon="9.340046886832447"><ele>58.49999999999999</ele><time>2026-04-19T10:06:58Z</time></trkpt><trkpt lat="45.140399993590876" lon="9.340143163931687"><ele>59.0</ele><time>2026-04-19T10:06:59Z</time></trkpt><trkpt lat="45.14045424945935" lon="9.34021633157185"><ele>59.5</ele><time>2026-04-19T10:07:00Z</time></trkpt><trkpt lat="45.140511727258634" lon="9.340304957619187"><ele>60.0</ele><time>2026-04-19T10:07:01Z</time></trkpt><trkpt lat="45.14056350295345" lon="9.340390756048931"><ele>60.49999999999999</ele><time>2026-04-19T10:07:02Z</time></trkpt><trkpt lat="45.14061945182475" lon="9.340458429502284"><ele>61.0</ele><time>2026-04-19T10:07:03Z</time></trkpt><trkpt lat="45.14067747475719" lon="9.340546141539605"><ele>61.83333333333333</ele><time>2026-04-19T10:07:04Z</time></trkpt><trkpt lat="45.140735089577255" lon="9.340613244531843"><ele>62.666666666666664</ele><time>2026-04-19T10:07:05Z</time></trkpt><trkpt lat="45.14079054640775" lon="9.340671125386098"><ele>63.5</ele><time>2026-04-19T10:07:06Z</time></trkpt><trkpt lat="45.14085036718444" lon="9.340729502584756"><ele>64.33333333333333</ele><time>2026-04-19T10:07:07Z</time></trkpt><trkpt lat="45.140946957327735" lon="9.340826281853667"><ele>65.16666666666667</ele><time>2026-04-19T10:07:09Z</time></trkpt><trkpt lat="45.141018844330425" lon="9.340839706212684"><ele>66.0</ele><time>2026-04-19T10:07:10Z</time></trkpt><trkpt lat="45.141095085282764" lon="9.340867920230048"><ele>66.0</ele><time>2026-04-19T10:07:11Z</time></trkpt><trkpt lat="45.14118186296897" lon="9.340920794076599"><ele>66.0</ele><time>2026-04-19T10:07:12Z</time></trkpt><trkpt lat="45.14126402807417" lon="9.340984735601626"><ele>66.0</ele><time>2026-04-19T10:07:13Z</time></trkpt><trkpt lat="45.14135020674746" lon="9.341049612408664"><ele>66.0</ele><time>2026-04-19T10:07:14Z</time></trkpt><trkpt lat="45.14144225326944" lon="9.341075421314768"><ele>66.0</ele><time>2026-04-19T10:07:15Z</time></trkpt><trkpt lat="45.14153873804785" lon="9.341117514821613"><ele>66.0</ele><time>2026-04-19T10:07:16Z</time></trkpt><trkpt lat="45.141620788787286" lon="9.341156014223765"><ele>66.0</ele><time>2026-04-19T10:07:17Z</time></trkpt><trkpt lat="45.141679714919064" lon="9.341187539944093"><ele>66.0</ele><time>2026-04-19T10:07:18Z</time></trkpt><trkpt lat="45.14176820507402" lon="9.341215652770115"><ele>66.0</ele><time>2026-04-19T10:07:19Z</time></trkpt><trkpt lat="45.14184468031943" lon="9.341232227791862"><ele>66.0</ele><time>2026-04-19T10:07:20Z</time></trkpt><trkpt lat="45.1419271225944" lon="9.34123111689084"><ele>66.0</ele><time>2026-04-19T10:07:21Z</time></trkpt><trkpt lat="45.14199869239761" lon="9.34123862913772"><ele>66.0</ele><time>2026-04-19T10:07:22Z</time></trkpt><trkpt lat="45.14212338880281" lon="9.341230886940355"><ele>66.0</ele><time>2026-04-19T10:07:24Z</time></trkpt><trkpt lat="45.142214004657525" lon="9.341304022466602"><ele>66.0</ele><time>2026-04-19T10:07:27Z</time></trkpt><trkpt lat="45.14221336204023" lon="9.341438166082234"><ele>66.0</ele><time>2026-04-19T10:07:29Z</time></trkpt><trkpt lat="45.14209772888496" lon="9.341498325479774"><ele>66.0</ele><time>2026-04-19T10:07:31Z</time></trkpt><trkpt lat="45.14202319703846" lon="9.341554725728393"><ele>66.66666666666667</ele><time>2026-04-19T10:07:32Z</time></trkpt><trkpt lat="45.14194352455663" lon="9.341618005847144"><ele>67.33333333333333</ele><time>2026-04-19T10:07:33Z</time></trkpt><trkpt lat="45.1418587838762" lon="9.341686191862808"><ele>68.0</ele><time>2026-04-19T10:07:34Z</time></trkpt><trkpt lat="45.14178684905563" lon="9.341744493919368"><ele>68.66666666666666</ele><time>2026-04-19T10:07:35Z</time></trkpt><trkpt lat="45.14172539153242" lon="9.34179991056905"><ele>69.33333333333333</ele><time>2026-04-19T10:07:36Z</time></trkpt><trkpt lat="45.141664887767526" lon="9.341837994488996"><ele>70.0</ele><time>2026-04-19T10:07:37.001Z</time></trkpt><trkpt lat="45.14157537054663" lon="9.341908560962569"><ele>70.0</ele><time>2026-04-19T10:07:39.001Z</time></trkpt><trkpt lat="45.1415169293818" lon="9.341992101739674"><ele>70.0</ele><time>2026-04-19T10:07:41.001Z</time></trkpt><trkpt lat="45.141519958257916" lon="9.342115995711099"><ele>70.0</ele><time>2026-04-19T10:07:52.001Z</time></trkpt><trkpt lat="45.14160832005283" lon="9.342186437466506"><ele>70.0</ele><time>2026-04-19T10:07:54.001Z</time></trkpt><trkpt lat="45.141688504819406" lon="9.342200084237074"><ele>70.0</ele><time>2026-04-19T10:07:55.001Z</time></trkpt><trkpt lat="45.141768536074515" lon="9.342238356928528"><ele>70.0</ele><time>2026-04-19T10:07:56.001Z</time></trkpt><trkpt lat="45.141860378908156" lon="9.342285846205364"><ele>70.2</ele><time>2026-04-19T10:07:57.001Z</time></trkpt><trkpt lat="45.14195411521457" lon="9.342328372995468"><ele>70.4</ele><time>2026-04-19T10:07:58.001Z</time></trkpt><trkpt lat="45.14205968978675" lon="9.342375117637943"><ele>70.6</ele><time>2026-04-19T10:07:59.001Z</time></trkpt><trkpt lat="45.14216307702906" lon="9.342416923869937"><ele>70.8</ele><time>2026-04-19T10:08:00.001Z</time></trkpt><trkpt lat="45.14226797643682" lon="9.34246627081665"><ele>71.0</ele><time>2026-04-19T10:08:01.001Z</time></trkpt><trkpt lat="45.1423746551146" lon="9.34251748938557"><ele>70.8</ele><time>2026-04-19T10:08:02.001Z</time></trkpt><trkpt lat="45.142479358352226" lon="9.342568148833518"><ele>70.6</ele><time>2026-04-19T10:08:03.001Z</time></trkpt><trkpt lat="45.14257995035109" lon="9.342611022187445"><ele>70.4</ele><time>2026-04-19T10:08:04.001Z</time></trkpt><trkpt lat="45.142672224839814" lon="9.342649014900639"><ele>70.2</ele><time>2026-04-19T10:08:05.001Z</time></trkpt><trkpt lat="45.142757682532434" lon="9.342671472880832"><ele>70.0</ele><time>2026-04-19T10:08:06.001Z</time></trkpt><trkpt lat="45.142830461216164" lon="9.342663044149964"><ele>70.0</ele><time>2026-04-19T10:08:07.001Z</time></trkpt><trkpt lat="45.14288976254106" lon="9.342623714734104"><ele>70.0</ele><time>2026-04-19T10:08:08.001Z</time></trkpt><trkpt lat="45.14293172917286" lon="9.342544460241754"><ele>70.0</ele><time>2026-04-19T10:08:09.001Z</time></trkpt><trkpt lat="45.142962634098986" lon="9.342412580419266"><ele>70.0</ele><time>2026-04-19T10:08:10.001Z</time></trkpt><trkpt lat="45.142993337032884" lon="9.342269490075857"><ele>70.0</ele><time>2026-04-19T10:08:11.001Z</time></trkpt><trkpt lat="45.143032364412" lon="9.342133045941408"><ele>70.0</ele><time>2026-04-19T10:08:12.001Z</time></trkpt><trkpt lat="45.143073770166495" lon="9.341988776755484"><ele>69.8</ele><time>2026-04-19T10:08:13.001Z</time></trkpt><trkpt lat="45.143112680121654" lon="9.341842599668528"><ele>69.6</ele><time>2026-04-19T10:08:14.001Z</time></trkpt><trkpt lat="45.14315554106551" lon="9.341710449287703"><ele>69.4</ele><time>2026-04-19T10:08:15.001Z</time></trkpt><trkpt lat="45.14321435529086" lon="9.341592351224525"><ele>69.2</ele><time>2026-04-19T10:08:16.001Z</time></trkpt><trkpt lat="45.14329758223255" lon="9.341510368856824"><ele>69.0</ele><time>2026-04-19T10:08:17.001Z</time></trkpt><trkpt lat="45.14339951374245" lon="9.341467251223001"><ele>68.5</ele><time>2026-04-19T10:08:18.001Z</time></trkpt><trkpt lat="45.14356369050884" lon="9.341473396580293"><ele>68.0</ele><time>2026-04-19T10:08:19.001Z</time></trkpt><trkpt lat="45.14370656729369" lon="9.341459938767843"><ele>67.5</ele><time>2026-04-19T10:08:20.001Z</time></trkpt><trkpt lat="45.14383772997668" lon="9.341427540806253"><ele>67.0</ele><time>2026-04-19T10:08:21.001Z</time></trkpt><trkpt lat="45.14396258266657" lon="9.341394271046443"><ele>66.2</ele><time>2026-04-19T10:08:22.001Z</time></trkpt><trkpt lat="45.1440820107338" lon="9.341376355960971"><ele>65.4</ele><time>2026-04-19T10:08:23.001Z</time></trkpt><trkpt lat="45.144193973306734" lon="9.341359890556367"><ele>64.6</ele><time>2026-04-19T10:08:24.001Z</time></trkpt><trkpt lat="45.14429916094123" lon="9.341307606227435"><ele>63.8</ele><time>2026-04-19T10:08:25.001Z</time></trkpt><trkpt lat="45.14440202543968" lon="9.341282477137375"><ele>63.0</ele><time>2026-04-19T10:08:26.001Z</time></trkpt><trkpt lat="45.144504227960965" lon="9.341259770187612"><ele>63.0</ele><time>2026-04-19T10:08:27.001Z</time></trkpt><trkpt lat="45.14460136524891" lon="9.341261746541937"><ele>63.0</ele><time>2026-04-19T10:08:28.001Z</time></trkpt><trkpt lat="45.144681037503226" lon="9.341258100192302"><ele>63.0</ele><time>2026-04-19T10:08:29.001Z</time></trkpt><trkpt lat="45.14476848404179" lon="9.341259273014222"><ele>63.0</ele><time>2026-04-19T10:08:30.001Z</time></trkpt><trkpt lat="45.14485337511324" lon="9.34126461790517"><ele>63.0</ele><time>2026-04-19T10:08:31.001Z</time></trkpt><trkpt lat="45.1449368893978" lon="9.341286288835873"><ele>63.0</ele><time>2026-04-19T10:08:32.001Z</time></trkpt><trkpt lat="45.14501803253843" lon="9.3413084985641"><ele>63.833333333333336</ele><time>2026-04-19T10:08:33.001Z</time></trkpt><trkpt lat="45.14508987599145" lon="9.341304033506272"><ele>64.66666666666667</ele><time>2026-04-19T10:08:34.001Z</time></trkpt><trkpt lat="45.1451679676238" lon="9.34131601645331"><ele>65.5</ele><time>2026-04-19T10:08:36.001Z</time></trkpt><trkpt lat="45.145245368768784" lon="9.341328081992446"><ele>66.33333333333334</ele><time>2026-04-19T10:08:50.001Z</time></trkpt><trkpt lat="45.14531931153945" lon="9.341305612814766"><ele>67.16666666666667</ele><time>2026-04-19T10:08:51.001Z</time></trkpt><trkpt lat="45.1453970212971" lon="9.341275756502226"><ele>68.0</ele><time>2026-04-19T10:08:52.001Z</time></trkpt><trkpt lat="45.14548221376638" lon="9.341234152814003"><ele>68.0</ele><time>2026-04-19T10:08:53.001Z</time></trkpt><trkpt lat="45.14555758272113" lon="9.341178355336941"><ele>68.0</ele><time>2026-04-19T10:08:54.001Z</time></trkpt><trkpt lat="45.14563367190947" lon="9.341099379510034"><ele>68.0</ele><time>2026-04-19T10:08:55.001Z</time></trkpt><trkpt lat="45.14570603386497" lon="9.340983819399897"><ele>68.0</ele><time>2026-04-19T10:08:56.001Z</time></trkpt><trkpt lat="45.14578162941482" lon="9.340858501702138"><ele>68.0</ele><time>2026-04-19T10:08:57.001Z</time></trkpt><trkpt lat="45.14585386786006" lon="9.34073622104515"><ele>68.2</ele><time>2026-04-19T10:08:58.001Z</time></trkpt><trkpt lat="45.14592727260716" lon="9.340623986164553"><ele>68.4</ele><time>2026-04-19T10:08:59.001Z</time></trkpt><trkpt lat="45.146002220340776" lon="9.340518940840369"><ele>68.60000000000001</ele><time>2026-04-19T10:09:00.001Z</time></trkpt><trkpt lat="45.146082061616326" lon="9.340420559840108"><ele>68.8</ele><time>2026-04-19T10:09:01.001Z</time></trkpt><trkpt lat="45.14614754759688" lon="9.340312350987194"><ele>69.0</ele><time>2026-04-19T10:09:02.001Z</time></trkpt><trkpt lat="45.146239658188485" lon="9.340252498064455"><ele>69.25</ele><time>2026-04-19T10:09:03.001Z</time></trkpt><trkpt lat="45.146357305951256" lon="9.340228989235731"><ele>69.5</ele><time>2026-04-19T10:09:04.001Z</time></trkpt><trkpt lat="45.1465177973202" lon="9.340232813656968"><ele>69.75</ele><time>2026-04-19T10:09:06.001Z</time></trkpt><trkpt lat="45.14664667802656" lon="9.34027396362843"><ele>70.0</ele><time>2026-04-19T10:09:07.001Z</time></trkpt><trkpt lat="45.146784068330476" lon="9.340322243505017"><ele>70.0</ele><time>2026-04-19T10:09:08.001Z</time></trkpt><trkpt lat="45.14691760622678" lon="9.340368442794777"><ele>70.0</ele><time>2026-04-19T10:09:09.001Z</time></trkpt><trkpt lat="45.1470597779868" lon="9.340392356521853"><ele>70.0</ele><time>2026-04-19T10:09:10.001Z</time></trkpt><trkpt lat="45.147197955737084" lon="9.340447279522152"><ele>70.0</ele><time>2026-04-19T10:09:11.001Z</time></trkpt><trkpt lat="45.14734084468993" lon="9.340492922943556"><ele>70.25</ele><time>2026-04-19T10:09:12.001Z</time></trkpt><trkpt lat="45.147481582607185" lon="9.340540774526064"><ele>70.5</ele><time>2026-04-19T10:09:13.001Z</time></trkpt><trkpt lat="45.14761661917514" lon="9.340583057616684"><ele>70.75</ele><time>2026-04-19T10:09:14.001Z</time></trkpt><trkpt lat="45.14774729946857" lon="9.340627456667862"><ele>71.0</ele><time>2026-04-19T10:09:15.001Z</time></trkpt><trkpt lat="45.14786927146198" lon="9.340669228818893"><ele>71.0</ele><time>2026-04-19T10:09:16.001Z</time></trkpt><trkpt lat="45.14799979021419" lon="9.340710041253976"><ele>71.0</ele><time>2026-04-19T10:09:17.001Z</time></trkpt><trkpt lat="45.14811630321175" lon="9.340748172488848"><ele>71.0</ele><time>2026-04-19T10:09:18.001Z</time></trkpt><trkpt lat="45.148230987399735" lon="9.340790327450037"><ele>71.0</ele><time>2026-04-19T10:09:19.001Z</time></trkpt><trkpt lat="45.14833917549425" lon="9.340822858500038"><ele>71.0</ele><time>2026-04-19T10:09:20.001Z</time></trkpt><trkpt lat="45.14844929295792" lon="9.340858031938797"><ele>71.0</ele><time>2026-04-19T10:09:21.001Z</time></trkpt><trkpt lat="45.148550079408686" lon="9.340892143438317"><ele>71.0</ele><time>2026-04-19T10:09:22.001Z</time></trkpt><trkpt lat="45.14864174042211" lon="9.340952594437583"><ele>71.0</ele><time>2026-04-19T10:09:23.001Z</time></trkpt><trkpt lat="45.148712283670456" lon="9.340974543443705"><ele>71.0</ele><time>2026-04-19T10:09:24.001Z</time></trkpt><trkpt lat="45.14881808485419" lon="9.340995477597108"><ele>71.0</ele><time>2026-04-19T10:09:26.001Z</time></trkpt><trkpt lat="45.148879896207134" lon="9.341046662810424"><ele>71.0</ele><time>2026-04-19T10:09:29.001Z</time></trkpt><trkpt lat="45.148870352897916" lon="9.341340486166406"><ele>71.0</ele><time>2026-04-19T10:09:30.001Z</time></trkpt><trkpt lat="45.14886922247121" lon="9.341550674348792"><ele>71.0</ele><time>2026-04-19T10:09:31.001Z</time></trkpt><trkpt lat="45.148891368849206" lon="9.341732786567551"><ele>71.0</ele><time>2026-04-19T10:09:32.001Z</time></trkpt><trkpt lat="45.14892481586851" lon="9.341919752172695"><ele>71.0</ele><time>2026-04-19T10:09:33.001Z</time></trkpt><trkpt lat="45.14894237832345" lon="9.342152482037807"><ele>71.0</ele><time>2026-04-19T10:09:34.001Z</time></trkpt><trkpt lat="45.14895749202402" lon="9.342387413882802"><ele>70.75</ele><time>2026-04-19T10:09:35.001Z</time></trkpt><trkpt lat="45.14897299442673" lon="9.342631118723293"><ele>70.5</ele><time>2026-04-19T10:09:36.001Z</time></trkpt><trkpt lat="45.14898583759565" lon="9.342832933092705"><ele>70.25</ele><time>2026-04-19T10:09:37.001Z</time></trkpt><trkpt lat="45.14899970587013" lon="9.343007396882339"><ele>70.0</ele><time>2026-04-19T10:09:38.001Z</time></trkpt><trkpt lat="45.149019852107465" lon="9.343207338622555"><ele>70.0</ele><time>2026-04-19T10:09:39.001Z</time></trkpt><trkpt lat="45.14904436717784" lon="9.343405707931426"><ele>70.0</ele><time>2026-04-19T10:09:40.001Z</time></trkpt><trkpt lat="45.149076480388146" lon="9.34359387338366"><ele>70.0</ele><time>2026-04-19T10:09:41.001Z</time></trkpt><trkpt lat="45.14913238975853" lon="9.343778368836194"><ele>70.0</ele><time>2026-04-19T10:09:42.001Z</time></trkpt><trkpt lat="45.14919885114578" lon="9.344023149446521"><ele>70.0</ele><time>2026-04-19T10:09:43.001Z</time></trkpt><trkpt lat="45.149246735046106" lon="9.344227483195272"><ele>70.0</ele><time>2026-04-19T10:09:44.001Z</time></trkpt><trkpt lat="45.14929675454116" lon="9.34442330805518"><ele>70.0</ele><time>2026-04-19T10:09:45.001Z</time></trkpt><trkpt lat="45.1493508459923" lon="9.344600465981516"><ele>70.0</ele><time>2026-04-19T10:09:46.001Z</time></trkpt><trkpt lat="45.149416058109495" lon="9.344800872310055"><ele>69.75</ele><time>2026-04-19T10:09:47.001Z</time></trkpt><trkpt lat="45.149487187081384" lon="9.344973568548369"><ele>69.5</ele><time>2026-04-19T10:09:48.001Z</time></trkpt><trkpt lat="45.14955371882771" lon="9.345165161144115"><ele>69.25</ele><time>2026-04-19T10:09:49.001Z</time></trkpt><trkpt lat="45.149618886023944" lon="9.345344712196443"><ele>69.0</ele><time>2026-04-19T10:09:50.001Z</time></trkpt><trkpt lat="45.14968065379945" lon="9.345534805949171"><ele>69.33333333333333</ele><time>2026-04-19T10:09:51.001Z</time></trkpt><trkpt lat="45.14974735453165" lon="9.345742176018117"><ele>69.66666666666666</ele><time>2026-04-19T10:09:52.001Z</time></trkpt><trkpt lat="45.14980134240776" lon="9.345969878445722"><ele>70.0</ele><time>2026-04-19T10:09:53.001Z</time></trkpt><trkpt lat="45.149883234414595" lon="9.346159910253924"><ele>70.66666666666666</ele><time>2026-04-19T10:09:54.001Z</time></trkpt><trkpt lat="45.149968151126444" lon="9.34636019509902"><ele>71.33333333333333</ele><time>2026-04-19T10:09:55.001Z</time></trkpt><trkpt lat="45.15003636634549" lon="9.346556072809769"><ele>72.0</ele><time>2026-04-19T10:09:56.001Z</time></trkpt><trkpt lat="45.150103574879516" lon="9.346731717293745"><ele>72.0</ele><time>2026-04-19T10:09:57.001Z</time></trkpt><trkpt lat="45.150171222012595" lon="9.346901179367945"><ele>72.0</ele><time>2026-04-19T10:09:58.001Z</time></trkpt><trkpt lat="45.150226968236645" lon="9.347054747436726"><ele>72.0</ele><time>2026-04-19T10:09:59.001Z</time></trkpt><trkpt lat="45.15027573388281" lon="9.347204235150913"><ele>72.0</ele><time>2026-04-19T10:10:00.001Z</time></trkpt><trkpt lat="45.150327476898234" lon="9.347362782954363"><ele>72.0</ele><time>2026-04-19T10:10:01.001Z</time></trkpt><trkpt lat="45.15038513612069" lon="9.347526942337778"><ele>72.0</ele><time>2026-04-19T10:10:02.001Z</time></trkpt><trkpt lat="45.15044060180872" lon="9.347679953947093"><ele>72.0</ele><time>2026-04-19T10:10:03.001Z</time></trkpt><trkpt lat="45.150492259464464" lon="9.347851435789783"><ele>72.0</ele><time>2026-04-19T10:10:04.001Z</time></trkpt><trkpt lat="45.15054183858362" lon="9.34801989404006"><ele>72.0</ele><time>2026-04-19T10:10:05.001Z</time></trkpt><trkpt lat="45.150597629831054" lon="9.34817948911923"><ele>72.0</ele><time>2026-04-19T10:10:06.001Z</time></trkpt><trkpt lat="45.15064362413556" lon="9.348323588681865"><ele>72.0</ele><time>2026-04-19T10:10:07.001Z</time></trkpt><trkpt lat="45.150703247761356" lon="9.348466677826224"><ele>72.0</ele><time>2026-04-19T10:10:08.001Z</time></trkpt><trkpt lat="45.150788289361934" lon="9.348621049208854"><ele>71.75</ele><time>2026-04-19T10:10:09.001Z</time></trkpt><trkpt lat="45.150889734471" lon="9.348771983061111"><ele>71.5</ele><time>2026-04-19T10:10:10.001Z</time></trkpt><trkpt lat="45.150990158954286" lon="9.348927130842217"><ele>71.25</ele><time>2026-04-19T10:10:11.001Z</time></trkpt><trkpt lat="45.15108220798053" lon="9.349068896067385"><ele>71.0</ele><time>2026-04-19T10:10:12.001Z</time></trkpt><trkpt lat="45.151165696056694" lon="9.349207539462574"><ele>70.75</ele><time>2026-04-19T10:10:13.001Z</time></trkpt><trkpt lat="45.15124868583367" lon="9.349341813717553"><ele>70.5</ele><time>2026-04-19T10:10:14.001Z</time></trkpt><trkpt lat="45.151326316475846" lon="9.349485076491977"><ele>70.25</ele><time>2026-04-19T10:10:15.001Z</time></trkpt><trkpt lat="45.15140045578542" lon="9.349631607261621"><ele>70.0</ele><time>2026-04-19T10:10:16.001Z</time></trkpt><trkpt lat="45.15147035605154" lon="9.349796874394297"><ele>70.0</ele><time>2026-04-19T10:10:17.001Z</time></trkpt><trkpt lat="45.15153155324473" lon="9.349948721867445"><ele>70.0</ele><time>2026-04-19T10:10:18.001Z</time></trkpt><trkpt lat="45.15159460373271" lon="9.350082928863074"><ele>70.0</ele><time>2026-04-19T10:10:19.001Z</time></trkpt><trkpt lat="45.15164938689211" lon="9.350208793551554"><ele>70.0</ele><time>2026-04-19T10:10:20.001Z</time></trkpt><trkpt lat="45.15170426805808" lon="9.350316764291959"><ele>70.0</ele><time>2026-04-19T10:10:21.001Z</time></trkpt><trkpt lat="45.15174876490697" lon="9.350412867579479"><ele>69.83333333333333</ele><time>2026-04-19T10:10:22.001Z</time></trkpt><trkpt lat="45.1517865602486" lon="9.35050014701766"><ele>69.66666666666666</ele><time>2026-04-19T10:10:23.001Z</time></trkpt><trkpt lat="45.15183238630184" lon="9.350572128978808"><ele>69.5</ele><time>2026-04-19T10:10:24.001Z</time></trkpt><trkpt lat="45.15194551025326" lon="9.350622115743114"><ele>69.33333333333333</ele><time>2026-04-19T10:10:26.001Z</time></trkpt><trkpt lat="45.152013046970175" lon="9.350599675778257"><ele>69.16666666666667</ele><time>2026-04-19T10:10:27.001Z</time></trkpt><trkpt lat="45.15209066371598" lon="9.350558031000388"><ele>69.0</ele><time>2026-04-19T10:10:28.001Z</time></trkpt><trkpt lat="45.15218597981167" lon="9.350512983617906"><ele>69.0</ele><time>2026-04-19T10:10:29.001Z</time></trkpt><trkpt lat="45.152304702978924" lon="9.350474220371161"><ele>69.0</ele><time>2026-04-19T10:10:30.001Z</time></trkpt><trkpt lat="45.15244818874206" lon="9.35041858969825"><ele>69.0</ele><time>2026-04-19T10:10:31.001Z</time></trkpt><trkpt lat="45.15258684254972" lon="9.350368124414427"><ele>69.0</ele><time>2026-04-19T10:10:32.001Z</time></trkpt><trkpt lat="45.152729704409985" lon="9.350314266241167"><ele>69.66666666666667</ele><time>2026-04-19T10:10:33.001Z</time></trkpt><trkpt lat="45.1528799637697" lon="9.350255813268506"><ele>70.33333333333334</ele><time>2026-04-19T10:10:34.001Z</time></trkpt><trkpt lat="45.153023632682334" lon="9.350203712623763"><ele>71.0</ele><time>2026-04-19T10:10:35.001Z</time></trkpt><trkpt lat="45.153163917577636" lon="9.350146577557899"><ele>71.25</ele><time>2026-04-19T10:10:36.001Z</time></trkpt><trkpt lat="45.1532940687169" lon="9.350105798999618"><ele>71.5</ele><time>2026-04-19T10:10:37.001Z</time></trkpt><trkpt lat="45.15341311379375" lon="9.350059944993705"><ele>71.75</ele><time>2026-04-19T10:10:38.001Z</time></trkpt><trkpt lat="45.15352220312128" lon="9.350022567341144"><ele>72.0</ele><time>2026-04-19T10:10:39.001Z</time></trkpt><trkpt lat="45.15362200082739" lon="9.349983115413467"><ele>72.0</ele><time>2026-04-19T10:10:40.001Z</time></trkpt><trkpt lat="45.15371660213263" lon="9.34994565754732"><ele>72.0</ele><time>2026-04-19T10:10:41.001Z</time></trkpt><trkpt lat="45.15380734249121" lon="9.34990676742593"><ele>72.0</ele><time>2026-04-19T10:10:42.001Z</time></trkpt><trkpt lat="45.15388122643429" lon="9.349885683003903"><ele>72.0</ele><time>2026-04-19T10:10:43.001Z</time></trkpt><trkpt lat="45.15399026863196" lon="9.349856845975768"><ele>72.0</ele><time>2026-04-19T10:10:45.001Z</time></trkpt><trkpt lat="45.154059290813365" lon="9.349851031929294"><ele>72.0</ele><time>2026-04-19T10:10:48.001Z</time></trkpt><trkpt lat="45.154090686863825" lon="9.349944461805006"><ele>72.0</ele><time>2026-04-19T10:10:54.001Z</time></trkpt><trkpt lat="45.15403830815205" lon="9.35000990472464"><ele>72.0</ele><time>2026-04-19T10:10:55.001Z</time></trkpt><trkpt lat="45.15395127209525" lon="9.350091791088254"><ele>72.0</ele><time>2026-04-19T10:10:56.001Z</time></trkpt><trkpt lat="45.15387848964398" lon="9.350151070408884"><ele>72.0</ele><time>2026-04-19T10:10:57.001Z</time></trkpt><trkpt lat="45.1538054623396" lon="9.350223770037609"><ele>72.0</ele><time>2026-04-19T10:10:58.001Z</time></trkpt><trkpt lat="45.1537321754762" lon="9.350308643212804"><ele>72.0</ele><time>2026-04-19T10:10:59.001Z</time></trkpt><trkpt lat="45.15365307318489" lon="9.350404542531539"><ele>72.0</ele><time>2026-04-19T10:11:00.001Z</time></trkpt><trkpt lat="45.1535669988118" lon="9.350499690081921"><ele>72.0</ele><time>2026-04-19T10:11:01.001Z</time></trkpt><trkpt lat="45.15347818048048" lon="9.350594958082478"><ele>72.0</ele><time>2026-04-19T10:11:02.001Z</time></trkpt><trkpt lat="45.153388105662806" lon="9.350693415503674"><ele>72.0</ele><time>2026-04-19T10:11:03.001Z</time></trkpt><trkpt lat="45.153307331519144" lon="9.350780582406982"><ele>72.0</ele><time>2026-04-19T10:11:04.001Z</time></trkpt><trkpt lat="45.153226932251414" lon="9.350866059234301"><ele>72.0</ele><time>2026-04-19T10:11:05.001Z</time></trkpt><trkpt lat="45.153139340749426" lon="9.350959214056193"><ele>72.0</ele><time>2026-04-19T10:11:06.001Z</time></trkpt><trkpt lat="45.15305789221407" lon="9.351065649227595"><ele>72.0</ele><time>2026-04-19T10:11:07.001Z</time></trkpt><trkpt lat="45.1529789338081" lon="9.351173312223768"><ele>72.0</ele><time>2026-04-19T10:11:08.001Z</time></trkpt><trkpt lat="45.15287248530637" lon="9.351292792801202"><ele>71.75</ele><time>2026-04-19T10:11:09.001Z</time></trkpt><trkpt lat="45.15278595966667" lon="9.35137998637601"><ele>71.5</ele><time>2026-04-19T10:11:10.001Z</time></trkpt><trkpt lat="45.152685554459104" lon="9.351491403802145"><ele>71.25</ele><time>2026-04-19T10:11:11.001Z</time></trkpt><trkpt lat="45.15258431681783" lon="9.351605783350916"><ele>71.0</ele><time>2026-04-19T10:11:12.001Z</time></trkpt><trkpt lat="45.15248270282278" lon="9.351722780770643"><ele>71.0</ele><time>2026-04-19T10:11:13.001Z</time></trkpt><trkpt lat="45.15237910104762" lon="9.35183959917489"><ele>71.0</ele><time>2026-04-19T10:11:14.001Z</time></trkpt><trkpt lat="45.152274711095124" lon="9.35195690368526"><ele>71.0</ele><time>2026-04-19T10:11:15.001Z</time></trkpt><trkpt lat="45.152171984538676" lon="9.352094455056594"><ele>71.0</ele><time>2026-04-19T10:11:16.001Z</time></trkpt><trkpt lat="45.15206099444905" lon="9.352200800612685"><ele>70.75</ele><time>2026-04-19T10:11:17.001Z</time></trkpt><trkpt lat="45.151946786264965" lon="9.352313564197074"><ele>70.5</ele><time>2026-04-19T10:11:18.001Z</time></trkpt><trkpt lat="45.151831651124475" lon="9.352428684526691"><ele>70.25</ele><time>2026-04-19T10:11:19.001Z</time></trkpt><trkpt lat="45.151715305806015" lon="9.352537401714526"><ele>70.0</ele><time>2026-04-19T10:11:20.001Z</time></trkpt><trkpt lat="45.151592344967526" lon="9.352638453187069"><ele>70.0</ele><time>2026-04-19T10:11:21.001Z</time></trkpt><trkpt lat="45.15147039789838" lon="9.352731463901634"><ele>70.0</ele><time>2026-04-19T10:11:22.001Z</time></trkpt><trkpt lat="45.151346758276496" lon="9.352825805964674"><ele>70.0</ele><time>2026-04-19T10:11:23.001Z</time></trkpt><trkpt lat="45.15121891610049" lon="9.35291740130432"><ele>70.0</ele><time>2026-04-19T10:11:24.001Z</time></trkpt><trkpt lat="45.151088510447615" lon="9.3529981488657"><ele>70.0</ele><time>2026-04-19T10:11:25.001Z</time></trkpt><trkpt lat="45.150962415492806" lon="9.353066417362758"><ele>70.0</ele><time>2026-04-19T10:11:26.001Z</time></trkpt><trkpt lat="45.150845911004154" lon="9.35312380574769"><ele>70.0</ele><time>2026-04-19T10:11:27.001Z</time></trkpt><trkpt lat="45.15073590784717" lon="9.35317769164037"><ele>70.0</ele><time>2026-04-19T10:11:28.001Z</time></trkpt><trkpt lat="45.15064453682953" lon="9.353216016920737"><ele>70.0</ele><time>2026-04-19T10:11:29.001Z</time></trkpt><trkpt lat="45.15056563902895" lon="9.353250548810028"><ele>70.0</ele><time>2026-04-19T10:11:30.001Z</time></trkpt><trkpt lat="45.1504931534667" lon="9.353287533434896"><ele>70.0</ele><time>2026-04-19T10:11:31.001Z</time></trkpt><trkpt lat="45.1504223208918" lon="9.353327649544612"><ele>70.0</ele><time>2026-04-19T10:11:32.001Z</time></trkpt><trkpt lat="45.150338385201415" lon="9.35333316867773"><ele>70.0</ele><time>2026-04-19T10:11:33.001Z</time></trkpt><trkpt lat="45.150245738270726" lon="9.353377768056037"><ele>70.0</ele><time>2026-04-19T10:11:34.001Z</time></trkpt><trkpt lat="45.150143044501704" lon="9.35339634072317"><ele>70.0</ele><time>2026-04-19T10:11:35.001Z</time></trkpt><trkpt lat="45.15002305742066" lon="9.353407384002889"><ele>70.0</ele><time>2026-04-19T10:11:36.001Z</time></trkpt><trkpt lat="45.149764278214334" lon="9.353446979919317"><ele>70.0</ele><time>2026-04-19T10:11:38.001Z</time></trkpt><trkpt lat="45.1496226420246" lon="9.353453258040307"><ele>70.0</ele><time>2026-04-19T10:11:39.001Z</time></trkpt><trkpt lat="45.14946988135767" lon="9.35346358421164"><ele>70.0</ele><time>2026-04-19T10:11:40.001Z</time></trkpt><trkpt lat="45.14931113505996" lon="9.353485644114391"><ele>70.0</ele><time>2026-04-19T10:11:41.001Z</time></trkpt><trkpt lat="45.1491488152687" lon="9.353494434983412"><ele>69.66666666666666</ele><time>2026-04-19T10:11:42.001Z</time></trkpt><trkpt lat="45.1489944204697" lon="9.353505927545783"><ele>69.33333333333333</ele><time>2026-04-19T10:11:43.001Z</time></trkpt><trkpt lat="45.14883917257668" lon="9.353514169681398"><ele>69.0</ele><time>2026-04-19T10:11:44.001Z</time></trkpt><trkpt lat="45.14868154906413" lon="9.353524511936532"><ele>69.0</ele><time>2026-04-19T10:11:45.001Z</time></trkpt><trkpt lat="45.14851869731441" lon="9.353531567386305"><ele>69.0</ele><time>2026-04-19T10:11:46.001Z</time></trkpt><trkpt lat="45.14835261454858" lon="9.353537037288248"><ele>69.0</ele><time>2026-04-19T10:11:47.001Z</time></trkpt><trkpt lat="45.14818403741118" lon="9.353545585119527"><ele>69.0</ele><time>2026-04-19T10:11:48.001Z</time></trkpt><trkpt lat="45.148015392458255" lon="9.353554424007415"><ele>69.0</ele><time>2026-04-19T10:11:49.001Z</time></trkpt><trkpt lat="45.14785082933742" lon="9.353561093730605"><ele>69.0</ele><time>2026-04-19T10:11:50.001Z</time></trkpt><trkpt lat="45.147676827909066" lon="9.353570907162592"><ele>69.0</ele><time>2026-04-19T10:11:51.001Z</time></trkpt><trkpt lat="45.14750514143644" lon="9.353583691184944"><ele>69.0</ele><time>2026-04-19T10:11:52.001Z</time></trkpt><trkpt lat="45.14733330715458" lon="9.353597457269034"><ele>69.0</ele><time>2026-04-19T10:11:53.001Z</time></trkpt><trkpt lat="45.147161334861224" lon="9.353604087579193"><ele>69.66666666666667</ele><time>2026-04-19T10:11:54.001Z</time></trkpt><trkpt lat="45.14700285247306" lon="9.353609038381485"><ele>70.33333333333334</ele><time>2026-04-19T10:11:55.001Z</time></trkpt><trkpt lat="45.14685538701728" lon="9.353615025091482"><ele>71.0</ele><time>2026-04-19T10:11:56.001Z</time></trkpt><trkpt lat="45.14670869838508" lon="9.353621972643381"><ele>71.0</ele><time>2026-04-19T10:11:57.001Z</time></trkpt><trkpt lat="45.1465548257129" lon="9.353628815550861"><ele>71.0</ele><time>2026-04-19T10:11:58.001Z</time></trkpt><trkpt lat="45.14639860879311" lon="9.353630879254247"><ele>71.0</ele><time>2026-04-19T10:11:59.001Z</time></trkpt><trkpt lat="45.14624219277444" lon="9.353622845960729"><ele>70.33333333333334</ele><time>2026-04-19T10:12:00.001Z</time></trkpt><trkpt lat="45.14608304354811" lon="9.353604253462851"><ele>69.66666666666667</ele><time>2026-04-19T10:12:01.001Z</time></trkpt><trkpt lat="45.14592355352263" lon="9.35357714787718"><ele>69.0</ele><time>2026-04-19T10:12:02.001Z</time></trkpt><trkpt lat="45.145763874756184" lon="9.353543681576614"><ele>69.0</ele><time>2026-04-19T10:12:03.001Z</time></trkpt><trkpt lat="45.145610178154605" lon="9.35350455924926"><ele>69.0</ele><time>2026-04-19T10:12:04.001Z</time></trkpt><trkpt lat="45.145460194981474" lon="9.353463361999284"><ele>69.0</ele><time>2026-04-19T10:12:05.001Z</time></trkpt><trkpt lat="45.14531338310548" lon="9.35341005644128"><ele>69.0</ele><time>2026-04-19T10:12:06.001Z</time></trkpt><trkpt lat="45.145170527315294" lon="9.353354257562696"><ele>69.0</ele><time>2026-04-19T10:12:07.001Z</time></trkpt><trkpt lat="45.14503494039147" lon="9.35328652253494"><ele>69.0</ele><time>2026-04-19T10:12:08.001Z</time></trkpt><trkpt lat="45.14490065068337" lon="9.35321041006743"><ele>69.0</ele><time>2026-04-19T10:12:09.001Z</time></trkpt><trkpt lat="45.1447619952497" lon="9.353152303315293"><ele>69.0</ele><time>2026-04-19T10:12:10.001Z</time></trkpt><trkpt lat="45.14462720623625" lon="9.35307108619085"><ele>69.0</ele><time>2026-04-19T10:12:11.001Z</time></trkpt><trkpt lat="45.14450751664741" lon="9.353005003887876"><ele>69.0</ele><time>2026-04-19T10:12:12.001Z</time></trkpt><trkpt lat="45.14439379496147" lon="9.352944370152242"><ele>69.0</ele><time>2026-04-19T10:12:13.001Z</time></trkpt><trkpt lat="45.144285448937815" lon="9.352885615472518"><ele>69.25</ele><time>2026-04-19T10:12:14.001Z</time></trkpt><trkpt lat="45.144168440764986" lon="9.35281507370603"><ele>69.5</ele><time>2026-04-19T10:12:15.001Z</time></trkpt><trkpt lat="45.144045247537306" lon="9.352743602427465"><ele>69.75</ele><time>2026-04-19T10:12:16.001Z</time></trkpt><trkpt lat="45.14391335377606" lon="9.352670399652583"><ele>70.0</ele><time>2026-04-19T10:12:17.001Z</time></trkpt><trkpt lat="45.143777473505324" lon="9.352597536129062"><ele>70.33333333333333</ele><time>2026-04-19T10:12:18.001Z</time></trkpt><trkpt lat="45.143639092502916" lon="9.352516314934954"><ele>70.66666666666667</ele><time>2026-04-19T10:12:19.001Z</time></trkpt><trkpt lat="45.143500956594856" lon="9.35243408584001"><ele>71.0</ele><time>2026-04-19T10:12:20.001Z</time></trkpt><trkpt lat="45.14335901917751" lon="9.352355201755344"><ele>70.66666666666667</ele><time>2026-04-19T10:12:21.001Z</time></trkpt><trkpt lat="45.143205736200656" lon="9.352275128556904"><ele>70.33333333333333</ele><time>2026-04-19T10:12:22.001Z</time></trkpt><trkpt lat="45.143049971251294" lon="9.352204680506478"><ele>70.0</ele><time>2026-04-19T10:12:23.001Z</time></trkpt><trkpt lat="45.14289224016799" lon="9.352127961826758"><ele>69.33333333333333</ele><time>2026-04-19T10:12:24.001Z</time></trkpt><trkpt lat="45.14273235526643" lon="9.352046953392106"><ele>68.66666666666667</ele><time>2026-04-19T10:12:25.001Z</time></trkpt><trkpt lat="45.14257199096693" lon="9.35196966258134"><ele>68.0</ele><time>2026-04-19T10:12:26.001Z</time></trkpt><trkpt lat="45.14241306124665" lon="9.351894483581328"><ele>67.33333333333334</ele><time>2026-04-19T10:12:27.001Z</time></trkpt><trkpt lat="45.1422548414989" lon="9.3518149013926"><ele>66.66666666666667</ele><time>2026-04-19T10:12:28.001Z</time></trkpt><trkpt lat="45.14209846773236" lon="9.351739065324873"><ele>66.0</ele><time>2026-04-19T10:12:29.001Z</time></trkpt><trkpt lat="45.14194613194661" lon="9.35163828834763"><ele>66.0</ele><time>2026-04-19T10:12:30.001Z</time></trkpt><trkpt lat="45.14179174186413" lon="9.351558472444179"><ele>66.0</ele><time>2026-04-19T10:12:31.001Z</time></trkpt><trkpt lat="45.141646315194144" lon="9.351483290319075"><ele>66.0</ele><time>2026-04-19T10:12:32.001Z</time></trkpt><trkpt lat="45.14149734789161" lon="9.351427350680966"><ele>66.25</ele><time>2026-04-19T10:12:33.001Z</time></trkpt><trkpt lat="45.14136412774701" lon="9.351359504979637"><ele>66.5</ele><time>2026-04-19T10:12:34.001Z</time></trkpt><trkpt lat="45.14124123743399" lon="9.351296231242285"><ele>66.75</ele><time>2026-04-19T10:12:35.001Z</time></trkpt><trkpt lat="45.141118410021456" lon="9.351217943692424"><ele>67.0</ele><time>2026-04-19T10:12:36.001Z</time></trkpt><trkpt lat="45.141001209193654" lon="9.351159830917172"><ele>67.0</ele><time>2026-04-19T10:12:37.001Z</time></trkpt><trkpt lat="45.14089285455366" lon="9.351126783774406"><ele>67.0</ele><time>2026-04-19T10:12:38.001Z</time></trkpt><trkpt lat="45.14080589465654" lon="9.351077554083268"><ele>67.0</ele><time>2026-04-19T10:12:39.001Z</time></trkpt><trkpt lat="45.14072981899937" lon="9.351045140945109"><ele>67.0</ele><time>2026-04-19T10:12:40.001Z</time></trkpt><trkpt lat="45.140675847927284" lon="9.35099392151574"><ele>67.0</ele><time>2026-04-19T10:12:41.001Z</time></trkpt><trkpt lat="45.140497637036574" lon="9.351181855423361"><ele>67.0</ele><time>2026-04-19T10:12:43Z</time></trkpt><trkpt lat="45.140467389676324" lon="9.351283546048966"><ele>67.0</ele><time>2026-04-19T10:12:44Z</time></trkpt><trkpt lat="45.14042682457964" lon="9.351431902711623"><ele>67.0</ele><time>2026-04-19T10:12:45Z</time></trkpt><trkpt lat="45.14037293672584" lon="9.351588632774732"><ele>67.0</ele><time>2026-04-19T10:12:46Z</time></trkpt><trkpt lat="45.1403252611182" lon="9.351748045212556"><ele>67.0</ele><time>2026-04-19T10:12:47Z</time></trkpt><trkpt lat="45.140284007165285" lon="9.351919329210162"><ele>66.75</ele><time>2026-04-19T10:12:48Z</time></trkpt><trkpt lat="45.14023702528581" lon="9.352104867894253"><ele>66.5</ele><time>2026-04-19T10:12:49Z</time></trkpt><trkpt lat="45.140190056576415" lon="9.352285714659612"><ele>66.25</ele><time>2026-04-19T10:12:50Z</time></trkpt><trkpt lat="45.14014226316337" lon="9.35246384225616"><ele>66.0</ele><time>2026-04-19T10:12:51Z</time></trkpt><trkpt lat="45.14010437724492" lon="9.352616708066432"><ele>66.0</ele><time>2026-04-19T10:12:52Z</time></trkpt><trkpt lat="45.14006623273319" lon="9.352754631825729"><ele>66.0</ele><time>2026-04-19T10:12:53Z</time></trkpt><trkpt lat="45.14003129994696" lon="9.352891029459581"><ele>66.0</ele><time>2026-04-19T10:12:54Z</time></trkpt><trkpt lat="45.139993285432375" lon="9.353028483158115"><ele>66.0</ele><time>2026-04-19T10:12:55Z</time></trkpt><trkpt lat="45.13995771563913" lon="9.353159713695595"><ele>66.0</ele><time>2026-04-19T10:12:56Z</time></trkpt><trkpt lat="45.13992730060003" lon="9.353281070510555"><ele>66.0</ele><time>2026-04-19T10:12:57Z</time></trkpt><trkpt lat="45.13989641113885" lon="9.353381452753739"><ele>66.0</ele><time>2026-04-19T10:12:58Z</time></trkpt><trkpt lat="45.13986965710953" lon="9.353479949179173"><ele>66.0</ele><time>2026-04-19T10:12:59Z</time></trkpt><trkpt lat="45.13980478516443" lon="9.353622471012315"><ele>66.0</ele><time>2026-04-19T10:13:01Z</time></trkpt><trkpt lat="45.13976942136251" lon="9.353719518448695"><ele>66.0</ele><time>2026-04-19T10:13:03Z</time></trkpt><trkpt lat="45.139850065039816" lon="9.35387036533272"><ele>66.6</ele><time>2026-04-19T10:13:07Z</time></trkpt><trkpt lat="45.13996260427323" lon="9.353822149680036"><ele>67.19999999999999</ele><time>2026-04-19T10:13:09Z</time></trkpt><trkpt lat="45.140033097526036" lon="9.353759617211148"><ele>67.80000000000001</ele><time>2026-04-19T10:13:10Z</time></trkpt><trkpt lat="45.14012336579867" lon="9.35367890647329"><ele>68.4</ele><time>2026-04-19T10:13:11Z</time></trkpt><trkpt lat="45.140208201477016" lon="9.353605528037617"><ele>69.0</ele><time>2026-04-19T10:13:12Z</time></trkpt><trkpt lat="45.14030401993903" lon="9.35352049431982"><ele>69.0</ele><time>2026-04-19T10:13:13Z</time></trkpt><trkpt lat="45.14040652709099" lon="9.353440821298696"><ele>69.0</ele><time>2026-04-19T10:13:14Z</time></trkpt><trkpt lat="45.14050465733574" lon="9.353366780255465"><ele>69.0</ele><time>2026-04-19T10:13:15Z</time></trkpt><trkpt lat="45.140606406084906" lon="9.353288277934798"><ele>69.0</ele><time>2026-04-19T10:13:16Z</time></trkpt><trkpt lat="45.140697136573245" lon="9.35321491638717"><ele>69.0</ele><time>2026-04-19T10:13:17Z</time></trkpt><trkpt lat="45.14079136844552" lon="9.35313785304163"><ele>68.8</ele><time>2026-04-19T10:13:18Z</time></trkpt><trkpt lat="45.14087810469232" lon="9.353061697132027"><ele>68.60000000000001</ele><time>2026-04-19T10:13:19Z</time></trkpt><trkpt lat="45.14097418286437" lon="9.35298644804478"><ele>68.4</ele><time>2026-04-19T10:13:20Z</time></trkpt><trkpt lat="45.141070949432596" lon="9.352928778687712"><ele>68.2</ele><time>2026-04-19T10:13:21Z</time></trkpt><trkpt lat="45.14118088467182" lon="9.352899083364463"><ele>68.0</ele><time>2026-04-19T10:13:22Z</time></trkpt><trkpt lat="45.14129441416691" lon="9.352880751077603"><ele>68.0</ele><time>2026-04-19T10:13:23Z</time></trkpt><trkpt lat="45.141412699894424" lon="9.352888198876045"><ele>68.0</ele><time>2026-04-19T10:13:24Z</time></trkpt><trkpt lat="45.14153041913349" lon="9.352897040761567"><ele>68.0</ele><time>2026-04-19T10:13:25Z</time></trkpt><trkpt lat="45.14164629120287" lon="9.352909601697265"><ele>68.0</ele><time>2026-04-19T10:13:26Z</time></trkpt><trkpt lat="45.14175456081075" lon="9.352934801412495"><ele>68.0</ele><time>2026-04-19T10:13:27Z</time></trkpt><trkpt lat="45.14183419490091" lon="9.352970026421982"><ele>68.0</ele><time>2026-04-19T10:13:28Z</time></trkpt><trkpt lat="45.14190000678672" lon="9.353021655985941"><ele>68.0</ele><time>2026-04-19T10:13:29Z</time></trkpt><trkpt lat="45.141958618794064" lon="9.353097940564917"><ele>68.0</ele><time>2026-04-19T10:13:30Z</time></trkpt><trkpt lat="45.1420114156796" lon="9.353208222027297"><ele>68.0</ele><time>2026-04-19T10:13:31Z</time></trkpt><trkpt lat="45.14205399005201" lon="9.353341020255085"><ele>68.0</ele><time>2026-04-19T10:13:32Z</time></trkpt><trkpt lat="45.142095424052094" lon="9.353463495180216"><ele>68.0</ele><time>2026-04-19T10:13:33Z</time></trkpt><trkpt lat="45.1421485752041" lon="9.35356529602934"><ele>68.0</ele><time>2026-04-19T10:13:34Z</time></trkpt><trkpt lat="45.14220192686639" lon="9.353677989835944"><ele>68.0</ele><time>2026-04-19T10:13:35Z</time></trkpt><trkpt lat="45.14225313716257" lon="9.35380917568313"><ele>68.0</ele><time>2026-04-19T10:13:36Z</time></trkpt><trkpt lat="45.14228631669069" lon="9.353932747809452"><ele>68.0</ele><time>2026-04-19T10:13:37Z</time></trkpt><trkpt lat="45.1423036587254" lon="9.354073529877315"><ele>68.0</ele><time>2026-04-19T10:13:38Z</time></trkpt><trkpt lat="45.14231027665274" lon="9.35422621513985"><ele>68.0</ele><time>2026-04-19T10:13:39Z</time></trkpt><trkpt lat="45.142307005039704" lon="9.354393280675454"><ele>68.0</ele><time>2026-04-19T10:13:40Z</time></trkpt><trkpt lat="45.142304164073025" lon="9.35457831188576"><ele>68.0</ele><time>2026-04-19T10:13:41Z</time></trkpt><trkpt lat="45.14230212171328" lon="9.354769545896216"><ele>68.0</ele><time>2026-04-19T10:13:42Z</time></trkpt><trkpt lat="45.14230910216219" lon="9.354955259240297"><ele>68.0</ele><time>2026-04-19T10:13:43Z</time></trkpt><trkpt lat="45.14231323758001" lon="9.355126014909652"><ele>68.0</ele><time>2026-04-19T10:13:44Z</time></trkpt><trkpt lat="45.14231473773349" lon="9.35528437992092"><ele>68.0</ele><time>2026-04-19T10:13:45Z</time></trkpt><trkpt lat="45.14231708948839" lon="9.355427481041136"><ele>68.2</ele><time>2026-04-19T10:13:46Z</time></trkpt><trkpt lat="45.14232074435691" lon="9.35557096421442"><ele>68.4</ele><time>2026-04-19T10:13:47Z</time></trkpt><trkpt lat="45.14232518271538" lon="9.355718893364974"><ele>68.60000000000001</ele><time>2026-04-19T10:13:48Z</time></trkpt><trkpt lat="45.14232708284405" lon="9.355862781082493"><ele>68.8</ele><time>2026-04-19T10:13:49Z</time></trkpt><trkpt lat="45.14233012067095" lon="9.355998359963944"><ele>69.0</ele><time>2026-04-19T10:13:50Z</time></trkpt><trkpt lat="45.14233204191983" lon="9.356138217360511"><ele>69.0</ele><time>2026-04-19T10:13:51Z</time></trkpt><trkpt lat="45.142332983946154" lon="9.35628585613927"><ele>69.0</ele><time>2026-04-19T10:13:52Z</time></trkpt><trkpt lat="45.14232663862337" lon="9.356438759000763"><ele>69.0</ele><time>2026-04-19T10:13:53Z</time></trkpt><trkpt lat="45.14230420603216" lon="9.356603724917669"><ele>69.0</ele><time>2026-04-19T10:13:54Z</time></trkpt><trkpt lat="45.1422759973062" lon="9.356776187857747"><ele>69.25</ele><time>2026-04-19T10:13:55Z</time></trkpt><trkpt lat="45.142248622877176" lon="9.356953929310981"><ele>69.5</ele><time>2026-04-19T10:13:56Z</time></trkpt><trkpt lat="45.14222471517943" lon="9.357135859465462"><ele>69.75</ele><time>2026-04-19T10:13:57Z</time></trkpt><trkpt lat="45.142197104915226" lon="9.357307016380998"><ele>70.0</ele><time>2026-04-19T10:13:58Z</time></trkpt><trkpt lat="45.14217265763169" lon="9.357476999792157"><ele>69.5</ele><time>2026-04-19T10:13:59Z</time></trkpt><trkpt lat="45.142151161231716" lon="9.357649476790778"><ele>69.0</ele><time>2026-04-19T10:14:00Z</time></trkpt><trkpt lat="45.142130267466456" lon="9.357819391134257"><ele>68.5</ele><time>2026-04-19T10:14:01Z</time></trkpt><trkpt lat="45.142103673168826" lon="9.357985681461225"><ele>68.0</ele><time>2026-04-19T10:14:02Z</time></trkpt><trkpt lat="45.14207203172536" lon="9.358154069216114"><ele>68.0</ele><time>2026-04-19T10:14:03Z</time></trkpt><trkpt lat="45.1420345270218" lon="9.358333542549376"><ele>68.0</ele><time>2026-04-19T10:14:04Z</time></trkpt><trkpt lat="45.14199399492042" lon="9.358514062601355"><ele>68.0</ele><time>2026-04-19T10:14:05Z</time></trkpt><trkpt lat="45.1419524660939" lon="9.358694745051157"><ele>68.0</ele><time>2026-04-19T10:14:06Z</time></trkpt><trkpt lat="45.141916320177245" lon="9.358872488752706"><ele>68.0</ele><time>2026-04-19T10:14:07Z</time></trkpt><trkpt lat="45.14187974203601" lon="9.359039931123762"><ele>68.0</ele><time>2026-04-19T10:14:08Z</time></trkpt><trkpt lat="45.1418442826419" lon="9.35920443651052"><ele>68.0</ele><time>2026-04-19T10:14:09Z</time></trkpt><trkpt lat="45.14181452756269" lon="9.359349239072161"><ele>68.0</ele><time>2026-04-19T10:14:10Z</time></trkpt><trkpt lat="45.14178636780692" lon="9.359477323133229"><ele>68.0</ele><time>2026-04-19T10:14:11Z</time></trkpt><trkpt lat="45.14176256371675" lon="9.35959384766118"><ele>68.0</ele><time>2026-04-19T10:14:12Z</time></trkpt><trkpt lat="45.141745619495246" lon="9.359696215054488"><ele>68.0</ele><time>2026-04-19T10:14:13Z</time></trkpt><trkpt lat="45.1417364023087" lon="9.359791177771575"><ele>68.0</ele><time>2026-04-19T10:14:14Z</time></trkpt><trkpt lat="45.141718958478066" lon="9.359942014488206"><ele>68.0</ele><time>2026-04-19T10:14:16Z</time></trkpt><trkpt lat="45.141678748020574" lon="9.360037886280615"><ele>68.0</ele><time>2026-04-19T10:14:18Z</time></trkpt><trkpt lat="45.14158327805212" lon="9.360075066186313"><ele>68.0</ele><time>2026-04-19T10:14:20.001Z</time></trkpt><trkpt lat="45.141489482775945" lon="9.360015483961178"><ele>68.0</ele><time>2026-04-19T10:14:22.001Z</time></trkpt><trkpt lat="45.14137511047666" lon="9.359941918315343"><ele>68.0</ele><time>2026-04-19T10:14:24.001Z</time></trkpt><trkpt lat="45.14131375625561" lon="9.3599110618557"><ele>68.0</ele><time>2026-04-19T10:14:25.001Z</time></trkpt><trkpt lat="45.1412465956879" lon="9.359869900650263"><ele>68.0</ele><time>2026-04-19T10:14:26.001Z</time></trkpt><trkpt lat="45.141186821444236" lon="9.359841549200278"><ele>68.0</ele><time>2026-04-19T10:14:27.001Z</time></trkpt><trkpt lat="45.141096736528304" lon="9.359847426556588"><ele>68.0</ele><time>2026-04-19T10:14:29.001Z</time></trkpt><trkpt lat="45.141041886901995" lon="9.359973304929433"><ele>68.0</ele><time>2026-04-19T10:14:31.001Z</time></trkpt><trkpt lat="45.14101975088983" lon="9.360067197497408"><ele>68.0</ele><time>2026-04-19T10:14:32.001Z</time></trkpt><trkpt lat="45.1409989628036" lon="9.360184012417353"><ele>68.0</ele><time>2026-04-19T10:14:33.001Z</time></trkpt><trkpt lat="45.140986079995365" lon="9.36030463690581"><ele>68.0</ele><time>2026-04-19T10:14:34.001Z</time></trkpt><trkpt lat="45.1409658299363" lon="9.36042840356449"><ele>68.0</ele><time>2026-04-19T10:14:35.001Z</time></trkpt><trkpt lat="45.140943728269235" lon="9.36055424068959"><ele>68.0</ele><time>2026-04-19T10:14:36.001Z</time></trkpt><trkpt lat="45.140916078268084" lon="9.360675187894067"><ele>68.0</ele><time>2026-04-19T10:14:37.001Z</time></trkpt><trkpt lat="45.140894461494725" lon="9.360779358699673"><ele>68.0</ele><time>2026-04-19T10:14:38.001Z</time></trkpt><trkpt lat="45.140879224708534" lon="9.36086962996466"><ele>68.0</ele><time>2026-04-19T10:14:39.001Z</time></trkpt><trkpt lat="45.14086573279737" lon="9.360958033964701"><ele>68.0</ele><time>2026-04-19T10:14:40.001Z</time></trkpt><trkpt lat="45.14083931432701" lon="9.361098068571613"><ele>68.0</ele><time>2026-04-19T10:14:42.001Z</time></trkpt><trkpt lat="45.14077434097162" lon="9.361189131445263"><ele>68.0</ele><time>2026-04-19T10:14:44.001Z</time></trkpt><trkpt lat="45.14064778226433" lon="9.36119303410196"><ele>67.8</ele><time>2026-04-19T10:14:46.001Z</time></trkpt><trkpt lat="45.14056874566862" lon="9.361144292827772"><ele>67.6</ele><time>2026-04-19T10:14:47.001Z</time></trkpt><trkpt lat="45.14046966214846" lon="9.361084897613035"><ele>67.4</ele><time>2026-04-19T10:14:48.001Z</time></trkpt><trkpt lat="45.14036263523434" lon="9.36103349466326"><ele>67.2</ele><time>2026-04-19T10:14:49Z</time></trkpt><trkpt lat="45.14024552593463" lon="9.360983909604112"><ele>67.0</ele><time>2026-04-19T10:14:50Z</time></trkpt><trkpt lat="45.140137786222766" lon="9.360940056851726"><ele>67.0</ele><time>2026-04-19T10:14:51Z</time></trkpt><trkpt lat="45.140035847808264" lon="9.360900548089806"><ele>67.0</ele><time>2026-04-19T10:14:52Z</time></trkpt><trkpt lat="45.13994207814087" lon="9.360845624940245"><ele>67.0</ele><time>2026-04-19T10:14:53Z</time></trkpt><trkpt lat="45.13983895292473" lon="9.360791369687124"><ele>67.0</ele><time>2026-04-19T10:14:54Z</time></trkpt><trkpt lat="45.13974386470289" lon="9.36074083173084"><ele>67.0</ele><time>2026-04-19T10:14:55Z</time></trkpt><trkpt lat="45.1396642545885" lon="9.360706487264581"><ele>67.16666666666666</ele><time>2026-04-19T10:14:56Z</time></trkpt><trkpt lat="45.13957738490717" lon="9.360684953375408"><ele>67.33333333333333</ele><time>2026-04-19T10:14:57Z</time></trkpt><trkpt lat="45.13949604594378" lon="9.360653073924018"><ele>67.5</ele><time>2026-04-19T10:14:58Z</time></trkpt><trkpt lat="45.13941824401292" lon="9.360619258793243"><ele>67.66666666666667</ele><time>2026-04-19T10:14:59Z</time></trkpt><trkpt lat="45.1393507558993" lon="9.360592061229008"><ele>67.83333333333334</ele><time>2026-04-19T10:15:00Z</time></trkpt><trkpt lat="45.13927885687878" lon="9.36057459479758"><ele>68.0</ele><time>2026-04-19T10:15:01Z</time></trkpt><trkpt lat="45.13921181343459" lon="9.360582020973483"><ele>68.0</ele><time>2026-04-19T10:15:02Z</time></trkpt><trkpt lat="45.13915076635583" lon="9.36062963068227"><ele>68.0</ele><time>2026-04-19T10:15:03Z</time></trkpt><trkpt lat="45.139090810473675" lon="9.360696853787061"><ele>68.0</ele><time>2026-04-19T10:15:04Z</time></trkpt><trkpt lat="45.13905150530804" lon="9.36078879185474"><ele>68.0</ele><time>2026-04-19T10:15:05Z</time></trkpt><trkpt lat="45.13902127959006" lon="9.360929453834215"><ele>68.0</ele><time>2026-04-19T10:15:06Z</time></trkpt><trkpt lat="45.13898848716582" lon="9.361080677055822"><ele>68.0</ele><time>2026-04-19T10:15:07Z</time></trkpt><trkpt lat="45.138954941473806" lon="9.361232837539339"><ele>67.75</ele><time>2026-04-19T10:15:08Z</time></trkpt><trkpt lat="45.1389259731716" lon="9.361398271815899"><ele>67.5</ele><time>2026-04-19T10:15:09Z</time></trkpt><trkpt lat="45.13889534034521" lon="9.361571136592488"><ele>67.25</ele><time>2026-04-19T10:15:10Z</time></trkpt><trkpt lat="45.13886297944702" lon="9.361739971173929"><ele>67.0</ele><time>2026-04-19T10:15:11Z</time></trkpt><trkpt lat="45.138836278664066" lon="9.361888545430654"><ele>67.0</ele><time>2026-04-19T10:15:12Z</time></trkpt><trkpt lat="45.13881296747447" lon="9.36203144477806"><ele>67.0</ele><time>2026-04-19T10:15:13Z</time></trkpt><trkpt lat="45.13878997132746" lon="9.362168432766444"><ele>67.0</ele><time>2026-04-19T10:15:14Z</time></trkpt><trkpt lat="45.138760195042224" lon="9.362301183568144"><ele>67.0</ele><time>2026-04-19T10:15:15Z</time></trkpt><trkpt lat="45.1387253232776" lon="9.362433217285549"><ele>67.0</ele><time>2026-04-19T10:15:16Z</time></trkpt><trkpt lat="45.138688609489115" lon="9.362542802905176"><ele>67.33333333333333</ele><time>2026-04-19T10:15:17Z</time></trkpt><trkpt lat="45.13864175366486" lon="9.362642339446152"><ele>67.66666666666666</ele><time>2026-04-19T10:15:18Z</time></trkpt><trkpt lat="45.1385787330365" lon="9.36273227712939"><ele>68.0</ele><time>2026-04-19T10:15:19Z</time></trkpt><trkpt lat="45.13850028373131" lon="9.362795693421896"><ele>68.33333333333333</ele><time>2026-04-19T10:15:20Z</time></trkpt><trkpt lat="45.13841421286005" lon="9.36282573084373"><ele>68.66666666666667</ele><time>2026-04-19T10:15:21Z</time></trkpt><trkpt lat="45.13832277062228" lon="9.36281899320359"><ele>69.0</ele><time>2026-04-19T10:15:22Z</time></trkpt><trkpt lat="45.13822404257636" lon="9.362803731996161"><ele>68.83333333333333</ele><time>2026-04-19T10:15:23Z</time></trkpt><trkpt lat="45.138129695515104" lon="9.362797515842596"><ele>68.66666666666667</ele><time>2026-04-19T10:15:24Z</time></trkpt><trkpt lat="45.13805374495644" lon="9.362790814646237"><ele>68.5</ele><time>2026-04-19T10:15:25Z</time></trkpt><trkpt lat="45.137971553695586" lon="9.362777293677357"><ele>68.33333333333334</ele><time>2026-04-19T10:15:26Z</time></trkpt><trkpt lat="45.13789534498387" lon="9.362767652226312"><ele>68.16666666666667</ele><time>2026-04-19T10:15:27Z</time></trkpt><trkpt lat="45.13783208602944" lon="9.36277587155065"><ele>68.0</ele><time>2026-04-19T10:15:28Z</time></trkpt><trkpt lat="45.137725197302075" lon="9.362830570021977"><ele>68.0</ele><time>2026-04-19T10:15:30Z</time></trkpt><trkpt lat="45.137674458177045" lon="9.362984827126457"><ele>68.0</ele><time>2026-04-19T10:15:32Z</time></trkpt><trkpt lat="45.137643476011235" lon="9.363067208945127"><ele>68.0</ele><time>2026-04-19T10:15:33Z</time></trkpt><trkpt lat="45.1376200351129" lon="9.36315897522824"><ele>68.0</ele><time>2026-04-19T10:15:34Z</time></trkpt><trkpt lat="45.137561213492" lon="9.36329722594902"><ele>68.0</ele><time>2026-04-19T10:15:36Z</time></trkpt><trkpt lat="45.13750516147059" lon="9.363457578962523"><ele>68.2</ele><time>2026-04-19T10:15:38Z</time></trkpt><trkpt lat="45.13750082084338" lon="9.363599697732102"><ele>68.4</ele><time>2026-04-19T10:15:40Z</time></trkpt><trkpt lat="45.13756482019745" lon="9.36370789892406"><ele>68.60000000000001</ele><time>2026-04-19T10:15:42Z</time></trkpt><trkpt lat="45.13768988852692" lon="9.363754214982157"><ele>68.8</ele><time>2026-04-19T10:15:44Z</time></trkpt><trkpt lat="45.137789682299" lon="9.36375066259503"><ele>69.0</ele><time>2026-04-19T10:15:45Z</time></trkpt><trkpt lat="45.13790666274063" lon="9.363766754582104"><ele>69.0</ele><time>2026-04-19T10:15:46Z</time></trkpt><trkpt lat="45.138025635715834" lon="9.363786629855083"><ele>69.0</ele><time>2026-04-19T10:15:47Z</time></trkpt><trkpt lat="45.13813881970377" lon="9.363808681639256"><ele>69.0</ele><time>2026-04-19T10:15:48Z</time></trkpt><trkpt lat="45.13825918822181" lon="9.363826186445309"><ele>69.0</ele><time>2026-04-19T10:15:49Z</time></trkpt><trkpt lat="45.138387563479775" lon="9.363843424814137"><ele>69.0</ele><time>2026-04-19T10:15:50Z</time></trkpt><trkpt lat="45.138499141825825" lon="9.363861181689941"><ele>69.0</ele><time>2026-04-19T10:15:51Z</time></trkpt><trkpt lat="45.1386105909136" lon="9.363871741751904"><ele>69.0</ele><time>2026-04-19T10:15:52Z</time></trkpt><trkpt lat="45.13872497494112" lon="9.363897028203771"><ele>69.0</ele><time>2026-04-19T10:15:53Z</time></trkpt><trkpt lat="45.138840879876795" lon="9.363915974670503"><ele>68.75</ele><time>2026-04-19T10:15:54Z</time></trkpt><trkpt lat="45.138952625161025" lon="9.363929352671251"><ele>68.5</ele><time>2026-04-19T10:15:55Z</time></trkpt><trkpt lat="45.13906911357367" lon="9.363946148589154"><ele>68.25</ele><time>2026-04-19T10:15:56Z</time></trkpt><trkpt lat="45.139183764343024" lon="9.363963674511476"><ele>68.0</ele><time>2026-04-19T10:15:57Z</time></trkpt><trkpt lat="45.13929306597028" lon="9.363975333864724"><ele>68.0</ele><time>2026-04-19T10:15:58Z</time></trkpt><trkpt lat="45.13940934710345" lon="9.36396566903993"><ele>68.0</ele><time>2026-04-19T10:15:59Z</time></trkpt><trkpt lat="45.13951943864049" lon="9.363958199274212"><ele>68.0</ele><time>2026-04-19T10:16:00Z</time></trkpt><trkpt lat="45.139622835713084" lon="9.363951805725499"><ele>68.0</ele><time>2026-04-19T10:16:01Z</time></trkpt><trkpt lat="45.13973590078783" lon="9.363962443551822"><ele>68.0</ele><time>2026-04-19T10:16:02Z</time></trkpt><trkpt lat="45.139853874667075" lon="9.363974110871185"><ele>68.2</ele><time>2026-04-19T10:16:03Z</time></trkpt><trkpt lat="45.13995947114657" lon="9.363989014282733"><ele>68.4</ele><time>2026-04-19T10:16:04Z</time></trkpt><trkpt lat="45.14006391816026" lon="9.36401017815562"><ele>68.60000000000001</ele><time>2026-04-19T10:16:05Z</time></trkpt><trkpt lat="45.14016032819312" lon="9.364025812374855"><ele>68.8</ele><time>2026-04-19T10:16:06Z</time></trkpt><trkpt lat="45.14024677570208" lon="9.364040296437878"><ele>69.0</ele><time>2026-04-19T10:16:07Z</time></trkpt><trkpt lat="45.14032244907909" lon="9.3640434507576"><ele>69.0</ele><time>2026-04-19T10:16:08Z</time></trkpt><trkpt lat="45.1403932447787" lon="9.364038224961195"><ele>69.0</ele><time>2026-04-19T10:16:09Z</time></trkpt><trkpt lat="45.14047188400978" lon="9.36404612074437"><ele>69.0</ele><time>2026-04-19T10:16:10Z</time></trkpt><trkpt lat="45.14053398149199" lon="9.364064680621006"><ele>69.0</ele><time>2026-04-19T10:16:11Z</time></trkpt><trkpt lat="45.14062365278723" lon="9.364130639245802"><ele>69.0</ele><time>2026-04-19T10:16:13Z</time></trkpt><trkpt lat="45.140666284329484" lon="9.364295322549925"><ele>69.0</ele><time>2026-04-19T10:16:15Z</time></trkpt><trkpt lat="45.14066942016079" lon="9.36440554153418"><ele>69.0</ele><time>2026-04-19T10:16:16Z</time></trkpt><trkpt lat="45.1406670144743" lon="9.364526766179614"><ele>69.0</ele><time>2026-04-19T10:16:17Z</time></trkpt><trkpt lat="45.14066611372555" lon="9.364638280742646"><ele>69.0</ele><time>2026-04-19T10:16:18Z</time></trkpt><trkpt lat="45.14066694404744" lon="9.364746750375403"><ele>69.0</ele><time>2026-04-19T10:16:19Z</time></trkpt><trkpt lat="45.14065507992278" lon="9.36484840351502"><ele>69.0</ele><time>2026-04-19T10:16:20Z</time></trkpt><trkpt lat="45.140647107236525" lon="9.365011516329124"><ele>69.0</ele><time>2026-04-19T10:16:22Z</time></trkpt><trkpt lat="45.14064688461358" lon="9.3652005326752"><ele>68.83333333333333</ele><time>2026-04-19T10:16:24Z</time></trkpt><trkpt lat="45.14062937146431" lon="9.365299141727736"><ele>68.66666666666667</ele><time>2026-04-19T10:16:25Z</time></trkpt><trkpt lat="45.140595940999376" lon="9.365400273308785"><ele>68.5</ele><time>2026-04-19T10:16:26Z</time></trkpt><trkpt lat="45.140557180409054" lon="9.365511811047014"><ele>68.33333333333334</ele><time>2026-04-19T10:16:27Z</time></trkpt><trkpt lat="45.14054032793894" lon="9.365625446695509"><ele>68.16666666666667</ele><time>2026-04-19T10:16:28.001Z</time></trkpt><trkpt lat="45.14052883120169" lon="9.365760523927397"><ele>68.0</ele><time>2026-04-19T10:16:29.001Z</time></trkpt><trkpt lat="45.14052814796044" lon="9.365910377831607"><ele>67.4</ele><time>2026-04-19T10:16:30.001Z</time></trkpt><trkpt lat="45.140527397034205" lon="9.36604569577344"><ele>66.8</ele><time>2026-04-19T10:16:31.001Z</time></trkpt><trkpt lat="45.14052213682016" lon="9.366191225873953"><ele>66.2</ele><time>2026-04-19T10:16:32.001Z</time></trkpt><trkpt lat="45.14050683749664" lon="9.366348159913505"><ele>65.6</ele><time>2026-04-19T10:16:33.001Z</time></trkpt><trkpt lat="45.14049949075465" lon="9.36649670585405"><ele>65.0</ele><time>2026-04-19T10:16:34.001Z</time></trkpt><trkpt lat="45.14048512592311" lon="9.366637681002667"><ele>64.16666666666667</ele><time>2026-04-19T10:16:35.001Z</time></trkpt><trkpt lat="45.140477099385826" lon="9.366773669684461"><ele>63.333333333333336</ele><time>2026-04-19T10:16:36.001Z</time></trkpt><trkpt lat="45.14046775157494" lon="9.366893837782985"><ele>62.5</ele><time>2026-04-19T10:16:37.001Z</time></trkpt><trkpt lat="45.14046852209357" lon="9.36701404553227"><ele>61.66666666666667</ele><time>2026-04-19T10:16:38.001Z</time></trkpt><trkpt lat="45.14047353451338" lon="9.367136520511336"><ele>60.833333333333336</ele><time>2026-04-19T10:16:39.001Z</time></trkpt><trkpt lat="45.14046982317446" lon="9.367260026231273"><ele>60.0</ele><time>2026-04-19T10:16:40.001Z</time></trkpt><trkpt lat="45.14045093693021" lon="9.367387978095461"><ele>59.8</ele><time>2026-04-19T10:16:41.001Z</time></trkpt><trkpt lat="45.14043159104534" lon="9.367523602845493"><ele>59.6</ele><time>2026-04-19T10:16:42.001Z</time></trkpt><trkpt lat="45.140409583551566" lon="9.367657104239438"><ele>59.400000000000006</ele><time>2026-04-19T10:16:43.001Z</time></trkpt><trkpt lat="45.14037579389723" lon="9.367796560631218"><ele>59.2</ele><time>2026-04-19T10:16:44.001Z</time></trkpt><trkpt lat="45.14034737250549" lon="9.367935099890575"><ele>59.0</ele><time>2026-04-19T10:16:45.001Z</time></trkpt><trkpt lat="45.14031771586186" lon="9.368065584913827"><ele>58.400000000000006</ele><time>2026-04-19T10:16:46.001Z</time></trkpt><trkpt lat="45.14029340173058" lon="9.368193269086046"><ele>57.800000000000004</ele><time>2026-04-19T10:16:47.001Z</time></trkpt><trkpt lat="45.14027525918182" lon="9.368339855404129"><ele>57.199999999999996</ele><time>2026-04-19T10:16:48.001Z</time></trkpt><trkpt lat="45.14026357541077" lon="9.368490418843892"><ele>56.599999999999994</ele><time>2026-04-19T10:16:49.001Z</time></trkpt><trkpt lat="45.140242985028564" lon="9.36864122665379"><ele>56.0</ele><time>2026-04-19T10:16:50.001Z</time></trkpt><trkpt lat="45.14022304609633" lon="9.368793765206544"><ele>56.00000000000001</ele><time>2026-04-19T10:16:51.001Z</time></trkpt><trkpt lat="45.140205031299615" lon="9.36892726296193"><ele>56.0</ele><time>2026-04-19T10:16:52.001Z</time></trkpt><trkpt lat="45.14018808756579" lon="9.369055210829398"><ele>56.0</ele><time>2026-04-19T10:16:53.001Z</time></trkpt><trkpt lat="45.1401758645548" lon="9.369173237991225"><ele>56.0</ele><time>2026-04-19T10:16:54.001Z</time></trkpt><trkpt lat="45.14015393033881" lon="9.369270166705853"><ele>56.00000000000001</ele><time>2026-04-19T10:16:55Z</time></trkpt><trkpt lat="45.14017616845674" lon="9.36936351233911"><ele>56.0</ele><time>2026-04-19T10:16:56Z</time></trkpt><trkpt lat="45.14020314424725" lon="9.369524525574079"><ele>56.5</ele><time>2026-04-19T10:16:58Z</time></trkpt><trkpt lat="45.14020319121114" lon="9.369714948699118"><ele>57.0</ele><time>2026-04-19T10:17:00Z</time></trkpt><trkpt lat="45.14015198973628" lon="9.369839145830554"><ele>57.5</ele><time>2026-04-19T10:17:01Z</time></trkpt><trkpt lat="45.14010401978212" lon="9.36999258202984"><ele>58.0</ele><time>2026-04-19T10:17:02Z</time></trkpt><trkpt lat="45.14007972632733" lon="9.370149273428996"><ele>58.0</ele><time>2026-04-19T10:17:03Z</time></trkpt><trkpt lat="45.140077990583194" lon="9.370324945193413"><ele>58.0</ele><time>2026-04-19T10:17:04Z</time></trkpt><trkpt lat="45.140044777044864" lon="9.37049004531743"><ele>58.0</ele><time>2026-04-19T10:17:05Z</time></trkpt><trkpt lat="45.14002848898539" lon="9.370646942580011"><ele>58.0</ele><time>2026-04-19T10:17:06Z</time></trkpt><trkpt lat="45.140009382220036" lon="9.370797770830984"><ele>57.8</ele><time>2026-04-19T10:17:07Z</time></trkpt><trkpt lat="45.13999211287492" lon="9.370941097985336"><ele>57.599999999999994</ele><time>2026-04-19T10:17:08Z</time></trkpt><trkpt lat="45.1399211088523" lon="9.371040589209823"><ele>57.400000000000006</ele><time>2026-04-19T10:17:09Z</time></trkpt><trkpt lat="45.139853534549125" lon="9.371147646615121"><ele>57.2</ele><time>2026-04-19T10:17:10Z</time></trkpt><trkpt lat="45.13977096608164" lon="9.371262797551465"><ele>57.0</ele><time>2026-04-19T10:17:11Z</time></trkpt><trkpt lat="45.13970861987736" lon="9.371396582629368"><ele>57.0</ele><time>2026-04-19T10:17:12Z</time></trkpt><trkpt lat="45.139649653265515" lon="9.37152828878857"><ele>57.0</ele><time>2026-04-19T10:17:13Z</time></trkpt><trkpt lat="45.139609220602296" lon="9.37168226581536"><ele>57.0</ele><time>2026-04-19T10:17:14Z</time></trkpt><trkpt lat="45.13958591739566" lon="9.371834104135996"><ele>57.0</ele><time>2026-04-19T10:17:15Z</time></trkpt><trkpt lat="45.139560968832356" lon="9.371999050558923"><ele>57.0</ele><time>2026-04-19T10:17:16Z</time></trkpt><trkpt lat="45.139503109081176" lon="9.372151843750794"><ele>57.0</ele><time>2026-04-19T10:17:17Z</time></trkpt><trkpt lat="45.139434096825205" lon="9.372304229342976"><ele>57.0</ele><time>2026-04-19T10:17:18Z</time></trkpt><trkpt lat="45.13935441212709" lon="9.37246125773687"><ele>57.0</ele><time>2026-04-19T10:17:19Z</time></trkpt><trkpt lat="45.13927654773532" lon="9.372638267266623"><ele>57.0</ele><time>2026-04-19T10:17:20Z</time></trkpt><trkpt lat="45.13916828046686" lon="9.37278462794062"><ele>57.0</ele><time>2026-04-19T10:17:21Z</time></trkpt><trkpt lat="45.13905574131055" lon="9.372947458486411"><ele>57.0</ele><time>2026-04-19T10:17:22Z</time></trkpt><trkpt lat="45.13895341182455" lon="9.373117879730174"><ele>56.66666666666667</ele><time>2026-04-19T10:17:23Z</time></trkpt><trkpt lat="45.13883716042668" lon="9.373269543888327"><ele>56.333333333333336</ele><time>2026-04-19T10:17:24Z</time></trkpt><trkpt lat="45.138707880231074" lon="9.373432989359"><ele>56.0</ele><time>2026-04-19T10:17:25Z</time></trkpt><trkpt lat="45.1385959148235" lon="9.373575440705979"><ele>56.0</ele><time>2026-04-19T10:17:26Z</time></trkpt><trkpt lat="45.13848736812445" lon="9.373711688075723"><ele>56.0</ele><time>2026-04-19T10:17:27Z</time></trkpt><trkpt lat="45.13838754410596" lon="9.37384750275391"><ele>56.0</ele><time>2026-04-19T10:17:28Z</time></trkpt><trkpt lat="45.138298961194344" lon="9.373975970242666"><ele>56.0</ele><time>2026-04-19T10:17:29Z</time></trkpt><trkpt lat="45.138210048604606" lon="9.374101016087023"><ele>55.5</ele><time>2026-04-19T10:17:30Z</time></trkpt><trkpt lat="45.138122498622074" lon="9.374228458568812"><ele>55.0</ele><time>2026-04-19T10:17:31Z</time></trkpt><trkpt lat="45.1380283467182" lon="9.374317194976745"><ele>54.5</ele><time>2026-04-19T10:17:32Z</time></trkpt><trkpt lat="45.13793645711706" lon="9.374405501678034"><ele>54.0</ele><time>2026-04-19T10:17:33Z</time></trkpt><trkpt lat="45.13783640335475" lon="9.374476259358037"><ele>54.0</ele><time>2026-04-19T10:17:34Z</time></trkpt><trkpt lat="45.13771587403031" lon="9.374515248649066"><ele>54.0</ele><time>2026-04-19T10:17:35Z</time></trkpt><trkpt lat="45.13758964483329" lon="9.374523399573592"><ele>54.0</ele><time>2026-04-19T10:17:36Z</time></trkpt><trkpt lat="45.13745727199215" lon="9.374528079466826"><ele>54.0</ele><time>2026-04-19T10:17:37Z</time></trkpt><trkpt lat="45.13733638689899" lon="9.374529090708254"><ele>54.25</ele><time>2026-04-19T10:17:38Z</time></trkpt><trkpt lat="45.137215858690865" lon="9.3745465312035"><ele>54.5</ele><time>2026-04-19T10:17:39Z</time></trkpt><trkpt lat="45.13709623758442" lon="9.3746228649184"><ele>54.75</ele><time>2026-04-19T10:17:40Z</time></trkpt><trkpt lat="45.136972026118784" lon="9.374703384502645"><ele>55.0</ele><time>2026-04-19T10:17:41Z</time></trkpt><trkpt lat="45.13684139500334" lon="9.374785269542231"><ele>55.666666666666664</ele><time>2026-04-19T10:17:42Z</time></trkpt><trkpt lat="45.13670845158913" lon="9.374880466433753"><ele>56.33333333333333</ele><time>2026-04-19T10:17:43Z</time></trkpt><trkpt lat="45.136566442404785" lon="9.374964890227474"><ele>57.0</ele><time>2026-04-19T10:17:44Z</time></trkpt><trkpt lat="45.13641404125785" lon="9.375015296381406"><ele>57.0</ele><time>2026-04-19T10:17:45Z</time></trkpt><trkpt lat="45.136251731092095" lon="9.375083765199719"><ele>57.0</ele><time>2026-04-19T10:17:46Z</time></trkpt><trkpt lat="45.13607807167499" lon="9.375167447398164"><ele>57.0</ele><time>2026-04-19T10:17:47Z</time></trkpt><trkpt lat="45.135893479765556" lon="9.375233640367878"><ele>57.0</ele><time>2026-04-19T10:17:48Z</time></trkpt><trkpt lat="45.135721217705864" lon="9.375299960137603"><ele>57.0</ele><time>2026-04-19T10:17:49Z</time></trkpt><trkpt lat="45.13555641115395" lon="9.375362237099385"><ele>57.0</ele><time>2026-04-19T10:17:50Z</time></trkpt><trkpt lat="45.135390332568875" lon="9.375423654466628"><ele>57.0</ele><time>2026-04-19T10:17:51Z</time></trkpt><trkpt lat="45.135234739756" lon="9.37548928870152"><ele>57.0</ele><time>2026-04-19T10:17:52Z</time></trkpt><trkpt lat="45.13509060971087" lon="9.375548860844443"><ele>57.0</ele><time>2026-04-19T10:17:53Z</time></trkpt><trkpt lat="45.13495790656628" lon="9.375600224033382"><ele>57.0</ele><time>2026-04-19T10:17:54Z</time></trkpt><trkpt lat="45.13483289523139" lon="9.375648961278706"><ele>57.0</ele><time>2026-04-19T10:17:55Z</time></trkpt><trkpt lat="45.134720144527996" lon="9.375698168828826"><ele>57.0</ele><time>2026-04-19T10:17:56Z</time></trkpt><trkpt lat="45.1346086748989" lon="9.375704616283032"><ele>57.0</ele><time>2026-04-19T10:17:57Z</time></trkpt><trkpt lat="45.13449028247648" lon="9.375704689713729"><ele>57.0</ele><time>2026-04-19T10:17:58Z</time></trkpt><trkpt lat="45.13434929037075" lon="9.375699995352505"><ele>57.0</ele><time>2026-04-19T10:17:59Z</time></trkpt><trkpt lat="45.13421354202127" lon="9.375702086032108"><ele>57.0</ele><time>2026-04-19T10:18:00Z</time></trkpt><trkpt lat="45.134104945446836" lon="9.375701165711602"><ele>57.0</ele><time>2026-04-19T10:18:01Z</time></trkpt><trkpt lat="45.13401021837898" lon="9.375693769144288"><ele>57.0</ele><time>2026-04-19T10:18:02Z</time></trkpt><trkpt lat="45.133940246338106" lon="9.375682730667204"><ele>57.0</ele><time>2026-04-19T10:18:03Z</time></trkpt><trkpt lat="45.133843434996656" lon="9.37568971598622"><ele>57.0</ele><time>2026-04-19T10:18:05Z</time></trkpt><trkpt lat="45.133781415137555" lon="9.375767955568248"><ele>57.0</ele><time>2026-04-19T10:18:07Z</time></trkpt><trkpt lat="45.13378380060005" lon="9.375896616659642"><ele>57.0</ele><time>2026-04-19T10:18:08Z</time></trkpt><trkpt lat="45.13377254309106" lon="9.376019403820035"><ele>57.0</ele><time>2026-04-19T10:18:09Z</time></trkpt><trkpt lat="45.133746011709434" lon="9.376137586116513"><ele>57.0</ele><time>2026-04-19T10:18:10Z</time></trkpt><trkpt lat="45.133729616768754" lon="9.376271294768939"><ele>57.0</ele><time>2026-04-19T10:18:11Z</time></trkpt><trkpt lat="45.133706097868476" lon="9.376409568248313"><ele>57.0</ele><time>2026-04-19T10:18:12Z</time></trkpt><trkpt lat="45.13367650378678" lon="9.37655732985266"><ele>57.0</ele><time>2026-04-19T10:18:13Z</time></trkpt><trkpt lat="45.133645700224484" lon="9.376695300597763"><ele>57.0</ele><time>2026-04-19T10:18:14Z</time></trkpt><trkpt lat="45.13363359288846" lon="9.376820051987012"><ele>58.0</ele><time>2026-04-19T10:18:15Z</time></trkpt><trkpt lat="45.133605939262296" lon="9.376922749602956"><ele>59.0</ele><time>2026-04-19T10:18:16.001Z</time></trkpt><trkpt lat="45.13357311220636" lon="9.37705774677547"><ele>60.0</ele><time>2026-04-19T10:18:18.001Z</time></trkpt><trkpt lat="45.13356448084194" lon="9.377174764062671"><ele>61.0</ele><time>2026-04-19T10:18:20.001Z</time></trkpt><trkpt lat="45.13356018362353" lon="9.377266742766809"><ele>62.0</ele><time>2026-04-19T10:18:21.001Z</time></trkpt><trkpt lat="45.13349428595036" lon="9.377356559034592"><ele>63.0</ele><time>2026-04-19T10:18:22.001Z</time></trkpt><trkpt lat="45.13347290996631" lon="9.37746219070265"><ele>63.42857142857143</ele><time>2026-04-19T10:18:23.001Z</time></trkpt><trkpt lat="45.13345551366448" lon="9.377553422560462"><ele>63.85714285714286</ele><time>2026-04-19T10:18:24.001Z</time></trkpt><trkpt lat="45.13345657251684" lon="9.377644091195702"><ele>64.28571428571428</ele><time>2026-04-19T10:18:25.001Z</time></trkpt><trkpt lat="45.133431188201925" lon="9.37772701094254"><ele>64.71428571428572</ele><time>2026-04-19T10:18:26.001Z</time></trkpt><trkpt lat="45.13342128380533" lon="9.377815367596284"><ele>65.14285714285714</ele><time>2026-04-19T10:18:27.001Z</time></trkpt><trkpt lat="45.1333956309739" lon="9.377915092832595"><ele>65.57142857142857</ele><time>2026-04-19T10:18:28.001Z</time></trkpt><trkpt lat="45.13337487380572" lon="9.378036517363936"><ele>66.0</ele><time>2026-04-19T10:18:29.001Z</time></trkpt><trkpt lat="45.133348232697" lon="9.378155806273615"><ele>66.0</ele><time>2026-04-19T10:18:30.001Z</time></trkpt><trkpt lat="45.13332722690758" lon="9.378251109578537"><ele>66.0</ele><time>2026-04-19T10:18:31.001Z</time></trkpt><trkpt lat="45.133309842288995" lon="9.378338999852343"><ele>66.0</ele><time>2026-04-19T10:18:32.001Z</time></trkpt><trkpt lat="45.13329512064288" lon="9.378435288048381"><ele>66.0</ele><time>2026-04-19T10:18:33.001Z</time></trkpt><trkpt lat="45.13327833377345" lon="9.378543967341427"><ele>66.0</ele><time>2026-04-19T10:18:34.001Z</time></trkpt><trkpt lat="45.13325687395093" lon="9.37862936280215"><ele>66.0</ele><time>2026-04-19T10:18:35.001Z</time></trkpt><trkpt lat="45.13320669105316" lon="9.378761113172024"><ele>65.66666666666667</ele><time>2026-04-19T10:18:37.001Z</time></trkpt><trkpt lat="45.13319088704188" lon="9.378863556675432"><ele>65.33333333333333</ele><time>2026-04-19T10:18:39.001Z</time></trkpt><trkpt lat="45.133104404937846" lon="9.378894343235338"><ele>65.0</ele><time>2026-04-19T10:18:40.001Z</time></trkpt><trkpt lat="45.13302216315081" lon="9.37893355539454"><ele>64.66666666666666</ele><time>2026-04-19T10:18:41.001Z</time></trkpt><trkpt lat="45.132928919019825" lon="9.37895346832047"><ele>64.33333333333333</ele><time>2026-04-19T10:18:42.001Z</time></trkpt><trkpt lat="45.13283150564429" lon="9.378971226206602"><ele>64.0</ele><time>2026-04-19T10:18:43.001Z</time></trkpt><trkpt lat="45.132724968974294" lon="9.378993724630591"><ele>64.0</ele><time>2026-04-19T10:18:44.001Z</time></trkpt><trkpt lat="45.13261563848733" lon="9.379016955338312"><ele>64.0</ele><time>2026-04-19T10:18:45.001Z</time></trkpt><trkpt lat="45.132496469341106" lon="9.379046650667126"><ele>64.0</ele><time>2026-04-19T10:18:46.001Z</time></trkpt><trkpt lat="45.13238389751226" lon="9.379078296196004"><ele>64.0</ele><time>2026-04-19T10:18:47.001Z</time></trkpt><trkpt lat="45.13228440442352" lon="9.379114293657695"><ele>64.0</ele><time>2026-04-19T10:18:48.001Z</time></trkpt><trkpt lat="45.132188500749216" lon="9.379143953508512"><ele>64.4</ele><time>2026-04-19T10:18:49.001Z</time></trkpt><trkpt lat="45.13208649525563" lon="9.379171929561661"><ele>64.80000000000001</ele><time>2026-04-19T10:18:50.001Z</time></trkpt><trkpt lat="45.13198800585579" lon="9.379208020832511"><ele>65.19999999999999</ele><time>2026-04-19T10:18:51.001Z</time></trkpt><trkpt lat="45.13189814936717" lon="9.379235079317247"><ele>65.6</ele><time>2026-04-19T10:18:52.001Z</time></trkpt><trkpt lat="45.13181824819835" lon="9.379257809955869"><ele>66.0</ele><time>2026-04-19T10:18:53.001Z</time></trkpt><trkpt lat="45.13173768662027" lon="9.379254881771864"><ele>66.0</ele><time>2026-04-19T10:18:54.001Z</time></trkpt><trkpt lat="45.13166048862596" lon="9.37927281961029"><ele>66.0</ele><time>2026-04-19T10:18:55.001Z</time></trkpt><trkpt lat="45.131588329360675" lon="9.379290045274729"><ele>66.0</ele><time>2026-04-19T10:18:56.001Z</time></trkpt><trkpt lat="45.131507321310224" lon="9.379309383291657"><ele>66.0</ele><time>2026-04-19T10:18:57.001Z</time></trkpt><trkpt lat="45.131429870248766" lon="9.379322760874029"><ele>66.0</ele><time>2026-04-19T10:18:58.001Z</time></trkpt><trkpt lat="45.13134596048269" lon="9.379334992451941"><ele>66.0</ele><time>2026-04-19T10:18:59.001Z</time></trkpt><trkpt lat="45.13127232930335" lon="9.379327826869467"><ele>65.66666666666667</ele><time>2026-04-19T10:19:00.001Z</time></trkpt><trkpt lat="45.13120151412692" lon="9.379307089245097"><ele>65.33333333333333</ele><time>2026-04-19T10:19:01.001Z</time></trkpt><trkpt lat="45.1311324669939" lon="9.379293216761738"><ele>65.0</ele><time>2026-04-19T10:19:02.001Z</time></trkpt><trkpt lat="45.13106480162668" lon="9.37927962189372"><ele>64.66666666666666</ele><time>2026-04-19T10:19:03.001Z</time></trkpt><trkpt lat="45.131001357439175" lon="9.379279826852985"><ele>64.33333333333333</ele><time>2026-04-19T10:19:04.001Z</time></trkpt><trkpt lat="45.13090348351749" lon="9.379218636796535"><ele>64.0</ele><time>2026-04-19T10:19:06.001Z</time></trkpt><trkpt lat="45.130857023816" lon="9.379144472941109"><ele>64.0</ele><time>2026-04-19T10:19:08.001Z</time></trkpt></trkseg><trkseg><trkpt lat="45.130897474692695" lon="9.379203106331325"><ele>63.99999999999999</ele><time>2026-04-19T11:36:15.998Z</time></trkpt><trkpt lat="45.1309616682738" lon="9.379294821378185"><ele>64.0</ele><time>2026-04-19T11:36:18.998Z</time></trkpt><trkpt lat="45.13105580626339" lon="9.37935195250346"><ele>64.0</ele><time>2026-04-19T11:36:21.998Z</time></trkpt><trkpt lat="45.1311328039436" lon="9.379338135317756"><ele>64.0</ele><time>2026-04-19T11:36:24.998Z</time></trkpt><trkpt lat="45.131199085351035" lon="9.379327917522135"><ele>63.99999999999999</ele><time>2026-04-19T11:36:26.998Z</time></trkpt><trkpt lat="45.1312728032623" lon="9.379351468781856"><ele>64.0</ele><time>2026-04-19T11:36:28.998Z</time></trkpt><trkpt lat="45.13134083849715" lon="9.379367895926618"><ele>63.99999999999999</ele><time>2026-04-19T11:36:30.998Z</time></trkpt><trkpt lat="45.131415894324554" lon="9.37936055292877"><ele>64.0</ele><time>2026-04-19T11:36:32.999Z</time></trkpt><trkpt lat="45.131482790417266" lon="9.379339500587855"><ele>64.0</ele><time>2026-04-19T11:36:34.999Z</time></trkpt><trkpt lat="45.131550672366586" lon="9.379320776204883"><ele>64.0</ele><time>2026-04-19T11:36:36.999Z</time></trkpt><trkpt lat="45.13162303029892" lon="9.379308601889681"><ele>63.99999999999999</ele><time>2026-04-19T11:36:38.999Z</time></trkpt><trkpt lat="45.131696031114046" lon="9.379292585989196"><ele>64.0</ele><time>2026-04-19T11:36:40.999Z</time></trkpt><trkpt lat="45.13179475938763" lon="9.379276117962101"><ele>64.33333333333333</ele><time>2026-04-19T11:36:42.999Z</time></trkpt><trkpt lat="45.13187781214663" lon="9.37923780347834"><ele>64.66666666666666</ele><time>2026-04-19T11:36:44.999Z</time></trkpt><trkpt lat="45.131970962165106" lon="9.379221138517712"><ele>65.0</ele><time>2026-04-19T11:36:46.999Z</time></trkpt><trkpt lat="45.13207382196664" lon="9.379192900958639"><ele>65.33333333333333</ele><time>2026-04-19T11:36:48.999Z</time></trkpt><trkpt lat="45.132144941184954" lon="9.379175748484124"><ele>65.66666666666667</ele><time>2026-04-19T11:36:50.999Z</time></trkpt><trkpt lat="45.13221096868553" lon="9.379148464985342"><ele>66.0</ele><time>2026-04-19T11:36:52.999Z</time></trkpt><trkpt lat="45.13228497025856" lon="9.379142397381793"><ele>66.0</ele><time>2026-04-19T11:36:54.999Z</time></trkpt><trkpt lat="45.13236992105725" lon="9.379108419397252"><ele>66.0</ele><time>2026-04-19T11:36:56.999Z</time></trkpt><trkpt lat="45.13244103069717" lon="9.379078291777141"><ele>66.0</ele><time>2026-04-19T11:36:58.999Z</time></trkpt><trkpt lat="45.132532329221135" lon="9.379056336992596"><ele>66.0</ele><time>2026-04-19T11:37:00.999Z</time></trkpt><trkpt lat="45.13262170822181" lon="9.379045862777906"><ele>66.0</ele><time>2026-04-19T11:37:02.999Z</time></trkpt><trkpt lat="45.13271314033521" lon="9.379042901612124"><ele>66.0</ele><time>2026-04-19T11:37:05.999Z</time></trkpt><trkpt lat="45.13278125938164" lon="9.379027821859086"><ele>65.85714285714286</ele><time>2026-04-19T11:37:22.999Z</time></trkpt><trkpt lat="45.13284580240972" lon="9.379006632818987"><ele>65.71428571428572</ele><time>2026-04-19T11:37:23.999Z</time></trkpt><trkpt lat="45.132920440279754" lon="9.378990990172976"><ele>65.57142857142858</ele><time>2026-04-19T11:37:24.999Z</time></trkpt><trkpt lat="45.13299764510846" lon="9.378978457545037"><ele>65.42857142857143</ele><time>2026-04-19T11:37:25.999Z</time></trkpt><trkpt lat="45.13306371999172" lon="9.378963433999248"><ele>65.28571428571429</ele><time>2026-04-19T11:37:26.999Z</time></trkpt><trkpt lat="45.1331337102206" lon="9.378943601434205"><ele>65.14285714285715</ele><time>2026-04-19T11:37:27.999Z</time></trkpt><trkpt lat="45.133198464674464" lon="9.3789548008978"><ele>65.0</ele><time>2026-04-19T11:37:28.999Z</time></trkpt><trkpt lat="45.133295664388775" lon="9.378945080950531"><ele>65.2</ele><time>2026-04-19T11:37:30.999Z</time></trkpt><trkpt lat="45.133290222731354" lon="9.378703226707858"><ele>65.4</ele><time>2026-04-19T11:37:31.999Z</time></trkpt><trkpt lat="45.13328873610909" lon="9.378583626097395"><ele>65.6</ele><time>2026-04-19T11:37:32.999Z</time></trkpt><trkpt lat="45.13331634930264" lon="9.378460911605798"><ele>65.8</ele><time>2026-04-19T11:37:33.999Z</time></trkpt><trkpt lat="45.13334218895441" lon="9.378322287899305"><ele>66.0</ele><time>2026-04-19T11:37:34.999Z</time></trkpt><trkpt lat="45.133367731294015" lon="9.378185259195837"><ele>66.0</ele><time>2026-04-19T11:37:35.999Z</time></trkpt><trkpt lat="45.13338280560614" lon="9.378025209698498"><ele>66.0</ele><time>2026-04-19T11:37:36.999Z</time></trkpt><trkpt lat="45.133418915663555" lon="9.377863606339895"><ele>66.0</ele><time>2026-04-19T11:37:37.999Z</time></trkpt><trkpt lat="45.13345421799112" lon="9.377697381763971"><ele>66.0</ele><time>2026-04-19T11:37:38.999Z</time></trkpt><trkpt lat="45.13348247867617" lon="9.377534159325316"><ele>66.0</ele><time>2026-04-19T11:37:39.999Z</time></trkpt><trkpt lat="45.13351745747869" lon="9.377380517513911"><ele>66.0</ele><time>2026-04-19T11:37:40.999Z</time></trkpt><trkpt lat="45.13355057208698" lon="9.37723803703598"><ele>66.0</ele><time>2026-04-19T11:37:41.999Z</time></trkpt><trkpt lat="45.13361141193244" lon="9.377131572383739"><ele>66.0</ele><time>2026-04-19T11:37:42.999Z</time></trkpt><trkpt lat="45.133620946692744" lon="9.376983478850425"><ele>66.0</ele><time>2026-04-19T11:37:43.999Z</time></trkpt><trkpt lat="45.13364636638195" lon="9.376860196644834"><ele>65.5</ele><time>2026-04-19T11:37:44.999Z</time></trkpt><trkpt lat="45.13367127819569" lon="9.376730708726262"><ele>65.0</ele><time>2026-04-19T11:37:45.999Z</time></trkpt><trkpt lat="45.133698496476406" lon="9.376606491003448"><ele>64.5</ele><time>2026-04-19T11:37:46.999Z</time></trkpt><trkpt lat="45.133712725453144" lon="9.376474220149696"><ele>64.0</ele><time>2026-04-19T11:37:47.999Z</time></trkpt><trkpt lat="45.13373400820463" lon="9.376358755716112"><ele>63.5</ele><time>2026-04-19T11:37:48.999Z</time></trkpt><trkpt lat="45.13375134624575" lon="9.376241712434869"><ele>63.0</ele><time>2026-04-19T11:37:49.999Z</time></trkpt><trkpt lat="45.13376798918249" lon="9.376128477281904"><ele>61.8</ele><time>2026-04-19T11:37:50.999Z</time></trkpt><trkpt lat="45.13379345871086" lon="9.376020029398614"><ele>60.599999999999994</ele><time>2026-04-19T11:37:51.999Z</time></trkpt><trkpt lat="45.13380415990384" lon="9.375931987304963"><ele>59.400000000000006</ele><time>2026-04-19T11:37:52.999Z</time></trkpt><trkpt lat="45.13381452714822" lon="9.375789950561712"><ele>58.2</ele><time>2026-04-19T11:37:54.999Z</time></trkpt><trkpt lat="45.13385009811237" lon="9.375695546329064"><ele>57.0</ele><time>2026-04-19T11:37:56.999Z</time></trkpt><trkpt lat="45.13397994201507" lon="9.375704834874746"><ele>57.0</ele><time>2026-04-19T11:37:58.999Z</time></trkpt><trkpt lat="45.13407872713628" lon="9.375728798126614"><ele>57.0</ele><time>2026-04-19T11:37:59.999Z</time></trkpt><trkpt lat="45.13419374777939" lon="9.375742517003312"><ele>57.0</ele><time>2026-04-19T11:38:00.999Z</time></trkpt><trkpt lat="45.134324485293014" lon="9.375745979173734"><ele>57.0</ele><time>2026-04-19T11:38:01.999Z</time></trkpt><trkpt lat="45.134447503042985" lon="9.375742521715553"><ele>57.0</ele><time>2026-04-19T11:38:02.999Z</time></trkpt><trkpt lat="45.13459120395332" lon="9.375735395117282"><ele>57.0</ele><time>2026-04-19T11:38:03.999Z</time></trkpt><trkpt lat="45.134728971536155" lon="9.375727245203477"><ele>57.0</ele><time>2026-04-19T11:38:04.999Z</time></trkpt><trkpt lat="45.134872882611575" lon="9.37567999372496"><ele>57.0</ele><time>2026-04-19T11:38:05.999Z</time></trkpt><trkpt lat="45.13501261954789" lon="9.375614965150065"><ele>57.0</ele><time>2026-04-19T11:38:06.999Z</time></trkpt><trkpt lat="45.13515486863213" lon="9.37555167445245"><ele>57.0</ele><time>2026-04-19T11:38:07.999Z</time></trkpt><trkpt lat="45.13529359594369" lon="9.375494447540584"><ele>57.0</ele><time>2026-04-19T11:38:08.999Z</time></trkpt><trkpt lat="45.135430720018405" lon="9.375438423572334"><ele>57.0</ele><time>2026-04-19T11:38:09.999Z</time></trkpt><trkpt lat="45.13555934199293" lon="9.375389211519652"><ele>57.0</ele><time>2026-04-19T11:38:10.999Z</time></trkpt><trkpt lat="45.13568620444567" lon="9.375344127579133"><ele>57.0</ele><time>2026-04-19T11:38:11.999Z</time></trkpt><trkpt lat="45.13580500561914" lon="9.375303703861864"><ele>57.0</ele><time>2026-04-19T11:38:12.999Z</time></trkpt><trkpt lat="45.13592394174999" lon="9.375257881993148"><ele>57.0</ele><time>2026-04-19T11:38:13.999Z</time></trkpt><trkpt lat="45.136034220478486" lon="9.37521250764016"><ele>57.0</ele><time>2026-04-19T11:38:14.999Z</time></trkpt><trkpt lat="45.136135212582694" lon="9.375179184945415"><ele>57.0</ele><time>2026-04-19T11:38:15.999Z</time></trkpt><trkpt lat="45.136237375879496" lon="9.375143992329104"><ele>57.0</ele><time>2026-04-19T11:38:16.999Z</time></trkpt><trkpt lat="45.13634151636417" lon="9.375100732668749"><ele>57.0</ele><time>2026-04-19T11:38:17.999Z</time></trkpt><trkpt lat="45.13645023593757" lon="9.375046772007428"><ele>57.0</ele><time>2026-04-19T11:38:18.999Z</time></trkpt><trkpt lat="45.13654922828981" lon="9.374998154420839"><ele>57.0</ele><time>2026-04-19T11:38:19.999Z</time></trkpt><trkpt lat="45.13665060551442" lon="9.374951804859913"><ele>57.0</ele><time>2026-04-19T11:38:20.999Z</time></trkpt><trkpt lat="45.13673876208403" lon="9.374901056666028"><ele>57.0</ele><time>2026-04-19T11:38:21.999Z</time></trkpt><trkpt lat="45.136821160819764" lon="9.374845989399246"><ele>57.0</ele><time>2026-04-19T11:38:22.997Z</time></trkpt><trkpt lat="45.136898016272674" lon="9.374791169997618"><ele>57.0</ele><time>2026-04-19T11:38:23.997Z</time></trkpt><trkpt lat="45.13698482205869" lon="9.374726364286284"><ele>56.6</ele><time>2026-04-19T11:38:24.997Z</time></trkpt><trkpt lat="45.137079746278346" lon="9.374661426059836"><ele>56.2</ele><time>2026-04-19T11:38:25.997Z</time></trkpt><trkpt lat="45.13717714502517" lon="9.374604416030563"><ele>55.8</ele><time>2026-04-19T11:38:26.997Z</time></trkpt><trkpt lat="45.13728250968024" lon="9.374563882608141"><ele>55.4</ele><time>2026-04-19T11:38:27.997Z</time></trkpt><trkpt lat="45.13738140665678" lon="9.374556754784635"><ele>55.0</ele><time>2026-04-19T11:38:28.997Z</time></trkpt><trkpt lat="45.13749518006223" lon="9.374571707228887"><ele>54.75</ele><time>2026-04-19T11:38:29.997Z</time></trkpt><trkpt lat="45.13761599951871" lon="9.374569194898248"><ele>54.5</ele><time>2026-04-19T11:38:30.997Z</time></trkpt><trkpt lat="45.137732287733336" lon="9.374545812564707"><ele>54.25</ele><time>2026-04-19T11:38:31.997Z</time></trkpt><trkpt lat="45.137854714255795" lon="9.374499670255748"><ele>54.0</ele><time>2026-04-19T11:38:32.997Z</time></trkpt><trkpt lat="45.137974743906106" lon="9.374418185950184"><ele>54.0</ele><time>2026-04-19T11:38:33.997Z</time></trkpt><trkpt lat="45.138084123870804" lon="9.374312272623017"><ele>54.0</ele><time>2026-04-19T11:38:34.997Z</time></trkpt><trkpt lat="45.13819010757354" lon="9.374176648734103"><ele>54.0</ele><time>2026-04-19T11:38:35.998Z</time></trkpt><trkpt lat="45.138288204145866" lon="9.374026005096352"><ele>54.0</ele><time>2026-04-19T11:38:36.998Z</time></trkpt><trkpt lat="45.13839017620433" lon="9.373867411100951"><ele>54.66666666666667</ele><time>2026-04-19T11:38:37.998Z</time></trkpt><trkpt lat="45.13850163899944" lon="9.373718313405588"><ele>55.333333333333336</ele><time>2026-04-19T11:38:38.998Z</time></trkpt><trkpt lat="45.13862536201973" lon="9.373559437093837"><ele>56.0</ele><time>2026-04-19T11:38:39.998Z</time></trkpt><trkpt lat="45.13874806189057" lon="9.373406240347615"><ele>56.0</ele><time>2026-04-19T11:38:40.998Z</time></trkpt><trkpt lat="45.13886077532208" lon="9.37325856675548"><ele>56.0</ele><time>2026-04-19T11:38:41.998Z</time></trkpt><trkpt lat="45.13896578794235" lon="9.373122841016887"><ele>56.0</ele><time>2026-04-19T11:38:42.998Z</time></trkpt><trkpt lat="45.13907218829486" lon="9.37297757743471"><ele>56.0</ele><time>2026-04-19T11:38:43.998Z</time></trkpt><trkpt lat="45.13917733182177" lon="9.372832159616456"><ele>56.25</ele><time>2026-04-19T11:38:44.998Z</time></trkpt><trkpt lat="45.13927952504675" lon="9.372678370238365"><ele>56.5</ele><time>2026-04-19T11:38:45.998Z</time></trkpt><trkpt lat="45.13936758503294" lon="9.372522254848214"><ele>56.75</ele><time>2026-04-19T11:38:46.998Z</time></trkpt><trkpt lat="45.13943726538646" lon="9.372383134837055"><ele>57.0</ele><time>2026-04-19T11:38:47.998Z</time></trkpt><trkpt lat="45.13950566874748" lon="9.372218598740451"><ele>57.0</ele><time>2026-04-19T11:38:48.998Z</time></trkpt><trkpt lat="45.139561192731406" lon="9.372070294008015"><ele>57.0</ele><time>2026-04-19T11:38:49.998Z</time></trkpt><trkpt lat="45.139595365739325" lon="9.37191671896182"><ele>57.0</ele><time>2026-04-19T11:38:50.999Z</time></trkpt><trkpt lat="45.13961886192411" lon="9.371763261449312"><ele>57.0</ele><time>2026-04-19T11:38:51.999Z</time></trkpt><trkpt lat="45.1396459419575" lon="9.371612665417395"><ele>57.0</ele><time>2026-04-19T11:38:52.999Z</time></trkpt><trkpt lat="45.13967932034915" lon="9.371481942568122"><ele>57.0</ele><time>2026-04-19T11:38:53.999Z</time></trkpt><trkpt lat="45.139737344352135" lon="9.371350516429397"><ele>57.0</ele><time>2026-04-19T11:38:54.999Z</time></trkpt><trkpt lat="45.139811774542885" lon="9.371241449281012"><ele>57.0</ele><time>2026-04-19T11:38:55.999Z</time></trkpt><trkpt lat="45.13989832236243" lon="9.371134592981607"><ele>57.0</ele><time>2026-04-19T11:38:56.999Z</time></trkpt><trkpt lat="45.139963363928686" lon="9.371009524367848"><ele>57.2</ele><time>2026-04-19T11:38:57.999Z</time></trkpt><trkpt lat="45.140021373672305" lon="9.370879657473298"><ele>57.400000000000006</ele><time>2026-04-19T11:38:58.999Z</time></trkpt><trkpt lat="45.14005465483386" lon="9.37075128358432"><ele>57.599999999999994</ele><time>2026-04-19T11:38:59.999Z</time></trkpt><trkpt lat="45.14006598944033" lon="9.370603969862197"><ele>57.8</ele><time>2026-04-19T11:39:00.999Z</time></trkpt><trkpt lat="45.14007761374524" lon="9.370449544034315"><ele>58.0</ele><time>2026-04-19T11:39:01.999Z</time></trkpt><trkpt lat="45.140090747050934" lon="9.370289218027729"><ele>58.0</ele><time>2026-04-19T11:39:02.999Z</time></trkpt><trkpt lat="45.14010551218459" lon="9.370135200264206"><ele>58.0</ele><time>2026-04-19T11:39:03.999Z</time></trkpt><trkpt lat="45.140125510257484" lon="9.369989051086263"><ele>58.0</ele><time>2026-04-19T11:39:04.999Z</time></trkpt><trkpt lat="45.14018033511097" lon="9.369865381359366"><ele>58.0</ele><time>2026-04-19T11:39:05.999Z</time></trkpt><trkpt lat="45.14021597691666" lon="9.369735381742341"><ele>58.0</ele><time>2026-04-19T11:39:06.999Z</time></trkpt><trkpt lat="45.14023786497045" lon="9.369627035923894"><ele>57.71428571428572</ele><time>2026-04-19T11:39:07.999Z</time></trkpt><trkpt lat="45.14027427780835" lon="9.369529642088283"><ele>57.42857142857143</ele><time>2026-04-19T11:39:08.999Z</time></trkpt><trkpt lat="45.14025844548662" lon="9.369441059851614"><ele>57.142857142857146</ele><time>2026-04-19T11:39:09.999Z</time></trkpt><trkpt lat="45.14021240006007" lon="9.36933027890368"><ele>56.85714285714286</ele><time>2026-04-19T11:39:11.999Z</time></trkpt><trkpt lat="45.140186852526455" lon="9.369224058649204"><ele>56.57142857142857</ele><time>2026-04-19T11:39:13.999Z</time></trkpt><trkpt lat="45.1401724811075" lon="9.369124795371803"><ele>56.285714285714285</ele><time>2026-04-19T11:39:15.999Z</time></trkpt><trkpt lat="45.14021476762571" lon="9.369053220921296"><ele>56.0</ele><time>2026-04-19T11:39:16.999Z</time></trkpt><trkpt lat="45.140235385883" lon="9.368897136159276"><ele>56.00000000000001</ele><time>2026-04-19T11:39:18.999Z</time></trkpt><trkpt lat="45.14024936433235" lon="9.368793067783278"><ele>56.0</ele><time>2026-04-19T11:39:20.999Z</time></trkpt><trkpt lat="45.140255589633455" lon="9.368650818129327"><ele>56.0</ele><time>2026-04-19T11:39:22.999Z</time></trkpt><trkpt lat="45.140266467243165" lon="9.368558866206799"><ele>56.0</ele><time>2026-04-19T11:39:23.999Z</time></trkpt><trkpt lat="45.14028922149624" lon="9.368386906543977"><ele>56.00000000000001</ele><time>2026-04-19T11:39:25.999Z</time></trkpt><trkpt lat="45.14030041543127" lon="9.368282482063233"><ele>56.0</ele><time>2026-04-19T11:39:26.999Z</time></trkpt><trkpt lat="45.14031792923898" lon="9.368147228563775"><ele>56.599999999999994</ele><time>2026-04-19T11:39:27.999Z</time></trkpt><trkpt lat="45.14033641608181" lon="9.368018156434324"><ele>57.199999999999996</ele><time>2026-04-19T11:39:28.999Z</time></trkpt><trkpt lat="45.14036671602167" lon="9.367900901889465"><ele>57.800000000000004</ele><time>2026-04-19T11:39:29.999Z</time></trkpt><trkpt lat="45.14039155662299" lon="9.367764614426063"><ele>58.400000000000006</ele><time>2026-04-19T11:39:30.999Z</time></trkpt><trkpt lat="45.14040490384866" lon="9.367631405343282"><ele>59.0</ele><time>2026-04-19T11:39:31.999Z</time></trkpt><trkpt lat="45.140434079170554" lon="9.367493170846133"><ele>59.0</ele><time>2026-04-19T11:39:32.999Z</time></trkpt><trkpt lat="45.140457804990966" lon="9.367359027214093"><ele>59.00000000000001</ele><time>2026-04-19T11:39:33.999Z</time></trkpt><trkpt lat="45.140472180048285" lon="9.367223340911305"><ele>59.00000000000001</ele><time>2026-04-19T11:39:34.999Z</time></trkpt><trkpt lat="45.1404772536383" lon="9.367081462491228"><ele>59.0</ele><time>2026-04-19T11:39:35.999Z</time></trkpt><trkpt lat="45.14047523246574" lon="9.366946178993299"><ele>59.0</ele><time>2026-04-19T11:39:36.999Z</time></trkpt><trkpt lat="45.14046991251987" lon="9.366813557985147"><ele>59.2</ele><time>2026-04-19T11:39:37.999Z</time></trkpt><trkpt lat="45.14047796311125" lon="9.366673777996425"><ele>59.400000000000006</ele><time>2026-04-19T11:39:38.999Z</time></trkpt><trkpt lat="45.14049343056898" lon="9.366537841965366"><ele>59.6</ele><time>2026-04-19T11:39:39.999Z</time></trkpt><trkpt lat="45.14050613473775" lon="9.366393928246808"><ele>59.8</ele><time>2026-04-19T11:39:40.999Z</time></trkpt><trkpt lat="45.14051282687503" lon="9.366242613486973"><ele>60.0</ele><time>2026-04-19T11:39:41.999Z</time></trkpt><trkpt lat="45.14052168995581" lon="9.366099800037393"><ele>60.833333333333336</ele><time>2026-04-19T11:39:42.999Z</time></trkpt><trkpt lat="45.140530337338824" lon="9.365962588413025"><ele>61.66666666666667</ele><time>2026-04-19T11:39:43.999Z</time></trkpt><trkpt lat="45.14053592788111" lon="9.365825670179579"><ele>62.5</ele><time>2026-04-19T11:39:44.999Z</time></trkpt><trkpt lat="45.14053921170345" lon="9.365711910182268"><ele>63.333333333333336</ele><time>2026-04-19T11:39:45.999Z</time></trkpt><trkpt lat="45.140542527727206" lon="9.365600611322353"><ele>64.16666666666667</ele><time>2026-04-19T11:39:46.999Z</time></trkpt><trkpt lat="45.140550587521965" lon="9.365484622916716"><ele>65.0</ele><time>2026-04-19T11:39:47.999Z</time></trkpt><trkpt lat="45.140576846567676" lon="9.365365665355403"><ele>65.5</ele><time>2026-04-19T11:39:48.999Z</time></trkpt><trkpt lat="45.140611549994496" lon="9.365265701434206"><ele>66.0</ele><time>2026-04-19T11:39:49.999Z</time></trkpt><trkpt lat="45.14064404605753" lon="9.36517827378777"><ele>66.5</ele><time>2026-04-19T11:39:50.999Z</time></trkpt><trkpt lat="45.140659754966414" lon="9.365072718643422"><ele>67.0</ele><time>2026-04-19T11:39:51.999Z</time></trkpt><trkpt lat="45.140655415656596" lon="9.364941317562817"><ele>67.5</ele><time>2026-04-19T11:39:52.999Z</time></trkpt><trkpt lat="45.1406558655335" lon="9.364793302018137"><ele>68.0</ele><time>2026-04-19T11:39:53.999Z</time></trkpt><trkpt lat="45.14066457349238" lon="9.364658397130025"><ele>68.2</ele><time>2026-04-19T11:39:54.999Z</time></trkpt><trkpt lat="45.14067084109702" lon="9.364511073287144"><ele>68.4</ele><time>2026-04-19T11:39:55.999Z</time></trkpt><trkpt lat="45.14066671623165" lon="9.364376540461645"><ele>68.60000000000001</ele><time>2026-04-19T11:39:56.999Z</time></trkpt><trkpt lat="45.14065136861892" lon="9.364252190549792"><ele>68.8</ele><time>2026-04-19T11:39:58Z</time></trkpt><trkpt lat="45.1406291358175" lon="9.364149555124287"><ele>69.0</ele><time>2026-04-19T11:39:59Z</time></trkpt><trkpt lat="45.14054808536847" lon="9.3640522264636"><ele>69.0</ele><time>2026-04-19T11:40:01Z</time></trkpt><trkpt lat="45.14048279518023" lon="9.364029857519053"><ele>69.0</ele><time>2026-04-19T11:40:02Z</time></trkpt><trkpt lat="45.14038856418932" lon="9.364025816410907"><ele>69.0</ele><time>2026-04-19T11:40:03Z</time></trkpt><trkpt lat="45.140299486401204" lon="9.364023486840194"><ele>69.0</ele><time>2026-04-19T11:40:04Z</time></trkpt><trkpt lat="45.14021905472651" lon="9.364028340489147"><ele>69.0</ele><time>2026-04-19T11:40:05Z</time></trkpt><trkpt lat="45.14012235196117" lon="9.36402341330381"><ele>69.0</ele><time>2026-04-19T11:40:06Z</time></trkpt><trkpt lat="45.14002080625106" lon="9.364009757832447"><ele>69.0</ele><time>2026-04-19T11:40:07Z</time></trkpt><trkpt lat="45.13992468050815" lon="9.363978253200273"><ele>69.0</ele><time>2026-04-19T11:40:08Z</time></trkpt><trkpt lat="45.13982275608021" lon="9.363970641590065"><ele>69.0</ele><time>2026-04-19T11:40:09Z</time></trkpt><trkpt lat="45.13970888769053" lon="9.363950301566664"><ele>69.0</ele><time>2026-04-19T11:40:10Z</time></trkpt><trkpt lat="45.13959092589784" lon="9.36395012491168"><ele>69.0</ele><time>2026-04-19T11:40:11Z</time></trkpt><trkpt lat="45.13947437197417" lon="9.363954605019716"><ele>68.75</ele><time>2026-04-19T11:40:12Z</time></trkpt><trkpt lat="45.13935342942122" lon="9.363960738669572"><ele>68.5</ele><time>2026-04-19T11:40:13Z</time></trkpt><trkpt lat="45.13923742884271" lon="9.363962493922706"><ele>68.25</ele><time>2026-04-19T11:40:14Z</time></trkpt><trkpt lat="45.139108497717395" lon="9.363957654945349"><ele>68.0</ele><time>2026-04-19T11:40:15Z</time></trkpt><trkpt lat="45.13898839182661" lon="9.363946328743044"><ele>68.0</ele><time>2026-04-19T11:40:16Z</time></trkpt><trkpt lat="45.13888019772689" lon="9.363923749855603"><ele>68.0</ele><time>2026-04-19T11:40:17Z</time></trkpt><trkpt lat="45.13876151611687" lon="9.363902565212115"><ele>68.0</ele><time>2026-04-19T11:40:18Z</time></trkpt><trkpt lat="45.13863143189861" lon="9.363879233811867"><ele>68.0</ele><time>2026-04-19T11:40:19Z</time></trkpt><trkpt lat="45.13851418655594" lon="9.363859743602093"><ele>68.2</ele><time>2026-04-19T11:40:20Z</time></trkpt><trkpt lat="45.13839976446433" lon="9.363842863401782"><ele>68.4</ele><time>2026-04-19T11:40:21Z</time></trkpt><trkpt lat="45.13828889071281" lon="9.363826745658866"><ele>68.60000000000001</ele><time>2026-04-19T11:40:22Z</time></trkpt><trkpt lat="45.13819481581379" lon="9.363815905068929"><ele>68.8</ele><time>2026-04-19T11:40:23Z</time></trkpt><trkpt lat="45.13810606489027" lon="9.36380339053054"><ele>69.0</ele><time>2026-04-19T11:40:24Z</time></trkpt><trkpt lat="45.13802095200685" lon="9.363790158465092"><ele>69.0</ele><time>2026-04-19T11:40:25Z</time></trkpt><trkpt lat="45.13792557242508" lon="9.363767659926483"><ele>69.0</ele><time>2026-04-19T11:40:26Z</time></trkpt><trkpt lat="45.1378486888086" lon="9.363756715889147"><ele>69.0</ele><time>2026-04-19T11:40:27Z</time></trkpt><trkpt lat="45.137773209989966" lon="9.363745905831847"><ele>69.0</ele><time>2026-04-19T11:40:28Z</time></trkpt><trkpt lat="45.1377085779463" lon="9.363735961154275"><ele>69.0</ele><time>2026-04-19T11:40:28.998Z</time></trkpt><trkpt lat="45.137607562002394" lon="9.363725099479295"><ele>69.0</ele><time>2026-04-19T11:40:30.998Z</time></trkpt><trkpt lat="45.1375191051473" lon="9.363668786407763"><ele>69.0</ele><time>2026-04-19T11:40:32.998Z</time></trkpt><trkpt lat="45.13748123023458" lon="9.363552122431075"><ele>69.0</ele><time>2026-04-19T11:40:34.998Z</time></trkpt><trkpt lat="45.13749315722007" lon="9.363440264532555"><ele>69.0</ele><time>2026-04-19T11:40:36.998Z</time></trkpt><trkpt lat="45.13756614349927" lon="9.363279301424614"><ele>69.0</ele><time>2026-04-19T11:40:38.998Z</time></trkpt><trkpt lat="45.13760754443319" lon="9.363175905916686"><ele>69.0</ele><time>2026-04-19T11:40:39.999Z</time></trkpt><trkpt lat="45.13764740116783" lon="9.363075321340846"><ele>68.83333333333333</ele><time>2026-04-19T11:40:40.999Z</time></trkpt><trkpt lat="45.137673361663765" lon="9.36298841795741"><ele>68.66666666666667</ele><time>2026-04-19T11:40:41.999Z</time></trkpt><trkpt lat="45.13772016975522" lon="9.362849536560473"><ele>68.5</ele><time>2026-04-19T11:40:43.999Z</time></trkpt><trkpt lat="45.13782710396244" lon="9.362768663686486"><ele>68.33333333333334</ele><time>2026-04-19T11:40:45.999Z</time></trkpt><trkpt lat="45.13789112789138" lon="9.362762778861846"><ele>68.16666666666667</ele><time>2026-04-19T11:40:46.999Z</time></trkpt><trkpt lat="45.137966225034916" lon="9.3627693679407"><ele>68.0</ele><time>2026-04-19T11:40:47.999Z</time></trkpt><trkpt lat="45.13806322594751" lon="9.362784629970614"><ele>68.0</ele><time>2026-04-19T11:40:48.999Z</time></trkpt><trkpt lat="45.13814396315563" lon="9.362809490565013"><ele>68.0</ele><time>2026-04-19T11:40:49.999Z</time></trkpt><trkpt lat="45.13824512881654" lon="9.362817067835913"><ele>68.0</ele><time>2026-04-19T11:40:50.999Z</time></trkpt><trkpt lat="45.13833234381504" lon="9.362824283737783"><ele>68.0</ele><time>2026-04-19T11:40:51.999Z</time></trkpt><trkpt lat="45.138411896307275" lon="9.362813472001282"><ele>68.0</ele><time>2026-04-19T11:40:52.999Z</time></trkpt><trkpt lat="45.13850296133262" lon="9.36278643733769"><ele>68.0</ele><time>2026-04-19T11:40:53.999Z</time></trkpt><trkpt lat="45.1385837513281" lon="9.362734222280286"><ele>68.2</ele><time>2026-04-19T11:40:54.999Z</time></trkpt><trkpt lat="45.13864937030053" lon="9.362643362871838"><ele>68.4</ele><time>2026-04-19T11:40:55.999Z</time></trkpt><trkpt lat="45.13870579461156" lon="9.36252416185144"><ele>68.60000000000001</ele><time>2026-04-19T11:40:56.999Z</time></trkpt><trkpt lat="45.138749341085" lon="9.362373268148833"><ele>68.8</ele><time>2026-04-19T11:40:57.999Z</time></trkpt><trkpt lat="45.13878973063706" lon="9.362207136502898"><ele>69.0</ele><time>2026-04-19T11:40:58.999Z</time></trkpt><trkpt lat="45.1388218808901" lon="9.362035102766427"><ele>68.5</ele><time>2026-04-19T11:40:59.999Z</time></trkpt><trkpt lat="45.13885174498611" lon="9.36185284712472"><ele>68.0</ele><time>2026-04-19T11:41:00.999Z</time></trkpt><trkpt lat="45.13888305853748" lon="9.361670199478748"><ele>67.5</ele><time>2026-04-19T11:41:01.999Z</time></trkpt><trkpt lat="45.138917224403514" lon="9.361493700347008"><ele>67.0</ele><time>2026-04-19T11:41:02.999Z</time></trkpt><trkpt lat="45.138950762433744" lon="9.361328726587383"><ele>67.0</ele><time>2026-04-19T11:41:03.999Z</time></trkpt><trkpt lat="45.13898231886944" lon="9.361180186675611"><ele>67.0</ele><time>2026-04-19T11:41:04.999Z</time></trkpt><trkpt lat="45.13900529720368" lon="9.361041681559142"><ele>67.0</ele><time>2026-04-19T11:41:05.999Z</time></trkpt><trkpt lat="45.13903003794442" lon="9.360913372759113"><ele>67.0</ele><time>2026-04-19T11:41:06.999Z</time></trkpt><trkpt lat="45.139053769432365" lon="9.360800919395555"><ele>67.0</ele><time>2026-04-19T11:41:07.999Z</time></trkpt><trkpt lat="45.139083474412644" lon="9.360705345612114"><ele>67.14285714285714</ele><time>2026-04-19T11:41:09Z</time></trkpt><trkpt lat="45.139122356376326" lon="9.3606239859933"><ele>67.28571428571428</ele><time>2026-04-19T11:41:10Z</time></trkpt><trkpt lat="45.13917852498736" lon="9.360566006265678"><ele>67.42857142857142</ele><time>2026-04-19T11:41:11Z</time></trkpt><trkpt lat="45.139248288068195" lon="9.360546878763012"><ele>67.57142857142857</ele><time>2026-04-19T11:41:12Z</time></trkpt><trkpt lat="45.13931431294373" lon="9.360550380382952"><ele>67.71428571428571</ele><time>2026-04-19T11:41:13Z</time></trkpt><trkpt lat="45.13938794889193" lon="9.360570114190889"><ele>67.85714285714285</ele><time>2026-04-19T11:41:14Z</time></trkpt><trkpt lat="45.13947060633537" lon="9.360616280448717"><ele>68.0</ele><time>2026-04-19T11:41:15Z</time></trkpt><trkpt lat="45.13957087649465" lon="9.360667138950014"><ele>68.0</ele><time>2026-04-19T11:41:16Z</time></trkpt><trkpt lat="45.139685359672605" lon="9.360715757159271"><ele>68.0</ele><time>2026-04-19T11:41:17Z</time></trkpt><trkpt lat="45.13980187124723" lon="9.360762278755677"><ele>68.0</ele><time>2026-04-19T11:41:18Z</time></trkpt><trkpt lat="45.139915944439004" lon="9.360826989371427"><ele>68.0</ele><time>2026-04-19T11:41:19Z</time></trkpt><trkpt lat="45.140036344734064" lon="9.360901192920318"><ele>67.75</ele><time>2026-04-19T11:41:20Z</time></trkpt><trkpt lat="45.14015636311533" lon="9.36096934488654"><ele>67.5</ele><time>2026-04-19T11:41:21Z</time></trkpt><trkpt lat="45.14027686153139" lon="9.361010805057942"><ele>67.25</ele><time>2026-04-19T11:41:22Z</time></trkpt><trkpt lat="45.14038580023463" lon="9.361043398084751"><ele>67.0</ele><time>2026-04-19T11:41:23Z</time></trkpt><trkpt lat="45.14050814417994" lon="9.361075958080207"><ele>67.0</ele><time>2026-04-19T11:41:24Z</time></trkpt><trkpt lat="45.14057733964775" lon="9.361126730931467"><ele>67.0</ele><time>2026-04-19T11:41:25Z</time></trkpt><trkpt lat="45.14065720326546" lon="9.361162535466322"><ele>67.0</ele><time>2026-04-19T11:41:26Z</time></trkpt><trkpt lat="45.1407217267523" lon="9.361179979693343"><ele>67.0</ele><time>2026-04-19T11:41:27Z</time></trkpt><trkpt lat="45.14082153074459" lon="9.361131656650823"><ele>67.0</ele><time>2026-04-19T11:41:29Z</time></trkpt><trkpt lat="45.1408693855235" lon="9.360962108074164"><ele>67.2</ele><time>2026-04-19T11:41:31Z</time></trkpt><trkpt lat="45.140890139370214" lon="9.360839430615123"><ele>67.4</ele><time>2026-04-19T11:41:32Z</time></trkpt><trkpt lat="45.14091812365988" lon="9.360698000593068"><ele>67.6</ele><time>2026-04-19T11:41:33Z</time></trkpt><trkpt lat="45.140941682551116" lon="9.36055513486997"><ele>67.8</ele><time>2026-04-19T11:41:34Z</time></trkpt><trkpt lat="45.14097461564523" lon="9.360404453342305"><ele>68.0</ele><time>2026-04-19T11:41:35Z</time></trkpt><trkpt lat="45.14100199786598" lon="9.360262244386483"><ele>68.0</ele><time>2026-04-19T11:41:36Z</time></trkpt><trkpt lat="45.14102247789679" lon="9.360137297141767"><ele>68.0</ele><time>2026-04-19T11:41:37Z</time></trkpt><trkpt lat="45.141036869920704" lon="9.360034881870336"><ele>68.0</ele><time>2026-04-19T11:41:38Z</time></trkpt><trkpt lat="45.14107569828814" lon="9.359892716884382"><ele>68.0</ele><time>2026-04-19T11:41:40Z</time></trkpt><trkpt lat="45.14115595903381" lon="9.359832086787184"><ele>68.0</ele><time>2026-04-19T11:41:42Z</time></trkpt><trkpt lat="45.141258305116814" lon="9.359881825703596"><ele>68.0</ele><time>2026-04-19T11:41:44Z</time></trkpt><trkpt lat="45.14132302787459" lon="9.359929728464598"><ele>68.0</ele><time>2026-04-19T11:41:45Z</time></trkpt><trkpt lat="45.14140812705537" lon="9.35997133732545"><ele>68.0</ele><time>2026-04-19T11:41:46Z</time></trkpt><trkpt lat="45.14149527824923" lon="9.360005372945652"><ele>68.0</ele><time>2026-04-19T11:41:47Z</time></trkpt><trkpt lat="45.14156602697764" lon="9.360033192901412"><ele>68.0</ele><time>2026-04-19T11:41:48Z</time></trkpt><trkpt lat="45.14163405101601" lon="9.360049758543093"><ele>68.0</ele><time>2026-04-19T11:41:49Z</time></trkpt><trkpt lat="45.14171332138058" lon="9.3599749955338"><ele>68.0</ele><time>2026-04-19T11:41:51Z</time></trkpt><trkpt lat="45.141737602294434" lon="9.35983796233438"><ele>68.0</ele><time>2026-04-19T11:41:53Z</time></trkpt><trkpt lat="45.14174641016586" lon="9.359730488381407"><ele>68.0</ele><time>2026-04-19T11:41:54Z</time></trkpt><trkpt lat="45.141766301397865" lon="9.359599058145719"><ele>68.0</ele><time>2026-04-19T11:41:55Z</time></trkpt><trkpt lat="45.141790456230204" lon="9.359457543695383"><ele>68.0</ele><time>2026-04-19T11:41:56Z</time></trkpt><trkpt lat="45.141824253039175" lon="9.359300388879209"><ele>68.0</ele><time>2026-04-19T11:41:57Z</time></trkpt><trkpt lat="45.14186009007249" lon="9.359139509864395"><ele>68.0</ele><time>2026-04-19T11:41:58Z</time></trkpt><trkpt lat="45.14190180266027" lon="9.35896069843921"><ele>68.0</ele><time>2026-04-19T11:41:59Z</time></trkpt><trkpt lat="45.14194591214266" lon="9.35877481324078"><ele>68.0</ele><time>2026-04-19T11:42:00Z</time></trkpt><trkpt lat="45.141982923436814" lon="9.358597730299861"><ele>68.0</ele><time>2026-04-19T11:42:01Z</time></trkpt><trkpt lat="45.142022364181926" lon="9.358420572548646"><ele>68.0</ele><time>2026-04-19T11:42:02Z</time></trkpt><trkpt lat="45.14206151143438" lon="9.358230106408955"><ele>68.0</ele><time>2026-04-19T11:42:03Z</time></trkpt><trkpt lat="45.14210342881779" lon="9.358033317650634"><ele>68.0</ele><time>2026-04-19T11:42:04Z</time></trkpt><trkpt lat="45.1421333978241" lon="9.357833913599565"><ele>68.0</ele><time>2026-04-19T11:42:05Z</time></trkpt><trkpt lat="45.14216104064082" lon="9.357637139115202"><ele>68.0</ele><time>2026-04-19T11:42:06Z</time></trkpt><trkpt lat="45.14218487773981" lon="9.357440342856274"><ele>68.0</ele><time>2026-04-19T11:42:07Z</time></trkpt><trkpt lat="45.14221008579886" lon="9.357250342631444"><ele>68.0</ele><time>2026-04-19T11:42:08Z</time></trkpt><trkpt lat="45.14223678776304" lon="9.357070047190389"><ele>68.5</ele><time>2026-04-19T11:42:09Z</time></trkpt><trkpt lat="45.142266198086276" lon="9.356891580740065"><ele>69.0</ele><time>2026-04-19T11:42:10Z</time></trkpt><trkpt lat="45.14228718760788" lon="9.356723502360577"><ele>69.5</ele><time>2026-04-19T11:42:11Z</time></trkpt><trkpt lat="45.14230692262374" lon="9.356564668715368"><ele>70.0</ele><time>2026-04-19T11:42:12Z</time></trkpt><trkpt lat="45.14232710632746" lon="9.356395439538998"><ele>69.75</ele><time>2026-04-19T11:42:13Z</time></trkpt><trkpt lat="45.14233726084826" lon="9.356224968088634"><ele>69.5</ele><time>2026-04-19T11:42:14Z</time></trkpt><trkpt lat="45.1423344363107" lon="9.356040368374952"><ele>69.25</ele><time>2026-04-19T11:42:15Z</time></trkpt><trkpt lat="45.14232835486283" lon="9.355837611757206"><ele>69.0</ele><time>2026-04-19T11:42:16Z</time></trkpt><trkpt lat="45.14232246449222" lon="9.355626122302729"><ele>68.75</ele><time>2026-04-19T11:42:17Z</time></trkpt><trkpt lat="45.14231840454829" lon="9.355420891312678"><ele>68.5</ele><time>2026-04-19T11:42:18Z</time></trkpt><trkpt lat="45.142313352914464" lon="9.355222947449112"><ele>68.25</ele><time>2026-04-19T11:42:19Z</time></trkpt><trkpt lat="45.1423110767545" lon="9.35503046317653"><ele>68.0</ele><time>2026-04-19T11:42:20Z</time></trkpt><trkpt lat="45.142309449923516" lon="9.35484417640863"><ele>68.2</ele><time>2026-04-19T11:42:21Z</time></trkpt><trkpt lat="45.1423075632188" lon="9.354677770557329"><ele>68.4</ele><time>2026-04-19T11:42:22Z</time></trkpt><trkpt lat="45.14230532410414" lon="9.35452152440747"><ele>68.60000000000001</ele><time>2026-04-19T11:42:23Z</time></trkpt><trkpt lat="45.14230297685253" lon="9.354371410647717"><ele>68.8</ele><time>2026-04-19T11:42:24Z</time></trkpt><trkpt lat="45.14230280698075" lon="9.354222604766742"><ele>69.0</ele><time>2026-04-19T11:42:25Z</time></trkpt><trkpt lat="45.14229834009222" lon="9.354082956275986"><ele>69.0</ele><time>2026-04-19T11:42:26.001Z</time></trkpt><trkpt lat="45.142289451491955" lon="9.353942394875368"><ele>69.0</ele><time>2026-04-19T11:42:27.001Z</time></trkpt><trkpt lat="45.14225731953931" lon="9.35381513793579"><ele>69.0</ele><time>2026-04-19T11:42:28.001Z</time></trkpt><trkpt lat="45.1422066362239" lon="9.353676853891635"><ele>69.0</ele><time>2026-04-19T11:42:29.001Z</time></trkpt><trkpt lat="45.142144177479324" lon="9.353531957132486"><ele>69.0</ele><time>2026-04-19T11:42:30.001Z</time></trkpt><trkpt lat="45.142101272259026" lon="9.353393017164521"><ele>68.83333333333333</ele><time>2026-04-19T11:42:31.001Z</time></trkpt><trkpt lat="45.142023970719734" lon="9.353273779346738"><ele>68.66666666666667</ele><time>2026-04-19T11:42:32.001Z</time></trkpt><trkpt lat="45.14197883310185" lon="9.35316151681282"><ele>68.5</ele><time>2026-04-19T11:42:33.001Z</time></trkpt><trkpt lat="45.14194143274784" lon="9.353071970077833"><ele>68.33333333333334</ele><time>2026-04-19T11:42:34.001Z</time></trkpt><trkpt lat="45.14188663360427" lon="9.352999088393055"><ele>68.16666666666667</ele><time>2026-04-19T11:42:34.999Z</time></trkpt><trkpt lat="45.14181189968934" lon="9.3529455147357"><ele>68.0</ele><time>2026-04-19T11:42:35.999Z</time></trkpt><trkpt lat="45.141728140789006" lon="9.352911051901447"><ele>68.0</ele><time>2026-04-19T11:42:36.999Z</time></trkpt><trkpt lat="45.141648822679066" lon="9.352887449846959"><ele>68.0</ele><time>2026-04-19T11:42:37.999Z</time></trkpt><trkpt lat="45.14155764278254" lon="9.352878866799943"><ele>68.0</ele><time>2026-04-19T11:42:38.999Z</time></trkpt><trkpt lat="45.141456582632244" lon="9.352880969113045"><ele>68.0</ele><time>2026-04-19T11:42:39.999Z</time></trkpt><trkpt lat="45.14136871327069" lon="9.352887075660911"><ele>68.0</ele><time>2026-04-19T11:42:40.999Z</time></trkpt><trkpt lat="45.141276056987145" lon="9.352897690096587"><ele>68.0</ele><time>2026-04-19T11:42:41.999Z</time></trkpt><trkpt lat="45.141183317788" lon="9.352906710409034"><ele>68.0</ele><time>2026-04-19T11:42:42.999Z</time></trkpt><trkpt lat="45.14108809098546" lon="9.352927051768239"><ele>68.0</ele><time>2026-04-19T11:42:43.999Z</time></trkpt><trkpt lat="45.140991597600966" lon="9.352971157817038"><ele>68.0</ele><time>2026-04-19T11:42:44.999Z</time></trkpt><trkpt lat="45.14088553490614" lon="9.353050678999212"><ele>68.0</ele><time>2026-04-19T11:42:45.999Z</time></trkpt><trkpt lat="45.14077384680593" lon="9.353140827386156"><ele>68.25</ele><time>2026-04-19T11:42:46.999Z</time></trkpt><trkpt lat="45.14066069874918" lon="9.353239452174657"><ele>68.5</ele><time>2026-04-19T11:42:47.999Z</time></trkpt><trkpt lat="45.1405480459879" lon="9.353332960727613"><ele>68.75</ele><time>2026-04-19T11:42:48.999Z</time></trkpt><trkpt lat="45.14044348706603" lon="9.353420952381835"><ele>69.0</ele><time>2026-04-19T11:42:49.999Z</time></trkpt><trkpt lat="45.1403396900351" lon="9.353511812334586"><ele>69.0</ele><time>2026-04-19T11:42:50.999Z</time></trkpt><trkpt lat="45.140247583957155" lon="9.353588889350116"><ele>69.0</ele><time>2026-04-19T11:42:52Z</time></trkpt><trkpt lat="45.14016156461039" lon="9.353660488673404"><ele>69.0</ele><time>2026-04-19T11:42:53Z</time></trkpt><trkpt lat="45.14007555248742" lon="9.353728366480901"><ele>69.0</ele><time>2026-04-19T11:42:54Z</time></trkpt><trkpt lat="45.13999959328161" lon="9.35378904163823"><ele>69.0</ele><time>2026-04-19T11:42:55Z</time></trkpt><trkpt lat="45.139933714672864" lon="9.353842802857988"><ele>69.0</ele><time>2026-04-19T11:42:56Z</time></trkpt><trkpt lat="45.13987164767958" lon="9.353884409176674"><ele>69.0</ele><time>2026-04-19T11:42:57Z</time></trkpt><trkpt lat="45.13974822594263" lon="9.353685584224584"><ele>69.0</ele><time>2026-04-19T11:42:58Z</time></trkpt><trkpt lat="45.13982910728719" lon="9.353644201413228"><ele>69.0</ele><time>2026-04-19T11:43:06Z</time></trkpt><trkpt lat="45.13986031376406" lon="9.35352834313953"><ele>69.0</ele><time>2026-04-19T11:43:07Z</time></trkpt><trkpt lat="45.139901797619686" lon="9.35344213230085"><ele>69.0</ele><time>2026-04-19T11:43:08Z</time></trkpt><trkpt lat="45.13991201648323" lon="9.353323489412107"><ele>69.0</ele><time>2026-04-19T11:43:09Z</time></trkpt><trkpt lat="45.1399461932635" lon="9.353202490916892"><ele>69.0</ele><time>2026-04-19T11:43:10Z</time></trkpt><trkpt lat="45.13997936299592" lon="9.35307402092216"><ele>69.0</ele><time>2026-04-19T11:43:11Z</time></trkpt><trkpt lat="45.140017459700864" lon="9.352934486009763"><ele>69.0</ele><time>2026-04-19T11:43:12Z</time></trkpt><trkpt lat="45.14005414014263" lon="9.352796059817084"><ele>68.25</ele><time>2026-04-19T11:43:13Z</time></trkpt><trkpt lat="45.14009123710732" lon="9.352658512555298"><ele>67.5</ele><time>2026-04-19T11:43:14Z</time></trkpt><trkpt lat="45.1401302231656" lon="9.352513960981039"><ele>66.75</ele><time>2026-04-19T11:43:15Z</time></trkpt><trkpt lat="45.14018962132507" lon="9.352359635341834"><ele>66.0</ele><time>2026-04-19T11:43:16Z</time></trkpt><trkpt lat="45.14022570593309" lon="9.35219891789309"><ele>66.0</ele><time>2026-04-19T11:43:17Z</time></trkpt><trkpt lat="45.14026417928908" lon="9.352042024617404"><ele>66.0</ele><time>2026-04-19T11:43:18Z</time></trkpt><trkpt lat="45.14030230753468" lon="9.351889648440377"><ele>66.0</ele><time>2026-04-19T11:43:19Z</time></trkpt><trkpt lat="45.14034155106493" lon="9.35175440160314"><ele>66.0</ele><time>2026-04-19T11:43:20Z</time></trkpt><trkpt lat="45.140381569240276" lon="9.351632497504736"><ele>66.0</ele><time>2026-04-19T11:43:21Z</time></trkpt><trkpt lat="45.140414282951625" lon="9.351520506842036"><ele>66.0</ele><time>2026-04-19T11:43:22Z</time></trkpt><trkpt lat="45.14044245548101" lon="9.35141906777345"><ele>66.0</ele><time>2026-04-19T11:43:23Z</time></trkpt><trkpt lat="45.140488211826366" lon="9.351335665435988"><ele>66.0</ele><time>2026-04-19T11:43:24Z</time></trkpt><trkpt lat="45.14051750421701" lon="9.35119879368143"><ele>66.0</ele><time>2026-04-19T11:43:26Z</time></trkpt><trkpt lat="45.140566531371185" lon="9.351113933869478"><ele>66.0</ele><time>2026-04-19T11:43:29Z</time></trkpt><trkpt lat="45.14061472710743" lon="9.351011675169913"><ele>66.0</ele><time>2026-04-19T11:43:42Z</time></trkpt><trkpt lat="45.14077015511864" lon="9.351093832325457"><ele>66.25</ele><time>2026-04-19T11:43:43Z</time></trkpt><trkpt lat="45.14085711603178" lon="9.351145267386444"><ele>66.5</ele><time>2026-04-19T11:43:44Z</time></trkpt><trkpt lat="45.140955975263076" lon="9.351201711425805"><ele>66.75</ele><time>2026-04-19T11:43:45Z</time></trkpt><trkpt lat="45.141069915856676" lon="9.351267511924203"><ele>67.0</ele><time>2026-04-19T11:43:46Z</time></trkpt><trkpt lat="45.14119634820287" lon="9.351329289607099"><ele>66.75</ele><time>2026-04-19T11:43:47.001Z</time></trkpt><trkpt lat="45.14133259750771" lon="9.351394555585046"><ele>66.5</ele><time>2026-04-19T11:43:48.001Z</time></trkpt><trkpt lat="45.141467844252524" lon="9.351463649154304"><ele>66.25</ele><time>2026-04-19T11:43:49.001Z</time></trkpt><trkpt lat="45.14161463457604" lon="9.351541234555775"><ele>66.0</ele><time>2026-04-19T11:43:50.001Z</time></trkpt><trkpt lat="45.141771757165074" lon="9.351620203521799"><ele>66.0</ele><time>2026-04-19T11:43:51.001Z</time></trkpt><trkpt lat="45.14193735718902" lon="9.351706023395545"><ele>66.0</ele><time>2026-04-19T11:43:52.001Z</time></trkpt><trkpt lat="45.14210101789332" lon="9.351789019480767"><ele>66.0</ele><time>2026-04-19T11:43:53.001Z</time></trkpt><trkpt lat="45.14226371227206" lon="9.351868130909661"><ele>66.66666666666667</ele><time>2026-04-19T11:43:54.001Z</time></trkpt><trkpt lat="45.1424245324533" lon="9.351942354338414"><ele>67.33333333333334</ele><time>2026-04-19T11:43:55.001Z</time></trkpt><trkpt lat="45.14257588804472" lon="9.352013570858846"><ele>68.0</ele><time>2026-04-19T11:43:56.001Z</time></trkpt><trkpt lat="45.14273519190253" lon="9.352090555861473"><ele>68.0</ele><time>2026-04-19T11:43:57.001Z</time></trkpt><trkpt lat="45.14290236795892" lon="9.352173442537085"><ele>68.0</ele><time>2026-04-19T11:43:58.001Z</time></trkpt><trkpt lat="45.14306994250501" lon="9.352253046615933"><ele>68.0</ele><time>2026-04-19T11:43:59.001Z</time></trkpt><trkpt lat="45.143231238678794" lon="9.35233306491049"><ele>69.0</ele><time>2026-04-19T11:44:00.001Z</time></trkpt><trkpt lat="45.14339140262283" lon="9.352409722153688"><ele>70.0</ele><time>2026-04-19T11:44:01.001Z</time></trkpt><trkpt lat="45.143566369939876" lon="9.35250984421989"><ele>71.0</ele><time>2026-04-19T11:44:02.001Z</time></trkpt><trkpt lat="45.14374075762414" lon="9.352613772653918"><ele>71.0</ele><time>2026-04-19T11:44:03.001Z</time></trkpt><trkpt lat="45.143922327704985" lon="9.35272066689713"><ele>71.0</ele><time>2026-04-19T11:44:04.001Z</time></trkpt><trkpt lat="45.144103347386555" lon="9.352821444527985"><ele>71.0</ele><time>2026-04-19T11:44:05.001Z</time></trkpt><trkpt lat="45.144284004776885" lon="9.35292341691036"><ele>70.66666666666667</ele><time>2026-04-19T11:44:06.001Z</time></trkpt><trkpt lat="45.14446371418045" lon="9.353026240960899"><ele>70.33333333333333</ele><time>2026-04-19T11:44:07.001Z</time></trkpt><trkpt lat="45.144644031787955" lon="9.353127595537906"><ele>70.0</ele><time>2026-04-19T11:44:08.001Z</time></trkpt><trkpt lat="45.14482063491671" lon="9.353228286274733"><ele>69.66666666666666</ele><time>2026-04-19T11:44:09.001Z</time></trkpt><trkpt lat="45.14498253185862" lon="9.35330761403811"><ele>69.33333333333333</ele><time>2026-04-19T11:44:10.001Z</time></trkpt><trkpt lat="45.14513743152096" lon="9.353379423879552"><ele>69.0</ele><time>2026-04-19T11:44:11.001Z</time></trkpt><trkpt lat="45.14528812471067" lon="9.353440403048891"><ele>69.0</ele><time>2026-04-19T11:44:12.001Z</time></trkpt><trkpt lat="45.14545288792501" lon="9.353501941230286"><ele>69.0</ele><time>2026-04-19T11:44:13.001Z</time></trkpt><trkpt lat="45.14562109171475" lon="9.35355492761869"><ele>69.0</ele><time>2026-04-19T11:44:14.001Z</time></trkpt><trkpt lat="45.14579043659725" lon="9.353594632468"><ele>69.0</ele><time>2026-04-19T11:44:15.001Z</time></trkpt><trkpt lat="45.14596369169096" lon="9.353623466974064"><ele>69.0</ele><time>2026-04-19T11:44:16.001Z</time></trkpt><trkpt lat="45.14613155929317" lon="9.35363745381793"><ele>69.0</ele><time>2026-04-19T11:44:17.001Z</time></trkpt><trkpt lat="45.14631101311755" lon="9.353674424035919"><ele>69.0</ele><time>2026-04-19T11:44:18.001Z</time></trkpt><trkpt lat="45.14651084344894" lon="9.35368527557226"><ele>69.0</ele><time>2026-04-19T11:44:19.001Z</time></trkpt><trkpt lat="45.14673016119841" lon="9.353675512409707"><ele>69.0</ele><time>2026-04-19T11:44:20.001Z</time></trkpt><trkpt lat="45.14695259977802" lon="9.353665807096867"><ele>69.0</ele><time>2026-04-19T11:44:21.001Z</time></trkpt><trkpt lat="45.14716450343488" lon="9.353654671836534"><ele>69.0</ele><time>2026-04-19T11:44:22.001Z</time></trkpt><trkpt lat="45.14735837895261" lon="9.353623056572394"><ele>69.0</ele><time>2026-04-19T11:44:23.001Z</time></trkpt><trkpt lat="45.14755669792023" lon="9.353615799726864"><ele>69.0</ele><time>2026-04-19T11:44:24.001Z</time></trkpt><trkpt lat="45.14774017273068" lon="9.353606430030084"><ele>69.0</ele><time>2026-04-19T11:44:25.001Z</time></trkpt><trkpt lat="45.14792390337341" lon="9.35359789490195"><ele>69.0</ele><time>2026-04-19T11:44:26.001Z</time></trkpt><trkpt lat="45.14809114982213" lon="9.353591526253126"><ele>69.0</ele><time>2026-04-19T11:44:27.001Z</time></trkpt><trkpt lat="45.1482480948938" lon="9.353587094926814"><ele>69.0</ele><time>2026-04-19T11:44:28.001Z</time></trkpt><trkpt lat="45.148394828247206" lon="9.353581228290198"><ele>69.0</ele><time>2026-04-19T11:44:29.001Z</time></trkpt><trkpt lat="45.14854145017672" lon="9.353578504785311"><ele>69.0</ele><time>2026-04-19T11:44:30.001Z</time></trkpt><trkpt lat="45.148683645538775" lon="9.353573041267639"><ele>69.0</ele><time>2026-04-19T11:44:31.001Z</time></trkpt><trkpt lat="45.14882575738983" lon="9.353559166751284"><ele>69.0</ele><time>2026-04-19T11:44:32.001Z</time></trkpt><trkpt lat="45.14897273766726" lon="9.353547125177364"><ele>69.0</ele><time>2026-04-19T11:44:33.001Z</time></trkpt><trkpt lat="45.14912568934632" lon="9.353537068306121"><ele>69.33333333333333</ele><time>2026-04-19T11:44:34.001Z</time></trkpt><trkpt lat="45.14928282291923" lon="9.35352350355726"><ele>69.66666666666666</ele><time>2026-04-19T11:44:35.001Z</time></trkpt><trkpt lat="45.149442924015" lon="9.353514263923449"><ele>70.0</ele><time>2026-04-19T11:44:36.001Z</time></trkpt><trkpt lat="45.14961792294604" lon="9.353498259027571"><ele>70.0</ele><time>2026-04-19T11:44:37.001Z</time></trkpt><trkpt lat="45.14977958174578" lon="9.353485888748402"><ele>70.0</ele><time>2026-04-19T11:44:38.001Z</time></trkpt><trkpt lat="45.14993908820909" lon="9.353473103630495"><ele>70.0</ele><time>2026-04-19T11:44:39.001Z</time></trkpt><trkpt lat="45.15009683891421" lon="9.353447111073345"><ele>70.0</ele><time>2026-04-19T11:44:40.001Z</time></trkpt><trkpt lat="45.15026021984053" lon="9.353401301854486"><ele>70.0</ele><time>2026-04-19T11:44:41Z</time></trkpt><trkpt lat="45.15043092202934" lon="9.353346141281671"><ele>70.0</ele><time>2026-04-19T11:44:42Z</time></trkpt><trkpt lat="45.15059814160919" lon="9.353283169584515"><ele>70.0</ele><time>2026-04-19T11:44:43Z</time></trkpt><trkpt lat="45.150759801348826" lon="9.353212619492032"><ele>70.0</ele><time>2026-04-19T11:44:44Z</time></trkpt><trkpt lat="45.150921115305685" lon="9.353130640149065"><ele>70.0</ele><time>2026-04-19T11:44:45Z</time></trkpt><trkpt lat="45.151081215148714" lon="9.35304397363803"><ele>70.0</ele><time>2026-04-19T11:44:46Z</time></trkpt><trkpt lat="45.15124126321866" lon="9.352929286750125"><ele>70.0</ele><time>2026-04-19T11:44:47Z</time></trkpt><trkpt lat="45.15140335348344" lon="9.352819699752777"><ele>70.0</ele><time>2026-04-19T11:44:48Z</time></trkpt><trkpt lat="45.15156080944719" lon="9.35270335169123"><ele>70.0</ele><time>2026-04-19T11:44:49Z</time></trkpt><trkpt lat="45.15171670826945" lon="9.35256911436367"><ele>70.0</ele><time>2026-04-19T11:44:50Z</time></trkpt><trkpt lat="45.151867852862324" lon="9.352433605014777"><ele>70.0</ele><time>2026-04-19T11:44:51Z</time></trkpt><trkpt lat="45.15200655030529" lon="9.352295229051327"><ele>70.0</ele><time>2026-04-19T11:44:52Z</time></trkpt><trkpt lat="45.15213848212675" lon="9.35215569523332"><ele>70.0</ele><time>2026-04-19T11:44:53Z</time></trkpt><trkpt lat="45.15226958449185" lon="9.35200600356202"><ele>70.0</ele><time>2026-04-19T11:44:54Z</time></trkpt><trkpt lat="45.152402791835534" lon="9.35184792813665"><ele>70.33333333333333</ele><time>2026-04-19T11:44:55Z</time></trkpt><trkpt lat="45.15253703272033" lon="9.35169721173825"><ele>70.66666666666667</ele><time>2026-04-19T11:44:56Z</time></trkpt><trkpt lat="45.152667717883034" lon="9.351551330179204"><ele>71.0</ele><time>2026-04-19T11:44:57Z</time></trkpt><trkpt lat="45.15279084614237" lon="9.351417792270539"><ele>71.0</ele><time>2026-04-19T11:44:58Z</time></trkpt><trkpt lat="45.15291963853341" lon="9.351300535926033"><ele>71.0</ele><time>2026-04-19T11:44:59Z</time></trkpt><trkpt lat="45.15303461195572" lon="9.35117326969158"><ele>71.0</ele><time>2026-04-19T11:45:00Z</time></trkpt><trkpt lat="45.15313799063638" lon="9.351056203340256"><ele>71.0</ele><time>2026-04-19T11:45:01Z</time></trkpt><trkpt lat="45.15323250424696" lon="9.350919955325693"><ele>71.0</ele><time>2026-04-19T11:45:02Z</time></trkpt><trkpt lat="45.153342116756406" lon="9.350797889829321"><ele>71.0</ele><time>2026-04-19T11:45:03Z</time></trkpt><trkpt lat="45.153455302179594" lon="9.35067676593092"><ele>71.0</ele><time>2026-04-19T11:45:04Z</time></trkpt><trkpt lat="45.153559041333445" lon="9.350568346449542"><ele>71.0</ele><time>2026-04-19T11:45:05Z</time></trkpt><trkpt lat="45.15365596119594" lon="9.35046158018626"><ele>71.2</ele><time>2026-04-19T11:45:06Z</time></trkpt><trkpt lat="45.153751517549594" lon="9.350352088689814"><ele>71.39999999999999</ele><time>2026-04-19T11:45:07Z</time></trkpt><trkpt lat="45.15384688641774" lon="9.350246870945222"><ele>71.6</ele><time>2026-04-19T11:45:08Z</time></trkpt><trkpt lat="45.15392759751939" lon="9.350164480007448"><ele>71.8</ele><time>2026-04-19T11:45:09Z</time></trkpt><trkpt lat="45.15398823918197" lon="9.350088241423295"><ele>72.0</ele><time>2026-04-19T11:45:10Z</time></trkpt><trkpt lat="45.15403759525351" lon="9.350028363511168"><ele>72.0</ele><time>2026-04-19T11:45:11Z</time></trkpt><trkpt lat="45.154109071829524" lon="9.349968908043525"><ele>72.0</ele><time>2026-04-19T11:45:13Z</time></trkpt><trkpt lat="45.15404840162315" lon="9.350006827699012"><ele>72.0</ele><time>2026-04-19T11:45:17Z</time></trkpt><trkpt lat="45.153895856716666" lon="9.349873174643228"><ele>72.0</ele><time>2026-04-19T11:45:18Z</time></trkpt><trkpt lat="45.15381755536835" lon="9.349901788255885"><ele>72.0</ele><time>2026-04-19T11:45:19Z</time></trkpt><trkpt lat="45.15371891226157" lon="9.349931909227749"><ele>72.0</ele><time>2026-04-19T11:45:20Z</time></trkpt><trkpt lat="45.15360356620462" lon="9.349972096303915"><ele>72.0</ele><time>2026-04-19T11:45:21Z</time></trkpt><trkpt lat="45.15347353600255" lon="9.350021697239315"><ele>72.0</ele><time>2026-04-19T11:45:22Z</time></trkpt><trkpt lat="45.15332613804538" lon="9.350075055689251"><ele>72.0</ele><time>2026-04-19T11:45:23Z</time></trkpt><trkpt lat="45.153178867419925" lon="9.35013131414909"><ele>71.75</ele><time>2026-04-19T11:45:24Z</time></trkpt><trkpt lat="45.15304385727847" lon="9.350179926289911"><ele>71.5</ele><time>2026-04-19T11:45:25Z</time></trkpt><trkpt lat="45.15290353033871" lon="9.350232985747759"><ele>71.25</ele><time>2026-04-19T11:45:26Z</time></trkpt><trkpt lat="45.15275632408257" lon="9.350287498631541"><ele>71.0</ele><time>2026-04-19T11:45:27Z</time></trkpt><trkpt lat="45.15261624989331" lon="9.350335749171874"><ele>71.0</ele><time>2026-04-19T11:45:28Z</time></trkpt><trkpt lat="45.15249143319905" lon="9.350383702559617"><ele>71.0</ele><time>2026-04-19T11:45:29Z</time></trkpt><trkpt lat="45.15238188061047" lon="9.35042833862195"><ele>71.0</ele><time>2026-04-19T11:45:30Z</time></trkpt><trkpt lat="45.15227971851538" lon="9.350470155994735"><ele>71.0</ele><time>2026-04-19T11:45:31Z</time></trkpt><trkpt lat="45.15219201259342" lon="9.350501878876244"><ele>71.0</ele><time>2026-04-19T11:45:32Z</time></trkpt><trkpt lat="45.15211178765259" lon="9.350531715480425"><ele>71.2</ele><time>2026-04-19T11:45:33.001Z</time></trkpt><trkpt lat="45.152041275369655" lon="9.350560943922943"><ele>71.39999999999999</ele><time>2026-04-19T11:45:34.001Z</time></trkpt><trkpt lat="45.15192500499574" lon="9.3506051410603"><ele>71.6</ele><time>2026-04-19T11:45:36.001Z</time></trkpt><trkpt lat="45.15183173598588" lon="9.350598844562393"><ele>71.8</ele><time>2026-04-19T11:45:38.001Z</time></trkpt><trkpt lat="45.1517496009609" lon="9.350458619007698"><ele>72.0</ele><time>2026-04-19T11:45:40.001Z</time></trkpt><trkpt lat="45.15171087673913" lon="9.35035428076745"><ele>71.5</ele><time>2026-04-19T11:45:41.001Z</time></trkpt><trkpt lat="45.15165876769" lon="9.350222134824161"><ele>71.0</ele><time>2026-04-19T11:45:42.001Z</time></trkpt><trkpt lat="45.15159754141303" lon="9.350091710252084"><ele>70.5</ele><time>2026-04-19T11:45:43.001Z</time></trkpt><trkpt lat="45.151531276286356" lon="9.349939476253796"><ele>70.0</ele><time>2026-04-19T11:45:44.001Z</time></trkpt><trkpt lat="45.15146266962414" lon="9.349776055277717"><ele>70.0</ele><time>2026-04-19T11:45:45.001Z</time></trkpt><trkpt lat="45.151392161162555" lon="9.349610881656277"><ele>70.0</ele><time>2026-04-19T11:45:46.001Z</time></trkpt><trkpt lat="45.1513153222699" lon="9.349447532771164"><ele>70.0</ele><time>2026-04-19T11:45:47.001Z</time></trkpt><trkpt lat="45.151225497227465" lon="9.349300364563145"><ele>70.0</ele><time>2026-04-19T11:45:48.001Z</time></trkpt><trkpt lat="45.15112876067459" lon="9.349145425806375"><ele>70.0</ele><time>2026-04-19T11:45:49.001Z</time></trkpt><trkpt lat="45.151019267390566" lon="9.348975048064853"><ele>70.0</ele><time>2026-04-19T11:45:50.001Z</time></trkpt><trkpt lat="45.15092095160988" lon="9.348818101085005"><ele>70.0</ele><time>2026-04-19T11:45:51.001Z</time></trkpt><trkpt lat="45.15083366738808" lon="9.348680399561884"><ele>70.0</ele><time>2026-04-19T11:45:52.001Z</time></trkpt><trkpt lat="45.15074911190057" lon="9.348554691145171"><ele>70.5</ele><time>2026-04-19T11:45:53.001Z</time></trkpt><trkpt lat="45.15067595800974" lon="9.348429020300822"><ele>71.0</ele><time>2026-04-19T11:45:54.001Z</time></trkpt><trkpt lat="45.15061891328217" lon="9.348308188037748"><ele>71.5</ele><time>2026-04-19T11:45:55.001Z</time></trkpt><trkpt lat="45.150565194096686" lon="9.348155282774915"><ele>72.0</ele><time>2026-04-19T11:45:56.001Z</time></trkpt><trkpt lat="45.15051548566706" lon="9.347971198165611"><ele>72.0</ele><time>2026-04-19T11:45:57.001Z</time></trkpt><trkpt lat="45.150452375368126" lon="9.347776023562414"><ele>72.0</ele><time>2026-04-19T11:45:58.001Z</time></trkpt><trkpt lat="45.150391534722665" lon="9.347591130783382"><ele>72.0</ele><time>2026-04-19T11:45:59.001Z</time></trkpt><trkpt lat="45.15034204787121" lon="9.347429000070997"><ele>72.0</ele><time>2026-04-19T11:46:00.001Z</time></trkpt><trkpt lat="45.15027792515733" lon="9.34724615843633"><ele>72.5</ele><time>2026-04-19T11:46:01.001Z</time></trkpt><trkpt lat="45.15021677143759" lon="9.347073295891954"><ele>73.0</ele><time>2026-04-19T11:46:02.001Z</time></trkpt><trkpt lat="45.150162179141574" lon="9.346918768400947"><ele>73.5</ele><time>2026-04-19T11:46:03.001Z</time></trkpt><trkpt lat="45.15011158630565" lon="9.346771936626247"><ele>74.0</ele><time>2026-04-19T11:46:04.001Z</time></trkpt><trkpt lat="45.150062251651526" lon="9.346633271435897"><ele>74.0</ele><time>2026-04-19T11:46:05.001Z</time></trkpt><trkpt lat="45.15000451197872" lon="9.346493834053227"><ele>74.0</ele><time>2026-04-19T11:46:06.001Z</time></trkpt><trkpt lat="45.149944157722544" lon="9.346329954097737"><ele>74.0</ele><time>2026-04-19T11:46:07.001Z</time></trkpt><trkpt lat="45.149881315667564" lon="9.346155193556571"><ele>74.0</ele><time>2026-04-19T11:46:08.001Z</time></trkpt><trkpt lat="45.1498148282031" lon="9.345973354775836"><ele>72.66666666666667</ele><time>2026-04-19T11:46:09.001Z</time></trkpt><trkpt lat="45.14974875390947" lon="9.345776567829832"><ele>71.33333333333333</ele><time>2026-04-19T11:46:10.001Z</time></trkpt><trkpt lat="45.14968002440047" lon="9.345585469699655"><ele>70.0</ele><time>2026-04-19T11:46:11.001Z</time></trkpt><trkpt lat="45.14961185648472" lon="9.345383881288651"><ele>70.0</ele><time>2026-04-19T11:46:12.001Z</time></trkpt><trkpt lat="45.14955366213019" lon="9.345180747558047"><ele>70.0</ele><time>2026-04-19T11:46:13.001Z</time></trkpt><trkpt lat="45.14949155588079" lon="9.34498979589572"><ele>70.0</ele><time>2026-04-19T11:46:14.001Z</time></trkpt><trkpt lat="45.14942978272354" lon="9.344816238340963"><ele>70.0</ele><time>2026-04-19T11:46:15.001Z</time></trkpt><trkpt lat="45.14937481351143" lon="9.344664792082773"><ele>70.0</ele><time>2026-04-19T11:46:16.001Z</time></trkpt><trkpt lat="45.14932725313114" lon="9.344518503702865"><ele>70.0</ele><time>2026-04-19T11:46:17.001Z</time></trkpt><trkpt lat="45.14928044512184" lon="9.344358707081563"><ele>70.0</ele><time>2026-04-19T11:46:18.001Z</time></trkpt><trkpt lat="45.149232583965315" lon="9.34417995789408"><ele>70.0</ele><time>2026-04-19T11:46:19.001Z</time></trkpt><trkpt lat="45.14918200052965" lon="9.343993241632226"><ele>70.25</ele><time>2026-04-19T11:46:20.001Z</time></trkpt><trkpt lat="45.14914904672489" lon="9.34382330029682"><ele>70.5</ele><time>2026-04-19T11:46:21.001Z</time></trkpt><trkpt lat="45.14911702161334" lon="9.343677429411658"><ele>70.75</ele><time>2026-04-19T11:46:22.001Z</time></trkpt><trkpt lat="45.1490741165999" lon="9.343527533731299"><ele>71.0</ele><time>2026-04-19T11:46:23.001Z</time></trkpt><trkpt lat="45.14903847170313" lon="9.343376008746823"><ele>70.75</ele><time>2026-04-19T11:46:24.001Z</time></trkpt><trkpt lat="45.14901023973777" lon="9.343220921315757"><ele>70.5</ele><time>2026-04-19T11:46:25.001Z</time></trkpt><trkpt lat="45.14898865031353" lon="9.343042633597149"><ele>70.25</ele><time>2026-04-19T11:46:26.001Z</time></trkpt><trkpt lat="45.14897555650061" lon="9.342847726854982"><ele>70.0</ele><time>2026-04-19T11:46:27.001Z</time></trkpt><trkpt lat="45.1489692647053" lon="9.342642241740085"><ele>70.0</ele><time>2026-04-19T11:46:28.001Z</time></trkpt><trkpt lat="45.14895971261362" lon="9.342434201476477"><ele>70.0</ele><time>2026-04-19T11:46:29.001Z</time></trkpt><trkpt lat="45.14894403089101" lon="9.342257034023584"><ele>70.0</ele><time>2026-04-19T11:46:30.001Z</time></trkpt><trkpt lat="45.148931435298735" lon="9.342089648511797"><ele>70.0</ele><time>2026-04-19T11:46:31.001Z</time></trkpt><trkpt lat="45.14891764789275" lon="9.341939254551795"><ele>70.16666666666666</ele><time>2026-04-19T11:46:32.001Z</time></trkpt><trkpt lat="45.14890776124908" lon="9.341795401267762"><ele>70.33333333333333</ele><time>2026-04-19T11:46:33.001Z</time></trkpt><trkpt lat="45.14890186398986" lon="9.341685105080341"><ele>70.5</ele><time>2026-04-19T11:46:34.001Z</time></trkpt><trkpt lat="45.14889561083387" lon="9.34157528761367"><ele>70.66666666666667</ele><time>2026-04-19T11:46:35.001Z</time></trkpt><trkpt lat="45.14889254179837" lon="9.341467713499842"><ele>70.83333333333334</ele><time>2026-04-19T11:46:36.001Z</time></trkpt><trkpt lat="45.1488798580991" lon="9.341359465095824"><ele>71.0</ele><time>2026-04-19T11:46:37.001Z</time></trkpt><trkpt lat="45.14887408992731" lon="9.34125446148807"><ele>71.0</ele><time>2026-04-19T11:46:38.001Z</time></trkpt><trkpt lat="45.14886032959019" lon="9.341102021485963"><ele>71.0</ele><time>2026-04-19T11:46:40.001Z</time></trkpt><trkpt lat="45.14881095072823" lon="9.340999779096919"><ele>71.0</ele><time>2026-04-19T11:46:44.001Z</time></trkpt><trkpt lat="45.14872028214389" lon="9.34092497015351"><ele>71.0</ele><time>2026-04-19T11:46:46.002Z</time></trkpt><trkpt lat="45.14863306168358" lon="9.340915320294128"><ele>71.0</ele><time>2026-04-19T11:46:47Z</time></trkpt><trkpt lat="45.14854635358817" lon="9.340901497460191"><ele>71.0</ele><time>2026-04-19T11:46:48Z</time></trkpt><trkpt lat="45.14845009248619" lon="9.340867308599622"><ele>71.0</ele><time>2026-04-19T11:46:49Z</time></trkpt><trkpt lat="45.148350004376375" lon="9.34082917170804"><ele>71.0</ele><time>2026-04-19T11:46:50Z</time></trkpt><trkpt lat="45.14824482312283" lon="9.340796975632854"><ele>71.0</ele><time>2026-04-19T11:46:51Z</time></trkpt><trkpt lat="45.14812429500582" lon="9.340760432949317"><ele>71.0</ele><time>2026-04-19T11:46:52Z</time></trkpt><trkpt lat="45.148003965786366" lon="9.340715952211994"><ele>71.0</ele><time>2026-04-19T11:46:53Z</time></trkpt><trkpt lat="45.14788628375716" lon="9.34067603237128"><ele>71.0</ele><time>2026-04-19T11:46:54Z</time></trkpt><trkpt lat="45.147776583567044" lon="9.340633672941797"><ele>71.0</ele><time>2026-04-19T11:46:55Z</time></trkpt><trkpt lat="45.147643986294284" lon="9.340598233176227"><ele>71.0</ele><time>2026-04-19T11:46:56Z</time></trkpt><trkpt lat="45.14750387876187" lon="9.340549030935504"><ele>70.75</ele><time>2026-04-19T11:46:57Z</time></trkpt><trkpt lat="45.14735815067082" lon="9.340504840783218"><ele>70.5</ele><time>2026-04-19T11:46:58Z</time></trkpt><trkpt lat="45.147216818951335" lon="9.340455684217776"><ele>70.25</ele><time>2026-04-19T11:46:59Z</time></trkpt><trkpt lat="45.14708172288304" lon="9.340415639527802"><ele>70.0</ele><time>2026-04-19T11:47:00Z</time></trkpt><trkpt lat="45.14695158034974" lon="9.340331275035247"><ele>70.0</ele><time>2026-04-19T11:47:01Z</time></trkpt><trkpt lat="45.146825863317744" lon="9.34028864423438"><ele>70.0</ele><time>2026-04-19T11:47:02Z</time></trkpt><trkpt lat="45.14670195436767" lon="9.340244857047438"><ele>70.0</ele><time>2026-04-19T11:47:03Z</time></trkpt><trkpt lat="45.146577199199896" lon="9.340203065104193"><ele>70.0</ele><time>2026-04-19T11:47:04Z</time></trkpt><trkpt lat="45.146457322569" lon="9.340193469080672"><ele>69.25</ele><time>2026-04-19T11:47:05Z</time></trkpt><trkpt lat="45.14634381911899" lon="9.340168665540638"><ele>68.5</ele><time>2026-04-19T11:47:06Z</time></trkpt><trkpt lat="45.14622761387364" lon="9.340178820163176"><ele>67.75</ele><time>2026-04-19T11:47:07Z</time></trkpt><trkpt lat="45.14611347496082" lon="9.340247039678948"><ele>67.0</ele><time>2026-04-19T11:47:08Z</time></trkpt><trkpt lat="45.14601138553451" lon="9.340370452040803"><ele>67.0</ele><time>2026-04-19T11:47:09Z</time></trkpt><trkpt lat="45.14592570329744" lon="9.340526130009028"><ele>67.0</ele><time>2026-04-19T11:47:10Z</time></trkpt><trkpt lat="45.14583365246117" lon="9.340673799419339"><ele>67.0</ele><time>2026-04-19T11:47:11Z</time></trkpt><trkpt lat="45.14574664633144" lon="9.340816245169265"><ele>67.0</ele><time>2026-04-19T11:47:12Z</time></trkpt><trkpt lat="45.14566614637662" lon="9.340943441705493"><ele>67.25</ele><time>2026-04-19T11:47:13Z</time></trkpt><trkpt lat="45.14557375457061" lon="9.341071605541199"><ele>67.5</ele><time>2026-04-19T11:47:14Z</time></trkpt><trkpt lat="45.145462279253884" lon="9.341170659367593"><ele>67.75</ele><time>2026-04-19T11:47:15Z</time></trkpt><trkpt lat="45.145331371907005" lon="9.341230377816824"><ele>68.0</ele><time>2026-04-19T11:47:16Z</time></trkpt><trkpt lat="45.14520068878873" lon="9.34124832492828"><ele>68.0</ele><time>2026-04-19T11:47:17Z</time></trkpt><trkpt lat="45.1450642334308" lon="9.341228559471174"><ele>68.0</ele><time>2026-04-19T11:47:18Z</time></trkpt><trkpt lat="45.14492133254606" lon="9.341217251612038"><ele>68.0</ele><time>2026-04-19T11:47:19Z</time></trkpt><trkpt lat="45.14477828216232" lon="9.341190982031828"><ele>68.0</ele><time>2026-04-19T11:47:20Z</time></trkpt><trkpt lat="45.14463211311521" lon="9.341185575284856"><ele>66.33333333333334</ele><time>2026-04-19T11:47:21Z</time></trkpt><trkpt lat="45.14447856212858" lon="9.341193677988208"><ele>64.66666666666667</ele><time>2026-04-19T11:47:22Z</time></trkpt><trkpt lat="45.14432656939616" lon="9.341228834223251"><ele>63.0</ele><time>2026-04-19T11:47:23Z</time></trkpt><trkpt lat="45.14416593944603" lon="9.34127879328223"><ele>62.75</ele><time>2026-04-19T11:47:24Z</time></trkpt><trkpt lat="45.14401409107142" lon="9.341322860344018"><ele>62.5</ele><time>2026-04-19T11:47:25Z</time></trkpt><trkpt lat="45.14387102936241" lon="9.341359716221545"><ele>62.25</ele><time>2026-04-19T11:47:26Z</time></trkpt><trkpt lat="45.14373362713757" lon="9.341391443908359"><ele>62.0</ele><time>2026-04-19T11:47:27Z</time></trkpt><trkpt lat="45.14360497414996" lon="9.34141049890315"><ele>63.25</ele><time>2026-04-19T11:47:28Z</time></trkpt><trkpt lat="45.14348150529346" lon="9.341443377977551"><ele>64.5</ele><time>2026-04-19T11:47:29Z</time></trkpt><trkpt lat="45.14335950992189" lon="9.341455569529236"><ele>65.75</ele><time>2026-04-19T11:47:30Z</time></trkpt><trkpt lat="45.14324198885919" lon="9.3415068366682"><ele>67.0</ele><time>2026-04-19T11:47:31Z</time></trkpt><trkpt lat="45.14314183687006" lon="9.341616124177397"><ele>67.5</ele><time>2026-04-19T11:47:32Z</time></trkpt><trkpt lat="45.14306969003473" lon="9.34177066218629"><ele>68.0</ele><time>2026-04-19T11:47:33Z</time></trkpt><trkpt lat="45.14303964125846" lon="9.341959972846539"><ele>68.5</ele><time>2026-04-19T11:47:34Z</time></trkpt><trkpt lat="45.143009888169274" lon="9.342119743691631"><ele>69.0</ele><time>2026-04-19T11:47:35Z</time></trkpt><trkpt lat="45.142974903725445" lon="9.342268684992566"><ele>69.2</ele><time>2026-04-19T11:47:36Z</time></trkpt><trkpt lat="45.14293759491226" lon="9.342400375563377"><ele>69.4</ele><time>2026-04-19T11:47:37Z</time></trkpt><trkpt lat="45.14288652519434" lon="9.342523618813276"><ele>69.6</ele><time>2026-04-19T11:47:38Z</time></trkpt><trkpt lat="45.14280775927315" lon="9.342609483961922"><ele>69.8</ele><time>2026-04-19T11:47:39.001Z</time></trkpt><trkpt lat="45.142715503795415" lon="9.342592477499474"><ele>70.0</ele><time>2026-04-19T11:47:40.001Z</time></trkpt><trkpt lat="45.142618158677024" lon="9.34254024126278"><ele>70.0</ele><time>2026-04-19T11:47:41.001Z</time></trkpt><trkpt lat="45.14250668909966" lon="9.342489838042427"><ele>70.0</ele><time>2026-04-19T11:47:42.001Z</time></trkpt><trkpt lat="45.14238897551211" lon="9.342433997744608"><ele>70.0</ele><time>2026-04-19T11:47:43.001Z</time></trkpt><trkpt lat="45.14227377509101" lon="9.342380547802279"><ele>70.0</ele><time>2026-04-19T11:47:44.001Z</time></trkpt><trkpt lat="45.14216411632908" lon="9.342333306013883"><ele>70.0</ele><time>2026-04-19T11:47:45.001Z</time></trkpt><trkpt lat="45.14205405602011" lon="9.342285891252109"><ele>70.0</ele><time>2026-04-19T11:47:46.001Z</time></trkpt><trkpt lat="45.141941111580756" lon="9.342237233939143"><ele>70.0</ele><time>2026-04-19T11:47:47.001Z</time></trkpt><trkpt lat="45.14183600804208" lon="9.342186244979809"><ele>70.0</ele><time>2026-04-19T11:47:48.001Z</time></trkpt><trkpt lat="45.14174303491846" lon="9.34214131396806"><ele>70.0</ele><time>2026-04-19T11:47:49.001Z</time></trkpt><trkpt lat="45.14166005219593" lon="9.342105997045463"><ele>70.0</ele><time>2026-04-19T11:47:50.001Z</time></trkpt><trkpt lat="45.141594206663875" lon="9.342082599447338"><ele>70.0</ele><time>2026-04-19T11:47:51.001Z</time></trkpt><trkpt lat="45.141530988970985" lon="9.342061905183451"><ele>70.0</ele><time>2026-04-19T11:47:53.001Z</time></trkpt><trkpt lat="45.141606876833364" lon="9.341867258100788"><ele>70.0</ele><time>2026-04-19T11:47:57.001Z</time></trkpt><trkpt lat="45.14174531866432" lon="9.341806558011037"><ele>70.0</ele><time>2026-04-19T11:47:59.001Z</time></trkpt><trkpt lat="45.1418289438529" lon="9.341755448939995"><ele>70.0</ele><time>2026-04-19T11:48:00.001Z</time></trkpt><trkpt lat="45.14191452234564" lon="9.3416905941625"><ele>70.0</ele><time>2026-04-19T11:48:01.001Z</time></trkpt><trkpt lat="45.14199639898162" lon="9.34161013072521"><ele>70.0</ele><time>2026-04-19T11:48:02.001Z</time></trkpt><trkpt lat="45.142070240476734" lon="9.341545506587549"><ele>70.0</ele><time>2026-04-19T11:48:03.001Z</time></trkpt><trkpt lat="45.142136778029275" lon="9.341498969705022"><ele>70.0</ele><time>2026-04-19T11:48:04.001Z</time></trkpt><trkpt lat="45.14222932105797" lon="9.341396058183514"><ele>69.33333333333333</ele><time>2026-04-19T11:48:06.001Z</time></trkpt><trkpt lat="45.14221222553506" lon="9.341256413412323"><ele>68.66666666666666</ele><time>2026-04-19T11:48:08.001Z</time></trkpt><trkpt lat="45.14211877186424" lon="9.341215097571983"><ele>68.0</ele><time>2026-04-19T11:48:10.001Z</time></trkpt><trkpt lat="45.14204322609551" lon="9.341218506243912"><ele>67.33333333333333</ele><time>2026-04-19T11:48:11.001Z</time></trkpt><trkpt lat="45.14196819240436" lon="9.341215786406497"><ele>66.66666666666667</ele><time>2026-04-19T11:48:12.001Z</time></trkpt><trkpt lat="45.14187819250796" lon="9.341208368544436"><ele>66.0</ele><time>2026-04-19T11:48:13.001Z</time></trkpt><trkpt lat="45.1417940411713" lon="9.341211364031656"><ele>66.0</ele><time>2026-04-19T11:48:14.001Z</time></trkpt><trkpt lat="45.141714044925635" lon="9.341187647267413"><ele>66.0</ele><time>2026-04-19T11:48:15.001Z</time></trkpt><trkpt lat="45.14163487719366" lon="9.341157546427729"><ele>66.0</ele><time>2026-04-19T11:48:16.001Z</time></trkpt><trkpt lat="45.141555377332736" lon="9.34111888941406"><ele>66.0</ele><time>2026-04-19T11:48:17.001Z</time></trkpt><trkpt lat="45.14146070704203" lon="9.341100984964914"><ele>66.0</ele><time>2026-04-19T11:48:18.001Z</time></trkpt><trkpt lat="45.141381090496935" lon="9.341057288788381"><ele>66.0</ele><time>2026-04-19T11:48:19.001Z</time></trkpt><trkpt lat="45.14129225385798" lon="9.341007728993869"><ele>66.0</ele><time>2026-04-19T11:48:20.001Z</time></trkpt><trkpt lat="45.14120943700156" lon="9.340957829480258"><ele>66.0</ele><time>2026-04-19T11:48:21.001Z</time></trkpt><trkpt lat="45.14111742463907" lon="9.340906053709887"><ele>66.0</ele><time>2026-04-19T11:48:22.001Z</time></trkpt><trkpt lat="45.14105414743296" lon="9.340846923341822"><ele>66.0</ele><time>2026-04-19T11:48:23.001Z</time></trkpt><trkpt lat="45.140983575270106" lon="9.340819240866386"><ele>66.0</ele><time>2026-04-19T11:48:24.001Z</time></trkpt><trkpt lat="45.140914994720234" lon="9.340802879530465"><ele>66.0</ele><time>2026-04-19T11:48:25.001Z</time></trkpt><trkpt lat="45.14086040794392" lon="9.340748767161646"><ele>66.0</ele><time>2026-04-19T11:48:26.001Z</time></trkpt><trkpt lat="45.140810271005826" lon="9.340689888721895"><ele>66.0</ele><time>2026-04-19T11:48:27.001Z</time></trkpt><trkpt lat="45.140751650209594" lon="9.340648938338148"><ele>66.0</ele><time>2026-04-19T11:48:28.001Z</time></trkpt><trkpt lat="45.14069001695621" lon="9.340572817885347"><ele>66.0</ele><time>2026-04-19T11:48:29.001Z</time></trkpt><trkpt lat="45.14062710920648" lon="9.34049044965973"><ele>66.0</ele><time>2026-04-19T11:48:30.001Z</time></trkpt><trkpt lat="45.14056465964326" lon="9.340408707840462"><ele>66.0</ele><time>2026-04-19T11:48:31.001Z</time></trkpt><trkpt lat="45.14049657619679" lon="9.340310280750096"><ele>65.0</ele><time>2026-04-19T11:48:32.001Z</time></trkpt><trkpt lat="45.14044496589945" lon="9.340238028458124"><ele>63.99999999999999</ele><time>2026-04-19T11:48:33.001Z</time></trkpt><trkpt lat="45.140398416883166" lon="9.34016070087763"><ele>62.99999999999999</ele><time>2026-04-19T11:48:34.001Z</time></trkpt><trkpt lat="45.140311755794194" lon="9.340050363395122"><ele>62.0</ele><time>2026-04-19T11:48:36.001Z</time></trkpt><trkpt lat="45.14023869545888" lon="9.339923682786093"><ele>61.0</ele><time>2026-04-19T11:48:38.001Z</time></trkpt><trkpt lat="45.14014710480645" lon="9.339795507303059"><ele>60.99999999999999</ele><time>2026-04-19T11:48:40.001Z</time></trkpt><trkpt lat="45.140088028957585" lon="9.339741059211654"><ele>61.0</ele><time>2026-04-19T11:48:41.001Z</time></trkpt><trkpt lat="45.14001935758725" lon="9.339677977944312"><ele>61.0</ele><time>2026-04-19T11:48:42.001Z</time></trkpt><trkpt lat="45.139936021514075" lon="9.339642650342666"><ele>61.0</ele><time>2026-04-19T11:48:43.001Z</time></trkpt><trkpt lat="45.139857112718694" lon="9.339612309677376"><ele>60.99999999999999</ele><time>2026-04-19T11:48:44.001Z</time></trkpt><trkpt lat="45.13978459803077" lon="9.339571290585392"><ele>61.0</ele><time>2026-04-19T11:48:45.001Z</time></trkpt><trkpt lat="45.13971666176094" lon="9.339511287110499"><ele>60.71428571428571</ele><time>2026-04-19T11:48:46.001Z</time></trkpt><trkpt lat="45.139653825434436" lon="9.339462246704532"><ele>60.42857142857143</ele><time>2026-04-19T11:48:47.001Z</time></trkpt><trkpt lat="45.139593417860965" lon="9.339417672266965"><ele>60.14285714285714</ele><time>2026-04-19T11:48:48.001Z</time></trkpt><trkpt lat="45.13952707956826" lon="9.339376422039246"><ele>59.857142857142854</ele><time>2026-04-19T11:48:49.001Z</time></trkpt><trkpt lat="45.13946283719321" lon="9.339358989092377"><ele>59.57142857142857</ele><time>2026-04-19T11:48:50.001Z</time></trkpt><trkpt lat="45.13939966615997" lon="9.339357476722466"><ele>59.285714285714285</ele><time>2026-04-19T11:48:51.002Z</time></trkpt><trkpt lat="45.139317761357894" lon="9.339380214364217"><ele>59.0</ele><time>2026-04-19T11:48:52.002Z</time></trkpt><trkpt lat="45.1392275498402" lon="9.33941216106807"><ele>59.00000000000001</ele><time>2026-04-19T11:48:53Z</time></trkpt><trkpt lat="45.13915198257395" lon="9.339445551590714"><ele>59.0</ele><time>2026-04-19T11:48:54Z</time></trkpt><trkpt lat="45.13908038693783" lon="9.339497110728658"><ele>59.0</ele><time>2026-04-19T11:48:55Z</time></trkpt><trkpt lat="45.13900626271858" lon="9.339551559510852"><ele>59.0</ele><time>2026-04-19T11:48:56Z</time></trkpt><trkpt lat="45.138942115463024" lon="9.339615665609548"><ele>59.00000000000001</ele><time>2026-04-19T11:48:57Z</time></trkpt><trkpt lat="45.138862491112896" lon="9.339666861859666"><ele>59.0</ele><time>2026-04-19T11:48:58Z</time></trkpt><trkpt lat="45.1387690358429" lon="9.339711725696638"><ele>58.50000000000001</ele><time>2026-04-19T11:48:59Z</time></trkpt><trkpt lat="45.13867360256558" lon="9.339754125101694"><ele>58.0</ele><time>2026-04-19T11:49:00Z</time></trkpt><trkpt lat="45.138585253965026" lon="9.339801563260815"><ele>57.5</ele><time>2026-04-19T11:49:01Z</time></trkpt><trkpt lat="45.13852247268924" lon="9.339830931187263"><ele>57.0</ele><time>2026-04-19T11:49:02Z</time></trkpt><trkpt lat="45.13843576073962" lon="9.339859822053032"><ele>56.50000000000001</ele><time>2026-04-19T11:49:03Z</time></trkpt><trkpt lat="45.138345115061554" lon="9.339876145530942"><ele>56.0</ele><time>2026-04-19T11:49:04Z</time></trkpt><trkpt lat="45.13827256675863" lon="9.339892687041225"><ele>57.00000000000001</ele><time>2026-04-19T11:49:05Z</time></trkpt><trkpt lat="45.13820944739758" lon="9.339906954423842"><ele>58.0</ele><time>2026-04-19T11:49:06Z</time></trkpt><trkpt lat="45.13814183792146" lon="9.339935196346131"><ele>59.0</ele><time>2026-04-19T11:49:07Z</time></trkpt><trkpt lat="45.138061086085195" lon="9.339963705288305"><ele>60.0</ele><time>2026-04-19T11:49:08Z</time></trkpt><trkpt lat="45.13797424458576" lon="9.339975191921383"><ele>61.00000000000001</ele><time>2026-04-19T11:49:09Z</time></trkpt><trkpt lat="45.13788215128393" lon="9.33997440946188"><ele>62.0</ele><time>2026-04-19T11:49:10Z</time></trkpt><trkpt lat="45.1377843202059" lon="9.33996141436901"><ele>62.0</ele><time>2026-04-19T11:49:11Z</time></trkpt><trkpt lat="45.13769240176331" lon="9.339959590191617"><ele>62.0</ele><time>2026-04-19T11:49:12Z</time></trkpt><trkpt lat="45.137581326042" lon="9.339949436571015"><ele>62.0</ele><time>2026-04-19T11:49:13Z</time></trkpt><trkpt lat="45.13748990058897" lon="9.339951927317227"><ele>62.0</ele><time>2026-04-19T11:49:14Z</time></trkpt><trkpt lat="45.13739346227902" lon="9.339956411442321"><ele>62.0</ele><time>2026-04-19T11:49:15Z</time></trkpt><trkpt lat="45.13729471104052" lon="9.339945288448156"><ele>63.5</ele><time>2026-04-19T11:49:16Z</time></trkpt><trkpt lat="45.137192443583466" lon="9.33994733824721"><ele>65.0</ele><time>2026-04-19T11:49:17Z</time></trkpt><trkpt lat="45.13708359239707" lon="9.339938588712332"><ele>66.5</ele><time>2026-04-19T11:49:18Z</time></trkpt><trkpt lat="45.1369603072217" lon="9.3399122616657"><ele>68.0</ele><time>2026-04-19T11:49:19Z</time></trkpt><trkpt lat="45.13683858415342" lon="9.33988836756322"><ele>68.0</ele><time>2026-04-19T11:49:20Z</time></trkpt><trkpt lat="45.1367283454163" lon="9.339871036672276"><ele>68.0</ele><time>2026-04-19T11:49:21Z</time></trkpt><trkpt lat="45.136607474137456" lon="9.339855290400225"><ele>68.0</ele><time>2026-04-19T11:49:22Z</time></trkpt><trkpt lat="45.136492631046615" lon="9.339844321518541"><ele>68.0</ele><time>2026-04-19T11:49:23Z</time></trkpt><trkpt lat="45.13638864074967" lon="9.339851623088174"><ele>67.8</ele><time>2026-04-19T11:49:24Z</time></trkpt><trkpt lat="45.13627083975641" lon="9.339826267123831"><ele>67.6</ele><time>2026-04-19T11:49:25Z</time></trkpt><trkpt lat="45.136161442258214" lon="9.339801448519784"><ele>67.4</ele><time>2026-04-19T11:49:26Z</time></trkpt><trkpt lat="45.13606506208141" lon="9.339796815894015"><ele>67.2</ele><time>2026-04-19T11:49:27Z</time></trkpt><trkpt lat="45.13597461177563" lon="9.339792554190415"><ele>67.0</ele><time>2026-04-19T11:49:28.001Z</time></trkpt><trkpt lat="45.1358841790534" lon="9.33978123085164"><ele>67.0</ele><time>2026-04-19T11:49:29.001Z</time></trkpt><trkpt lat="45.13580235070131" lon="9.339778165107395"><ele>67.0</ele><time>2026-04-19T11:49:30.001Z</time></trkpt><trkpt lat="45.13572904106449" lon="9.339767377545076"><ele>67.0</ele><time>2026-04-19T11:49:31.001Z</time></trkpt><trkpt lat="45.13564073550862" lon="9.33975157212952"><ele>67.0</ele><time>2026-04-19T11:49:32.001Z</time></trkpt><trkpt lat="45.135564678635134" lon="9.339737706302849"><ele>67.0</ele><time>2026-04-19T11:49:33.001Z</time></trkpt><trkpt lat="45.13547297846434" lon="9.33973738336484"><ele>67.0</ele><time>2026-04-19T11:49:34.001Z</time></trkpt><trkpt lat="45.13538618201977" lon="9.339736775656023"><ele>67.0</ele><time>2026-04-19T11:49:35.001Z</time></trkpt><trkpt lat="45.13530997550938" lon="9.339728839545103"><ele>67.0</ele><time>2026-04-19T11:49:36.001Z</time></trkpt><trkpt lat="45.13522485313566" lon="9.339731474385804"><ele>67.0</ele><time>2026-04-19T11:49:37.001Z</time></trkpt><trkpt lat="45.1351309853348" lon="9.339734784716013"><ele>67.0</ele><time>2026-04-19T11:49:38.001Z</time></trkpt><trkpt lat="45.13505283712101" lon="9.339728155294681"><ele>67.0</ele><time>2026-04-19T11:49:39.001Z</time></trkpt><trkpt lat="45.13498779035836" lon="9.339721425156759"><ele>67.0</ele><time>2026-04-19T11:49:40.001Z</time></trkpt><trkpt lat="45.13490905116754" lon="9.339713602376415"><ele>66.83333333333333</ele><time>2026-04-19T11:49:41.001Z</time></trkpt><trkpt lat="45.13481772594994" lon="9.339751563062894"><ele>66.66666666666666</ele><time>2026-04-19T11:49:42.001Z</time></trkpt><trkpt lat="45.13475298493335" lon="9.339774791546311"><ele>66.5</ele><time>2026-04-19T11:49:43.001Z</time></trkpt><trkpt lat="45.13465227484047" lon="9.339797054722712"><ele>66.33333333333333</ele><time>2026-04-19T11:49:45.001Z</time></trkpt><trkpt lat="45.13458338633872" lon="9.339743247400548"><ele>66.16666666666667</ele><time>2026-04-19T11:49:47.001Z</time></trkpt><trkpt lat="45.13451290925581" lon="9.339690492568652"><ele>66.0</ele><time>2026-04-19T11:49:48.001Z</time></trkpt><trkpt lat="45.13445317195946" lon="9.339643716872466"><ele>64.5</ele><time>2026-04-19T11:49:49.001Z</time></trkpt><trkpt lat="45.13439658723359" lon="9.339594736159594"><ele>63.0</ele><time>2026-04-19T11:49:50.001Z</time></trkpt><trkpt lat="45.13429274320175" lon="9.339574650930754"><ele>61.5</ele><time>2026-04-19T11:49:52.001Z</time></trkpt><trkpt lat="45.13420138927761" lon="9.33958845697657"><ele>60.0</ele><time>2026-04-19T11:49:53.001Z</time></trkpt><trkpt lat="45.13412007620263" lon="9.339587141360687"><ele>58.5</ele><time>2026-04-19T11:49:54.001Z</time></trkpt><trkpt lat="45.13403055473108" lon="9.339607552196416"><ele>57.0</ele><time>2026-04-19T11:49:55.001Z</time></trkpt><trkpt lat="45.13392997132501" lon="9.339608672623951"><ele>57.0</ele><time>2026-04-19T11:49:56.001Z</time></trkpt><trkpt lat="45.13383641545598" lon="9.339621599026364"><ele>57.0</ele><time>2026-04-19T11:49:57.001Z</time></trkpt><trkpt lat="45.133726617141974" lon="9.339637801497426"><ele>57.0</ele><time>2026-04-19T11:49:58.001Z</time></trkpt><trkpt lat="45.133604953264076" lon="9.339651747757921"><ele>57.0</ele><time>2026-04-19T11:49:59.001Z</time></trkpt><trkpt lat="45.13347426266362" lon="9.339664014954769"><ele>57.0</ele><time>2026-04-19T11:50:00.001Z</time></trkpt><trkpt lat="45.13334700552465" lon="9.339674899747175"><ele>57.0</ele><time>2026-04-19T11:50:01.001Z</time></trkpt><trkpt lat="45.133237765848975" lon="9.339682081340563"><ele>57.0</ele><time>2026-04-19T11:50:02.001Z</time></trkpt><trkpt lat="45.133107609357936" lon="9.339684785581934"><ele>57.0</ele><time>2026-04-19T11:50:03.001Z</time></trkpt><trkpt lat="45.132977119969986" lon="9.339690577053737"><ele>56.75</ele><time>2026-04-19T11:50:04.001Z</time></trkpt><trkpt lat="45.132844366762704" lon="9.339694862357257"><ele>56.5</ele><time>2026-04-19T11:50:05.001Z</time></trkpt><trkpt lat="45.132733290958576" lon="9.339692939260384"><ele>56.25</ele><time>2026-04-19T11:50:06.001Z</time></trkpt><trkpt lat="45.13261841620605" lon="9.339694708286778"><ele>56.0</ele><time>2026-04-19T11:50:07.001Z</time></trkpt><trkpt lat="45.13250339962993" lon="9.339700147800285"><ele>56.0</ele><time>2026-04-19T11:50:08.001Z</time></trkpt><trkpt lat="45.13239470426068" lon="9.339684712954604"><ele>56.0</ele><time>2026-04-19T11:50:09.001Z</time></trkpt><trkpt lat="45.132270669580784" lon="9.339674600973376"><ele>56.0</ele><time>2026-04-19T11:50:10.001Z</time></trkpt><trkpt lat="45.132153483685194" lon="9.339663491277244"><ele>56.0</ele><time>2026-04-19T11:50:11.001Z</time></trkpt><trkpt lat="45.13203643871543" lon="9.339649413024961"><ele>56.0</ele><time>2026-04-19T11:50:12.001Z</time></trkpt><trkpt lat="45.13193933411806" lon="9.339631754108163"><ele>55.99999999999999</ele><time>2026-04-19T11:50:13.001Z</time></trkpt><trkpt lat="45.13184687097723" lon="9.339627696797045"><ele>55.99999999999999</ele><time>2026-04-19T11:50:14.001Z</time></trkpt><trkpt lat="45.13175203212021" lon="9.339616181883313"><ele>56.0</ele><time>2026-04-19T11:50:15.001Z</time></trkpt><trkpt lat="45.1316351220767" lon="9.339604722576398"><ele>56.0</ele><time>2026-04-19T11:50:16.001Z</time></trkpt><trkpt lat="45.13152301162077" lon="9.33958929824781"><ele>56.4</ele><time>2026-04-19T11:50:17.001Z</time></trkpt><trkpt lat="45.13143789726746" lon="9.339581411775049"><ele>56.8</ele><time>2026-04-19T11:50:18.001Z</time></trkpt><trkpt lat="45.13136717185394" lon="9.339567604031867"><ele>57.199999999999996</ele><time>2026-04-19T11:50:19.001Z</time></trkpt><trkpt lat="45.13130407763615" lon="9.339553772039723"><ele>57.599999999999994</ele><time>2026-04-19T11:50:20.001Z</time></trkpt><trkpt lat="45.13118897213371" lon="9.339532441265467"><ele>58.0</ele><time>2026-04-19T11:50:22.001Z</time></trkpt><trkpt lat="45.13106491222431" lon="9.33950219405419"><ele>57.99999999999999</ele><time>2026-04-19T11:50:24.001Z</time></trkpt><trkpt lat="45.130992354814914" lon="9.339496687301155"><ele>58.0</ele><time>2026-04-19T11:50:25.001Z</time></trkpt><trkpt lat="45.130928530884155" lon="9.339502102842642"><ele>58.0</ele><time>2026-04-19T11:50:26.001Z</time></trkpt><trkpt lat="45.13085053202591" lon="9.339552940637683"><ele>58.0</ele><time>2026-04-19T11:50:28.001Z</time></trkpt><trkpt lat="45.13078073119767" lon="9.339568887042441"><ele>57.99999999999999</ele><time>2026-04-19T11:50:30.001Z</time></trkpt><trkpt lat="45.130720760950645" lon="9.339382353423838"><ele>58.0</ele><time>2026-04-19T11:50:35.001Z</time></trkpt><trkpt lat="45.13076676560554" lon="9.339261406536233"><ele>58.0</ele><time>2026-04-19T11:50:37.001Z</time></trkpt><trkpt lat="45.13078679479939" lon="9.33914264369739"><ele>58.0</ele><time>2026-04-19T11:50:39.001Z</time></trkpt><trkpt lat="45.13080700258522" lon="9.33900976025636"><ele>58.0</ele><time>2026-04-19T11:50:41.001Z</time></trkpt><trkpt lat="45.130842043559255" lon="9.338865589918631"><ele>58.0</ele><time>2026-04-19T11:50:43.001Z</time></trkpt><trkpt lat="45.13087272481424" lon="9.338785716571046"><ele>58.0</ele><time>2026-04-19T11:50:44.001Z</time></trkpt><trkpt lat="45.13091693745953" lon="9.338632587231025"><ele>57.666666666666664</ele><time>2026-04-19T11:50:46.001Z</time></trkpt><trkpt lat="45.13096845540665" lon="9.338517047011134"><ele>57.33333333333333</ele><time>2026-04-19T11:50:48.002Z</time></trkpt><trkpt lat="45.13101162027975" lon="9.338381878010935"><ele>57.0</ele><time>2026-04-19T11:50:50.002Z</time></trkpt><trkpt lat="45.13102220322489" lon="9.338290470592675"><ele>56.66666666666667</ele><time>2026-04-19T11:50:51.002Z</time></trkpt><trkpt lat="45.13106326329552" lon="9.338212791817812"><ele>56.333333333333336</ele><time>2026-04-19T11:50:52.002Z</time></trkpt><trkpt lat="45.13109301253745" lon="9.33811538880403"><ele>56.0</ele><time>2026-04-19T11:50:53.002Z</time></trkpt><trkpt lat="45.131116222907536" lon="9.337996900016226"><ele>56.0</ele><time>2026-04-19T11:50:54.002Z</time></trkpt><trkpt lat="45.131163835444596" lon="9.337873371065813"><ele>55.99999999999999</ele><time>2026-04-19T11:50:55.002Z</time></trkpt><trkpt lat="45.131193817300314" lon="9.337710107180207"><ele>55.99999999999999</ele><time>2026-04-19T11:50:56.002Z</time></trkpt><trkpt lat="45.13123032842329" lon="9.337568401558725"><ele>56.0</ele><time>2026-04-19T11:50:57.002Z</time></trkpt><trkpt lat="45.13126979554967" lon="9.337425105050587"><ele>56.0</ele><time>2026-04-19T11:50:58.002Z</time></trkpt><trkpt lat="45.131280133586536" lon="9.337291676241191"><ele>56.00000000000001</ele><time>2026-04-19T11:50:59.001Z</time></trkpt><trkpt lat="45.13127995337764" lon="9.337162426425383"><ele>56.0</ele><time>2026-04-19T11:51:00.001Z</time></trkpt><trkpt lat="45.13127005078436" lon="9.337027295684829"><ele>56.0</ele><time>2026-04-19T11:51:01.001Z</time></trkpt><trkpt lat="45.13124490225618" lon="9.336923214987547"><ele>56.0</ele><time>2026-04-19T11:51:02.001Z</time></trkpt><trkpt lat="45.1312289758629" lon="9.336817468487007"><ele>56.00000000000001</ele><time>2026-04-19T11:51:03.001Z</time></trkpt><trkpt lat="45.13122360319342" lon="9.336725365156054"><ele>56.0</ele><time>2026-04-19T11:51:04.001Z</time></trkpt><trkpt lat="45.13121229008977" lon="9.336632572229153"><ele>56.00000000000001</ele><time>2026-04-19T11:51:05.001Z</time></trkpt><trkpt lat="45.13119324244463" lon="9.336467029990585"><ele>56.0</ele><time>2026-04-19T11:51:07.001Z</time></trkpt><trkpt lat="45.13117759973744" lon="9.336332688590911"><ele>56.0</ele><time>2026-04-19T11:51:09.001Z</time></trkpt><trkpt lat="45.13116454984145" lon="9.336236782336883"><ele>56.0</ele><time>2026-04-19T11:51:11.001Z</time></trkpt><trkpt lat="45.13115072531036" lon="9.336143735272607"><ele>56.00000000000001</ele><time>2026-04-19T11:52:36.001Z</time></trkpt><trkpt lat="45.131168048169464" lon="9.336238648603647"><ele>56.0</ele><time>2026-04-19T11:59:58Z</time></trkpt><trkpt lat="45.13111649714974" lon="9.336173566297894"><ele>55.833333333333336</ele><time>2026-04-19T12:00:19Z</time></trkpt><trkpt lat="45.13112269487346" lon="9.336264735171627"><ele>55.66666666666667</ele><time>2026-04-19T12:06:16Z</time></trkpt><trkpt lat="45.131121122760824" lon="9.336126320217161"><ele>55.5</ele><time>2026-04-19T12:11:52.002Z</time></trkpt><trkpt lat="45.131102031802946" lon="9.336236000472724"><ele>55.33333333333333</ele><time>2026-04-19T12:14:08.996Z</time></trkpt><trkpt lat="45.13112933611205" lon="9.336151335791234"><ele>55.166666666666664</ele><time>2026-04-19T12:15:16Z</time></trkpt><trkpt lat="45.13106754310453" lon="9.336130428272009"><ele>55.0</ele><time>2026-04-19T12:24:49Z</time></trkpt><trkpt lat="45.13108980614962" lon="9.335990764100812"><ele>55.0</ele><time>2026-04-19T12:26:54.001Z</time></trkpt><trkpt lat="45.13107932604901" lon="9.335888038994815"><ele>55.0</ele><time>2026-04-19T12:26:55.001Z</time></trkpt><trkpt lat="45.13105810254405" lon="9.335767530761132"><ele>55.0</ele><time>2026-04-19T12:26:56.001Z</time></trkpt><trkpt lat="45.13107529381137" lon="9.335625907942468"><ele>55.0</ele><time>2026-04-19T12:26:57.001Z</time></trkpt><trkpt lat="45.13104737792953" lon="9.33549032333323"><ele>55.0</ele><time>2026-04-19T12:26:58.001Z</time></trkpt><trkpt lat="45.131007812158025" lon="9.335342992055184"><ele>55.5</ele><time>2026-04-19T12:26:59.001Z</time></trkpt><trkpt lat="45.13095373697929" lon="9.335194473159463"><ele>56.0</ele><time>2026-04-19T12:27:00.001Z</time></trkpt><trkpt lat="45.1309229687098" lon="9.335052185033499"><ele>56.5</ele><time>2026-04-19T12:27:01.001Z</time></trkpt><trkpt lat="45.13090335646592" lon="9.334899866552018"><ele>57.0</ele><time>2026-04-19T12:27:02.001Z</time></trkpt><trkpt lat="45.13087221832164" lon="9.334729525151774"><ele>57.25</ele><time>2026-04-19T12:27:03.001Z</time></trkpt><trkpt lat="45.130872720304204" lon="9.334547331958555"><ele>57.5</ele><time>2026-04-19T12:27:04.001Z</time></trkpt><trkpt lat="45.13085980595443" lon="9.334367099475152"><ele>57.75</ele><time>2026-04-19T12:27:05.001Z</time></trkpt><trkpt lat="45.13084571445308" lon="9.334170438700903"><ele>58.0</ele><time>2026-04-19T12:27:06.001Z</time></trkpt><trkpt lat="45.13083210222564" lon="9.33398046664349"><ele>58.25</ele><time>2026-04-19T12:27:07.001Z</time></trkpt><trkpt lat="45.130819321176304" lon="9.333794013217497"><ele>58.5</ele><time>2026-04-19T12:27:08.001Z</time></trkpt><trkpt lat="45.130791559078325" lon="9.333603689706901"><ele>58.75</ele><time>2026-04-19T12:27:09.001Z</time></trkpt><trkpt lat="45.13078051965297" lon="9.333413063084885"><ele>59.0</ele><time>2026-04-19T12:27:10.001Z</time></trkpt><trkpt lat="45.13076713046032" lon="9.333215159102656"><ele>59.0</ele><time>2026-04-19T12:27:11.001Z</time></trkpt><trkpt lat="45.13075607840882" lon="9.333016481982654"><ele>59.0</ele><time>2026-04-19T12:27:12.001Z</time></trkpt><trkpt lat="45.130759192756116" lon="9.33281906901797"><ele>59.0</ele><time>2026-04-19T12:27:13.001Z</time></trkpt><trkpt lat="45.13073073194984" lon="9.33261556357673"><ele>59.0</ele><time>2026-04-19T12:27:14.001Z</time></trkpt><trkpt lat="45.13071960711506" lon="9.332423058815225"><ele>59.0</ele><time>2026-04-19T12:27:15.001Z</time></trkpt><trkpt lat="45.13070819289068" lon="9.332229778464422"><ele>59.0</ele><time>2026-04-19T12:27:16.001Z</time></trkpt><trkpt lat="45.1306945113493" lon="9.332032239883663"><ele>59.0</ele><time>2026-04-19T12:27:17.001Z</time></trkpt><trkpt lat="45.1306951044157" lon="9.331836347371329"><ele>59.0</ele><time>2026-04-19T12:27:18.001Z</time></trkpt><trkpt lat="45.130684804797234" lon="9.331663329067448"><ele>59.0</ele><time>2026-04-19T12:27:19.001Z</time></trkpt><trkpt lat="45.130673505823765" lon="9.331517442392443"><ele>59.00000000000001</ele><time>2026-04-19T12:27:20.001Z</time></trkpt><trkpt lat="45.130641852220414" lon="9.331394670166885"><ele>59.00000000000001</ele><time>2026-04-19T12:27:21.001Z</time></trkpt><trkpt lat="45.1306321176098" lon="9.33126789577787"><ele>59.0</ele><time>2026-04-19T12:27:22.001Z</time></trkpt><trkpt lat="45.130595296931624" lon="9.331156763205046"><ele>59.0</ele><time>2026-04-19T12:27:23.001Z</time></trkpt><trkpt lat="45.13050789886655" lon="9.331077649330362"><ele>59.5</ele><time>2026-04-19T12:27:24.001Z</time></trkpt><trkpt lat="45.13042078231134" lon="9.330988455141137"><ele>60.0</ele><time>2026-04-19T12:27:25.001Z</time></trkpt><trkpt lat="45.130324551036146" lon="9.330872031720723"><ele>60.5</ele><time>2026-04-19T12:27:26.001Z</time></trkpt><trkpt lat="45.130211249376295" lon="9.330792715607558"><ele>61.0</ele><time>2026-04-19T12:27:27.001Z</time></trkpt><trkpt lat="45.13009847944092" lon="9.330683703952413"><ele>61.0</ele><time>2026-04-19T12:27:28.001Z</time></trkpt><trkpt lat="45.12998265679921" lon="9.330582587838098"><ele>61.0</ele><time>2026-04-19T12:27:29.001Z</time></trkpt><trkpt lat="45.129862147750806" lon="9.33047431794493"><ele>61.0</ele><time>2026-04-19T12:27:30.001Z</time></trkpt><trkpt lat="45.12973564634677" lon="9.330367911448619"><ele>61.0</ele><time>2026-04-19T12:27:31.001Z</time></trkpt><trkpt lat="45.1296117918557" lon="9.330259705231951"><ele>60.75</ele><time>2026-04-19T12:27:32.001Z</time></trkpt><trkpt lat="45.12949008289092" lon="9.330153664440711"><ele>60.5</ele><time>2026-04-19T12:27:33.001Z</time></trkpt><trkpt lat="45.129389324655435" lon="9.330037080990516"><ele>60.25</ele><time>2026-04-19T12:27:34.001Z</time></trkpt><trkpt lat="45.129290716726615" lon="9.329945460281383"><ele>60.0</ele><time>2026-04-19T12:27:35.001Z</time></trkpt><trkpt lat="45.1291922002652" lon="9.329853924555794"><ele>60.0</ele><time>2026-04-19T12:27:36.001Z</time></trkpt><trkpt lat="45.1290857972427" lon="9.329775572655397"><ele>60.0</ele><time>2026-04-19T12:27:37.001Z</time></trkpt><trkpt lat="45.12898550508126" lon="9.329672947013904"><ele>60.0</ele><time>2026-04-19T12:27:38.001Z</time></trkpt><trkpt lat="45.12889013082989" lon="9.329584085272067"><ele>60.0</ele><time>2026-04-19T12:27:39.001Z</time></trkpt><trkpt lat="45.12880414415707" lon="9.329476442430371"><ele>60.5</ele><time>2026-04-19T12:27:40.001Z</time></trkpt><trkpt lat="45.12872574279437" lon="9.329338026820192"><ele>61.0</ele><time>2026-04-19T12:27:41.001Z</time></trkpt><trkpt lat="45.12864444450127" lon="9.329160982562016"><ele>61.5</ele><time>2026-04-19T12:27:42.001Z</time></trkpt><trkpt lat="45.128553347623544" lon="9.328993836955293"><ele>62.0</ele><time>2026-04-19T12:27:43.001Z</time></trkpt><trkpt lat="45.12846748216286" lon="9.32880249057848"><ele>62.0</ele><time>2026-04-19T12:27:44.001Z</time></trkpt><trkpt lat="45.128378574889474" lon="9.328614091727273"><ele>62.0</ele><time>2026-04-19T12:27:45.001Z</time></trkpt><trkpt lat="45.12830388044217" lon="9.32840930431731"><ele>62.0</ele><time>2026-04-19T12:27:46.001Z</time></trkpt><trkpt lat="45.128214611685166" lon="9.328215262331742"><ele>62.66666666666667</ele><time>2026-04-19T12:27:47.001Z</time></trkpt><trkpt lat="45.12811015204412" lon="9.328031462082913"><ele>63.33333333333333</ele><time>2026-04-19T12:27:48.001Z</time></trkpt><trkpt lat="45.1280290895011" lon="9.327812628583219"><ele>64.0</ele><time>2026-04-19T12:27:49.002Z</time></trkpt><trkpt lat="45.1279341236714" lon="9.327609715120122"><ele>64.0</ele><time>2026-04-19T12:27:50.002Z</time></trkpt><trkpt lat="45.12783748898111" lon="9.327420703948517"><ele>64.0</ele><time>2026-04-19T12:27:51.002Z</time></trkpt><trkpt lat="45.127734955862564" lon="9.327244797084147"><ele>64.0</ele><time>2026-04-19T12:27:52.002Z</time></trkpt><trkpt lat="45.12762838315486" lon="9.327083282087191"><ele>63.666666666666664</ele><time>2026-04-19T12:27:53.002Z</time></trkpt><trkpt lat="45.1275133280336" lon="9.326924424481895"><ele>63.33333333333333</ele><time>2026-04-19T12:27:54.002Z</time></trkpt><trkpt lat="45.12739521504509" lon="9.326772288550362"><ele>63.0</ele><time>2026-04-19T12:27:55.002Z</time></trkpt><trkpt lat="45.12728371269143" lon="9.326632339601444"><ele>63.0</ele><time>2026-04-19T12:27:56.002Z</time></trkpt><trkpt lat="45.12717568717062" lon="9.32649538957527"><ele>63.0</ele><time>2026-04-19T12:27:57.002Z</time></trkpt><trkpt lat="45.127071847309686" lon="9.326361890303026"><ele>63.0</ele><time>2026-04-19T12:27:58.002Z</time></trkpt><trkpt lat="45.12696111398064" lon="9.326230486436982"><ele>63.0</ele><time>2026-04-19T12:27:59.002Z</time></trkpt><trkpt lat="45.12683323450162" lon="9.32612215606976"><ele>63.0</ele><time>2026-04-19T12:28:00.002Z</time></trkpt><trkpt lat="45.12668526992166" lon="9.326071906471702"><ele>63.0</ele><time>2026-04-19T12:28:01.002Z</time></trkpt><trkpt lat="45.12653636179882" lon="9.326001058400713"><ele>63.0</ele><time>2026-04-19T12:28:02.002Z</time></trkpt><trkpt lat="45.12640196077704" lon="9.325917254206942"><ele>62.75</ele><time>2026-04-19T12:28:03.002Z</time></trkpt><trkpt lat="45.12626848885875" lon="9.32586011715396"><ele>62.5</ele><time>2026-04-19T12:28:04.002Z</time></trkpt><trkpt lat="45.12614150438371" lon="9.325815428987887"><ele>62.25</ele><time>2026-04-19T12:28:05.002Z</time></trkpt><trkpt lat="45.126023074895954" lon="9.325789451725202"><ele>62.0</ele><time>2026-04-19T12:28:06.002Z</time></trkpt><trkpt lat="45.12590506110651" lon="9.325769048859685"><ele>62.0</ele><time>2026-04-19T12:28:07.002Z</time></trkpt><trkpt lat="45.125797968617086" lon="9.325756975545328"><ele>62.0</ele><time>2026-04-19T12:28:08.002Z</time></trkpt><trkpt lat="45.12569157866653" lon="9.325743439395122"><ele>62.0</ele><time>2026-04-19T12:28:09.002Z</time></trkpt><trkpt lat="45.12558166088735" lon="9.325741433276205"><ele>62.0</ele><time>2026-04-19T12:28:10.002Z</time></trkpt><trkpt lat="45.12546561310667" lon="9.325732514281412"><ele>62.0</ele><time>2026-04-19T12:28:11.002Z</time></trkpt><trkpt lat="45.12535004627749" lon="9.325724515867265"><ele>61.5</ele><time>2026-04-19T12:28:12.002Z</time></trkpt><trkpt lat="45.12522880887423" lon="9.325715991478258"><ele>61.0</ele><time>2026-04-19T12:28:13.002Z</time></trkpt><trkpt lat="45.125108313641526" lon="9.325688819830095"><ele>60.5</ele><time>2026-04-19T12:28:14.002Z</time></trkpt><trkpt lat="45.124985761652546" lon="9.32570190085801"><ele>60.0</ele><time>2026-04-19T12:28:15.002Z</time></trkpt><trkpt lat="45.124859414211045" lon="9.325667650547906"><ele>59.5</ele><time>2026-04-19T12:28:16.002Z</time></trkpt><trkpt lat="45.124725560277476" lon="9.325655536596393"><ele>59.0</ele><time>2026-04-19T12:28:17.002Z</time></trkpt><trkpt lat="45.12458438015139" lon="9.325641897096299"><ele>58.5</ele><time>2026-04-19T12:28:18.002Z</time></trkpt><trkpt lat="45.124437632740815" lon="9.325643224176563"><ele>58.0</ele><time>2026-04-19T12:28:19.002Z</time></trkpt><trkpt lat="45.124290453510156" lon="9.325633171751413"><ele>58.0</ele><time>2026-04-19T12:28:20.002Z</time></trkpt><trkpt lat="45.12414586822637" lon="9.325590939764705"><ele>58.0</ele><time>2026-04-19T12:28:21.002Z</time></trkpt><trkpt lat="45.12399683750242" lon="9.325561049109494"><ele>58.0</ele><time>2026-04-19T12:28:22.002Z</time></trkpt><trkpt lat="45.12383846266646" lon="9.325522334997258"><ele>58.666666666666664</ele><time>2026-04-19T12:28:23.002Z</time></trkpt><trkpt lat="45.123673894365965" lon="9.325477167086271"><ele>59.33333333333333</ele><time>2026-04-19T12:28:24.002Z</time></trkpt><trkpt lat="45.12351199458005" lon="9.325431451975152"><ele>60.0</ele><time>2026-04-19T12:28:25.002Z</time></trkpt><trkpt lat="45.12333811294819" lon="9.325372745741273"><ele>59.33333333333333</ele><time>2026-04-19T12:28:26.002Z</time></trkpt><trkpt lat="45.12316859943477" lon="9.325305353429293"><ele>58.666666666666664</ele><time>2026-04-19T12:28:27.002Z</time></trkpt><trkpt lat="45.122996372105106" lon="9.32522921472844"><ele>58.0</ele><time>2026-04-19T12:28:28.002Z</time></trkpt><trkpt lat="45.12282762292057" lon="9.325152763850692"><ele>58.0</ele><time>2026-04-19T12:28:29.002Z</time></trkpt><trkpt lat="45.122654434478335" lon="9.325068603590505"><ele>58.0</ele><time>2026-04-19T12:28:30.002Z</time></trkpt><trkpt lat="45.12247532103258" lon="9.324981564072788"><ele>58.0</ele><time>2026-04-19T12:28:31.002Z</time></trkpt><trkpt lat="45.1223091409587" lon="9.324900809475535"><ele>58.0</ele><time>2026-04-19T12:28:32.002Z</time></trkpt><trkpt lat="45.12213749160064" lon="9.324817397109008"><ele>58.0</ele><time>2026-04-19T12:28:33.002Z</time></trkpt><trkpt lat="45.12197454425563" lon="9.324738213451912"><ele>58.0</ele><time>2026-04-19T12:28:34.002Z</time></trkpt><trkpt lat="45.121818716908315" lon="9.324658498701542"><ele>58.0</ele><time>2026-04-19T12:28:35.002Z</time></trkpt><trkpt lat="45.12166904070825" lon="9.324579189875369"><ele>58.0</ele><time>2026-04-19T12:28:36.002Z</time></trkpt><trkpt lat="45.12152645682272" lon="9.324503639253363"><ele>58.0</ele><time>2026-04-19T12:28:37.003Z</time></trkpt><trkpt lat="45.12137229990167" lon="9.324421956467214"><ele>57.666666666666664</ele><time>2026-04-19T12:28:38.003Z</time></trkpt><trkpt lat="45.12121972701772" lon="9.324341113002282"><ele>57.33333333333333</ele><time>2026-04-19T12:28:39.003Z</time></trkpt><trkpt lat="45.12106283068193" lon="9.324257978689888"><ele>57.0</ele><time>2026-04-19T12:28:40.003Z</time></trkpt><trkpt lat="45.12091211971201" lon="9.32417812179254"><ele>57.0</ele><time>2026-04-19T12:28:41.003Z</time></trkpt><trkpt lat="45.12076315178303" lon="9.324099188492372"><ele>57.0</ele><time>2026-04-19T12:28:42.003Z</time></trkpt><trkpt lat="45.12060190049149" lon="9.324013746620206"><ele>57.0</ele><time>2026-04-19T12:28:43.003Z</time></trkpt><trkpt lat="45.12045907680865" lon="9.323941265263842"><ele>57.25</ele><time>2026-04-19T12:28:44.003Z</time></trkpt><trkpt lat="45.12031831096734" lon="9.32387134976161"><ele>57.5</ele><time>2026-04-19T12:28:45.003Z</time></trkpt><trkpt lat="45.12018867621296" lon="9.323806962842099"><ele>57.75</ele><time>2026-04-19T12:28:46.003Z</time></trkpt><trkpt lat="45.12005597138784" lon="9.323741051080306"><ele>58.0</ele><time>2026-04-19T12:28:47.001Z</time></trkpt><trkpt lat="45.11992406855237" lon="9.323674929196688"><ele>58.0</ele><time>2026-04-19T12:28:48.001Z</time></trkpt><trkpt lat="45.11979040826295" lon="9.323607660661466"><ele>58.0</ele><time>2026-04-19T12:28:49.001Z</time></trkpt><trkpt lat="45.11967479936535" lon="9.323545647232706"><ele>58.0</ele><time>2026-04-19T12:28:50.001Z</time></trkpt><trkpt lat="45.11955998358793" lon="9.3234860412334"><ele>58.0</ele><time>2026-04-19T12:28:51.001Z</time></trkpt><trkpt lat="45.11946068834297" lon="9.323443716591749"><ele>58.0</ele><time>2026-04-19T12:28:52.001Z</time></trkpt><trkpt lat="45.119358309196926" lon="9.323408890234859"><ele>58.0</ele><time>2026-04-19T12:28:53.001Z</time></trkpt><trkpt lat="45.11925052455703" lon="9.323401873786"><ele>58.0</ele><time>2026-04-19T12:28:54.001Z</time></trkpt><trkpt lat="45.119144495909026" lon="9.32337030520309"><ele>58.0</ele><time>2026-04-19T12:28:55.001Z</time></trkpt><trkpt lat="45.11902732758801" lon="9.32338879629287"><ele>58.0</ele><time>2026-04-19T12:28:56.001Z</time></trkpt><trkpt lat="45.118898700124916" lon="9.323388760791607"><ele>57.5</ele><time>2026-04-19T12:28:57.001Z</time></trkpt><trkpt lat="45.11878608434479" lon="9.32339364632748"><ele>57.0</ele><time>2026-04-19T12:28:58.001Z</time></trkpt><trkpt lat="45.118681805535566" lon="9.3233775302337"><ele>56.5</ele><time>2026-04-19T12:28:59.001Z</time></trkpt><trkpt lat="45.118570288693185" lon="9.323397528653844"><ele>56.0</ele><time>2026-04-19T12:29:00.001Z</time></trkpt><trkpt lat="45.11844514971182" lon="9.323415019777823"><ele>56.0</ele><time>2026-04-19T12:29:01.001Z</time></trkpt><trkpt lat="45.11833672546365" lon="9.3234259008105"><ele>55.99999999999999</ele><time>2026-04-19T12:29:02.001Z</time></trkpt><trkpt lat="45.11824419206729" lon="9.323432144199263"><ele>55.99999999999999</ele><time>2026-04-19T12:29:03.001Z</time></trkpt><trkpt lat="45.11815929982443" lon="9.323399056112617"><ele>56.0</ele><time>2026-04-19T12:29:04.001Z</time></trkpt><trkpt lat="45.11808631363194" lon="9.32336026236525"><ele>56.0</ele><time>2026-04-19T12:29:05.001Z</time></trkpt><trkpt lat="45.117987177935376" lon="9.323370005825575"><ele>55.333333333333336</ele><time>2026-04-19T12:29:06.001Z</time></trkpt><trkpt lat="45.11791121420779" lon="9.323509584510221"><ele>54.66666666666667</ele><time>2026-04-19T12:29:07.001Z</time></trkpt><trkpt lat="45.1178451083206" lon="9.323554876425002"><ele>54.0</ele><time>2026-04-19T12:29:08.001Z</time></trkpt><trkpt lat="45.1178009515938" lon="9.323629722517621"><ele>53.33333333333333</ele><time>2026-04-19T12:29:09.001Z</time></trkpt><trkpt lat="45.11773987679502" lon="9.323666582267288"><ele>52.666666666666664</ele><time>2026-04-19T12:29:10.001Z</time></trkpt><trkpt lat="45.117671269776125" lon="9.323722850784653"><ele>52.0</ele><time>2026-04-19T12:29:11.001Z</time></trkpt><trkpt lat="45.117585357497155" lon="9.32378540406524"><ele>52.0</ele><time>2026-04-19T12:29:12.001Z</time></trkpt><trkpt lat="45.117486234025975" lon="9.323850307184008"><ele>52.0</ele><time>2026-04-19T12:29:13.001Z</time></trkpt><trkpt lat="45.11739607317954" lon="9.323925056375417"><ele>52.0</ele><time>2026-04-19T12:29:14.001Z</time></trkpt><trkpt lat="45.117311881991746" lon="9.32399154809566"><ele>52.0</ele><time>2026-04-19T12:29:15.001Z</time></trkpt><trkpt lat="45.117233278423306" lon="9.324051982179514"><ele>52.0</ele><time>2026-04-19T12:29:16.001Z</time></trkpt><trkpt lat="45.11715062967613" lon="9.324107063908691"><ele>52.400000000000006</ele><time>2026-04-19T12:29:17.001Z</time></trkpt><trkpt lat="45.11707403808826" lon="9.324165424848891"><ele>52.800000000000004</ele><time>2026-04-19T12:29:18.001Z</time></trkpt><trkpt lat="45.11699987165068" lon="9.32422257587472"><ele>53.2</ele><time>2026-04-19T12:29:19.001Z</time></trkpt><trkpt lat="45.11692071448982" lon="9.324276573048346"><ele>53.6</ele><time>2026-04-19T12:29:20.001Z</time></trkpt><trkpt lat="45.11682695517687" lon="9.324338040644982"><ele>54.0</ele><time>2026-04-19T12:29:21.001Z</time></trkpt><trkpt lat="45.11674872143183" lon="9.324394125542788"><ele>54.0</ele><time>2026-04-19T12:29:22.001Z</time></trkpt><trkpt lat="45.11666223038657" lon="9.324441088848479"><ele>54.0</ele><time>2026-04-19T12:29:23.001Z</time></trkpt><trkpt lat="45.116576168759764" lon="9.324484389940958"><ele>54.0</ele><time>2026-04-19T12:29:24.001Z</time></trkpt><trkpt lat="45.116498780513965" lon="9.324532960705112"><ele>54.0</ele><time>2026-04-19T12:29:25.001Z</time></trkpt><trkpt lat="45.11645827506946" lon="9.324627232624685"><ele>54.0</ele><time>2026-04-19T12:29:26.001Z</time></trkpt><trkpt lat="45.11639573265843" lon="9.324667366867295"><ele>54.0</ele><time>2026-04-19T12:29:27.001Z</time></trkpt><trkpt lat="45.11633965476905" lon="9.324751461698565"><ele>53.833333333333336</ele><time>2026-04-19T12:29:28.001Z</time></trkpt><trkpt lat="45.11629563924008" lon="9.32482354150208"><ele>53.66666666666667</ele><time>2026-04-19T12:29:29.001Z</time></trkpt><trkpt lat="45.116252757036335" lon="9.32489343231023"><ele>53.5</ele><time>2026-04-19T12:29:30.001Z</time></trkpt><trkpt lat="45.11620469325377" lon="9.324978306881137"><ele>53.333333333333336</ele><time>2026-04-19T12:29:31.001Z</time></trkpt><trkpt lat="45.11614677092249" lon="9.325039631862605"><ele>53.16666666666667</ele><time>2026-04-19T12:29:32.001Z</time></trkpt><trkpt lat="45.116077365355636" lon="9.325070889630029"><ele>53.0</ele><time>2026-04-19T12:29:33.001Z</time></trkpt><trkpt lat="45.11598383293269" lon="9.32515053475481"><ele>53.0</ele><time>2026-04-19T12:29:35.001Z</time></trkpt><trkpt lat="45.11597283677778" lon="9.32529547625618"><ele>53.0</ele><time>2026-04-19T12:29:37.001Z</time></trkpt><trkpt lat="45.11598252970504" lon="9.325415131475976"><ele>53.0</ele><time>2026-04-19T12:29:38.001Z</time></trkpt><trkpt lat="45.115972264648484" lon="9.325562572960619"><ele>53.0</ele><time>2026-04-19T12:29:39.001Z</time></trkpt><trkpt lat="45.11596958400636" lon="9.325723060835927"><ele>53.0</ele><time>2026-04-19T12:29:40.001Z</time></trkpt><trkpt lat="45.115953153121424" lon="9.325887782898759"><ele>53.75</ele><time>2026-04-19T12:29:41.001Z</time></trkpt><trkpt lat="45.11593674519469" lon="9.326056494226938"><ele>54.5</ele><time>2026-04-19T12:29:42.001Z</time></trkpt><trkpt lat="45.115914855363165" lon="9.326235752975537"><ele>55.25</ele><time>2026-04-19T12:29:43.001Z</time></trkpt><trkpt lat="45.11589433716978" lon="9.326407132741737"><ele>56.0</ele><time>2026-04-19T12:29:44.001Z</time></trkpt><trkpt lat="45.11587548504495" lon="9.326571518181488"><ele>56.0</ele><time>2026-04-19T12:29:45.001Z</time></trkpt><trkpt lat="45.11585526002634" lon="9.326717676963147"><ele>55.99999999999999</ele><time>2026-04-19T12:29:46.001Z</time></trkpt><trkpt lat="45.115845941403535" lon="9.326861395379563"><ele>55.99999999999999</ele><time>2026-04-19T12:29:47.001Z</time></trkpt><trkpt lat="45.115825286434955" lon="9.327000225443804"><ele>56.0</ele><time>2026-04-19T12:29:48.001Z</time></trkpt><trkpt lat="45.11581433714014" lon="9.32715600446306"><ele>56.0</ele><time>2026-04-19T12:29:49.001Z</time></trkpt><trkpt lat="45.11579201280331" lon="9.327331548514664"><ele>56.0</ele><time>2026-04-19T12:29:50.001Z</time></trkpt><trkpt lat="45.1157688153869" lon="9.32750321762117"><ele>55.99999999999999</ele><time>2026-04-19T12:29:51.002Z</time></trkpt><trkpt lat="45.115745975363126" lon="9.327663492975605"><ele>55.99999999999999</ele><time>2026-04-19T12:29:52.002Z</time></trkpt><trkpt lat="45.11572845397809" lon="9.327803897053286"><ele>56.0</ele><time>2026-04-19T12:29:53.002Z</time></trkpt><trkpt lat="45.11571994862624" lon="9.327935458968078"><ele>56.0</ele><time>2026-04-19T12:29:54.002Z</time></trkpt><trkpt lat="45.115710527003564" lon="9.328070762181246"><ele>56.66666666666667</ele><time>2026-04-19T12:29:55.002Z</time></trkpt><trkpt lat="45.115700914944526" lon="9.328189678045382"><ele>57.333333333333336</ele><time>2026-04-19T12:29:56.002Z</time></trkpt><trkpt lat="45.11568805567216" lon="9.328304893694225"><ele>58.0</ele><time>2026-04-19T12:29:57.002Z</time></trkpt><trkpt lat="45.11567794365975" lon="9.328417117566701"><ele>58.66666666666667</ele><time>2026-04-19T12:29:58.002Z</time></trkpt><trkpt lat="45.11566170398002" lon="9.328542749448996"><ele>59.333333333333336</ele><time>2026-04-19T12:29:59.002Z</time></trkpt><trkpt lat="45.11565017841181" lon="9.328668717464035"><ele>60.0</ele><time>2026-04-19T12:30:00.002Z</time></trkpt><trkpt lat="45.11564210689881" lon="9.328788041371519"><ele>60.0</ele><time>2026-04-19T12:30:01.002Z</time></trkpt><trkpt lat="45.11563720007331" lon="9.328895023756564"><ele>60.0</ele><time>2026-04-19T12:30:02.002Z</time></trkpt><trkpt lat="45.115622812552864" lon="9.32904266106928"><ele>60.0</ele><time>2026-04-19T12:30:04.002Z</time></trkpt><trkpt lat="45.115578421877785" lon="9.329128430674848"><ele>60.0</ele><time>2026-04-19T12:30:06.002Z</time></trkpt><trkpt lat="45.11549137213419" lon="9.329148093028975"><ele>60.0</ele><time>2026-04-19T12:30:08.002Z</time></trkpt><trkpt lat="45.11536852265116" lon="9.32910064600943"><ele>60.0</ele><time>2026-04-19T12:30:10.002Z</time></trkpt><trkpt lat="45.11529287798446" lon="9.32909091601756"><ele>60.0</ele><time>2026-04-19T12:30:11.002Z</time></trkpt><trkpt lat="45.11520031683692" lon="9.329075856831315"><ele>60.0</ele><time>2026-04-19T12:30:12.002Z</time></trkpt><trkpt lat="45.11510654659153" lon="9.329061607705638"><ele>60.0</ele><time>2026-04-19T12:30:13.002Z</time></trkpt><trkpt lat="45.11501720500506" lon="9.329054405291648"><ele>60.0</ele><time>2026-04-19T12:30:14.002Z</time></trkpt><trkpt lat="45.11492454108826" lon="9.329043328827405"><ele>60.0</ele><time>2026-04-19T12:30:15.002Z</time></trkpt><trkpt lat="45.11483075716773" lon="9.329029229407485"><ele>59.8</ele><time>2026-04-19T12:30:16.002Z</time></trkpt><trkpt lat="45.11473361913103" lon="9.329012762653528"><ele>59.6</ele><time>2026-04-19T12:30:17.002Z</time></trkpt><trkpt lat="45.114615839703646" lon="9.32900030643886"><ele>59.400000000000006</ele><time>2026-04-19T12:30:18.002Z</time></trkpt><trkpt lat="45.114508785804624" lon="9.328985869677238"><ele>59.2</ele><time>2026-04-19T12:30:19.002Z</time></trkpt><trkpt lat="45.11440729707971" lon="9.328980118012149"><ele>59.0</ele><time>2026-04-19T12:30:20.002Z</time></trkpt><trkpt lat="45.114318615126116" lon="9.328972124941536"><ele>59.0</ele><time>2026-04-19T12:30:21.002Z</time></trkpt><trkpt lat="45.11423658205659" lon="9.328964223725233"><ele>59.00000000000001</ele><time>2026-04-19T12:30:22.002Z</time></trkpt><trkpt lat="45.1141661037153" lon="9.328988705153435"><ele>59.00000000000001</ele><time>2026-04-19T12:30:23.002Z</time></trkpt><trkpt lat="45.1140706628092" lon="9.328998883666982"><ele>59.0</ele><time>2026-04-19T12:30:24.002Z</time></trkpt><trkpt lat="45.11396822028484" lon="9.329044953175272"><ele>59.0</ele><time>2026-04-19T12:30:25.002Z</time></trkpt><trkpt lat="45.113868967099016" lon="9.329088613365073"><ele>58.800000000000004</ele><time>2026-04-19T12:30:26.002Z</time></trkpt><trkpt lat="45.113774037928316" lon="9.329107796539075"><ele>58.60000000000001</ele><time>2026-04-19T12:30:27.002Z</time></trkpt><trkpt lat="45.1136660663917" lon="9.329120003123629"><ele>58.4</ele><time>2026-04-19T12:30:28.002Z</time></trkpt><trkpt lat="45.1135552600321" lon="9.329137077111364"><ele>58.2</ele><time>2026-04-19T12:30:29.002Z</time></trkpt><trkpt lat="45.11344553211434" lon="9.329159774147827"><ele>58.0</ele><time>2026-04-19T12:30:30.002Z</time></trkpt><trkpt lat="45.11335029843617" lon="9.32918020107233"><ele>57.99999999999999</ele><time>2026-04-19T12:30:31.002Z</time></trkpt><trkpt lat="45.113268228570114" lon="9.3292130101311"><ele>58.0</ele><time>2026-04-19T12:30:32.002Z</time></trkpt><trkpt lat="45.113193243421236" lon="9.329238266634013"><ele>58.0</ele><time>2026-04-19T12:30:33.002Z</time></trkpt><trkpt lat="45.11308261277455" lon="9.329279677759745"><ele>58.0</ele><time>2026-04-19T12:30:35.002Z</time></trkpt><trkpt lat="45.11299732433283" lon="9.329346350424295"><ele>57.99999999999999</ele><time>2026-04-19T12:30:37.002Z</time></trkpt><trkpt lat="45.11294949394318" lon="9.329412463768021"><ele>58.0</ele><time>2026-04-19T12:30:39.002Z</time></trkpt><trkpt lat="45.112904584196116" lon="9.329476964964305"><ele>58.0</ele><time>2026-04-19T12:30:42.002Z</time></trkpt><trkpt lat="45.11282227525988" lon="9.329564902275358"><ele>58.0</ele><time>2026-04-19T12:30:51.003Z</time></trkpt><trkpt lat="45.112754888734656" lon="9.329691558366951"><ele>58.0</ele><time>2026-04-19T12:30:53.002Z</time></trkpt><trkpt lat="45.112701387369825" lon="9.329771997653262"><ele>58.0</ele><time>2026-04-19T12:30:54.002Z</time></trkpt><trkpt lat="45.11261551102352" lon="9.329891359120307"><ele>58.0</ele><time>2026-04-19T12:30:56.002Z</time></trkpt><trkpt lat="45.112533549918616" lon="9.330015866632051"><ele>57.33333333333333</ele><time>2026-04-19T12:30:58.002Z</time></trkpt><trkpt lat="45.11247853997694" lon="9.330093942084762"><ele>56.666666666666664</ele><time>2026-04-19T12:30:59.002Z</time></trkpt><trkpt lat="45.11242323046281" lon="9.330162221714751"><ele>56.0</ele><time>2026-04-19T12:31:00.002Z</time></trkpt><trkpt lat="45.11237425415676" lon="9.330224017840983"><ele>55.33333333333333</ele><time>2026-04-19T12:31:01.002Z</time></trkpt><trkpt lat="45.1123383736489" lon="9.330297622749873"><ele>54.666666666666664</ele><time>2026-04-19T12:31:02.001Z</time></trkpt><trkpt lat="45.11228263757309" lon="9.33046296241227"><ele>54.0</ele><time>2026-04-19T12:31:04.001Z</time></trkpt><trkpt lat="45.11221038444362" lon="9.330524014356984"><ele>53.6</ele><time>2026-04-19T12:31:05.001Z</time></trkpt><trkpt lat="45.11211755460919" lon="9.33061505567132"><ele>53.2</ele><time>2026-04-19T12:31:07.001Z</time></trkpt><trkpt lat="45.11204231184772" lon="9.33069743177"><ele>52.800000000000004</ele><time>2026-04-19T12:31:09.001Z</time></trkpt><trkpt lat="45.11196382718702" lon="9.330804939200673"><ele>52.400000000000006</ele><time>2026-04-19T12:31:11.001Z</time></trkpt><trkpt lat="45.11190033958257" lon="9.330904662216346"><ele>52.0</ele><time>2026-04-19T12:31:13.001Z</time></trkpt><trkpt lat="45.111839747153155" lon="9.331012376528168"><ele>52.0</ele><time>2026-04-19T12:31:15.001Z</time></trkpt><trkpt lat="45.11180242654942" lon="9.331094069151511"><ele>52.0</ele><time>2026-04-19T12:31:17.001Z</time></trkpt><trkpt lat="45.11175216380343" lon="9.331234629847225"><ele>52.0</ele><time>2026-04-19T12:31:19.001Z</time></trkpt><trkpt lat="45.11170279402853" lon="9.331399180866615"><ele>52.0</ele><time>2026-04-19T12:31:21.001Z</time></trkpt><trkpt lat="45.11165875579763" lon="9.331552899677021"><ele>52.0</ele><time>2026-04-19T12:31:23.001Z</time></trkpt><trkpt lat="45.11163632522362" lon="9.331642470651385"><ele>52.166666666666664</ele><time>2026-04-19T12:31:24.001Z</time></trkpt><trkpt lat="45.111614145286175" lon="9.331731529369577"><ele>52.33333333333333</ele><time>2026-04-19T12:31:25.001Z</time></trkpt><trkpt lat="45.11158881761785" lon="9.331833631508323"><ele>52.5</ele><time>2026-04-19T12:31:26.001Z</time></trkpt><trkpt lat="45.1115613462325" lon="9.33194437558133"><ele>52.66666666666667</ele><time>2026-04-19T12:31:27.001Z</time></trkpt><trkpt lat="45.11153281559567" lon="9.332059389706592"><ele>52.833333333333336</ele><time>2026-04-19T12:31:28.001Z</time></trkpt><trkpt lat="45.11150462500857" lon="9.332174900754959"><ele>53.0</ele><time>2026-04-19T12:31:29.001Z</time></trkpt><trkpt lat="45.1114812642274" lon="9.33227227039917"><ele>52.16666666666667</ele><time>2026-04-19T12:31:30.001Z</time></trkpt><trkpt lat="45.111463968255066" lon="9.332369857598861"><ele>51.333333333333336</ele><time>2026-04-19T12:31:31.001Z</time></trkpt><trkpt lat="45.111436032890516" lon="9.332481411232237"><ele>50.5</ele><time>2026-04-19T12:31:33.001Z</time></trkpt><trkpt lat="45.111440735223646" lon="9.332635245416924"><ele>49.66666666666667</ele><time>2026-04-19T12:31:35.001Z</time></trkpt><trkpt lat="45.11143416723943" lon="9.332745638144717"><ele>48.833333333333336</ele><time>2026-04-19T12:31:36.001Z</time></trkpt><trkpt lat="45.111418972625266" lon="9.33286446376086"><ele>48.0</ele><time>2026-04-19T12:31:37.001Z</time></trkpt><trkpt lat="45.11140292104726" lon="9.332998781501393"><ele>48.8</ele><time>2026-04-19T12:31:38.001Z</time></trkpt><trkpt lat="45.11138828982288" lon="9.333143005227953"><ele>49.599999999999994</ele><time>2026-04-19T12:31:39.001Z</time></trkpt><trkpt lat="45.11137305330762" lon="9.333299752770378"><ele>50.400000000000006</ele><time>2026-04-19T12:31:40.001Z</time></trkpt><trkpt lat="45.11135359215537" lon="9.333458946462201"><ele>51.2</ele><time>2026-04-19T12:31:41.001Z</time></trkpt><trkpt lat="45.11133550949436" lon="9.333614175057114"><ele>52.0</ele><time>2026-04-19T12:31:42.001Z</time></trkpt><trkpt lat="45.11131519539579" lon="9.33377449309711"><ele>52.0</ele><time>2026-04-19T12:31:43.001Z</time></trkpt><trkpt lat="45.111295404886114" lon="9.333957983226966"><ele>52.0</ele><time>2026-04-19T12:31:44.001Z</time></trkpt><trkpt lat="45.111274299598826" lon="9.33416796924387"><ele>52.0</ele><time>2026-04-19T12:31:45.001Z</time></trkpt><trkpt lat="45.11125784032611" lon="9.334378278789286"><ele>52.0</ele><time>2026-04-19T12:31:46.001Z</time></trkpt><trkpt lat="45.111226820312645" lon="9.334600037662714"><ele>52.25</ele><time>2026-04-19T12:31:47.001Z</time></trkpt><trkpt lat="45.11119375343477" lon="9.334809326736599"><ele>52.5</ele><time>2026-04-19T12:31:48.001Z</time></trkpt><trkpt lat="45.111176833932866" lon="9.334994129493591"><ele>52.75</ele><time>2026-04-19T12:31:49.001Z</time></trkpt><trkpt lat="45.11116210353762" lon="9.335172076569274"><ele>53.0</ele><time>2026-04-19T12:31:50.001Z</time></trkpt><trkpt lat="45.111139812002314" lon="9.335342661042072"><ele>53.0</ele><time>2026-04-19T12:31:51.001Z</time></trkpt><trkpt lat="45.11111757701415" lon="9.335508197889522"><ele>53.0</ele><time>2026-04-19T12:31:52.001Z</time></trkpt><trkpt lat="45.11108943534684" lon="9.335685780649897"><ele>53.0</ele><time>2026-04-19T12:31:53.001Z</time></trkpt><trkpt lat="45.11105958081267" lon="9.33586138475743"><ele>53.0</ele><time>2026-04-19T12:31:54.001Z</time></trkpt><trkpt lat="45.11101158256527" lon="9.336034166885112"><ele>53.333333333333336</ele><time>2026-04-19T12:31:55.001Z</time></trkpt><trkpt lat="45.11093035136104" lon="9.336208784921066"><ele>53.66666666666667</ele><time>2026-04-19T12:31:56.001Z</time></trkpt><trkpt lat="45.11083357542219" lon="9.336381356546784"><ele>54.0</ele><time>2026-04-19T12:31:57.001Z</time></trkpt><trkpt lat="45.11073172285475" lon="9.336556806532418"><ele>53.33333333333333</ele><time>2026-04-19T12:31:58.001Z</time></trkpt><trkpt lat="45.110628316514756" lon="9.336738004684268"><ele>52.666666666666664</ele><time>2026-04-19T12:31:59.001Z</time></trkpt><trkpt lat="45.110527185791426" lon="9.336914671543703"><ele>52.0</ele><time>2026-04-19T12:32:00.001Z</time></trkpt><trkpt lat="45.11042966951844" lon="9.337086572990072"><ele>52.0</ele><time>2026-04-19T12:32:01.001Z</time></trkpt><trkpt lat="45.110333917331054" lon="9.337257524236845"><ele>52.0</ele><time>2026-04-19T12:32:02.001Z</time></trkpt><trkpt lat="45.11024007007793" lon="9.337428050212502"><ele>52.0</ele><time>2026-04-19T12:32:03.001Z</time></trkpt><trkpt lat="45.110145558081804" lon="9.337593249789814"><ele>52.0</ele><time>2026-04-19T12:32:04.001Z</time></trkpt><trkpt lat="45.110049459637246" lon="9.337762433870449"><ele>52.0</ele><time>2026-04-19T12:32:05.001Z</time></trkpt><trkpt lat="45.109951913925876" lon="9.337945623685398"><ele>52.0</ele><time>2026-04-19T12:32:06.002Z</time></trkpt><trkpt lat="45.10984997966364" lon="9.338131393280497"><ele>52.33333333333333</ele><time>2026-04-19T12:32:07.002Z</time></trkpt><trkpt lat="45.109746486179745" lon="9.338316814466207"><ele>52.66666666666667</ele><time>2026-04-19T12:32:08.002Z</time></trkpt><trkpt lat="45.10963711434027" lon="9.33851033431765"><ele>53.0</ele><time>2026-04-19T12:32:09.002Z</time></trkpt><trkpt lat="45.10952851304001" lon="9.338704230442833"><ele>52.66666666666667</ele><time>2026-04-19T12:32:10.002Z</time></trkpt><trkpt lat="45.109423897322216" lon="9.338885627418968"><ele>52.33333333333333</ele><time>2026-04-19T12:32:11.002Z</time></trkpt><trkpt lat="45.10932648304299" lon="9.339064803260783"><ele>52.0</ele><time>2026-04-19T12:32:12.002Z</time></trkpt><trkpt lat="45.10922482291993" lon="9.339245770324649"><ele>52.0</ele><time>2026-04-19T12:32:13.002Z</time></trkpt><trkpt lat="45.109126209770515" lon="9.339416050573071"><ele>52.0</ele><time>2026-04-19T12:32:14.002Z</time></trkpt><trkpt lat="45.10903121284008" lon="9.339583046011997"><ele>52.0</ele><time>2026-04-19T12:32:15.002Z</time></trkpt><trkpt lat="45.1089430745796" lon="9.339762601292422"><ele>52.666666666666664</ele><time>2026-04-19T12:32:16.002Z</time></trkpt><trkpt lat="45.108863593563925" lon="9.339969700998273"><ele>53.33333333333333</ele><time>2026-04-19T12:32:17.002Z</time></trkpt><trkpt lat="45.10879257910418" lon="9.34019488628018"><ele>54.0</ele><time>2026-04-19T12:32:18.002Z</time></trkpt><trkpt lat="45.10872425110755" lon="9.340426646146701"><ele>53.66666666666667</ele><time>2026-04-19T12:32:19.002Z</time></trkpt><trkpt lat="45.1086534154059" lon="9.340660513704336"><ele>53.333333333333336</ele><time>2026-04-19T12:32:20.002Z</time></trkpt><trkpt lat="45.10858330307528" lon="9.340898976658579"><ele>53.0</ele><time>2026-04-19T12:32:21.002Z</time></trkpt><trkpt lat="45.108517501314715" lon="9.341137809508872"><ele>53.0</ele><time>2026-04-19T12:32:22.002Z</time></trkpt><trkpt lat="45.10845467336158" lon="9.341364712228227"><ele>53.0</ele><time>2026-04-19T12:32:23.002Z</time></trkpt><trkpt lat="45.10839150838307" lon="9.341600476537192"><ele>53.0</ele><time>2026-04-19T12:32:24.002Z</time></trkpt><trkpt lat="45.10832822188446" lon="9.341837643143402"><ele>53.333333333333336</ele><time>2026-04-19T12:32:25.002Z</time></trkpt><trkpt lat="45.108263599141125" lon="9.342074757584646"><ele>53.66666666666667</ele><time>2026-04-19T12:32:26.002Z</time></trkpt><trkpt lat="45.10819931521541" lon="9.3423023548744"><ele>54.0</ele><time>2026-04-19T12:32:27.002Z</time></trkpt><trkpt lat="45.1081376130563" lon="9.342525311234398"><ele>54.33333333333333</ele><time>2026-04-19T12:32:28.002Z</time></trkpt><trkpt lat="45.10807187487969" lon="9.342752728049774"><ele>54.666666666666664</ele><time>2026-04-19T12:32:29.002Z</time></trkpt><trkpt lat="45.10800714366073" lon="9.342975650883938"><ele>55.0</ele><time>2026-04-19T12:32:30.002Z</time></trkpt><trkpt lat="45.107944250908666" lon="9.343201860693974"><ele>55.0</ele><time>2026-04-19T12:32:31.002Z</time></trkpt><trkpt lat="45.10788468630325" lon="9.34342546616641"><ele>55.0</ele><time>2026-04-19T12:32:32.002Z</time></trkpt><trkpt lat="45.10783470065743" lon="9.343654236736125"><ele>55.0</ele><time>2026-04-19T12:32:33.002Z</time></trkpt><trkpt lat="45.107795968670004" lon="9.343896849840894"><ele>54.666666666666664</ele><time>2026-04-19T12:32:34.002Z</time></trkpt><trkpt lat="45.10776929904448" lon="9.344141970880946"><ele>54.33333333333333</ele><time>2026-04-19T12:32:35.002Z</time></trkpt><trkpt lat="45.10774404083656" lon="9.344387546073749"><ele>54.0</ele><time>2026-04-19T12:32:36.002Z</time></trkpt><trkpt lat="45.10772424436315" lon="9.344629121299171"><ele>53.33333333333333</ele><time>2026-04-19T12:32:37.002Z</time></trkpt><trkpt lat="45.10770744241197" lon="9.344860608641728"><ele>52.666666666666664</ele><time>2026-04-19T12:32:38.002Z</time></trkpt><trkpt lat="45.107688188909194" lon="9.34507957591664"><ele>52.0</ele><time>2026-04-19T12:32:39.002Z</time></trkpt><trkpt lat="45.107669730408" lon="9.345280314813076"><ele>52.0</ele><time>2026-04-19T12:32:40.002Z</time></trkpt><trkpt lat="45.10765492625307" lon="9.345469259811937"><ele>52.0</ele><time>2026-04-19T12:32:41.002Z</time></trkpt><trkpt lat="45.10763799766765" lon="9.345644938902026"><ele>52.0</ele><time>2026-04-19T12:32:42.002Z</time></trkpt><trkpt lat="45.10762303044052" lon="9.345814902274949"><ele>52.0</ele><time>2026-04-19T12:32:43.002Z</time></trkpt><trkpt lat="45.10760856196977" lon="9.345983945288895"><ele>52.400000000000006</ele><time>2026-04-19T12:32:44.002Z</time></trkpt><trkpt lat="45.1075956335831" lon="9.3461475102091"><ele>52.800000000000004</ele><time>2026-04-19T12:32:45.002Z</time></trkpt><trkpt lat="45.10758265175338" lon="9.346302249517453"><ele>53.2</ele><time>2026-04-19T12:32:46.002Z</time></trkpt><trkpt lat="45.10757377867826" lon="9.346447038087364"><ele>53.6</ele><time>2026-04-19T12:32:47.002Z</time></trkpt><trkpt lat="45.107565218333306" lon="9.34658247893708"><ele>54.0</ele><time>2026-04-19T12:32:48.002Z</time></trkpt><trkpt lat="45.10755482514214" lon="9.34670396294912"><ele>54.0</ele><time>2026-04-19T12:32:49.002Z</time></trkpt><trkpt lat="45.10754455800106" lon="9.346814981018163"><ele>54.0</ele><time>2026-04-19T12:32:50.002Z</time></trkpt><trkpt lat="45.10753567757096" lon="9.346930461169782"><ele>54.0</ele><time>2026-04-19T12:32:51.002Z</time></trkpt><trkpt lat="45.10753085857347" lon="9.347041156916811"><ele>54.0</ele><time>2026-04-19T12:32:52.002Z</time></trkpt><trkpt lat="45.10752742730034" lon="9.347149244807342"><ele>54.0</ele><time>2026-04-19T12:32:53.002Z</time></trkpt><trkpt lat="45.107533157257535" lon="9.347251602066843"><ele>54.0</ele><time>2026-04-19T12:32:54.002Z</time></trkpt><trkpt lat="45.10753630048227" lon="9.347349549033176"><ele>54.0</ele><time>2026-04-19T12:32:55.002Z</time></trkpt><trkpt lat="45.10751225662842" lon="9.347502842400605"><ele>54.0</ele><time>2026-04-19T12:32:57.002Z</time></trkpt><trkpt lat="45.1074840785634" lon="9.347590985343277"><ele>54.0</ele><time>2026-04-19T12:33:00.001Z</time></trkpt><trkpt lat="45.10740695961621" lon="9.34767987652561"><ele>54.0</ele><time>2026-04-19T12:33:03.001Z</time></trkpt><trkpt lat="45.10738235996922" lon="9.34776253311608"><ele>54.0</ele><time>2026-04-19T12:33:04.001Z</time></trkpt><trkpt lat="45.10735941940293" lon="9.347865730907225"><ele>54.0</ele><time>2026-04-19T12:33:05.001Z</time></trkpt><trkpt lat="45.10733495372045" lon="9.347981421113726"><ele>54.0</ele><time>2026-04-19T12:33:06.001Z</time></trkpt><trkpt lat="45.10731384279006" lon="9.348096712206493"><ele>54.00000000000001</ele><time>2026-04-19T12:33:07.001Z</time></trkpt><trkpt lat="45.10729516460297" lon="9.34821372752581"><ele>54.00000000000001</ele><time>2026-04-19T12:33:08.001Z</time></trkpt><trkpt lat="45.10727900083842" lon="9.348330515835892"><ele>54.0</ele><time>2026-04-19T12:33:09.001Z</time></trkpt><trkpt lat="45.107263862497355" lon="9.348460322159301"><ele>54.0</ele><time>2026-04-19T12:33:10.001Z</time></trkpt><trkpt lat="45.107249898550734" lon="9.348606501717528"><ele>54.0</ele><time>2026-04-19T12:33:11.001Z</time></trkpt><trkpt lat="45.107239179196384" lon="9.348743621806637"><ele>54.00000000000001</ele><time>2026-04-19T12:33:12.001Z</time></trkpt><trkpt lat="45.10722961602691" lon="9.348887267741166"><ele>54.00000000000001</ele><time>2026-04-19T12:33:13.001Z</time></trkpt><trkpt lat="45.10722218177937" lon="9.349004322565088"><ele>54.0</ele><time>2026-04-19T12:33:14.001Z</time></trkpt><trkpt lat="45.10721120646262" lon="9.349176692149065"><ele>54.0</ele><time>2026-04-19T12:33:15.001Z</time></trkpt><trkpt lat="45.10720053340183" lon="9.34934407285851"><ele>54.2</ele><time>2026-04-19T12:33:16.001Z</time></trkpt><trkpt lat="45.107190180476806" lon="9.349491245242472"><ele>54.400000000000006</ele><time>2026-04-19T12:33:17.001Z</time></trkpt><trkpt lat="45.107176151107915" lon="9.34964628521174"><ele>54.6</ele><time>2026-04-19T12:33:18.001Z</time></trkpt><trkpt lat="45.10715604143239" lon="9.3497773346559"><ele>54.8</ele><time>2026-04-19T12:33:19.001Z</time></trkpt><trkpt lat="45.107130088422544" lon="9.349901790062095"><ele>55.0</ele><time>2026-04-19T12:33:20.001Z</time></trkpt><trkpt lat="45.10709983475842" lon="9.349995471097547"><ele>55.0</ele><time>2026-04-19T12:33:21.001Z</time></trkpt><trkpt lat="45.10701998499186" lon="9.350142830009103"><ele>55.0</ele><time>2026-04-19T12:33:23.001Z</time></trkpt><trkpt lat="45.106959194349535" lon="9.350177521481102"><ele>55.0</ele><time>2026-04-19T12:33:25.001Z</time></trkpt><trkpt lat="45.10688487617281" lon="9.350279717896171"><ele>55.0</ele><time>2026-04-19T12:33:28.001Z</time></trkpt><trkpt lat="45.10718540391695" lon="9.351186622574966"><ele>55.33333333333333</ele><time>2026-04-19T12:33:30.001Z</time></trkpt><trkpt lat="45.10718137664872" lon="9.351307839854181"><ele>55.666666666666664</ele><time>2026-04-19T12:33:31.001Z</time></trkpt><trkpt lat="45.10717642644147" lon="9.351435433264554"><ele>56.0</ele><time>2026-04-19T12:33:32.001Z</time></trkpt><trkpt lat="45.10717215509578" lon="9.351560273897364"><ele>56.33333333333333</ele><time>2026-04-19T12:33:33.001Z</time></trkpt><trkpt lat="45.10717195945063" lon="9.351683073994526"><ele>56.666666666666664</ele><time>2026-04-19T12:33:34.001Z</time></trkpt><trkpt lat="45.10717509894993" lon="9.351819604966753"><ele>57.0</ele><time>2026-04-19T12:33:35.001Z</time></trkpt><trkpt lat="45.107177795728404" lon="9.351971343898125"><ele>57.0</ele><time>2026-04-19T12:33:36.001Z</time></trkpt><trkpt lat="45.10717918621518" lon="9.352138101991589"><ele>57.0</ele><time>2026-04-19T12:33:37.001Z</time></trkpt><trkpt lat="45.107176771681566" lon="9.35231871004925"><ele>57.0</ele><time>2026-04-19T12:33:38.001Z</time></trkpt><trkpt lat="45.1071744664038" lon="9.352508781385202"><ele>57.0</ele><time>2026-04-19T12:33:39.001Z</time></trkpt><trkpt lat="45.10717427716868" lon="9.352706929477305"><ele>57.0</ele><time>2026-04-19T12:33:40.001Z</time></trkpt><trkpt lat="45.10717466300536" lon="9.352907218647807"><ele>57.0</ele><time>2026-04-19T12:33:41.001Z</time></trkpt><trkpt lat="45.10717574379143" lon="9.353115172266552"><ele>57.0</ele><time>2026-04-19T12:33:42.001Z</time></trkpt><trkpt lat="45.10717666272052" lon="9.353314954953097"><ele>57.0</ele><time>2026-04-19T12:33:43.001Z</time></trkpt><trkpt lat="45.10717634336162" lon="9.353508797648585"><ele>57.0</ele><time>2026-04-19T12:33:44.001Z</time></trkpt><trkpt lat="45.107177003877624" lon="9.35370410983529"><ele>57.0</ele><time>2026-04-19T12:33:45.001Z</time></trkpt><trkpt lat="45.10717684575239" lon="9.353903824232841"><ele>57.0</ele><time>2026-04-19T12:33:46.001Z</time></trkpt><trkpt lat="45.107176580790785" lon="9.354103223807979"><ele>57.0</ele><time>2026-04-19T12:33:47.001Z</time></trkpt><trkpt lat="45.10717600071613" lon="9.354303861424077"><ele>57.0</ele><time>2026-04-19T12:33:48.001Z</time></trkpt><trkpt lat="45.10717415080784" lon="9.354498725355318"><ele>57.0</ele><time>2026-04-19T12:33:49.001Z</time></trkpt><trkpt lat="45.107168229752496" lon="9.354705922042932"><ele>57.0</ele><time>2026-04-19T12:33:50.001Z</time></trkpt><trkpt lat="45.10716049425416" lon="9.354902710929844"><ele>57.0</ele><time>2026-04-19T12:33:51.001Z</time></trkpt><trkpt lat="45.10715594159575" lon="9.355110656197052"><ele>57.66666666666667</ele><time>2026-04-19T12:33:52.001Z</time></trkpt><trkpt lat="45.1071505555792" lon="9.35532713239039"><ele>58.333333333333336</ele><time>2026-04-19T12:33:53.001Z</time></trkpt><trkpt lat="45.107148510789514" lon="9.35554352602246"><ele>59.0</ele><time>2026-04-19T12:33:54.001Z</time></trkpt><trkpt lat="45.10714498932205" lon="9.355769019765294"><ele>57.66666666666667</ele><time>2026-04-19T12:33:55.001Z</time></trkpt><trkpt lat="45.107145160365874" lon="9.355993587558503"><ele>56.33333333333333</ele><time>2026-04-19T12:33:56.001Z</time></trkpt><trkpt lat="45.10714617868865" lon="9.35621808945409"><ele>55.0</ele><time>2026-04-19T12:33:57.001Z</time></trkpt><trkpt lat="45.10714731045208" lon="9.356442638261182"><ele>55.0</ele><time>2026-04-19T12:33:58.001Z</time></trkpt><trkpt lat="45.10714366203377" lon="9.356666003163332"><ele>55.0</ele><time>2026-04-19T12:33:59.001Z</time></trkpt><trkpt lat="45.107137476608145" lon="9.35689262580541"><ele>55.0</ele><time>2026-04-19T12:34:00.001Z</time></trkpt><trkpt lat="45.10713252109737" lon="9.357113780278981"><ele>55.666666666666664</ele><time>2026-04-19T12:34:01.001Z</time></trkpt><trkpt lat="45.107126354529356" lon="9.357343945470323"><ele>56.33333333333333</ele><time>2026-04-19T12:34:02.001Z</time></trkpt><trkpt lat="45.107127094278916" lon="9.357564599080998"><ele>57.0</ele><time>2026-04-19T12:34:03.001Z</time></trkpt><trkpt lat="45.107129682258055" lon="9.35778855883519"><ele>57.0</ele><time>2026-04-19T12:34:04.001Z</time></trkpt><trkpt lat="45.10712873652718" lon="9.358009688903854"><ele>57.0</ele><time>2026-04-19T12:34:05.001Z</time></trkpt><trkpt lat="45.10712266015661" lon="9.358226979636267"><ele>57.0</ele><time>2026-04-19T12:34:06.001Z</time></trkpt><trkpt lat="45.10711206519705" lon="9.358420665767815"><ele>57.0</ele><time>2026-04-19T12:34:07.001Z</time></trkpt><trkpt lat="45.10710242592999" lon="9.358601580545193"><ele>56.400000000000006</ele><time>2026-04-19T12:34:08.001Z</time></trkpt><trkpt lat="45.10708742354288" lon="9.35877383103595"><ele>55.800000000000004</ele><time>2026-04-19T12:34:09.001Z</time></trkpt><trkpt lat="45.107068788411624" lon="9.358932934134492"><ele>55.2</ele><time>2026-04-19T12:34:10.001Z</time></trkpt><trkpt lat="45.10704583298743" lon="9.359079207419468"><ele>54.6</ele><time>2026-04-19T12:34:11.001Z</time></trkpt><trkpt lat="45.10701636573606" lon="9.359209892214233"><ele>54.0</ele><time>2026-04-19T12:34:12.001Z</time></trkpt><trkpt lat="45.10698443257649" lon="9.35933789189422"><ele>54.0</ele><time>2026-04-19T12:34:13.001Z</time></trkpt><trkpt lat="45.10695487819712" lon="9.359460873648931"><ele>54.00000000000001</ele><time>2026-04-19T12:34:14.001Z</time></trkpt><trkpt lat="45.10692489262962" lon="9.35958385168447"><ele>54.00000000000001</ele><time>2026-04-19T12:34:15.001Z</time></trkpt><trkpt lat="45.10689698753241" lon="9.359706372039296"><ele>54.0</ele><time>2026-04-19T12:34:16.001Z</time></trkpt><trkpt lat="45.10686996799027" lon="9.359834660505053"><ele>54.0</ele><time>2026-04-19T12:34:17.001Z</time></trkpt><trkpt lat="45.10684089378506" lon="9.359965443413172"><ele>54.2</ele><time>2026-04-19T12:34:18.001Z</time></trkpt><trkpt lat="45.10680936163963" lon="9.360101184879182"><ele>54.400000000000006</ele><time>2026-04-19T12:34:19.001Z</time></trkpt><trkpt lat="45.106772550765974" lon="9.360247945378827"><ele>54.6</ele><time>2026-04-19T12:34:20.001Z</time></trkpt><trkpt lat="45.10674072551908" lon="9.360407385995371"><ele>54.8</ele><time>2026-04-19T12:34:21.001Z</time></trkpt><trkpt lat="45.106704944671336" lon="9.360565012208923"><ele>55.0</ele><time>2026-04-19T12:34:22.001Z</time></trkpt><trkpt lat="45.10666843791346" lon="9.360728179230012"><ele>54.8</ele><time>2026-04-19T12:34:23.001Z</time></trkpt><trkpt lat="45.10662807022888" lon="9.360887126530823"><ele>54.6</ele><time>2026-04-19T12:34:24.001Z</time></trkpt><trkpt lat="45.106587900749474" lon="9.361039466264701"><ele>54.400000000000006</ele><time>2026-04-19T12:34:25.001Z</time></trkpt><trkpt lat="45.106551448947755" lon="9.361182919794288"><ele>54.2</ele><time>2026-04-19T12:34:26.001Z</time></trkpt><trkpt lat="45.106518704623525" lon="9.361320844736094"><ele>54.0</ele><time>2026-04-19T12:34:27.001Z</time></trkpt><trkpt lat="45.10647917914339" lon="9.361463451659786"><ele>53.400000000000006</ele><time>2026-04-19T12:34:28.001Z</time></trkpt><trkpt lat="45.10643532180431" lon="9.361603413320683"><ele>52.800000000000004</ele><time>2026-04-19T12:34:29.001Z</time></trkpt><trkpt lat="45.10638158345261" lon="9.361731210946063"><ele>52.2</ele><time>2026-04-19T12:34:30.001Z</time></trkpt><trkpt lat="45.1063315880311" lon="9.361855167246054"><ele>51.599999999999994</ele><time>2026-04-19T12:34:31.001Z</time></trkpt><trkpt lat="45.1062935417361" lon="9.361983642144125"><ele>51.0</ele><time>2026-04-19T12:34:32.001Z</time></trkpt><trkpt lat="45.106280698290995" lon="9.362140421789702"><ele>50.75</ele><time>2026-04-19T12:34:33.001Z</time></trkpt><trkpt lat="45.10628514665586" lon="9.362321162663667"><ele>50.5</ele><time>2026-04-19T12:34:34.001Z</time></trkpt><trkpt lat="45.10627068842505" lon="9.36250211337879"><ele>50.25</ele><time>2026-04-19T12:34:35.001Z</time></trkpt><trkpt lat="45.1062376071008" lon="9.362682637612927"><ele>50.0</ele><time>2026-04-19T12:34:36.001Z</time></trkpt><trkpt lat="45.10620788041047" lon="9.362869126811459"><ele>50.75</ele><time>2026-04-19T12:34:37.001Z</time></trkpt><trkpt lat="45.10618611941535" lon="9.363058461776484"><ele>51.5</ele><time>2026-04-19T12:34:38.001Z</time></trkpt><trkpt lat="45.106169250684445" lon="9.363251727208182"><ele>52.25</ele><time>2026-04-19T12:34:39.001Z</time></trkpt><trkpt lat="45.106156126380924" lon="9.363447921877139"><ele>53.0</ele><time>2026-04-19T12:34:40.001Z</time></trkpt><trkpt lat="45.10614963827051" lon="9.363642745321394"><ele>53.0</ele><time>2026-04-19T12:34:41.001Z</time></trkpt><trkpt lat="45.10614623886045" lon="9.363838309011694"><ele>53.0</ele><time>2026-04-19T12:34:42.001Z</time></trkpt><trkpt lat="45.10615012943079" lon="9.36404032897364"><ele>53.0</ele><time>2026-04-19T12:34:43.001Z</time></trkpt><trkpt lat="45.10616528175048" lon="9.364236453431156"><ele>53.0</ele><time>2026-04-19T12:34:44.001Z</time></trkpt><trkpt lat="45.106192082319936" lon="9.364422652082505"><ele>53.0</ele><time>2026-04-19T12:34:45.001Z</time></trkpt><trkpt lat="45.106224996959796" lon="9.36460874151558"><ele>53.0</ele><time>2026-04-19T12:34:46.001Z</time></trkpt><trkpt lat="45.10626141611477" lon="9.364796252683858"><ele>53.0</ele><time>2026-04-19T12:34:47.001Z</time></trkpt><trkpt lat="45.10629544926525" lon="9.364977133538616"><ele>53.0</ele><time>2026-04-19T12:34:48.002Z</time></trkpt><trkpt lat="45.10632882018067" lon="9.365156684913375"><ele>53.75</ele><time>2026-04-19T12:34:49.002Z</time></trkpt><trkpt lat="45.10635736100275" lon="9.365320331527633"><ele>54.5</ele><time>2026-04-19T12:34:50.002Z</time></trkpt><trkpt lat="45.106384249308405" lon="9.365473199427647"><ele>55.25</ele><time>2026-04-19T12:34:51.002Z</time></trkpt><trkpt lat="45.106410557535966" lon="9.365633565348432"><ele>56.0</ele><time>2026-04-19T12:34:52.002Z</time></trkpt><trkpt lat="45.10643723961883" lon="9.36579807167138"><ele>56.25</ele><time>2026-04-19T12:34:53.002Z</time></trkpt><trkpt lat="45.106466270954975" lon="9.365967209892837"><ele>56.5</ele><time>2026-04-19T12:34:54.002Z</time></trkpt><trkpt lat="45.10649204128749" lon="9.366136944514384"><ele>56.75</ele><time>2026-04-19T12:34:55.002Z</time></trkpt><trkpt lat="45.10652324822101" lon="9.366296155333744"><ele>57.0</ele><time>2026-04-19T12:34:56.002Z</time></trkpt><trkpt lat="45.10655242364417" lon="9.366454056835515"><ele>56.0</ele><time>2026-04-19T12:34:57.002Z</time></trkpt><trkpt lat="45.10658095914635" lon="9.366615023928205"><ele>55.0</ele><time>2026-04-19T12:34:58.002Z</time></trkpt><trkpt lat="45.1066106592992" lon="9.366792569857708"><ele>54.0</ele><time>2026-04-19T12:34:59.002Z</time></trkpt><trkpt lat="45.106640982252735" lon="9.366981045461372"><ele>53.0</ele><time>2026-04-19T12:35:00.002Z</time></trkpt><trkpt lat="45.106672764248444" lon="9.367169879152307"><ele>53.0</ele><time>2026-04-19T12:35:01.002Z</time></trkpt><trkpt lat="45.106701786340935" lon="9.367353712507855"><ele>53.0</ele><time>2026-04-19T12:35:02.002Z</time></trkpt><trkpt lat="45.106724541280684" lon="9.367537208547162"><ele>53.0</ele><time>2026-04-19T12:35:03.002Z</time></trkpt><trkpt lat="45.10674691588187" lon="9.367729169677634"><ele>53.0</ele><time>2026-04-19T12:35:04.002Z</time></trkpt><trkpt lat="45.106766344061654" lon="9.367923023907547"><ele>53.5</ele><time>2026-04-19T12:35:05Z</time></trkpt><trkpt lat="45.10677857295654" lon="9.368115392945558"><ele>54.0</ele><time>2026-04-19T12:35:06Z</time></trkpt><trkpt lat="45.106786033763086" lon="9.368311456824195"><ele>54.5</ele><time>2026-04-19T12:35:07Z</time></trkpt><trkpt lat="45.10678896037076" lon="9.368510414208451"><ele>55.0</ele><time>2026-04-19T12:35:08Z</time></trkpt><trkpt lat="45.10678731772084" lon="9.368698001596398"><ele>54.75</ele><time>2026-04-19T12:35:09Z</time></trkpt><trkpt lat="45.106781101882106" lon="9.368873125859006"><ele>54.5</ele><time>2026-04-19T12:35:10Z</time></trkpt><trkpt lat="45.106780224027425" lon="9.369038603303071"><ele>54.25</ele><time>2026-04-19T12:35:11Z</time></trkpt><trkpt lat="45.10678302940734" lon="9.369199238212074"><ele>54.0</ele><time>2026-04-19T12:35:12Z</time></trkpt><trkpt lat="45.10679435175894" lon="9.36935082162043"><ele>54.0</ele><time>2026-04-19T12:35:13Z</time></trkpt><trkpt lat="45.10681097327897" lon="9.369497854776098"><ele>54.00000000000001</ele><time>2026-04-19T12:35:14Z</time></trkpt><trkpt lat="45.10684036063774" lon="9.369632795836885"><ele>54.00000000000001</ele><time>2026-04-19T12:35:15Z</time></trkpt><trkpt lat="45.1068871876714" lon="9.3697546157413"><ele>54.0</ele><time>2026-04-19T12:35:16Z</time></trkpt><trkpt lat="45.106954878424474" lon="9.369856113465548"><ele>54.0</ele><time>2026-04-19T12:35:17Z</time></trkpt><trkpt lat="45.107039336886174" lon="9.369928701249224"><ele>54.0</ele><time>2026-04-19T12:35:18Z</time></trkpt><trkpt lat="45.10714197351811" lon="9.369982901963308"><ele>54.0</ele><time>2026-04-19T12:35:19Z</time></trkpt><trkpt lat="45.1072529794645" lon="9.370025893919394"><ele>54.0</ele><time>2026-04-19T12:35:20Z</time></trkpt><trkpt lat="45.10736839963739" lon="9.37005277646095"><ele>54.0</ele><time>2026-04-19T12:35:21Z</time></trkpt><trkpt lat="45.107486789625206" lon="9.370081658202501"><ele>54.0</ele><time>2026-04-19T12:35:22Z</time></trkpt><trkpt lat="45.10760085956874" lon="9.370110306447044"><ele>54.0</ele><time>2026-04-19T12:35:23Z</time></trkpt><trkpt lat="45.1077126276178" lon="9.370138471185735"><ele>54.0</ele><time>2026-04-19T12:35:24Z</time></trkpt><trkpt lat="45.1078233567429" lon="9.370169444644208"><ele>54.0</ele><time>2026-04-19T12:35:25Z</time></trkpt><trkpt lat="45.107939314790784" lon="9.370207797076024"><ele>54.0</ele><time>2026-04-19T12:35:26Z</time></trkpt><trkpt lat="45.108053241644136" lon="9.37026553886648"><ele>54.0</ele><time>2026-04-19T12:35:27Z</time></trkpt><trkpt lat="45.10815756498025" lon="9.370329397099404"><ele>54.0</ele><time>2026-04-19T12:35:28Z</time></trkpt><trkpt lat="45.108261737518575" lon="9.370403505019096"><ele>54.0</ele><time>2026-04-19T12:35:29Z</time></trkpt><trkpt lat="45.108362162956816" lon="9.370476272943296"><ele>54.5</ele><time>2026-04-19T12:35:30Z</time></trkpt><trkpt lat="45.10846006799225" lon="9.370547000938023"><ele>55.0</ele><time>2026-04-19T12:35:31Z</time></trkpt><trkpt lat="45.10854912955051" lon="9.370615264986919"><ele>55.5</ele><time>2026-04-19T12:35:32Z</time></trkpt><trkpt lat="45.1086300818788" lon="9.370672154012265"><ele>56.0</ele><time>2026-04-19T12:35:33Z</time></trkpt><trkpt lat="45.10870384414123" lon="9.37071279793595"><ele>56.5</ele><time>2026-04-19T12:35:34Z</time></trkpt><trkpt lat="45.108764517079194" lon="9.370745847919991"><ele>57.0</ele><time>2026-04-19T12:35:35Z</time></trkpt><trkpt lat="45.108876385536796" lon="9.370791671678631"><ele>57.0</ele><time>2026-04-19T12:35:37Z</time></trkpt><trkpt lat="45.108959705889745" lon="9.370807572372746"><ele>57.0</ele><time>2026-04-19T12:35:39Z</time></trkpt><trkpt lat="45.10904668119469" lon="9.37080553477294"><ele>57.0</ele><time>2026-04-19T12:35:41Z</time></trkpt><trkpt lat="45.10911059071327" lon="9.370779949499621"><ele>57.0</ele><time>2026-04-19T12:35:43Z</time></trkpt><trkpt lat="45.10917765807423" lon="9.370737738232856"><ele>57.0</ele><time>2026-04-19T12:35:45Z</time></trkpt><trkpt lat="45.10924592615215" lon="9.370744773866718"><ele>57.0</ele><time>2026-04-19T12:35:47Z</time></trkpt><trkpt lat="45.10933255256729" lon="9.370754380125408"><ele>57.0</ele><time>2026-04-19T12:35:50Z</time></trkpt><trkpt lat="45.1094031072952" lon="9.370811393255513"><ele>57.0</ele><time>2026-04-19T12:35:53Z</time></trkpt><trkpt lat="45.10949323147005" lon="9.370879540286879"><ele>57.0</ele><time>2026-04-19T12:35:55Z</time></trkpt><trkpt lat="45.10960420839442" lon="9.370944045510912"><ele>57.0</ele><time>2026-04-19T12:35:57Z</time></trkpt><trkpt lat="45.10999923293479" lon="9.370459821282848"><ele>56.400000000000006</ele><time>2026-04-19T12:36:01Z</time></trkpt><trkpt lat="45.110083944006995" lon="9.370385803626407"><ele>55.800000000000004</ele><time>2026-04-19T12:36:02Z</time></trkpt><trkpt lat="45.110171584599" lon="9.370294694506976"><ele>55.2</ele><time>2026-04-19T12:36:03Z</time></trkpt><trkpt lat="45.11026951386823" lon="9.370201719287968"><ele>54.6</ele><time>2026-04-19T12:36:04Z</time></trkpt><trkpt lat="45.110364763225945" lon="9.370091010818049"><ele>54.0</ele><time>2026-04-19T12:36:05.001Z</time></trkpt><trkpt lat="45.11046210264833" lon="9.369975333644208"><ele>54.0</ele><time>2026-04-19T12:36:06.001Z</time></trkpt><trkpt lat="45.110560230089675" lon="9.369855088844238"><ele>54.0</ele><time>2026-04-19T12:36:07.001Z</time></trkpt><trkpt lat="45.11065582877759" lon="9.369725891923196"><ele>54.0</ele><time>2026-04-19T12:36:08.001Z</time></trkpt><trkpt lat="45.11075588930483" lon="9.36958822438502"><ele>54.0</ele><time>2026-04-19T12:36:09.001Z</time></trkpt><trkpt lat="45.11085442570179" lon="9.369448187167794"><ele>54.25</ele><time>2026-04-19T12:36:10.001Z</time></trkpt><trkpt lat="45.110947409867066" lon="9.369310300307832"><ele>54.5</ele><time>2026-04-19T12:36:11.001Z</time></trkpt><trkpt lat="45.11104163271297" lon="9.36916929157914"><ele>54.75</ele><time>2026-04-19T12:36:12.001Z</time></trkpt><trkpt lat="45.11113214692224" lon="9.369027855150978"><ele>55.0</ele><time>2026-04-19T12:36:13.001Z</time></trkpt><trkpt lat="45.11122516800364" lon="9.368891929806402"><ele>54.75</ele><time>2026-04-19T12:36:14.001Z</time></trkpt><trkpt lat="45.11130772724579" lon="9.368762170891513"><ele>54.5</ele><time>2026-04-19T12:36:15.001Z</time></trkpt><trkpt lat="45.111382140066915" lon="9.368638626782996"><ele>54.25</ele><time>2026-04-19T12:36:16.001Z</time></trkpt><trkpt lat="45.111457728783385" lon="9.368527184715893"><ele>54.0</ele><time>2026-04-19T12:36:17.001Z</time></trkpt><trkpt lat="45.11153272496693" lon="9.368424423389621"><ele>54.166666666666664</ele><time>2026-04-19T12:36:18.001Z</time></trkpt><trkpt lat="45.111598357351944" lon="9.368326723696022"><ele>54.33333333333333</ele><time>2026-04-19T12:36:19.001Z</time></trkpt><trkpt lat="45.11165777557969" lon="9.36823935333153"><ele>54.5</ele><time>2026-04-19T12:36:20.001Z</time></trkpt><trkpt lat="45.11170942847005" lon="9.368165408085051"><ele>54.666666666666664</ele><time>2026-04-19T12:36:21.001Z</time></trkpt><trkpt lat="45.11178302420381" lon="9.368058883654104"><ele>54.83333333333333</ele><time>2026-04-19T12:36:23.001Z</time></trkpt><trkpt lat="45.11183254781121" lon="9.367983886072041"><ele>55.0</ele><time>2026-04-19T12:36:25.001Z</time></trkpt><trkpt lat="45.11172156131019" lon="9.368127217687297"><ele>55.0</ele><time>2026-04-19T12:36:49.001Z</time></trkpt><trkpt lat="45.11167151935876" lon="9.368212491692383"><ele>55.0</ele><time>2026-04-19T12:36:50.001Z</time></trkpt><trkpt lat="45.11160777792563" lon="9.368307059492244"><ele>55.0</ele><time>2026-04-19T12:36:51.001Z</time></trkpt><trkpt lat="45.111532644719226" lon="9.368406694726742"><ele>55.0</ele><time>2026-04-19T12:36:52.001Z</time></trkpt><trkpt lat="45.11145970345883" lon="9.368512079568259"><ele>55.0</ele><time>2026-04-19T12:36:53.001Z</time></trkpt><trkpt lat="45.11139008155409" lon="9.368612924761491"><ele>55.0</ele><time>2026-04-19T12:36:54.001Z</time></trkpt><trkpt lat="45.11131989783812" lon="9.36872086699177"><ele>55.0</ele><time>2026-04-19T12:36:55.001Z</time></trkpt><trkpt lat="45.111250274800746" lon="9.368826851523744"><ele>55.0</ele><time>2026-04-19T12:36:56.001Z</time></trkpt><trkpt lat="45.11117931561902" lon="9.368927978630728"><ele>55.0</ele><time>2026-04-19T12:36:57.001Z</time></trkpt><trkpt lat="45.111114622275934" lon="9.369028778116853"><ele>55.0</ele><time>2026-04-19T12:36:58.001Z</time></trkpt><trkpt lat="45.111047037702335" lon="9.369133135256835"><ele>55.0</ele><time>2026-04-19T12:36:59.001Z</time></trkpt><trkpt lat="45.11098016013293" lon="9.369235055597464"><ele>55.0</ele><time>2026-04-19T12:37:00.001Z</time></trkpt><trkpt lat="45.110912084091964" lon="9.369336034218856"><ele>55.0</ele><time>2026-04-19T12:37:01.001Z</time></trkpt><trkpt lat="45.1108416066593" lon="9.36943720660671"><ele>55.0</ele><time>2026-04-19T12:37:02.001Z</time></trkpt><trkpt lat="45.11077257482746" lon="9.369537102330924"><ele>55.0</ele><time>2026-04-19T12:37:03.001Z</time></trkpt><trkpt lat="45.110703644375576" lon="9.369634309642592"><ele>54.8</ele><time>2026-04-19T12:37:04.001Z</time></trkpt><trkpt lat="45.110630266885735" lon="9.36972387367194"><ele>54.6</ele><time>2026-04-19T12:37:05.001Z</time></trkpt><trkpt lat="45.11055641519083" lon="9.369817766999219"><ele>54.400000000000006</ele><time>2026-04-19T12:37:06.001Z</time></trkpt><trkpt lat="45.110481874221385" lon="9.369912996645086"><ele>54.2</ele><time>2026-04-19T12:37:07.001Z</time></trkpt><trkpt lat="45.11042746572524" lon="9.37001053378515"><ele>54.0</ele><time>2026-04-19T12:37:08.001Z</time></trkpt><trkpt lat="45.110336866777494" lon="9.37010389137758"><ele>54.0</ele><time>2026-04-19T12:37:09.001Z</time></trkpt><trkpt lat="45.11025742110174" lon="9.370193548449224"><ele>54.00000000000001</ele><time>2026-04-19T12:37:10.001Z</time></trkpt><trkpt lat="45.11017617422095" lon="9.37027898557152"><ele>54.00000000000001</ele><time>2026-04-19T12:37:10.999Z</time></trkpt><trkpt lat="45.110100360308046" lon="9.370349153500852"><ele>54.0</ele><time>2026-04-19T12:37:11.999Z</time></trkpt><trkpt lat="45.110028114060555" lon="9.370424666516225"><ele>54.0</ele><time>2026-04-19T12:37:12.999Z</time></trkpt><trkpt lat="45.10995472368734" lon="9.37049776077075"><ele>54.6</ele><time>2026-04-19T12:37:13.999Z</time></trkpt><trkpt lat="45.109880299417554" lon="9.370552186963273"><ele>55.2</ele><time>2026-04-19T12:37:14.999Z</time></trkpt><trkpt lat="45.10980558799484" lon="9.370592491379673"><ele>55.800000000000004</ele><time>2026-04-19T12:37:16Z</time></trkpt><trkpt lat="45.10973679840346" lon="9.370622234815778"><ele>56.400000000000006</ele><time>2026-04-19T12:37:17Z</time></trkpt><trkpt lat="45.109616810262835" lon="9.370675844510634"><ele>57.0</ele><time>2026-04-19T12:37:19Z</time></trkpt><trkpt lat="45.10950487608221" lon="9.370712054674849"><ele>57.0</ele><time>2026-04-19T12:37:21Z</time></trkpt><trkpt lat="45.10942580184255" lon="9.370734076372138"><ele>57.0</ele><time>2026-04-19T12:37:23Z</time></trkpt><trkpt lat="45.109465660924684" lon="9.370866280251224"><ele>57.0</ele><time>2026-04-19T12:37:26Z</time></trkpt><trkpt lat="45.109535313857045" lon="9.370909602474756"><ele>57.0</ele><time>2026-04-19T12:37:27Z</time></trkpt><trkpt lat="45.109622161359205" lon="9.37095473480181"><ele>57.0</ele><time>2026-04-19T12:37:28Z</time></trkpt><trkpt lat="45.10971665796009" lon="9.371008115705877"><ele>57.0</ele><time>2026-04-19T12:37:29Z</time></trkpt><trkpt lat="45.10981727687261" lon="9.371072422033354"><ele>57.0</ele><time>2026-04-19T12:37:30Z</time></trkpt><trkpt lat="45.10992360249444" lon="9.371145666656648"><ele>57.0</ele><time>2026-04-19T12:37:31Z</time></trkpt><trkpt lat="45.110040870873505" lon="9.371224135460523"><ele>57.0</ele><time>2026-04-19T12:37:32Z</time></trkpt><trkpt lat="45.11016498930251" lon="9.37130507051474"><ele>55.75</ele><time>2026-04-19T12:37:33Z</time></trkpt><trkpt lat="45.11029624955862" lon="9.371396558853165"><ele>54.5</ele><time>2026-04-19T12:37:34Z</time></trkpt><trkpt lat="45.110429577195305" lon="9.371480523359093"><ele>53.25</ele><time>2026-04-19T12:37:35Z</time></trkpt><trkpt lat="45.11056244733654" lon="9.371565208769628"><ele>52.0</ele><time>2026-04-19T12:37:36Z</time></trkpt><trkpt lat="45.11068100103859" lon="9.371648093686389"><ele>52.75</ele><time>2026-04-19T12:37:37Z</time></trkpt><trkpt lat="45.110792711602464" lon="9.37173129668801"><ele>53.5</ele><time>2026-04-19T12:37:38Z</time></trkpt><trkpt lat="45.11090018832625" lon="9.371816123119714"><ele>54.25</ele><time>2026-04-19T12:37:39Z</time></trkpt><trkpt lat="45.110991803545524" lon="9.371892367118397"><ele>55.0</ele><time>2026-04-19T12:37:40Z</time></trkpt><trkpt lat="45.11107389443976" lon="9.371964834639778"><ele>54.99999999999999</ele><time>2026-04-19T12:37:41Z</time></trkpt><trkpt lat="45.11114093276383" lon="9.37203381048668"><ele>55.0</ele><time>2026-04-19T12:37:42Z</time></trkpt><trkpt lat="45.111187446905305" lon="9.37212170819763"><ele>55.0</ele><time>2026-04-19T12:37:43Z</time></trkpt><trkpt lat="45.11121989091299" lon="9.372223112006848"><ele>55.0</ele><time>2026-04-19T12:37:44Z</time></trkpt><trkpt lat="45.111233402197165" lon="9.37231808629082"><ele>54.99999999999999</ele><time>2026-04-19T12:37:45Z</time></trkpt><trkpt lat="45.11126073066751" lon="9.372477399265382"><ele>55.0</ele><time>2026-04-19T12:37:47Z</time></trkpt><trkpt lat="45.11105996214224" lon="9.372598901303217"><ele>54.75</ele><time>2026-04-19T12:37:49Z</time></trkpt><trkpt lat="45.11096792708428" lon="9.372666993390459"><ele>54.5</ele><time>2026-04-19T12:37:50Z</time></trkpt><trkpt lat="45.11086770775095" lon="9.372751369833658"><ele>54.25</ele><time>2026-04-19T12:37:51Z</time></trkpt><trkpt lat="45.11075916021532" lon="9.372853173114619"><ele>54.0</ele><time>2026-04-19T12:37:52Z</time></trkpt><trkpt lat="45.11065196630383" lon="9.372958198904753"><ele>54.0</ele><time>2026-04-19T12:37:53Z</time></trkpt><trkpt lat="45.11055110876135" lon="9.373051194018325"><ele>54.0</ele><time>2026-04-19T12:37:54Z</time></trkpt><trkpt lat="45.11045296524585" lon="9.373135025426343"><ele>54.0</ele><time>2026-04-19T12:37:55Z</time></trkpt><trkpt lat="45.11034359385717" lon="9.373226386172632"><ele>54.0</ele><time>2026-04-19T12:37:56Z</time></trkpt><trkpt lat="45.110234361912234" lon="9.373320386842458"><ele>54.0</ele><time>2026-04-19T12:37:57Z</time></trkpt><trkpt lat="45.110138238032334" lon="9.373410914571314"><ele>54.00000000000001</ele><time>2026-04-19T12:37:58Z</time></trkpt><trkpt lat="45.11004829821812" lon="9.373499479812772"><ele>54.00000000000001</ele><time>2026-04-19T12:37:59Z</time></trkpt><trkpt lat="45.10996979663238" lon="9.373582754974043"><ele>54.0</ele><time>2026-04-19T12:38:00Z</time></trkpt><trkpt lat="45.10990187736296" lon="9.373674306973463"><ele>54.0</ele><time>2026-04-19T12:38:01Z</time></trkpt><trkpt lat="45.10984872960272" lon="9.373751028257711"><ele>54.0</ele><time>2026-04-19T12:38:02Z</time></trkpt><trkpt lat="45.10978767004308" lon="9.373883724821287"><ele>54.00000000000001</ele><time>2026-04-19T12:38:04Z</time></trkpt><trkpt lat="45.10972746340889" lon="9.374033172887179"><ele>54.00000000000001</ele><time>2026-04-19T12:38:06Z</time></trkpt><trkpt lat="45.10970842160085" lon="9.374201137560242"><ele>54.0</ele><time>2026-04-19T12:38:08Z</time></trkpt><trkpt lat="45.109667381441625" lon="9.374287842850942"><ele>54.0</ele><time>2026-04-19T12:38:09Z</time></trkpt><trkpt lat="45.109621450823575" lon="9.374386093200222"><ele>54.0</ele><time>2026-04-19T12:38:10Z</time></trkpt><trkpt lat="45.10959494982084" lon="9.37446701502423"><ele>54.00000000000001</ele><time>2026-04-19T12:38:11Z</time></trkpt><trkpt lat="45.10957332835984" lon="9.374552541046558"><ele>54.00000000000001</ele><time>2026-04-19T12:38:12Z</time></trkpt><trkpt lat="45.10954949423532" lon="9.374741509897177"><ele>54.0</ele><time>2026-04-19T12:38:14Z</time></trkpt><trkpt lat="45.10953594804404" lon="9.374872346680972"><ele>54.0</ele><time>2026-04-19T12:38:15.001Z</time></trkpt><trkpt lat="45.1095213284231" lon="9.375017365504524"><ele>54.0</ele><time>2026-04-19T12:38:16.001Z</time></trkpt><trkpt lat="45.10950844477601" lon="9.375172787116922"><ele>54.0</ele><time>2026-04-19T12:38:17.001Z</time></trkpt><trkpt lat="45.109497438774675" lon="9.37534319469638"><ele>54.0</ele><time>2026-04-19T12:38:18.001Z</time></trkpt><trkpt lat="45.109480835350546" lon="9.375541025095542"><ele>54.0</ele><time>2026-04-19T12:38:19.001Z</time></trkpt><trkpt lat="45.1094670806557" lon="9.375734764681155"><ele>54.25</ele><time>2026-04-19T12:38:20.001Z</time></trkpt><trkpt lat="45.10944869938538" lon="9.37594240749462"><ele>54.5</ele><time>2026-04-19T12:38:21.001Z</time></trkpt><trkpt lat="45.109426411019186" lon="9.376151762158633"><ele>54.75</ele><time>2026-04-19T12:38:22.001Z</time></trkpt><trkpt lat="45.10940209845877" lon="9.376362925649088"><ele>55.0</ele><time>2026-04-19T12:38:23.001Z</time></trkpt><trkpt lat="45.10937281151534" lon="9.376579721049373"><ele>55.0</ele><time>2026-04-19T12:38:24.001Z</time></trkpt><trkpt lat="45.10933505400383" lon="9.376793189569431"><ele>55.0</ele><time>2026-04-19T12:38:25.001Z</time></trkpt><trkpt lat="45.10929108082984" lon="9.377008524860804"><ele>55.0</ele><time>2026-04-19T12:38:26.001Z</time></trkpt><trkpt lat="45.109239984187184" lon="9.3772049115234"><ele>55.0</ele><time>2026-04-19T12:38:27.001Z</time></trkpt><trkpt lat="45.10918039991515" lon="9.37737943271865"><ele>55.0</ele><time>2026-04-19T12:38:28.001Z</time></trkpt><trkpt lat="45.10912203951046" lon="9.377539257055634"><ele>55.0</ele><time>2026-04-19T12:38:29.001Z</time></trkpt><trkpt lat="45.1090594108136" lon="9.377697766963076"><ele>55.0</ele><time>2026-04-19T12:38:30.001Z</time></trkpt><trkpt lat="45.10899657571715" lon="9.377871689733777"><ele>55.0</ele><time>2026-04-19T12:38:31.001Z</time></trkpt><trkpt lat="45.10893567840737" lon="9.37805451712015"><ele>55.0</ele><time>2026-04-19T12:38:32.001Z</time></trkpt><trkpt lat="45.10887112955561" lon="9.378237457930034"><ele>55.0</ele><time>2026-04-19T12:38:33.001Z</time></trkpt><trkpt lat="45.10880581108967" lon="9.378419029756387"><ele>55.0</ele><time>2026-04-19T12:38:34.001Z</time></trkpt><trkpt lat="45.108741112579644" lon="9.37860334077732"><ele>55.0</ele><time>2026-04-19T12:38:35.001Z</time></trkpt><trkpt lat="45.108675157080356" lon="9.378791978785726"><ele>55.0</ele><time>2026-04-19T12:38:36.001Z</time></trkpt><trkpt lat="45.108606520135844" lon="9.378985352668785"><ele>55.0</ele><time>2026-04-19T12:38:37.001Z</time></trkpt><trkpt lat="45.10853576513568" lon="9.379180693673561"><ele>54.666666666666664</ele><time>2026-04-19T12:38:38.001Z</time></trkpt><trkpt lat="45.108466962041355" lon="9.379381019588745"><ele>54.33333333333333</ele><time>2026-04-19T12:38:39.001Z</time></trkpt><trkpt lat="45.108397428529685" lon="9.379577859952358"><ele>54.0</ele><time>2026-04-19T12:38:40.001Z</time></trkpt><trkpt lat="45.108335061469326" lon="9.379755581231263"><ele>54.0</ele><time>2026-04-19T12:38:41.001Z</time></trkpt><trkpt lat="45.108279460817656" lon="9.379918338140454"><ele>54.0</ele><time>2026-04-19T12:38:42.001Z</time></trkpt><trkpt lat="45.1082150857534" lon="9.380089995267758"><ele>54.0</ele><time>2026-04-19T12:38:43.001Z</time></trkpt><trkpt lat="45.10815250540959" lon="9.380270350201856"><ele>54.0</ele><time>2026-04-19T12:38:44.001Z</time></trkpt><trkpt lat="45.10809589281178" lon="9.380452047818231"><ele>53.75</ele><time>2026-04-19T12:38:45.001Z</time></trkpt><trkpt lat="45.108043176894434" lon="9.380636944203637"><ele>53.5</ele><time>2026-04-19T12:38:46.001Z</time></trkpt><trkpt lat="45.107992551003676" lon="9.380830064887398"><ele>53.25</ele><time>2026-04-19T12:38:47.001Z</time></trkpt><trkpt lat="45.10793954101475" lon="9.381025938392336"><ele>53.0</ele><time>2026-04-19T12:38:48.001Z</time></trkpt><trkpt lat="45.10789586363608" lon="9.381211156478836"><ele>53.25</ele><time>2026-04-19T12:38:49.001Z</time></trkpt><trkpt lat="45.107849167036775" lon="9.381404327379897"><ele>53.5</ele><time>2026-04-19T12:38:50.001Z</time></trkpt><trkpt lat="45.107802574738194" lon="9.381593632876248"><ele>53.75</ele><time>2026-04-19T12:38:51.001Z</time></trkpt><trkpt lat="45.10775378187697" lon="9.38178515222476"><ele>54.0</ele><time>2026-04-19T12:38:52.001Z</time></trkpt><trkpt lat="45.10770827564301" lon="9.381990174"><ele>54.0</ele><time>2026-04-19T12:38:53.001Z</time></trkpt><trkpt lat="45.107658673580794" lon="9.38220730726699"><ele>54.0</ele><time>2026-04-19T12:38:54.001Z</time></trkpt><trkpt lat="45.10759443199845" lon="9.382425349542348"><ele>54.0</ele><time>2026-04-19T12:38:55.001Z</time></trkpt><trkpt lat="45.10752571201533" lon="9.382640364296586"><ele>54.0</ele><time>2026-04-19T12:38:56.001Z</time></trkpt><trkpt lat="45.107449292391976" lon="9.382856649455174"><ele>54.0</ele><time>2026-04-19T12:38:57.001Z</time></trkpt><trkpt lat="45.10736953612684" lon="9.3830725030718"><ele>54.0</ele><time>2026-04-19T12:38:58.001Z</time></trkpt><trkpt lat="45.107288195195466" lon="9.383284836388034"><ele>55.0</ele><time>2026-04-19T12:38:59.001Z</time></trkpt><trkpt lat="45.10720477013121" lon="9.38349903909777"><ele>56.0</ele><time>2026-04-19T12:39:00.001Z</time></trkpt><trkpt lat="45.10712205701421" lon="9.383712600236967"><ele>57.0</ele><time>2026-04-19T12:39:01.001Z</time></trkpt><trkpt lat="45.107043044880655" lon="9.383920475189777"><ele>57.0</ele><time>2026-04-19T12:39:02.001Z</time></trkpt><trkpt lat="45.106960854619075" lon="9.384129443433316"><ele>57.0</ele><time>2026-04-19T12:39:03.001Z</time></trkpt><trkpt lat="45.10688117759547" lon="9.38433643065298"><ele>57.0</ele><time>2026-04-19T12:39:04.001Z</time></trkpt><trkpt lat="45.10680709798856" lon="9.384535001469287"><ele>57.0</ele><time>2026-04-19T12:39:05.001Z</time></trkpt><trkpt lat="45.106729798993946" lon="9.384721018853758"><ele>57.0</ele><time>2026-04-19T12:39:06.001Z</time></trkpt><trkpt lat="45.10665027393839" lon="9.384902715542712"><ele>57.0</ele><time>2026-04-19T12:39:07.001Z</time></trkpt><trkpt lat="45.106572040462105" lon="9.385081813502321"><ele>57.25</ele><time>2026-04-19T12:39:08.001Z</time></trkpt><trkpt lat="45.10649811977129" lon="9.385252486398267"><ele>57.5</ele><time>2026-04-19T12:39:09.001Z</time></trkpt><trkpt lat="45.10642884883542" lon="9.385410916457927"><ele>57.75</ele><time>2026-04-19T12:39:10.001Z</time></trkpt><trkpt lat="45.10636341714713" lon="9.385554517407291"><ele>58.0</ele><time>2026-04-19T12:39:11.001Z</time></trkpt><trkpt lat="45.10629728595357" lon="9.385688629364004"><ele>58.0</ele><time>2026-04-19T12:39:12.001Z</time></trkpt><trkpt lat="45.1062381646157" lon="9.385816057110965"><ele>58.0</ele><time>2026-04-19T12:39:13.001Z</time></trkpt><trkpt lat="45.106179578222445" lon="9.385936883523945"><ele>58.0</ele><time>2026-04-19T12:39:14.001Z</time></trkpt><trkpt lat="45.10612149473345" lon="9.386045771235738"><ele>58.0</ele><time>2026-04-19T12:39:15.001Z</time></trkpt><trkpt lat="45.10606300134228" lon="9.386169034323185"><ele>58.0</ele><time>2026-04-19T12:39:16.001Z</time></trkpt><trkpt lat="45.10599305649779" lon="9.386310410449822"><ele>57.25</ele><time>2026-04-19T12:39:16.998Z</time></trkpt><trkpt lat="45.10591766240641" lon="9.38646554961645"><ele>56.5</ele><time>2026-04-19T12:39:17.998Z</time></trkpt><trkpt lat="45.105836664221364" lon="9.38663330564944"><ele>55.75</ele><time>2026-04-19T12:39:18.998Z</time></trkpt><trkpt lat="45.10575412633864" lon="9.386804546124475"><ele>55.0</ele><time>2026-04-19T12:39:19.998Z</time></trkpt><trkpt lat="45.10567100246472" lon="9.386972723112798"><ele>55.0</ele><time>2026-04-19T12:39:20.998Z</time></trkpt><trkpt lat="45.105586100386944" lon="9.387138469340785"><ele>55.0</ele><time>2026-04-19T12:39:21.998Z</time></trkpt><trkpt lat="45.105503396424744" lon="9.38730295686456"><ele>55.0</ele><time>2026-04-19T12:39:22.998Z</time></trkpt><trkpt lat="45.10542466703078" lon="9.387463211970694"><ele>55.0</ele><time>2026-04-19T12:39:23.998Z</time></trkpt><trkpt lat="45.10534594698556" lon="9.387623160494384"><ele>54.75</ele><time>2026-04-19T12:39:24.998Z</time></trkpt><trkpt lat="45.1052748908528" lon="9.387774030308142"><ele>54.5</ele><time>2026-04-19T12:39:25.998Z</time></trkpt><trkpt lat="45.10520209954539" lon="9.387927946691782"><ele>54.25</ele><time>2026-04-19T12:39:26.998Z</time></trkpt><trkpt lat="45.105132559774034" lon="9.388081456334449"><ele>54.0</ele><time>2026-04-19T12:39:27.998Z</time></trkpt><trkpt lat="45.105063517686276" lon="9.388231481103357"><ele>54.0</ele><time>2026-04-19T12:39:28.998Z</time></trkpt><trkpt lat="45.104996442646225" lon="9.388373896354118"><ele>54.0</ele><time>2026-04-19T12:39:29.999Z</time></trkpt><trkpt lat="45.104932702825685" lon="9.388511148047119"><ele>54.0</ele><time>2026-04-19T12:39:30.999Z</time></trkpt><trkpt lat="45.10487409629814" lon="9.388638834446025"><ele>54.0</ele><time>2026-04-19T12:39:31.999Z</time></trkpt><trkpt lat="45.10481393638314" lon="9.38876781146204"><ele>53.666666666666664</ele><time>2026-04-19T12:39:32.999Z</time></trkpt><trkpt lat="45.10475878878295" lon="9.388884935276002"><ele>53.33333333333333</ele><time>2026-04-19T12:39:33.999Z</time></trkpt><trkpt lat="45.10470639289116" lon="9.389006701823094"><ele>53.0</ele><time>2026-04-19T12:39:34.999Z</time></trkpt><trkpt lat="45.10466232806491" lon="9.389119488993478"><ele>52.666666666666664</ele><time>2026-04-19T12:39:35.999Z</time></trkpt><trkpt lat="45.10461857577649" lon="9.38921813641661"><ele>52.33333333333333</ele><time>2026-04-19T12:39:36.999Z</time></trkpt><trkpt lat="45.104580336385844" lon="9.389289489525577"><ele>52.0</ele><time>2026-04-19T12:39:37.999Z</time></trkpt><trkpt lat="45.104522138707566" lon="9.389391672209847"><ele>52.0</ele><time>2026-04-19T12:39:39.999Z</time></trkpt><trkpt lat="45.104325407284996" lon="9.389287933305953"><ele>52.0</ele><time>2026-04-19T12:39:44.999Z</time></trkpt><trkpt lat="45.10421379135264" lon="9.389221147408955"><ele>52.0</ele><time>2026-04-19T12:39:46.999Z</time></trkpt><trkpt lat="45.1041504437291" lon="9.389184958925433"><ele>52.0</ele><time>2026-04-19T12:39:47.999Z</time></trkpt><trkpt lat="45.104083087270304" lon="9.389145600758471"><ele>51.99999999999999</ele><time>2026-04-19T12:39:48.999Z</time></trkpt><trkpt lat="45.10401603754757" lon="9.389108725881226"><ele>52.0</ele><time>2026-04-19T12:39:49.999Z</time></trkpt><trkpt lat="45.10394125968108" lon="9.389068246680724"><ele>52.0</ele><time>2026-04-19T12:39:50.999Z</time></trkpt><trkpt lat="45.10387081104221" lon="9.389023981534535"><ele>52.0</ele><time>2026-04-19T12:39:51.999Z</time></trkpt><trkpt lat="45.10379632218689" lon="9.388982231258629"><ele>51.99999999999999</ele><time>2026-04-19T12:39:52.999Z</time></trkpt><trkpt lat="45.10372969862477" lon="9.388942876271544"><ele>52.0</ele><time>2026-04-19T12:39:54Z</time></trkpt><trkpt lat="45.1036514308869" lon="9.38889851987264"><ele>52.0</ele><time>2026-04-19T12:39:55Z</time></trkpt><trkpt lat="45.103578713209245" lon="9.388855267948863"><ele>52.0</ele><time>2026-04-19T12:39:56Z</time></trkpt><trkpt lat="45.10349951554859" lon="9.388811704551088"><ele>52.0</ele><time>2026-04-19T12:39:57Z</time></trkpt><trkpt lat="45.103433282143754" lon="9.388770789743008"><ele>52.0</ele><time>2026-04-19T12:39:58Z</time></trkpt><trkpt lat="45.10336618037465" lon="9.388734342326048"><ele>52.0</ele><time>2026-04-19T12:39:59Z</time></trkpt><trkpt lat="45.103300456184364" lon="9.38869562388781"><ele>52.0</ele><time>2026-04-19T12:40:00Z</time></trkpt><trkpt lat="45.10323877039022" lon="9.388659788299819"><ele>52.0</ele><time>2026-04-19T12:40:01Z</time></trkpt><trkpt lat="45.10317597386172" lon="9.388622937171931"><ele>52.400000000000006</ele><time>2026-04-19T12:40:02Z</time></trkpt><trkpt lat="45.103115161574515" lon="9.388585557524008"><ele>52.800000000000004</ele><time>2026-04-19T12:40:03Z</time></trkpt><trkpt lat="45.10301127164885" lon="9.388528131252196"><ele>53.2</ele><time>2026-04-19T12:40:05Z</time></trkpt><trkpt lat="45.1028960581582" lon="9.388460631773116"><ele>53.6</ele><time>2026-04-19T12:40:07Z</time></trkpt><trkpt lat="45.10283279544813" lon="9.388421171623818"><ele>54.0</ele><time>2026-04-19T12:40:08Z</time></trkpt><trkpt lat="45.102732750283415" lon="9.388363560835415"><ele>54.0</ele><time>2026-04-19T12:40:10Z</time></trkpt><trkpt lat="45.102643139472384" lon="9.388311744191702"><ele>54.00000000000001</ele><time>2026-04-19T12:40:12Z</time></trkpt><trkpt lat="45.10254028160058" lon="9.38824329237054"><ele>54.00000000000001</ele><time>2026-04-19T12:40:14Z</time></trkpt><trkpt lat="45.10245278126481" lon="9.388205644780054"><ele>54.0</ele><time>2026-04-19T12:40:16Z</time></trkpt><trkpt lat="45.10237385303958" lon="9.38815600830385"><ele>54.0</ele><time>2026-04-19T12:40:18Z</time></trkpt><trkpt lat="45.10230158576904" lon="9.388133128847063"><ele>53.666666666666664</ele><time>2026-04-19T12:40:20Z</time></trkpt><trkpt lat="45.10222701747788" lon="9.388169306613216"><ele>53.33333333333333</ele><time>2026-04-19T12:40:22Z</time></trkpt><trkpt lat="45.102141494621996" lon="9.388262410665394"><ele>53.0</ele><time>2026-04-19T12:40:24Z</time></trkpt><trkpt lat="45.10209779086227" lon="9.388328110736945"><ele>52.666666666666664</ele><time>2026-04-19T12:40:25Z</time></trkpt><trkpt lat="45.10200120442876" lon="9.388444807732972"><ele>52.33333333333333</ele><time>2026-04-19T12:40:27Z</time></trkpt><trkpt lat="45.101953664229924" lon="9.388506042056585"><ele>52.0</ele><time>2026-04-19T12:40:28Z</time></trkpt><trkpt lat="45.101905810431134" lon="9.388573063790911"><ele>52.0</ele><time>2026-04-19T12:40:29Z</time></trkpt><trkpt lat="45.10185466626497" lon="9.388639257541653"><ele>52.0</ele><time>2026-04-19T12:40:30Z</time></trkpt><trkpt lat="45.10180589055885" lon="9.38870677093002"><ele>52.0</ele><time>2026-04-19T12:40:31Z</time></trkpt><trkpt lat="45.10175655083592" lon="9.388773571128933"><ele>52.0</ele><time>2026-04-19T12:40:32Z</time></trkpt><trkpt lat="45.10170410410173" lon="9.388837919761194"><ele>52.0</ele><time>2026-04-19T12:40:33Z</time></trkpt><trkpt lat="45.10165235746836" lon="9.388907734494536"><ele>52.0</ele><time>2026-04-19T12:40:34Z</time></trkpt><trkpt lat="45.101605986559534" lon="9.388970325037514"><ele>52.0</ele><time>2026-04-19T12:40:35Z</time></trkpt><trkpt lat="45.101554327856284" lon="9.389039943926738"><ele>52.71428571428571</ele><time>2026-04-19T12:40:36Z</time></trkpt><trkpt lat="45.10150075142341" lon="9.38911205979679"><ele>53.42857142857143</ele><time>2026-04-19T12:40:37Z</time></trkpt><trkpt lat="45.10145080204239" lon="9.389184043201345"><ele>54.14285714285714</ele><time>2026-04-19T12:40:38Z</time></trkpt><trkpt lat="45.10140429605675" lon="9.389263320690002"><ele>54.857142857142854</ele><time>2026-04-19T12:40:39Z</time></trkpt><trkpt lat="45.101357306061445" lon="9.389343799803711"><ele>55.57142857142857</ele><time>2026-04-19T12:40:40Z</time></trkpt><trkpt lat="45.1013126106911" lon="9.389438403878058"><ele>56.285714285714285</ele><time>2026-04-19T12:40:41.001Z</time></trkpt><trkpt lat="45.10127087736386" lon="9.389526073321955"><ele>57.0</ele><time>2026-04-19T12:40:42.001Z</time></trkpt><trkpt lat="45.101203884804534" lon="9.38967108806296"><ele>57.0</ele><time>2026-04-19T12:40:44.001Z</time></trkpt><trkpt lat="45.101157064807" lon="9.389753580411815"><ele>57.0</ele><time>2026-04-19T12:40:45.001Z</time></trkpt><trkpt lat="45.10112077246713" lon="9.389829608955075"><ele>57.0</ele><time>2026-04-19T12:40:46.001Z</time></trkpt><trkpt lat="45.101041311942964" lon="9.3899742261879"><ele>57.0</ele><time>2026-04-19T12:40:48.001Z</time></trkpt><trkpt lat="45.10099001772236" lon="9.390054436110141"><ele>57.0</ele><time>2026-04-19T12:40:49.001Z</time></trkpt><trkpt lat="45.10093853155449" lon="9.390130227234017"><ele>57.0</ele><time>2026-04-19T12:40:50.001Z</time></trkpt><trkpt lat="45.10088352636091" lon="9.39020480433102"><ele>57.0</ele><time>2026-04-19T12:40:51.001Z</time></trkpt><trkpt lat="45.100790579864245" lon="9.390317555542376"><ele>57.0</ele><time>2026-04-19T12:40:53.001Z</time></trkpt><trkpt lat="45.1007358861655" lon="9.39038075813237"><ele>57.0</ele><time>2026-04-19T12:40:54.001Z</time></trkpt><trkpt lat="45.10067974946955" lon="9.390447850148323"><ele>57.0</ele><time>2026-04-19T12:40:55.001Z</time></trkpt><trkpt lat="45.100628986525095" lon="9.390510445936135"><ele>57.0</ele><time>2026-04-19T12:40:56.001Z</time></trkpt><trkpt lat="45.10054222913202" lon="9.390647229404145"><ele>56.71428571428571</ele><time>2026-04-19T12:40:58.001Z</time></trkpt><trkpt lat="45.10049955640912" lon="9.390720181456794"><ele>56.42857142857142</ele><time>2026-04-19T12:40:59.001Z</time></trkpt><trkpt lat="45.100452644264394" lon="9.390805567687638"><ele>56.14285714285714</ele><time>2026-04-19T12:41:00.001Z</time></trkpt><trkpt lat="45.10040701368576" lon="9.390883764844645"><ele>55.857142857142854</ele><time>2026-04-19T12:41:01.001Z</time></trkpt><trkpt lat="45.100364821209446" lon="9.390953269902226"><ele>55.57142857142857</ele><time>2026-04-19T12:41:02.001Z</time></trkpt><trkpt lat="45.10032017070042" lon="9.39102587319029"><ele>55.28571428571428</ele><time>2026-04-19T12:41:03.001Z</time></trkpt><trkpt lat="45.10027375409666" lon="9.39110118337636"><ele>55.0</ele><time>2026-04-19T12:41:04.001Z</time></trkpt><trkpt lat="45.10022770633868" lon="9.391186127781289"><ele>54.99999999999999</ele><time>2026-04-19T12:41:05.001Z</time></trkpt><trkpt lat="45.10018080438015" lon="9.39127105088661"><ele>55.0</ele><time>2026-04-19T12:41:06.001Z</time></trkpt><trkpt lat="45.10013977297413" lon="9.39135132195062"><ele>55.0</ele><time>2026-04-19T12:41:07.001Z</time></trkpt><trkpt lat="45.1000965269011" lon="9.391431024875736"><ele>55.0</ele><time>2026-04-19T12:41:08.001Z</time></trkpt><trkpt lat="45.10005752556813" lon="9.391519017483082"><ele>55.0</ele><time>2026-04-19T12:41:09.001Z</time></trkpt><trkpt lat="45.10002255765064" lon="9.39161554839066"><ele>54.99999999999999</ele><time>2026-04-19T12:41:10.001Z</time></trkpt><trkpt lat="45.09998783807019" lon="9.391715423229428"><ele>55.0</ele><time>2026-04-19T12:41:11.001Z</time></trkpt><trkpt lat="45.099956653497266" lon="9.39180834063678"><ele>54.99999999999999</ele><time>2026-04-19T12:41:12.001Z</time></trkpt><trkpt lat="45.099924741823465" lon="9.391919217695584"><ele>55.0</ele><time>2026-04-19T12:41:13.001Z</time></trkpt><trkpt lat="45.09989774614073" lon="9.392043173661461"><ele>55.0</ele><time>2026-04-19T12:41:14.001Z</time></trkpt><trkpt lat="45.09986411435288" lon="9.392153450083446"><ele>55.0</ele><time>2026-04-19T12:41:15.001Z</time></trkpt><trkpt lat="45.09983654294284" lon="9.392249717446957"><ele>54.99999999999999</ele><time>2026-04-19T12:41:16.001Z</time></trkpt><trkpt lat="45.09980839560441" lon="9.39234956136245"><ele>55.0</ele><time>2026-04-19T12:41:17.001Z</time></trkpt><trkpt lat="45.09978453652058" lon="9.392448009103646"><ele>54.857142857142854</ele><time>2026-04-19T12:41:18.001Z</time></trkpt><trkpt lat="45.099761825225265" lon="9.392539144812073"><ele>54.714285714285715</ele><time>2026-04-19T12:41:19.001Z</time></trkpt><trkpt lat="45.099746980847314" lon="9.392626188892043"><ele>54.57142857142857</ele><time>2026-04-19T12:41:20.001Z</time></trkpt><trkpt lat="45.09974088153645" lon="9.392732346829069"><ele>54.42857142857143</ele><time>2026-04-19T12:41:21.001Z</time></trkpt><trkpt lat="45.0997593107514" lon="9.392819721057506"><ele>54.285714285714285</ele><time>2026-04-19T12:41:22.001Z</time></trkpt><trkpt lat="45.09978114690989" lon="9.392917903959312"><ele>54.14285714285714</ele><time>2026-04-19T12:41:22.999Z</time></trkpt><trkpt lat="45.09981330236966" lon="9.393025576368498"><ele>54.0</ele><time>2026-04-19T12:41:23.999Z</time></trkpt><trkpt lat="45.09984367370761" lon="9.393112893158676"><ele>53.6</ele><time>2026-04-19T12:41:24.999Z</time></trkpt><trkpt lat="45.09986802329637" lon="9.393195733830712"><ele>53.2</ele><time>2026-04-19T12:41:25.999Z</time></trkpt><trkpt lat="45.09991204887754" lon="9.393346232007858"><ele>52.800000000000004</ele><time>2026-04-19T12:41:27.999Z</time></trkpt><trkpt lat="45.099996503654026" lon="9.39345478594196"><ele>52.400000000000006</ele><time>2026-04-19T12:41:29.999Z</time></trkpt><trkpt lat="45.10011871336768" lon="9.393473329837867"><ele>52.0</ele><time>2026-04-19T12:41:32Z</time></trkpt><trkpt lat="45.10019430147545" lon="9.393460521213234"><ele>51.8</ele><time>2026-04-19T12:41:33Z</time></trkpt><trkpt lat="45.10026643042482" lon="9.393437886494095"><ele>51.6</ele><time>2026-04-19T12:41:34Z</time></trkpt><trkpt lat="45.100352388947464" lon="9.393417985676042"><ele>51.4</ele><time>2026-04-19T12:41:35Z</time></trkpt><trkpt lat="45.10045572924775" lon="9.393402073101377"><ele>51.199999999999996</ele><time>2026-04-19T12:41:36Z</time></trkpt><trkpt lat="45.10056517256961" lon="9.393405157573275"><ele>51.0</ele><time>2026-04-19T12:41:37Z</time></trkpt><trkpt lat="45.10068936534159" lon="9.393425951666497"><ele>51.0</ele><time>2026-04-19T12:41:38Z</time></trkpt><trkpt lat="45.10082041060325" lon="9.393438152705032"><ele>51.0</ele><time>2026-04-19T12:41:39Z</time></trkpt><trkpt lat="45.10096229689351" lon="9.393441853815313"><ele>51.0</ele><time>2026-04-19T12:41:40Z</time></trkpt><trkpt lat="45.101104739080924" lon="9.393434923543419"><ele>51.0</ele><time>2026-04-19T12:41:41Z</time></trkpt><trkpt lat="45.10124342724539" lon="9.393425372616662"><ele>51.0</ele><time>2026-04-19T12:41:42Z</time></trkpt><trkpt lat="45.1013774143493" lon="9.393417108898111"><ele>51.0</ele><time>2026-04-19T12:41:43Z</time></trkpt><trkpt lat="45.10150149504125" lon="9.393409423761538"><ele>51.0</ele><time>2026-04-19T12:41:44Z</time></trkpt><trkpt lat="45.1016303091916" lon="9.393402258192236"><ele>51.0</ele><time>2026-04-19T12:41:45Z</time></trkpt><trkpt lat="45.101759959325996" lon="9.393393123016525"><ele>51.0</ele><time>2026-04-19T12:41:46Z</time></trkpt><trkpt lat="45.10188396518115" lon="9.393381491100698"><ele>51.0</ele><time>2026-04-19T12:41:47Z</time></trkpt><trkpt lat="45.10201056952281" lon="9.393371486773297"><ele>51.0</ele><time>2026-04-19T12:41:48Z</time></trkpt><trkpt lat="45.102132713823934" lon="9.393360473671214"><ele>51.0</ele><time>2026-04-19T12:41:49Z</time></trkpt><trkpt lat="45.102255135294904" lon="9.393341351706525"><ele>51.0</ele><time>2026-04-19T12:41:50Z</time></trkpt><trkpt lat="45.10238000222438" lon="9.393309169894955"><ele>51.0</ele><time>2026-04-19T12:41:51Z</time></trkpt><trkpt lat="45.10249552873711" lon="9.39327069583989"><ele>51.0</ele><time>2026-04-19T12:41:52Z</time></trkpt><trkpt lat="45.1026150316423" lon="9.393235498816454"><ele>51.0</ele><time>2026-04-19T12:41:53Z</time></trkpt><trkpt lat="45.10273198894889" lon="9.393207128913739"><ele>51.0</ele><time>2026-04-19T12:41:54Z</time></trkpt><trkpt lat="45.10283729919323" lon="9.393175192415507"><ele>51.0</ele><time>2026-04-19T12:41:55Z</time></trkpt><trkpt lat="45.10292956394057" lon="9.393145972407416"><ele>51.0</ele><time>2026-04-19T12:41:56Z</time></trkpt><trkpt lat="45.10301485383585" lon="9.393122216653893"><ele>51.0</ele><time>2026-04-19T12:41:57Z</time></trkpt><trkpt lat="45.103100415265324" lon="9.393117052709805"><ele>51.0</ele><time>2026-04-19T12:41:58Z</time></trkpt><trkpt lat="45.10319503385572" lon="9.393140032638293"><ele>51.166666666666664</ele><time>2026-04-19T12:41:59Z</time></trkpt><trkpt lat="45.103295108140884" lon="9.39317688644988"><ele>51.33333333333333</ele><time>2026-04-19T12:42:00Z</time></trkpt><trkpt lat="45.10336421192859" lon="9.393206296929062"><ele>51.5</ele><time>2026-04-19T12:42:01Z</time></trkpt><trkpt lat="45.10343422558533" lon="9.393250940306597"><ele>51.666666666666664</ele><time>2026-04-19T12:42:03Z</time></trkpt><trkpt lat="45.103440324275994" lon="9.393371739227506"><ele>51.83333333333333</ele><time>2026-04-19T12:42:05Z</time></trkpt><trkpt lat="45.10340328392865" lon="9.393489413593336"><ele>52.0</ele><time>2026-04-19T12:42:07Z</time></trkpt><trkpt lat="45.10338600818703" lon="9.3936396925406"><ele>52.0</ele><time>2026-04-19T12:42:09Z</time></trkpt><trkpt lat="45.1033782842007" lon="9.393737460512389"><ele>52.0</ele><time>2026-04-19T12:42:10Z</time></trkpt><trkpt lat="45.10336792889476" lon="9.393840855878699"><ele>52.0</ele><time>2026-04-19T12:42:11Z</time></trkpt><trkpt lat="45.10335879458038" lon="9.393950087712959"><ele>52.0</ele><time>2026-04-19T12:42:12.001Z</time></trkpt><trkpt lat="45.10335109177197" lon="9.394058843575484"><ele>52.0</ele><time>2026-04-19T12:42:13.001Z</time></trkpt><trkpt lat="45.103350735390066" lon="9.394151718273548"><ele>52.0</ele><time>2026-04-19T12:42:14.001Z</time></trkpt><trkpt lat="45.10334023518767" lon="9.394253620585191"><ele>52.0</ele><time>2026-04-19T12:42:15.001Z</time></trkpt><trkpt lat="45.103331201789686" lon="9.394357067219522"><ele>52.166666666666664</ele><time>2026-04-19T12:42:16.001Z</time></trkpt><trkpt lat="45.103323923096774" lon="9.3944642894195"><ele>52.33333333333333</ele><time>2026-04-19T12:42:17.001Z</time></trkpt><trkpt lat="45.103314135771434" lon="9.394577204137745"><ele>52.5</ele><time>2026-04-19T12:42:18.001Z</time></trkpt><trkpt lat="45.10330335397051" lon="9.394698551081415"><ele>52.66666666666667</ele><time>2026-04-19T12:42:19.001Z</time></trkpt><trkpt lat="45.10329021858291" lon="9.394828317459673"><ele>52.833333333333336</ele><time>2026-04-19T12:42:20.001Z</time></trkpt><trkpt lat="45.103276882380015" lon="9.39496344728976"><ele>53.0</ele><time>2026-04-19T12:42:21.001Z</time></trkpt><trkpt lat="45.10326162114808" lon="9.39511273564412"><ele>53.0</ele><time>2026-04-19T12:42:22.001Z</time></trkpt><trkpt lat="45.10325118126122" lon="9.395267741790708"><ele>53.0</ele><time>2026-04-19T12:42:23.001Z</time></trkpt><trkpt lat="45.10324337015281" lon="9.3954234894754"><ele>53.0</ele><time>2026-04-19T12:42:24.001Z</time></trkpt><trkpt lat="45.10323328706669" lon="9.395582171070297"><ele>53.0</ele><time>2026-04-19T12:42:25.001Z</time></trkpt><trkpt lat="45.10321649059489" lon="9.395743626253742"><ele>53.0</ele><time>2026-04-19T12:42:26.001Z</time></trkpt><trkpt lat="45.103196654484236" lon="9.39590511876879"><ele>52.8</ele><time>2026-04-19T12:42:27.001Z</time></trkpt><trkpt lat="45.10318378619389" lon="9.396062260779726"><ele>52.599999999999994</ele><time>2026-04-19T12:42:28.001Z</time></trkpt><trkpt lat="45.103173299296046" lon="9.396216135767727"><ele>52.400000000000006</ele><time>2026-04-19T12:42:29.001Z</time></trkpt><trkpt lat="45.10316236839445" lon="9.396376301429898"><ele>52.2</ele><time>2026-04-19T12:42:30.001Z</time></trkpt><trkpt lat="45.10314909776297" lon="9.396535037288567"><ele>52.0</ele><time>2026-04-19T12:42:31.001Z</time></trkpt><trkpt lat="45.10313729804576" lon="9.39669165129484"><ele>51.8</ele><time>2026-04-19T12:42:32.001Z</time></trkpt><trkpt lat="45.1031205443443" lon="9.396848329914915"><ele>51.6</ele><time>2026-04-19T12:42:33.001Z</time></trkpt><trkpt lat="45.10310400228861" lon="9.397000239816316"><ele>51.4</ele><time>2026-04-19T12:42:34.001Z</time></trkpt><trkpt lat="45.10309302237211" lon="9.397144812968907"><ele>51.199999999999996</ele><time>2026-04-19T12:42:35.001Z</time></trkpt><trkpt lat="45.103081493304444" lon="9.397301802631674"><ele>51.0</ele><time>2026-04-19T12:42:36.001Z</time></trkpt><trkpt lat="45.10307333904098" lon="9.397444367087491"><ele>51.0</ele><time>2026-04-19T12:42:37.001Z</time></trkpt><trkpt lat="45.10306787062256" lon="9.397587289691202"><ele>51.0</ele><time>2026-04-19T12:42:38.001Z</time></trkpt><trkpt lat="45.10305850593404" lon="9.397721158530471"><ele>51.0</ele><time>2026-04-19T12:42:39.001Z</time></trkpt><trkpt lat="45.10304711097944" lon="9.397853849381223"><ele>51.0</ele><time>2026-04-19T12:42:40.001Z</time></trkpt><trkpt lat="45.10303394971696" lon="9.397971293189284"><ele>51.0</ele><time>2026-04-19T12:42:41.001Z</time></trkpt><trkpt lat="45.103024816637735" lon="9.398097749083876"><ele>51.0</ele><time>2026-04-19T12:42:42.001Z</time></trkpt><trkpt lat="45.10301551784132" lon="9.398216574941616"><ele>51.0</ele><time>2026-04-19T12:42:43.001Z</time></trkpt><trkpt lat="45.10300927596219" lon="9.398314011846741"><ele>51.0</ele><time>2026-04-19T12:42:44.001Z</time></trkpt><trkpt lat="45.10300094451093" lon="9.398414044397404"><ele>51.0</ele><time>2026-04-19T12:42:45.001Z</time></trkpt><trkpt lat="45.10298987137834" lon="9.398509175220168"><ele>51.0</ele><time>2026-04-19T12:42:46.001Z</time></trkpt><trkpt lat="45.10296616843231" lon="9.398596609119656"><ele>51.0</ele><time>2026-04-19T12:42:47.001Z</time></trkpt><trkpt lat="45.10294944847224" lon="9.39871676078222"><ele>51.0</ele><time>2026-04-19T12:42:50.001Z</time></trkpt><trkpt lat="45.10294830405432" lon="9.39883129347017"><ele>51.0</ele><time>2026-04-19T12:42:52.001Z</time></trkpt><trkpt lat="45.102598769762956" lon="9.398879473743754"><ele>51.0</ele><time>2026-04-19T12:42:53.001Z</time></trkpt><trkpt lat="45.10248848838805" lon="9.398958800905376"><ele>50.75</ele><time>2026-04-19T12:42:54.001Z</time></trkpt><trkpt lat="45.102366119850345" lon="9.399047984909325"><ele>50.5</ele><time>2026-04-19T12:42:55.001Z</time></trkpt><trkpt lat="45.102237878923845" lon="9.399140233886017"><ele>50.25</ele><time>2026-04-19T12:42:56.001Z</time></trkpt><trkpt lat="45.1021093320794" lon="9.399228804532397"><ele>50.0</ele><time>2026-04-19T12:42:57.001Z</time></trkpt><trkpt lat="45.101978039642525" lon="9.399321319184297"><ele>50.0</ele><time>2026-04-19T12:42:58.001Z</time></trkpt><trkpt lat="45.101852725013615" lon="9.399417885735382"><ele>50.0</ele><time>2026-04-19T12:42:59.001Z</time></trkpt><trkpt lat="45.10171747988767" lon="9.399508601304934"><ele>50.0</ele><time>2026-04-19T12:43:00.001Z</time></trkpt><trkpt lat="45.10159355336154" lon="9.399580410162942"><ele>50.0</ele><time>2026-04-19T12:43:01.001Z</time></trkpt><trkpt lat="45.10146688761152" lon="9.399673585770788"><ele>50.25</ele><time>2026-04-19T12:43:02.002Z</time></trkpt><trkpt lat="45.10134442780844" lon="9.399754527371412"><ele>50.5</ele><time>2026-04-19T12:43:03.002Z</time></trkpt><trkpt lat="45.10122504350125" lon="9.399832295224815"><ele>50.75</ele><time>2026-04-19T12:43:04.002Z</time></trkpt><trkpt lat="45.10111238229882" lon="9.39991115028098"><ele>51.0</ele><time>2026-04-19T12:43:05.002Z</time></trkpt><trkpt lat="45.101008513581725" lon="9.399984875697003"><ele>51.0</ele><time>2026-04-19T12:43:06.002Z</time></trkpt><trkpt lat="45.10091499267703" lon="9.400045185741424"><ele>51.0</ele><time>2026-04-19T12:43:07.002Z</time></trkpt><trkpt lat="45.10082552928365" lon="9.400105203866866"><ele>51.0</ele><time>2026-04-19T12:43:08.002Z</time></trkpt><trkpt lat="45.10073786749268" lon="9.400150176787367"><ele>51.0</ele><time>2026-04-19T12:43:09.002Z</time></trkpt><trkpt lat="45.10066030658362" lon="9.400215096142905"><ele>51.0</ele><time>2026-04-19T12:43:10.002Z</time></trkpt><trkpt lat="45.10057621352903" lon="9.400253105995995"><ele>51.333333333333336</ele><time>2026-04-19T12:43:11.002Z</time></trkpt><trkpt lat="45.100484910479075" lon="9.400281158662912"><ele>51.66666666666667</ele><time>2026-04-19T12:43:12.002Z</time></trkpt><trkpt lat="45.10039363079837" lon="9.400285823361312"><ele>52.0</ele><time>2026-04-19T12:43:13.002Z</time></trkpt><trkpt lat="45.100324680851884" lon="9.400264315647918"><ele>52.333333333333336</ele><time>2026-04-19T12:43:14.002Z</time></trkpt><trkpt lat="45.10026644661228" lon="9.400220598920415"><ele>52.66666666666667</ele><time>2026-04-19T12:43:15.002Z</time></trkpt><trkpt lat="45.100200767369266" lon="9.40014044742241"><ele>53.0</ele><time>2026-04-19T12:43:16.002Z</time></trkpt><trkpt lat="45.10012421809967" lon="9.400053808606426"><ele>53.0</ele><time>2026-04-19T12:43:17.002Z</time></trkpt><trkpt lat="45.10004303123788" lon="9.39997884843464"><ele>53.0</ele><time>2026-04-19T12:43:18.002Z</time></trkpt><trkpt lat="45.09994865138887" lon="9.399927860867852"><ele>53.0</ele><time>2026-04-19T12:43:19.002Z</time></trkpt><trkpt lat="45.09984433524515" lon="9.399895953595639"><ele>53.0</ele><time>2026-04-19T12:43:20.002Z</time></trkpt><trkpt lat="45.09972702622287" lon="9.399886271596987"><ele>53.0</ele><time>2026-04-19T12:43:21.002Z</time></trkpt><trkpt lat="45.09960480121401" lon="9.399881961104075"><ele>53.25</ele><time>2026-04-19T12:43:22.002Z</time></trkpt><trkpt lat="45.099480568854275" lon="9.399873090307436"><ele>53.5</ele><time>2026-04-19T12:43:23.002Z</time></trkpt><trkpt lat="45.09935146517239" lon="9.399865278828303"><ele>53.75</ele><time>2026-04-19T12:43:24.002Z</time></trkpt><trkpt lat="45.099221844715665" lon="9.39985017805961"><ele>54.0</ele><time>2026-04-19T12:43:25.002Z</time></trkpt><trkpt lat="45.09909099621629" lon="9.399837969674513"><ele>54.5</ele><time>2026-04-19T12:43:26.002Z</time></trkpt><trkpt lat="45.098955648811355" lon="9.399820901387665"><ele>55.0</ele><time>2026-04-19T12:43:27.002Z</time></trkpt><trkpt lat="45.09882154994619" lon="9.399806677694787"><ele>55.5</ele><time>2026-04-19T12:43:28.002Z</time></trkpt><trkpt lat="45.09868827418866" lon="9.399797998586303"><ele>56.0</ele><time>2026-04-19T12:43:29Z</time></trkpt><trkpt lat="45.09855853853364" lon="9.399782808502263"><ele>56.0</ele><time>2026-04-19T12:43:30Z</time></trkpt><trkpt lat="45.09843326338953" lon="9.399771222858556"><ele>56.0</ele><time>2026-04-19T12:43:31Z</time></trkpt><trkpt lat="45.09830008987645" lon="9.39975706048716"><ele>56.0</ele><time>2026-04-19T12:43:32Z</time></trkpt><trkpt lat="45.09817346860266" lon="9.399743917040825"><ele>56.0</ele><time>2026-04-19T12:43:33Z</time></trkpt><trkpt lat="45.098066304907746" lon="9.399736164497023"><ele>55.4</ele><time>2026-04-19T12:43:34Z</time></trkpt><trkpt lat="45.097968128024775" lon="9.399729444093166"><ele>54.8</ele><time>2026-04-19T12:43:35Z</time></trkpt><trkpt lat="45.0978782064779" lon="9.399734700319566"><ele>54.199999999999996</ele><time>2026-04-19T12:43:36Z</time></trkpt><trkpt lat="45.0978116334463" lon="9.399734750149818"><ele>53.599999999999994</ele><time>2026-04-19T12:43:37Z</time></trkpt><trkpt lat="45.09770859447585" lon="9.399737808013994"><ele>53.0</ele><time>2026-04-19T12:43:39Z</time></trkpt><trkpt lat="45.09760551200217" lon="9.399738678784354"><ele>53.0</ele><time>2026-04-19T12:43:42Z</time></trkpt><trkpt lat="45.09749107846047" lon="9.399721055319601"><ele>53.0</ele><time>2026-04-19T12:43:44Z</time></trkpt><trkpt lat="45.09737786387643" lon="9.399709702747836"><ele>53.0</ele><time>2026-04-19T12:43:46Z</time></trkpt><trkpt lat="45.097289078777266" lon="9.39972655094082"><ele>53.0</ele><time>2026-04-19T12:43:48Z</time></trkpt><trkpt lat="45.09721976377732" lon="9.399727254611685"><ele>53.0</ele><time>2026-04-19T12:43:51Z</time></trkpt><trkpt lat="45.09727801462776" lon="9.399807479553086"><ele>53.0</ele><time>2026-04-19T12:43:56.001Z</time></trkpt><trkpt lat="45.09737728415728" lon="9.399740349607564"><ele>53.0</ele><time>2026-04-19T12:43:58.001Z</time></trkpt><trkpt lat="45.09746624136023" lon="9.39970427011351"><ele>53.0</ele><time>2026-04-19T12:44:00.001Z</time></trkpt><trkpt lat="45.0975636823295" lon="9.399722104719702"><ele>53.0</ele><time>2026-04-19T12:44:02.001Z</time></trkpt><trkpt lat="45.097661009977976" lon="9.399763017730328"><ele>53.0</ele><time>2026-04-19T12:44:05.001Z</time></trkpt><trkpt lat="45.097758424772806" lon="9.399743583097175"><ele>53.00000000000001</ele><time>2026-04-19T12:44:07.001Z</time></trkpt><trkpt lat="45.097811992357116" lon="9.399824393737108"><ele>53.0</ele><time>2026-04-19T12:44:10.001Z</time></trkpt><trkpt lat="45.09778361139496" lon="9.39994649163083"><ele>53.0</ele><time>2026-04-19T12:44:12.001Z</time></trkpt><trkpt lat="45.097764256413434" lon="9.400052792517172"><ele>53.0</ele><time>2026-04-19T12:44:13.001Z</time></trkpt><trkpt lat="45.097752842640325" lon="9.40015293511287"><ele>53.00000000000001</ele><time>2026-04-19T12:44:14.001Z</time></trkpt><trkpt lat="45.09773823678886" lon="9.400298453949267"><ele>53.0</ele><time>2026-04-19T12:44:16.001Z</time></trkpt><trkpt lat="45.09772064138615" lon="9.400444708902745"><ele>53.2</ele><time>2026-04-19T12:44:18.001Z</time></trkpt><trkpt lat="45.09770735263848" lon="9.400586655126043"><ele>53.4</ele><time>2026-04-19T12:44:20.001Z</time></trkpt><trkpt lat="45.09768305285994" lon="9.400725769447787"><ele>53.60000000000001</ele><time>2026-04-19T12:44:22.001Z</time></trkpt><trkpt lat="45.097678509187695" lon="9.400885018942091"><ele>53.800000000000004</ele><time>2026-04-19T12:44:24.001Z</time></trkpt><trkpt lat="45.09767113311518" lon="9.401009326313593"><ele>54.0</ele><time>2026-04-19T12:44:25.001Z</time></trkpt><trkpt lat="45.097651012802714" lon="9.401139690997754"><ele>54.0</ele><time>2026-04-19T12:44:26.001Z</time></trkpt><trkpt lat="45.09762847798625" lon="9.401264569139704"><ele>54.00000000000001</ele><time>2026-04-19T12:44:27.001Z</time></trkpt><trkpt lat="45.09760001323235" lon="9.401395207700187"><ele>54.00000000000001</ele><time>2026-04-19T12:44:28.001Z</time></trkpt><trkpt lat="45.09756758140129" lon="9.401518959567984"><ele>54.0</ele><time>2026-04-19T12:44:29.001Z</time></trkpt><trkpt lat="45.09753349736351" lon="9.401650642083617"><ele>54.0</ele><time>2026-04-19T12:44:30.001Z</time></trkpt><trkpt lat="45.0974842540562" lon="9.401777366218287"><ele>54.0</ele><time>2026-04-19T12:44:31.001Z</time></trkpt><trkpt lat="45.097447418061975" lon="9.401876331111588"><ele>54.00000000000001</ele><time>2026-04-19T12:44:32.001Z</time></trkpt><trkpt lat="45.09742202319328" lon="9.402016254589245"><ele>54.00000000000001</ele><time>2026-04-19T12:44:33.001Z</time></trkpt><trkpt lat="45.09740068859704" lon="9.402164447707255"><ele>54.0</ele><time>2026-04-19T12:44:34.001Z</time></trkpt><trkpt lat="45.09737603799397" lon="9.402298346636202"><ele>54.0</ele><time>2026-04-19T12:44:35.001Z</time></trkpt><trkpt lat="45.097345600752455" lon="9.402408429435152"><ele>53.800000000000004</ele><time>2026-04-19T12:44:36.001Z</time></trkpt><trkpt lat="45.09731750230372" lon="9.402527563993255"><ele>53.60000000000001</ele><time>2026-04-19T12:44:37.001Z</time></trkpt><trkpt lat="45.09728467343924" lon="9.402650224407326"><ele>53.4</ele><time>2026-04-19T12:44:38.001Z</time></trkpt><trkpt lat="45.09725732106567" lon="9.40276880320961"><ele>53.2</ele><time>2026-04-19T12:44:39.001Z</time></trkpt><trkpt lat="45.09722621581484" lon="9.40288469167293"><ele>53.0</ele><time>2026-04-19T12:44:40.001Z</time></trkpt><trkpt lat="45.09719414964101" lon="9.40302570061885"><ele>53.0</ele><time>2026-04-19T12:44:41.001Z</time></trkpt><trkpt lat="45.09715098592783" lon="9.403155206405208"><ele>53.0</ele><time>2026-04-19T12:44:42.001Z</time></trkpt><trkpt lat="45.097116647955836" lon="9.40327168093702"><ele>53.0</ele><time>2026-04-19T12:44:43.001Z</time></trkpt><trkpt lat="45.097073413559265" lon="9.40339693334022"><ele>53.0</ele><time>2026-04-19T12:44:44.001Z</time></trkpt><trkpt lat="45.09703400401995" lon="9.403517916128692"><ele>53.0</ele><time>2026-04-19T12:44:45.001Z</time></trkpt><trkpt lat="45.09699893908276" lon="9.403622495202518"><ele>53.00000000000001</ele><time>2026-04-19T12:44:46.001Z</time></trkpt><trkpt lat="45.096959902197426" lon="9.403724133564697"><ele>53.0</ele><time>2026-04-19T12:44:47.001Z</time></trkpt><trkpt lat="45.09692897929491" lon="9.403859839107882"><ele>53.0</ele><time>2026-04-19T12:44:48.001Z</time></trkpt><trkpt lat="45.09689398997426" lon="9.403991916770863"><ele>53.0</ele><time>2026-04-19T12:44:49.001Z</time></trkpt><trkpt lat="45.09686981295225" lon="9.404101389232487"><ele>53.00000000000001</ele><time>2026-04-19T12:44:50.001Z</time></trkpt><trkpt lat="45.096856757852294" lon="9.404220625120068"><ele>53.0</ele><time>2026-04-19T12:44:51.001Z</time></trkpt><trkpt lat="45.096839739645304" lon="9.404347194509254"><ele>53.0</ele><time>2026-04-19T12:44:52.002Z</time></trkpt><trkpt lat="45.09682328751172" lon="9.404466262813536"><ele>53.0</ele><time>2026-04-19T12:44:53.002Z</time></trkpt><trkpt lat="45.09680271395121" lon="9.40459506575158"><ele>53.0</ele><time>2026-04-19T12:44:54.002Z</time></trkpt><trkpt lat="45.09678724393329" lon="9.404717405664332"><ele>53.0</ele><time>2026-04-19T12:44:55.002Z</time></trkpt><trkpt lat="45.09676691180196" lon="9.404852723140888"><ele>53.0</ele><time>2026-04-19T12:44:56.002Z</time></trkpt><trkpt lat="45.096749527214875" lon="9.404995582083236"><ele>53.00000000000001</ele><time>2026-04-19T12:44:57.002Z</time></trkpt><trkpt lat="45.0967279431132" lon="9.40512144624255"><ele>53.0</ele><time>2026-04-19T12:44:58.002Z</time></trkpt><trkpt lat="45.09671472313062" lon="9.405233115102453"><ele>53.0</ele><time>2026-04-19T12:44:59.002Z</time></trkpt><trkpt lat="45.09668442181717" lon="9.40536463148217"><ele>53.0</ele><time>2026-04-19T12:45:00.002Z</time></trkpt><trkpt lat="45.096657389807746" lon="9.405497829831745"><ele>53.00000000000001</ele><time>2026-04-19T12:45:01.002Z</time></trkpt><trkpt lat="45.096633680802256" lon="9.405608386920845"><ele>53.0</ele><time>2026-04-19T12:45:02.002Z</time></trkpt><trkpt lat="45.09660758265743" lon="9.405727585893684"><ele>53.00000000000001</ele><time>2026-04-19T12:45:03.002Z</time></trkpt><trkpt lat="45.09659742924102" lon="9.4058459861119"><ele>53.0</ele><time>2026-04-19T12:45:04.002Z</time></trkpt><trkpt lat="45.09659166970081" lon="9.405956001884713"><ele>53.0</ele><time>2026-04-19T12:45:05.002Z</time></trkpt><trkpt lat="45.096585000867094" lon="9.406071286080001"><ele>53.0</ele><time>2026-04-19T12:45:06.002Z</time></trkpt><trkpt lat="45.096568034231616" lon="9.406168213408572"><ele>53.00000000000001</ele><time>2026-04-19T12:45:07.002Z</time></trkpt><trkpt lat="45.09654427956252" lon="9.40626670662022"><ele>53.0</ele><time>2026-04-19T12:45:08.002Z</time></trkpt><trkpt lat="45.0965310484268" lon="9.406379597139999"><ele>52.50000000000001</ele><time>2026-04-19T12:45:09.002Z</time></trkpt><trkpt lat="45.096520874301035" lon="9.406494343674305"><ele>52.0</ele><time>2026-04-19T12:45:10.002Z</time></trkpt><trkpt lat="45.096506107549715" lon="9.406625747383396"><ele>51.5</ele><time>2026-04-19T12:45:11.002Z</time></trkpt><trkpt lat="45.09648339261662" lon="9.40674841518218"><ele>51.0</ele><time>2026-04-19T12:45:12.002Z</time></trkpt><trkpt lat="45.09646954753584" lon="9.406850787892878"><ele>50.50000000000001</ele><time>2026-04-19T12:45:13.002Z</time></trkpt><trkpt lat="45.09645850105025" lon="9.406971872594998"><ele>50.0</ele><time>2026-04-19T12:45:14.002Z</time></trkpt><trkpt lat="45.09644280745227" lon="9.407100063812134"><ele>50.0</ele><time>2026-04-19T12:45:15.002Z</time></trkpt><trkpt lat="45.09642441491972" lon="9.407224500917485"><ele>50.0</ele><time>2026-04-19T12:45:16.002Z</time></trkpt><trkpt lat="45.09641654615924" lon="9.40735096915897"><ele>50.0</ele><time>2026-04-19T12:45:17.002Z</time></trkpt><trkpt lat="45.09640633485878" lon="9.407478908180005"><ele>50.0</ele><time>2026-04-19T12:45:18.002Z</time></trkpt><trkpt lat="45.096395865751454" lon="9.407627266134611"><ele>50.0</ele><time>2026-04-19T12:45:19.002Z</time></trkpt><trkpt lat="45.09639300751495" lon="9.407754714176248"><ele>50.0</ele><time>2026-04-19T12:45:20.002Z</time></trkpt><trkpt lat="45.096387888267" lon="9.407887470875227"><ele>50.0</ele><time>2026-04-19T12:45:21.002Z</time></trkpt><trkpt lat="45.096383644828585" lon="9.408032029609208"><ele>50.0</ele><time>2026-04-19T12:45:22.002Z</time></trkpt><trkpt lat="45.09638060248557" lon="9.408176019985106"><ele>50.0</ele><time>2026-04-19T12:45:23.002Z</time></trkpt><trkpt lat="45.09638452938467" lon="9.408314167502848"><ele>50.0</ele><time>2026-04-19T12:45:24.002Z</time></trkpt><trkpt lat="45.09639424934336" lon="9.408442870028724"><ele>50.16666666666667</ele><time>2026-04-19T12:45:25.002Z</time></trkpt><trkpt lat="45.09639269368443" lon="9.408560196821563"><ele>50.333333333333336</ele><time>2026-04-19T12:45:26.002Z</time></trkpt><trkpt lat="45.09639248565769" lon="9.408671690941267"><ele>50.5</ele><time>2026-04-19T12:45:27.002Z</time></trkpt><trkpt lat="45.096389881791985" lon="9.408791601733755"><ele>50.66666666666667</ele><time>2026-04-19T12:45:28.002Z</time></trkpt><trkpt lat="45.096400027192075" lon="9.408887415634682"><ele>50.833333333333336</ele><time>2026-04-19T12:45:29.002Z</time></trkpt><trkpt lat="45.09642304452803" lon="9.409049770417784"><ele>51.0</ele><time>2026-04-19T12:45:31.002Z</time></trkpt><trkpt lat="45.09642545291218" lon="9.409149128506298"><ele>51.599999999999994</ele><time>2026-04-19T12:45:32.002Z</time></trkpt><trkpt lat="45.09641766826665" lon="9.409311602549156"><ele>52.2</ele><time>2026-04-19T12:45:34.002Z</time></trkpt><trkpt lat="45.096381050232715" lon="9.40946640850828"><ele>52.800000000000004</ele><time>2026-04-19T12:45:36.001Z</time></trkpt><trkpt lat="45.09638810947487" lon="9.409595220788106"><ele>53.400000000000006</ele><time>2026-04-19T12:45:38.001Z</time></trkpt><trkpt lat="45.096381133663385" lon="9.409705313429084"><ele>54.0</ele><time>2026-04-19T12:45:40.001Z</time></trkpt><trkpt lat="45.09638504871551" lon="9.40979977402469"><ele>54.166666666666664</ele><time>2026-04-19T12:45:48.001Z</time></trkpt><trkpt lat="45.096377524823225" lon="9.409914339366237"><ele>54.33333333333333</ele><time>2026-04-19T12:45:55.001Z</time></trkpt><trkpt lat="45.09639149546388" lon="9.41002255299541"><ele>54.5</ele><time>2026-04-19T12:45:58.001Z</time></trkpt><trkpt lat="45.096377786306654" lon="9.410139166682526"><ele>54.666666666666664</ele><time>2026-04-19T12:46:00.001Z</time></trkpt><trkpt lat="45.09635591117347" lon="9.410261271458495"><ele>54.83333333333333</ele><time>2026-04-19T12:46:03.001Z</time></trkpt><trkpt lat="45.09636838298179" lon="9.410374448525657"><ele>55.0</ele><time>2026-04-19T12:46:05.001Z</time></trkpt><trkpt lat="45.09635848783382" lon="9.410509010048616"><ele>54.99999999999999</ele><time>2026-04-19T12:46:07.001Z</time></trkpt><trkpt lat="45.09636171650053" lon="9.410627616624572"><ele>55.0</ele><time>2026-04-19T12:46:09.001Z</time></trkpt><trkpt lat="45.096360418701636" lon="9.410746603963299"><ele>55.0</ele><time>2026-04-19T12:46:11.001Z</time></trkpt><trkpt lat="45.09636019572985" lon="9.410844601163005"><ele>55.0</ele><time>2026-04-19T12:46:13.001Z</time></trkpt><trkpt lat="45.09636455399068" lon="9.410979145054087"><ele>54.99999999999999</ele><time>2026-04-19T12:46:15.001Z</time></trkpt><trkpt lat="45.09637445423414" lon="9.411082337789473"><ele>55.0</ele><time>2026-04-19T12:46:17.001Z</time></trkpt><trkpt lat="45.096354027292755" lon="9.411191706856714"><ele>54.99999999999999</ele><time>2026-04-19T12:46:19.001Z</time></trkpt><trkpt lat="45.09636054440911" lon="9.411297786136215"><ele>55.0</ele><time>2026-04-19T12:46:21.001Z</time></trkpt><trkpt lat="45.096362307101785" lon="9.411446921723382"><ele>55.0</ele><time>2026-04-19T12:46:24.001Z</time></trkpt><trkpt lat="45.096366315787" lon="9.411545314745426"><ele>55.0</ele><time>2026-04-19T12:46:28.001Z</time></trkpt><trkpt lat="45.09638205963628" lon="9.411633184621357"><ele>54.99999999999999</ele><time>2026-04-19T12:48:02.001Z</time></trkpt><trkpt lat="45.09644729997214" lon="9.411675982357636"><ele>55.0</ele><time>2026-04-19T12:48:58.001Z</time></trkpt><trkpt lat="45.09654221555353" lon="9.411705737047338"><ele>54.666666666666664</ele><time>2026-04-19T12:49:02.001Z</time></trkpt><trkpt lat="45.09661502880574" lon="9.411707811731699"><ele>54.33333333333333</ele><time>2026-04-19T12:49:04.001Z</time></trkpt><trkpt lat="45.096702222550505" lon="9.411716641480268"><ele>54.0</ele><time>2026-04-19T12:49:06.001Z</time></trkpt><trkpt lat="45.096785354129985" lon="9.411731914913583"><ele>53.66666666666667</ele><time>2026-04-19T12:49:08.001Z</time></trkpt><trkpt lat="45.0968584707193" lon="9.411737833434739"><ele>53.333333333333336</ele><time>2026-04-19T12:49:10.001Z</time></trkpt><trkpt lat="45.09694348095017" lon="9.411759054183259"><ele>53.0</ele><time>2026-04-19T12:49:12.001Z</time></trkpt><trkpt lat="45.09701336398631" lon="9.411772242985077"><ele>53.00000000000001</ele><time>2026-04-19T12:49:14.002Z</time></trkpt><trkpt lat="45.09709036780229" lon="9.411790031929627"><ele>53.0</ele><time>2026-04-19T12:49:17.002Z</time></trkpt><trkpt lat="45.097173399899134" lon="9.41179765899298"><ele>53.0</ele><time>2026-04-19T12:49:20.002Z</time></trkpt><trkpt lat="45.09725555280835" lon="9.411816068540391"><ele>53.0</ele><time>2026-04-19T12:49:22.002Z</time></trkpt><trkpt lat="45.09733822523627" lon="9.411823005569495"><ele>53.00000000000001</ele><time>2026-04-19T12:49:24.002Z</time></trkpt><trkpt lat="45.09742297524114" lon="9.41183478265522"><ele>53.0</ele><time>2026-04-19T12:49:26.002Z</time></trkpt><trkpt lat="45.097510531301474" lon="9.411850099547365"><ele>53.50000000000001</ele><time>2026-04-19T12:49:28.002Z</time></trkpt><trkpt lat="45.09758184167796" lon="9.411867400454167"><ele>54.0</ele><time>2026-04-19T12:49:30.002Z</time></trkpt><trkpt lat="45.0976514995208" lon="9.411875168879238"><ele>54.5</ele><time>2026-04-19T12:49:32.002Z</time></trkpt><trkpt lat="45.09771733980631" lon="9.411881030100771"><ele>55.0</ele><time>2026-04-19T12:49:34.002Z</time></trkpt><trkpt lat="45.097800620497615" lon="9.411898279418695"><ele>55.50000000000001</ele><time>2026-04-19T12:49:37.002Z</time></trkpt><trkpt lat="45.09788783415944" lon="9.411913555400536"><ele>56.0</ele><time>2026-04-19T12:49:51.001Z</time></trkpt><trkpt lat="45.09796256398312" lon="9.411928657477661"><ele>56.0</ele><time>2026-04-19T12:49:57.001Z</time></trkpt><trkpt lat="45.09803649953563" lon="9.411923859178746"><ele>56.0</ele><time>2026-04-19T12:50:00.001Z</time></trkpt><trkpt lat="45.0980678300706" lon="9.411844458726236"><ele>56.0</ele><time>2026-04-19T12:50:16.001Z</time></trkpt><trkpt lat="45.098104878087575" lon="9.411721723849253"><ele>56.0</ele><time>2026-04-19T12:50:23.001Z</time></trkpt><trkpt lat="45.09813574367812" lon="9.411634093942048"><ele>56.0</ele><time>2026-04-19T12:50:25.001Z</time></trkpt><trkpt lat="45.098168274290224" lon="9.41153564498702"><ele>56.0</ele><time>2026-04-19T12:50:28.001Z</time></trkpt><trkpt lat="45.09819200618805" lon="9.411443203089881"><ele>56.0</ele><time>2026-04-19T12:50:40.001Z</time></trkpt><trkpt lat="45.09821985182916" lon="9.411361334685187"><ele>56.0</ele><time>2026-04-19T12:50:43.001Z</time></trkpt><trkpt lat="45.0982496255442" lon="9.411280365159202"><ele>56.0</ele><time>2026-04-19T12:50:45.001Z</time></trkpt><trkpt lat="45.098257761603655" lon="9.411185711768937"><ele>56.0</ele><time>2026-04-19T12:50:47.001Z</time></trkpt><trkpt lat="45.098299540753814" lon="9.411113676828554"><ele>56.0</ele><time>2026-04-19T12:50:49.001Z</time></trkpt><trkpt lat="45.09832536786306" lon="9.410989729394828"><ele>56.0</ele><time>2026-04-19T12:50:52.001Z</time></trkpt><trkpt lat="45.09837254799208" lon="9.410921772536065"><ele>56.0</ele><time>2026-04-19T12:51:54Z</time></trkpt><trkpt lat="45.09842746990041" lon="9.410870577535817"><ele>56.0</ele><time>2026-04-19T12:53:35.001Z</time></trkpt><trkpt lat="45.09836946067474" lon="9.410808343661847"><ele>56.333333333333336</ele><time>2026-04-19T12:55:36.001Z</time></trkpt><trkpt lat="45.098379120090186" lon="9.410900559468844"><ele>56.66666666666667</ele><time>2026-04-19T12:55:39.001Z</time></trkpt><trkpt lat="45.09850895696462" lon="9.410914804599658"><ele>57.0</ele><time>2026-04-19T12:57:03Z</time></trkpt><trkpt lat="45.0985003265468" lon="9.411009248410696"><ele>57.33333333333333</ele><time>2026-04-19T12:57:06Z</time></trkpt><trkpt lat="45.09843856153981" lon="9.411043965373347"><ele>57.666666666666664</ele><time>2026-04-19T12:57:14Z</time></trkpt><trkpt lat="45.098438984843824" lon="9.410924983724628"><ele>58.0</ele><time>2026-04-19T13:01:53.002Z</time></trkpt><trkpt lat="45.098399942674334" lon="9.411032743796767"><ele>57.99999999999999</ele><time>2026-04-19T13:03:03.993Z</time></trkpt><trkpt lat="45.09837404704616" lon="9.411153308998747"><ele>58.0</ele><time>2026-04-19T13:03:05.993Z</time></trkpt><trkpt lat="45.09833885305288" lon="9.411267413063664"><ele>58.0</ele><time>2026-04-19T13:03:07.993Z</time></trkpt><trkpt lat="45.09830888632876" lon="9.411398868462797"><ele>58.0</ele><time>2026-04-19T13:03:09.992Z</time></trkpt><trkpt lat="45.09828742852726" lon="9.411530581345835"><ele>57.99999999999999</ele><time>2026-04-19T13:03:11.992Z</time></trkpt><trkpt lat="45.09825337422798" lon="9.411624239243729"><ele>58.0</ele><time>2026-04-19T13:03:13.992Z</time></trkpt><trkpt lat="45.098225044718994" lon="9.411716388145853"><ele>57.599999999999994</ele><time>2026-04-19T13:03:15.992Z</time></trkpt><trkpt lat="45.09820847059302" lon="9.411803855398604"><ele>57.199999999999996</ele><time>2026-04-19T13:04:01.992Z</time></trkpt><trkpt lat="45.09818129811667" lon="9.41190936271003"><ele>56.8</ele><time>2026-04-19T13:04:03.992Z</time></trkpt><trkpt lat="45.09813008760031" lon="9.412116857223442"><ele>56.4</ele><time>2026-04-19T13:04:05.992Z</time></trkpt><trkpt lat="45.09809179121658" lon="9.412217410467248"><ele>56.0</ele><time>2026-04-19T13:04:06.992Z</time></trkpt><trkpt lat="45.098067558767504" lon="9.412313750688817"><ele>55.50000000000001</ele><time>2026-04-19T13:04:07.992Z</time></trkpt><trkpt lat="45.09803652050506" lon="9.412409932058685"><ele>55.0</ele><time>2026-04-19T13:04:08.992Z</time></trkpt><trkpt lat="45.09797613303621" lon="9.412539348740093"><ele>54.5</ele><time>2026-04-19T13:04:10.992Z</time></trkpt><trkpt lat="45.0979406291459" lon="9.412634406922235"><ele>54.0</ele><time>2026-04-19T13:04:11.992Z</time></trkpt><trkpt lat="45.097904711287626" lon="9.412737768249398"><ele>53.50000000000001</ele><time>2026-04-19T13:04:12.992Z</time></trkpt><trkpt lat="45.09786097634462" lon="9.412849850116913"><ele>53.0</ele><time>2026-04-19T13:04:13.992Z</time></trkpt><trkpt lat="45.097820882568165" lon="9.412961069380342"><ele>52.50000000000001</ele><time>2026-04-19T13:04:14.992Z</time></trkpt><trkpt lat="45.09778765422687" lon="9.413063112158326"><ele>52.0</ele><time>2026-04-19T13:04:15.992Z</time></trkpt><trkpt lat="45.09775585619903" lon="9.413175763006084"><ele>51.5</ele><time>2026-04-19T13:04:16.992Z</time></trkpt><trkpt lat="45.097730919149186" lon="9.4132744063864"><ele>51.0</ele><time>2026-04-19T13:04:17.992Z</time></trkpt><trkpt lat="45.09768135067739" lon="9.413450503893884"><ele>50.50000000000001</ele><time>2026-04-19T13:04:19.992Z</time></trkpt><trkpt lat="45.09764914472165" lon="9.413546919882101"><ele>50.0</ele><time>2026-04-19T13:04:20.992Z</time></trkpt><trkpt lat="45.097614938145924" lon="9.413658287672531"><ele>50.00000000000001</ele><time>2026-04-19T13:04:21.992Z</time></trkpt><trkpt lat="45.097584167573416" lon="9.413771186287704"><ele>50.0</ele><time>2026-04-19T13:04:22.992Z</time></trkpt><trkpt lat="45.097550965974" lon="9.413886356403012"><ele>50.0</ele><time>2026-04-19T13:04:23.992Z</time></trkpt><trkpt lat="45.0975173179334" lon="9.41397758236093"><ele>50.0</ele><time>2026-04-19T13:04:24.992Z</time></trkpt><trkpt lat="45.09749260504392" lon="9.41407255360467"><ele>50.00000000000001</ele><time>2026-04-19T13:04:25.992Z</time></trkpt><trkpt lat="45.097454609814534" lon="9.414170462773159"><ele>50.0</ele><time>2026-04-19T13:04:26.992Z</time></trkpt><trkpt lat="45.09741962241708" lon="9.414283361112046"><ele>50.00000000000001</ele><time>2026-04-19T13:04:27.992Z</time></trkpt><trkpt lat="45.09738072159702" lon="9.414387805252169"><ele>50.0</ele><time>2026-04-19T13:04:28.991Z</time></trkpt><trkpt lat="45.09734745550118" lon="9.414485012734794"><ele>50.0</ele><time>2026-04-19T13:04:29.992Z</time></trkpt><trkpt lat="45.09731325959007" lon="9.414586440046156"><ele>50.0</ele><time>2026-04-19T13:04:30.992Z</time></trkpt><trkpt lat="45.097274904121285" lon="9.414694811220672"><ele>50.00000000000001</ele><time>2026-04-19T13:04:31.993Z</time></trkpt><trkpt lat="45.09723901793221" lon="9.414785399788883"><ele>50.0</ele><time>2026-04-19T13:04:32.993Z</time></trkpt><trkpt lat="45.09720837186823" lon="9.414880626873478"><ele>50.00000000000001</ele><time>2026-04-19T13:04:33.994Z</time></trkpt><trkpt lat="45.09718187504625" lon="9.414971975458789"><ele>50.0</ele><time>2026-04-19T13:04:34.994Z</time></trkpt><trkpt lat="45.09715162478873" lon="9.415059432243687"><ele>50.0</ele><time>2026-04-19T13:04:35.995Z</time></trkpt><trkpt lat="45.097106465702915" lon="9.41513243499649"><ele>50.0</ele><time>2026-04-19T13:04:36.995Z</time></trkpt><trkpt lat="45.0970604143696" lon="9.415286666746216"><ele>50.00000000000001</ele><time>2026-04-19T13:04:38.996Z</time></trkpt><trkpt lat="45.097010927383906" lon="9.41541879541227"><ele>50.0</ele><time>2026-04-19T13:04:40.996Z</time></trkpt><trkpt lat="45.09697557990469" lon="9.415544262151307"><ele>50.16666666666667</ele><time>2026-04-19T13:04:42.997Z</time></trkpt><trkpt lat="45.0969480654896" lon="9.415641529137172"><ele>50.333333333333336</ele><time>2026-04-19T13:04:44.997Z</time></trkpt><trkpt lat="45.09686296771488" lon="9.41568437771402"><ele>50.5</ele><time>2026-04-19T13:04:47.998Z</time></trkpt><trkpt lat="45.096753435083265" lon="9.41564174542209"><ele>50.66666666666667</ele><time>2026-04-19T13:04:49.998Z</time></trkpt><trkpt lat="45.09669536746622" lon="9.41560593486529"><ele>50.833333333333336</ele><time>2026-04-19T13:04:50.998Z</time></trkpt><trkpt lat="45.09663211393042" lon="9.415578916538266"><ele>51.0</ele><time>2026-04-19T13:04:51.999Z</time></trkpt><trkpt lat="45.09655744592288" lon="9.415551658799686"><ele>50.666666666666664</ele><time>2026-04-19T13:04:52.999Z</time></trkpt><trkpt lat="45.09649421713983" lon="9.415529745616752"><ele>50.33333333333333</ele><time>2026-04-19T13:04:53.999Z</time></trkpt><trkpt lat="45.09643000725182" lon="9.41550625615089"><ele>50.0</ele><time>2026-04-19T13:04:54.999Z</time></trkpt><trkpt lat="45.09632409762969" lon="9.415462781664333"><ele>49.666666666666664</ele><time>2026-04-19T13:04:56.999Z</time></trkpt><trkpt lat="45.09624688123483" lon="9.415439270999244"><ele>49.33333333333333</ele><time>2026-04-19T13:04:58.999Z</time></trkpt><trkpt lat="45.09615488106878" lon="9.415386968156612"><ele>49.0</ele><time>2026-04-19T13:05:01Z</time></trkpt><trkpt lat="45.09607451052185" lon="9.41542047819694"><ele>49.0</ele><time>2026-04-19T13:05:03Z</time></trkpt><trkpt lat="45.09593633920044" lon="9.415459914362767"><ele>49.0</ele><time>2026-04-19T13:05:05Z</time></trkpt><trkpt lat="45.09584394342544" lon="9.415476271114875"><ele>49.0</ele><time>2026-04-19T13:05:06Z</time></trkpt><trkpt lat="45.095755870335736" lon="9.415523706830044"><ele>49.0</ele><time>2026-04-19T13:05:07Z</time></trkpt><trkpt lat="45.095681136577255" lon="9.415546523500115"><ele>49.0</ele><time>2026-04-19T13:05:08Z</time></trkpt><trkpt lat="45.095610782123686" lon="9.415585297520519"><ele>48.857142857142854</ele><time>2026-04-19T13:05:09Z</time></trkpt><trkpt lat="45.0955407829152" lon="9.415634463493642"><ele>48.714285714285715</ele><time>2026-04-19T13:05:11Z</time></trkpt><trkpt lat="45.09550845099358" lon="9.415720122225824"><ele>48.57142857142857</ele><time>2026-04-19T13:05:13Z</time></trkpt><trkpt lat="45.095517201359655" lon="9.415842864110639"><ele>48.42857142857143</ele><time>2026-04-19T13:05:15Z</time></trkpt><trkpt lat="45.09553513860721" lon="9.415929877059739"><ele>48.285714285714285</ele><time>2026-04-19T13:05:16Z</time></trkpt><trkpt lat="45.0955313296481" lon="9.416027398358235"><ele>48.14285714285714</ele><time>2026-04-19T13:05:17Z</time></trkpt><trkpt lat="45.095537481945186" lon="9.416121167165127"><ele>48.0</ele><time>2026-04-19T13:05:18.001Z</time></trkpt><trkpt lat="45.0955463826806" lon="9.416235060627562"><ele>48.0</ele><time>2026-04-19T13:05:19.001Z</time></trkpt><trkpt lat="45.09555070108594" lon="9.416360081684292"><ele>48.0</ele><time>2026-04-19T13:05:20.001Z</time></trkpt><trkpt lat="45.09555043027866" lon="9.416480311443447"><ele>48.0</ele><time>2026-04-19T13:05:21.001Z</time></trkpt><trkpt lat="45.09554793972702" lon="9.41659403691556"><ele>48.0</ele><time>2026-04-19T13:05:22.001Z</time></trkpt><trkpt lat="45.09554462501211" lon="9.41670934084988"><ele>48.0</ele><time>2026-04-19T13:05:23.001Z</time></trkpt><trkpt lat="45.09554403392257" lon="9.416807615643977"><ele>48.0</ele><time>2026-04-19T13:05:24.001Z</time></trkpt><trkpt lat="45.0955307076446" lon="9.416900857670818"><ele>48.0</ele><time>2026-04-19T13:05:25.001Z</time></trkpt><trkpt lat="45.09551310327007" lon="9.417034813640287"><ele>48.0</ele><time>2026-04-19T13:05:27.001Z</time></trkpt><trkpt lat="45.09547517967058" lon="9.417131027998476"><ele>48.0</ele><time>2026-04-19T13:05:29.001Z</time></trkpt><trkpt lat="45.095416826999845" lon="9.41723416125157"><ele>48.0</ele><time>2026-04-19T13:05:31.001Z</time></trkpt><trkpt lat="45.09536363762872" lon="9.417341347992036"><ele>48.0</ele><time>2026-04-19T13:05:33.001Z</time></trkpt><trkpt lat="45.095323339213" lon="9.417434911651709"><ele>48.0</ele><time>2026-04-19T13:05:35.001Z</time></trkpt><trkpt lat="45.09525730581746" lon="9.417475640078218"><ele>48.0</ele><time>2026-04-19T13:06:13.001Z</time></trkpt><trkpt lat="45.095189515752104" lon="9.417386565731848"><ele>48.0</ele><time>2026-04-19T13:06:16.001Z</time></trkpt><trkpt lat="45.095170148398566" lon="9.41749170688602"><ele>48.0</ele><time>2026-04-19T13:09:12Z</time></trkpt><trkpt lat="45.095178706989486" lon="9.417582135480316"><ele>48.0</ele><time>2026-04-19T13:09:18Z</time></trkpt><trkpt lat="45.09519878914198" lon="9.41774423159319"><ele>48.0</ele><time>2026-04-19T13:09:32.001Z</time></trkpt><trkpt lat="45.09518491095561" lon="9.417836377930449"><ele>48.0</ele><time>2026-04-19T13:10:06.001Z</time></trkpt><trkpt lat="45.095161226031685" lon="9.417733746101353"><ele>47.99999999999999</ele><time>2026-04-19T13:10:57.997Z</time></trkpt><trkpt lat="45.095158785233146" lon="9.417644437957682"><ele>48.0</ele><time>2026-04-19T13:11:50.999Z</time></trkpt><trkpt lat="45.09511598203942" lon="9.417550048146499"><ele>48.0</ele><time>2026-04-19T13:12:26Z</time></trkpt><trkpt lat="45.095174136661996" lon="9.417594605824997"><ele>48.0</ele><time>2026-04-19T13:13:48.999Z</time></trkpt><trkpt lat="45.095195363364404" lon="9.417695981214228"><ele>48.0</ele><time>2026-04-19T13:15:10.997Z</time></trkpt><trkpt lat="45.09515938809124" lon="9.417619538537656"><ele>47.99999999999999</ele><time>2026-04-19T13:18:38.002Z</time></trkpt><trkpt lat="45.09510426653847" lon="9.417574875073095"><ele>48.0</ele><time>2026-04-19T13:19:16.999Z</time></trkpt><trkpt lat="45.09507212507838" lon="9.417485938560672"><ele>47.99999999999999</ele><time>2026-04-19T13:19:22.999Z</time></trkpt><trkpt lat="45.09501266597748" lon="9.417437222641729"><ele>48.0</ele><time>2026-04-19T13:19:33Z</time></trkpt><trkpt lat="45.09494349787507" lon="9.417425664920877"><ele>48.0</ele><time>2026-04-19T13:19:41Z</time></trkpt><trkpt lat="45.095002420181046" lon="9.41746540207238"><ele>48.0</ele><time>2026-04-19T13:21:01.003Z</time></trkpt><trkpt lat="45.09508148167827" lon="9.417500715522984"><ele>48.0</ele><time>2026-04-19T13:21:47.001Z</time></trkpt><trkpt lat="45.09515602143129" lon="9.417497583903698"><ele>47.99999999999999</ele><time>2026-04-19T13:22:09.001Z</time></trkpt><trkpt lat="45.09519856920256" lon="9.417583536056625"><ele>48.0</ele><time>2026-04-19T13:22:15.001Z</time></trkpt><trkpt lat="45.09519779213196" lon="9.417678748401519"><ele>48.0</ele><time>2026-04-19T13:23:17.002Z</time></trkpt><trkpt lat="45.09512021221199" lon="9.417737403847077"><ele>48.0</ele><time>2026-04-19T13:24:02Z</time></trkpt><trkpt lat="45.09516621850183" lon="9.417810110858262"><ele>48.0</ele><time>2026-04-19T13:27:50.001Z</time></trkpt><trkpt lat="45.09518142696781" lon="9.417902218802071"><ele>48.0</ele><time>2026-04-19T13:27:51.001Z</time></trkpt><trkpt lat="45.0951874453372" lon="9.41799673758907"><ele>48.0</ele><time>2026-04-19T13:27:52.001Z</time></trkpt><trkpt lat="45.09518779314639" lon="9.41809800947057"><ele>48.0</ele><time>2026-04-19T13:27:53.001Z</time></trkpt><trkpt lat="45.09518509313932" lon="9.418242155823455"><ele>48.0</ele><time>2026-04-19T13:27:55.001Z</time></trkpt><trkpt lat="45.095176887852645" lon="9.418382759415133"><ele>48.0</ele><time>2026-04-19T13:27:57.001Z</time></trkpt><trkpt lat="45.095155003943866" lon="9.418519916507547"><ele>48.0</ele><time>2026-04-19T13:27:59.001Z</time></trkpt><trkpt lat="45.09513883323669" lon="9.418686685224621"><ele>48.0</ele><time>2026-04-19T13:28:01.001Z</time></trkpt><trkpt lat="45.09511820163509" lon="9.418771492844314"><ele>48.0</ele><time>2026-04-19T13:28:02.001Z</time></trkpt><trkpt lat="45.095068238146865" lon="9.418903528590288"><ele>47.8</ele><time>2026-04-19T13:28:04.001Z</time></trkpt><trkpt lat="45.09500799325165" lon="9.418991722613312"><ele>47.599999999999994</ele><time>2026-04-19T13:28:06.001Z</time></trkpt><trkpt lat="45.0949363202921" lon="9.419085796113187"><ele>47.400000000000006</ele><time>2026-04-19T13:28:08.001Z</time></trkpt><trkpt lat="45.09488304183293" lon="9.419224050777634"><ele>47.2</ele><time>2026-04-19T13:28:10.001Z</time></trkpt><trkpt lat="45.09484869144993" lon="9.419355890571302"><ele>47.0</ele><time>2026-04-19T13:28:12.001Z</time></trkpt><trkpt lat="45.09480987136755" lon="9.419509125678035"><ele>47.2</ele><time>2026-04-19T13:28:14.001Z</time></trkpt><trkpt lat="45.09478836072851" lon="9.419664006191327"><ele>47.400000000000006</ele><time>2026-04-19T13:28:16.001Z</time></trkpt><trkpt lat="45.094769696963546" lon="9.419800817869957"><ele>47.599999999999994</ele><time>2026-04-19T13:28:18.001Z</time></trkpt><trkpt lat="45.09475284995344" lon="9.419959510687066"><ele>47.8</ele><time>2026-04-19T13:28:20.001Z</time></trkpt><trkpt lat="45.094742967416586" lon="9.4200554066754"><ele>48.0</ele><time>2026-04-19T13:28:21.001Z</time></trkpt><trkpt lat="45.094739409315025" lon="9.420147828229124"><ele>48.0</ele><time>2026-04-19T13:28:22.001Z</time></trkpt><trkpt lat="45.09475619103592" lon="9.420287800692527"><ele>48.0</ele><time>2026-04-19T13:28:24.001Z</time></trkpt><trkpt lat="45.094781510325234" lon="9.420410813573211"><ele>48.0</ele><time>2026-04-19T13:28:26.001Z</time></trkpt><trkpt lat="45.09478976183934" lon="9.420515636067334"><ele>48.0</ele><time>2026-04-19T13:28:28.001Z</time></trkpt><trkpt lat="45.094773154445264" lon="9.420641901325048"><ele>48.0</ele><time>2026-04-19T13:28:32.001Z</time></trkpt><trkpt lat="45.09476231689878" lon="9.420781444471517"><ele>47.8</ele><time>2026-04-19T13:28:34.001Z</time></trkpt><trkpt lat="45.09474737895527" lon="9.420979959838258"><ele>47.599999999999994</ele><time>2026-04-19T13:28:36.001Z</time></trkpt><trkpt lat="45.09472699871291" lon="9.421101251867166"><ele>47.400000000000006</ele><time>2026-04-19T13:28:37.001Z</time></trkpt><trkpt lat="45.094716901114886" lon="9.421209417734419"><ele>47.2</ele><time>2026-04-19T13:28:38.001Z</time></trkpt><trkpt lat="45.09471676006549" lon="9.421354841006243"><ele>47.0</ele><time>2026-04-19T13:28:40.001Z</time></trkpt><trkpt lat="45.09475032209841" lon="9.421488103837635"><ele>47.0</ele><time>2026-04-19T13:28:42.001Z</time></trkpt><trkpt lat="45.09479995356459" lon="9.421562311360324"><ele>47.0</ele><time>2026-04-19T13:28:44.001Z</time></trkpt><trkpt lat="45.0948504223652" lon="9.42162510905195"><ele>47.0</ele><time>2026-04-19T13:28:46.001Z</time></trkpt><trkpt lat="45.0948710318798" lon="9.42172327237839"><ele>47.0</ele><time>2026-04-19T13:28:48.001Z</time></trkpt><trkpt lat="45.094951875222925" lon="9.421770155368035"><ele>47.0</ele><time>2026-04-19T13:28:50.001Z</time></trkpt><trkpt lat="45.09506609921371" lon="9.421748467408598"><ele>47.0</ele><time>2026-04-19T13:28:52.001Z</time></trkpt><trkpt lat="45.09516696495249" lon="9.421694540975283"><ele>47.2</ele><time>2026-04-19T13:28:54.001Z</time></trkpt><trkpt lat="45.0952760653474" lon="9.4216810421349"><ele>47.400000000000006</ele><time>2026-04-19T13:28:56.001Z</time></trkpt><trkpt lat="45.09538637280535" lon="9.421642157219368"><ele>47.599999999999994</ele><time>2026-04-19T13:28:58.001Z</time></trkpt><trkpt lat="45.09549923152278" lon="9.421598225811936"><ele>47.8</ele><time>2026-04-19T13:29:00.001Z</time></trkpt><trkpt lat="45.095552649968276" lon="9.421542992357857"><ele>48.0</ele><time>2026-04-19T13:29:01.001Z</time></trkpt><trkpt lat="45.09560324244483" lon="9.42147483412417"><ele>48.0</ele><time>2026-04-19T13:29:02.001Z</time></trkpt><trkpt lat="45.09568952012421" lon="9.42140190128183"><ele>48.0</ele><time>2026-04-19T13:29:04.001Z</time></trkpt><trkpt lat="45.09580641972282" lon="9.421361555325598"><ele>48.0</ele><time>2026-04-19T13:29:06.001Z</time></trkpt><trkpt lat="45.0958739051757" lon="9.421368750671823"><ele>48.0</ele><time>2026-04-19T13:29:07.001Z</time></trkpt><trkpt lat="45.09596021252913" lon="9.421385161036515"><ele>48.0</ele><time>2026-04-19T13:29:08.001Z</time></trkpt><trkpt lat="45.096044598096825" lon="9.421404889571065"><ele>48.2</ele><time>2026-04-19T13:29:09.002Z</time></trkpt><trkpt lat="45.096139335898975" lon="9.421422316001912"><ele>48.4</ele><time>2026-04-19T13:29:10.002Z</time></trkpt><trkpt lat="45.09623758972117" lon="9.421444274639905"><ele>48.6</ele><time>2026-04-19T13:29:11.002Z</time></trkpt><trkpt lat="45.09631237327583" lon="9.421464329759242"><ele>48.800000000000004</ele><time>2026-04-19T13:29:12.002Z</time></trkpt><trkpt lat="45.09637897309636" lon="9.421478400652543"><ele>49.0</ele><time>2026-04-19T13:29:13.002Z</time></trkpt><trkpt lat="45.09649696379559" lon="9.421500907125852"><ele>49.49999999999999</ele><time>2026-04-19T13:29:15.002Z</time></trkpt><trkpt lat="45.09660785755956" lon="9.421521178835311"><ele>50.0</ele><time>2026-04-19T13:29:17.002Z</time></trkpt><trkpt lat="45.09669812701938" lon="9.42154879988221"><ele>50.5</ele><time>2026-04-19T13:29:19.002Z</time></trkpt><trkpt lat="45.09677300839311" lon="9.421563303925529"><ele>51.0</ele><time>2026-04-19T13:29:21.002Z</time></trkpt><trkpt lat="45.096860869693195" lon="9.421558733383968"><ele>51.49999999999999</ele><time>2026-04-19T13:29:23.002Z</time></trkpt><trkpt lat="45.09693886853497" lon="9.421570232738974"><ele>52.0</ele><time>2026-04-19T13:29:25.002Z</time></trkpt><trkpt lat="45.097017255454716" lon="9.421609146587098"><ele>52.0</ele><time>2026-04-19T13:29:27.002Z</time></trkpt><trkpt lat="45.09715448693978" lon="9.421631348346512"><ele>52.0</ele><time>2026-04-19T13:29:29.002Z</time></trkpt><trkpt lat="45.097233218693766" lon="9.421634998660755"><ele>52.0</ele><time>2026-04-19T13:29:30.002Z</time></trkpt><trkpt lat="45.097313925079" lon="9.42164136729409"><ele>52.0</ele><time>2026-04-19T13:29:31.002Z</time></trkpt><trkpt lat="45.09740641413614" lon="9.421654223474048"><ele>52.0</ele><time>2026-04-19T13:29:32.002Z</time></trkpt><trkpt lat="45.09750186264342" lon="9.421666311639385"><ele>52.25</ele><time>2026-04-19T13:29:33.002Z</time></trkpt><trkpt lat="45.09760875820906" lon="9.421679873298572"><ele>52.5</ele><time>2026-04-19T13:29:34.002Z</time></trkpt><trkpt lat="45.09772292607469" lon="9.421703151032204"><ele>52.75</ele><time>2026-04-19T13:29:35.002Z</time></trkpt><trkpt lat="45.09784174330796" lon="9.421722553636801"><ele>53.0</ele><time>2026-04-19T13:29:36.002Z</time></trkpt><trkpt lat="45.09795709035704" lon="9.421743536581614"><ele>53.0</ele><time>2026-04-19T13:29:37.002Z</time></trkpt><trkpt lat="45.09806383969451" lon="9.421772920725488"><ele>53.0</ele><time>2026-04-19T13:29:38.002Z</time></trkpt><trkpt lat="45.098176533304574" lon="9.42179488470591"><ele>53.0</ele><time>2026-04-19T13:29:39.002Z</time></trkpt><trkpt lat="45.09828564493371" lon="9.42182234409465"><ele>53.0</ele><time>2026-04-19T13:29:40.002Z</time></trkpt><trkpt lat="45.09840001266878" lon="9.42184642556393"><ele>53.0</ele><time>2026-04-19T13:29:41Z</time></trkpt><trkpt lat="45.09851254503612" lon="9.42186048287212"><ele>53.4</ele><time>2026-04-19T13:29:42Z</time></trkpt><trkpt lat="45.09863600285199" lon="9.421913657697841"><ele>53.8</ele><time>2026-04-19T13:29:43Z</time></trkpt><trkpt lat="45.09873194865981" lon="9.4219481576883"><ele>54.2</ele><time>2026-04-19T13:29:44Z</time></trkpt><trkpt lat="45.09879790631469" lon="9.42194226736421"><ele>54.6</ele><time>2026-04-19T13:29:45Z</time></trkpt><trkpt lat="45.098903998425136" lon="9.421968265697299"><ele>55.0</ele><time>2026-04-19T13:29:46Z</time></trkpt><trkpt lat="45.09900817653287" lon="9.422002658354014"><ele>54.8</ele><time>2026-04-19T13:29:47Z</time></trkpt><trkpt lat="45.09911021548664" lon="9.422035651205517"><ele>54.6</ele><time>2026-04-19T13:29:48Z</time></trkpt><trkpt lat="45.09919807388568" lon="9.422053524796935"><ele>54.400000000000006</ele><time>2026-04-19T13:29:49Z</time></trkpt><trkpt lat="45.09926048642879" lon="9.422093128963018"><ele>54.2</ele><time>2026-04-19T13:29:50Z</time></trkpt><trkpt lat="45.099348169514336" lon="9.422152895896707"><ele>54.0</ele><time>2026-04-19T13:29:51Z</time></trkpt><trkpt lat="45.09943241921261" lon="9.42221462877736"><ele>53.6</ele><time>2026-04-19T13:29:52Z</time></trkpt><trkpt lat="45.09952233962314" lon="9.422279940010824"><ele>53.2</ele><time>2026-04-19T13:29:53Z</time></trkpt><trkpt lat="45.09960819113207" lon="9.422346047992397"><ele>52.800000000000004</ele><time>2026-04-19T13:29:54Z</time></trkpt><trkpt lat="45.09969761778008" lon="9.422418739157699"><ele>52.400000000000006</ele><time>2026-04-19T13:29:55Z</time></trkpt><trkpt lat="45.0997674589783" lon="9.422475720066316"><ele>52.0</ele><time>2026-04-19T13:29:56Z</time></trkpt><trkpt lat="45.09982837429876" lon="9.422523551355004"><ele>51.99999999999999</ele><time>2026-04-19T13:29:57Z</time></trkpt><trkpt lat="45.09989870152114" lon="9.422622968408826"><ele>52.0</ele><time>2026-04-19T13:29:59Z</time></trkpt><trkpt lat="45.09989654356322" lon="9.422774523321275"><ele>52.0</ele><time>2026-04-19T13:30:01Z</time></trkpt><trkpt lat="45.09989040544309" lon="9.422864675626743"><ele>52.0</ele><time>2026-04-19T13:30:02Z</time></trkpt><trkpt lat="45.099879290971415" lon="9.42295614023552"><ele>51.99999999999999</ele><time>2026-04-19T13:30:03Z</time></trkpt><trkpt lat="45.09988144077785" lon="9.423052972375814"><ele>52.0</ele><time>2026-04-19T13:30:04Z</time></trkpt><trkpt lat="45.09987660547573" lon="9.423154920020208"><ele>51.99999999999999</ele><time>2026-04-19T13:30:05Z</time></trkpt><trkpt lat="45.09987366580376" lon="9.423261836393081"><ele>52.0</ele><time>2026-04-19T13:30:06Z</time></trkpt><trkpt lat="45.09987344788802" lon="9.423375084578165"><ele>52.0</ele><time>2026-04-19T13:30:07Z</time></trkpt><trkpt lat="45.09986629026805" lon="9.423499074710898"><ele>52.0</ele><time>2026-04-19T13:30:08Z</time></trkpt><trkpt lat="45.09986419634132" lon="9.423620205304546"><ele>51.99999999999999</ele><time>2026-04-19T13:30:09Z</time></trkpt><trkpt lat="45.09986437992785" lon="9.423754738618495"><ele>52.0</ele><time>2026-04-19T13:30:10Z</time></trkpt><trkpt lat="45.09986111603666" lon="9.423894390004328"><ele>52.8</ele><time>2026-04-19T13:30:11Z</time></trkpt><trkpt lat="45.099860806330256" lon="9.42403874658916"><ele>53.6</ele><time>2026-04-19T13:30:12Z</time></trkpt><trkpt lat="45.099854333775475" lon="9.424168821333359"><ele>54.39999999999999</ele><time>2026-04-19T13:30:13Z</time></trkpt><trkpt lat="45.0998519182645" lon="9.424301994568012"><ele>55.199999999999996</ele><time>2026-04-19T13:30:14Z</time></trkpt><trkpt lat="45.09985183596447" lon="9.424433975053"><ele>56.0</ele><time>2026-04-19T13:30:15Z</time></trkpt><trkpt lat="45.09984884790154" lon="9.424578455272698"><ele>57.5</ele><time>2026-04-19T13:30:16Z</time></trkpt><trkpt lat="45.09984098102548" lon="9.424733449676076"><ele>59.0</ele><time>2026-04-19T13:30:17Z</time></trkpt><trkpt lat="45.09983844444588" lon="9.424898054623544"><ele>60.5</ele><time>2026-04-19T13:30:18Z</time></trkpt><trkpt lat="45.09983436156489" lon="9.425063776756971"><ele>62.0</ele><time>2026-04-19T13:30:19Z</time></trkpt><trkpt lat="45.099834885609766" lon="9.425240199330052"><ele>62.0</ele><time>2026-04-19T13:30:20Z</time></trkpt><trkpt lat="45.09983173228197" lon="9.425424715680588"><ele>62.0</ele><time>2026-04-19T13:30:21.001Z</time></trkpt><trkpt lat="45.0998317943148" lon="9.425618728792513"><ele>62.0</ele><time>2026-04-19T13:30:22.001Z</time></trkpt><trkpt lat="45.09982596520582" lon="9.425821806870513"><ele>62.0</ele><time>2026-04-19T13:30:23.001Z</time></trkpt><trkpt lat="45.09981953740701" lon="9.426031865559295"><ele>61.75</ele><time>2026-04-19T13:30:24.001Z</time></trkpt><trkpt lat="45.09981542086652" lon="9.426242372866133"><ele>61.5</ele><time>2026-04-19T13:30:25.001Z</time></trkpt><trkpt lat="45.099811598162034" lon="9.42644746344584"><ele>61.25</ele><time>2026-04-19T13:30:26.001Z</time></trkpt><trkpt lat="45.09981025595066" lon="9.426636175992842"><ele>61.0</ele><time>2026-04-19T13:30:27.001Z</time></trkpt><trkpt lat="45.099808848445875" lon="9.426814211186286"><ele>60.4</ele><time>2026-04-19T13:30:28.001Z</time></trkpt><trkpt lat="45.09980521309843" lon="9.426984721889687"><ele>59.8</ele><time>2026-04-19T13:30:29.001Z</time></trkpt><trkpt lat="45.09979818494261" lon="9.427141734942305"><ele>59.199999999999996</ele><time>2026-04-19T13:30:30.001Z</time></trkpt><trkpt lat="45.09979371277711" lon="9.427285751208258"><ele>58.599999999999994</ele><time>2026-04-19T13:30:31.001Z</time></trkpt><trkpt lat="45.09979145295557" lon="9.427421678424535"><ele>58.0</ele><time>2026-04-19T13:30:32.001Z</time></trkpt><trkpt lat="45.099794851932785" lon="9.427562628773098"><ele>57.4</ele><time>2026-04-19T13:30:33.001Z</time></trkpt><trkpt lat="45.09979816900528" lon="9.427708069802874"><ele>56.8</ele><time>2026-04-19T13:30:34.001Z</time></trkpt><trkpt lat="45.09979823993915" lon="9.42785885466764"><ele>56.2</ele><time>2026-04-19T13:30:35.001Z</time></trkpt><trkpt lat="45.09979827925684" lon="9.428017038161343"><ele>55.6</ele><time>2026-04-19T13:30:36.001Z</time></trkpt><trkpt lat="45.09979548506751" lon="9.42817804201673"><ele>55.0</ele><time>2026-04-19T13:30:37.001Z</time></trkpt><trkpt lat="45.09979086078082" lon="9.42834962988675"><ele>54.0</ele><time>2026-04-19T13:30:38.001Z</time></trkpt><trkpt lat="45.099782190477185" lon="9.428527056508013"><ele>53.0</ele><time>2026-04-19T13:30:39.001Z</time></trkpt><trkpt lat="45.099776495488264" lon="9.428711362881867"><ele>52.0</ele><time>2026-04-19T13:30:40.001Z</time></trkpt><trkpt lat="45.099772466482435" lon="9.428898266949846"><ele>51.0</ele><time>2026-04-19T13:30:41.001Z</time></trkpt><trkpt lat="45.09976722129337" lon="9.429091106788782"><ele>51.0</ele><time>2026-04-19T13:30:42.001Z</time></trkpt><trkpt lat="45.099762935394835" lon="9.429282720651425"><ele>51.0</ele><time>2026-04-19T13:30:43.001Z</time></trkpt><trkpt lat="45.09975874008936" lon="9.429468370419276"><ele>51.0</ele><time>2026-04-19T13:30:44.001Z</time></trkpt><trkpt lat="45.09975545061706" lon="9.429642321825076"><ele>51.0</ele><time>2026-04-19T13:30:45.001Z</time></trkpt><trkpt lat="45.09974711331848" lon="9.429818450015212"><ele>51.0</ele><time>2026-04-19T13:30:46.001Z</time></trkpt><trkpt lat="45.09973554647433" lon="9.429996118225198"><ele>51.0</ele><time>2026-04-19T13:30:47.001Z</time></trkpt><trkpt lat="45.099711069846556" lon="9.43017341110086"><ele>51.0</ele><time>2026-04-19T13:30:48.001Z</time></trkpt><trkpt lat="45.09967885929564" lon="9.43034220391544"><ele>51.0</ele><time>2026-04-19T13:30:49.001Z</time></trkpt><trkpt lat="45.09963801267767" lon="9.430503811717228"><ele>51.0</ele><time>2026-04-19T13:30:50.001Z</time></trkpt><trkpt lat="45.09959338365458" lon="9.430661400146413"><ele>51.0</ele><time>2026-04-19T13:30:51.001Z</time></trkpt><trkpt lat="45.099538563100595" lon="9.430819135809292"><ele>51.0</ele><time>2026-04-19T13:30:52.001Z</time></trkpt><trkpt lat="45.09947669802371" lon="9.430977730340576"><ele>51.0</ele><time>2026-04-19T13:30:53.001Z</time></trkpt><trkpt lat="45.09940702498715" lon="9.4311216895504"><ele>51.0</ele><time>2026-04-19T13:30:54.001Z</time></trkpt><trkpt lat="45.09933826482862" lon="9.431266246557316"><ele>51.0</ele><time>2026-04-19T13:30:55.001Z</time></trkpt><trkpt lat="45.09926679406415" lon="9.431419503608575"><ele>51.0</ele><time>2026-04-19T13:30:56.001Z</time></trkpt><trkpt lat="45.0991948147076" lon="9.431576283077682"><ele>51.0</ele><time>2026-04-19T13:30:57.001Z</time></trkpt><trkpt lat="45.09912747234498" lon="9.431737331451227"><ele>51.0</ele><time>2026-04-19T13:30:58.001Z</time></trkpt><trkpt lat="45.09906770918924" lon="9.431900625178631"><ele>51.0</ele><time>2026-04-19T13:30:59.001Z</time></trkpt><trkpt lat="45.09901948287017" lon="9.432069408541805"><ele>51.0</ele><time>2026-04-19T13:31:00.001Z</time></trkpt><trkpt lat="45.09897492058991" lon="9.432235616459304"><ele>51.0</ele><time>2026-04-19T13:31:01.001Z</time></trkpt><trkpt lat="45.0989361295619" lon="9.432409695277792"><ele>51.0</ele><time>2026-04-19T13:31:02.001Z</time></trkpt><trkpt lat="45.098902503366745" lon="9.432593784453363"><ele>51.0</ele><time>2026-04-19T13:31:03.001Z</time></trkpt><trkpt lat="45.098880472991695" lon="9.432783007359266"><ele>51.0</ele><time>2026-04-19T13:31:04.001Z</time></trkpt><trkpt lat="45.09886676782097" lon="9.432971738604154"><ele>51.0</ele><time>2026-04-19T13:31:05.001Z</time></trkpt><trkpt lat="45.09885849722179" lon="9.433158243855829"><ele>51.5</ele><time>2026-04-19T13:31:06.001Z</time></trkpt><trkpt lat="45.09885500325983" lon="9.433344560699265"><ele>52.0</ele><time>2026-04-19T13:31:07.001Z</time></trkpt><trkpt lat="45.09885366827801" lon="9.43353362712591"><ele>52.5</ele><time>2026-04-19T13:31:08.001Z</time></trkpt><trkpt lat="45.09885412250442" lon="9.433723012255836"><ele>53.0</ele><time>2026-04-19T13:31:09.001Z</time></trkpt><trkpt lat="45.09885437007068" lon="9.433914825557865"><ele>53.25</ele><time>2026-04-19T13:31:10.001Z</time></trkpt><trkpt lat="45.09885552162605" lon="9.434109236942815"><ele>53.5</ele><time>2026-04-19T13:31:11.001Z</time></trkpt><trkpt lat="45.098860248430164" lon="9.434308606136826"><ele>53.75</ele><time>2026-04-19T13:31:12.001Z</time></trkpt><trkpt lat="45.098864823326494" lon="9.434507508541714"><ele>54.0</ele><time>2026-04-19T13:31:13.001Z</time></trkpt><trkpt lat="45.09886749548637" lon="9.434709312798526"><ele>53.25</ele><time>2026-04-19T13:31:14.001Z</time></trkpt><trkpt lat="45.09887012423426" lon="9.434915061757968"><ele>52.5</ele><time>2026-04-19T13:31:15.001Z</time></trkpt><trkpt lat="45.09887280122721" lon="9.43511323669929"><ele>51.75</ele><time>2026-04-19T13:31:16.002Z</time></trkpt><trkpt lat="45.098872661934664" lon="9.435306676999812"><ele>51.0</ele><time>2026-04-19T13:31:17.002Z</time></trkpt><trkpt lat="45.0988718427996" lon="9.435497230995754"><ele>51.0</ele><time>2026-04-19T13:31:18.002Z</time></trkpt><trkpt lat="45.09886829154891" lon="9.435690170245618"><ele>51.0</ele><time>2026-04-19T13:31:19.002Z</time></trkpt><trkpt lat="45.09886284730532" lon="9.435879725123112"><ele>51.0</ele><time>2026-04-19T13:31:20.002Z</time></trkpt><trkpt lat="45.09886027640814" lon="9.436069615889656"><ele>51.0</ele><time>2026-04-19T13:31:21.002Z</time></trkpt><trkpt lat="45.09885717459773" lon="9.436261013319493"><ele>51.75</ele><time>2026-04-19T13:31:22.002Z</time></trkpt><trkpt lat="45.09885245891768" lon="9.436453618351315"><ele>52.5</ele><time>2026-04-19T13:31:23.002Z</time></trkpt><trkpt lat="45.09884968543416" lon="9.436646621645226"><ele>53.25</ele><time>2026-04-19T13:31:24.002Z</time></trkpt><trkpt lat="45.098849785166585" lon="9.436837531036103"><ele>54.0</ele><time>2026-04-19T13:31:25.002Z</time></trkpt><trkpt lat="45.09884715295205" lon="9.437029779141314"><ele>54.0</ele><time>2026-04-19T13:31:26.002Z</time></trkpt><trkpt lat="45.098838581748616" lon="9.437219223611145"><ele>54.0</ele><time>2026-04-19T13:31:27.002Z</time></trkpt><trkpt lat="45.09882584509802" lon="9.437407823418038"><ele>54.0</ele><time>2026-04-19T13:31:28.002Z</time></trkpt><trkpt lat="45.098813675538445" lon="9.437599477733276"><ele>54.0</ele><time>2026-04-19T13:31:29.002Z</time></trkpt><trkpt lat="45.09880893228346" lon="9.437788680229087"><ele>53.0</ele><time>2026-04-19T13:31:30.002Z</time></trkpt><trkpt lat="45.09881494222541" lon="9.43797665069876"><ele>52.0</ele><time>2026-04-19T13:31:31.002Z</time></trkpt><trkpt lat="45.0988328752704" lon="9.438167995203939"><ele>51.0</ele><time>2026-04-19T13:31:32.002Z</time></trkpt><trkpt lat="45.09884876855419" lon="9.438366759886705"><ele>50.0</ele><time>2026-04-19T13:31:33.002Z</time></trkpt><trkpt lat="45.0989146065193" lon="9.438552961858111"><ele>50.0</ele><time>2026-04-19T13:31:34.002Z</time></trkpt><trkpt lat="45.09896899247464" lon="9.438743520811947"><ele>50.0</ele><time>2026-04-19T13:31:35.002Z</time></trkpt><trkpt lat="45.099038924097066" lon="9.438937841763934"><ele>50.0</ele><time>2026-04-19T13:31:36.002Z</time></trkpt><trkpt lat="45.09911265030255" lon="9.43913092504497"><ele>50.0</ele><time>2026-04-19T13:31:37.002Z</time></trkpt><trkpt lat="45.099184251824816" lon="9.439320145904992"><ele>50.0</ele><time>2026-04-19T13:31:38.002Z</time></trkpt><trkpt lat="45.09925446720564" lon="9.439503578926637"><ele>50.0</ele><time>2026-04-19T13:31:39.002Z</time></trkpt><trkpt lat="45.09932619369579" lon="9.439689787720855"><ele>50.0</ele><time>2026-04-19T13:31:40.002Z</time></trkpt><trkpt lat="45.09939580550419" lon="9.439878785781605"><ele>50.0</ele><time>2026-04-19T13:31:41.002Z</time></trkpt><trkpt lat="45.09946594363965" lon="9.440066176696682"><ele>50.0</ele><time>2026-04-19T13:31:42.002Z</time></trkpt><trkpt lat="45.09953283342886" lon="9.440248790117614"><ele>50.0</ele><time>2026-04-19T13:31:43.002Z</time></trkpt><trkpt lat="45.09959517431951" lon="9.440424099436497"><ele>50.0</ele><time>2026-04-19T13:31:44.002Z</time></trkpt><trkpt lat="45.09965871421631" lon="9.440597249738124"><ele>49.75</ele><time>2026-04-19T13:31:45.002Z</time></trkpt><trkpt lat="45.09972587698585" lon="9.440771384770871"><ele>49.5</ele><time>2026-04-19T13:31:46.001Z</time></trkpt><trkpt lat="45.09979393363935" lon="9.44094691071775"><ele>49.25</ele><time>2026-04-19T13:31:47.001Z</time></trkpt><trkpt lat="45.099843966096316" lon="9.441131375731887"><ele>49.0</ele><time>2026-04-19T13:31:48.001Z</time></trkpt><trkpt lat="45.09991797018961" lon="9.441287925134592"><ele>49.5</ele><time>2026-04-19T13:31:49.001Z</time></trkpt><trkpt lat="45.099976670310724" lon="9.44145254934306"><ele>50.0</ele><time>2026-04-19T13:31:50.001Z</time></trkpt><trkpt lat="45.10003076226302" lon="9.441604386351742"><ele>50.5</ele><time>2026-04-19T13:31:51.001Z</time></trkpt><trkpt lat="45.100078278576895" lon="9.441743484472454"><ele>51.0</ele><time>2026-04-19T13:31:52.001Z</time></trkpt><trkpt lat="45.10012048176467" lon="9.441877183910144"><ele>51.0</ele><time>2026-04-19T13:31:53.001Z</time></trkpt><trkpt lat="45.10015398368906" lon="9.442001327059048"><ele>51.0</ele><time>2026-04-19T13:31:54.001Z</time></trkpt><trkpt lat="45.10018501582576" lon="9.442117929428107"><ele>51.0</ele><time>2026-04-19T13:31:55.001Z</time></trkpt><trkpt lat="45.100218249575974" lon="9.442214104775951"><ele>51.0</ele><time>2026-04-19T13:31:56.001Z</time></trkpt><trkpt lat="45.100244307780926" lon="9.44233639788449"><ele>51.0</ele><time>2026-04-19T13:31:58.001Z</time></trkpt><trkpt lat="45.10042950595236" lon="9.442285009594123"><ele>50.8</ele><time>2026-04-19T13:31:59.001Z</time></trkpt><trkpt lat="45.100507972815976" lon="9.44226490696208"><ele>50.599999999999994</ele><time>2026-04-19T13:32:00.001Z</time></trkpt><trkpt lat="45.10058455624773" lon="9.442259109164647"><ele>50.4</ele><time>2026-04-19T13:32:01.001Z</time></trkpt><trkpt lat="45.100674102553896" lon="9.442260468885971"><ele>50.2</ele><time>2026-04-19T13:32:02.001Z</time></trkpt><trkpt lat="45.10077963409153" lon="9.442271270723968"><ele>50.0</ele><time>2026-04-19T13:32:03.001Z</time></trkpt><trkpt lat="45.100887962458444" lon="9.442295947886489"><ele>50.75</ele><time>2026-04-19T13:32:04.001Z</time></trkpt><trkpt lat="45.100996843786305" lon="9.442364648732617"><ele>51.5</ele><time>2026-04-19T13:32:05.001Z</time></trkpt><trkpt lat="45.101118104386174" lon="9.442387916749713"><ele>52.25</ele><time>2026-04-19T13:32:06.001Z</time></trkpt><trkpt lat="45.10123416022699" lon="9.442435687469045"><ele>53.0</ele><time>2026-04-19T13:32:07.001Z</time></trkpt><trkpt lat="45.10135089305683" lon="9.442479028476155"><ele>53.0</ele><time>2026-04-19T13:32:08.001Z</time></trkpt><trkpt lat="45.10147001522003" lon="9.442520213274053"><ele>53.0</ele><time>2026-04-19T13:32:09.001Z</time></trkpt><trkpt lat="45.10159162735652" lon="9.442567343091183"><ele>53.0</ele><time>2026-04-19T13:32:10.001Z</time></trkpt><trkpt lat="45.101715892396406" lon="9.442596755387788"><ele>53.0</ele><time>2026-04-19T13:32:11.001Z</time></trkpt><trkpt lat="45.10184161018494" lon="9.44261982456991"><ele>52.5</ele><time>2026-04-19T13:32:12.001Z</time></trkpt><trkpt lat="45.10197235235209" lon="9.442633059007425"><ele>52.0</ele><time>2026-04-19T13:32:13.001Z</time></trkpt><trkpt lat="45.10210729297959" lon="9.442643569933443"><ele>51.5</ele><time>2026-04-19T13:32:14.001Z</time></trkpt><trkpt lat="45.10224270147869" lon="9.442642769309552"><ele>51.0</ele><time>2026-04-19T13:32:15.001Z</time></trkpt><trkpt lat="45.1023836930627" lon="9.442629348796856"><ele>51.0</ele><time>2026-04-19T13:32:16.001Z</time></trkpt><trkpt lat="45.10252831582006" lon="9.442640218347183"><ele>51.0</ele><time>2026-04-19T13:32:17.001Z</time></trkpt><trkpt lat="45.102679439464026" lon="9.44262662736666"><ele>51.0</ele><time>2026-04-19T13:32:18.001Z</time></trkpt><trkpt lat="45.102836243294384" lon="9.442611334953325"><ele>51.0</ele><time>2026-04-19T13:32:19.001Z</time></trkpt><trkpt lat="45.10299626977109" lon="9.442594048046539"><ele>51.0</ele><time>2026-04-19T13:32:20.001Z</time></trkpt><trkpt lat="45.10315995710024" lon="9.442576046976072"><ele>51.0</ele><time>2026-04-19T13:32:21.001Z</time></trkpt><trkpt lat="45.10332601500134" lon="9.442536094908592"><ele>50.33333333333333</ele><time>2026-04-19T13:32:22.001Z</time></trkpt><trkpt lat="45.10349787980327" lon="9.442520766874269"><ele>49.666666666666664</ele><time>2026-04-19T13:32:23.001Z</time></trkpt><trkpt lat="45.103667123417885" lon="9.442505032154614"><ele>49.0</ele><time>2026-04-19T13:32:24.001Z</time></trkpt><trkpt lat="45.10383180916925" lon="9.442486967959859"><ele>49.0</ele><time>2026-04-19T13:32:25.001Z</time></trkpt><trkpt lat="45.103989676184895" lon="9.442468680071077"><ele>49.0</ele><time>2026-04-19T13:32:26.001Z</time></trkpt><trkpt lat="45.10414446873025" lon="9.442454232942232"><ele>49.0</ele><time>2026-04-19T13:32:27.001Z</time></trkpt><trkpt lat="45.10430374349586" lon="9.442434754292217"><ele>49.33333333333333</ele><time>2026-04-19T13:32:28.001Z</time></trkpt><trkpt lat="45.10446066940367" lon="9.442436225388565"><ele>49.66666666666667</ele><time>2026-04-19T13:32:29.001Z</time></trkpt><trkpt lat="45.10461790842339" lon="9.442418847764804"><ele>50.0</ele><time>2026-04-19T13:32:30.001Z</time></trkpt><trkpt lat="45.104777251353795" lon="9.442386829211655"><ele>50.333333333333336</ele><time>2026-04-19T13:32:31.001Z</time></trkpt><trkpt lat="45.10493480015057" lon="9.442362402324195"><ele>50.66666666666667</ele><time>2026-04-19T13:32:32.001Z</time></trkpt><trkpt lat="45.105087132135985" lon="9.442349273333098"><ele>51.0</ele><time>2026-04-19T13:32:33.001Z</time></trkpt><trkpt lat="45.10523574705347" lon="9.442335972305914"><ele>51.0</ele><time>2026-04-19T13:32:34.001Z</time></trkpt><trkpt lat="45.10537353528141" lon="9.442351544493425"><ele>51.0</ele><time>2026-04-19T13:32:35.001Z</time></trkpt><trkpt lat="45.10551720932031" lon="9.442369101133805"><ele>51.0</ele><time>2026-04-19T13:32:36.001Z</time></trkpt><trkpt lat="45.10565857061361" lon="9.44240589616174"><ele>51.0</ele><time>2026-04-19T13:32:37.001Z</time></trkpt><trkpt lat="45.1058031102449" lon="9.442435415841901"><ele>51.25</ele><time>2026-04-19T13:32:38.001Z</time></trkpt><trkpt lat="45.10593691487856" lon="9.44247222885877"><ele>51.5</ele><time>2026-04-19T13:32:39.001Z</time></trkpt><trkpt lat="45.106068793285225" lon="9.44250716329484"><ele>51.75</ele><time>2026-04-19T13:32:40.001Z</time></trkpt><trkpt lat="45.10620138447583" lon="9.442540979665354"><ele>52.0</ele><time>2026-04-19T13:32:41.001Z</time></trkpt><trkpt lat="45.10632935112204" lon="9.442575888142866"><ele>52.0</ele><time>2026-04-19T13:32:42.001Z</time></trkpt><trkpt lat="45.106451979885705" lon="9.442607123132774"><ele>52.0</ele><time>2026-04-19T13:32:43.001Z</time></trkpt><trkpt lat="45.10656512972774" lon="9.44264284454272"><ele>52.0</ele><time>2026-04-19T13:32:44.001Z</time></trkpt><trkpt lat="45.1066690854258" lon="9.442668281225748"><ele>52.0</ele><time>2026-04-19T13:32:45.001Z</time></trkpt><trkpt lat="45.10676494389353" lon="9.442690152881141"><ele>52.0</ele><time>2026-04-19T13:32:46.001Z</time></trkpt><trkpt lat="45.106848199617204" lon="9.442709630494875"><ele>51.6</ele><time>2026-04-19T13:32:47.001Z</time></trkpt><trkpt lat="45.10691928096871" lon="9.442730262331303"><ele>51.2</ele><time>2026-04-19T13:32:48.001Z</time></trkpt><trkpt lat="45.106998322534174" lon="9.44280834076014"><ele>50.8</ele><time>2026-04-19T13:32:50.001Z</time></trkpt><trkpt lat="45.107042389111925" lon="9.44289862218665"><ele>50.4</ele><time>2026-04-19T13:32:53.001Z</time></trkpt><trkpt lat="45.10718186896185" lon="9.44281807203256"><ele>50.0</ele><time>2026-04-19T13:32:56.001Z</time></trkpt><trkpt lat="45.107226858029414" lon="9.442731935985545"><ele>50.0</ele><time>2026-04-19T13:32:57.001Z</time></trkpt><trkpt lat="45.10728498266821" lon="9.442628436363012"><ele>50.0</ele><time>2026-04-19T13:32:58.001Z</time></trkpt><trkpt lat="45.10734559122838" lon="9.442522348865172"><ele>50.0</ele><time>2026-04-19T13:32:59.001Z</time></trkpt><trkpt lat="45.10741692967544" lon="9.442406049023154"><ele>50.0</ele><time>2026-04-19T13:33:00.001Z</time></trkpt><trkpt lat="45.10750458808655" lon="9.44229087972796"><ele>50.0</ele><time>2026-04-19T13:33:01.001Z</time></trkpt><trkpt lat="45.10755711702161" lon="9.44213692758659"><ele>50.5</ele><time>2026-04-19T13:33:02.001Z</time></trkpt><trkpt lat="45.10761259636707" lon="9.44197860802991"><ele>51.0</ele><time>2026-04-19T13:33:03.001Z</time></trkpt><trkpt lat="45.10767870328484" lon="9.441858637464392"><ele>51.5</ele><time>2026-04-19T13:33:04.001Z</time></trkpt><trkpt lat="45.10773029538032" lon="9.441723235085142"><ele>52.0</ele><time>2026-04-19T13:33:05.001Z</time></trkpt><trkpt lat="45.107809983333496" lon="9.441614287225969"><ele>52.0</ele><time>2026-04-19T13:33:06.001Z</time></trkpt><trkpt lat="45.10785859560251" lon="9.441493438211062"><ele>52.0</ele><time>2026-04-19T13:33:07.001Z</time></trkpt><trkpt lat="45.107866779692266" lon="9.441325167766166"><ele>52.0</ele><time>2026-04-19T13:33:08.001Z</time></trkpt><trkpt lat="45.10785345556951" lon="9.441140749265209"><ele>52.0</ele><time>2026-04-19T13:33:09.001Z</time></trkpt><trkpt lat="45.10788166455754" lon="9.440954904774802"><ele>52.0</ele><time>2026-04-19T13:33:10.001Z</time></trkpt><trkpt lat="45.10789463741941" lon="9.440767709884735"><ele>52.0</ele><time>2026-04-19T13:33:11.001Z</time></trkpt><trkpt lat="45.107915923307395" lon="9.440587691122353"><ele>52.0</ele><time>2026-04-19T13:33:12.001Z</time></trkpt><trkpt lat="45.10795374449845" lon="9.440411188570494"><ele>52.0</ele><time>2026-04-19T13:33:13.001Z</time></trkpt><trkpt lat="45.1080133053139" lon="9.4402400630977"><ele>52.0</ele><time>2026-04-19T13:33:14.001Z</time></trkpt><trkpt lat="45.1080635718572" lon="9.44006191865362"><ele>52.0</ele><time>2026-04-19T13:33:15.001Z</time></trkpt><trkpt lat="45.108108383680054" lon="9.439881669526986"><ele>52.0</ele><time>2026-04-19T13:33:16.001Z</time></trkpt><trkpt lat="45.108178800851796" lon="9.439722124829421"><ele>52.0</ele><time>2026-04-19T13:33:17.001Z</time></trkpt><trkpt lat="45.10823913530524" lon="9.439559453402344"><ele>52.5</ele><time>2026-04-19T13:33:18.001Z</time></trkpt><trkpt lat="45.10829979752636" lon="9.439397313405285"><ele>53.0</ele><time>2026-04-19T13:33:19.001Z</time></trkpt><trkpt lat="45.10836167365424" lon="9.439237642980899"><ele>53.5</ele><time>2026-04-19T13:33:20.002Z</time></trkpt><trkpt lat="45.108422680620414" lon="9.439085814947367"><ele>54.0</ele><time>2026-04-19T13:33:21.002Z</time></trkpt><trkpt lat="45.10848329379223" lon="9.438937688603032"><ele>53.800000000000004</ele><time>2026-04-19T13:33:22.002Z</time></trkpt><trkpt lat="45.10854319136918" lon="9.438791951657384"><ele>53.60000000000001</ele><time>2026-04-19T13:33:23.002Z</time></trkpt><trkpt lat="45.108597838002275" lon="9.43865956562032"><ele>53.4</ele><time>2026-04-19T13:33:24.002Z</time></trkpt><trkpt lat="45.10863853865504" lon="9.438521570766476"><ele>53.2</ele><time>2026-04-19T13:33:25.002Z</time></trkpt><trkpt lat="45.10870617607935" lon="9.438397801605786"><ele>53.0</ele><time>2026-04-19T13:33:26.002Z</time></trkpt><trkpt lat="45.10877765992489" lon="9.438279011853725"><ele>53.0</ele><time>2026-04-19T13:33:27.002Z</time></trkpt><trkpt lat="45.108850296235154" lon="9.43816689225086"><ele>53.0</ele><time>2026-04-19T13:33:28.002Z</time></trkpt><trkpt lat="45.10892712749526" lon="9.438075593585895"><ele>53.0</ele><time>2026-04-19T13:33:29.002Z</time></trkpt><trkpt lat="45.10901766255809" lon="9.438009962294947"><ele>53.0</ele><time>2026-04-19T13:33:30.002Z</time></trkpt><trkpt lat="45.10909941801019" lon="9.437922066647756"><ele>53.0</ele><time>2026-04-19T13:33:31.002Z</time></trkpt><trkpt lat="45.10918080135204" lon="9.437832087690204"><ele>53.2</ele><time>2026-04-19T13:33:32.002Z</time></trkpt><trkpt lat="45.10926166272888" lon="9.437736541008276"><ele>53.4</ele><time>2026-04-19T13:33:33.002Z</time></trkpt><trkpt lat="45.10933541345516" lon="9.437629374852772"><ele>53.60000000000001</ele><time>2026-04-19T13:33:34.002Z</time></trkpt><trkpt lat="45.1093938723152" lon="9.437502403761057"><ele>53.800000000000004</ele><time>2026-04-19T13:33:35.002Z</time></trkpt><trkpt lat="45.10944357297385" lon="9.437380137515985"><ele>54.0</ele><time>2026-04-19T13:33:36.002Z</time></trkpt><trkpt lat="45.10948413520168" lon="9.437273179067267"><ele>54.0</ele><time>2026-04-19T13:33:37.002Z</time></trkpt><trkpt lat="45.10951811146166" lon="9.437179511262732"><ele>54.0</ele><time>2026-04-19T13:33:38.002Z</time></trkpt><trkpt lat="45.10954945227953" lon="9.437093109362895"><ele>54.0</ele><time>2026-04-19T13:33:39.002Z</time></trkpt><trkpt lat="45.10958173487704" lon="9.437002815136676"><ele>54.0</ele><time>2026-04-19T13:33:40.002Z</time></trkpt><trkpt lat="45.109613955529795" lon="9.436912387263844"><ele>54.0</ele><time>2026-04-19T13:33:41.002Z</time></trkpt><trkpt lat="45.10964505959472" lon="9.436825093252423"><ele>54.0</ele><time>2026-04-19T13:33:42.002Z</time></trkpt><trkpt lat="45.10967452363736" lon="9.436743574864051"><ele>54.0</ele><time>2026-04-19T13:33:43.002Z</time></trkpt><trkpt lat="45.10972553737655" lon="9.436603805621179"><ele>54.166666666666664</ele><time>2026-04-19T13:33:45.002Z</time></trkpt><trkpt lat="45.10974899572883" lon="9.436492212330574"><ele>54.33333333333333</ele><time>2026-04-19T13:33:47.002Z</time></trkpt><trkpt lat="45.10980193813075" lon="9.436436565040694"><ele>54.5</ele><time>2026-04-19T13:33:49.002Z</time></trkpt><trkpt lat="45.109892652033125" lon="9.436465762862706"><ele>54.666666666666664</ele><time>2026-04-19T13:33:52.001Z</time></trkpt><trkpt lat="45.10996589149446" lon="9.43645528405338"><ele>54.83333333333333</ele><time>2026-04-19T13:33:56.001Z</time></trkpt><trkpt lat="45.110009824380995" lon="9.436555855602474"><ele>55.0</ele><time>2026-04-19T13:33:58.001Z</time></trkpt><trkpt lat="45.11010769940002" lon="9.436399443055471"><ele>54.99999999999999</ele><time>2026-04-19T13:34:01.001Z</time></trkpt><trkpt lat="45.11013026466404" lon="9.436308095318333"><ele>55.0</ele><time>2026-04-19T13:34:02.001Z</time></trkpt><trkpt lat="45.11015795803428" lon="9.436203636471742"><ele>55.0</ele><time>2026-04-19T13:34:03.001Z</time></trkpt><trkpt lat="45.11018854946749" lon="9.436096589962933"><ele>55.0</ele><time>2026-04-19T13:34:04.001Z</time></trkpt><trkpt lat="45.11022278095146" lon="9.435980536792204"><ele>54.99999999999999</ele><time>2026-04-19T13:34:05.001Z</time></trkpt><trkpt lat="45.11026415301716" lon="9.435840275495838"><ele>55.0</ele><time>2026-04-19T13:34:06.001Z</time></trkpt><trkpt lat="45.11030937764351" lon="9.435684657589618"><ele>54.5</ele><time>2026-04-19T13:34:07.001Z</time></trkpt><trkpt lat="45.11035027353926" lon="9.435530034179617"><ele>54.0</ele><time>2026-04-19T13:34:08.001Z</time></trkpt><trkpt lat="45.110390668176066" lon="9.435357578120968"><ele>53.5</ele><time>2026-04-19T13:34:09.001Z</time></trkpt><trkpt lat="45.11041283339225" lon="9.43518195137939"><ele>53.0</ele><time>2026-04-19T13:34:10.001Z</time></trkpt><trkpt lat="45.110442361080835" lon="9.435013554309112"><ele>53.0</ele><time>2026-04-19T13:34:11.001Z</time></trkpt><trkpt lat="45.11046157079358" lon="9.43483199447826"><ele>53.0</ele><time>2026-04-19T13:34:12.001Z</time></trkpt><trkpt lat="45.11049681665914" lon="9.434654647681425"><ele>53.0</ele><time>2026-04-19T13:34:13.001Z</time></trkpt><trkpt lat="45.110519167795694" lon="9.434477195355463"><ele>53.0</ele><time>2026-04-19T13:34:14.001Z</time></trkpt><trkpt lat="45.11054414277055" lon="9.43428648296351"><ele>53.0</ele><time>2026-04-19T13:34:15.001Z</time></trkpt><trkpt lat="45.110565063463824" lon="9.434101611957722"><ele>53.0</ele><time>2026-04-19T13:34:16.001Z</time></trkpt><trkpt lat="45.11058382703483" lon="9.43390969627234"><ele>53.0</ele><time>2026-04-19T13:34:17.001Z</time></trkpt><trkpt lat="45.110609016035205" lon="9.433719478407534"><ele>53.0</ele><time>2026-04-19T13:34:18.001Z</time></trkpt><trkpt lat="45.110644318216586" lon="9.43351117571653"><ele>53.0</ele><time>2026-04-19T13:34:19.001Z</time></trkpt><trkpt lat="45.11066996250452" lon="9.43329523318198"><ele>53.0</ele><time>2026-04-19T13:34:20.001Z</time></trkpt><trkpt lat="45.11067939938614" lon="9.433091518188196"><ele>53.0</ele><time>2026-04-19T13:34:21.001Z</time></trkpt><trkpt lat="45.11070007655902" lon="9.432890228532996"><ele>53.0</ele><time>2026-04-19T13:34:22.001Z</time></trkpt><trkpt lat="45.11072526947234" lon="9.43268688361378"><ele>52.75</ele><time>2026-04-19T13:34:23.001Z</time></trkpt><trkpt lat="45.11074824977692" lon="9.432491110501068"><ele>52.5</ele><time>2026-04-19T13:34:24.001Z</time></trkpt><trkpt lat="45.110764728234166" lon="9.432287729658436"><ele>52.25</ele><time>2026-04-19T13:34:25.001Z</time></trkpt><trkpt lat="45.110771963592896" lon="9.432073388968371"><ele>52.0</ele><time>2026-04-19T13:34:26.001Z</time></trkpt><trkpt lat="45.110797385507844" lon="9.43185972522862"><ele>51.666666666666664</ele><time>2026-04-19T13:34:27.001Z</time></trkpt><trkpt lat="45.11084662487951" lon="9.431642958878804"><ele>51.33333333333333</ele><time>2026-04-19T13:34:28.001Z</time></trkpt><trkpt lat="45.11085705866912" lon="9.431406580820953"><ele>51.0</ele><time>2026-04-19T13:34:29.001Z</time></trkpt><trkpt lat="45.1108807643899" lon="9.431168558986608"><ele>50.66666666666667</ele><time>2026-04-19T13:34:30.001Z</time></trkpt><trkpt lat="45.11089644922763" lon="9.430930935591535"><ele>50.333333333333336</ele><time>2026-04-19T13:34:31.001Z</time></trkpt><trkpt lat="45.11090492406776" lon="9.430691713358236"><ele>50.0</ele><time>2026-04-19T13:34:32.001Z</time></trkpt><trkpt lat="45.11092912760056" lon="9.43046256368895"><ele>49.66666666666667</ele><time>2026-04-19T13:34:33.001Z</time></trkpt><trkpt lat="45.110941762720024" lon="9.430236823494832"><ele>49.33333333333333</ele><time>2026-04-19T13:34:34.001Z</time></trkpt><trkpt lat="45.11095729100582" lon="9.430007538025755"><ele>49.0</ele><time>2026-04-19T13:34:35.001Z</time></trkpt><trkpt lat="45.110979639556355" lon="9.429790777367595"><ele>49.33333333333333</ele><time>2026-04-19T13:34:36.001Z</time></trkpt><trkpt lat="45.11101386294787" lon="9.42957066781007"><ele>49.66666666666667</ele><time>2026-04-19T13:34:37.001Z</time></trkpt><trkpt lat="45.111057189277254" lon="9.429370090867032"><ele>50.0</ele><time>2026-04-19T13:34:38.001Z</time></trkpt><trkpt lat="45.11110327652461" lon="9.429170404022683"><ele>50.0</ele><time>2026-04-19T13:34:39.001Z</time></trkpt><trkpt lat="45.11114016545783" lon="9.42896595612647"><ele>50.0</ele><time>2026-04-19T13:34:40.001Z</time></trkpt><trkpt lat="45.11116930388161" lon="9.428741857005555"><ele>50.0</ele><time>2026-04-19T13:34:41.001Z</time></trkpt><trkpt lat="45.11119495800077" lon="9.428514993449525"><ele>50.0</ele><time>2026-04-19T13:34:42.001Z</time></trkpt><trkpt lat="45.11121827196506" lon="9.428290211633353"><ele>50.0</ele><time>2026-04-19T13:34:43.001Z</time></trkpt><trkpt lat="45.1112403502532" lon="9.428077342365563"><ele>50.0</ele><time>2026-04-19T13:34:44.001Z</time></trkpt><trkpt lat="45.11125910217461" lon="9.427878171200517"><ele>50.25</ele><time>2026-04-19T13:34:45.001Z</time></trkpt><trkpt lat="45.111277774246766" lon="9.427681778601265"><ele>50.5</ele><time>2026-04-19T13:34:46.001Z</time></trkpt><trkpt lat="45.11129692927983" lon="9.427473488322223"><ele>50.75</ele><time>2026-04-19T13:34:47.001Z</time></trkpt><trkpt lat="45.111315052559135" lon="9.427260050271919"><ele>51.0</ele><time>2026-04-19T13:34:48.001Z</time></trkpt><trkpt lat="45.11133338624567" lon="9.427044134216311"><ele>51.0</ele><time>2026-04-19T13:34:49.001Z</time></trkpt><trkpt lat="45.111346552268884" lon="9.426818502450905"><ele>51.0</ele><time>2026-04-19T13:34:50.001Z</time></trkpt><trkpt lat="45.111401493586776" lon="9.426567903710987"><ele>51.0</ele><time>2026-04-19T13:34:51.001Z</time></trkpt><trkpt lat="45.11144342182913" lon="9.426351151192108"><ele>51.0</ele><time>2026-04-19T13:34:52.001Z</time></trkpt><trkpt lat="45.111492851156264" lon="9.42611508413633"><ele>51.0</ele><time>2026-04-19T13:34:53.001Z</time></trkpt><trkpt lat="45.11154248610088" lon="9.42588330581838"><ele>51.0</ele><time>2026-04-19T13:34:54.001Z</time></trkpt><trkpt lat="45.11160406740644" lon="9.425601753816466"><ele>50.66666666666667</ele><time>2026-04-19T13:34:55.001Z</time></trkpt><trkpt lat="45.11165680819076" lon="9.42536429438112"><ele>50.333333333333336</ele><time>2026-04-19T13:34:56.001Z</time></trkpt><trkpt lat="45.11170584876538" lon="9.425143631442817"><ele>50.0</ele><time>2026-04-19T13:34:57.001Z</time></trkpt><trkpt lat="45.11175257898099" lon="9.424928523922553"><ele>50.0</ele><time>2026-04-19T13:34:58.001Z</time></trkpt><trkpt lat="45.111781875627806" lon="9.4247119065317"><ele>50.0</ele><time>2026-04-19T13:34:59.001Z</time></trkpt><trkpt lat="45.11182739206818" lon="9.424493484194974"><ele>50.0</ele><time>2026-04-19T13:35:00.001Z</time></trkpt><trkpt lat="45.11188016445331" lon="9.424281945616498"><ele>50.0</ele><time>2026-04-19T13:35:01.001Z</time></trkpt><trkpt lat="45.11192240048322" lon="9.424051587258848"><ele>50.0</ele><time>2026-04-19T13:35:02.001Z</time></trkpt><trkpt lat="45.111960947344784" lon="9.423833173105347"><ele>50.0</ele><time>2026-04-19T13:35:03.001Z</time></trkpt><trkpt lat="45.112003306479465" lon="9.423622002365075"><ele>50.0</ele><time>2026-04-19T13:35:04.001Z</time></trkpt><trkpt lat="45.11204854899111" lon="9.423432638779815"><ele>50.0</ele><time>2026-04-19T13:35:05.001Z</time></trkpt><trkpt lat="45.112102939152635" lon="9.423239341017558"><ele>50.0</ele><time>2026-04-19T13:35:06.001Z</time></trkpt><trkpt lat="45.112162810037226" lon="9.423042544610574"><ele>50.0</ele><time>2026-04-19T13:35:07.001Z</time></trkpt><trkpt lat="45.11222468126611" lon="9.422861105558457"><ele>50.0</ele><time>2026-04-19T13:35:08.001Z</time></trkpt><trkpt lat="45.11229467943168" lon="9.422708691504035"><ele>50.0</ele><time>2026-04-19T13:35:09.001Z</time></trkpt><trkpt lat="45.112361313632405" lon="9.422592862845402"><ele>50.0</ele><time>2026-04-19T13:35:10.001Z</time></trkpt><trkpt lat="45.11242066527228" lon="9.422475473403047"><ele>50.0</ele><time>2026-04-19T13:35:11.001Z</time></trkpt><trkpt lat="45.112477308490526" lon="9.422358137003338"><ele>50.0</ele><time>2026-04-19T13:35:12.001Z</time></trkpt><trkpt lat="45.11250826740386" lon="9.4222265101361"><ele>50.25</ele><time>2026-04-19T13:35:13.001Z</time></trkpt><trkpt lat="45.11254164360634" lon="9.422065425700312"><ele>50.5</ele><time>2026-04-19T13:35:14.001Z</time></trkpt><trkpt lat="45.11255485608672" lon="9.421887487299523"><ele>50.75</ele><time>2026-04-19T13:35:15.001Z</time></trkpt><trkpt lat="45.112594684306195" lon="9.421711901664194"><ele>51.0</ele><time>2026-04-19T13:35:16.001Z</time></trkpt><trkpt lat="45.11262504914954" lon="9.421527138419227"><ele>51.0</ele><time>2026-04-19T13:35:17.001Z</time></trkpt><trkpt lat="45.11265512800042" lon="9.421379439846218"><ele>51.0</ele><time>2026-04-19T13:35:18.001Z</time></trkpt><trkpt lat="45.11268680341505" lon="9.421257968286417"><ele>51.0</ele><time>2026-04-19T13:35:19.001Z</time></trkpt><trkpt lat="45.11272316909354" lon="9.421152388330803"><ele>51.0</ele><time>2026-04-19T13:35:20.001Z</time></trkpt><trkpt lat="45.1127544013977" lon="9.421070013609722"><ele>51.0</ele><time>2026-04-19T13:35:21.001Z</time></trkpt><trkpt lat="45.1128225642026" lon="9.4209626496131"><ele>51.0</ele><time>2026-04-19T13:35:23.001Z</time></trkpt><trkpt lat="45.112923016187544" lon="9.420891277620463"><ele>51.0</ele><time>2026-04-19T13:35:25.002Z</time></trkpt><trkpt lat="45.11301011268279" lon="9.42081164856171"><ele>51.0</ele><time>2026-04-19T13:35:27.002Z</time></trkpt><trkpt lat="45.11311174345544" lon="9.420740301085063"><ele>51.0</ele><time>2026-04-19T13:35:29.002Z</time></trkpt><trkpt lat="45.113172737476994" lon="9.420691970814314"><ele>51.0</ele><time>2026-04-19T13:35:30.002Z</time></trkpt><trkpt lat="45.1132404043735" lon="9.420653201849053"><ele>51.0</ele><time>2026-04-19T13:35:31.002Z</time></trkpt><trkpt lat="45.11330897195257" lon="9.420600051848396"><ele>51.0</ele><time>2026-04-19T13:35:32.002Z</time></trkpt><trkpt lat="45.11336996123847" lon="9.420525854143396"><ele>51.0</ele><time>2026-04-19T13:35:33.002Z</time></trkpt><trkpt lat="45.113413451314" lon="9.420422008461228"><ele>51.0</ele><time>2026-04-19T13:35:34.002Z</time></trkpt><trkpt lat="45.113463817618104" lon="9.42035136003843"><ele>51.0</ele><time>2026-04-19T13:35:35.002Z</time></trkpt><trkpt lat="45.11351249366592" lon="9.42027442574136"><ele>51.0</ele><time>2026-04-19T13:35:36.002Z</time></trkpt><trkpt lat="45.11357656585136" lon="9.420226724565115"><ele>50.8</ele><time>2026-04-19T13:35:37.002Z</time></trkpt><trkpt lat="45.113643724839264" lon="9.420184559260296"><ele>50.599999999999994</ele><time>2026-04-19T13:35:38.002Z</time></trkpt><trkpt lat="45.11372880491502" lon="9.420151101629813"><ele>50.4</ele><time>2026-04-19T13:35:39.002Z</time></trkpt><trkpt lat="45.113832604223795" lon="9.42012092087388"><ele>50.2</ele><time>2026-04-19T13:35:40.002Z</time></trkpt><trkpt lat="45.113935368781675" lon="9.42007906057466"><ele>50.0</ele><time>2026-04-19T13:35:41.002Z</time></trkpt><trkpt lat="45.11403254793154" lon="9.420072860110023"><ele>50.00000000000001</ele><time>2026-04-19T13:35:42.002Z</time></trkpt><trkpt lat="45.114127520169234" lon="9.42006134715074"><ele>50.0</ele><time>2026-04-19T13:35:43.002Z</time></trkpt><trkpt lat="45.114205373908504" lon="9.420060499775122"><ele>50.0</ele><time>2026-04-19T13:35:44.002Z</time></trkpt><trkpt lat="45.11428427196587" lon="9.420046233791753"><ele>50.0</ele><time>2026-04-19T13:35:45.002Z</time></trkpt><trkpt lat="45.114361478569016" lon="9.420024976253666"><ele>50.00000000000001</ele><time>2026-04-19T13:35:46.002Z</time></trkpt><trkpt lat="45.114440818671824" lon="9.419959140847958"><ele>50.0</ele><time>2026-04-19T13:35:47.002Z</time></trkpt><trkpt lat="45.11450849722543" lon="9.419855498339357"><ele>50.0</ele><time>2026-04-19T13:35:48.002Z</time></trkpt><trkpt lat="45.114559109904086" lon="9.419699251397002"><ele>50.0</ele><time>2026-04-19T13:35:49.002Z</time></trkpt><trkpt lat="45.11461838458821" lon="9.41954842705178"><ele>50.0</ele><time>2026-04-19T13:35:50.002Z</time></trkpt><trkpt lat="45.114679523006195" lon="9.419378225502014"><ele>50.0</ele><time>2026-04-19T13:35:51.002Z</time></trkpt><trkpt lat="45.114757169641116" lon="9.419198828331368"><ele>50.0</ele><time>2026-04-19T13:35:52.002Z</time></trkpt><trkpt lat="45.114839134562466" lon="9.419026954559547"><ele>50.0</ele><time>2026-04-19T13:35:53.002Z</time></trkpt><trkpt lat="45.114905774660315" lon="9.418849093952417"><ele>50.0</ele><time>2026-04-19T13:35:54.002Z</time></trkpt><trkpt lat="45.11498151225512" lon="9.418676984981166"><ele>50.0</ele><time>2026-04-19T13:35:55.002Z</time></trkpt><trkpt lat="45.115050251806174" lon="9.418504698229048"><ele>50.0</ele><time>2026-04-19T13:35:56.002Z</time></trkpt><trkpt lat="45.115126262228586" lon="9.418316030554216"><ele>50.0</ele><time>2026-04-19T13:35:57.002Z</time></trkpt><trkpt lat="45.115191049110685" lon="9.418129215060052"><ele>50.0</ele><time>2026-04-19T13:35:58.001Z</time></trkpt><trkpt lat="45.115254166229846" lon="9.41794231251189"><ele>50.0</ele><time>2026-04-19T13:35:59.001Z</time></trkpt><trkpt lat="45.11531313868699" lon="9.4177522345097"><ele>50.0</ele><time>2026-04-19T13:36:00.001Z</time></trkpt><trkpt lat="45.11539017578509" lon="9.417576210759794"><ele>50.0</ele><time>2026-04-19T13:36:01.001Z</time></trkpt><trkpt lat="45.11543936380717" lon="9.417397272871183"><ele>50.0</ele><time>2026-04-19T13:36:02.001Z</time></trkpt><trkpt lat="45.115499934712396" lon="9.417224044627474"><ele>50.0</ele><time>2026-04-19T13:36:03.001Z</time></trkpt><trkpt lat="45.1155591368309" lon="9.41706382407643"><ele>50.0</ele><time>2026-04-19T13:36:04.001Z</time></trkpt><trkpt lat="45.115609899025706" lon="9.416916712247735"><ele>50.0</ele><time>2026-04-19T13:36:05.001Z</time></trkpt><trkpt lat="45.115660729769246" lon="9.41678680948058"><ele>50.0</ele><time>2026-04-19T13:36:06.001Z</time></trkpt><trkpt lat="45.11569721530255" lon="9.416686866892869"><ele>50.0</ele><time>2026-04-19T13:36:07.001Z</time></trkpt><trkpt lat="45.115728095243796" lon="9.416576812837771"><ele>50.0</ele><time>2026-04-19T13:36:08.001Z</time></trkpt><trkpt lat="45.11579654380313" lon="9.416473761326174"><ele>50.5</ele><time>2026-04-19T13:36:09.001Z</time></trkpt><trkpt lat="45.11586844369161" lon="9.416335776271639"><ele>51.0</ele><time>2026-04-19T13:36:10.001Z</time></trkpt><trkpt lat="45.11592874682107" lon="9.416181350276155"><ele>51.5</ele><time>2026-04-19T13:36:11.001Z</time></trkpt><trkpt lat="45.11600455376861" lon="9.416040666327943"><ele>52.0</ele><time>2026-04-19T13:36:12.001Z</time></trkpt><trkpt lat="45.116076612522065" lon="9.415899087908992"><ele>52.0</ele><time>2026-04-19T13:36:13.001Z</time></trkpt><trkpt lat="45.11614578903139" lon="9.415771482086411"><ele>52.0</ele><time>2026-04-19T13:36:14.001Z</time></trkpt><trkpt lat="45.11621391274137" lon="9.415639999059294"><ele>52.0</ele><time>2026-04-19T13:36:15.001Z</time></trkpt><trkpt lat="45.116278551212254" lon="9.415510167022484"><ele>52.0</ele><time>2026-04-19T13:36:16.001Z</time></trkpt><trkpt lat="45.116342805848056" lon="9.415383784346156"><ele>52.0</ele><time>2026-04-19T13:36:17.001Z</time></trkpt><trkpt lat="45.11638679520174" lon="9.415255350830359"><ele>52.0</ele><time>2026-04-19T13:36:18.001Z</time></trkpt><trkpt lat="45.11643960118022" lon="9.41512468970598"><ele>52.0</ele><time>2026-04-19T13:36:19.001Z</time></trkpt><trkpt lat="45.116489518997184" lon="9.415003008546249"><ele>52.0</ele><time>2026-04-19T13:36:20.001Z</time></trkpt><trkpt lat="45.11653223791064" lon="9.41488898615434"><ele>52.0</ele><time>2026-04-19T13:36:21.001Z</time></trkpt><trkpt lat="45.1165805261917" lon="9.414766807044744"><ele>51.99999999999999</ele><time>2026-04-19T13:36:22.001Z</time></trkpt><trkpt lat="45.11662036479367" lon="9.414662702174631"><ele>52.0</ele><time>2026-04-19T13:36:23.001Z</time></trkpt><trkpt lat="45.11666184794727" lon="9.414561827762068"><ele>52.0</ele><time>2026-04-19T13:36:24.001Z</time></trkpt><trkpt lat="45.116697144596635" lon="9.414481107774895"><ele>52.0</ele><time>2026-04-19T13:36:25.001Z</time></trkpt><trkpt lat="45.11676206319315" lon="9.414360255356618"><ele>51.99999999999999</ele><time>2026-04-19T13:36:27.001Z</time></trkpt><trkpt lat="45.116794135367954" lon="9.414233380651378"><ele>52.0</ele><time>2026-04-19T13:36:29.001Z</time></trkpt><trkpt lat="45.11684373212681" lon="9.414171959576803"><ele>52.2</ele><time>2026-04-19T13:36:30.001Z</time></trkpt><trkpt lat="45.1169567912019" lon="9.414172126051355"><ele>52.400000000000006</ele><time>2026-04-19T13:36:31.001Z</time></trkpt><trkpt lat="45.11704971525887" lon="9.414189436506181"><ele>52.599999999999994</ele><time>2026-04-19T13:36:32.001Z</time></trkpt><trkpt lat="45.11714863294422" lon="9.414207863858916"><ele>52.8</ele><time>2026-04-19T13:36:33.001Z</time></trkpt><trkpt lat="45.11724424736534" lon="9.414225675853523"><ele>53.0</ele><time>2026-04-19T13:36:34.001Z</time></trkpt><trkpt lat="45.11731420113439" lon="9.41439055491444"><ele>53.0</ele><time>2026-04-19T13:36:35.001Z</time></trkpt><trkpt lat="45.117400694364996" lon="9.414409311004379"><ele>53.0</ele><time>2026-04-19T13:36:36.001Z</time></trkpt><trkpt lat="45.11748208898468" lon="9.414428702450518"><ele>53.0</ele><time>2026-04-19T13:36:37.001Z</time></trkpt><trkpt lat="45.1175923344992" lon="9.414406859723412"><ele>53.0</ele><time>2026-04-19T13:36:39.001Z</time></trkpt><trkpt lat="45.11764482878853" lon="9.41429999299266"><ele>53.0</ele><time>2026-04-19T13:36:41.001Z</time></trkpt><trkpt lat="45.11765539097434" lon="9.414129528846304"><ele>53.0</ele><time>2026-04-19T13:36:43.001Z</time></trkpt><trkpt lat="45.117664000943144" lon="9.414027192875645"><ele>53.0</ele><time>2026-04-19T13:36:44.001Z</time></trkpt><trkpt lat="45.11768505244941" lon="9.413869458287568"><ele>53.0</ele><time>2026-04-19T13:36:46.001Z</time></trkpt><trkpt lat="45.1177221322369" lon="9.41374630510489"><ele>53.0</ele><time>2026-04-19T13:36:48.001Z</time></trkpt><trkpt lat="45.117812172622266" lon="9.413720315218903"><ele>53.0</ele><time>2026-04-19T13:36:50.001Z</time></trkpt><trkpt lat="45.117885449802465" lon="9.413772178827005"><ele>53.00000000000001</ele><time>2026-04-19T13:36:52.001Z</time></trkpt><trkpt lat="45.11795095110496" lon="9.41383259672888"><ele>53.0</ele><time>2026-04-19T13:36:54.001Z</time></trkpt><trkpt lat="45.11807574118086" lon="9.413920433133946"><ele>53.0</ele><time>2026-04-19T13:36:56.001Z</time></trkpt><trkpt lat="45.11813874511512" lon="9.41396892447373"><ele>53.0</ele><time>2026-04-19T13:36:57.001Z</time></trkpt><trkpt lat="45.11821544622855" lon="9.414021547767225"><ele>53.00000000000001</ele><time>2026-04-19T13:36:58.001Z</time></trkpt><trkpt lat="45.11828205009031" lon="9.41404749146769"><ele>53.0</ele><time>2026-04-19T13:36:59.001Z</time></trkpt><trkpt lat="45.118401822555924" lon="9.414017660516222"><ele>52.833333333333336</ele><time>2026-04-19T13:37:01.001Z</time></trkpt><trkpt lat="45.118467017875886" lon="9.41397836902468"><ele>52.66666666666667</ele><time>2026-04-19T13:37:02.001Z</time></trkpt><trkpt lat="45.118523678120816" lon="9.413823104743626"><ele>52.5</ele><time>2026-04-19T13:37:04.001Z</time></trkpt><trkpt lat="45.118553436251354" lon="9.4137325593601"><ele>52.33333333333333</ele><time>2026-04-19T13:37:05.001Z</time></trkpt><trkpt lat="45.118588759675305" lon="9.413651668308251"><ele>52.166666666666664</ele><time>2026-04-19T13:37:06.001Z</time></trkpt><trkpt lat="45.11864111997761" lon="9.413557706709051"><ele>52.0</ele><time>2026-04-19T13:37:07.001Z</time></trkpt><trkpt lat="45.11870100579693" lon="9.413437838487647"><ele>51.6</ele><time>2026-04-19T13:37:08.001Z</time></trkpt><trkpt lat="45.118749057364425" lon="9.413315427174256"><ele>51.2</ele><time>2026-04-19T13:37:09.001Z</time></trkpt><trkpt lat="45.1187919724553" lon="9.413185126349157"><ele>50.8</ele><time>2026-04-19T13:37:10.001Z</time></trkpt><trkpt lat="45.11882868608747" lon="9.413040861716564"><ele>50.4</ele><time>2026-04-19T13:37:11.001Z</time></trkpt><trkpt lat="45.118858091852104" lon="9.412923493990581"><ele>50.0</ele><time>2026-04-19T13:37:12.001Z</time></trkpt><trkpt lat="45.11891117531603" lon="9.412811879011773"><ele>50.0</ele><time>2026-04-19T13:37:13.001Z</time></trkpt><trkpt lat="45.11896887887548" lon="9.412697800009902"><ele>50.0</ele><time>2026-04-19T13:37:14.001Z</time></trkpt><trkpt lat="45.11902038090314" lon="9.412609089637582"><ele>50.0</ele><time>2026-04-19T13:37:15.001Z</time></trkpt><trkpt lat="45.11907896075745" lon="9.412513722750818"><ele>50.0</ele><time>2026-04-19T13:37:16.001Z</time></trkpt><trkpt lat="45.119150814109105" lon="9.412406552945768"><ele>50.0</ele><time>2026-04-19T13:37:17.001Z</time></trkpt><trkpt lat="45.119220830862915" lon="9.412298339863128"><ele>50.00000000000001</ele><time>2026-04-19T13:37:18.001Z</time></trkpt><trkpt lat="45.11929343595379" lon="9.41217585272981"><ele>50.0</ele><time>2026-04-19T13:37:19.001Z</time></trkpt><trkpt lat="45.11934519200833" lon="9.412074329507666"><ele>50.0</ele><time>2026-04-19T13:37:20.001Z</time></trkpt><trkpt lat="45.11938836094276" lon="9.411984686657666"><ele>50.0</ele><time>2026-04-19T13:37:21.001Z</time></trkpt><trkpt lat="45.11943397705025" lon="9.411890794728535"><ele>50.00000000000001</ele><time>2026-04-19T13:37:22.001Z</time></trkpt><trkpt lat="45.11946954417037" lon="9.411780189728573"><ele>50.0</ele><time>2026-04-19T13:37:23.001Z</time></trkpt><trkpt lat="45.119494258604874" lon="9.411644850779936"><ele>50.0</ele><time>2026-04-19T13:37:24.001Z</time></trkpt><trkpt lat="45.11951560747405" lon="9.411492046136457"><ele>50.0</ele><time>2026-04-19T13:37:25.001Z</time></trkpt><trkpt lat="45.11952072457444" lon="9.411356302025226"><ele>50.0</ele><time>2026-04-19T13:37:26.001Z</time></trkpt><trkpt lat="45.11951850479574" lon="9.411202064772835"><ele>50.0</ele><time>2026-04-19T13:37:27.001Z</time></trkpt><trkpt lat="45.119511473558724" lon="9.41104053319657"><ele>50.0</ele><time>2026-04-19T13:37:28.001Z</time></trkpt><trkpt lat="45.119503116063626" lon="9.410899656373422"><ele>50.0</ele><time>2026-04-19T13:37:29.001Z</time></trkpt><trkpt lat="45.11949946181301" lon="9.410758176405304"><ele>50.0</ele><time>2026-04-19T13:37:30.001Z</time></trkpt><trkpt lat="45.11950697985786" lon="9.410623822421755"><ele>50.0</ele><time>2026-04-19T13:37:31.001Z</time></trkpt><trkpt lat="45.11951768812439" lon="9.410485360000262"><ele>50.0</ele><time>2026-04-19T13:37:32.001Z</time></trkpt><trkpt lat="45.1195425819822" lon="9.410330883145152"><ele>50.0</ele><time>2026-04-19T13:37:33.001Z</time></trkpt><trkpt lat="45.119574341608185" lon="9.41018726308177"><ele>50.2</ele><time>2026-04-19T13:37:34.001Z</time></trkpt><trkpt lat="45.11960872809014" lon="9.410062635681381"><ele>50.4</ele><time>2026-04-19T13:37:35.001Z</time></trkpt><trkpt lat="45.11964816778233" lon="9.409940023598192"><ele>50.599999999999994</ele><time>2026-04-19T13:37:36.001Z</time></trkpt><trkpt lat="45.11968699635768" lon="9.409816854724797"><ele>50.8</ele><time>2026-04-19T13:37:37.001Z</time></trkpt><trkpt lat="45.11973546994758" lon="9.409705366146515"><ele>51.0</ele><time>2026-04-19T13:37:38.001Z</time></trkpt><trkpt lat="45.11976756571343" lon="9.409579995205387"><ele>51.166666666666664</ele><time>2026-04-19T13:37:39.001Z</time></trkpt><trkpt lat="45.11978415275583" lon="9.40942632356853"><ele>51.33333333333333</ele><time>2026-04-19T13:37:40.001Z</time></trkpt><trkpt lat="45.11978420850959" lon="9.409297546134002"><ele>51.5</ele><time>2026-04-19T13:37:41.001Z</time></trkpt><trkpt lat="45.11978970058397" lon="9.409183407506866"><ele>51.666666666666664</ele><time>2026-04-19T13:37:42.001Z</time></trkpt><trkpt lat="45.11979555541488" lon="9.409092525123285"><ele>51.83333333333333</ele><time>2026-04-19T13:37:43.001Z</time></trkpt><trkpt lat="45.11979386429668" lon="9.408986373107938"><ele>52.0</ele><time>2026-04-19T13:37:45.001Z</time></trkpt><trkpt lat="45.11971541086544" lon="9.408946357521394"><ele>51.99999999999999</ele><time>2026-04-19T13:37:46.001Z</time></trkpt><trkpt lat="45.119694843431446" lon="9.408857074202357"><ele>52.0</ele><time>2026-04-19T13:37:48.001Z</time></trkpt><trkpt lat="45.11969347965825" lon="9.408726812612642"><ele>52.0</ele><time>2026-04-19T13:37:50.001Z</time></trkpt><trkpt lat="45.119710934934325" lon="9.408630423891212"><ele>52.0</ele><time>2026-04-19T13:37:51.001Z</time></trkpt><trkpt lat="45.119724505361" lon="9.408476476620445"><ele>51.99999999999999</ele><time>2026-04-19T13:37:52.001Z</time></trkpt><trkpt lat="45.119726421758656" lon="9.408324035572054"><ele>52.0</ele><time>2026-04-19T13:37:53.001Z</time></trkpt><trkpt lat="45.11972816541437" lon="9.408157317204322"><ele>52.25</ele><time>2026-04-19T13:37:54.001Z</time></trkpt><trkpt lat="45.11974874337238" lon="9.407982383440588"><ele>52.5</ele><time>2026-04-19T13:37:55.001Z</time></trkpt><trkpt lat="45.119756534407166" lon="9.407809847192015"><ele>52.75</ele><time>2026-04-19T13:37:56.001Z</time></trkpt><trkpt lat="45.119748421745186" lon="9.407631727058897"><ele>53.0</ele><time>2026-04-19T13:37:57.001Z</time></trkpt><trkpt lat="45.119754668753856" lon="9.407466894012785"><ele>53.0</ele><time>2026-04-19T13:37:58.002Z</time></trkpt><trkpt lat="45.11975965794043" lon="9.407298809507672"><ele>53.0</ele><time>2026-04-19T13:37:59.002Z</time></trkpt><trkpt lat="45.11974912474224" lon="9.40713868162463"><ele>53.0</ele><time>2026-04-19T13:38:00.002Z</time></trkpt><trkpt lat="45.11975214723278" lon="9.406998234853589"><ele>53.0</ele><time>2026-04-19T13:38:01.002Z</time></trkpt><trkpt lat="45.11974591447754" lon="9.406863559142435"><ele>53.0</ele><time>2026-04-19T13:38:02.002Z</time></trkpt><trkpt lat="45.11974449969582" lon="9.406746042319263"><ele>52.833333333333336</ele><time>2026-04-19T13:38:03.002Z</time></trkpt><trkpt lat="45.11974358762414" lon="9.406632426319126"><ele>52.66666666666667</ele><time>2026-04-19T13:38:04.001Z</time></trkpt><trkpt lat="45.11973909631731" lon="9.406530634321264"><ele>52.5</ele><time>2026-04-19T13:38:05.001Z</time></trkpt><trkpt lat="45.119723474137714" lon="9.40642237284094"><ele>52.33333333333333</ele><time>2026-04-19T13:38:06.001Z</time></trkpt><trkpt lat="45.11971061233794" lon="9.406319124364959"><ele>52.166666666666664</ele><time>2026-04-19T13:38:07.001Z</time></trkpt><trkpt lat="45.1196149249411" lon="9.40625771881861"><ele>52.0</ele><time>2026-04-19T13:38:08.001Z</time></trkpt><trkpt lat="45.1195181574142" lon="9.406245663342615"><ele>51.75</ele><time>2026-04-19T13:38:09.001Z</time></trkpt><trkpt lat="45.11939337927521" lon="9.406224368921738"><ele>51.5</ele><time>2026-04-19T13:38:10.001Z</time></trkpt><trkpt lat="45.11924748177802" lon="9.406202261630488"><ele>51.25</ele><time>2026-04-19T13:38:11.001Z</time></trkpt><trkpt lat="45.11909683670367" lon="9.406176811059584"><ele>51.0</ele><time>2026-04-19T13:38:12.001Z</time></trkpt><trkpt lat="45.11891709567699" lon="9.40613667156959"><ele>51.0</ele><time>2026-04-19T13:38:13.001Z</time></trkpt><trkpt lat="45.118736105935966" lon="9.406072985768876"><ele>51.0</ele><time>2026-04-19T13:38:14.001Z</time></trkpt><trkpt lat="45.11852596023829" lon="9.406016057371302"><ele>51.0</ele><time>2026-04-19T13:38:15.001Z</time></trkpt><trkpt lat="45.11831018116372" lon="9.405955622229772"><ele>51.0</ele><time>2026-04-19T13:38:16.001Z</time></trkpt><trkpt lat="45.118086346273905" lon="9.405900104557698"><ele>51.0</ele><time>2026-04-19T13:38:17.001Z</time></trkpt><trkpt lat="45.11785252949655" lon="9.405842301740504"><ele>51.0</ele><time>2026-04-19T13:38:18.001Z</time></trkpt><trkpt lat="45.11760830484438" lon="9.405781926067199"><ele>51.0</ele><time>2026-04-19T13:38:19.001Z</time></trkpt><trkpt lat="45.1173911325335" lon="9.405751053612864"><ele>51.33333333333333</ele><time>2026-04-19T13:38:20.001Z</time></trkpt><trkpt lat="45.117203533606734" lon="9.405671186303234"><ele>51.666666666666664</ele><time>2026-04-19T13:38:21.001Z</time></trkpt><trkpt lat="45.11703086887278" lon="9.405610492255326"><ele>52.0</ele><time>2026-04-19T13:38:22.001Z</time></trkpt><trkpt lat="45.11687053629692" lon="9.405572703341912"><ele>52.0</ele><time>2026-04-19T13:38:23.001Z</time></trkpt><trkpt lat="45.1167330234044" lon="9.405547213545066"><ele>52.0</ele><time>2026-04-19T13:38:24.001Z</time></trkpt><trkpt lat="45.11659856824735" lon="9.405516758337695"><ele>52.0</ele><time>2026-04-19T13:38:25.001Z</time></trkpt><trkpt lat="45.11647295360094" lon="9.405480033341828"><ele>52.0</ele><time>2026-04-19T13:38:26.001Z</time></trkpt><trkpt lat="45.11635724312255" lon="9.405444693923556"><ele>52.166666666666664</ele><time>2026-04-19T13:38:27.001Z</time></trkpt><trkpt lat="45.11623414859692" lon="9.405423285143108"><ele>52.33333333333333</ele><time>2026-04-19T13:38:28.001Z</time></trkpt><trkpt lat="45.11614454452056" lon="9.40538326705552"><ele>52.5</ele><time>2026-04-19T13:38:29.001Z</time></trkpt><trkpt lat="45.116063388017395" lon="9.405379875515438"><ele>52.66666666666667</ele><time>2026-04-19T13:38:30Z</time></trkpt><trkpt lat="45.11599123839031" lon="9.405364268754878"><ele>52.833333333333336</ele><time>2026-04-19T13:38:31Z</time></trkpt><trkpt lat="45.115934147076196" lon="9.405325729750395"><ele>53.0</ele><time>2026-04-19T13:38:32Z</time></trkpt><trkpt lat="45.11581041762864" lon="9.40530008361967"><ele>53.0</ele><time>2026-04-19T13:38:34Z</time></trkpt><trkpt lat="45.1157358859844" lon="9.405275937142845"><ele>53.0</ele><time>2026-04-19T13:38:36Z</time></trkpt><trkpt lat="45.115787399949895" lon="9.405068084485585"><ele>53.0</ele><time>2026-04-19T13:38:37Z</time></trkpt><trkpt lat="45.11580704560852" lon="9.404935636775058"><ele>53.0</ele><time>2026-04-19T13:38:38Z</time></trkpt><trkpt lat="45.11583569594471" lon="9.404753396861674"><ele>52.66666666666667</ele><time>2026-04-19T13:38:39.001Z</time></trkpt><trkpt lat="45.115849611437795" lon="9.404549242024228"><ele>52.33333333333333</ele><time>2026-04-19T13:38:40.001Z</time></trkpt><trkpt lat="45.11588642831634" lon="9.404324300079228"><ele>52.0</ele><time>2026-04-19T13:38:41.001Z</time></trkpt><trkpt lat="45.115923640971815" lon="9.404071747677072"><ele>52.33333333333333</ele><time>2026-04-19T13:38:42.001Z</time></trkpt><trkpt lat="45.11595979157086" lon="9.403815064933807"><ele>52.66666666666667</ele><time>2026-04-19T13:38:43.001Z</time></trkpt><trkpt lat="45.1159943802228" lon="9.403556908603683"><ele>53.0</ele><time>2026-04-19T13:38:44.001Z</time></trkpt><trkpt lat="45.11602028318824" lon="9.403314461278653"><ele>53.0</ele><time>2026-04-19T13:38:45.001Z</time></trkpt><trkpt lat="45.11605719303694" lon="9.403075959733803"><ele>53.0</ele><time>2026-04-19T13:38:46.001Z</time></trkpt><trkpt lat="45.116086645396045" lon="9.402857807882521"><ele>53.0</ele><time>2026-04-19T13:38:47.001Z</time></trkpt><trkpt lat="45.11612382293917" lon="9.402652672543434"><ele>53.0</ele><time>2026-04-19T13:38:48.001Z</time></trkpt><trkpt lat="45.11614916348417" lon="9.402469759224026"><ele>53.0</ele><time>2026-04-19T13:38:49.001Z</time></trkpt><trkpt lat="45.11617580130477" lon="9.402277482272535"><ele>53.0</ele><time>2026-04-19T13:38:50.001Z</time></trkpt><trkpt lat="45.11619471196615" lon="9.402078825958641"><ele>53.0</ele><time>2026-04-19T13:38:51.001Z</time></trkpt><trkpt lat="45.11618152775343" lon="9.401855155226313"><ele>53.0</ele><time>2026-04-19T13:38:52.001Z</time></trkpt><trkpt lat="45.11618449256235" lon="9.401616139995555"><ele>53.0</ele><time>2026-04-19T13:38:53.001Z</time></trkpt><trkpt lat="45.11622817276065" lon="9.401379521290735"><ele>53.0</ele><time>2026-04-19T13:38:54.001Z</time></trkpt><trkpt lat="45.11625986499939" lon="9.401134556624031"><ele>53.0</ele><time>2026-04-19T13:38:55.001Z</time></trkpt><trkpt lat="45.116275022198025" lon="9.400872506885221"><ele>53.0</ele><time>2026-04-19T13:38:56.001Z</time></trkpt><trkpt lat="45.116289533394166" lon="9.40065493468438"><ele>53.0</ele><time>2026-04-19T13:38:57.001Z</time></trkpt><trkpt lat="45.11630543678025" lon="9.400442023967022"><ele>53.0</ele><time>2026-04-19T13:38:58.001Z</time></trkpt><trkpt lat="45.11633806962814" lon="9.400224418559175"><ele>53.0</ele><time>2026-04-19T13:38:59.001Z</time></trkpt><trkpt lat="45.116352984541095" lon="9.399997770884509"><ele>53.0</ele><time>2026-04-19T13:39:00.001Z</time></trkpt><trkpt lat="45.11636292573883" lon="9.399787106956191"><ele>53.0</ele><time>2026-04-19T13:39:01.001Z</time></trkpt><trkpt lat="45.11636902385367" lon="9.39960191433312"><ele>53.0</ele><time>2026-04-19T13:39:02.001Z</time></trkpt><trkpt lat="45.11637507545303" lon="9.399417168102282"><ele>53.0</ele><time>2026-04-19T13:39:03.001Z</time></trkpt><trkpt lat="45.11638458169181" lon="9.399230224427386"><ele>53.0</ele><time>2026-04-19T13:39:04.001Z</time></trkpt><trkpt lat="45.11640140529253" lon="9.399040987512887"><ele>53.0</ele><time>2026-04-19T13:39:05.001Z</time></trkpt><trkpt lat="45.116424473021155" lon="9.39886688356146"><ele>53.0</ele><time>2026-04-19T13:39:06.001Z</time></trkpt><trkpt lat="45.11646281361612" lon="9.398683445336736"><ele>53.0</ele><time>2026-04-19T13:39:07.001Z</time></trkpt><trkpt lat="45.11650169736176" lon="9.398505697984831"><ele>53.0</ele><time>2026-04-19T13:39:08.001Z</time></trkpt><trkpt lat="45.116536883888585" lon="9.39834297579769"><ele>52.8</ele><time>2026-04-19T13:39:09.001Z</time></trkpt><trkpt lat="45.116569553167494" lon="9.398188383123594"><ele>52.599999999999994</ele><time>2026-04-19T13:39:10.001Z</time></trkpt><trkpt lat="45.116596117859096" lon="9.398061482158385"><ele>52.400000000000006</ele><time>2026-04-19T13:39:11.001Z</time></trkpt><trkpt lat="45.11662266933091" lon="9.397934062374885"><ele>52.2</ele><time>2026-04-19T13:39:12.001Z</time></trkpt><trkpt lat="45.116644519501435" lon="9.397825003777767"><ele>52.0</ele><time>2026-04-19T13:39:13.001Z</time></trkpt><trkpt lat="45.11666225957523" lon="9.397729912568781"><ele>52.33333333333333</ele><time>2026-04-19T13:39:14.001Z</time></trkpt><trkpt lat="45.116663599890295" lon="9.397636088893446"><ele>52.666666666666664</ele><time>2026-04-19T13:39:15.001Z</time></trkpt><trkpt lat="45.11669556242782" lon="9.397514527350015"><ele>53.0</ele><time>2026-04-19T13:39:17.001Z</time></trkpt><trkpt lat="45.11673703451093" lon="9.397441959652365"><ele>53.33333333333333</ele><time>2026-04-19T13:39:20.001Z</time></trkpt><trkpt lat="45.1168223867734" lon="9.397477563585424"><ele>53.666666666666664</ele><time>2026-04-19T13:39:24.001Z</time></trkpt><trkpt lat="45.116917647572684" lon="9.397536892423865"><ele>54.0</ele><time>2026-04-19T13:39:26.001Z</time></trkpt><trkpt lat="45.11701286853855" lon="9.39757198923937"><ele>54.0</ele><time>2026-04-19T13:39:27.001Z</time></trkpt><trkpt lat="45.117102275710444" lon="9.397620792317106"><ele>54.00000000000001</ele><time>2026-04-19T13:39:28.001Z</time></trkpt><trkpt lat="45.117201099002266" lon="9.397662881255775"><ele>54.00000000000001</ele><time>2026-04-19T13:39:29.001Z</time></trkpt><trkpt lat="45.11731103453851" lon="9.397717890029378"><ele>54.0</ele><time>2026-04-19T13:39:30.001Z</time></trkpt><trkpt lat="45.11742559499988" lon="9.39777139908229"><ele>54.0</ele><time>2026-04-19T13:39:31.001Z</time></trkpt><trkpt lat="45.11754867643778" lon="9.397835333391361"><ele>54.0</ele><time>2026-04-19T13:39:32.001Z</time></trkpt><trkpt lat="45.117681885155044" lon="9.397884228291913"><ele>54.0</ele><time>2026-04-19T13:39:33.001Z</time></trkpt><trkpt lat="45.11781364238459" lon="9.39796074001346"><ele>54.0</ele><time>2026-04-19T13:39:34.001Z</time></trkpt><trkpt lat="45.11794687782819" lon="9.39801839138235"><ele>54.0</ele><time>2026-04-19T13:39:35.001Z</time></trkpt><trkpt lat="45.118085625441886" lon="9.39807416542591"><ele>54.0</ele><time>2026-04-19T13:39:36.001Z</time></trkpt><trkpt lat="45.11820899204717" lon="9.398132977772756"><ele>54.0</ele><time>2026-04-19T13:39:37.001Z</time></trkpt><trkpt lat="45.11832981882555" lon="9.398195320801088"><ele>54.0</ele><time>2026-04-19T13:39:38.001Z</time></trkpt><trkpt lat="45.11845094994627" lon="9.398255292274442"><ele>54.0</ele><time>2026-04-19T13:39:39.001Z</time></trkpt><trkpt lat="45.118572075854885" lon="9.398320433255169"><ele>54.0</ele><time>2026-04-19T13:39:40.001Z</time></trkpt><trkpt lat="45.118698340661744" lon="9.39838073001343"><ele>54.0</ele><time>2026-04-19T13:39:41.001Z</time></trkpt><trkpt lat="45.11882685756488" lon="9.398447897810408"><ele>54.0</ele><time>2026-04-19T13:39:42.001Z</time></trkpt><trkpt lat="45.11894523736218" lon="9.398501976200093"><ele>54.0</ele><time>2026-04-19T13:39:43.001Z</time></trkpt><trkpt lat="45.119056418896605" lon="9.39855207451449"><ele>54.0</ele><time>2026-04-19T13:39:44.001Z</time></trkpt><trkpt lat="45.1191610868176" lon="9.398606989226106"><ele>54.00000000000001</ele><time>2026-04-19T13:39:45.001Z</time></trkpt><trkpt lat="45.11924947272597" lon="9.398657066562885"><ele>54.00000000000001</ele><time>2026-04-19T13:39:46.001Z</time></trkpt><trkpt lat="45.11931950492479" lon="9.3987018004347"><ele>54.0</ele><time>2026-04-19T13:39:47.001Z</time></trkpt><trkpt lat="45.11937861666466" lon="9.398733488111993"><ele>54.0</ele><time>2026-04-19T13:39:48.001Z</time></trkpt><trkpt lat="45.11949772721109" lon="9.398761181806863"><ele>54.0</ele><time>2026-04-19T13:39:50.001Z</time></trkpt><trkpt lat="45.11954012670752" lon="9.398637543534639"><ele>54.00000000000001</ele><time>2026-04-19T13:39:51.001Z</time></trkpt><trkpt lat="45.11957216736778" lon="9.398513287174715"><ele>54.00000000000001</ele><time>2026-04-19T13:39:52.001Z</time></trkpt><trkpt lat="45.1196109649469" lon="9.398354960972107"><ele>54.0</ele><time>2026-04-19T13:39:53.001Z</time></trkpt><trkpt lat="45.119661416452836" lon="9.398178882571331"><ele>54.0</ele><time>2026-04-19T13:39:54.001Z</time></trkpt><trkpt lat="45.119713025267856" lon="9.39798913546074"><ele>54.0</ele><time>2026-04-19T13:39:55.001Z</time></trkpt><trkpt lat="45.11977439808754" lon="9.397790575372287"><ele>54.0</ele><time>2026-04-19T13:39:56.001Z</time></trkpt><trkpt lat="45.11984225686297" lon="9.397582187551768"><ele>54.0</ele><time>2026-04-19T13:39:57.001Z</time></trkpt><trkpt lat="45.11988612010304" lon="9.39735983006976"><ele>53.75</ele><time>2026-04-19T13:39:58.001Z</time></trkpt><trkpt lat="45.11994953270234" lon="9.39715971192062"><ele>53.5</ele><time>2026-04-19T13:39:59.001Z</time></trkpt><trkpt lat="45.12001512462904" lon="9.396959594072024"><ele>53.25</ele><time>2026-04-19T13:40:00.001Z</time></trkpt><trkpt lat="45.12007951021043" lon="9.39679142861517"><ele>53.0</ele><time>2026-04-19T13:40:01.001Z</time></trkpt><trkpt lat="45.12013891559953" lon="9.396664170438386"><ele>53.0</ele><time>2026-04-19T13:40:02.001Z</time></trkpt><trkpt lat="45.12022532809268" lon="9.3965715984892"><ele>53.0</ele><time>2026-04-19T13:40:03.001Z</time></trkpt><trkpt lat="45.12032259758649" lon="9.396467818573187"><ele>53.0</ele><time>2026-04-19T13:40:04.001Z</time></trkpt><trkpt lat="45.120424938148" lon="9.396368211850028"><ele>53.0</ele><time>2026-04-19T13:40:05.001Z</time></trkpt><trkpt lat="45.12051135360705" lon="9.396264650106202"><ele>53.0</ele><time>2026-04-19T13:40:06.001Z</time></trkpt><trkpt lat="45.12060897159483" lon="9.396167731479144"><ele>53.0</ele><time>2026-04-19T13:40:07.001Z</time></trkpt><trkpt lat="45.120703308169354" lon="9.396056613021518"><ele>53.0</ele><time>2026-04-19T13:40:08.001Z</time></trkpt><trkpt lat="45.120808504668055" lon="9.39593295009303"><ele>53.0</ele><time>2026-04-19T13:40:09.001Z</time></trkpt><trkpt lat="45.12089098974275" lon="9.39574335315758"><ele>52.66666666666667</ele><time>2026-04-19T13:40:10Z</time></trkpt><trkpt lat="45.120996195310546" lon="9.395575474169874"><ele>52.33333333333333</ele><time>2026-04-19T13:40:11Z</time></trkpt><trkpt lat="45.12107679673671" lon="9.395386848806625"><ele>52.0</ele><time>2026-04-19T13:40:12Z</time></trkpt><trkpt lat="45.121190950590254" lon="9.395218982337422"><ele>52.0</ele><time>2026-04-19T13:40:13Z</time></trkpt><trkpt lat="45.12127266614756" lon="9.395006553562402"><ele>52.0</ele><time>2026-04-19T13:40:14Z</time></trkpt><trkpt lat="45.121341130156246" lon="9.39480638477036"><ele>52.0</ele><time>2026-04-19T13:40:15Z</time></trkpt><trkpt lat="45.121404050551156" lon="9.39458697370164"><ele>52.0</ele><time>2026-04-19T13:40:16Z</time></trkpt><trkpt lat="45.12147071990873" lon="9.394411149520003"><ele>52.0</ele><time>2026-04-19T13:40:17Z</time></trkpt><trkpt lat="45.121523004821384" lon="9.394234592013333"><ele>52.0</ele><time>2026-04-19T13:40:18Z</time></trkpt><trkpt lat="45.12157660580107" lon="9.394061130506762"><ele>52.0</ele><time>2026-04-19T13:40:19Z</time></trkpt><trkpt lat="45.121626079800805" lon="9.393900730879881"><ele>52.0</ele><time>2026-04-19T13:40:20Z</time></trkpt><trkpt lat="45.12166747966423" lon="9.393774301430431"><ele>52.0</ele><time>2026-04-19T13:40:21Z</time></trkpt><trkpt lat="45.121713917174574" lon="9.393678157040124"><ele>52.0</ele><time>2026-04-19T13:40:22Z</time></trkpt><trkpt lat="45.121772566926964" lon="9.39359636773016"><ele>52.0</ele><time>2026-04-19T13:40:23Z</time></trkpt><trkpt lat="45.12183923538003" lon="9.393523235292086"><ele>52.0</ele><time>2026-04-19T13:40:24Z</time></trkpt><trkpt lat="45.121943541416506" lon="9.393428019164904"><ele>52.0</ele><time>2026-04-19T13:40:25Z</time></trkpt><trkpt lat="45.122071357467796" lon="9.393298853121802"><ele>52.0</ele><time>2026-04-19T13:40:26Z</time></trkpt><trkpt lat="45.12218127634006" lon="9.393168749401147"><ele>52.0</ele><time>2026-04-19T13:40:27Z</time></trkpt><trkpt lat="45.122284898500695" lon="9.393049712638776"><ele>52.0</ele><time>2026-04-19T13:40:28Z</time></trkpt><trkpt lat="45.122372767428665" lon="9.392949510022568"><ele>52.0</ele><time>2026-04-19T13:40:29Z</time></trkpt><trkpt lat="45.122449942937266" lon="9.392861501781228"><ele>52.0</ele><time>2026-04-19T13:40:30Z</time></trkpt><trkpt lat="45.122530720972776" lon="9.392769385337594"><ele>52.0</ele><time>2026-04-19T13:40:31Z</time></trkpt><trkpt lat="45.1226100036505" lon="9.392678974148863"><ele>52.0</ele><time>2026-04-19T13:40:32Z</time></trkpt><trkpt lat="45.12268341833016" lon="9.392595254620534"><ele>52.0</ele><time>2026-04-19T13:40:33Z</time></trkpt><trkpt lat="45.12274639278391" lon="9.392538577336154"><ele>52.0</ele><time>2026-04-19T13:40:34Z</time></trkpt><trkpt lat="45.12280882164406" lon="9.392477777009203"><ele>52.0</ele><time>2026-04-19T13:40:35Z</time></trkpt><trkpt lat="45.12288662856054" lon="9.392482018390318"><ele>52.0</ele><time>2026-04-19T13:40:36Z</time></trkpt><trkpt lat="45.12298601969502" lon="9.39253144006118"><ele>52.0</ele><time>2026-04-19T13:40:37Z</time></trkpt><trkpt lat="45.123100506414566" lon="9.392567806010788"><ele>52.0</ele><time>2026-04-19T13:40:38Z</time></trkpt><trkpt lat="45.12320756422448" lon="9.392591988210812"><ele>52.33333333333333</ele><time>2026-04-19T13:40:39Z</time></trkpt><trkpt lat="45.12330664868607" lon="9.392617318131949"><ele>52.666666666666664</ele><time>2026-04-19T13:40:40Z</time></trkpt><trkpt lat="45.123396886313664" lon="9.392633524945564"><ele>53.0</ele><time>2026-04-19T13:40:41Z</time></trkpt><trkpt lat="45.12348676520915" lon="9.39265939237458"><ele>53.33333333333333</ele><time>2026-04-19T13:40:42Z</time></trkpt><trkpt lat="45.1235581261245" lon="9.392696995181396"><ele>53.666666666666664</ele><time>2026-04-19T13:40:43Z</time></trkpt><trkpt lat="45.12362198548372" lon="9.392741688202353"><ele>54.0</ele><time>2026-04-19T13:40:44Z</time></trkpt><trkpt lat="45.123735789144746" lon="9.392770885155423"><ele>54.0</ele><time>2026-04-19T13:40:46Z</time></trkpt><trkpt lat="45.12385119123968" lon="9.392643285462093"><ele>54.0</ele><time>2026-04-19T13:40:48Z</time></trkpt><trkpt lat="45.123858428974785" lon="9.392485099786924"><ele>54.0</ele><time>2026-04-19T13:40:49Z</time></trkpt><trkpt lat="45.1238804768498" lon="9.392342215179639"><ele>54.0</ele><time>2026-04-19T13:40:50Z</time></trkpt><trkpt lat="45.1239161540193" lon="9.392172933674024"><ele>53.75</ele><time>2026-04-19T13:40:51Z</time></trkpt><trkpt lat="45.12394498974498" lon="9.392003340808282"><ele>53.5</ele><time>2026-04-19T13:40:52Z</time></trkpt><trkpt lat="45.12400095994479" lon="9.391828157801658"><ele>53.25</ele><time>2026-04-19T13:40:53Z</time></trkpt><trkpt lat="45.12406975741344" lon="9.391644913847928"><ele>53.0</ele><time>2026-04-19T13:40:54Z</time></trkpt><trkpt lat="45.124142993995235" lon="9.391445880685154"><ele>53.0</ele><time>2026-04-19T13:40:55Z</time></trkpt><trkpt lat="45.12421037366884" lon="9.391244586542339"><ele>53.0</ele><time>2026-04-19T13:40:56Z</time></trkpt><trkpt lat="45.12427417108379" lon="9.391035214715917"><ele>53.0</ele><time>2026-04-19T13:40:57Z</time></trkpt><trkpt lat="45.12434035935751" lon="9.390795379145137"><ele>53.0</ele><time>2026-04-19T13:40:58Z</time></trkpt><trkpt lat="45.12440126031259" lon="9.390557644332098"><ele>53.0</ele><time>2026-04-19T13:40:59Z</time></trkpt><trkpt lat="45.124456880677016" lon="9.39033661697089"><ele>53.0</ele><time>2026-04-19T13:41:00Z</time></trkpt><trkpt lat="45.12451724907224" lon="9.390121148544003"><ele>53.0</ele><time>2026-04-19T13:41:01Z</time></trkpt><trkpt lat="45.12457749858381" lon="9.38991082632417"><ele>53.0</ele><time>2026-04-19T13:41:02Z</time></trkpt><trkpt lat="45.12462861428015" lon="9.38967984169068"><ele>53.0</ele><time>2026-04-19T13:41:03Z</time></trkpt><trkpt lat="45.12465931572088" lon="9.389445492824219"><ele>53.0</ele><time>2026-04-19T13:41:04Z</time></trkpt><trkpt lat="45.12468458599565" lon="9.389214684330884"><ele>53.0</ele><time>2026-04-19T13:41:05Z</time></trkpt><trkpt lat="45.124707868259804" lon="9.389026880583366"><ele>53.0</ele><time>2026-04-19T13:41:06Z</time></trkpt><trkpt lat="45.124736140266286" lon="9.388811793512907"><ele>53.0</ele><time>2026-04-19T13:41:07Z</time></trkpt><trkpt lat="45.12476112541836" lon="9.388621712004666"><ele>53.0</ele><time>2026-04-19T13:41:08Z</time></trkpt><trkpt lat="45.124783660213325" lon="9.388450272314707"><ele>53.0</ele><time>2026-04-19T13:41:09Z</time></trkpt><trkpt lat="45.12480467412661" lon="9.388290403156715"><ele>53.0</ele><time>2026-04-19T13:41:10Z</time></trkpt><trkpt lat="45.12482430087806" lon="9.388142503140555"><ele>53.2</ele><time>2026-04-19T13:41:11Z</time></trkpt><trkpt lat="45.12484647082726" lon="9.38798349567848"><ele>53.4</ele><time>2026-04-19T13:41:12Z</time></trkpt><trkpt lat="45.124851495241785" lon="9.387831890950206"><ele>53.60000000000001</ele><time>2026-04-19T13:41:13Z</time></trkpt><trkpt lat="45.12488315255063" lon="9.387689641360822"><ele>53.800000000000004</ele><time>2026-04-19T13:41:14Z</time></trkpt><trkpt lat="45.12492196638795" lon="9.387569666268735"><ele>54.0</ele><time>2026-04-19T13:41:15Z</time></trkpt><trkpt lat="45.12497571947908" lon="9.38746797917833"><ele>54.0</ele><time>2026-04-19T13:41:16Z</time></trkpt><trkpt lat="45.12505402149923" lon="9.387381829718167"><ele>54.0</ele><time>2026-04-19T13:41:17Z</time></trkpt><trkpt lat="45.12515862661313" lon="9.387302092317746"><ele>54.0</ele><time>2026-04-19T13:41:18Z</time></trkpt><trkpt lat="45.12527981838298" lon="9.387211810478723"><ele>54.0</ele><time>2026-04-19T13:41:19Z</time></trkpt><trkpt lat="45.12541739004977" lon="9.387109994485419"><ele>53.66666666666667</ele><time>2026-04-19T13:41:20Z</time></trkpt><trkpt lat="45.12555696995577" lon="9.386997326974862"><ele>53.333333333333336</ele><time>2026-04-19T13:41:21Z</time></trkpt><trkpt lat="45.12570519271115" lon="9.386880311091526"><ele>53.0</ele><time>2026-04-19T13:41:22Z</time></trkpt><trkpt lat="45.125852848578276" lon="9.386772039662436"><ele>53.0</ele><time>2026-04-19T13:41:23Z</time></trkpt><trkpt lat="45.125995375049186" lon="9.38667173608506"><ele>53.0</ele><time>2026-04-19T13:41:24Z</time></trkpt><trkpt lat="45.12613927399452" lon="9.386564408326883"><ele>53.0</ele><time>2026-04-19T13:41:25Z</time></trkpt><trkpt lat="45.12626854501826" lon="9.386465425410588"><ele>53.0</ele><time>2026-04-19T13:41:26Z</time></trkpt><trkpt lat="45.12638643528061" lon="9.386377444449016"><ele>53.0</ele><time>2026-04-19T13:41:27Z</time></trkpt><trkpt lat="45.12652103660837" lon="9.386297650093603"><ele>53.0</ele><time>2026-04-19T13:41:28Z</time></trkpt><trkpt lat="45.12667302911876" lon="9.386274076765977"><ele>53.0</ele><time>2026-04-19T13:41:29Z</time></trkpt><trkpt lat="45.12683160100435" lon="9.386241016873539"><ele>53.66666666666667</ele><time>2026-04-19T13:41:30Z</time></trkpt><trkpt lat="45.12697290209263" lon="9.38622070005102"><ele>54.33333333333333</ele><time>2026-04-19T13:41:31Z</time></trkpt><trkpt lat="45.12716447116706" lon="9.386190894326795"><ele>55.0</ele><time>2026-04-19T13:41:32Z</time></trkpt><trkpt lat="45.127333375476404" lon="9.386182748555973"><ele>54.666666666666664</ele><time>2026-04-19T13:41:33Z</time></trkpt><trkpt lat="45.127518721696575" lon="9.38615876396189"><ele>54.33333333333333</ele><time>2026-04-19T13:41:34Z</time></trkpt><trkpt lat="45.1277096287733" lon="9.38612616104717"><ele>54.0</ele><time>2026-04-19T13:41:35.001Z</time></trkpt><trkpt lat="45.12788700561279" lon="9.386080612605701"><ele>54.0</ele><time>2026-04-19T13:41:36.001Z</time></trkpt><trkpt lat="45.12805795860542" lon="9.386030182169979"><ele>54.0</ele><time>2026-04-19T13:41:37.001Z</time></trkpt><trkpt lat="45.12821918917614" lon="9.385969183057124"><ele>54.0</ele><time>2026-04-19T13:41:38.001Z</time></trkpt><trkpt lat="45.1283873171082" lon="9.38594070330395"><ele>54.33333333333333</ele><time>2026-04-19T13:41:39.001Z</time></trkpt><trkpt lat="45.128561234356916" lon="9.385902133659023"><ele>54.666666666666664</ele><time>2026-04-19T13:41:40.001Z</time></trkpt><trkpt lat="45.128720842483006" lon="9.385865649981202"><ele>55.0</ele><time>2026-04-19T13:41:41.001Z</time></trkpt><trkpt lat="45.128870904933954" lon="9.385816887198876"><ele>55.0</ele><time>2026-04-19T13:41:42.001Z</time></trkpt><trkpt lat="45.12900237983769" lon="9.385802027746632"><ele>55.0</ele><time>2026-04-19T13:41:43.001Z</time></trkpt><trkpt lat="45.129140794376426" lon="9.385793832850133"><ele>55.0</ele><time>2026-04-19T13:41:44.001Z</time></trkpt><trkpt lat="45.12928354969764" lon="9.385791416164931"><ele>55.0</ele><time>2026-04-19T13:41:45.001Z</time></trkpt><trkpt lat="45.129423384120486" lon="9.385776272622792"><ele>55.0</ele><time>2026-04-19T13:41:46.001Z</time></trkpt><trkpt lat="45.12956260081342" lon="9.385745207265627"><ele>55.0</ele><time>2026-04-19T13:41:47.001Z</time></trkpt><trkpt lat="45.129704527345496" lon="9.385677350776877"><ele>55.0</ele><time>2026-04-19T13:41:48.001Z</time></trkpt><trkpt lat="45.129856680793964" lon="9.385591572775565"><ele>54.666666666666664</ele><time>2026-04-19T13:41:49.001Z</time></trkpt><trkpt lat="45.13002025948139" lon="9.38546943443727"><ele>54.33333333333333</ele><time>2026-04-19T13:41:50.001Z</time></trkpt><trkpt lat="45.130183317476494" lon="9.385336978829715"><ele>54.0</ele><time>2026-04-19T13:41:51.001Z</time></trkpt><trkpt lat="45.130352649753014" lon="9.385204052526062"><ele>54.0</ele><time>2026-04-19T13:41:52.001Z</time></trkpt><trkpt lat="45.13052255692636" lon="9.385071538193936"><ele>54.0</ele><time>2026-04-19T13:41:53.001Z</time></trkpt><trkpt lat="45.13069876520454" lon="9.384936066762625"><ele>54.0</ele><time>2026-04-19T13:41:54.001Z</time></trkpt><trkpt lat="45.13084767198501" lon="9.384820355083734"><ele>54.25</ele><time>2026-04-19T13:41:55.001Z</time></trkpt><trkpt lat="45.13097564751851" lon="9.384721214855345"><ele>54.5</ele><time>2026-04-19T13:41:56.001Z</time></trkpt><trkpt lat="45.13108879272358" lon="9.384631945614094"><ele>54.75</ele><time>2026-04-19T13:41:57.001Z</time></trkpt><trkpt lat="45.13118825686265" lon="9.384557029087983"><ele>55.0</ele><time>2026-04-19T13:41:58.001Z</time></trkpt><trkpt lat="45.131277106051904" lon="9.384485107372942"><ele>54.666666666666664</ele><time>2026-04-19T13:41:59.001Z</time></trkpt><trkpt lat="45.131359286547095" lon="9.384416599897833"><ele>54.33333333333333</ele><time>2026-04-19T13:42:00.001Z</time></trkpt><trkpt lat="45.13142172089579" lon="9.384363171962542"><ele>54.0</ele><time>2026-04-19T13:42:01.001Z</time></trkpt><trkpt lat="45.13148187699268" lon="9.384315579129627"><ele>53.66666666666667</ele><time>2026-04-19T13:42:02.001Z</time></trkpt><trkpt lat="45.13157372883844" lon="9.384222549707438"><ele>53.333333333333336</ele><time>2026-04-19T13:42:04.001Z</time></trkpt><trkpt lat="45.13165020007412" lon="9.384153513918331"><ele>53.0</ele><time>2026-04-19T13:42:06.001Z</time></trkpt><trkpt lat="45.131745477504154" lon="9.384103749923199"><ele>53.0</ele><time>2026-04-19T13:42:08.001Z</time></trkpt><trkpt lat="45.13184612406501" lon="9.384256807219204"><ele>53.0</ele><time>2026-04-19T13:42:11.001Z</time></trkpt><trkpt lat="45.13188302113844" lon="9.384372131124168"><ele>53.0</ele><time>2026-04-19T13:42:12.001Z</time></trkpt><trkpt lat="45.131931474399636" lon="9.384510915121531"><ele>53.0</ele><time>2026-04-19T13:42:13.001Z</time></trkpt><trkpt lat="45.13198634701312" lon="9.384655711584447"><ele>53.2</ele><time>2026-04-19T13:42:14.001Z</time></trkpt><trkpt lat="45.13204192934794" lon="9.384802405307234"><ele>53.4</ele><time>2026-04-19T13:42:15.001Z</time></trkpt><trkpt lat="45.13209540017436" lon="9.384939793260306"><ele>53.60000000000001</ele><time>2026-04-19T13:42:15.999Z</time></trkpt><trkpt lat="45.13213871097094" lon="9.385050892599743"><ele>53.800000000000004</ele><time>2026-04-19T13:42:16.999Z</time></trkpt><trkpt lat="45.13217772069698" lon="9.3851418157035"><ele>54.0</ele><time>2026-04-19T13:42:17.999Z</time></trkpt><trkpt lat="45.132215566518454" lon="9.385235022205578"><ele>54.0</ele><time>2026-04-19T13:42:18.999Z</time></trkpt><trkpt lat="45.1322608328439" lon="9.385347981296894"><ele>54.00000000000001</ele><time>2026-04-19T13:42:19.999Z</time></trkpt><trkpt lat="45.132310642008875" lon="9.385474164452194"><ele>54.00000000000001</ele><time>2026-04-19T13:42:20.999Z</time></trkpt><trkpt lat="45.13235654208856" lon="9.385619681340737"><ele>54.0</ele><time>2026-04-19T13:42:21.999Z</time></trkpt><trkpt lat="45.13241817702218" lon="9.385751566291528"><ele>54.0</ele><time>2026-04-19T13:42:22.999Z</time></trkpt><trkpt lat="45.132481008544225" lon="9.385891720835614"><ele>54.0</ele><time>2026-04-19T13:42:23.999Z</time></trkpt><trkpt lat="45.132544049307654" lon="9.386040097179617"><ele>54.00000000000001</ele><time>2026-04-19T13:42:24.999Z</time></trkpt><trkpt lat="45.132609158564975" lon="9.386185166749176"><ele>54.00000000000001</ele><time>2026-04-19T13:42:25.999Z</time></trkpt><trkpt lat="45.13266225746641" lon="9.386311237100326"><ele>54.0</ele><time>2026-04-19T13:42:26.999Z</time></trkpt><trkpt lat="45.13270394480302" lon="9.386425921025179"><ele>54.0</ele><time>2026-04-19T13:42:27.999Z</time></trkpt><trkpt lat="45.132748846978686" lon="9.38654225684989"><ele>54.0</ele><time>2026-04-19T13:42:28.999Z</time></trkpt><trkpt lat="45.13278936372814" lon="9.38664701272574"><ele>54.0</ele><time>2026-04-19T13:42:29.999Z</time></trkpt><trkpt lat="45.132816234028674" lon="9.386730839936046"><ele>54.0</ele><time>2026-04-19T13:42:30.999Z</time></trkpt><trkpt lat="45.132851565197114" lon="9.38685885740055"><ele>54.0</ele><time>2026-04-19T13:42:32.999Z</time></trkpt><trkpt lat="45.13288670104996" lon="9.38693852478084"><ele>54.0</ele><time>2026-04-19T13:42:39.999Z</time></trkpt><trkpt lat="45.13285496008916" lon="9.386830468698177"><ele>54.0</ele><time>2026-04-19T13:43:06Z</time></trkpt><trkpt lat="45.13280551258022" lon="9.386709352600723"><ele>54.0</ele><time>2026-04-19T13:43:08Z</time></trkpt><trkpt lat="45.13275538749249" lon="9.3865486642609"><ele>54.0</ele><time>2026-04-19T13:43:10Z</time></trkpt><trkpt lat="45.132726057912905" lon="9.3864604826128"><ele>54.0</ele><time>2026-04-19T13:43:11Z</time></trkpt><trkpt lat="45.13269404256749" lon="9.386376049285461"><ele>54.0</ele><time>2026-04-19T13:43:12Z</time></trkpt><trkpt lat="45.132660085137545" lon="9.386296947039265"><ele>54.0</ele><time>2026-04-19T13:43:13Z</time></trkpt><trkpt lat="45.132625154057834" lon="9.386217159504023"><ele>54.0</ele><time>2026-04-19T13:43:14Z</time></trkpt><trkpt lat="45.132583266194786" lon="9.386127802015215"><ele>54.0</ele><time>2026-04-19T13:43:15Z</time></trkpt><trkpt lat="45.132537946518944" lon="9.386029729780224"><ele>54.0</ele><time>2026-04-19T13:43:16Z</time></trkpt><trkpt lat="45.132495048868726" lon="9.38593466518267"><ele>54.0</ele><time>2026-04-19T13:43:17Z</time></trkpt><trkpt lat="45.1324547006387" lon="9.385844313882798"><ele>54.0</ele><time>2026-04-19T13:43:18Z</time></trkpt><trkpt lat="45.132417783061186" lon="9.385761005670442"><ele>54.0</ele><time>2026-04-19T13:43:19Z</time></trkpt><trkpt lat="45.132382077582456" lon="9.385686593083866"><ele>54.0</ele><time>2026-04-19T13:43:20Z</time></trkpt><trkpt lat="45.13234046042271" lon="9.385578542441618"><ele>53.75</ele><time>2026-04-19T13:43:22Z</time></trkpt><trkpt lat="45.132494761300244" lon="9.38540093432794"><ele>53.5</ele><time>2026-04-19T13:43:26Z</time></trkpt><trkpt lat="45.13256895178609" lon="9.385370539769271"><ele>53.25</ele><time>2026-04-19T13:43:27Z</time></trkpt><trkpt lat="45.132659145022814" lon="9.385322242872236"><ele>53.0</ele><time>2026-04-19T13:43:28Z</time></trkpt><trkpt lat="45.132764672108024" lon="9.385268997060463"><ele>53.0</ele><time>2026-04-19T13:43:29Z</time></trkpt><trkpt lat="45.13286758710791" lon="9.385218945858735"><ele>53.0</ele><time>2026-04-19T13:43:30Z</time></trkpt><trkpt lat="45.132975167935" lon="9.385163670224314"><ele>53.0</ele><time>2026-04-19T13:43:31Z</time></trkpt><trkpt lat="45.13309437551447" lon="9.385100392909417"><ele>53.0</ele><time>2026-04-19T13:43:32Z</time></trkpt><trkpt lat="45.133208641181604" lon="9.385041982556979"><ele>53.4</ele><time>2026-04-19T13:43:33Z</time></trkpt><trkpt lat="45.13333059882572" lon="9.384985853065304"><ele>53.8</ele><time>2026-04-19T13:43:34Z</time></trkpt><trkpt lat="45.133435928455896" lon="9.384935306838113"><ele>54.2</ele><time>2026-04-19T13:43:35Z</time></trkpt><trkpt lat="45.133529582814816" lon="9.384890786981899"><ele>54.6</ele><time>2026-04-19T13:43:36Z</time></trkpt><trkpt lat="45.13360276387102" lon="9.384851565365347"><ele>55.0</ele><time>2026-04-19T13:43:37Z</time></trkpt><trkpt lat="45.133701112185065" lon="9.38479904278846"><ele>55.0</ele><time>2026-04-19T13:43:39Z</time></trkpt><trkpt lat="45.13377257299675" lon="9.384771528246954"><ele>55.0</ele><time>2026-04-19T13:43:41Z</time></trkpt><trkpt lat="45.13379586783654" lon="9.384679923869681"><ele>55.0</ele><time>2026-04-19T13:43:44Z</time></trkpt><trkpt lat="45.13376533212492" lon="9.384542170304275"><ele>55.0</ele><time>2026-04-19T13:43:46Z</time></trkpt><trkpt lat="45.13373065218662" lon="9.384345616166554"><ele>55.0</ele><time>2026-04-19T13:43:48Z</time></trkpt><trkpt lat="45.13370759763997" lon="9.384215632200018"><ele>54.8</ele><time>2026-04-19T13:43:49Z</time></trkpt><trkpt lat="45.13368678722275" lon="9.384087737055928"><ele>54.6</ele><time>2026-04-19T13:43:50Z</time></trkpt><trkpt lat="45.133666001651235" lon="9.383942613606289"><ele>54.400000000000006</ele><time>2026-04-19T13:43:51Z</time></trkpt><trkpt lat="45.133641417669374" lon="9.383792536901801"><ele>54.2</ele><time>2026-04-19T13:43:52Z</time></trkpt><trkpt lat="45.133615176078244" lon="9.38364736147783"><ele>54.0</ele><time>2026-04-19T13:43:53Z</time></trkpt><trkpt lat="45.1335893759261" lon="9.383490694412496"><ele>53.75</ele><time>2026-04-19T13:43:54Z</time></trkpt><trkpt lat="45.13356147806148" lon="9.383331213071433"><ele>53.5</ele><time>2026-04-19T13:43:55Z</time></trkpt><trkpt lat="45.13354273545571" lon="9.383163502383955"><ele>53.25</ele><time>2026-04-19T13:43:56Z</time></trkpt><trkpt lat="45.13352916245556" lon="9.382988962278894"><ele>53.0</ele><time>2026-04-19T13:43:57Z</time></trkpt><trkpt lat="45.13352476486695" lon="9.382809060720678"><ele>53.0</ele><time>2026-04-19T13:43:58Z</time></trkpt><trkpt lat="45.133522148111474" lon="9.382638613812023"><ele>53.0</ele><time>2026-04-19T13:43:59Z</time></trkpt><trkpt lat="45.133517009834506" lon="9.38246869021458"><ele>53.0</ele><time>2026-04-19T13:44:00Z</time></trkpt><trkpt lat="45.133507147964394" lon="9.382310689124242"><ele>53.0</ele><time>2026-04-19T13:44:01Z</time></trkpt><trkpt lat="45.13349364804006" lon="9.382166507896132"><ele>53.333333333333336</ele><time>2026-04-19T13:44:02Z</time></trkpt><trkpt lat="45.13348120195232" lon="9.382041132116305"><ele>53.66666666666667</ele><time>2026-04-19T13:44:03Z</time></trkpt><trkpt lat="45.133470045285115" lon="9.38193546421797"><ele>54.0</ele><time>2026-04-19T13:44:04Z</time></trkpt><trkpt lat="45.13345714067318" lon="9.381841879416323"><ele>54.33333333333333</ele><time>2026-04-19T13:44:05Z</time></trkpt><trkpt lat="45.13344099205182" lon="9.381693841259622"><ele>54.666666666666664</ele><time>2026-04-19T13:44:07Z</time></trkpt><trkpt lat="45.13348574889114" lon="9.381592181594419"><ele>55.0</ele><time>2026-04-19T13:44:09Z</time></trkpt><trkpt lat="45.13356332437735" lon="9.381566369274358"><ele>55.0</ele><time>2026-04-19T13:44:11.001Z</time></trkpt><trkpt lat="45.133656147909775" lon="9.381622687819634"><ele>55.0</ele><time>2026-04-19T13:44:13.001Z</time></trkpt><trkpt lat="45.13372639088231" lon="9.381656599571656"><ele>55.0</ele><time>2026-04-19T13:44:14.001Z</time></trkpt><trkpt lat="45.13380948711153" lon="9.381692539922035"><ele>55.0</ele><time>2026-04-19T13:44:15.001Z</time></trkpt><trkpt lat="45.13388741625561" lon="9.381726171174748"><ele>55.0</ele><time>2026-04-19T13:44:16.001Z</time></trkpt><trkpt lat="45.1339741802619" lon="9.381637090742164"><ele>55.4</ele><time>2026-04-19T13:44:17.001Z</time></trkpt><trkpt lat="45.134128076524135" lon="9.381687912602736"><ele>55.8</ele><time>2026-04-19T13:44:19.001Z</time></trkpt><trkpt lat="45.13419520627624" lon="9.381707150983997"><ele>56.2</ele><time>2026-04-19T13:44:20.001Z</time></trkpt><trkpt lat="45.134309429497165" lon="9.381727100573986"><ele>56.6</ele><time>2026-04-19T13:44:21.999Z</time></trkpt><trkpt lat="45.13439725596662" lon="9.38172903677561"><ele>57.0</ele><time>2026-04-19T13:44:23.999Z</time></trkpt><trkpt lat="45.13446242700956" lon="9.38185690747439"><ele>57.0</ele><time>2026-04-19T13:44:24.999Z</time></trkpt><trkpt lat="45.13452784484961" lon="9.381881914598226"><ele>57.0</ele><time>2026-04-19T13:44:25.999Z</time></trkpt><trkpt lat="45.13459676188672" lon="9.3819295634168"><ele>57.0</ele><time>2026-04-19T13:44:26.999Z</time></trkpt><trkpt lat="45.1346852367292" lon="9.381986452967782"><ele>57.0</ele><time>2026-04-19T13:44:27.999Z</time></trkpt><trkpt lat="45.13476384754128" lon="9.382071008248495"><ele>57.0</ele><time>2026-04-19T13:44:28.999Z</time></trkpt><trkpt lat="45.13485554746533" lon="9.38217579784192"><ele>56.75</ele><time>2026-04-19T13:44:29.999Z</time></trkpt><trkpt lat="45.13494820598957" lon="9.38231337960256"><ele>56.5</ele><time>2026-04-19T13:44:30.999Z</time></trkpt><trkpt lat="45.13504347224412" lon="9.382468404059809"><ele>56.25</ele><time>2026-04-19T13:44:31.999Z</time></trkpt><trkpt lat="45.13513286050966" lon="9.382624741739775"><ele>56.0</ele><time>2026-04-19T13:44:33Z</time></trkpt><trkpt lat="45.13521099929848" lon="9.382757809866083"><ele>56.0</ele><time>2026-04-19T13:44:34Z</time></trkpt><trkpt lat="45.135285463735485" lon="9.382872201640293"><ele>55.99999999999999</ele><time>2026-04-19T13:44:35Z</time></trkpt><trkpt lat="45.135352572836865" lon="9.382976145218304"><ele>55.99999999999999</ele><time>2026-04-19T13:44:36Z</time></trkpt><trkpt lat="45.13541257987776" lon="9.383084010088256"><ele>56.0</ele><time>2026-04-19T13:44:37Z</time></trkpt><trkpt lat="45.135466726303456" lon="9.383206261448299"><ele>56.0</ele><time>2026-04-19T13:44:38Z</time></trkpt><trkpt lat="45.13550732241572" lon="9.383344642667543"><ele>55.75</ele><time>2026-04-19T13:44:39Z</time></trkpt><trkpt lat="45.13554164869351" lon="9.383484237435265"><ele>55.5</ele><time>2026-04-19T13:44:40Z</time></trkpt><trkpt lat="45.135577215440755" lon="9.38363206750601"><ele>55.25</ele><time>2026-04-19T13:44:41Z</time></trkpt><trkpt lat="45.1356177898611" lon="9.383790238383584"><ele>55.0</ele><time>2026-04-19T13:44:42Z</time></trkpt><trkpt lat="45.135661037251445" lon="9.38394816199048"><ele>55.0</ele><time>2026-04-19T13:44:43Z</time></trkpt><trkpt lat="45.13575241507897" lon="9.384058074625791"><ele>55.0</ele><time>2026-04-19T13:44:44Z</time></trkpt><trkpt lat="45.13574394312781" lon="9.384284141674552"><ele>55.0</ele><time>2026-04-19T13:44:45Z</time></trkpt><trkpt lat="45.13578443635291" lon="9.384485359392118"><ele>55.0</ele><time>2026-04-19T13:44:46Z</time></trkpt><trkpt lat="45.135824944675136" lon="9.38469675739185"><ele>55.0</ele><time>2026-04-19T13:44:47Z</time></trkpt><trkpt lat="45.13586395797256" lon="9.384897726732087"><ele>55.0</ele><time>2026-04-19T13:44:48Z</time></trkpt><trkpt lat="45.135895818059055" lon="9.385107922049324"><ele>55.0</ele><time>2026-04-19T13:44:49Z</time></trkpt><trkpt lat="45.13592947742075" lon="9.385313495905873"><ele>55.0</ele><time>2026-04-19T13:44:50Z</time></trkpt><trkpt lat="45.13596337257166" lon="9.385503553906746"><ele>55.0</ele><time>2026-04-19T13:44:51Z</time></trkpt><trkpt lat="45.13599365137988" lon="9.385684269913016"><ele>55.0</ele><time>2026-04-19T13:44:52Z</time></trkpt><trkpt lat="45.136026543695756" lon="9.385857727550844"><ele>55.0</ele><time>2026-04-19T13:44:53Z</time></trkpt><trkpt lat="45.13607619074372" lon="9.386017850580128"><ele>55.0</ele><time>2026-04-19T13:44:54Z</time></trkpt><trkpt lat="45.13614959107563" lon="9.386167029728401"><ele>55.0</ele><time>2026-04-19T13:44:55Z</time></trkpt><trkpt lat="45.13623206829372" lon="9.386305352238448"><ele>55.0</ele><time>2026-04-19T13:44:56Z</time></trkpt><trkpt lat="45.13630196375426" lon="9.386427174692043"><ele>55.0</ele><time>2026-04-19T13:44:57Z</time></trkpt><trkpt lat="45.136355078652905" lon="9.386540382060854"><ele>55.0</ele><time>2026-04-19T13:44:58Z</time></trkpt><trkpt lat="45.13639720506802" lon="9.386664295294594"><ele>55.0</ele><time>2026-04-19T13:44:59Z</time></trkpt><trkpt lat="45.1364278660228" lon="9.386805448158373"><ele>54.75</ele><time>2026-04-19T13:45:00Z</time></trkpt><trkpt lat="45.13643353909199" lon="9.386954821670805"><ele>54.5</ele><time>2026-04-19T13:45:01Z</time></trkpt><trkpt lat="45.136427581322025" lon="9.387141084130631"><ele>54.25</ele><time>2026-04-19T13:45:02Z</time></trkpt><trkpt lat="45.136421386654234" lon="9.387338893389655"><ele>54.0</ele><time>2026-04-19T13:45:03Z</time></trkpt><trkpt lat="45.136416955430384" lon="9.38748538125593"><ele>54.0</ele><time>2026-04-19T13:45:04Z</time></trkpt><trkpt lat="45.13641773775913" lon="9.387663421867593"><ele>54.00000000000001</ele><time>2026-04-19T13:45:05Z</time></trkpt><trkpt lat="45.13640487587818" lon="9.387813075846458"><ele>54.00000000000001</ele><time>2026-04-19T13:45:06Z</time></trkpt><trkpt lat="45.13638149475619" lon="9.387931214830358"><ele>54.0</ele><time>2026-04-19T13:45:07Z</time></trkpt><trkpt lat="45.13636088669777" lon="9.388036134477135"><ele>54.0</ele><time>2026-04-19T13:45:08Z</time></trkpt><trkpt lat="45.13636124657618" lon="9.388125448834833"><ele>54.0</ele><time>2026-04-19T13:45:09Z</time></trkpt><trkpt lat="45.1364407810149" lon="9.388256447427993"><ele>54.00000000000001</ele><time>2026-04-19T13:45:11Z</time></trkpt><trkpt lat="45.13650315231357" lon="9.388317735667378"><ele>54.00000000000001</ele><time>2026-04-19T13:45:12Z</time></trkpt><trkpt lat="45.13654381431951" lon="9.388403588576525"><ele>54.0</ele><time>2026-04-19T13:45:13Z</time></trkpt><trkpt lat="45.13655872523062" lon="9.388523334390136"><ele>54.0</ele><time>2026-04-19T13:45:14Z</time></trkpt><trkpt lat="45.13655572071164" lon="9.38867569292688"><ele>54.0</ele><time>2026-04-19T13:45:15Z</time></trkpt><trkpt lat="45.13653577057611" lon="9.388843236946707"><ele>54.0</ele><time>2026-04-19T13:45:16Z</time></trkpt><trkpt lat="45.136527749981596" lon="9.388997337824938"><ele>54.0</ele><time>2026-04-19T13:45:17Z</time></trkpt><trkpt lat="45.13652981323204" lon="9.389157059273803"><ele>54.0</ele><time>2026-04-19T13:45:18Z</time></trkpt><trkpt lat="45.136545223367584" lon="9.389330888383494"><ele>54.0</ele><time>2026-04-19T13:45:19Z</time></trkpt><trkpt lat="45.136577615374385" lon="9.389473893141897"><ele>54.00000000000001</ele><time>2026-04-19T13:45:20Z</time></trkpt><trkpt lat="45.13663272324474" lon="9.38959506102716"><ele>54.00000000000001</ele><time>2026-04-19T13:45:21Z</time></trkpt><trkpt lat="45.136688819317826" lon="9.389706159605256"><ele>54.0</ele><time>2026-04-19T13:45:22Z</time></trkpt><trkpt lat="45.13674345724618" lon="9.389818597683409"><ele>54.0</ele><time>2026-04-19T13:45:23Z</time></trkpt><trkpt lat="45.13680352693318" lon="9.389930505587724"><ele>54.0</ele><time>2026-04-19T13:45:24Z</time></trkpt><trkpt lat="45.13686997721399" lon="9.390028215829181"><ele>54.00000000000001</ele><time>2026-04-19T13:45:25Z</time></trkpt><trkpt lat="45.13693966536325" lon="9.390116040721328"><ele>54.00000000000001</ele><time>2026-04-19T13:45:26Z</time></trkpt><trkpt lat="45.137018319518354" lon="9.390204929568899"><ele>54.0</ele><time>2026-04-19T13:45:27Z</time></trkpt><trkpt lat="45.13710938161714" lon="9.390316817742239"><ele>54.0</ele><time>2026-04-19T13:45:28Z</time></trkpt><trkpt lat="45.13721845399561" lon="9.390427516689902"><ele>53.75</ele><time>2026-04-19T13:45:29Z</time></trkpt><trkpt lat="45.137334756579605" lon="9.390538529602917"><ele>53.5</ele><time>2026-04-19T13:45:30Z</time></trkpt><trkpt lat="45.137457910424935" lon="9.390642984210583"><ele>53.25</ele><time>2026-04-19T13:45:31Z</time></trkpt><trkpt lat="45.13758009816093" lon="9.390746112013327"><ele>53.0</ele><time>2026-04-19T13:45:32Z</time></trkpt><trkpt lat="45.137707547097754" lon="9.390859251405747"><ele>53.0</ele><time>2026-04-19T13:45:33Z</time></trkpt><trkpt lat="45.13782392730157" lon="9.390966380343215"><ele>53.0</ele><time>2026-04-19T13:45:34Z</time></trkpt><trkpt lat="45.13794183960376" lon="9.39108844711645"><ele>53.0</ele><time>2026-04-19T13:45:35Z</time></trkpt><trkpt lat="45.13805125367768" lon="9.391227378785882"><ele>53.0</ele><time>2026-04-19T13:45:36Z</time></trkpt><trkpt lat="45.13816201337487" lon="9.391385623280568"><ele>53.0</ele><time>2026-04-19T13:45:37.001Z</time></trkpt><trkpt lat="45.13827235202568" lon="9.39154907943321"><ele>53.0</ele><time>2026-04-19T13:45:38.001Z</time></trkpt><trkpt lat="45.13838109192727" lon="9.391702048548208"><ele>53.0</ele><time>2026-04-19T13:45:39.001Z</time></trkpt><trkpt lat="45.13849509716948" lon="9.39184933724668"><ele>53.0</ele><time>2026-04-19T13:45:40.001Z</time></trkpt><trkpt lat="45.13860656482099" lon="9.392002140421226"><ele>53.0</ele><time>2026-04-19T13:45:41.001Z</time></trkpt><trkpt lat="45.138701692462014" lon="9.392133765057803"><ele>53.0</ele><time>2026-04-19T13:45:42.001Z</time></trkpt><trkpt lat="45.13878922630398" lon="9.392261306627123"><ele>53.0</ele><time>2026-04-19T13:45:43.001Z</time></trkpt><trkpt lat="45.138881437094945" lon="9.392390009070501"><ele>53.0</ele><time>2026-04-19T13:45:44.001Z</time></trkpt><trkpt lat="45.138980229115944" lon="9.392523839310453"><ele>53.0</ele><time>2026-04-19T13:45:45.001Z</time></trkpt><trkpt lat="45.13908522935446" lon="9.392646809175169"><ele>53.0</ele><time>2026-04-19T13:45:46.001Z</time></trkpt><trkpt lat="45.139186286185435" lon="9.39274613730916"><ele>53.0</ele><time>2026-04-19T13:45:47.001Z</time></trkpt><trkpt lat="45.13930210137212" lon="9.392826141511048"><ele>53.0</ele><time>2026-04-19T13:45:48.001Z</time></trkpt><trkpt lat="45.13940713212346" lon="9.39288443349994"><ele>53.0</ele><time>2026-04-19T13:45:49.001Z</time></trkpt><trkpt lat="45.13950418953505" lon="9.392946143227126"><ele>53.0</ele><time>2026-04-19T13:45:50.001Z</time></trkpt><trkpt lat="45.13960912812275" lon="9.393055591035106"><ele>53.0</ele><time>2026-04-19T13:45:51.001Z</time></trkpt><trkpt lat="45.13972412533415" lon="9.39319179556782"><ele>53.0</ele><time>2026-04-19T13:45:52.001Z</time></trkpt><trkpt lat="45.13984507331509" lon="9.393345950422788"><ele>53.0</ele><time>2026-04-19T13:45:53.001Z</time></trkpt><trkpt lat="45.13995350581945" lon="9.393473719099811"><ele>53.0</ele><time>2026-04-19T13:45:54.001Z</time></trkpt><trkpt lat="45.14004936415375" lon="9.393587663907713"><ele>53.0</ele><time>2026-04-19T13:45:55.001Z</time></trkpt><trkpt lat="45.1401280267964" lon="9.39368007311521"><ele>53.0</ele><time>2026-04-19T13:45:56.001Z</time></trkpt><trkpt lat="45.14019841095512" lon="9.393765676726197"><ele>53.0</ele><time>2026-04-19T13:45:57.001Z</time></trkpt><trkpt lat="45.14025812993497" lon="9.39384175172244"><ele>53.0</ele><time>2026-04-19T13:45:58.001Z</time></trkpt><trkpt lat="45.14031282512169" lon="9.39390728244103"><ele>53.0</ele><time>2026-04-19T13:45:59.001Z</time></trkpt><trkpt lat="45.14040998724733" lon="9.393982201798183"><ele>53.0</ele><time>2026-04-19T13:46:01.001Z</time></trkpt><trkpt lat="45.14051158583662" lon="9.39396293075653"><ele>53.0</ele><time>2026-04-19T13:46:03.001Z</time></trkpt><trkpt lat="45.14060462257418" lon="9.393847372629667"><ele>53.0</ele><time>2026-04-19T13:46:05.001Z</time></trkpt><trkpt lat="45.140650233684376" lon="9.39376468767255"><ele>53.0</ele><time>2026-04-19T13:46:06.001Z</time></trkpt><trkpt lat="45.14070353473058" lon="9.393663054747586"><ele>53.0</ele><time>2026-04-19T13:46:07.001Z</time></trkpt><trkpt lat="45.140758667657956" lon="9.393546360302356"><ele>53.0</ele><time>2026-04-19T13:46:08.001Z</time></trkpt><trkpt lat="45.140823804353104" lon="9.393406395257454"><ele>53.0</ele><time>2026-04-19T13:46:09.001Z</time></trkpt><trkpt lat="45.140894602466794" lon="9.393264482767897"><ele>53.0</ele><time>2026-04-19T13:46:10.001Z</time></trkpt><trkpt lat="45.14095278317322" lon="9.39311541722321"><ele>53.0</ele><time>2026-04-19T13:46:11.001Z</time></trkpt><trkpt lat="45.14099976212436" lon="9.3929535989167"><ele>53.0</ele><time>2026-04-19T13:46:12.001Z</time></trkpt><trkpt lat="45.141039749931345" lon="9.392774674436184"><ele>53.0</ele><time>2026-04-19T13:46:13.001Z</time></trkpt><trkpt lat="45.14108299632092" lon="9.392589820932569"><ele>53.0</ele><time>2026-04-19T13:46:14.001Z</time></trkpt><trkpt lat="45.14112111910015" lon="9.39241351999992"><ele>53.0</ele><time>2026-04-19T13:46:15.001Z</time></trkpt><trkpt lat="45.14115957096076" lon="9.392234349612213"><ele>53.0</ele><time>2026-04-19T13:46:16.001Z</time></trkpt><trkpt lat="45.141189993811594" lon="9.392045903758486"><ele>53.25</ele><time>2026-04-19T13:46:17.001Z</time></trkpt><trkpt lat="45.141213258691685" lon="9.391862749596351"><ele>53.5</ele><time>2026-04-19T13:46:18.001Z</time></trkpt><trkpt lat="45.14123005247204" lon="9.391685148398487"><ele>53.75</ele><time>2026-04-19T13:46:19.001Z</time></trkpt><trkpt lat="45.14125310571852" lon="9.391509778090192"><ele>54.0</ele><time>2026-04-19T13:46:20.001Z</time></trkpt><trkpt lat="45.14128462836988" lon="9.391347875589666"><ele>53.6</ele><time>2026-04-19T13:46:21.001Z</time></trkpt><trkpt lat="45.14132651969812" lon="9.391207817251523"><ele>53.2</ele><time>2026-04-19T13:46:22.001Z</time></trkpt><trkpt lat="45.14136009516797" lon="9.391076034290053"><ele>52.800000000000004</ele><time>2026-04-19T13:46:23.001Z</time></trkpt><trkpt lat="45.1413846087107" lon="9.390931697640495"><ele>52.400000000000006</ele><time>2026-04-19T13:46:24.001Z</time></trkpt><trkpt lat="45.14141296046551" lon="9.390798076803001"><ele>52.0</ele><time>2026-04-19T13:46:25.001Z</time></trkpt><trkpt lat="45.14145435632896" lon="9.390683124210689"><ele>51.99999999999999</ele><time>2026-04-19T13:46:26.001Z</time></trkpt><trkpt lat="45.141516849959885" lon="9.390569637854503"><ele>52.0</ele><time>2026-04-19T13:46:27.001Z</time></trkpt><trkpt lat="45.14159023800699" lon="9.390470931174397"><ele>52.0</ele><time>2026-04-19T13:46:28Z</time></trkpt><trkpt lat="45.14166889626474" lon="9.390388726635805"><ele>52.0</ele><time>2026-04-19T13:46:29Z</time></trkpt><trkpt lat="45.141729170308615" lon="9.390333591707769"><ele>51.99999999999999</ele><time>2026-04-19T13:46:30Z</time></trkpt><trkpt lat="45.1417843402237" lon="9.390285313612331"><ele>52.0</ele><time>2026-04-19T13:46:31Z</time></trkpt><trkpt lat="45.14189476502977" lon="9.390276816882967"><ele>52.0</ele><time>2026-04-19T13:46:33Z</time></trkpt><trkpt lat="45.14197175040812" lon="9.390326644583048"><ele>52.0</ele><time>2026-04-19T13:46:34Z</time></trkpt><trkpt lat="45.14205870402579" lon="9.39040269051535"><ele>52.0</ele><time>2026-04-19T13:46:35Z</time></trkpt><trkpt lat="45.142140376198206" lon="9.390482083669047"><ele>52.0</ele><time>2026-04-19T13:46:36Z</time></trkpt><trkpt lat="45.14222400267561" lon="9.390575606233893"><ele>52.0</ele><time>2026-04-19T13:46:37Z</time></trkpt><trkpt lat="45.14229521010447" lon="9.390664814224984"><ele>52.0</ele><time>2026-04-19T13:46:38Z</time></trkpt><trkpt lat="45.14235118588658" lon="9.390729706823581"><ele>52.0</ele><time>2026-04-19T13:46:39Z</time></trkpt><trkpt lat="45.14241048340443" lon="9.390773097578043"><ele>52.0</ele><time>2026-04-19T13:46:40Z</time></trkpt><trkpt lat="45.14251919847751" lon="9.39076745162796"><ele>52.0</ele><time>2026-04-19T13:46:42Z</time></trkpt><trkpt lat="45.14259571556316" lon="9.390621980602212"><ele>52.0</ele><time>2026-04-19T13:46:44Z</time></trkpt><trkpt lat="45.14262665031159" lon="9.39051915398411"><ele>52.166666666666664</ele><time>2026-04-19T13:46:45Z</time></trkpt><trkpt lat="45.14266410918838" lon="9.390430003249138"><ele>52.33333333333333</ele><time>2026-04-19T13:46:46Z</time></trkpt><trkpt lat="45.14274406304127" lon="9.390377478529278"><ele>52.5</ele><time>2026-04-19T13:46:48Z</time></trkpt><trkpt lat="45.14282509979653" lon="9.390442849024824"><ele>52.66666666666667</ele><time>2026-04-19T13:46:50Z</time></trkpt><trkpt lat="45.14288397305816" lon="9.390504256399229"><ele>52.833333333333336</ele><time>2026-04-19T13:46:51Z</time></trkpt><trkpt lat="45.14296151929234" lon="9.390540848522049"><ele>53.0</ele><time>2026-04-19T13:46:52Z</time></trkpt><trkpt lat="45.1430716569726" lon="9.390551888663587"><ele>53.0</ele><time>2026-04-19T13:46:53Z</time></trkpt><trkpt lat="45.143192598326266" lon="9.390556898891772"><ele>53.0</ele><time>2026-04-19T13:46:54Z</time></trkpt><trkpt lat="45.14332364936516" lon="9.39056931889723"><ele>53.0</ele><time>2026-04-19T13:46:55Z</time></trkpt><trkpt lat="45.14345332244924" lon="9.390577875723341"><ele>53.0</ele><time>2026-04-19T13:46:56Z</time></trkpt><trkpt lat="45.14358453221985" lon="9.390592559675598"><ele>52.8</ele><time>2026-04-19T13:46:57Z</time></trkpt><trkpt lat="45.143708322966475" lon="9.390609118771478"><ele>52.599999999999994</ele><time>2026-04-19T13:46:58Z</time></trkpt><trkpt lat="45.143819768784994" lon="9.39062710514458"><ele>52.400000000000006</ele><time>2026-04-19T13:46:59Z</time></trkpt><trkpt lat="45.14391724556428" lon="9.390651858713047"><ele>52.2</ele><time>2026-04-19T13:47:00Z</time></trkpt><trkpt lat="45.14401534621061" lon="9.390676759332159"><ele>52.0</ele><time>2026-04-19T13:47:01Z</time></trkpt><trkpt lat="45.144102719287524" lon="9.39070137108312"><ele>52.0</ele><time>2026-04-19T13:47:02Z</time></trkpt><trkpt lat="45.14418350466215" lon="9.390725552471084"><ele>52.0</ele><time>2026-04-19T13:47:03Z</time></trkpt><trkpt lat="45.14425956254655" lon="9.390750622657102"><ele>52.0</ele><time>2026-04-19T13:47:04Z</time></trkpt><trkpt lat="45.14433388180142" lon="9.390773021800118"><ele>52.0</ele><time>2026-04-19T13:47:05Z</time></trkpt><trkpt lat="45.14444439064924" lon="9.390816201029361"><ele>52.0</ele><time>2026-04-19T13:47:07Z</time></trkpt><trkpt lat="45.14449291166334" lon="9.390945788905185"><ele>52.0</ele><time>2026-04-19T13:47:09Z</time></trkpt><trkpt lat="45.14448877118083" lon="9.391044775863568"><ele>52.0</ele><time>2026-04-19T13:47:10Z</time></trkpt><trkpt lat="45.1444651949857" lon="9.391171213633692"><ele>52.0</ele><time>2026-04-19T13:47:11Z</time></trkpt><trkpt lat="45.14443736775058" lon="9.391317414463655"><ele>52.0</ele><time>2026-04-19T13:47:12Z</time></trkpt><trkpt lat="45.144416429873544" lon="9.391465765170222"><ele>52.0</ele><time>2026-04-19T13:47:13Z</time></trkpt><trkpt lat="45.14439707774346" lon="9.391600544381722"><ele>52.0</ele><time>2026-04-19T13:47:14Z</time></trkpt><trkpt lat="45.14438422880733" lon="9.39172152290066"><ele>52.0</ele><time>2026-04-19T13:47:15Z</time></trkpt><trkpt lat="45.144367323718" lon="9.391861352383142"><ele>52.0</ele><time>2026-04-19T13:47:16Z</time></trkpt><trkpt lat="45.14434744196704" lon="9.39200840205188"><ele>52.0</ele><time>2026-04-19T13:47:17Z</time></trkpt><trkpt lat="45.14432992182166" lon="9.392159970570521"><ele>52.0</ele><time>2026-04-19T13:47:18Z</time></trkpt><trkpt lat="45.14431192490422" lon="9.392299382631327"><ele>52.33333333333333</ele><time>2026-04-19T13:47:19Z</time></trkpt><trkpt lat="45.144296735226945" lon="9.3924353388067"><ele>52.666666666666664</ele><time>2026-04-19T13:47:20Z</time></trkpt><trkpt lat="45.14427945252756" lon="9.392563708785863"><ele>53.0</ele><time>2026-04-19T13:47:21.001Z</time></trkpt><trkpt lat="45.14426565052838" lon="9.392683513929677"><ele>53.33333333333333</ele><time>2026-04-19T13:47:22.001Z</time></trkpt><trkpt lat="45.1442530167626" lon="9.392799215207122"><ele>53.666666666666664</ele><time>2026-04-19T13:47:23.001Z</time></trkpt><trkpt lat="45.144241540510976" lon="9.392890582542316"><ele>54.0</ele><time>2026-04-19T13:47:24.001Z</time></trkpt><trkpt lat="45.1442181018648" lon="9.393048569591485"><ele>54.2</ele><time>2026-04-19T13:47:26.001Z</time></trkpt><trkpt lat="45.14420720045451" lon="9.39319249213909"><ele>54.400000000000006</ele><time>2026-04-19T13:47:28.001Z</time></trkpt><trkpt lat="45.144245237312525" lon="9.393303136281144"><ele>54.6</ele><time>2026-04-19T13:47:30.001Z</time></trkpt><trkpt lat="45.14434606817083" lon="9.393374915363141"><ele>54.8</ele><time>2026-04-19T13:47:32.001Z</time></trkpt><trkpt lat="45.144415811668175" lon="9.393418425829509"><ele>55.0</ele><time>2026-04-19T13:47:33.001Z</time></trkpt><trkpt lat="45.14448345505958" lon="9.393461530738803"><ele>55.0</ele><time>2026-04-19T13:47:34.001Z</time></trkpt><trkpt lat="45.14455863091542" lon="9.39351086028593"><ele>55.0</ele><time>2026-04-19T13:47:35.001Z</time></trkpt><trkpt lat="45.14463728618776" lon="9.39356717626042"><ele>55.0</ele><time>2026-04-19T13:47:36.001Z</time></trkpt><trkpt lat="45.14473152075913" lon="9.393634574411033"><ele>55.0</ele><time>2026-04-19T13:47:37.001Z</time></trkpt><trkpt lat="45.14482084554057" lon="9.393708091648376"><ele>55.0</ele><time>2026-04-19T13:47:38.001Z</time></trkpt><trkpt lat="45.1449022468117" lon="9.393792233230826"><ele>54.4</ele><time>2026-04-19T13:47:39.001Z</time></trkpt><trkpt lat="45.144983408177296" lon="9.393884962274067"><ele>53.8</ele><time>2026-04-19T13:47:40.001Z</time></trkpt><trkpt lat="45.14505797296928" lon="9.39396725289353"><ele>53.2</ele><time>2026-04-19T13:47:41.001Z</time></trkpt><trkpt lat="45.14512736714936" lon="9.394040112462145"><ele>52.6</ele><time>2026-04-19T13:47:42.001Z</time></trkpt><trkpt lat="45.145204393008406" lon="9.394117084808771"><ele>52.0</ele><time>2026-04-19T13:47:43.001Z</time></trkpt><trkpt lat="45.145287471463575" lon="9.39420576054769"><ele>51.99999999999999</ele><time>2026-04-19T13:47:44.001Z</time></trkpt><trkpt lat="45.14537088066943" lon="9.394286933416751"><ele>52.0</ele><time>2026-04-19T13:47:45.001Z</time></trkpt><trkpt lat="45.145456870220634" lon="9.394368969384104"><ele>52.0</ele><time>2026-04-19T13:47:46.001Z</time></trkpt><trkpt lat="45.14553754401241" lon="9.394447354114611"><ele>52.0</ele><time>2026-04-19T13:47:47.001Z</time></trkpt><trkpt lat="45.14560081650857" lon="9.394512894411653"><ele>51.99999999999999</ele><time>2026-04-19T13:47:48.001Z</time></trkpt><trkpt lat="45.145656078973616" lon="9.39456228860173"><ele>52.0</ele><time>2026-04-19T13:47:49.001Z</time></trkpt><trkpt lat="45.14573224141055" lon="9.39464823997477"><ele>52.2</ele><time>2026-04-19T13:47:51.001Z</time></trkpt><trkpt lat="45.145755519362616" lon="9.394757306356487"><ele>52.400000000000006</ele><time>2026-04-19T13:47:53.001Z</time></trkpt><trkpt lat="45.145717140565026" lon="9.394899410894142"><ele>52.599999999999994</ele><time>2026-04-19T13:47:55.001Z</time></trkpt><trkpt lat="45.14566772914658" lon="9.395057142494943"><ele>52.8</ele><time>2026-04-19T13:47:57.001Z</time></trkpt><trkpt lat="45.14565114596841" lon="9.395212965437901"><ele>53.0</ele><time>2026-04-19T13:47:59.001Z</time></trkpt><trkpt lat="45.145722386595324" lon="9.395352426301155"><ele>53.00000000000001</ele><time>2026-04-19T13:48:01.001Z</time></trkpt><trkpt lat="45.14578423087496" lon="9.395415455423008"><ele>53.0</ele><time>2026-04-19T13:48:02.001Z</time></trkpt><trkpt lat="45.14585711380632" lon="9.395477306166576"><ele>53.0</ele><time>2026-04-19T13:48:03.001Z</time></trkpt><trkpt lat="45.14593357252547" lon="9.395539781074747"><ele>53.0</ele><time>2026-04-19T13:48:04.001Z</time></trkpt><trkpt lat="45.14601093334921" lon="9.39560661380372"><ele>53.00000000000001</ele><time>2026-04-19T13:48:05.001Z</time></trkpt><trkpt lat="45.146100150500196" lon="9.395688227467348"><ele>53.0</ele><time>2026-04-19T13:48:06.001Z</time></trkpt><trkpt lat="45.14619250531075" lon="9.39574934458315"><ele>53.0</ele><time>2026-04-19T13:48:07.001Z</time></trkpt><trkpt lat="45.14629593284455" lon="9.395800549569204"><ele>53.0</ele><time>2026-04-19T13:48:08.001Z</time></trkpt><trkpt lat="45.14641340687259" lon="9.395864273237851"><ele>53.0</ele><time>2026-04-19T13:48:09.001Z</time></trkpt><trkpt lat="45.14654302293754" lon="9.395926636475519"><ele>53.0</ele><time>2026-04-19T13:48:10.001Z</time></trkpt><trkpt lat="45.1466769822136" lon="9.395988412653454"><ele>53.0</ele><time>2026-04-19T13:48:11.001Z</time></trkpt><trkpt lat="45.14681305248845" lon="9.396056881334763"><ele>53.0</ele><time>2026-04-19T13:48:12.001Z</time></trkpt><trkpt lat="45.1469454660043" lon="9.396121808547148"><ele>53.0</ele><time>2026-04-19T13:48:13.001Z</time></trkpt><trkpt lat="45.147078277507326" lon="9.3961824921563"><ele>53.0</ele><time>2026-04-19T13:48:14.001Z</time></trkpt><trkpt lat="45.147230340086104" lon="9.396243895933697"><ele>53.0</ele><time>2026-04-19T13:48:15.001Z</time></trkpt><trkpt lat="45.14737529106831" lon="9.396310016468892"><ele>53.0</ele><time>2026-04-19T13:48:16.001Z</time></trkpt><trkpt lat="45.14751389948733" lon="9.396372938529934"><ele>53.0</ele><time>2026-04-19T13:48:17.001Z</time></trkpt><trkpt lat="45.14765358333832" lon="9.396435120403533"><ele>53.0</ele><time>2026-04-19T13:48:18.001Z</time></trkpt><trkpt lat="45.14780032830803" lon="9.396495907396485"><ele>53.0</ele><time>2026-04-19T13:48:19.001Z</time></trkpt><trkpt lat="45.14793861887611" lon="9.396550460657796"><ele>53.0</ele><time>2026-04-19T13:48:20.001Z</time></trkpt><trkpt lat="45.14808840843437" lon="9.396612642342495"><ele>53.0</ele><time>2026-04-19T13:48:21.001Z</time></trkpt><trkpt lat="45.148235002350766" lon="9.396679798692126"><ele>53.0</ele><time>2026-04-19T13:48:22.001Z</time></trkpt><trkpt lat="45.14838022033401" lon="9.396739291871365"><ele>53.0</ele><time>2026-04-19T13:48:23.001Z</time></trkpt><trkpt lat="45.14852412533425" lon="9.396790742743484"><ele>53.0</ele><time>2026-04-19T13:48:24.001Z</time></trkpt><trkpt lat="45.14865753771846" lon="9.396843061828212"><ele>53.0</ele><time>2026-04-19T13:48:25.001Z</time></trkpt><trkpt lat="45.148791942834265" lon="9.39690161179844"><ele>53.0</ele><time>2026-04-19T13:48:26.001Z</time></trkpt><trkpt lat="45.14892764051378" lon="9.39696197269076"><ele>53.0</ele><time>2026-04-19T13:48:27.001Z</time></trkpt><trkpt lat="45.14905321746579" lon="9.397018423418066"><ele>53.0</ele><time>2026-04-19T13:48:28.001Z</time></trkpt><trkpt lat="45.149168980211016" lon="9.397068917025686"><ele>53.0</ele><time>2026-04-19T13:48:29.001Z</time></trkpt><trkpt lat="45.149288400196355" lon="9.397123929190569"><ele>53.0</ele><time>2026-04-19T13:48:30.001Z</time></trkpt><trkpt lat="45.14941810051349" lon="9.397180487968965"><ele>53.0</ele><time>2026-04-19T13:48:31.001Z</time></trkpt><trkpt lat="45.149545515450505" lon="9.397244333884023"><ele>53.0</ele><time>2026-04-19T13:48:32.001Z</time></trkpt><trkpt lat="45.1496741556725" lon="9.397325776315142"><ele>53.0</ele><time>2026-04-19T13:48:33.001Z</time></trkpt><trkpt lat="45.14979566094302" lon="9.39741534734301"><ele>53.0</ele><time>2026-04-19T13:48:34Z</time></trkpt><trkpt lat="45.149913079773995" lon="9.397504138557576"><ele>53.0</ele><time>2026-04-19T13:48:35Z</time></trkpt><trkpt lat="45.15002570261494" lon="9.39757425697701"><ele>53.0</ele><time>2026-04-19T13:48:36Z</time></trkpt><trkpt lat="45.150143373035874" lon="9.397643101910756"><ele>53.0</ele><time>2026-04-19T13:48:37Z</time></trkpt><trkpt lat="45.15025501394435" lon="9.397702704951035"><ele>53.0</ele><time>2026-04-19T13:48:38Z</time></trkpt><trkpt lat="45.1503692268233" lon="9.397769337252386"><ele>53.0</ele><time>2026-04-19T13:48:39Z</time></trkpt><trkpt lat="45.15048557874653" lon="9.397842303238125"><ele>53.0</ele><time>2026-04-19T13:48:40Z</time></trkpt><trkpt lat="45.15058569433339" lon="9.397910035987739"><ele>53.0</ele><time>2026-04-19T13:48:41Z</time></trkpt><trkpt lat="45.150684759985474" lon="9.397977240232832"><ele>52.75</ele><time>2026-04-19T13:48:42Z</time></trkpt><trkpt lat="45.150771854200784" lon="9.398039153428762"><ele>52.5</ele><time>2026-04-19T13:48:43Z</time></trkpt><trkpt lat="45.15087757596077" lon="9.398083762968067"><ele>52.25</ele><time>2026-04-19T13:48:44Z</time></trkpt><trkpt lat="45.15099067728401" lon="9.398126721423264"><ele>52.0</ele><time>2026-04-19T13:48:45Z</time></trkpt><trkpt lat="45.15111609484953" lon="9.398182209348096"><ele>52.0</ele><time>2026-04-19T13:48:46Z</time></trkpt><trkpt lat="45.151241980409424" lon="9.398241029284732"><ele>52.0</ele><time>2026-04-19T13:48:47Z</time></trkpt><trkpt lat="45.15136773943905" lon="9.398300909285174"><ele>52.0</ele><time>2026-04-19T13:48:48Z</time></trkpt><trkpt lat="45.15148040549849" lon="9.398352470344085"><ele>52.0</ele><time>2026-04-19T13:48:49Z</time></trkpt><trkpt lat="45.15158000930234" lon="9.398399477466496"><ele>52.2</ele><time>2026-04-19T13:48:50Z</time></trkpt><trkpt lat="45.151677024118534" lon="9.398446232377836"><ele>52.400000000000006</ele><time>2026-04-19T13:48:51Z</time></trkpt><trkpt lat="45.15177448119825" lon="9.398495571088128"><ele>52.599999999999994</ele><time>2026-04-19T13:48:52Z</time></trkpt><trkpt lat="45.15187931388377" lon="9.3985486397843"><ele>52.8</ele><time>2026-04-19T13:48:53Z</time></trkpt><trkpt lat="45.15199095468979" lon="9.398590772347482"><ele>53.0</ele><time>2026-04-19T13:48:54Z</time></trkpt><trkpt lat="45.15210274997852" lon="9.398597247524775"><ele>53.0</ele><time>2026-04-19T13:48:55Z</time></trkpt><trkpt lat="45.1522224188713" lon="9.398575920209522"><ele>53.0</ele><time>2026-04-19T13:48:56Z</time></trkpt><trkpt lat="45.152336741173" lon="9.398542594447331"><ele>53.0</ele><time>2026-04-19T13:48:57Z</time></trkpt><trkpt lat="45.15244085575643" lon="9.398517723976852"><ele>53.0</ele><time>2026-04-19T13:48:58Z</time></trkpt><trkpt lat="45.15254924395323" lon="9.398494467371629"><ele>53.2</ele><time>2026-04-19T13:48:59Z</time></trkpt><trkpt lat="45.15264194275756" lon="9.398464507882636"><ele>53.4</ele><time>2026-04-19T13:49:00Z</time></trkpt><trkpt lat="45.15271678317135" lon="9.398452904310522"><ele>53.60000000000001</ele><time>2026-04-19T13:49:01Z</time></trkpt><trkpt lat="45.15283680872287" lon="9.39843731564118"><ele>53.800000000000004</ele><time>2026-04-19T13:49:03Z</time></trkpt><trkpt lat="45.152962654873306" lon="9.398467990464155"><ele>54.0</ele><time>2026-04-19T13:49:05Z</time></trkpt><trkpt lat="45.15302499907375" lon="9.398485213168005"><ele>54.0</ele><time>2026-04-19T13:49:06Z</time></trkpt><trkpt lat="45.15309435965367" lon="9.398495957510463"><ele>54.0</ele><time>2026-04-19T13:49:07Z</time></trkpt><trkpt lat="45.15316634340462" lon="9.398515861818888"><ele>54.0</ele><time>2026-04-19T13:49:08Z</time></trkpt><trkpt lat="45.15324150451982" lon="9.398539686634775"><ele>54.0</ele><time>2026-04-19T13:49:09Z</time></trkpt><trkpt lat="45.1533227791408" lon="9.398565190591077"><ele>54.0</ele><time>2026-04-19T13:49:10Z</time></trkpt><trkpt lat="45.1534085296478" lon="9.39859070143369"><ele>54.0</ele><time>2026-04-19T13:49:11Z</time></trkpt><trkpt lat="45.153487628351535" lon="9.398604645175332"><ele>53.857142857142854</ele><time>2026-04-19T13:49:12Z</time></trkpt><trkpt lat="45.153572609222756" lon="9.398620523457053"><ele>53.71428571428571</ele><time>2026-04-19T13:49:13Z</time></trkpt><trkpt lat="45.15364233723891" lon="9.398642252795845"><ele>53.57142857142857</ele><time>2026-04-19T13:49:14Z</time></trkpt><trkpt lat="45.15370532231296" lon="9.398662959132604"><ele>53.42857142857143</ele><time>2026-04-19T13:49:15Z</time></trkpt><trkpt lat="45.15377864091307" lon="9.398683311847044"><ele>53.285714285714285</ele><time>2026-04-19T13:49:16Z</time></trkpt><trkpt lat="45.153856725535036" lon="9.398708252943335"><ele>53.142857142857146</ele><time>2026-04-19T13:49:17.001Z</time></trkpt><trkpt lat="45.1539253123079" lon="9.398738181322969"><ele>53.0</ele><time>2026-04-19T13:49:18.001Z</time></trkpt><trkpt lat="45.15403570455517" lon="9.398761018091449"><ele>53.599999999999994</ele><time>2026-04-19T13:49:20.001Z</time></trkpt><trkpt lat="45.154143788110915" lon="9.398768464365977"><ele>54.199999999999996</ele><time>2026-04-19T13:49:22.001Z</time></trkpt><trkpt lat="45.154225405551664" lon="9.3987826352023"><ele>54.8</ele><time>2026-04-19T13:49:23.001Z</time></trkpt><trkpt lat="45.15432349961193" lon="9.398812658140606"><ele>55.4</ele><time>2026-04-19T13:49:24.001Z</time></trkpt><trkpt lat="45.15442585965942" lon="9.39884971507718"><ele>56.0</ele><time>2026-04-19T13:49:25.001Z</time></trkpt><trkpt lat="45.15451851531385" lon="9.398881329983379"><ele>56.00000000000001</ele><time>2026-04-19T13:49:26.001Z</time></trkpt><trkpt lat="45.15459413978919" lon="9.398908123889006"><ele>56.0</ele><time>2026-04-19T13:49:27.001Z</time></trkpt><trkpt lat="45.15466376160377" lon="9.398916498305471"><ele>56.0</ele><time>2026-04-19T13:49:28.001Z</time></trkpt><trkpt lat="45.15474051836634" lon="9.398889262767844"><ele>56.0</ele><time>2026-04-19T13:49:29.001Z</time></trkpt><trkpt lat="45.15481649421174" lon="9.398799399187931"><ele>56.00000000000001</ele><time>2026-04-19T13:49:30.001Z</time></trkpt><trkpt lat="45.154889200744755" lon="9.398739631432326"><ele>56.0</ele><time>2026-04-19T13:49:31.001Z</time></trkpt><trkpt lat="45.15499006776759" lon="9.398696923966265"><ele>58.75</ele><time>2026-04-19T13:49:32.001Z</time></trkpt><trkpt lat="45.15511363035284" lon="9.39868792733872"><ele>61.5</ele><time>2026-04-19T13:49:33.001Z</time></trkpt><trkpt lat="45.15523756108075" lon="9.398670762890177"><ele>64.25</ele><time>2026-04-19T13:49:34.001Z</time></trkpt><trkpt lat="45.155348941047855" lon="9.398642181155552"><ele>67.0</ele><time>2026-04-19T13:49:35.001Z</time></trkpt><trkpt lat="45.15546405479384" lon="9.398613401828525"><ele>67.0</ele><time>2026-04-19T13:49:36.001Z</time></trkpt><trkpt lat="45.15554836226372" lon="9.398611922677583"><ele>67.0</ele><time>2026-04-19T13:49:37.001Z</time></trkpt><trkpt lat="45.155611869607235" lon="9.398603368432045"><ele>67.0</ele><time>2026-04-19T13:49:38.001Z</time></trkpt><trkpt lat="45.15568693985889" lon="9.398601862666597"><ele>67.0</ele><time>2026-04-19T13:49:41.001Z</time></trkpt><trkpt lat="45.15569174949971" lon="9.398805435533747"><ele>67.0</ele><time>2026-04-19T13:49:44.001Z</time></trkpt><trkpt lat="45.15568098208543" lon="9.398938027976465"><ele>67.4</ele><time>2026-04-19T13:49:45.001Z</time></trkpt><trkpt lat="45.155686459358215" lon="9.399085451152665"><ele>67.80000000000001</ele><time>2026-04-19T13:49:46.001Z</time></trkpt><trkpt lat="45.15565989365982" lon="9.399246762545566"><ele>68.2</ele><time>2026-04-19T13:49:47.001Z</time></trkpt><trkpt lat="45.15564963766023" lon="9.399396910375998"><ele>68.60000000000001</ele><time>2026-04-19T13:49:48.001Z</time></trkpt><trkpt lat="45.15563911934632" lon="9.399550898517017"><ele>69.0</ele><time>2026-04-19T13:49:49.001Z</time></trkpt><trkpt lat="45.155644631956406" lon="9.39971172860391"><ele>69.2</ele><time>2026-04-19T13:49:50.001Z</time></trkpt><trkpt lat="45.15563265255739" lon="9.39985687759247"><ele>69.4</ele><time>2026-04-19T13:49:51.001Z</time></trkpt><trkpt lat="45.155625640445805" lon="9.399991879514701"><ele>69.6</ele><time>2026-04-19T13:49:52.001Z</time></trkpt><trkpt lat="45.155621765100456" lon="9.400122426215622"><ele>69.8</ele><time>2026-04-19T13:49:53.001Z</time></trkpt><trkpt lat="45.155610515386364" lon="9.400244960780833"><ele>70.0</ele><time>2026-04-19T13:49:54.001Z</time></trkpt><trkpt lat="45.1556040724885" lon="9.400348166208705"><ele>70.0</ele><time>2026-04-19T13:49:55.001Z</time></trkpt><trkpt lat="45.15560268020967" lon="9.400464965628455"><ele>70.0</ele><time>2026-04-19T13:49:56.001Z</time></trkpt><trkpt lat="45.155600680954265" lon="9.40059210959372"><ele>70.0</ele><time>2026-04-19T13:49:57.001Z</time></trkpt><trkpt lat="45.155593607816336" lon="9.400709361068003"><ele>70.0</ele><time>2026-04-19T13:49:58.001Z</time></trkpt><trkpt lat="45.155584529005324" lon="9.400817644011937"><ele>70.0</ele><time>2026-04-19T13:49:59.001Z</time></trkpt><trkpt lat="45.15557955081112" lon="9.400913099445141"><ele>70.0</ele><time>2026-04-19T13:50:00.001Z</time></trkpt><trkpt lat="45.1555773775913" lon="9.401080343128395"><ele>70.0</ele><time>2026-04-19T13:50:02.001Z</time></trkpt><trkpt lat="45.15558408791466" lon="9.40119671968134"><ele>70.0</ele><time>2026-04-19T13:50:05.001Z</time></trkpt><trkpt lat="45.1557256519044" lon="9.40128525341191"><ele>70.0</ele><time>2026-04-19T13:50:08.001Z</time></trkpt><trkpt lat="45.1558223179158" lon="9.401295442065535"><ele>70.0</ele><time>2026-04-19T13:50:09.001Z</time></trkpt><trkpt lat="45.15592226353223" lon="9.401292417531472"><ele>70.0</ele><time>2026-04-19T13:50:10.001Z</time></trkpt><trkpt lat="45.1560399860838" lon="9.401296159684962"><ele>70.25</ele><time>2026-04-19T13:50:11.001Z</time></trkpt><trkpt lat="45.15615194329505" lon="9.401337992837803"><ele>70.5</ele><time>2026-04-19T13:50:12.001Z</time></trkpt><trkpt lat="45.156270234122964" lon="9.401356147381643"><ele>70.75</ele><time>2026-04-19T13:50:13.001Z</time></trkpt><trkpt lat="45.156399902634774" lon="9.401364657060547"><ele>71.0</ele><time>2026-04-19T13:50:14.001Z</time></trkpt><trkpt lat="45.15652620876303" lon="9.401367886230862"><ele>71.25</ele><time>2026-04-19T13:50:15.001Z</time></trkpt><trkpt lat="45.15663976083519" lon="9.401369625398631"><ele>71.5</ele><time>2026-04-19T13:50:16.001Z</time></trkpt><trkpt lat="45.156761816708524" lon="9.401369625400177"><ele>71.75</ele><time>2026-04-19T13:50:17.001Z</time></trkpt><trkpt lat="45.15688053102317" lon="9.401369627356749"><ele>72.0</ele><time>2026-04-19T13:50:18.001Z</time></trkpt><trkpt lat="45.15698853486128" lon="9.401370889252043"><ele>72.0</ele><time>2026-04-19T13:50:19.001Z</time></trkpt><trkpt lat="45.15709596351812" lon="9.401372849904089"><ele>72.0</ele><time>2026-04-19T13:50:20.001Z</time></trkpt><trkpt lat="45.15722551521068" lon="9.401374190235883"><ele>72.0</ele><time>2026-04-19T13:50:22.001Z</time></trkpt><trkpt lat="45.157313609628204" lon="9.40134802257139"><ele>72.0</ele><time>2026-04-19T13:50:24.001Z</time></trkpt><trkpt lat="45.157380601388155" lon="9.401362464718007"><ele>72.0</ele><time>2026-04-19T13:50:27.001Z</time></trkpt><trkpt lat="45.157417194533075" lon="9.401456385876227"><ele>71.8</ele><time>2026-04-19T13:50:29.001Z</time></trkpt><trkpt lat="45.15752035521515" lon="9.401477564366235"><ele>71.6</ele><time>2026-04-19T13:50:31.001Z</time></trkpt><trkpt lat="45.15763652172945" lon="9.401475182846262"><ele>71.39999999999999</ele><time>2026-04-19T13:50:33.001Z</time></trkpt><trkpt lat="45.15770779829197" lon="9.401464656872626"><ele>71.2</ele><time>2026-04-19T13:50:34.001Z</time></trkpt><trkpt lat="45.15779260384707" lon="9.401483424732016"><ele>71.0</ele><time>2026-04-19T13:50:35.001Z</time></trkpt><trkpt lat="45.15789459869447" lon="9.401479193834385"><ele>71.0</ele><time>2026-04-19T13:50:36.001Z</time></trkpt><trkpt lat="45.15801006479043" lon="9.401474404129466"><ele>71.0</ele><time>2026-04-19T13:50:37.001Z</time></trkpt><trkpt lat="45.158147743912274" lon="9.401468692996076"><ele>71.0</ele><time>2026-04-19T13:50:38.001Z</time></trkpt><trkpt lat="45.15829365836088" lon="9.401462140306366"><ele>71.0</ele><time>2026-04-19T13:50:39.001Z</time></trkpt><trkpt lat="45.158435697364105" lon="9.401455644197815"><ele>70.5</ele><time>2026-04-19T13:50:40.001Z</time></trkpt><trkpt lat="45.158575561623536" lon="9.401445670676951"><ele>70.0</ele><time>2026-04-19T13:50:41.001Z</time></trkpt><trkpt lat="45.15871338367609" lon="9.401439200032952"><ele>69.5</ele><time>2026-04-19T13:50:42.001Z</time></trkpt><trkpt lat="45.15884411560904" lon="9.40142730559164"><ele>69.0</ele><time>2026-04-19T13:50:43Z</time></trkpt><trkpt lat="45.15896509616697" lon="9.401429526286012"><ele>68.60000000000001</ele><time>2026-04-19T13:50:44Z</time></trkpt><trkpt lat="45.159075183434645" lon="9.401426650223522"><ele>68.2</ele><time>2026-04-19T13:50:45Z</time></trkpt><trkpt lat="45.15918653325922" lon="9.40144094084576"><ele>67.80000000000001</ele><time>2026-04-19T13:50:46Z</time></trkpt><trkpt lat="45.15927729691013" lon="9.401423078783017"><ele>67.4</ele><time>2026-04-19T13:50:47Z</time></trkpt><trkpt lat="45.15935586376843" lon="9.40140692388014"><ele>67.0</ele><time>2026-04-19T13:50:48Z</time></trkpt><trkpt lat="45.15943335258358" lon="9.401395816126717"><ele>67.0</ele><time>2026-04-19T13:50:49Z</time></trkpt><trkpt lat="45.15950595737825" lon="9.401395057228699"><ele>67.0</ele><time>2026-04-19T13:50:50Z</time></trkpt><trkpt lat="45.159595061813754" lon="9.401376345715601"><ele>67.0</ele><time>2026-04-19T13:50:52Z</time></trkpt><trkpt lat="45.15967871680532" lon="9.401362013219149"><ele>67.0</ele><time>2026-04-19T13:50:56Z</time></trkpt><trkpt lat="45.159710783952306" lon="9.401094844726524"><ele>67.0</ele><time>2026-04-19T13:50:59Z</time></trkpt><trkpt lat="45.15971058805513" lon="9.400968461226473"><ele>67.2</ele><time>2026-04-19T13:51:00Z</time></trkpt><trkpt lat="45.15970703855427" lon="9.400833592512537"><ele>67.4</ele><time>2026-04-19T13:51:01Z</time></trkpt><trkpt lat="45.15971075376078" lon="9.400677659840134"><ele>67.6</ele><time>2026-04-19T13:51:02Z</time></trkpt><trkpt lat="45.15971266135878" lon="9.400517459578948"><ele>67.8</ele><time>2026-04-19T13:51:03Z</time></trkpt><trkpt lat="45.15970991745198" lon="9.400348587460691"><ele>68.0</ele><time>2026-04-19T13:51:04Z</time></trkpt><trkpt lat="45.159706096296226" lon="9.400164471220105"><ele>68.0</ele><time>2026-04-19T13:51:05Z</time></trkpt><trkpt lat="45.15970450100813" lon="9.39997468540825"><ele>68.0</ele><time>2026-04-19T13:51:06Z</time></trkpt><trkpt lat="45.159702488830085" lon="9.399797623943643"><ele>68.0</ele><time>2026-04-19T13:51:07Z</time></trkpt><trkpt lat="45.15970470432499" lon="9.399618557274687"><ele>68.0</ele><time>2026-04-19T13:51:08Z</time></trkpt><trkpt lat="45.15970563665913" lon="9.399437868445569"><ele>68.2</ele><time>2026-04-19T13:51:09Z</time></trkpt><trkpt lat="45.159708835829676" lon="9.399273262976092"><ele>68.4</ele><time>2026-04-19T13:51:10Z</time></trkpt><trkpt lat="45.159711244853696" lon="9.399121821005327"><ele>68.60000000000001</ele><time>2026-04-19T13:51:11Z</time></trkpt><trkpt lat="45.15971137282253" lon="9.398994549381513"><ele>68.8</ele><time>2026-04-19T13:51:12Z</time></trkpt><trkpt lat="45.159719349310194" lon="9.398888032392149"><ele>69.0</ele><time>2026-04-19T13:51:13Z</time></trkpt><trkpt lat="45.15974093850938" lon="9.398802068725878"><ele>69.0</ele><time>2026-04-19T13:51:14Z</time></trkpt><trkpt lat="45.15976731494603" lon="9.39866896371227"><ele>69.0</ele><time>2026-04-19T13:51:16Z</time></trkpt><trkpt lat="45.15976708534667" lon="9.398578354718458"><ele>69.0</ele><time>2026-04-19T13:51:18Z</time></trkpt><trkpt lat="45.15987933667619" lon="9.398521214693924"><ele>70.0</ele><time>2026-04-19T13:51:20Z</time></trkpt></trkseg></trk></gpx>